<?xml version="1.0" encoding="UTF-8" standalone="no" ?>
<gpx xmlns="http://www.topografix.com/GPX/1/1" xmlns:xsi="http://www.w3.org/2001/XMLSchema-instance" xsi:schemaLocation="http://www.topografix.com/GPX/1/1 http://www.topografix.com/GPX/1/1/gpx.xsd" version="1.1" creator="VisuGPX - https://www.visugpx.com">
  <metadata>
    <name>st Ciergue   Liez VTT retour 3 rois</name>
    <desc><![CDATA[Vtt autour 2 lacs de Langres]]></desc>
  </metadata>
  <trk>
    <name><![CDATA[iPhone track from 2014-08-04T12:57:52Z]]></name>
    <trkseg>
      <trkpt lat="47.85102" lon="5.3261">
        <ele>510.4309</ele>
        <time>2014-08-04T12:57:52Z</time>
      </trkpt>
      <trkpt lat="47.85112" lon="5.32596">
        <ele>505.8301</ele>
        <time>2014-08-04T12:57:53Z</time>
      </trkpt>
      <trkpt lat="47.85118" lon="5.32586">
        <ele>499.9643</ele>
        <time>2014-08-04T12:58:01Z</time>
      </trkpt>
      <trkpt lat="47.85113" lon="5.32576">
        <ele>499.673</ele>
        <time>2014-08-04T12:58:07Z</time>
      </trkpt>
      <trkpt lat="47.8511" lon="5.32583">
        <ele>460.9852</ele>
        <time>2014-08-04T12:58:12Z</time>
      </trkpt>
      <trkpt lat="47.85114" lon="5.32591">
        <ele>458.8909</ele>
        <time>2014-08-04T12:58:15Z</time>
      </trkpt>
      <trkpt lat="47.85117" lon="5.32596">
        <ele>454.1165</ele>
        <time>2014-08-04T12:58:17Z</time>
      </trkpt>
      <trkpt lat="47.85122" lon="5.32602">
        <ele>451.5232</ele>
        <time>2014-08-04T12:58:19Z</time>
      </trkpt>
      <trkpt lat="47.85127" lon="5.32609">
        <ele>452.5403</ele>
        <time>2014-08-04T12:58:21Z</time>
      </trkpt>
      <trkpt lat="47.85133" lon="5.32615">
        <ele>449.4283</ele>
        <time>2014-08-04T12:58:23Z</time>
      </trkpt>
      <trkpt lat="47.8514" lon="5.32622">
        <ele>449.0323</ele>
        <time>2014-08-04T12:58:25Z</time>
      </trkpt>
      <trkpt lat="47.85145" lon="5.32628">
        <ele>449.1994</ele>
        <time>2014-08-04T12:58:27Z</time>
      </trkpt>
      <trkpt lat="47.8515" lon="5.32634">
        <ele>449.6091</ele>
        <time>2014-08-04T12:58:29Z</time>
      </trkpt>
      <trkpt lat="47.85157" lon="5.32639">
        <ele>452.0669</ele>
        <time>2014-08-04T12:58:31Z</time>
      </trkpt>
      <trkpt lat="47.85162" lon="5.32639">
        <ele>451.937</ele>
        <time>2014-08-04T12:58:34Z</time>
      </trkpt>
      <trkpt lat="47.85169" lon="5.32638">
        <ele>454.5537</ele>
        <time>2014-08-04T12:58:36Z</time>
      </trkpt>
      <trkpt lat="47.85174" lon="5.32639">
        <ele>453.412</ele>
        <time>2014-08-04T12:58:37Z</time>
      </trkpt>
      <trkpt lat="47.85179" lon="5.32639">
        <ele>448.9418</ele>
        <time>2014-08-04T12:58:38Z</time>
      </trkpt>
      <trkpt lat="47.85188" lon="5.3264">
        <ele>446.5889</ele>
        <time>2014-08-04T12:58:40Z</time>
      </trkpt>
      <trkpt lat="47.85194" lon="5.32642">
        <ele>444.6028</ele>
        <time>2014-08-04T12:58:41Z</time>
      </trkpt>
      <trkpt lat="47.852" lon="5.32644">
        <ele>446.4016</ele>
        <time>2014-08-04T12:58:42Z</time>
      </trkpt>
      <trkpt lat="47.85206" lon="5.32647">
        <ele>441.2374</ele>
        <time>2014-08-04T12:58:43Z</time>
      </trkpt>
      <trkpt lat="47.85212" lon="5.32649">
        <ele>438.2152</ele>
        <time>2014-08-04T12:58:44Z</time>
      </trkpt>
      <trkpt lat="47.85218" lon="5.32652">
        <ele>440.8936</ele>
        <time>2014-08-04T12:58:45Z</time>
      </trkpt>
      <trkpt lat="47.85224" lon="5.32654">
        <ele>442.2874</ele>
        <time>2014-08-04T12:58:46Z</time>
      </trkpt>
      <trkpt lat="47.85229" lon="5.32654">
        <ele>440.8943</ele>
        <time>2014-08-04T12:58:47Z</time>
      </trkpt>
      <trkpt lat="47.85235" lon="5.32655">
        <ele>440.0042</ele>
        <time>2014-08-04T12:58:48Z</time>
      </trkpt>
      <trkpt lat="47.85241" lon="5.32656">
        <ele>437.3888</ele>
        <time>2014-08-04T12:58:49Z</time>
      </trkpt>
      <trkpt lat="47.85248" lon="5.32658">
        <ele>436.9977</ele>
        <time>2014-08-04T12:58:50Z</time>
      </trkpt>
      <trkpt lat="47.85255" lon="5.3266">
        <ele>436.771</ele>
        <time>2014-08-04T12:58:51Z</time>
      </trkpt>
      <trkpt lat="47.85263" lon="5.32663">
        <ele>437.7909</ele>
        <time>2014-08-04T12:58:52Z</time>
      </trkpt>
      <trkpt lat="47.85271" lon="5.32664">
        <ele>437.5169</ele>
        <time>2014-08-04T12:58:53Z</time>
      </trkpt>
      <trkpt lat="47.85279" lon="5.32664">
        <ele>440.5155</ele>
        <time>2014-08-04T12:58:54Z</time>
      </trkpt>
      <trkpt lat="47.85287" lon="5.32664">
        <ele>444.0042</ele>
        <time>2014-08-04T12:58:55Z</time>
      </trkpt>
      <trkpt lat="47.85294" lon="5.32663">
        <ele>443.6918</ele>
        <time>2014-08-04T12:58:56Z</time>
      </trkpt>
      <trkpt lat="47.853" lon="5.32662">
        <ele>441.9366</ele>
        <time>2014-08-04T12:58:57Z</time>
      </trkpt>
      <trkpt lat="47.85308" lon="5.3266">
        <ele>445.4102</ele>
        <time>2014-08-04T12:58:58Z</time>
      </trkpt>
      <trkpt lat="47.85315" lon="5.32658">
        <ele>446.5606</ele>
        <time>2014-08-04T12:58:59Z</time>
      </trkpt>
      <trkpt lat="47.85323" lon="5.32658">
        <ele>443.7249</ele>
        <time>2014-08-04T12:59:00Z</time>
      </trkpt>
      <trkpt lat="47.85332" lon="5.32658">
        <ele>444.2444</ele>
        <time>2014-08-04T12:59:01Z</time>
      </trkpt>
      <trkpt lat="47.85341" lon="5.32657">
        <ele>443.4271</ele>
        <time>2014-08-04T12:59:02Z</time>
      </trkpt>
      <trkpt lat="47.8535" lon="5.32656">
        <ele>442.8913</ele>
        <time>2014-08-04T12:59:03Z</time>
      </trkpt>
      <trkpt lat="47.8536" lon="5.32655">
        <ele>441.3502</ele>
        <time>2014-08-04T12:59:04Z</time>
      </trkpt>
      <trkpt lat="47.8537" lon="5.32653">
        <ele>439.9283</ele>
        <time>2014-08-04T12:59:05Z</time>
      </trkpt>
      <trkpt lat="47.8538" lon="5.32652">
        <ele>441.258</ele>
        <time>2014-08-04T12:59:06Z</time>
      </trkpt>
      <trkpt lat="47.8539" lon="5.32651">
        <ele>439.2894</ele>
        <time>2014-08-04T12:59:07Z</time>
      </trkpt>
      <trkpt lat="47.85401" lon="5.32649">
        <ele>437.5941</ele>
        <time>2014-08-04T12:59:08Z</time>
      </trkpt>
      <trkpt lat="47.85411" lon="5.3265">
        <ele>438.3558</ele>
        <time>2014-08-04T12:59:09Z</time>
      </trkpt>
      <trkpt lat="47.8542" lon="5.32651">
        <ele>437.4789</ele>
        <time>2014-08-04T12:59:10Z</time>
      </trkpt>
      <trkpt lat="47.85429" lon="5.32652">
        <ele>436.7822</ele>
        <time>2014-08-04T12:59:11Z</time>
      </trkpt>
      <trkpt lat="47.85437" lon="5.32652">
        <ele>437.5377</ele>
        <time>2014-08-04T12:59:12Z</time>
      </trkpt>
      <trkpt lat="47.85446" lon="5.32653">
        <ele>434.7262</ele>
        <time>2014-08-04T12:59:13Z</time>
      </trkpt>
      <trkpt lat="47.85455" lon="5.32653">
        <ele>434.1617</ele>
        <time>2014-08-04T12:59:14Z</time>
      </trkpt>
      <trkpt lat="47.85465" lon="5.32655">
        <ele>435.8391</ele>
        <time>2014-08-04T12:59:15Z</time>
      </trkpt>
      <trkpt lat="47.85475" lon="5.32657">
        <ele>435.4829</ele>
        <time>2014-08-04T12:59:16Z</time>
      </trkpt>
      <trkpt lat="47.85485" lon="5.32658">
        <ele>435.113</ele>
        <time>2014-08-04T12:59:17Z</time>
      </trkpt>
      <trkpt lat="47.85495" lon="5.3266">
        <ele>433.7501</ele>
        <time>2014-08-04T12:59:18Z</time>
      </trkpt>
      <trkpt lat="47.85505" lon="5.32662">
        <ele>432.8909</ele>
        <time>2014-08-04T12:59:19Z</time>
      </trkpt>
      <trkpt lat="47.85515" lon="5.32663">
        <ele>431.0055</ele>
        <time>2014-08-04T12:59:20Z</time>
      </trkpt>
      <trkpt lat="47.85525" lon="5.32665">
        <ele>430.2877</ele>
        <time>2014-08-04T12:59:21Z</time>
      </trkpt>
      <trkpt lat="47.85534" lon="5.32667">
        <ele>429.5568</ele>
        <time>2014-08-04T12:59:22Z</time>
      </trkpt>
      <trkpt lat="47.85544" lon="5.32668">
        <ele>429.0919</ele>
        <time>2014-08-04T12:59:23Z</time>
      </trkpt>
      <trkpt lat="47.85553" lon="5.3267">
        <ele>428.4914</ele>
        <time>2014-08-04T12:59:24Z</time>
      </trkpt>
      <trkpt lat="47.85563" lon="5.32672">
        <ele>427.02</ele>
        <time>2014-08-04T12:59:25Z</time>
      </trkpt>
      <trkpt lat="47.85572" lon="5.32673">
        <ele>427.4852</ele>
        <time>2014-08-04T12:59:26Z</time>
      </trkpt>
      <trkpt lat="47.85581" lon="5.32674">
        <ele>426.4913</ele>
        <time>2014-08-04T12:59:27Z</time>
      </trkpt>
      <trkpt lat="47.85589" lon="5.32675">
        <ele>424.9921</ele>
        <time>2014-08-04T12:59:28Z</time>
      </trkpt>
      <trkpt lat="47.85598" lon="5.32673">
        <ele>425.2846</ele>
        <time>2014-08-04T12:59:29Z</time>
      </trkpt>
      <trkpt lat="47.85606" lon="5.32669">
        <ele>423.6537</ele>
        <time>2014-08-04T12:59:30Z</time>
      </trkpt>
      <trkpt lat="47.85613" lon="5.32662">
        <ele>422.0352</ele>
        <time>2014-08-04T12:59:31Z</time>
      </trkpt>
      <trkpt lat="47.85618" lon="5.32654">
        <ele>422.9987</ele>
        <time>2014-08-04T12:59:32Z</time>
      </trkpt>
      <trkpt lat="47.85622" lon="5.32642">
        <ele>421.7164</ele>
        <time>2014-08-04T12:59:33Z</time>
      </trkpt>
      <trkpt lat="47.85625" lon="5.32631">
        <ele>421.0478</ele>
        <time>2014-08-04T12:59:34Z</time>
      </trkpt>
      <trkpt lat="47.85625" lon="5.32619">
        <ele>419.0985</ele>
        <time>2014-08-04T12:59:35Z</time>
      </trkpt>
      <trkpt lat="47.85624" lon="5.32607">
        <ele>421.8203</ele>
        <time>2014-08-04T12:59:36Z</time>
      </trkpt>
      <trkpt lat="47.85623" lon="5.32597">
        <ele>420.8988</ele>
        <time>2014-08-04T12:59:37Z</time>
      </trkpt>
      <trkpt lat="47.85622" lon="5.32587">
        <ele>418.2055</ele>
        <time>2014-08-04T12:59:38Z</time>
      </trkpt>
      <trkpt lat="47.85624" lon="5.32578">
        <ele>418.293</ele>
        <time>2014-08-04T12:59:39Z</time>
      </trkpt>
      <trkpt lat="47.85629" lon="5.32571">
        <ele>418.2766</ele>
        <time>2014-08-04T12:59:40Z</time>
      </trkpt>
      <trkpt lat="47.85634" lon="5.32569">
        <ele>418.8306</ele>
        <time>2014-08-04T12:59:41Z</time>
      </trkpt>
      <trkpt lat="47.85639" lon="5.32567">
        <ele>417.9725</ele>
        <time>2014-08-04T12:59:42Z</time>
      </trkpt>
      <trkpt lat="47.85646" lon="5.32566">
        <ele>418.3982</ele>
        <time>2014-08-04T12:59:43Z</time>
      </trkpt>
      <trkpt lat="47.85654" lon="5.32564">
        <ele>418.1639</ele>
        <time>2014-08-04T12:59:44Z</time>
      </trkpt>
      <trkpt lat="47.85663" lon="5.32562">
        <ele>417.6368</ele>
        <time>2014-08-04T12:59:45Z</time>
      </trkpt>
      <trkpt lat="47.85671" lon="5.32561">
        <ele>416.8544</ele>
        <time>2014-08-04T12:59:46Z</time>
      </trkpt>
      <trkpt lat="47.85679" lon="5.3256">
        <ele>416.5043</ele>
        <time>2014-08-04T12:59:47Z</time>
      </trkpt>
      <trkpt lat="47.85688" lon="5.32558">
        <ele>415.5606</ele>
        <time>2014-08-04T12:59:48Z</time>
      </trkpt>
      <trkpt lat="47.85698" lon="5.32557">
        <ele>415.216</ele>
        <time>2014-08-04T12:59:49Z</time>
      </trkpt>
      <trkpt lat="47.85706" lon="5.32555">
        <ele>414.2111</ele>
        <time>2014-08-04T12:59:50Z</time>
      </trkpt>
      <trkpt lat="47.85715" lon="5.32553">
        <ele>411.5115</ele>
        <time>2014-08-04T12:59:51Z</time>
      </trkpt>
      <trkpt lat="47.85721" lon="5.32548">
        <ele>409.6012</ele>
        <time>2014-08-04T12:59:52Z</time>
      </trkpt>
      <trkpt lat="47.85725" lon="5.3254">
        <ele>410.4121</ele>
        <time>2014-08-04T12:59:53Z</time>
      </trkpt>
      <trkpt lat="47.85727" lon="5.32531">
        <ele>410.0339</ele>
        <time>2014-08-04T12:59:54Z</time>
      </trkpt>
      <trkpt lat="47.85729" lon="5.32522">
        <ele>409.9077</ele>
        <time>2014-08-04T12:59:55Z</time>
      </trkpt>
      <trkpt lat="47.8573" lon="5.32512">
        <ele>410.3943</ele>
        <time>2014-08-04T12:59:56Z</time>
      </trkpt>
      <trkpt lat="47.85734" lon="5.32505">
        <ele>410.2521</ele>
        <time>2014-08-04T12:59:57Z</time>
      </trkpt>
      <trkpt lat="47.85739" lon="5.32499">
        <ele>407.0236</ele>
        <time>2014-08-04T12:59:58Z</time>
      </trkpt>
      <trkpt lat="47.85743" lon="5.32494">
        <ele>405.1858</ele>
        <time>2014-08-04T12:59:59Z</time>
      </trkpt>
      <trkpt lat="47.85748" lon="5.32489">
        <ele>407.5363</ele>
        <time>2014-08-04T13:00:00Z</time>
      </trkpt>
      <trkpt lat="47.85753" lon="5.32488">
        <ele>406.8308</ele>
        <time>2014-08-04T13:00:01Z</time>
      </trkpt>
      <trkpt lat="47.85762" lon="5.32487">
        <ele>411.208</ele>
        <time>2014-08-04T13:00:03Z</time>
      </trkpt>
      <trkpt lat="47.85768" lon="5.32487">
        <ele>411.7563</ele>
        <time>2014-08-04T13:00:04Z</time>
      </trkpt>
      <trkpt lat="47.85774" lon="5.32486">
        <ele>413.5424</ele>
        <time>2014-08-04T13:00:05Z</time>
      </trkpt>
      <trkpt lat="47.8578" lon="5.32482">
        <ele>415.331</ele>
        <time>2014-08-04T13:00:06Z</time>
      </trkpt>
      <trkpt lat="47.85785" lon="5.32476">
        <ele>413.7936</ele>
        <time>2014-08-04T13:00:07Z</time>
      </trkpt>
      <trkpt lat="47.85789" lon="5.32469">
        <ele>410.9446</ele>
        <time>2014-08-04T13:00:08Z</time>
      </trkpt>
      <trkpt lat="47.85795" lon="5.32459">
        <ele>407.5305</ele>
        <time>2014-08-04T13:00:09Z</time>
      </trkpt>
      <trkpt lat="47.85799" lon="5.32448">
        <ele>406.7866</ele>
        <time>2014-08-04T13:00:10Z</time>
      </trkpt>
      <trkpt lat="47.85805" lon="5.32434">
        <ele>406.5645</ele>
        <time>2014-08-04T13:00:11Z</time>
      </trkpt>
      <trkpt lat="47.85808" lon="5.32421">
        <ele>404.9442</ele>
        <time>2014-08-04T13:00:12Z</time>
      </trkpt>
      <trkpt lat="47.85812" lon="5.32408">
        <ele>402.6712</ele>
        <time>2014-08-04T13:00:13Z</time>
      </trkpt>
      <trkpt lat="47.85815" lon="5.32395">
        <ele>402.4338</ele>
        <time>2014-08-04T13:00:14Z</time>
      </trkpt>
      <trkpt lat="47.85816" lon="5.32383">
        <ele>400.3072</ele>
        <time>2014-08-04T13:00:15Z</time>
      </trkpt>
      <trkpt lat="47.85815" lon="5.3237">
        <ele>400.5243</ele>
        <time>2014-08-04T13:00:16Z</time>
      </trkpt>
      <trkpt lat="47.85812" lon="5.32353">
        <ele>399.367</ele>
        <time>2014-08-04T13:00:17Z</time>
      </trkpt>
      <trkpt lat="47.8581" lon="5.32337">
        <ele>397.4152</ele>
        <time>2014-08-04T13:00:18Z</time>
      </trkpt>
      <trkpt lat="47.85804" lon="5.32322">
        <ele>396.7086</ele>
        <time>2014-08-04T13:00:19Z</time>
      </trkpt>
      <trkpt lat="47.85798" lon="5.32307">
        <ele>397.3477</ele>
        <time>2014-08-04T13:00:20Z</time>
      </trkpt>
      <trkpt lat="47.85792" lon="5.32292">
        <ele>396.0092</ele>
        <time>2014-08-04T13:00:21Z</time>
      </trkpt>
      <trkpt lat="47.85784" lon="5.32277">
        <ele>393.8754</ele>
        <time>2014-08-04T13:00:22Z</time>
      </trkpt>
      <trkpt lat="47.85776" lon="5.32262">
        <ele>391.9284</ele>
        <time>2014-08-04T13:00:23Z</time>
      </trkpt>
      <trkpt lat="47.85768" lon="5.32245">
        <ele>390.72</ele>
        <time>2014-08-04T13:00:24Z</time>
      </trkpt>
      <trkpt lat="47.85761" lon="5.32229">
        <ele>393.0193</ele>
        <time>2014-08-04T13:00:25Z</time>
      </trkpt>
      <trkpt lat="47.85753" lon="5.32211">
        <ele>391.3911</ele>
        <time>2014-08-04T13:00:26Z</time>
      </trkpt>
      <trkpt lat="47.85745" lon="5.32195">
        <ele>388.8154</ele>
        <time>2014-08-04T13:00:27Z</time>
      </trkpt>
      <trkpt lat="47.85737" lon="5.3218">
        <ele>386.8154</ele>
        <time>2014-08-04T13:00:28Z</time>
      </trkpt>
      <trkpt lat="47.85728" lon="5.32164">
        <ele>387.0859</ele>
        <time>2014-08-04T13:00:29Z</time>
      </trkpt>
      <trkpt lat="47.85719" lon="5.32148">
        <ele>386.2064</ele>
        <time>2014-08-04T13:00:30Z</time>
      </trkpt>
      <trkpt lat="47.8571" lon="5.32134">
        <ele>385.7562</ele>
        <time>2014-08-04T13:00:31Z</time>
      </trkpt>
      <trkpt lat="47.85702" lon="5.32121">
        <ele>385.0686</ele>
        <time>2014-08-04T13:00:32Z</time>
      </trkpt>
      <trkpt lat="47.85694" lon="5.32107">
        <ele>379.1127</ele>
        <time>2014-08-04T13:00:33Z</time>
      </trkpt>
      <trkpt lat="47.85685" lon="5.32092">
        <ele>374.1222</ele>
        <time>2014-08-04T13:00:34Z</time>
      </trkpt>
      <trkpt lat="47.85678" lon="5.32076">
        <ele>371.0912</ele>
        <time>2014-08-04T13:00:35Z</time>
      </trkpt>
      <trkpt lat="47.85671" lon="5.32059">
        <ele>370.444</ele>
        <time>2014-08-04T13:00:36Z</time>
      </trkpt>
      <trkpt lat="47.85666" lon="5.32041">
        <ele>368.5105</ele>
        <time>2014-08-04T13:00:37Z</time>
      </trkpt>
      <trkpt lat="47.8566" lon="5.32022">
        <ele>366.9246</ele>
        <time>2014-08-04T13:00:38Z</time>
      </trkpt>
      <trkpt lat="47.85655" lon="5.32004">
        <ele>365.528</ele>
        <time>2014-08-04T13:00:39Z</time>
      </trkpt>
      <trkpt lat="47.8565" lon="5.31987">
        <ele>364.7396</ele>
        <time>2014-08-04T13:00:40Z</time>
      </trkpt>
      <trkpt lat="47.85646" lon="5.31969">
        <ele>364.7695</ele>
        <time>2014-08-04T13:00:41Z</time>
      </trkpt>
      <trkpt lat="47.85642" lon="5.31951">
        <ele>361.5464</ele>
        <time>2014-08-04T13:00:42Z</time>
      </trkpt>
      <trkpt lat="47.85638" lon="5.31933">
        <ele>359.8651</ele>
        <time>2014-08-04T13:00:43Z</time>
      </trkpt>
      <trkpt lat="47.85635" lon="5.31917">
        <ele>360.1931</ele>
        <time>2014-08-04T13:00:44Z</time>
      </trkpt>
      <trkpt lat="47.85632" lon="5.31902">
        <ele>358.8217</ele>
        <time>2014-08-04T13:00:45Z</time>
      </trkpt>
      <trkpt lat="47.85629" lon="5.31887">
        <ele>361.1514</ele>
        <time>2014-08-04T13:00:46Z</time>
      </trkpt>
      <trkpt lat="47.85625" lon="5.31872">
        <ele>357.9297</ele>
        <time>2014-08-04T13:00:47Z</time>
      </trkpt>
      <trkpt lat="47.85622" lon="5.31858">
        <ele>358.6004</ele>
        <time>2014-08-04T13:00:48Z</time>
      </trkpt>
      <trkpt lat="47.85619" lon="5.31845">
        <ele>357.9108</ele>
        <time>2014-08-04T13:00:49Z</time>
      </trkpt>
      <trkpt lat="47.85616" lon="5.31832">
        <ele>361.3297</ele>
        <time>2014-08-04T13:00:50Z</time>
      </trkpt>
      <trkpt lat="47.85613" lon="5.31819">
        <ele>360.3191</ele>
        <time>2014-08-04T13:00:51Z</time>
      </trkpt>
      <trkpt lat="47.85609" lon="5.31808">
        <ele>357.6013</ele>
        <time>2014-08-04T13:00:52Z</time>
      </trkpt>
      <trkpt lat="47.85606" lon="5.31797">
        <ele>359.3689</ele>
        <time>2014-08-04T13:00:53Z</time>
      </trkpt>
      <trkpt lat="47.85602" lon="5.31786">
        <ele>359.5004</ele>
        <time>2014-08-04T13:00:54Z</time>
      </trkpt>
      <trkpt lat="47.85598" lon="5.31777">
        <ele>359.0145</ele>
        <time>2014-08-04T13:00:55Z</time>
      </trkpt>
      <trkpt lat="47.85595" lon="5.31769">
        <ele>359.7271</ele>
        <time>2014-08-04T13:00:56Z</time>
      </trkpt>
      <trkpt lat="47.85592" lon="5.31761">
        <ele>361.1026</ele>
        <time>2014-08-04T13:00:57Z</time>
      </trkpt>
      <trkpt lat="47.85588" lon="5.31753">
        <ele>361.9821</ele>
        <time>2014-08-04T13:00:58Z</time>
      </trkpt>
      <trkpt lat="47.85582" lon="5.31743">
        <ele>360.8431</ele>
        <time>2014-08-04T13:01:00Z</time>
      </trkpt>
      <trkpt lat="47.85576" lon="5.31733">
        <ele>356.5362</ele>
        <time>2014-08-04T13:01:02Z</time>
      </trkpt>
      <trkpt lat="47.85571" lon="5.31724">
        <ele>360.8362</ele>
        <time>2014-08-04T13:01:04Z</time>
      </trkpt>
      <trkpt lat="47.85568" lon="5.31713">
        <ele>360.7075</ele>
        <time>2014-08-04T13:01:06Z</time>
      </trkpt>
      <trkpt lat="47.85564" lon="5.31706">
        <ele>359.6277</ele>
        <time>2014-08-04T13:01:08Z</time>
      </trkpt>
      <trkpt lat="47.85561" lon="5.31698">
        <ele>363.6649</ele>
        <time>2014-08-04T13:01:10Z</time>
      </trkpt>
      <trkpt lat="47.85558" lon="5.3169">
        <ele>362.3809</ele>
        <time>2014-08-04T13:01:12Z</time>
      </trkpt>
      <trkpt lat="47.85555" lon="5.31683">
        <ele>365.9943</ele>
        <time>2014-08-04T13:01:14Z</time>
      </trkpt>
      <trkpt lat="47.85552" lon="5.31677">
        <ele>364.9453</ele>
        <time>2014-08-04T13:01:16Z</time>
      </trkpt>
      <trkpt lat="47.85549" lon="5.31671">
        <ele>364.4106</ele>
        <time>2014-08-04T13:01:18Z</time>
      </trkpt>
      <trkpt lat="47.85545" lon="5.31665">
        <ele>367.6076</ele>
        <time>2014-08-04T13:01:20Z</time>
      </trkpt>
      <trkpt lat="47.8554" lon="5.3166">
        <ele>373.6723</ele>
        <time>2014-08-04T13:01:22Z</time>
      </trkpt>
      <trkpt lat="47.85535" lon="5.31657">
        <ele>374.7565</ele>
        <time>2014-08-04T13:01:24Z</time>
      </trkpt>
      <trkpt lat="47.85531" lon="5.31655">
        <ele>374.1443</ele>
        <time>2014-08-04T13:01:26Z</time>
      </trkpt>
      <trkpt lat="47.85526" lon="5.31654">
        <ele>375.6257</ele>
        <time>2014-08-04T13:01:28Z</time>
      </trkpt>
      <trkpt lat="47.85521" lon="5.31651">
        <ele>378.5293</ele>
        <time>2014-08-04T13:01:31Z</time>
      </trkpt>
      <trkpt lat="47.85516" lon="5.3165">
        <ele>383.1915</ele>
        <time>2014-08-04T13:01:34Z</time>
      </trkpt>
      <trkpt lat="47.85511" lon="5.31645">
        <ele>377.8192</ele>
        <time>2014-08-04T13:01:38Z</time>
      </trkpt>
      <trkpt lat="47.85507" lon="5.31639">
        <ele>376.4833</ele>
        <time>2014-08-04T13:01:41Z</time>
      </trkpt>
      <trkpt lat="47.85506" lon="5.31632">
        <ele>375.3727</ele>
        <time>2014-08-04T13:01:44Z</time>
      </trkpt>
      <trkpt lat="47.85505" lon="5.31623">
        <ele>376.7349</ele>
        <time>2014-08-04T13:01:47Z</time>
      </trkpt>
      <trkpt lat="47.85506" lon="5.31614">
        <ele>377.699</ele>
        <time>2014-08-04T13:01:50Z</time>
      </trkpt>
      <trkpt lat="47.85506" lon="5.31605">
        <ele>378.7839</ele>
        <time>2014-08-04T13:01:53Z</time>
      </trkpt>
      <trkpt lat="47.85506" lon="5.31598">
        <ele>381.7339</ele>
        <time>2014-08-04T13:01:55Z</time>
      </trkpt>
      <trkpt lat="47.85507" lon="5.31591">
        <ele>382.9615</ele>
        <time>2014-08-04T13:01:57Z</time>
      </trkpt>
      <trkpt lat="47.85507" lon="5.31582">
        <ele>383.6286</ele>
        <time>2014-08-04T13:02:00Z</time>
      </trkpt>
      <trkpt lat="47.85506" lon="5.31573">
        <ele>384.8878</ele>
        <time>2014-08-04T13:02:03Z</time>
      </trkpt>
      <trkpt lat="47.85505" lon="5.31565">
        <ele>386.0832</ele>
        <time>2014-08-04T13:02:06Z</time>
      </trkpt>
      <trkpt lat="47.85504" lon="5.31559">
        <ele>389.2039</ele>
        <time>2014-08-04T13:02:09Z</time>
      </trkpt>
      <trkpt lat="47.85502" lon="5.31551">
        <ele>389.6148</ele>
        <time>2014-08-04T13:02:12Z</time>
      </trkpt>
      <trkpt lat="47.855" lon="5.31543">
        <ele>390.6697</ele>
        <time>2014-08-04T13:02:16Z</time>
      </trkpt>
      <trkpt lat="47.85499" lon="5.31536">
        <ele>394.2777</ele>
        <time>2014-08-04T13:02:19Z</time>
      </trkpt>
      <trkpt lat="47.855" lon="5.31529">
        <ele>392.4216</ele>
        <time>2014-08-04T13:02:24Z</time>
      </trkpt>
      <trkpt lat="47.85503" lon="5.31522">
        <ele>388.4778</ele>
        <time>2014-08-04T13:02:28Z</time>
      </trkpt>
      <trkpt lat="47.85505" lon="5.31515">
        <ele>387.1437</ele>
        <time>2014-08-04T13:02:32Z</time>
      </trkpt>
      <trkpt lat="47.85506" lon="5.31508">
        <ele>381.1365</ele>
        <time>2014-08-04T13:02:35Z</time>
      </trkpt>
      <trkpt lat="47.85507" lon="5.31498">
        <ele>387.6627</ele>
        <time>2014-08-04T13:02:40Z</time>
      </trkpt>
      <trkpt lat="47.85509" lon="5.31491">
        <ele>388.8371</ele>
        <time>2014-08-04T13:02:44Z</time>
      </trkpt>
      <trkpt lat="47.85511" lon="5.31482">
        <ele>393.9703</ele>
        <time>2014-08-04T13:02:50Z</time>
      </trkpt>
      <trkpt lat="47.85513" lon="5.31467">
        <ele>396.1422</ele>
        <time>2014-08-04T13:02:58Z</time>
      </trkpt>
      <trkpt lat="47.85516" lon="5.31459">
        <ele>399.6167</ele>
        <time>2014-08-04T13:03:01Z</time>
      </trkpt>
      <trkpt lat="47.85517" lon="5.31441">
        <ele>397.7705</ele>
        <time>2014-08-04T13:03:09Z</time>
      </trkpt>
      <trkpt lat="47.85516" lon="5.31431">
        <ele>402.6118</ele>
        <time>2014-08-04T13:03:13Z</time>
      </trkpt>
      <trkpt lat="47.85516" lon="5.31424">
        <ele>395.4011</ele>
        <time>2014-08-04T13:03:17Z</time>
      </trkpt>
      <trkpt lat="47.85516" lon="5.31417">
        <ele>398.1602</ele>
        <time>2014-08-04T13:03:22Z</time>
      </trkpt>
      <trkpt lat="47.85515" lon="5.31408">
        <ele>400.8437</ele>
        <time>2014-08-04T13:03:26Z</time>
      </trkpt>
      <trkpt lat="47.85515" lon="5.31401">
        <ele>398.118</ele>
        <time>2014-08-04T13:03:31Z</time>
      </trkpt>
      <trkpt lat="47.85515" lon="5.31393">
        <ele>404.5598</ele>
        <time>2014-08-04T13:03:36Z</time>
      </trkpt>
      <trkpt lat="47.85515" lon="5.31385">
        <ele>404.6564</ele>
        <time>2014-08-04T13:03:39Z</time>
      </trkpt>
      <trkpt lat="47.85514" lon="5.31377">
        <ele>414.2689</ele>
        <time>2014-08-04T13:03:43Z</time>
      </trkpt>
      <trkpt lat="47.85513" lon="5.3137">
        <ele>411.717</ele>
        <time>2014-08-04T13:03:47Z</time>
      </trkpt>
      <trkpt lat="47.85511" lon="5.31363">
        <ele>401.7033</ele>
        <time>2014-08-04T13:03:53Z</time>
      </trkpt>
      <trkpt lat="47.85511" lon="5.31356">
        <ele>400.3129</ele>
        <time>2014-08-04T13:03:57Z</time>
      </trkpt>
      <trkpt lat="47.8551" lon="5.31349">
        <ele>402.2665</ele>
        <time>2014-08-04T13:04:00Z</time>
      </trkpt>
      <trkpt lat="47.85508" lon="5.31342">
        <ele>402.4989</ele>
        <time>2014-08-04T13:04:03Z</time>
      </trkpt>
      <trkpt lat="47.85505" lon="5.31338">
        <ele>400.6104</ele>
        <time>2014-08-04T13:04:07Z</time>
      </trkpt>
      <trkpt lat="47.855" lon="5.31331">
        <ele>399.9647</ele>
        <time>2014-08-04T13:04:14Z</time>
      </trkpt>
      <trkpt lat="47.85495" lon="5.31325">
        <ele>405.821</ele>
        <time>2014-08-04T13:04:20Z</time>
      </trkpt>
      <trkpt lat="47.85491" lon="5.3132">
        <ele>404.7715</ele>
        <time>2014-08-04T13:04:24Z</time>
      </trkpt>
      <trkpt lat="47.85486" lon="5.31312">
        <ele>408.5874</ele>
        <time>2014-08-04T13:04:30Z</time>
      </trkpt>
      <trkpt lat="47.85483" lon="5.31301">
        <ele>412.442</ele>
        <time>2014-08-04T13:04:40Z</time>
      </trkpt>
      <trkpt lat="47.8548" lon="5.31293">
        <ele>419.6296</ele>
        <time>2014-08-04T13:04:46Z</time>
      </trkpt>
      <trkpt lat="47.85477" lon="5.31284">
        <ele>420.3972</ele>
        <time>2014-08-04T13:04:57Z</time>
      </trkpt>
      <trkpt lat="47.85474" lon="5.31271">
        <ele>422.1421</ele>
        <time>2014-08-04T13:05:08Z</time>
      </trkpt>
      <trkpt lat="47.85473" lon="5.31261">
        <ele>435.2819</ele>
        <time>2014-08-04T13:05:15Z</time>
      </trkpt>
      <trkpt lat="47.85469" lon="5.3125">
        <ele>434.0862</ele>
        <time>2014-08-04T13:05:23Z</time>
      </trkpt>
      <trkpt lat="47.85464" lon="5.31244">
        <ele>442.9692</ele>
        <time>2014-08-04T13:05:31Z</time>
      </trkpt>
      <trkpt lat="47.85459" lon="5.31238">
        <ele>434.6505</ele>
        <time>2014-08-04T13:05:39Z</time>
      </trkpt>
      <trkpt lat="47.85452" lon="5.31238">
        <ele>443.1089</ele>
        <time>2014-08-04T13:05:48Z</time>
      </trkpt>
      <trkpt lat="47.85443" lon="5.31236">
        <ele>447.6387</ele>
        <time>2014-08-04T13:05:56Z</time>
      </trkpt>
      <trkpt lat="47.85438" lon="5.31239">
        <ele>446.9355</ele>
        <time>2014-08-04T13:06:00Z</time>
      </trkpt>
      <trkpt lat="47.85434" lon="5.31242">
        <ele>452.848</ele>
        <time>2014-08-04T13:06:04Z</time>
      </trkpt>
      <trkpt lat="47.85429" lon="5.31242">
        <ele>457.9088</ele>
        <time>2014-08-04T13:06:08Z</time>
      </trkpt>
      <trkpt lat="47.85425" lon="5.31237">
        <ele>454.1264</ele>
        <time>2014-08-04T13:06:12Z</time>
      </trkpt>
      <trkpt lat="47.85421" lon="5.31232">
        <ele>449.486</ele>
        <time>2014-08-04T13:06:19Z</time>
      </trkpt>
      <trkpt lat="47.85418" lon="5.31227">
        <ele>449.5328</ele>
        <time>2014-08-04T13:06:25Z</time>
      </trkpt>
      <trkpt lat="47.85414" lon="5.31223">
        <ele>454.3826</ele>
        <time>2014-08-04T13:06:33Z</time>
      </trkpt>
      <trkpt lat="47.85409" lon="5.31221">
        <ele>452.4963</ele>
        <time>2014-08-04T13:06:39Z</time>
      </trkpt>
      <trkpt lat="47.85405" lon="5.31217">
        <ele>460.2605</ele>
        <time>2014-08-04T13:06:44Z</time>
      </trkpt>
      <trkpt lat="47.854" lon="5.31215">
        <ele>455.3058</ele>
        <time>2014-08-04T13:06:48Z</time>
      </trkpt>
      <trkpt lat="47.85395" lon="5.31214">
        <ele>451.3364</ele>
        <time>2014-08-04T13:06:56Z</time>
      </trkpt>
      <trkpt lat="47.8539" lon="5.31214">
        <ele>441.9005</ele>
        <time>2014-08-04T13:07:01Z</time>
      </trkpt>
      <trkpt lat="47.85384" lon="5.31217">
        <ele>437.9605</ele>
        <time>2014-08-04T13:07:05Z</time>
      </trkpt>
      <trkpt lat="47.85379" lon="5.31219">
        <ele>443.0718</ele>
        <time>2014-08-04T13:07:08Z</time>
      </trkpt>
      <trkpt lat="47.85374" lon="5.31221">
        <ele>439.4698</ele>
        <time>2014-08-04T13:07:13Z</time>
      </trkpt>
      <trkpt lat="47.85368" lon="5.31221">
        <ele>442.6321</ele>
        <time>2014-08-04T13:07:18Z</time>
      </trkpt>
      <trkpt lat="47.85364" lon="5.3122">
        <ele>445.9778</ele>
        <time>2014-08-04T13:07:22Z</time>
      </trkpt>
      <trkpt lat="47.85358" lon="5.31218">
        <ele>447.5652</ele>
        <time>2014-08-04T13:07:27Z</time>
      </trkpt>
      <trkpt lat="47.85354" lon="5.31214">
        <ele>445.9605</ele>
        <time>2014-08-04T13:07:29Z</time>
      </trkpt>
      <trkpt lat="47.85349" lon="5.3121">
        <ele>438.6081</ele>
        <time>2014-08-04T13:07:32Z</time>
      </trkpt>
      <trkpt lat="47.85345" lon="5.31207">
        <ele>438.5195</ele>
        <time>2014-08-04T13:07:34Z</time>
      </trkpt>
      <trkpt lat="47.8534" lon="5.31202">
        <ele>441.7077</ele>
        <time>2014-08-04T13:07:37Z</time>
      </trkpt>
      <trkpt lat="47.85336" lon="5.31197">
        <ele>436.5946</ele>
        <time>2014-08-04T13:07:42Z</time>
      </trkpt>
      <trkpt lat="47.85334" lon="5.31187">
        <ele>434.2055</ele>
        <time>2014-08-04T13:07:45Z</time>
      </trkpt>
      <trkpt lat="47.85331" lon="5.31182">
        <ele>435.6671</ele>
        <time>2014-08-04T13:07:48Z</time>
      </trkpt>
      <trkpt lat="47.85328" lon="5.31175">
        <ele>437.371</ele>
        <time>2014-08-04T13:07:51Z</time>
      </trkpt>
      <trkpt lat="47.85324" lon="5.3117">
        <ele>434.9766</ele>
        <time>2014-08-04T13:07:54Z</time>
      </trkpt>
      <trkpt lat="47.8532" lon="5.31165">
        <ele>431.0514</ele>
        <time>2014-08-04T13:07:56Z</time>
      </trkpt>
      <trkpt lat="47.85318" lon="5.31157">
        <ele>432.3648</ele>
        <time>2014-08-04T13:07:59Z</time>
      </trkpt>
      <trkpt lat="47.8532" lon="5.31151">
        <ele>428.4956</ele>
        <time>2014-08-04T13:08:02Z</time>
      </trkpt>
      <trkpt lat="47.85324" lon="5.31146">
        <ele>435.4057</ele>
        <time>2014-08-04T13:08:06Z</time>
      </trkpt>
      <trkpt lat="47.8533" lon="5.31142">
        <ele>430.6578</ele>
        <time>2014-08-04T13:08:09Z</time>
      </trkpt>
      <trkpt lat="47.85334" lon="5.31138">
        <ele>430.8129</ele>
        <time>2014-08-04T13:08:11Z</time>
      </trkpt>
      <trkpt lat="47.85339" lon="5.31135">
        <ele>430.1765</ele>
        <time>2014-08-04T13:08:14Z</time>
      </trkpt>
      <trkpt lat="47.85334" lon="5.31139">
        <ele>435.2237</ele>
        <time>2014-08-04T13:08:19Z</time>
      </trkpt>
      <trkpt lat="47.85329" lon="5.31144">
        <ele>436.4635</ele>
        <time>2014-08-04T13:08:21Z</time>
      </trkpt>
      <trkpt lat="47.85324" lon="5.31149">
        <ele>435.8338</ele>
        <time>2014-08-04T13:08:23Z</time>
      </trkpt>
      <trkpt lat="47.85317" lon="5.31154">
        <ele>435.3369</ele>
        <time>2014-08-04T13:08:25Z</time>
      </trkpt>
      <trkpt lat="47.8531" lon="5.3116">
        <ele>437.8215</ele>
        <time>2014-08-04T13:08:27Z</time>
      </trkpt>
      <trkpt lat="47.85302" lon="5.31166">
        <ele>438.9302</ele>
        <time>2014-08-04T13:08:29Z</time>
      </trkpt>
      <trkpt lat="47.85298" lon="5.31169">
        <ele>440.2964</ele>
        <time>2014-08-04T13:08:30Z</time>
      </trkpt>
      <trkpt lat="47.85293" lon="5.31172">
        <ele>441.012</ele>
        <time>2014-08-04T13:08:31Z</time>
      </trkpt>
      <trkpt lat="47.85287" lon="5.31175">
        <ele>436.617</ele>
        <time>2014-08-04T13:08:32Z</time>
      </trkpt>
      <trkpt lat="47.85283" lon="5.31177">
        <ele>436.1442</ele>
        <time>2014-08-04T13:08:33Z</time>
      </trkpt>
      <trkpt lat="47.85276" lon="5.3118">
        <ele>435.7198</ele>
        <time>2014-08-04T13:08:35Z</time>
      </trkpt>
      <trkpt lat="47.8527" lon="5.31183">
        <ele>438.4634</ele>
        <time>2014-08-04T13:08:37Z</time>
      </trkpt>
      <trkpt lat="47.85263" lon="5.31186">
        <ele>436.0703</ele>
        <time>2014-08-04T13:08:39Z</time>
      </trkpt>
      <trkpt lat="47.85257" lon="5.31189">
        <ele>436.0955</ele>
        <time>2014-08-04T13:08:41Z</time>
      </trkpt>
      <trkpt lat="47.85251" lon="5.31189">
        <ele>439.5514</ele>
        <time>2014-08-04T13:08:43Z</time>
      </trkpt>
      <trkpt lat="47.85243" lon="5.31187">
        <ele>439.9395</ele>
        <time>2014-08-04T13:08:45Z</time>
      </trkpt>
      <trkpt lat="47.85236" lon="5.31182">
        <ele>437.1066</ele>
        <time>2014-08-04T13:08:47Z</time>
      </trkpt>
      <trkpt lat="47.85229" lon="5.31178">
        <ele>437.4386</ele>
        <time>2014-08-04T13:08:49Z</time>
      </trkpt>
      <trkpt lat="47.85223" lon="5.31172">
        <ele>440.897</ele>
        <time>2014-08-04T13:08:51Z</time>
      </trkpt>
      <trkpt lat="47.85217" lon="5.31166">
        <ele>439.2897</ele>
        <time>2014-08-04T13:08:53Z</time>
      </trkpt>
      <trkpt lat="47.8521" lon="5.31159">
        <ele>436.0843</ele>
        <time>2014-08-04T13:08:55Z</time>
      </trkpt>
      <trkpt lat="47.85206" lon="5.31153">
        <ele>437.0087</ele>
        <time>2014-08-04T13:08:57Z</time>
      </trkpt>
      <trkpt lat="47.85201" lon="5.31147">
        <ele>435.7397</ele>
        <time>2014-08-04T13:08:59Z</time>
      </trkpt>
      <trkpt lat="47.85196" lon="5.31138">
        <ele>436.7211</ele>
        <time>2014-08-04T13:09:01Z</time>
      </trkpt>
      <trkpt lat="47.85192" lon="5.31132">
        <ele>438.3795</ele>
        <time>2014-08-04T13:09:03Z</time>
      </trkpt>
      <trkpt lat="47.85188" lon="5.31125">
        <ele>436.3584</ele>
        <time>2014-08-04T13:09:05Z</time>
      </trkpt>
      <trkpt lat="47.85183" lon="5.31117">
        <ele>436.1643</ele>
        <time>2014-08-04T13:09:07Z</time>
      </trkpt>
      <trkpt lat="47.8518" lon="5.31109">
        <ele>439.7351</ele>
        <time>2014-08-04T13:09:09Z</time>
      </trkpt>
      <trkpt lat="47.85176" lon="5.311">
        <ele>441.6214</ele>
        <time>2014-08-04T13:09:11Z</time>
      </trkpt>
      <trkpt lat="47.85174" lon="5.31094">
        <ele>441.3213</ele>
        <time>2014-08-04T13:09:13Z</time>
      </trkpt>
      <trkpt lat="47.8517" lon="5.31084">
        <ele>438.7882</ele>
        <time>2014-08-04T13:09:15Z</time>
      </trkpt>
      <trkpt lat="47.85165" lon="5.31075">
        <ele>438.4507</ele>
        <time>2014-08-04T13:09:17Z</time>
      </trkpt>
      <trkpt lat="47.85162" lon="5.31067">
        <ele>441.3878</ele>
        <time>2014-08-04T13:09:19Z</time>
      </trkpt>
      <trkpt lat="47.85159" lon="5.3106">
        <ele>441.4697</ele>
        <time>2014-08-04T13:09:21Z</time>
      </trkpt>
      <trkpt lat="47.85155" lon="5.31052">
        <ele>444.0229</ele>
        <time>2014-08-04T13:09:23Z</time>
      </trkpt>
      <trkpt lat="47.8515" lon="5.31046">
        <ele>443.8561</ele>
        <time>2014-08-04T13:09:25Z</time>
      </trkpt>
      <trkpt lat="47.85146" lon="5.3104">
        <ele>442.4568</ele>
        <time>2014-08-04T13:09:27Z</time>
      </trkpt>
      <trkpt lat="47.85141" lon="5.31034">
        <ele>441.6726</ele>
        <time>2014-08-04T13:09:29Z</time>
      </trkpt>
      <trkpt lat="47.85136" lon="5.31027">
        <ele>441.1323</ele>
        <time>2014-08-04T13:09:31Z</time>
      </trkpt>
      <trkpt lat="47.85132" lon="5.31021">
        <ele>441.7241</ele>
        <time>2014-08-04T13:09:33Z</time>
      </trkpt>
      <trkpt lat="47.85127" lon="5.31014">
        <ele>441.9974</ele>
        <time>2014-08-04T13:09:35Z</time>
      </trkpt>
      <trkpt lat="47.85123" lon="5.31007">
        <ele>442.3399</ele>
        <time>2014-08-04T13:09:37Z</time>
      </trkpt>
      <trkpt lat="47.85117" lon="5.30999">
        <ele>442.3347</ele>
        <time>2014-08-04T13:09:39Z</time>
      </trkpt>
      <trkpt lat="47.85111" lon="5.30993">
        <ele>443.4464</ele>
        <time>2014-08-04T13:09:41Z</time>
      </trkpt>
      <trkpt lat="47.85106" lon="5.30986">
        <ele>444.1982</ele>
        <time>2014-08-04T13:09:43Z</time>
      </trkpt>
      <trkpt lat="47.85101" lon="5.3098">
        <ele>443.2483</ele>
        <time>2014-08-04T13:09:45Z</time>
      </trkpt>
      <trkpt lat="47.85095" lon="5.30974">
        <ele>443.4799</ele>
        <time>2014-08-04T13:09:47Z</time>
      </trkpt>
      <trkpt lat="47.85089" lon="5.3097">
        <ele>443.0666</ele>
        <time>2014-08-04T13:09:49Z</time>
      </trkpt>
      <trkpt lat="47.85084" lon="5.30967">
        <ele>443.9952</ele>
        <time>2014-08-04T13:09:51Z</time>
      </trkpt>
      <trkpt lat="47.8508" lon="5.30963">
        <ele>445.6937</ele>
        <time>2014-08-04T13:09:53Z</time>
      </trkpt>
      <trkpt lat="47.85075" lon="5.30957">
        <ele>447.4866</ele>
        <time>2014-08-04T13:09:55Z</time>
      </trkpt>
      <trkpt lat="47.85072" lon="5.30952">
        <ele>445.9991</ele>
        <time>2014-08-04T13:09:57Z</time>
      </trkpt>
      <trkpt lat="47.85069" lon="5.30946">
        <ele>446.2845</ele>
        <time>2014-08-04T13:09:59Z</time>
      </trkpt>
      <trkpt lat="47.85065" lon="5.3094">
        <ele>445.006</ele>
        <time>2014-08-04T13:10:01Z</time>
      </trkpt>
      <trkpt lat="47.85061" lon="5.30934">
        <ele>442.5049</ele>
        <time>2014-08-04T13:10:03Z</time>
      </trkpt>
      <trkpt lat="47.85058" lon="5.3093">
        <ele>443.2565</ele>
        <time>2014-08-04T13:10:05Z</time>
      </trkpt>
      <trkpt lat="47.85055" lon="5.30924">
        <ele>442.3059</ele>
        <time>2014-08-04T13:10:07Z</time>
      </trkpt>
      <trkpt lat="47.85051" lon="5.30919">
        <ele>443.7436</ele>
        <time>2014-08-04T13:10:09Z</time>
      </trkpt>
      <trkpt lat="47.85048" lon="5.30913">
        <ele>444.1851</ele>
        <time>2014-08-04T13:10:11Z</time>
      </trkpt>
      <trkpt lat="47.85043" lon="5.30909">
        <ele>447.6157</ele>
        <time>2014-08-04T13:10:14Z</time>
      </trkpt>
      <trkpt lat="47.85037" lon="5.30906">
        <ele>449.3681</ele>
        <time>2014-08-04T13:10:17Z</time>
      </trkpt>
      <trkpt lat="47.85033" lon="5.30908">
        <ele>452.9868</ele>
        <time>2014-08-04T13:10:19Z</time>
      </trkpt>
      <trkpt lat="47.85029" lon="5.3091">
        <ele>455.09</ele>
        <time>2014-08-04T13:10:21Z</time>
      </trkpt>
      <trkpt lat="47.85024" lon="5.30913">
        <ele>452.2756</ele>
        <time>2014-08-04T13:10:23Z</time>
      </trkpt>
      <trkpt lat="47.85019" lon="5.30916">
        <ele>451.5993</ele>
        <time>2014-08-04T13:10:25Z</time>
      </trkpt>
      <trkpt lat="47.85015" lon="5.3092">
        <ele>451.6054</ele>
        <time>2014-08-04T13:10:27Z</time>
      </trkpt>
      <trkpt lat="47.8501" lon="5.30925">
        <ele>451.4736</ele>
        <time>2014-08-04T13:10:30Z</time>
      </trkpt>
      <trkpt lat="47.85006" lon="5.30928">
        <ele>451.0004</ele>
        <time>2014-08-04T13:10:32Z</time>
      </trkpt>
      <trkpt lat="47.85001" lon="5.30931">
        <ele>451.4343</ele>
        <time>2014-08-04T13:10:34Z</time>
      </trkpt>
      <trkpt lat="47.84996" lon="5.30934">
        <ele>450.9457</ele>
        <time>2014-08-04T13:10:36Z</time>
      </trkpt>
      <trkpt lat="47.84991" lon="5.30938">
        <ele>452.8011</ele>
        <time>2014-08-04T13:10:38Z</time>
      </trkpt>
      <trkpt lat="47.84985" lon="5.3094">
        <ele>454.8418</ele>
        <time>2014-08-04T13:10:40Z</time>
      </trkpt>
      <trkpt lat="47.84979" lon="5.30941">
        <ele>458.5825</ele>
        <time>2014-08-04T13:10:42Z</time>
      </trkpt>
      <trkpt lat="47.84973" lon="5.30942">
        <ele>457.2388</ele>
        <time>2014-08-04T13:10:44Z</time>
      </trkpt>
      <trkpt lat="47.84968" lon="5.30944">
        <ele>458.3933</ele>
        <time>2014-08-04T13:10:46Z</time>
      </trkpt>
      <trkpt lat="47.84961" lon="5.30945">
        <ele>459.964</ele>
        <time>2014-08-04T13:10:48Z</time>
      </trkpt>
      <trkpt lat="47.84954" lon="5.30947">
        <ele>463.1494</ele>
        <time>2014-08-04T13:10:50Z</time>
      </trkpt>
      <trkpt lat="47.84946" lon="5.30953">
        <ele>463.49</ele>
        <time>2014-08-04T13:10:52Z</time>
      </trkpt>
      <trkpt lat="47.84942" lon="5.30956">
        <ele>467.0251</ele>
        <time>2014-08-04T13:10:53Z</time>
      </trkpt>
      <trkpt lat="47.84934" lon="5.30963">
        <ele>469.9448</ele>
        <time>2014-08-04T13:10:55Z</time>
      </trkpt>
      <trkpt lat="47.84929" lon="5.30966">
        <ele>465.279</ele>
        <time>2014-08-04T13:10:56Z</time>
      </trkpt>
      <trkpt lat="47.84921" lon="5.3097">
        <ele>462.527</ele>
        <time>2014-08-04T13:10:58Z</time>
      </trkpt>
      <trkpt lat="47.84916" lon="5.30971">
        <ele>462.0952</ele>
        <time>2014-08-04T13:10:59Z</time>
      </trkpt>
      <trkpt lat="47.84909" lon="5.30972">
        <ele>461.1988</ele>
        <time>2014-08-04T13:11:01Z</time>
      </trkpt>
      <trkpt lat="47.84904" lon="5.30973">
        <ele>461.2706</ele>
        <time>2014-08-04T13:11:02Z</time>
      </trkpt>
      <trkpt lat="47.84897" lon="5.30974">
        <ele>464.8595</ele>
        <time>2014-08-04T13:11:04Z</time>
      </trkpt>
      <trkpt lat="47.8489" lon="5.30976">
        <ele>463.5829</ele>
        <time>2014-08-04T13:11:06Z</time>
      </trkpt>
      <trkpt lat="47.84883" lon="5.30979">
        <ele>461.2471</ele>
        <time>2014-08-04T13:11:08Z</time>
      </trkpt>
      <trkpt lat="47.84876" lon="5.30982">
        <ele>460.6868</ele>
        <time>2014-08-04T13:11:10Z</time>
      </trkpt>
      <trkpt lat="47.84868" lon="5.30985">
        <ele>460.3213</ele>
        <time>2014-08-04T13:11:12Z</time>
      </trkpt>
      <trkpt lat="47.84859" lon="5.30986">
        <ele>459.5419</ele>
        <time>2014-08-04T13:11:14Z</time>
      </trkpt>
      <trkpt lat="47.84851" lon="5.30987">
        <ele>460.0898</ele>
        <time>2014-08-04T13:11:16Z</time>
      </trkpt>
      <trkpt lat="47.84844" lon="5.30986">
        <ele>460.226</ele>
        <time>2014-08-04T13:11:18Z</time>
      </trkpt>
      <trkpt lat="47.84837" lon="5.30986">
        <ele>459.3485</ele>
        <time>2014-08-04T13:11:20Z</time>
      </trkpt>
      <trkpt lat="47.84828" lon="5.30986">
        <ele>458.6301</ele>
        <time>2014-08-04T13:11:22Z</time>
      </trkpt>
      <trkpt lat="47.84823" lon="5.30986">
        <ele>459.8186</ele>
        <time>2014-08-04T13:11:23Z</time>
      </trkpt>
      <trkpt lat="47.84815" lon="5.30988">
        <ele>458.4473</ele>
        <time>2014-08-04T13:11:25Z</time>
      </trkpt>
      <trkpt lat="47.84808" lon="5.3099">
        <ele>459.0208</ele>
        <time>2014-08-04T13:11:27Z</time>
      </trkpt>
      <trkpt lat="47.84801" lon="5.30992">
        <ele>459.2032</ele>
        <time>2014-08-04T13:11:29Z</time>
      </trkpt>
      <trkpt lat="47.84792" lon="5.30992">
        <ele>455.3883</ele>
        <time>2014-08-04T13:11:31Z</time>
      </trkpt>
      <trkpt lat="47.84787" lon="5.30992">
        <ele>453.8645</ele>
        <time>2014-08-04T13:11:32Z</time>
      </trkpt>
      <trkpt lat="47.84782" lon="5.30993">
        <ele>453.2605</ele>
        <time>2014-08-04T13:11:33Z</time>
      </trkpt>
      <trkpt lat="47.84777" lon="5.30993">
        <ele>451.5553</ele>
        <time>2014-08-04T13:11:34Z</time>
      </trkpt>
      <trkpt lat="47.84772" lon="5.30995">
        <ele>450.6218</ele>
        <time>2014-08-04T13:11:35Z</time>
      </trkpt>
      <trkpt lat="47.84766" lon="5.30996">
        <ele>449.2752</ele>
        <time>2014-08-04T13:11:36Z</time>
      </trkpt>
      <trkpt lat="47.8476" lon="5.30998">
        <ele>448.7029</ele>
        <time>2014-08-04T13:11:37Z</time>
      </trkpt>
      <trkpt lat="47.84755" lon="5.30999">
        <ele>448.74</ele>
        <time>2014-08-04T13:11:38Z</time>
      </trkpt>
      <trkpt lat="47.8475" lon="5.31">
        <ele>448.0679</ele>
        <time>2014-08-04T13:11:39Z</time>
      </trkpt>
      <trkpt lat="47.84745" lon="5.31002">
        <ele>448.7317</ele>
        <time>2014-08-04T13:11:40Z</time>
      </trkpt>
      <trkpt lat="47.8474" lon="5.31003">
        <ele>450.2266</ele>
        <time>2014-08-04T13:11:41Z</time>
      </trkpt>
      <trkpt lat="47.84735" lon="5.31005">
        <ele>450.361</ele>
        <time>2014-08-04T13:11:42Z</time>
      </trkpt>
      <trkpt lat="47.8473" lon="5.31007">
        <ele>450.6561</ele>
        <time>2014-08-04T13:11:43Z</time>
      </trkpt>
      <trkpt lat="47.84724" lon="5.31009">
        <ele>450.834</ele>
        <time>2014-08-04T13:11:44Z</time>
      </trkpt>
      <trkpt lat="47.8472" lon="5.3101">
        <ele>450.0525</ele>
        <time>2014-08-04T13:11:45Z</time>
      </trkpt>
      <trkpt lat="47.84714" lon="5.31011">
        <ele>449.8458</ele>
        <time>2014-08-04T13:11:46Z</time>
      </trkpt>
      <trkpt lat="47.84708" lon="5.31011">
        <ele>450.2896</ele>
        <time>2014-08-04T13:11:47Z</time>
      </trkpt>
      <trkpt lat="47.84702" lon="5.31012">
        <ele>450.9843</ele>
        <time>2014-08-04T13:11:48Z</time>
      </trkpt>
      <trkpt lat="47.84696" lon="5.31013">
        <ele>449.8973</ele>
        <time>2014-08-04T13:11:49Z</time>
      </trkpt>
      <trkpt lat="47.8469" lon="5.31013">
        <ele>449.6266</ele>
        <time>2014-08-04T13:11:50Z</time>
      </trkpt>
      <trkpt lat="47.84683" lon="5.31013">
        <ele>449.9498</ele>
        <time>2014-08-04T13:11:51Z</time>
      </trkpt>
      <trkpt lat="47.84675" lon="5.31014">
        <ele>447.9557</ele>
        <time>2014-08-04T13:11:52Z</time>
      </trkpt>
      <trkpt lat="47.84667" lon="5.31015">
        <ele>448.8628</ele>
        <time>2014-08-04T13:11:53Z</time>
      </trkpt>
      <trkpt lat="47.84659" lon="5.31017">
        <ele>447.6812</ele>
        <time>2014-08-04T13:11:54Z</time>
      </trkpt>
      <trkpt lat="47.84651" lon="5.31017">
        <ele>446.8646</ele>
        <time>2014-08-04T13:11:55Z</time>
      </trkpt>
      <trkpt lat="47.84644" lon="5.31018">
        <ele>446.0653</ele>
        <time>2014-08-04T13:11:56Z</time>
      </trkpt>
      <trkpt lat="47.84637" lon="5.31018">
        <ele>447.1232</ele>
        <time>2014-08-04T13:11:57Z</time>
      </trkpt>
      <trkpt lat="47.8463" lon="5.31019">
        <ele>445.899</ele>
        <time>2014-08-04T13:11:58Z</time>
      </trkpt>
      <trkpt lat="47.84623" lon="5.31019">
        <ele>445.2541</ele>
        <time>2014-08-04T13:11:59Z</time>
      </trkpt>
      <trkpt lat="47.84615" lon="5.3102">
        <ele>444.8871</ele>
        <time>2014-08-04T13:12:00Z</time>
      </trkpt>
      <trkpt lat="47.84608" lon="5.31021">
        <ele>443.8743</ele>
        <time>2014-08-04T13:12:01Z</time>
      </trkpt>
      <trkpt lat="47.846" lon="5.31022">
        <ele>442.4004</ele>
        <time>2014-08-04T13:12:02Z</time>
      </trkpt>
      <trkpt lat="47.84593" lon="5.31022">
        <ele>443.2684</ele>
        <time>2014-08-04T13:12:03Z</time>
      </trkpt>
      <trkpt lat="47.84586" lon="5.31023">
        <ele>443.006</ele>
        <time>2014-08-04T13:12:04Z</time>
      </trkpt>
      <trkpt lat="47.84579" lon="5.31024">
        <ele>443.2968</ele>
        <time>2014-08-04T13:12:05Z</time>
      </trkpt>
      <trkpt lat="47.84573" lon="5.31025">
        <ele>443.8463</ele>
        <time>2014-08-04T13:12:06Z</time>
      </trkpt>
      <trkpt lat="47.84566" lon="5.31025">
        <ele>443.1142</ele>
        <time>2014-08-04T13:12:07Z</time>
      </trkpt>
      <trkpt lat="47.8456" lon="5.31026">
        <ele>440.6052</ele>
        <time>2014-08-04T13:12:08Z</time>
      </trkpt>
      <trkpt lat="47.84552" lon="5.31023">
        <ele>440.4176</ele>
        <time>2014-08-04T13:12:09Z</time>
      </trkpt>
      <trkpt lat="47.84547" lon="5.31021">
        <ele>441.8098</ele>
        <time>2014-08-04T13:12:10Z</time>
      </trkpt>
      <trkpt lat="47.8454" lon="5.31017">
        <ele>438.4165</ele>
        <time>2014-08-04T13:12:11Z</time>
      </trkpt>
      <trkpt lat="47.84533" lon="5.31013">
        <ele>438.1936</ele>
        <time>2014-08-04T13:12:12Z</time>
      </trkpt>
      <trkpt lat="47.84525" lon="5.31009">
        <ele>440.9704</ele>
        <time>2014-08-04T13:12:13Z</time>
      </trkpt>
      <trkpt lat="47.84519" lon="5.31005">
        <ele>439.6714</ele>
        <time>2014-08-04T13:12:14Z</time>
      </trkpt>
      <trkpt lat="47.84514" lon="5.31001">
        <ele>438.5807</ele>
        <time>2014-08-04T13:12:15Z</time>
      </trkpt>
      <trkpt lat="47.84508" lon="5.30997">
        <ele>439.1129</ele>
        <time>2014-08-04T13:12:16Z</time>
      </trkpt>
      <trkpt lat="47.84503" lon="5.30994">
        <ele>437.7068</ele>
        <time>2014-08-04T13:12:17Z</time>
      </trkpt>
      <trkpt lat="47.84498" lon="5.30991">
        <ele>439.5868</ele>
        <time>2014-08-04T13:12:18Z</time>
      </trkpt>
      <trkpt lat="47.84491" lon="5.30987">
        <ele>440.461</ele>
        <time>2014-08-04T13:12:19Z</time>
      </trkpt>
      <trkpt lat="47.84485" lon="5.30983">
        <ele>441.1853</ele>
        <time>2014-08-04T13:12:20Z</time>
      </trkpt>
      <trkpt lat="47.84479" lon="5.30979">
        <ele>445.1481</ele>
        <time>2014-08-04T13:12:21Z</time>
      </trkpt>
      <trkpt lat="47.84472" lon="5.30974">
        <ele>445.19</ele>
        <time>2014-08-04T13:12:22Z</time>
      </trkpt>
      <trkpt lat="47.84465" lon="5.30969">
        <ele>443.4225</ele>
        <time>2014-08-04T13:12:23Z</time>
      </trkpt>
      <trkpt lat="47.84459" lon="5.30965">
        <ele>441.6989</ele>
        <time>2014-08-04T13:12:24Z</time>
      </trkpt>
      <trkpt lat="47.84452" lon="5.30961">
        <ele>441.9935</ele>
        <time>2014-08-04T13:12:25Z</time>
      </trkpt>
      <trkpt lat="47.84444" lon="5.30956">
        <ele>443.0035</ele>
        <time>2014-08-04T13:12:26Z</time>
      </trkpt>
      <trkpt lat="47.84437" lon="5.30952">
        <ele>441.1142</ele>
        <time>2014-08-04T13:12:27Z</time>
      </trkpt>
      <trkpt lat="47.84429" lon="5.30949">
        <ele>440.517</ele>
        <time>2014-08-04T13:12:28Z</time>
      </trkpt>
      <trkpt lat="47.84421" lon="5.30946">
        <ele>438.0432</ele>
        <time>2014-08-04T13:12:29Z</time>
      </trkpt>
      <trkpt lat="47.84414" lon="5.30944">
        <ele>437.383</ele>
        <time>2014-08-04T13:12:30Z</time>
      </trkpt>
      <trkpt lat="47.84408" lon="5.30941">
        <ele>436.7639</ele>
        <time>2014-08-04T13:12:31Z</time>
      </trkpt>
      <trkpt lat="47.84403" lon="5.3094">
        <ele>434.9875</ele>
        <time>2014-08-04T13:12:32Z</time>
      </trkpt>
      <trkpt lat="47.84398" lon="5.30939">
        <ele>435.608</ele>
        <time>2014-08-04T13:12:33Z</time>
      </trkpt>
      <trkpt lat="47.84393" lon="5.30938">
        <ele>434.065</ele>
        <time>2014-08-04T13:12:34Z</time>
      </trkpt>
      <trkpt lat="47.84388" lon="5.30937">
        <ele>433.188</ele>
        <time>2014-08-04T13:12:35Z</time>
      </trkpt>
      <trkpt lat="47.84383" lon="5.30936">
        <ele>434.7659</ele>
        <time>2014-08-04T13:12:36Z</time>
      </trkpt>
      <trkpt lat="47.84379" lon="5.30934">
        <ele>437.1942</ele>
        <time>2014-08-04T13:12:37Z</time>
      </trkpt>
      <trkpt lat="47.84372" lon="5.30931">
        <ele>439.8996</ele>
        <time>2014-08-04T13:12:39Z</time>
      </trkpt>
      <trkpt lat="47.84367" lon="5.30928">
        <ele>440.7731</ele>
        <time>2014-08-04T13:12:40Z</time>
      </trkpt>
      <trkpt lat="47.8436" lon="5.30925">
        <ele>441.0883</ele>
        <time>2014-08-04T13:12:42Z</time>
      </trkpt>
      <trkpt lat="47.84353" lon="5.30921">
        <ele>444.5854</ele>
        <time>2014-08-04T13:12:44Z</time>
      </trkpt>
      <trkpt lat="47.84348" lon="5.30917">
        <ele>443.2312</ele>
        <time>2014-08-04T13:12:46Z</time>
      </trkpt>
      <trkpt lat="47.84342" lon="5.30912">
        <ele>441.2611</ele>
        <time>2014-08-04T13:12:48Z</time>
      </trkpt>
      <trkpt lat="47.84337" lon="5.30909">
        <ele>442.7579</ele>
        <time>2014-08-04T13:12:50Z</time>
      </trkpt>
      <trkpt lat="47.84329" lon="5.30905">
        <ele>438.4344</ele>
        <time>2014-08-04T13:12:52Z</time>
      </trkpt>
      <trkpt lat="47.84323" lon="5.30902">
        <ele>441.5745</ele>
        <time>2014-08-04T13:12:54Z</time>
      </trkpt>
      <trkpt lat="47.84316" lon="5.30898">
        <ele>444.7071</ele>
        <time>2014-08-04T13:12:56Z</time>
      </trkpt>
      <trkpt lat="47.84309" lon="5.30895">
        <ele>447.4097</ele>
        <time>2014-08-04T13:12:58Z</time>
      </trkpt>
      <trkpt lat="47.84302" lon="5.30891">
        <ele>441.7003</ele>
        <time>2014-08-04T13:13:00Z</time>
      </trkpt>
      <trkpt lat="47.84296" lon="5.3088">
        <ele>438.5797</ele>
        <time>2014-08-04T13:13:02Z</time>
      </trkpt>
      <trkpt lat="47.84292" lon="5.30869">
        <ele>435.5885</ele>
        <time>2014-08-04T13:13:04Z</time>
      </trkpt>
      <trkpt lat="47.84288" lon="5.30858">
        <ele>434.5857</ele>
        <time>2014-08-04T13:13:06Z</time>
      </trkpt>
      <trkpt lat="47.84287" lon="5.30847">
        <ele>434.6429</ele>
        <time>2014-08-04T13:13:08Z</time>
      </trkpt>
      <trkpt lat="47.84285" lon="5.30838">
        <ele>439.959</ele>
        <time>2014-08-04T13:13:10Z</time>
      </trkpt>
      <trkpt lat="47.84284" lon="5.30828">
        <ele>438.6746</ele>
        <time>2014-08-04T13:13:12Z</time>
      </trkpt>
      <trkpt lat="47.84285" lon="5.30816">
        <ele>439.8789</ele>
        <time>2014-08-04T13:13:14Z</time>
      </trkpt>
      <trkpt lat="47.84285" lon="5.30806">
        <ele>441.3461</ele>
        <time>2014-08-04T13:13:16Z</time>
      </trkpt>
      <trkpt lat="47.84284" lon="5.30796">
        <ele>444.7839</ele>
        <time>2014-08-04T13:13:18Z</time>
      </trkpt>
      <trkpt lat="47.84283" lon="5.30787">
        <ele>447.7363</ele>
        <time>2014-08-04T13:13:20Z</time>
      </trkpt>
      <trkpt lat="47.84282" lon="5.30777">
        <ele>446.4985</ele>
        <time>2014-08-04T13:13:22Z</time>
      </trkpt>
      <trkpt lat="47.8428" lon="5.30765">
        <ele>446.0594</ele>
        <time>2014-08-04T13:13:24Z</time>
      </trkpt>
      <trkpt lat="47.84279" lon="5.30754">
        <ele>445.2507</ele>
        <time>2014-08-04T13:13:26Z</time>
      </trkpt>
      <trkpt lat="47.84278" lon="5.30745">
        <ele>446.545</ele>
        <time>2014-08-04T13:13:28Z</time>
      </trkpt>
      <trkpt lat="47.84277" lon="5.30737">
        <ele>447.0997</ele>
        <time>2014-08-04T13:13:30Z</time>
      </trkpt>
      <trkpt lat="47.84277" lon="5.30727">
        <ele>447.2206</ele>
        <time>2014-08-04T13:13:32Z</time>
      </trkpt>
      <trkpt lat="47.84277" lon="5.30717">
        <ele>448.0859</ele>
        <time>2014-08-04T13:13:34Z</time>
      </trkpt>
      <trkpt lat="47.84276" lon="5.30708">
        <ele>447.649</ele>
        <time>2014-08-04T13:13:36Z</time>
      </trkpt>
      <trkpt lat="47.84275" lon="5.30699">
        <ele>447.7511</ele>
        <time>2014-08-04T13:13:38Z</time>
      </trkpt>
      <trkpt lat="47.84273" lon="5.3069">
        <ele>445.6183</ele>
        <time>2014-08-04T13:13:40Z</time>
      </trkpt>
      <trkpt lat="47.84271" lon="5.30682">
        <ele>446.6989</ele>
        <time>2014-08-04T13:13:42Z</time>
      </trkpt>
      <trkpt lat="47.84268" lon="5.30671">
        <ele>445.3867</ele>
        <time>2014-08-04T13:13:44Z</time>
      </trkpt>
      <trkpt lat="47.84266" lon="5.30661">
        <ele>445.8646</ele>
        <time>2014-08-04T13:13:46Z</time>
      </trkpt>
      <trkpt lat="47.84264" lon="5.3065">
        <ele>446.5493</ele>
        <time>2014-08-04T13:13:48Z</time>
      </trkpt>
      <trkpt lat="47.84262" lon="5.30641">
        <ele>445.8794</ele>
        <time>2014-08-04T13:13:50Z</time>
      </trkpt>
      <trkpt lat="47.84261" lon="5.30632">
        <ele>446.9084</ele>
        <time>2014-08-04T13:13:52Z</time>
      </trkpt>
      <trkpt lat="47.84259" lon="5.30622">
        <ele>448.6198</ele>
        <time>2014-08-04T13:13:54Z</time>
      </trkpt>
      <trkpt lat="47.84258" lon="5.30613">
        <ele>448.5237</ele>
        <time>2014-08-04T13:13:56Z</time>
      </trkpt>
      <trkpt lat="47.84256" lon="5.30603">
        <ele>447.4464</ele>
        <time>2014-08-04T13:13:58Z</time>
      </trkpt>
      <trkpt lat="47.84254" lon="5.30593">
        <ele>446.0218</ele>
        <time>2014-08-04T13:14:00Z</time>
      </trkpt>
      <trkpt lat="47.84251" lon="5.30584">
        <ele>448.2722</ele>
        <time>2014-08-04T13:14:02Z</time>
      </trkpt>
      <trkpt lat="47.84249" lon="5.30573">
        <ele>448.5107</ele>
        <time>2014-08-04T13:14:04Z</time>
      </trkpt>
      <trkpt lat="47.84246" lon="5.30563">
        <ele>450.8856</ele>
        <time>2014-08-04T13:14:06Z</time>
      </trkpt>
      <trkpt lat="47.84243" lon="5.30554">
        <ele>452.916</ele>
        <time>2014-08-04T13:14:08Z</time>
      </trkpt>
      <trkpt lat="47.8424" lon="5.30543">
        <ele>445.9714</ele>
        <time>2014-08-04T13:14:10Z</time>
      </trkpt>
      <trkpt lat="47.84238" lon="5.30535">
        <ele>448.3398</ele>
        <time>2014-08-04T13:14:12Z</time>
      </trkpt>
      <trkpt lat="47.84235" lon="5.30525">
        <ele>450.862</ele>
        <time>2014-08-04T13:14:14Z</time>
      </trkpt>
      <trkpt lat="47.84232" lon="5.30514">
        <ele>445.6335</ele>
        <time>2014-08-04T13:14:16Z</time>
      </trkpt>
      <trkpt lat="47.84231" lon="5.30505">
        <ele>446.1328</ele>
        <time>2014-08-04T13:14:18Z</time>
      </trkpt>
      <trkpt lat="47.84229" lon="5.30495">
        <ele>446.794</ele>
        <time>2014-08-04T13:14:20Z</time>
      </trkpt>
      <trkpt lat="47.84226" lon="5.30485">
        <ele>450.5389</ele>
        <time>2014-08-04T13:14:22Z</time>
      </trkpt>
      <trkpt lat="47.84223" lon="5.30475">
        <ele>449.3813</ele>
        <time>2014-08-04T13:14:24Z</time>
      </trkpt>
      <trkpt lat="47.84221" lon="5.30469">
        <ele>446.8785</ele>
        <time>2014-08-04T13:14:26Z</time>
      </trkpt>
      <trkpt lat="47.84219" lon="5.3046">
        <ele>449.2237</ele>
        <time>2014-08-04T13:14:28Z</time>
      </trkpt>
      <trkpt lat="47.84217" lon="5.30453">
        <ele>448.4596</ele>
        <time>2014-08-04T13:14:29Z</time>
      </trkpt>
      <trkpt lat="47.84216" lon="5.30446">
        <ele>448.4398</ele>
        <time>2014-08-04T13:14:30Z</time>
      </trkpt>
      <trkpt lat="47.84214" lon="5.30436">
        <ele>450.8545</ele>
        <time>2014-08-04T13:14:32Z</time>
      </trkpt>
      <trkpt lat="47.84211" lon="5.30427">
        <ele>450.6509</ele>
        <time>2014-08-04T13:14:34Z</time>
      </trkpt>
      <trkpt lat="47.84209" lon="5.30417">
        <ele>450.4797</ele>
        <time>2014-08-04T13:14:36Z</time>
      </trkpt>
      <trkpt lat="47.84207" lon="5.30407">
        <ele>452.555</ele>
        <time>2014-08-04T13:14:38Z</time>
      </trkpt>
      <trkpt lat="47.84205" lon="5.30397">
        <ele>448.1408</ele>
        <time>2014-08-04T13:14:40Z</time>
      </trkpt>
      <trkpt lat="47.84203" lon="5.30387">
        <ele>448.4313</ele>
        <time>2014-08-04T13:14:42Z</time>
      </trkpt>
      <trkpt lat="47.84201" lon="5.30378">
        <ele>452.8809</ele>
        <time>2014-08-04T13:14:44Z</time>
      </trkpt>
      <trkpt lat="47.84198" lon="5.30366">
        <ele>455.1365</ele>
        <time>2014-08-04T13:14:46Z</time>
      </trkpt>
      <trkpt lat="47.842" lon="5.30359">
        <ele>451.0095</ele>
        <time>2014-08-04T13:14:48Z</time>
      </trkpt>
      <trkpt lat="47.84205" lon="5.30357">
        <ele>452.2408</ele>
        <time>2014-08-04T13:14:50Z</time>
      </trkpt>
      <trkpt lat="47.84211" lon="5.30357">
        <ele>451.6196</ele>
        <time>2014-08-04T13:14:52Z</time>
      </trkpt>
      <trkpt lat="47.84218" lon="5.30355">
        <ele>454.5241</ele>
        <time>2014-08-04T13:14:54Z</time>
      </trkpt>
      <trkpt lat="47.84224" lon="5.30354">
        <ele>456.6735</ele>
        <time>2014-08-04T13:14:56Z</time>
      </trkpt>
      <trkpt lat="47.8423" lon="5.30353">
        <ele>457.062</ele>
        <time>2014-08-04T13:14:58Z</time>
      </trkpt>
      <trkpt lat="47.84236" lon="5.30353">
        <ele>456.7552</ele>
        <time>2014-08-04T13:15:00Z</time>
      </trkpt>
      <trkpt lat="47.84243" lon="5.30352">
        <ele>456.648</ele>
        <time>2014-08-04T13:15:02Z</time>
      </trkpt>
      <trkpt lat="47.8425" lon="5.30352">
        <ele>454.8759</ele>
        <time>2014-08-04T13:15:04Z</time>
      </trkpt>
      <trkpt lat="47.84257" lon="5.3035">
        <ele>456.4135</ele>
        <time>2014-08-04T13:15:06Z</time>
      </trkpt>
      <trkpt lat="47.84264" lon="5.30348">
        <ele>456.1507</ele>
        <time>2014-08-04T13:15:08Z</time>
      </trkpt>
      <trkpt lat="47.8427" lon="5.30347">
        <ele>455.9589</ele>
        <time>2014-08-04T13:15:10Z</time>
      </trkpt>
      <trkpt lat="47.84276" lon="5.30344">
        <ele>458.0689</ele>
        <time>2014-08-04T13:15:12Z</time>
      </trkpt>
      <trkpt lat="47.84282" lon="5.3034">
        <ele>457.2311</ele>
        <time>2014-08-04T13:15:14Z</time>
      </trkpt>
      <trkpt lat="47.84288" lon="5.30334">
        <ele>454.3159</ele>
        <time>2014-08-04T13:15:16Z</time>
      </trkpt>
      <trkpt lat="47.84293" lon="5.3033">
        <ele>455.5759</ele>
        <time>2014-08-04T13:15:18Z</time>
      </trkpt>
      <trkpt lat="47.843" lon="5.30324">
        <ele>458.6411</ele>
        <time>2014-08-04T13:15:20Z</time>
      </trkpt>
      <trkpt lat="47.84306" lon="5.30316">
        <ele>454.8815</ele>
        <time>2014-08-04T13:15:22Z</time>
      </trkpt>
      <trkpt lat="47.84311" lon="5.30308">
        <ele>458.0243</ele>
        <time>2014-08-04T13:15:24Z</time>
      </trkpt>
      <trkpt lat="47.84315" lon="5.30301">
        <ele>458.7695</ele>
        <time>2014-08-04T13:15:26Z</time>
      </trkpt>
      <trkpt lat="47.8432" lon="5.30293">
        <ele>456.9735</ele>
        <time>2014-08-04T13:15:28Z</time>
      </trkpt>
      <trkpt lat="47.84325" lon="5.30286">
        <ele>457.1908</ele>
        <time>2014-08-04T13:15:30Z</time>
      </trkpt>
      <trkpt lat="47.8433" lon="5.30278">
        <ele>459.5894</ele>
        <time>2014-08-04T13:15:32Z</time>
      </trkpt>
      <trkpt lat="47.84336" lon="5.30271">
        <ele>455.7948</ele>
        <time>2014-08-04T13:15:34Z</time>
      </trkpt>
      <trkpt lat="47.84341" lon="5.30264">
        <ele>452.3549</ele>
        <time>2014-08-04T13:15:36Z</time>
      </trkpt>
      <trkpt lat="47.84348" lon="5.30256">
        <ele>452.0233</ele>
        <time>2014-08-04T13:15:38Z</time>
      </trkpt>
      <trkpt lat="47.84353" lon="5.30248">
        <ele>458.416</ele>
        <time>2014-08-04T13:15:40Z</time>
      </trkpt>
      <trkpt lat="47.8436" lon="5.30239">
        <ele>457.8737</ele>
        <time>2014-08-04T13:15:42Z</time>
      </trkpt>
      <trkpt lat="47.84365" lon="5.30232">
        <ele>457.9298</ele>
        <time>2014-08-04T13:15:44Z</time>
      </trkpt>
      <trkpt lat="47.84371" lon="5.30224">
        <ele>458.8463</ele>
        <time>2014-08-04T13:15:46Z</time>
      </trkpt>
      <trkpt lat="47.84377" lon="5.30216">
        <ele>457.5813</ele>
        <time>2014-08-04T13:15:48Z</time>
      </trkpt>
      <trkpt lat="47.84381" lon="5.30211">
        <ele>456.4508</ele>
        <time>2014-08-04T13:15:49Z</time>
      </trkpt>
      <trkpt lat="47.84384" lon="5.30206">
        <ele>458.5499</ele>
        <time>2014-08-04T13:15:50Z</time>
      </trkpt>
      <trkpt lat="47.84387" lon="5.30201">
        <ele>458.2341</ele>
        <time>2014-08-04T13:15:51Z</time>
      </trkpt>
      <trkpt lat="47.84391" lon="5.30196">
        <ele>457.0867</ele>
        <time>2014-08-04T13:15:52Z</time>
      </trkpt>
      <trkpt lat="47.84395" lon="5.30191">
        <ele>456.6572</ele>
        <time>2014-08-04T13:15:53Z</time>
      </trkpt>
      <trkpt lat="47.84398" lon="5.30186">
        <ele>454.5158</ele>
        <time>2014-08-04T13:15:54Z</time>
      </trkpt>
      <trkpt lat="47.844" lon="5.3018">
        <ele>455.3401</ele>
        <time>2014-08-04T13:15:55Z</time>
      </trkpt>
      <trkpt lat="47.84403" lon="5.30174">
        <ele>457.3803</ele>
        <time>2014-08-04T13:15:56Z</time>
      </trkpt>
      <trkpt lat="47.84406" lon="5.30168">
        <ele>456.236</ele>
        <time>2014-08-04T13:15:57Z</time>
      </trkpt>
      <trkpt lat="47.84408" lon="5.30161">
        <ele>454.3167</ele>
        <time>2014-08-04T13:15:58Z</time>
      </trkpt>
      <trkpt lat="47.84409" lon="5.30153">
        <ele>451.5111</ele>
        <time>2014-08-04T13:15:59Z</time>
      </trkpt>
      <trkpt lat="47.8441" lon="5.30145">
        <ele>453.1739</ele>
        <time>2014-08-04T13:16:00Z</time>
      </trkpt>
      <trkpt lat="47.8441" lon="5.30137">
        <ele>454.9252</ele>
        <time>2014-08-04T13:16:01Z</time>
      </trkpt>
      <trkpt lat="47.8441" lon="5.30128">
        <ele>454.4278</ele>
        <time>2014-08-04T13:16:02Z</time>
      </trkpt>
      <trkpt lat="47.84409" lon="5.30119">
        <ele>455.1501</ele>
        <time>2014-08-04T13:16:03Z</time>
      </trkpt>
      <trkpt lat="47.84408" lon="5.30111">
        <ele>454.9654</ele>
        <time>2014-08-04T13:16:04Z</time>
      </trkpt>
      <trkpt lat="47.84407" lon="5.30103">
        <ele>457.2184</ele>
        <time>2014-08-04T13:16:05Z</time>
      </trkpt>
      <trkpt lat="47.84406" lon="5.30096">
        <ele>456.1243</ele>
        <time>2014-08-04T13:16:06Z</time>
      </trkpt>
      <trkpt lat="47.84405" lon="5.30089">
        <ele>456.2346</ele>
        <time>2014-08-04T13:16:07Z</time>
      </trkpt>
      <trkpt lat="47.84404" lon="5.3008">
        <ele>452.4071</ele>
        <time>2014-08-04T13:16:08Z</time>
      </trkpt>
      <trkpt lat="47.84403" lon="5.30073">
        <ele>450.8925</ele>
        <time>2014-08-04T13:16:09Z</time>
      </trkpt>
      <trkpt lat="47.844" lon="5.3006">
        <ele>452.3853</ele>
        <time>2014-08-04T13:16:11Z</time>
      </trkpt>
      <trkpt lat="47.84399" lon="5.30051">
        <ele>454.6281</ele>
        <time>2014-08-04T13:16:12Z</time>
      </trkpt>
      <trkpt lat="47.84398" lon="5.30044">
        <ele>454.9153</ele>
        <time>2014-08-04T13:16:13Z</time>
      </trkpt>
      <trkpt lat="47.84396" lon="5.3003">
        <ele>448.5724</ele>
        <time>2014-08-04T13:16:15Z</time>
      </trkpt>
      <trkpt lat="47.84394" lon="5.30021">
        <ele>446.8158</ele>
        <time>2014-08-04T13:16:16Z</time>
      </trkpt>
      <trkpt lat="47.84393" lon="5.3001">
        <ele>446.7528</ele>
        <time>2014-08-04T13:16:17Z</time>
      </trkpt>
      <trkpt lat="47.84393" lon="5.30003">
        <ele>449.3559</ele>
        <time>2014-08-04T13:16:18Z</time>
      </trkpt>
      <trkpt lat="47.84392" lon="5.29995">
        <ele>447.3699</ele>
        <time>2014-08-04T13:16:19Z</time>
      </trkpt>
      <trkpt lat="47.84393" lon="5.29985">
        <ele>446.9616</ele>
        <time>2014-08-04T13:16:20Z</time>
      </trkpt>
      <trkpt lat="47.84393" lon="5.29977">
        <ele>445.7404</ele>
        <time>2014-08-04T13:16:21Z</time>
      </trkpt>
      <trkpt lat="47.84394" lon="5.29967">
        <ele>448.736</ele>
        <time>2014-08-04T13:16:22Z</time>
      </trkpt>
      <trkpt lat="47.84395" lon="5.29959">
        <ele>451.3668</ele>
        <time>2014-08-04T13:16:23Z</time>
      </trkpt>
      <trkpt lat="47.84396" lon="5.2995">
        <ele>449.0889</ele>
        <time>2014-08-04T13:16:24Z</time>
      </trkpt>
      <trkpt lat="47.84397" lon="5.29942">
        <ele>445.7044</ele>
        <time>2014-08-04T13:16:25Z</time>
      </trkpt>
      <trkpt lat="47.84398" lon="5.29934">
        <ele>446.7764</ele>
        <time>2014-08-04T13:16:26Z</time>
      </trkpt>
      <trkpt lat="47.844" lon="5.29925">
        <ele>451.1417</ele>
        <time>2014-08-04T13:16:27Z</time>
      </trkpt>
      <trkpt lat="47.84401" lon="5.29918">
        <ele>451.1898</ele>
        <time>2014-08-04T13:16:28Z</time>
      </trkpt>
      <trkpt lat="47.84403" lon="5.2991">
        <ele>450.3928</ele>
        <time>2014-08-04T13:16:29Z</time>
      </trkpt>
      <trkpt lat="47.84405" lon="5.299">
        <ele>453.271</ele>
        <time>2014-08-04T13:16:30Z</time>
      </trkpt>
      <trkpt lat="47.84407" lon="5.29892">
        <ele>450.8903</ele>
        <time>2014-08-04T13:16:31Z</time>
      </trkpt>
      <trkpt lat="47.84409" lon="5.29884">
        <ele>451.0007</ele>
        <time>2014-08-04T13:16:32Z</time>
      </trkpt>
      <trkpt lat="47.84411" lon="5.29877">
        <ele>450.9315</ele>
        <time>2014-08-04T13:16:33Z</time>
      </trkpt>
      <trkpt lat="47.84413" lon="5.29869">
        <ele>452.5749</ele>
        <time>2014-08-04T13:16:34Z</time>
      </trkpt>
      <trkpt lat="47.84415" lon="5.29861">
        <ele>453.6226</ele>
        <time>2014-08-04T13:16:35Z</time>
      </trkpt>
      <trkpt lat="47.84418" lon="5.29853">
        <ele>450.2819</ele>
        <time>2014-08-04T13:16:36Z</time>
      </trkpt>
      <trkpt lat="47.8442" lon="5.29845">
        <ele>450.9807</ele>
        <time>2014-08-04T13:16:37Z</time>
      </trkpt>
      <trkpt lat="47.84423" lon="5.29838">
        <ele>450.1986</ele>
        <time>2014-08-04T13:16:38Z</time>
      </trkpt>
      <trkpt lat="47.84426" lon="5.2983">
        <ele>450.8021</ele>
        <time>2014-08-04T13:16:39Z</time>
      </trkpt>
      <trkpt lat="47.84429" lon="5.29822">
        <ele>448.1241</ele>
        <time>2014-08-04T13:16:40Z</time>
      </trkpt>
      <trkpt lat="47.84432" lon="5.29813">
        <ele>446.8485</ele>
        <time>2014-08-04T13:16:41Z</time>
      </trkpt>
      <trkpt lat="47.84435" lon="5.29805">
        <ele>447.6792</ele>
        <time>2014-08-04T13:16:42Z</time>
      </trkpt>
      <trkpt lat="47.84438" lon="5.29798">
        <ele>447.4785</ele>
        <time>2014-08-04T13:16:43Z</time>
      </trkpt>
      <trkpt lat="47.8444" lon="5.2979">
        <ele>450.9595</ele>
        <time>2014-08-04T13:16:44Z</time>
      </trkpt>
      <trkpt lat="47.84443" lon="5.29783">
        <ele>451.462</ele>
        <time>2014-08-04T13:16:45Z</time>
      </trkpt>
      <trkpt lat="47.84445" lon="5.29775">
        <ele>452.3774</ele>
        <time>2014-08-04T13:16:46Z</time>
      </trkpt>
      <trkpt lat="47.84448" lon="5.29768">
        <ele>450.4027</ele>
        <time>2014-08-04T13:16:47Z</time>
      </trkpt>
      <trkpt lat="47.8445" lon="5.29761">
        <ele>449.9896</ele>
        <time>2014-08-04T13:16:48Z</time>
      </trkpt>
      <trkpt lat="47.84452" lon="5.29754">
        <ele>448.4492</ele>
        <time>2014-08-04T13:16:49Z</time>
      </trkpt>
      <trkpt lat="47.84454" lon="5.29746">
        <ele>448.9956</ele>
        <time>2014-08-04T13:16:50Z</time>
      </trkpt>
      <trkpt lat="47.84457" lon="5.29738">
        <ele>450.0195</ele>
        <time>2014-08-04T13:16:51Z</time>
      </trkpt>
      <trkpt lat="47.8446" lon="5.29729">
        <ele>447.8504</ele>
        <time>2014-08-04T13:16:52Z</time>
      </trkpt>
      <trkpt lat="47.84462" lon="5.2972">
        <ele>446.3347</ele>
        <time>2014-08-04T13:16:53Z</time>
      </trkpt>
      <trkpt lat="47.84464" lon="5.29713">
        <ele>445.6919</ele>
        <time>2014-08-04T13:16:54Z</time>
      </trkpt>
      <trkpt lat="47.84466" lon="5.29704">
        <ele>444.3914</ele>
        <time>2014-08-04T13:16:55Z</time>
      </trkpt>
      <trkpt lat="47.84469" lon="5.29692">
        <ele>446.1263</ele>
        <time>2014-08-04T13:16:57Z</time>
      </trkpt>
      <trkpt lat="47.84472" lon="5.29679">
        <ele>449.4113</ele>
        <time>2014-08-04T13:16:59Z</time>
      </trkpt>
      <trkpt lat="47.84474" lon="5.29673">
        <ele>448.1791</ele>
        <time>2014-08-04T13:17:00Z</time>
      </trkpt>
      <trkpt lat="47.84476" lon="5.29666">
        <ele>446.5263</ele>
        <time>2014-08-04T13:17:01Z</time>
      </trkpt>
      <trkpt lat="47.84478" lon="5.2966">
        <ele>445.2937</ele>
        <time>2014-08-04T13:17:02Z</time>
      </trkpt>
      <trkpt lat="47.8448" lon="5.29653">
        <ele>446.409</ele>
        <time>2014-08-04T13:17:03Z</time>
      </trkpt>
      <trkpt lat="47.84483" lon="5.29645">
        <ele>445.9624</ele>
        <time>2014-08-04T13:17:04Z</time>
      </trkpt>
      <trkpt lat="47.84485" lon="5.29639">
        <ele>446.0672</ele>
        <time>2014-08-04T13:17:05Z</time>
      </trkpt>
      <trkpt lat="47.84487" lon="5.29632">
        <ele>444.382</ele>
        <time>2014-08-04T13:17:06Z</time>
      </trkpt>
      <trkpt lat="47.8449" lon="5.29624">
        <ele>448.2846</ele>
        <time>2014-08-04T13:17:07Z</time>
      </trkpt>
      <trkpt lat="47.84493" lon="5.29617">
        <ele>445.812</ele>
        <time>2014-08-04T13:17:08Z</time>
      </trkpt>
      <trkpt lat="47.84496" lon="5.2961">
        <ele>444.5704</ele>
        <time>2014-08-04T13:17:09Z</time>
      </trkpt>
      <trkpt lat="47.84498" lon="5.29604">
        <ele>446.8438</ele>
        <time>2014-08-04T13:17:10Z</time>
      </trkpt>
      <trkpt lat="47.84501" lon="5.29596">
        <ele>447.6161</ele>
        <time>2014-08-04T13:17:11Z</time>
      </trkpt>
      <trkpt lat="47.84502" lon="5.29589">
        <ele>448.6838</ele>
        <time>2014-08-04T13:17:12Z</time>
      </trkpt>
      <trkpt lat="47.84506" lon="5.29576">
        <ele>448.0215</ele>
        <time>2014-08-04T13:17:14Z</time>
      </trkpt>
      <trkpt lat="47.84508" lon="5.29569">
        <ele>450.2743</ele>
        <time>2014-08-04T13:17:15Z</time>
      </trkpt>
      <trkpt lat="47.8451" lon="5.29562">
        <ele>447.9279</ele>
        <time>2014-08-04T13:17:16Z</time>
      </trkpt>
      <trkpt lat="47.84513" lon="5.29553">
        <ele>447.3607</ele>
        <time>2014-08-04T13:17:17Z</time>
      </trkpt>
      <trkpt lat="47.84516" lon="5.29544">
        <ele>445.8667</ele>
        <time>2014-08-04T13:17:18Z</time>
      </trkpt>
      <trkpt lat="47.84518" lon="5.29534">
        <ele>448.8403</ele>
        <time>2014-08-04T13:17:19Z</time>
      </trkpt>
      <trkpt lat="47.84521" lon="5.29525">
        <ele>450.5662</ele>
        <time>2014-08-04T13:17:20Z</time>
      </trkpt>
      <trkpt lat="47.84523" lon="5.29516">
        <ele>450.3564</ele>
        <time>2014-08-04T13:17:21Z</time>
      </trkpt>
      <trkpt lat="47.84525" lon="5.29509">
        <ele>448.8095</ele>
        <time>2014-08-04T13:17:22Z</time>
      </trkpt>
      <trkpt lat="47.84529" lon="5.29495">
        <ele>446.7834</ele>
        <time>2014-08-04T13:17:24Z</time>
      </trkpt>
      <trkpt lat="47.84531" lon="5.29486">
        <ele>448.942</ele>
        <time>2014-08-04T13:17:25Z</time>
      </trkpt>
      <trkpt lat="47.84532" lon="5.2948">
        <ele>448.594</ele>
        <time>2014-08-04T13:17:26Z</time>
      </trkpt>
      <trkpt lat="47.84535" lon="5.29468">
        <ele>445.5755</ele>
        <time>2014-08-04T13:17:28Z</time>
      </trkpt>
      <trkpt lat="47.84536" lon="5.29461">
        <ele>445.0663</ele>
        <time>2014-08-04T13:17:29Z</time>
      </trkpt>
      <trkpt lat="47.84538" lon="5.29454">
        <ele>447.582</ele>
        <time>2014-08-04T13:17:30Z</time>
      </trkpt>
      <trkpt lat="47.84539" lon="5.29447">
        <ele>447.4784</ele>
        <time>2014-08-04T13:17:31Z</time>
      </trkpt>
      <trkpt lat="47.84541" lon="5.29439">
        <ele>448.0398</ele>
        <time>2014-08-04T13:17:32Z</time>
      </trkpt>
      <trkpt lat="47.84543" lon="5.2943">
        <ele>446.7204</ele>
        <time>2014-08-04T13:17:33Z</time>
      </trkpt>
      <trkpt lat="47.84544" lon="5.29423">
        <ele>444.7225</ele>
        <time>2014-08-04T13:17:34Z</time>
      </trkpt>
      <trkpt lat="47.84545" lon="5.29414">
        <ele>444.4146</ele>
        <time>2014-08-04T13:17:35Z</time>
      </trkpt>
      <trkpt lat="47.84545" lon="5.29406">
        <ele>443.8977</ele>
        <time>2014-08-04T13:17:36Z</time>
      </trkpt>
      <trkpt lat="47.84547" lon="5.29398">
        <ele>444.6911</ele>
        <time>2014-08-04T13:17:37Z</time>
      </trkpt>
      <trkpt lat="47.84548" lon="5.29391">
        <ele>444.7604</ele>
        <time>2014-08-04T13:17:38Z</time>
      </trkpt>
      <trkpt lat="47.84549" lon="5.29383">
        <ele>442.6588</ele>
        <time>2014-08-04T13:17:39Z</time>
      </trkpt>
      <trkpt lat="47.8455" lon="5.29375">
        <ele>443.5336</ele>
        <time>2014-08-04T13:17:40Z</time>
      </trkpt>
      <trkpt lat="47.84551" lon="5.29366">
        <ele>444.4886</ele>
        <time>2014-08-04T13:17:41Z</time>
      </trkpt>
      <trkpt lat="47.84552" lon="5.29358">
        <ele>444.3306</ele>
        <time>2014-08-04T13:17:42Z</time>
      </trkpt>
      <trkpt lat="47.84554" lon="5.29348">
        <ele>444.474</ele>
        <time>2014-08-04T13:17:43Z</time>
      </trkpt>
      <trkpt lat="47.84555" lon="5.29337">
        <ele>446.0023</ele>
        <time>2014-08-04T13:17:44Z</time>
      </trkpt>
      <trkpt lat="47.84557" lon="5.29326">
        <ele>446.9326</ele>
        <time>2014-08-04T13:17:45Z</time>
      </trkpt>
      <trkpt lat="47.84558" lon="5.29317">
        <ele>446.4363</ele>
        <time>2014-08-04T13:17:46Z</time>
      </trkpt>
      <trkpt lat="47.84559" lon="5.29308">
        <ele>447.8051</ele>
        <time>2014-08-04T13:17:47Z</time>
      </trkpt>
      <trkpt lat="47.84559" lon="5.29299">
        <ele>449.802</ele>
        <time>2014-08-04T13:17:48Z</time>
      </trkpt>
      <trkpt lat="47.84559" lon="5.2929">
        <ele>450.645</ele>
        <time>2014-08-04T13:17:49Z</time>
      </trkpt>
      <trkpt lat="47.8456" lon="5.29281">
        <ele>451.3616</ele>
        <time>2014-08-04T13:17:50Z</time>
      </trkpt>
      <trkpt lat="47.8456" lon="5.29273">
        <ele>449.9986</ele>
        <time>2014-08-04T13:17:51Z</time>
      </trkpt>
      <trkpt lat="47.84561" lon="5.29265">
        <ele>449.9144</ele>
        <time>2014-08-04T13:17:52Z</time>
      </trkpt>
      <trkpt lat="47.84561" lon="5.29256">
        <ele>448.8421</ele>
        <time>2014-08-04T13:17:53Z</time>
      </trkpt>
      <trkpt lat="47.84561" lon="5.29248">
        <ele>449.9188</ele>
        <time>2014-08-04T13:17:54Z</time>
      </trkpt>
      <trkpt lat="47.84561" lon="5.2924">
        <ele>449.6452</ele>
        <time>2014-08-04T13:17:55Z</time>
      </trkpt>
      <trkpt lat="47.84562" lon="5.29232">
        <ele>449.3537</ele>
        <time>2014-08-04T13:17:56Z</time>
      </trkpt>
      <trkpt lat="47.84562" lon="5.29224">
        <ele>448.6876</ele>
        <time>2014-08-04T13:17:57Z</time>
      </trkpt>
      <trkpt lat="47.84562" lon="5.29216">
        <ele>448.4732</ele>
        <time>2014-08-04T13:17:58Z</time>
      </trkpt>
      <trkpt lat="47.84562" lon="5.29208">
        <ele>448.3048</ele>
        <time>2014-08-04T13:17:59Z</time>
      </trkpt>
      <trkpt lat="47.84562" lon="5.292">
        <ele>448.7234</ele>
        <time>2014-08-04T13:18:00Z</time>
      </trkpt>
      <trkpt lat="47.84563" lon="5.29192">
        <ele>448.0616</ele>
        <time>2014-08-04T13:18:01Z</time>
      </trkpt>
      <trkpt lat="47.84564" lon="5.29184">
        <ele>447.4642</ele>
        <time>2014-08-04T13:18:02Z</time>
      </trkpt>
      <trkpt lat="47.84564" lon="5.29176">
        <ele>447.3887</ele>
        <time>2014-08-04T13:18:03Z</time>
      </trkpt>
      <trkpt lat="47.84565" lon="5.29168">
        <ele>447.8707</ele>
        <time>2014-08-04T13:18:04Z</time>
      </trkpt>
      <trkpt lat="47.84567" lon="5.29161">
        <ele>448.3779</ele>
        <time>2014-08-04T13:18:05Z</time>
      </trkpt>
      <trkpt lat="47.84567" lon="5.29153">
        <ele>448.687</ele>
        <time>2014-08-04T13:18:06Z</time>
      </trkpt>
      <trkpt lat="47.84568" lon="5.29145">
        <ele>448.1758</ele>
        <time>2014-08-04T13:18:07Z</time>
      </trkpt>
      <trkpt lat="47.8457" lon="5.29137">
        <ele>447.4192</ele>
        <time>2014-08-04T13:18:08Z</time>
      </trkpt>
      <trkpt lat="47.84571" lon="5.2913">
        <ele>446.3036</ele>
        <time>2014-08-04T13:18:09Z</time>
      </trkpt>
      <trkpt lat="47.84573" lon="5.29122">
        <ele>446.0452</ele>
        <time>2014-08-04T13:18:10Z</time>
      </trkpt>
      <trkpt lat="47.84575" lon="5.29115">
        <ele>446.3094</ele>
        <time>2014-08-04T13:18:11Z</time>
      </trkpt>
      <trkpt lat="47.84577" lon="5.29107">
        <ele>447.9341</ele>
        <time>2014-08-04T13:18:12Z</time>
      </trkpt>
      <trkpt lat="47.84579" lon="5.291">
        <ele>447.6231</ele>
        <time>2014-08-04T13:18:13Z</time>
      </trkpt>
      <trkpt lat="47.8458" lon="5.29092">
        <ele>448.1398</ele>
        <time>2014-08-04T13:18:14Z</time>
      </trkpt>
      <trkpt lat="47.84582" lon="5.29085">
        <ele>448.826</ele>
        <time>2014-08-04T13:18:15Z</time>
      </trkpt>
      <trkpt lat="47.84584" lon="5.29078">
        <ele>448.7739</ele>
        <time>2014-08-04T13:18:16Z</time>
      </trkpt>
      <trkpt lat="47.84586" lon="5.29071">
        <ele>448.5877</ele>
        <time>2014-08-04T13:18:17Z</time>
      </trkpt>
      <trkpt lat="47.84588" lon="5.29064">
        <ele>447.3573</ele>
        <time>2014-08-04T13:18:18Z</time>
      </trkpt>
      <trkpt lat="47.84591" lon="5.29056">
        <ele>445.3194</ele>
        <time>2014-08-04T13:18:19Z</time>
      </trkpt>
      <trkpt lat="47.84592" lon="5.29049">
        <ele>446.0923</ele>
        <time>2014-08-04T13:18:20Z</time>
      </trkpt>
      <trkpt lat="47.84595" lon="5.29043">
        <ele>444.7459</ele>
        <time>2014-08-04T13:18:21Z</time>
      </trkpt>
      <trkpt lat="47.84597" lon="5.29036">
        <ele>444.0442</ele>
        <time>2014-08-04T13:18:22Z</time>
      </trkpt>
      <trkpt lat="47.84599" lon="5.29029">
        <ele>445.1648</ele>
        <time>2014-08-04T13:18:23Z</time>
      </trkpt>
      <trkpt lat="47.84602" lon="5.29023">
        <ele>447.1567</ele>
        <time>2014-08-04T13:18:24Z</time>
      </trkpt>
      <trkpt lat="47.84604" lon="5.29016">
        <ele>446.6104</ele>
        <time>2014-08-04T13:18:25Z</time>
      </trkpt>
      <trkpt lat="47.84607" lon="5.2901">
        <ele>444.3172</ele>
        <time>2014-08-04T13:18:26Z</time>
      </trkpt>
      <trkpt lat="47.8461" lon="5.29003">
        <ele>445.2455</ele>
        <time>2014-08-04T13:18:27Z</time>
      </trkpt>
      <trkpt lat="47.84613" lon="5.28996">
        <ele>445.1104</ele>
        <time>2014-08-04T13:18:28Z</time>
      </trkpt>
      <trkpt lat="47.84617" lon="5.2899">
        <ele>445.5685</ele>
        <time>2014-08-04T13:18:29Z</time>
      </trkpt>
      <trkpt lat="47.8462" lon="5.28984">
        <ele>445.0895</ele>
        <time>2014-08-04T13:18:30Z</time>
      </trkpt>
      <trkpt lat="47.84623" lon="5.28977">
        <ele>445.3078</ele>
        <time>2014-08-04T13:18:31Z</time>
      </trkpt>
      <trkpt lat="47.84627" lon="5.28971">
        <ele>445.4331</ele>
        <time>2014-08-04T13:18:32Z</time>
      </trkpt>
      <trkpt lat="47.84631" lon="5.28965">
        <ele>444.4999</ele>
        <time>2014-08-04T13:18:33Z</time>
      </trkpt>
      <trkpt lat="47.84634" lon="5.28959">
        <ele>444.8979</ele>
        <time>2014-08-04T13:18:34Z</time>
      </trkpt>
      <trkpt lat="47.84639" lon="5.28953">
        <ele>444.3707</ele>
        <time>2014-08-04T13:18:35Z</time>
      </trkpt>
      <trkpt lat="47.84642" lon="5.28948">
        <ele>444.5956</ele>
        <time>2014-08-04T13:18:36Z</time>
      </trkpt>
      <trkpt lat="47.84646" lon="5.28942">
        <ele>443.238</ele>
        <time>2014-08-04T13:18:37Z</time>
      </trkpt>
      <trkpt lat="47.8465" lon="5.28936">
        <ele>442.9015</ele>
        <time>2014-08-04T13:18:38Z</time>
      </trkpt>
      <trkpt lat="47.84654" lon="5.2893">
        <ele>445.1455</ele>
        <time>2014-08-04T13:18:39Z</time>
      </trkpt>
      <trkpt lat="47.84658" lon="5.28925">
        <ele>444.1007</ele>
        <time>2014-08-04T13:18:40Z</time>
      </trkpt>
      <trkpt lat="47.84662" lon="5.2892">
        <ele>443.351</ele>
        <time>2014-08-04T13:18:41Z</time>
      </trkpt>
      <trkpt lat="47.84666" lon="5.28916">
        <ele>443.838</ele>
        <time>2014-08-04T13:18:42Z</time>
      </trkpt>
      <trkpt lat="47.8467" lon="5.2891">
        <ele>444.9861</ele>
        <time>2014-08-04T13:18:43Z</time>
      </trkpt>
      <trkpt lat="47.84675" lon="5.28905">
        <ele>443.8835</ele>
        <time>2014-08-04T13:18:44Z</time>
      </trkpt>
      <trkpt lat="47.84679" lon="5.289">
        <ele>446.4329</ele>
        <time>2014-08-04T13:18:45Z</time>
      </trkpt>
      <trkpt lat="47.84684" lon="5.28894">
        <ele>447.3013</ele>
        <time>2014-08-04T13:18:46Z</time>
      </trkpt>
      <trkpt lat="47.84689" lon="5.2889">
        <ele>447.4445</ele>
        <time>2014-08-04T13:18:47Z</time>
      </trkpt>
      <trkpt lat="47.84693" lon="5.28887">
        <ele>444.943</ele>
        <time>2014-08-04T13:18:48Z</time>
      </trkpt>
      <trkpt lat="47.84699" lon="5.28883">
        <ele>446.5363</ele>
        <time>2014-08-04T13:18:49Z</time>
      </trkpt>
      <trkpt lat="47.84704" lon="5.28879">
        <ele>444.1189</ele>
        <time>2014-08-04T13:18:50Z</time>
      </trkpt>
      <trkpt lat="47.84709" lon="5.28875">
        <ele>442.6975</ele>
        <time>2014-08-04T13:18:51Z</time>
      </trkpt>
      <trkpt lat="47.84713" lon="5.28872">
        <ele>443.18</ele>
        <time>2014-08-04T13:18:52Z</time>
      </trkpt>
      <trkpt lat="47.84718" lon="5.28868">
        <ele>442.6828</ele>
        <time>2014-08-04T13:18:53Z</time>
      </trkpt>
      <trkpt lat="47.84723" lon="5.28865">
        <ele>442.8836</ele>
        <time>2014-08-04T13:18:54Z</time>
      </trkpt>
      <trkpt lat="47.84728" lon="5.28863">
        <ele>442.3708</ele>
        <time>2014-08-04T13:18:55Z</time>
      </trkpt>
      <trkpt lat="47.84733" lon="5.28861">
        <ele>443.5736</ele>
        <time>2014-08-04T13:18:56Z</time>
      </trkpt>
      <trkpt lat="47.84738" lon="5.28859">
        <ele>443.7389</ele>
        <time>2014-08-04T13:18:57Z</time>
      </trkpt>
      <trkpt lat="47.84743" lon="5.28856">
        <ele>444.4046</ele>
        <time>2014-08-04T13:18:58Z</time>
      </trkpt>
      <trkpt lat="47.84747" lon="5.28854">
        <ele>444.8501</ele>
        <time>2014-08-04T13:18:59Z</time>
      </trkpt>
      <trkpt lat="47.84752" lon="5.28853">
        <ele>446.5932</ele>
        <time>2014-08-04T13:19:00Z</time>
      </trkpt>
      <trkpt lat="47.84758" lon="5.2885">
        <ele>445.4576</ele>
        <time>2014-08-04T13:19:01Z</time>
      </trkpt>
      <trkpt lat="47.84764" lon="5.28849">
        <ele>445.4123</ele>
        <time>2014-08-04T13:19:02Z</time>
      </trkpt>
      <trkpt lat="47.84769" lon="5.28847">
        <ele>445.9041</ele>
        <time>2014-08-04T13:19:03Z</time>
      </trkpt>
      <trkpt lat="47.84778" lon="5.28845">
        <ele>448.2684</ele>
        <time>2014-08-04T13:19:05Z</time>
      </trkpt>
      <trkpt lat="47.84782" lon="5.28843">
        <ele>446.2885</ele>
        <time>2014-08-04T13:19:06Z</time>
      </trkpt>
      <trkpt lat="47.84787" lon="5.28842">
        <ele>446.2865</ele>
        <time>2014-08-04T13:19:07Z</time>
      </trkpt>
      <trkpt lat="47.84795" lon="5.2884">
        <ele>447.9122</ele>
        <time>2014-08-04T13:19:09Z</time>
      </trkpt>
      <trkpt lat="47.84804" lon="5.28839">
        <ele>446.1599</ele>
        <time>2014-08-04T13:19:11Z</time>
      </trkpt>
      <trkpt lat="47.8481" lon="5.28839">
        <ele>446.7136</ele>
        <time>2014-08-04T13:19:12Z</time>
      </trkpt>
      <trkpt lat="47.84814" lon="5.28838">
        <ele>446.9554</ele>
        <time>2014-08-04T13:19:13Z</time>
      </trkpt>
      <trkpt lat="47.84819" lon="5.28837">
        <ele>446.4184</ele>
        <time>2014-08-04T13:19:14Z</time>
      </trkpt>
      <trkpt lat="47.84826" lon="5.28835">
        <ele>447.917</ele>
        <time>2014-08-04T13:19:16Z</time>
      </trkpt>
      <trkpt lat="47.84835" lon="5.28834">
        <ele>447.6742</ele>
        <time>2014-08-04T13:19:18Z</time>
      </trkpt>
      <trkpt lat="47.84844" lon="5.28833">
        <ele>446.1815</ele>
        <time>2014-08-04T13:19:20Z</time>
      </trkpt>
      <trkpt lat="47.84849" lon="5.28833">
        <ele>444.832</ele>
        <time>2014-08-04T13:19:21Z</time>
      </trkpt>
      <trkpt lat="47.84854" lon="5.28832">
        <ele>445.0864</ele>
        <time>2014-08-04T13:19:22Z</time>
      </trkpt>
      <trkpt lat="47.84859" lon="5.28832">
        <ele>445.7547</ele>
        <time>2014-08-04T13:19:23Z</time>
      </trkpt>
      <trkpt lat="47.84863" lon="5.2883">
        <ele>447.3871</ele>
        <time>2014-08-04T13:19:24Z</time>
      </trkpt>
      <trkpt lat="47.84869" lon="5.28828">
        <ele>448.4464</ele>
        <time>2014-08-04T13:19:25Z</time>
      </trkpt>
      <trkpt lat="47.84873" lon="5.28826">
        <ele>448.5965</ele>
        <time>2014-08-04T13:19:26Z</time>
      </trkpt>
      <trkpt lat="47.84878" lon="5.28824">
        <ele>448.7263</ele>
        <time>2014-08-04T13:19:27Z</time>
      </trkpt>
      <trkpt lat="47.84883" lon="5.28822">
        <ele>448.0536</ele>
        <time>2014-08-04T13:19:28Z</time>
      </trkpt>
      <trkpt lat="47.84888" lon="5.28819">
        <ele>449.1319</ele>
        <time>2014-08-04T13:19:29Z</time>
      </trkpt>
      <trkpt lat="47.84893" lon="5.28816">
        <ele>449.5977</ele>
        <time>2014-08-04T13:19:30Z</time>
      </trkpt>
      <trkpt lat="47.84898" lon="5.28813">
        <ele>449.5945</ele>
        <time>2014-08-04T13:19:31Z</time>
      </trkpt>
      <trkpt lat="47.84904" lon="5.28811">
        <ele>448.1149</ele>
        <time>2014-08-04T13:19:32Z</time>
      </trkpt>
      <trkpt lat="47.84909" lon="5.28808">
        <ele>447.8578</ele>
        <time>2014-08-04T13:19:33Z</time>
      </trkpt>
      <trkpt lat="47.84914" lon="5.28805">
        <ele>448.1846</ele>
        <time>2014-08-04T13:19:34Z</time>
      </trkpt>
      <trkpt lat="47.84919" lon="5.28802">
        <ele>448.2907</ele>
        <time>2014-08-04T13:19:35Z</time>
      </trkpt>
      <trkpt lat="47.84925" lon="5.28799">
        <ele>448.2917</ele>
        <time>2014-08-04T13:19:36Z</time>
      </trkpt>
      <trkpt lat="47.8493" lon="5.28796">
        <ele>448.162</ele>
        <time>2014-08-04T13:19:37Z</time>
      </trkpt>
      <trkpt lat="47.84936" lon="5.28793">
        <ele>448.5307</ele>
        <time>2014-08-04T13:19:38Z</time>
      </trkpt>
      <trkpt lat="47.84942" lon="5.28789">
        <ele>447.7694</ele>
        <time>2014-08-04T13:19:39Z</time>
      </trkpt>
      <trkpt lat="47.84948" lon="5.28785">
        <ele>446.6143</ele>
        <time>2014-08-04T13:19:40Z</time>
      </trkpt>
      <trkpt lat="47.84952" lon="5.28782">
        <ele>444.5915</ele>
        <time>2014-08-04T13:19:41Z</time>
      </trkpt>
      <trkpt lat="47.84956" lon="5.28778">
        <ele>444.1864</ele>
        <time>2014-08-04T13:19:42Z</time>
      </trkpt>
      <trkpt lat="47.84961" lon="5.28774">
        <ele>443.6775</ele>
        <time>2014-08-04T13:19:43Z</time>
      </trkpt>
      <trkpt lat="47.84966" lon="5.28769">
        <ele>441.2558</ele>
        <time>2014-08-04T13:19:44Z</time>
      </trkpt>
      <trkpt lat="47.84971" lon="5.28763">
        <ele>441.9739</ele>
        <time>2014-08-04T13:19:45Z</time>
      </trkpt>
      <trkpt lat="47.84976" lon="5.28757">
        <ele>443.0006</ele>
        <time>2014-08-04T13:19:46Z</time>
      </trkpt>
      <trkpt lat="47.84981" lon="5.28751">
        <ele>441.5224</ele>
        <time>2014-08-04T13:19:47Z</time>
      </trkpt>
      <trkpt lat="47.84986" lon="5.28743">
        <ele>439.7549</ele>
        <time>2014-08-04T13:19:48Z</time>
      </trkpt>
      <trkpt lat="47.8499" lon="5.28737">
        <ele>443.6727</ele>
        <time>2014-08-04T13:19:49Z</time>
      </trkpt>
      <trkpt lat="47.84994" lon="5.2873">
        <ele>441.9731</ele>
        <time>2014-08-04T13:19:50Z</time>
      </trkpt>
      <trkpt lat="47.84997" lon="5.28725">
        <ele>446.1187</ele>
        <time>2014-08-04T13:19:51Z</time>
      </trkpt>
      <trkpt lat="47.85" lon="5.28718">
        <ele>446.1991</ele>
        <time>2014-08-04T13:19:52Z</time>
      </trkpt>
      <trkpt lat="47.85003" lon="5.2871">
        <ele>445.8785</ele>
        <time>2014-08-04T13:19:53Z</time>
      </trkpt>
      <trkpt lat="47.85006" lon="5.28702">
        <ele>447.0739</ele>
        <time>2014-08-04T13:19:54Z</time>
      </trkpt>
      <trkpt lat="47.85008" lon="5.28695">
        <ele>447.0117</ele>
        <time>2014-08-04T13:19:55Z</time>
      </trkpt>
      <trkpt lat="47.85009" lon="5.28686">
        <ele>443.9213</ele>
        <time>2014-08-04T13:19:56Z</time>
      </trkpt>
      <trkpt lat="47.85011" lon="5.28677">
        <ele>443.721</ele>
        <time>2014-08-04T13:19:57Z</time>
      </trkpt>
      <trkpt lat="47.85013" lon="5.28663">
        <ele>440.9453</ele>
        <time>2014-08-04T13:19:59Z</time>
      </trkpt>
      <trkpt lat="47.85014" lon="5.28655">
        <ele>442.1342</ele>
        <time>2014-08-04T13:20:00Z</time>
      </trkpt>
      <trkpt lat="47.85015" lon="5.28648">
        <ele>438.5605</ele>
        <time>2014-08-04T13:20:01Z</time>
      </trkpt>
      <trkpt lat="47.85016" lon="5.2864">
        <ele>436.5922</ele>
        <time>2014-08-04T13:20:02Z</time>
      </trkpt>
      <trkpt lat="47.85016" lon="5.28632">
        <ele>438.7277</ele>
        <time>2014-08-04T13:20:03Z</time>
      </trkpt>
      <trkpt lat="47.85017" lon="5.28624">
        <ele>439.0558</ele>
        <time>2014-08-04T13:20:04Z</time>
      </trkpt>
      <trkpt lat="47.85017" lon="5.28616">
        <ele>439.0424</ele>
        <time>2014-08-04T13:20:05Z</time>
      </trkpt>
      <trkpt lat="47.85019" lon="5.28607">
        <ele>439.6515</ele>
        <time>2014-08-04T13:20:06Z</time>
      </trkpt>
      <trkpt lat="47.85019" lon="5.28598">
        <ele>440.0782</ele>
        <time>2014-08-04T13:20:07Z</time>
      </trkpt>
      <trkpt lat="47.85019" lon="5.28588">
        <ele>440.0091</ele>
        <time>2014-08-04T13:20:08Z</time>
      </trkpt>
      <trkpt lat="47.85019" lon="5.2858">
        <ele>437.5426</ele>
        <time>2014-08-04T13:20:09Z</time>
      </trkpt>
      <trkpt lat="47.85017" lon="5.28573">
        <ele>436.8607</ele>
        <time>2014-08-04T13:20:10Z</time>
      </trkpt>
      <trkpt lat="47.85017" lon="5.28565">
        <ele>436.9416</ele>
        <time>2014-08-04T13:20:11Z</time>
      </trkpt>
      <trkpt lat="47.85016" lon="5.28557">
        <ele>436.3654</ele>
        <time>2014-08-04T13:20:12Z</time>
      </trkpt>
      <trkpt lat="47.85015" lon="5.28549">
        <ele>435.4608</ele>
        <time>2014-08-04T13:20:13Z</time>
      </trkpt>
      <trkpt lat="47.85014" lon="5.28541">
        <ele>438.5054</ele>
        <time>2014-08-04T13:20:14Z</time>
      </trkpt>
      <trkpt lat="47.85014" lon="5.28534">
        <ele>440.5096</ele>
        <time>2014-08-04T13:20:15Z</time>
      </trkpt>
      <trkpt lat="47.85014" lon="5.28522">
        <ele>442.3747</ele>
        <time>2014-08-04T13:20:17Z</time>
      </trkpt>
      <trkpt lat="47.85014" lon="5.28514">
        <ele>441.893</ele>
        <time>2014-08-04T13:20:18Z</time>
      </trkpt>
      <trkpt lat="47.85012" lon="5.285">
        <ele>439.7907</ele>
        <time>2014-08-04T13:20:20Z</time>
      </trkpt>
      <trkpt lat="47.85012" lon="5.28489">
        <ele>443.6907</ele>
        <time>2014-08-04T13:20:21Z</time>
      </trkpt>
      <trkpt lat="47.85012" lon="5.2848">
        <ele>443.0537</ele>
        <time>2014-08-04T13:20:22Z</time>
      </trkpt>
      <trkpt lat="47.85012" lon="5.28471">
        <ele>444.3723</ele>
        <time>2014-08-04T13:20:23Z</time>
      </trkpt>
      <trkpt lat="47.85011" lon="5.28459">
        <ele>445.9337</ele>
        <time>2014-08-04T13:20:25Z</time>
      </trkpt>
      <trkpt lat="47.85011" lon="5.28445">
        <ele>445.1983</ele>
        <time>2014-08-04T13:20:27Z</time>
      </trkpt>
      <trkpt lat="47.85011" lon="5.28438">
        <ele>446.0645</ele>
        <time>2014-08-04T13:20:28Z</time>
      </trkpt>
      <trkpt lat="47.85011" lon="5.28431">
        <ele>446.32</ele>
        <time>2014-08-04T13:20:29Z</time>
      </trkpt>
      <trkpt lat="47.8501" lon="5.28419">
        <ele>446.6555</ele>
        <time>2014-08-04T13:20:31Z</time>
      </trkpt>
      <trkpt lat="47.85008" lon="5.28407">
        <ele>442.5522</ele>
        <time>2014-08-04T13:20:33Z</time>
      </trkpt>
      <trkpt lat="47.85007" lon="5.284">
        <ele>442.8268</ele>
        <time>2014-08-04T13:20:34Z</time>
      </trkpt>
      <trkpt lat="47.85006" lon="5.28393">
        <ele>443.5939</ele>
        <time>2014-08-04T13:20:35Z</time>
      </trkpt>
      <trkpt lat="47.85004" lon="5.28381">
        <ele>444.713</ele>
        <time>2014-08-04T13:20:37Z</time>
      </trkpt>
      <trkpt lat="47.85001" lon="5.28369">
        <ele>443.8221</ele>
        <time>2014-08-04T13:20:39Z</time>
      </trkpt>
      <trkpt lat="47.85" lon="5.28362">
        <ele>444.1111</ele>
        <time>2014-08-04T13:20:40Z</time>
      </trkpt>
      <trkpt lat="47.84998" lon="5.28355">
        <ele>443.097</ele>
        <time>2014-08-04T13:20:41Z</time>
      </trkpt>
      <trkpt lat="47.84996" lon="5.28348">
        <ele>443.2501</ele>
        <time>2014-08-04T13:20:42Z</time>
      </trkpt>
      <trkpt lat="47.84993" lon="5.28341">
        <ele>445.0515</ele>
        <time>2014-08-04T13:20:43Z</time>
      </trkpt>
      <trkpt lat="47.84991" lon="5.28334">
        <ele>445.8096</ele>
        <time>2014-08-04T13:20:44Z</time>
      </trkpt>
      <trkpt lat="47.84988" lon="5.28328">
        <ele>447.364</ele>
        <time>2014-08-04T13:20:45Z</time>
      </trkpt>
      <trkpt lat="47.84983" lon="5.28319">
        <ele>446.2337</ele>
        <time>2014-08-04T13:20:47Z</time>
      </trkpt>
      <trkpt lat="47.84979" lon="5.2831">
        <ele>447.2171</ele>
        <time>2014-08-04T13:20:49Z</time>
      </trkpt>
      <trkpt lat="47.84975" lon="5.28305">
        <ele>448.1091</ele>
        <time>2014-08-04T13:20:50Z</time>
      </trkpt>
      <trkpt lat="47.8497" lon="5.28297">
        <ele>447.3105</ele>
        <time>2014-08-04T13:20:52Z</time>
      </trkpt>
      <trkpt lat="47.84969" lon="5.28289">
        <ele>446.725</ele>
        <time>2014-08-04T13:20:54Z</time>
      </trkpt>
      <trkpt lat="47.84974" lon="5.28283">
        <ele>444.7969</ele>
        <time>2014-08-04T13:20:57Z</time>
      </trkpt>
      <trkpt lat="47.8498" lon="5.2828">
        <ele>444.8233</ele>
        <time>2014-08-04T13:20:59Z</time>
      </trkpt>
      <trkpt lat="47.84987" lon="5.28273">
        <ele>449.918</ele>
        <time>2014-08-04T13:21:01Z</time>
      </trkpt>
      <trkpt lat="47.84992" lon="5.28269">
        <ele>449.6652</ele>
        <time>2014-08-04T13:21:03Z</time>
      </trkpt>
      <trkpt lat="47.84997" lon="5.28264">
        <ele>448.405</ele>
        <time>2014-08-04T13:21:05Z</time>
      </trkpt>
      <trkpt lat="47.85003" lon="5.28258">
        <ele>450.0074</ele>
        <time>2014-08-04T13:21:07Z</time>
      </trkpt>
      <trkpt lat="47.85007" lon="5.28251">
        <ele>449.0312</ele>
        <time>2014-08-04T13:21:09Z</time>
      </trkpt>
      <trkpt lat="47.85012" lon="5.28245">
        <ele>446.4156</ele>
        <time>2014-08-04T13:21:11Z</time>
      </trkpt>
      <trkpt lat="47.85018" lon="5.28238">
        <ele>451.4723</ele>
        <time>2014-08-04T13:21:13Z</time>
      </trkpt>
      <trkpt lat="47.85025" lon="5.2823">
        <ele>458.0181</ele>
        <time>2014-08-04T13:21:15Z</time>
      </trkpt>
      <trkpt lat="47.85031" lon="5.28222">
        <ele>457.4779</ele>
        <time>2014-08-04T13:21:17Z</time>
      </trkpt>
      <trkpt lat="47.85037" lon="5.28216">
        <ele>456.5851</ele>
        <time>2014-08-04T13:21:19Z</time>
      </trkpt>
      <trkpt lat="47.85042" lon="5.28212">
        <ele>457.9732</ele>
        <time>2014-08-04T13:21:21Z</time>
      </trkpt>
      <trkpt lat="47.85048" lon="5.28206">
        <ele>453.6459</ele>
        <time>2014-08-04T13:21:23Z</time>
      </trkpt>
      <trkpt lat="47.85053" lon="5.28203">
        <ele>453.7069</ele>
        <time>2014-08-04T13:21:24Z</time>
      </trkpt>
      <trkpt lat="47.8506" lon="5.28197">
        <ele>449.3165</ele>
        <time>2014-08-04T13:21:26Z</time>
      </trkpt>
      <trkpt lat="47.85065" lon="5.28191">
        <ele>449.8925</ele>
        <time>2014-08-04T13:21:28Z</time>
      </trkpt>
      <trkpt lat="47.85071" lon="5.28188">
        <ele>451.6284</ele>
        <time>2014-08-04T13:21:30Z</time>
      </trkpt>
      <trkpt lat="47.8508" lon="5.28183">
        <ele>455.8005</ele>
        <time>2014-08-04T13:21:32Z</time>
      </trkpt>
      <trkpt lat="47.85088" lon="5.28179">
        <ele>452.7615</ele>
        <time>2014-08-04T13:21:34Z</time>
      </trkpt>
      <trkpt lat="47.85093" lon="5.28176">
        <ele>450.7287</ele>
        <time>2014-08-04T13:21:35Z</time>
      </trkpt>
      <trkpt lat="47.85097" lon="5.28175">
        <ele>450.0569</ele>
        <time>2014-08-04T13:21:36Z</time>
      </trkpt>
      <trkpt lat="47.85104" lon="5.28172">
        <ele>454.7978</ele>
        <time>2014-08-04T13:21:38Z</time>
      </trkpt>
      <trkpt lat="47.85109" lon="5.28171">
        <ele>452.2948</ele>
        <time>2014-08-04T13:21:40Z</time>
      </trkpt>
      <trkpt lat="47.85118" lon="5.28164">
        <ele>448.7467</ele>
        <time>2014-08-04T13:21:42Z</time>
      </trkpt>
      <trkpt lat="47.85125" lon="5.28158">
        <ele>450.7814</ele>
        <time>2014-08-04T13:21:43Z</time>
      </trkpt>
      <trkpt lat="47.85131" lon="5.28152">
        <ele>448.2523</ele>
        <time>2014-08-04T13:21:44Z</time>
      </trkpt>
      <trkpt lat="47.85136" lon="5.28146">
        <ele>450.1648</ele>
        <time>2014-08-04T13:21:45Z</time>
      </trkpt>
      <trkpt lat="47.8514" lon="5.2814">
        <ele>450.2649</ele>
        <time>2014-08-04T13:21:46Z</time>
      </trkpt>
      <trkpt lat="47.85143" lon="5.28135">
        <ele>450.5963</ele>
        <time>2014-08-04T13:21:47Z</time>
      </trkpt>
      <trkpt lat="47.85147" lon="5.2813">
        <ele>452.191</ele>
        <time>2014-08-04T13:21:48Z</time>
      </trkpt>
      <trkpt lat="47.85149" lon="5.28124">
        <ele>450.4255</ele>
        <time>2014-08-04T13:21:49Z</time>
      </trkpt>
      <trkpt lat="47.85152" lon="5.28118">
        <ele>449.9693</ele>
        <time>2014-08-04T13:21:50Z</time>
      </trkpt>
      <trkpt lat="47.85155" lon="5.28113">
        <ele>451.7229</ele>
        <time>2014-08-04T13:21:51Z</time>
      </trkpt>
      <trkpt lat="47.85158" lon="5.28107">
        <ele>447.6992</ele>
        <time>2014-08-04T13:21:52Z</time>
      </trkpt>
      <trkpt lat="47.85161" lon="5.28102">
        <ele>448.0519</ele>
        <time>2014-08-04T13:21:53Z</time>
      </trkpt>
      <trkpt lat="47.85164" lon="5.28097">
        <ele>446.109</ele>
        <time>2014-08-04T13:21:54Z</time>
      </trkpt>
      <trkpt lat="47.8517" lon="5.28089">
        <ele>443.634</ele>
        <time>2014-08-04T13:21:56Z</time>
      </trkpt>
      <trkpt lat="47.85177" lon="5.28082">
        <ele>439.2113</ele>
        <time>2014-08-04T13:21:58Z</time>
      </trkpt>
      <trkpt lat="47.85181" lon="5.28078">
        <ele>441.1946</ele>
        <time>2014-08-04T13:21:59Z</time>
      </trkpt>
      <trkpt lat="47.85186" lon="5.28073">
        <ele>444.3229</ele>
        <time>2014-08-04T13:22:00Z</time>
      </trkpt>
      <trkpt lat="47.85191" lon="5.2807">
        <ele>447.4997</ele>
        <time>2014-08-04T13:22:01Z</time>
      </trkpt>
      <trkpt lat="47.85197" lon="5.28067">
        <ele>440.7057</ele>
        <time>2014-08-04T13:22:03Z</time>
      </trkpt>
      <trkpt lat="47.85202" lon="5.28066">
        <ele>442.6103</ele>
        <time>2014-08-04T13:22:04Z</time>
      </trkpt>
      <trkpt lat="47.85209" lon="5.28063">
        <ele>442.2832</ele>
        <time>2014-08-04T13:22:06Z</time>
      </trkpt>
      <trkpt lat="47.85214" lon="5.28062">
        <ele>440.8631</ele>
        <time>2014-08-04T13:22:07Z</time>
      </trkpt>
      <trkpt lat="47.85219" lon="5.2806">
        <ele>440.6452</ele>
        <time>2014-08-04T13:22:08Z</time>
      </trkpt>
      <trkpt lat="47.85224" lon="5.28058">
        <ele>438.898</ele>
        <time>2014-08-04T13:22:09Z</time>
      </trkpt>
      <trkpt lat="47.85229" lon="5.28056">
        <ele>437.9682</ele>
        <time>2014-08-04T13:22:10Z</time>
      </trkpt>
      <trkpt lat="47.85233" lon="5.28053">
        <ele>443.5245</ele>
        <time>2014-08-04T13:22:11Z</time>
      </trkpt>
      <trkpt lat="47.85239" lon="5.28051">
        <ele>445.5587</ele>
        <time>2014-08-04T13:22:12Z</time>
      </trkpt>
      <trkpt lat="47.85245" lon="5.28049">
        <ele>446.6808</ele>
        <time>2014-08-04T13:22:13Z</time>
      </trkpt>
      <trkpt lat="47.8525" lon="5.28046">
        <ele>445.3266</ele>
        <time>2014-08-04T13:22:14Z</time>
      </trkpt>
      <trkpt lat="47.85255" lon="5.28043">
        <ele>442.3251</ele>
        <time>2014-08-04T13:22:15Z</time>
      </trkpt>
      <trkpt lat="47.8526" lon="5.2804">
        <ele>441.975</ele>
        <time>2014-08-04T13:22:16Z</time>
      </trkpt>
      <trkpt lat="47.85268" lon="5.28033">
        <ele>438.8947</ele>
        <time>2014-08-04T13:22:18Z</time>
      </trkpt>
      <trkpt lat="47.85275" lon="5.28024">
        <ele>445.2109</ele>
        <time>2014-08-04T13:22:20Z</time>
      </trkpt>
      <trkpt lat="47.85278" lon="5.28019">
        <ele>441.7018</ele>
        <time>2014-08-04T13:22:21Z</time>
      </trkpt>
      <trkpt lat="47.85282" lon="5.28014">
        <ele>443.5976</ele>
        <time>2014-08-04T13:22:22Z</time>
      </trkpt>
      <trkpt lat="47.85286" lon="5.2801">
        <ele>446.0224</ele>
        <time>2014-08-04T13:22:23Z</time>
      </trkpt>
      <trkpt lat="47.85293" lon="5.28002">
        <ele>441.498</ele>
        <time>2014-08-04T13:22:24Z</time>
      </trkpt>
      <trkpt lat="47.853" lon="5.27994">
        <ele>440.4585</ele>
        <time>2014-08-04T13:22:25Z</time>
      </trkpt>
      <trkpt lat="47.85305" lon="5.27987">
        <ele>442.1417</ele>
        <time>2014-08-04T13:22:26Z</time>
      </trkpt>
      <trkpt lat="47.8531" lon="5.27981">
        <ele>441.9557</ele>
        <time>2014-08-04T13:22:27Z</time>
      </trkpt>
      <trkpt lat="47.85313" lon="5.27975">
        <ele>441.3348</ele>
        <time>2014-08-04T13:22:28Z</time>
      </trkpt>
      <trkpt lat="47.85317" lon="5.27968">
        <ele>440.2162</ele>
        <time>2014-08-04T13:22:29Z</time>
      </trkpt>
      <trkpt lat="47.8532" lon="5.27962">
        <ele>441.0285</ele>
        <time>2014-08-04T13:22:30Z</time>
      </trkpt>
      <trkpt lat="47.85323" lon="5.27955">
        <ele>440.6503</ele>
        <time>2014-08-04T13:22:31Z</time>
      </trkpt>
      <trkpt lat="47.85326" lon="5.27948">
        <ele>440.9934</ele>
        <time>2014-08-04T13:22:32Z</time>
      </trkpt>
      <trkpt lat="47.85329" lon="5.2794">
        <ele>442.9735</ele>
        <time>2014-08-04T13:22:33Z</time>
      </trkpt>
      <trkpt lat="47.85332" lon="5.27934">
        <ele>440.9957</ele>
        <time>2014-08-04T13:22:34Z</time>
      </trkpt>
      <trkpt lat="47.85334" lon="5.27928">
        <ele>441.2436</ele>
        <time>2014-08-04T13:22:35Z</time>
      </trkpt>
      <trkpt lat="47.85337" lon="5.27922">
        <ele>441.1027</ele>
        <time>2014-08-04T13:22:36Z</time>
      </trkpt>
      <trkpt lat="47.8534" lon="5.27915">
        <ele>441.761</ele>
        <time>2014-08-04T13:22:37Z</time>
      </trkpt>
      <trkpt lat="47.85343" lon="5.27908">
        <ele>443.478</ele>
        <time>2014-08-04T13:22:38Z</time>
      </trkpt>
      <trkpt lat="47.85346" lon="5.27901">
        <ele>445.1208</ele>
        <time>2014-08-04T13:22:39Z</time>
      </trkpt>
      <trkpt lat="47.85348" lon="5.27894">
        <ele>444.0914</ele>
        <time>2014-08-04T13:22:40Z</time>
      </trkpt>
      <trkpt lat="47.85351" lon="5.27888">
        <ele>444.1283</ele>
        <time>2014-08-04T13:22:41Z</time>
      </trkpt>
      <trkpt lat="47.85353" lon="5.2788">
        <ele>444.2142</ele>
        <time>2014-08-04T13:22:42Z</time>
      </trkpt>
      <trkpt lat="47.85356" lon="5.27874">
        <ele>444.2956</ele>
        <time>2014-08-04T13:22:43Z</time>
      </trkpt>
      <trkpt lat="47.85358" lon="5.27867">
        <ele>444.5294</ele>
        <time>2014-08-04T13:22:44Z</time>
      </trkpt>
      <trkpt lat="47.85361" lon="5.27861">
        <ele>443.6092</ele>
        <time>2014-08-04T13:22:45Z</time>
      </trkpt>
      <trkpt lat="47.85364" lon="5.27855">
        <ele>442.9153</ele>
        <time>2014-08-04T13:22:46Z</time>
      </trkpt>
      <trkpt lat="47.85366" lon="5.27849">
        <ele>442.2256</ele>
        <time>2014-08-04T13:22:47Z</time>
      </trkpt>
      <trkpt lat="47.8537" lon="5.27843">
        <ele>440.883</ele>
        <time>2014-08-04T13:22:48Z</time>
      </trkpt>
      <trkpt lat="47.85373" lon="5.27837">
        <ele>440.9363</ele>
        <time>2014-08-04T13:22:49Z</time>
      </trkpt>
      <trkpt lat="47.85377" lon="5.27831">
        <ele>442.6723</ele>
        <time>2014-08-04T13:22:50Z</time>
      </trkpt>
      <trkpt lat="47.8538" lon="5.27825">
        <ele>442.5153</ele>
        <time>2014-08-04T13:22:51Z</time>
      </trkpt>
      <trkpt lat="47.85383" lon="5.2782">
        <ele>441.6882</ele>
        <time>2014-08-04T13:22:52Z</time>
      </trkpt>
      <trkpt lat="47.85389" lon="5.27811">
        <ele>439.5027</ele>
        <time>2014-08-04T13:22:54Z</time>
      </trkpt>
      <trkpt lat="47.85392" lon="5.27804">
        <ele>439.4899</ele>
        <time>2014-08-04T13:22:56Z</time>
      </trkpt>
      <trkpt lat="47.85398" lon="5.27796">
        <ele>438.804</ele>
        <time>2014-08-04T13:22:58Z</time>
      </trkpt>
      <trkpt lat="47.85402" lon="5.27788">
        <ele>441.5465</ele>
        <time>2014-08-04T13:23:00Z</time>
      </trkpt>
      <trkpt lat="47.85406" lon="5.27779">
        <ele>443.7318</ele>
        <time>2014-08-04T13:23:02Z</time>
      </trkpt>
      <trkpt lat="47.85412" lon="5.27769">
        <ele>443.2168</ele>
        <time>2014-08-04T13:23:04Z</time>
      </trkpt>
      <trkpt lat="47.85415" lon="5.27763">
        <ele>444.2018</ele>
        <time>2014-08-04T13:23:05Z</time>
      </trkpt>
      <trkpt lat="47.85417" lon="5.27757">
        <ele>442.5258</ele>
        <time>2014-08-04T13:23:06Z</time>
      </trkpt>
      <trkpt lat="47.8542" lon="5.27751">
        <ele>443.0598</ele>
        <time>2014-08-04T13:23:07Z</time>
      </trkpt>
      <trkpt lat="47.85423" lon="5.27745">
        <ele>444.1905</ele>
        <time>2014-08-04T13:23:08Z</time>
      </trkpt>
      <trkpt lat="47.85426" lon="5.27738">
        <ele>443.865</ele>
        <time>2014-08-04T13:23:09Z</time>
      </trkpt>
      <trkpt lat="47.85429" lon="5.27732">
        <ele>444.5396</ele>
        <time>2014-08-04T13:23:10Z</time>
      </trkpt>
      <trkpt lat="47.85432" lon="5.27725">
        <ele>446.8191</ele>
        <time>2014-08-04T13:23:11Z</time>
      </trkpt>
      <trkpt lat="47.85436" lon="5.27718">
        <ele>447.2561</ele>
        <time>2014-08-04T13:23:12Z</time>
      </trkpt>
      <trkpt lat="47.85438" lon="5.27713">
        <ele>444.6673</ele>
        <time>2014-08-04T13:23:13Z</time>
      </trkpt>
      <trkpt lat="47.85441" lon="5.27706">
        <ele>442.5976</ele>
        <time>2014-08-04T13:23:14Z</time>
      </trkpt>
      <trkpt lat="47.85445" lon="5.277">
        <ele>441.0677</ele>
        <time>2014-08-04T13:23:15Z</time>
      </trkpt>
      <trkpt lat="47.85449" lon="5.27694">
        <ele>438.9678</ele>
        <time>2014-08-04T13:23:16Z</time>
      </trkpt>
      <trkpt lat="47.85453" lon="5.27688">
        <ele>438.7595</ele>
        <time>2014-08-04T13:23:18Z</time>
      </trkpt>
      <trkpt lat="47.85456" lon="5.27683">
        <ele>437.2387</ele>
        <time>2014-08-04T13:23:19Z</time>
      </trkpt>
      <trkpt lat="47.85463" lon="5.27675">
        <ele>441.1699</ele>
        <time>2014-08-04T13:23:20Z</time>
      </trkpt>
      <trkpt lat="47.85467" lon="5.2767">
        <ele>441.2882</ele>
        <time>2014-08-04T13:23:21Z</time>
      </trkpt>
      <trkpt lat="47.85472" lon="5.27665">
        <ele>440.7025</ele>
        <time>2014-08-04T13:23:22Z</time>
      </trkpt>
      <trkpt lat="47.85475" lon="5.27659">
        <ele>444.0898</ele>
        <time>2014-08-04T13:23:23Z</time>
      </trkpt>
      <trkpt lat="47.85479" lon="5.27653">
        <ele>447.7592</ele>
        <time>2014-08-04T13:23:24Z</time>
      </trkpt>
      <trkpt lat="47.85482" lon="5.27647">
        <ele>448.6354</ele>
        <time>2014-08-04T13:23:25Z</time>
      </trkpt>
      <trkpt lat="47.85486" lon="5.2764">
        <ele>444.7159</ele>
        <time>2014-08-04T13:23:26Z</time>
      </trkpt>
      <trkpt lat="47.85489" lon="5.27633">
        <ele>443.5175</ele>
        <time>2014-08-04T13:23:27Z</time>
      </trkpt>
      <trkpt lat="47.85492" lon="5.27627">
        <ele>445.6541</ele>
        <time>2014-08-04T13:23:28Z</time>
      </trkpt>
      <trkpt lat="47.85494" lon="5.27621">
        <ele>443.9885</ele>
        <time>2014-08-04T13:23:29Z</time>
      </trkpt>
      <trkpt lat="47.85496" lon="5.27615">
        <ele>442.2926</ele>
        <time>2014-08-04T13:23:30Z</time>
      </trkpt>
      <trkpt lat="47.85498" lon="5.27608">
        <ele>439.3009</ele>
        <time>2014-08-04T13:23:31Z</time>
      </trkpt>
      <trkpt lat="47.855" lon="5.27601">
        <ele>441.3827</ele>
        <time>2014-08-04T13:23:32Z</time>
      </trkpt>
      <trkpt lat="47.85502" lon="5.27594">
        <ele>440.8923</ele>
        <time>2014-08-04T13:23:33Z</time>
      </trkpt>
      <trkpt lat="47.85505" lon="5.27581">
        <ele>439.5195</ele>
        <time>2014-08-04T13:23:35Z</time>
      </trkpt>
      <trkpt lat="47.85508" lon="5.27573">
        <ele>438.1407</ele>
        <time>2014-08-04T13:23:37Z</time>
      </trkpt>
      <trkpt lat="47.85512" lon="5.27562">
        <ele>439.2504</ele>
        <time>2014-08-04T13:23:39Z</time>
      </trkpt>
      <trkpt lat="47.85515" lon="5.27555">
        <ele>435.6871</ele>
        <time>2014-08-04T13:23:40Z</time>
      </trkpt>
      <trkpt lat="47.85518" lon="5.27549">
        <ele>434.2257</ele>
        <time>2014-08-04T13:23:41Z</time>
      </trkpt>
      <trkpt lat="47.85521" lon="5.27543">
        <ele>435.1973</ele>
        <time>2014-08-04T13:23:42Z</time>
      </trkpt>
      <trkpt lat="47.85526" lon="5.27534">
        <ele>437.5587</ele>
        <time>2014-08-04T13:23:44Z</time>
      </trkpt>
      <trkpt lat="47.85529" lon="5.27529">
        <ele>434.5601</ele>
        <time>2014-08-04T13:23:45Z</time>
      </trkpt>
      <trkpt lat="47.85533" lon="5.27524">
        <ele>435.1014</ele>
        <time>2014-08-04T13:23:46Z</time>
      </trkpt>
      <trkpt lat="47.85539" lon="5.27516">
        <ele>438.87</ele>
        <time>2014-08-04T13:23:48Z</time>
      </trkpt>
      <trkpt lat="47.85547" lon="5.2751">
        <ele>434.1625</ele>
        <time>2014-08-04T13:23:50Z</time>
      </trkpt>
      <trkpt lat="47.85552" lon="5.27504">
        <ele>435.3627</ele>
        <time>2014-08-04T13:23:52Z</time>
      </trkpt>
      <trkpt lat="47.8556" lon="5.27496">
        <ele>439.0966</ele>
        <time>2014-08-04T13:23:54Z</time>
      </trkpt>
      <trkpt lat="47.85563" lon="5.27491">
        <ele>441.1617</ele>
        <time>2014-08-04T13:23:55Z</time>
      </trkpt>
      <trkpt lat="47.85568" lon="5.27482">
        <ele>443.5195</ele>
        <time>2014-08-04T13:23:57Z</time>
      </trkpt>
      <trkpt lat="47.85571" lon="5.27477">
        <ele>445.5081</ele>
        <time>2014-08-04T13:23:58Z</time>
      </trkpt>
      <trkpt lat="47.85574" lon="5.27472">
        <ele>444.0273</ele>
        <time>2014-08-04T13:23:59Z</time>
      </trkpt>
      <trkpt lat="47.85579" lon="5.27468">
        <ele>439.0132</ele>
        <time>2014-08-04T13:24:00Z</time>
      </trkpt>
      <trkpt lat="47.85582" lon="5.27464">
        <ele>437.9179</ele>
        <time>2014-08-04T13:24:01Z</time>
      </trkpt>
      <trkpt lat="47.85591" lon="5.27457">
        <ele>433.2762</ele>
        <time>2014-08-04T13:24:03Z</time>
      </trkpt>
      <trkpt lat="47.85597" lon="5.27456">
        <ele>426.7419</ele>
        <time>2014-08-04T13:24:04Z</time>
      </trkpt>
      <trkpt lat="47.85602" lon="5.27455">
        <ele>429.3658</ele>
        <time>2014-08-04T13:24:05Z</time>
      </trkpt>
      <trkpt lat="47.85612" lon="5.27456">
        <ele>428.3253</ele>
        <time>2014-08-04T13:24:07Z</time>
      </trkpt>
      <trkpt lat="47.85617" lon="5.27457">
        <ele>427.6588</ele>
        <time>2014-08-04T13:24:08Z</time>
      </trkpt>
      <trkpt lat="47.85624" lon="5.27459">
        <ele>428.2232</ele>
        <time>2014-08-04T13:24:09Z</time>
      </trkpt>
      <trkpt lat="47.8563" lon="5.27463">
        <ele>431.0869</ele>
        <time>2014-08-04T13:24:10Z</time>
      </trkpt>
      <trkpt lat="47.85637" lon="5.27466">
        <ele>433.5493</ele>
        <time>2014-08-04T13:24:11Z</time>
      </trkpt>
      <trkpt lat="47.85643" lon="5.27468">
        <ele>432.1601</ele>
        <time>2014-08-04T13:24:12Z</time>
      </trkpt>
      <trkpt lat="47.85648" lon="5.27469">
        <ele>431.0893</ele>
        <time>2014-08-04T13:24:13Z</time>
      </trkpt>
      <trkpt lat="47.85653" lon="5.27471">
        <ele>430.7385</ele>
        <time>2014-08-04T13:24:14Z</time>
      </trkpt>
      <trkpt lat="47.85659" lon="5.27473">
        <ele>430.182</ele>
        <time>2014-08-04T13:24:15Z</time>
      </trkpt>
      <trkpt lat="47.85666" lon="5.27475">
        <ele>431.1861</ele>
        <time>2014-08-04T13:24:16Z</time>
      </trkpt>
      <trkpt lat="47.85671" lon="5.27475">
        <ele>433.8664</ele>
        <time>2014-08-04T13:24:17Z</time>
      </trkpt>
      <trkpt lat="47.8568" lon="5.27477">
        <ele>433.3023</ele>
        <time>2014-08-04T13:24:19Z</time>
      </trkpt>
      <trkpt lat="47.85684" lon="5.27477">
        <ele>436.7263</ele>
        <time>2014-08-04T13:24:20Z</time>
      </trkpt>
      <trkpt lat="47.85691" lon="5.27478">
        <ele>432.8548</ele>
        <time>2014-08-04T13:24:21Z</time>
      </trkpt>
      <trkpt lat="47.85696" lon="5.27478">
        <ele>430.2225</ele>
        <time>2014-08-04T13:24:22Z</time>
      </trkpt>
      <trkpt lat="47.85703" lon="5.2748">
        <ele>432.4495</ele>
        <time>2014-08-04T13:24:23Z</time>
      </trkpt>
      <trkpt lat="47.85709" lon="5.27481">
        <ele>432.2673</ele>
        <time>2014-08-04T13:24:24Z</time>
      </trkpt>
      <trkpt lat="47.85714" lon="5.27482">
        <ele>433.6841</ele>
        <time>2014-08-04T13:24:25Z</time>
      </trkpt>
      <trkpt lat="47.8572" lon="5.27483">
        <ele>431.2022</ele>
        <time>2014-08-04T13:24:26Z</time>
      </trkpt>
      <trkpt lat="47.85727" lon="5.27484">
        <ele>432.4269</ele>
        <time>2014-08-04T13:24:27Z</time>
      </trkpt>
      <trkpt lat="47.85732" lon="5.27485">
        <ele>431.6508</ele>
        <time>2014-08-04T13:24:28Z</time>
      </trkpt>
      <trkpt lat="47.85741" lon="5.27487">
        <ele>432.4019</ele>
        <time>2014-08-04T13:24:30Z</time>
      </trkpt>
      <trkpt lat="47.85746" lon="5.27488">
        <ele>432.4232</ele>
        <time>2014-08-04T13:24:31Z</time>
      </trkpt>
      <trkpt lat="47.85751" lon="5.27488">
        <ele>430.416</ele>
        <time>2014-08-04T13:24:32Z</time>
      </trkpt>
      <trkpt lat="47.85756" lon="5.27489">
        <ele>431.2005</ele>
        <time>2014-08-04T13:24:33Z</time>
      </trkpt>
      <trkpt lat="47.85765" lon="5.27489">
        <ele>427.7064</ele>
        <time>2014-08-04T13:24:35Z</time>
      </trkpt>
      <trkpt lat="47.85769" lon="5.27489">
        <ele>426.7625</ele>
        <time>2014-08-04T13:24:36Z</time>
      </trkpt>
      <trkpt lat="47.85775" lon="5.27489">
        <ele>423.8365</ele>
        <time>2014-08-04T13:24:37Z</time>
      </trkpt>
      <trkpt lat="47.8578" lon="5.27489">
        <ele>423.1339</ele>
        <time>2014-08-04T13:24:38Z</time>
      </trkpt>
      <trkpt lat="47.85785" lon="5.27487">
        <ele>421.3664</ele>
        <time>2014-08-04T13:24:39Z</time>
      </trkpt>
      <trkpt lat="47.8579" lon="5.27486">
        <ele>420.2878</ele>
        <time>2014-08-04T13:24:40Z</time>
      </trkpt>
      <trkpt lat="47.85795" lon="5.27484">
        <ele>419.5079</ele>
        <time>2014-08-04T13:24:41Z</time>
      </trkpt>
      <trkpt lat="47.85799" lon="5.27483">
        <ele>418.198</ele>
        <time>2014-08-04T13:24:42Z</time>
      </trkpt>
      <trkpt lat="47.85804" lon="5.27481">
        <ele>419.9708</ele>
        <time>2014-08-04T13:24:43Z</time>
      </trkpt>
      <trkpt lat="47.85809" lon="5.27478">
        <ele>420.6367</ele>
        <time>2014-08-04T13:24:44Z</time>
      </trkpt>
      <trkpt lat="47.85817" lon="5.27473">
        <ele>422.7511</ele>
        <time>2014-08-04T13:24:46Z</time>
      </trkpt>
      <trkpt lat="47.85825" lon="5.27469">
        <ele>423.9178</ele>
        <time>2014-08-04T13:24:48Z</time>
      </trkpt>
      <trkpt lat="47.85829" lon="5.27465">
        <ele>423.3789</ele>
        <time>2014-08-04T13:24:49Z</time>
      </trkpt>
      <trkpt lat="47.85837" lon="5.2746">
        <ele>422.3049</ele>
        <time>2014-08-04T13:24:51Z</time>
      </trkpt>
      <trkpt lat="47.85844" lon="5.27455">
        <ele>420.8747</ele>
        <time>2014-08-04T13:24:53Z</time>
      </trkpt>
      <trkpt lat="47.8585" lon="5.27451">
        <ele>426.7556</ele>
        <time>2014-08-04T13:24:55Z</time>
      </trkpt>
      <trkpt lat="47.85857" lon="5.27447">
        <ele>424.8599</ele>
        <time>2014-08-04T13:24:57Z</time>
      </trkpt>
      <trkpt lat="47.85864" lon="5.27444">
        <ele>424.167</ele>
        <time>2014-08-04T13:24:59Z</time>
      </trkpt>
      <trkpt lat="47.85872" lon="5.2744">
        <ele>421.875</ele>
        <time>2014-08-04T13:25:01Z</time>
      </trkpt>
      <trkpt lat="47.85877" lon="5.27437">
        <ele>422.7768</ele>
        <time>2014-08-04T13:25:02Z</time>
      </trkpt>
      <trkpt lat="47.85884" lon="5.27434">
        <ele>425.123</ele>
        <time>2014-08-04T13:25:04Z</time>
      </trkpt>
      <trkpt lat="47.85892" lon="5.27429">
        <ele>424.2657</ele>
        <time>2014-08-04T13:25:06Z</time>
      </trkpt>
      <trkpt lat="47.85899" lon="5.27424">
        <ele>424.7182</ele>
        <time>2014-08-04T13:25:08Z</time>
      </trkpt>
      <trkpt lat="47.85904" lon="5.2742">
        <ele>423.1264</ele>
        <time>2014-08-04T13:25:09Z</time>
      </trkpt>
      <trkpt lat="47.8591" lon="5.27416">
        <ele>419.4154</ele>
        <time>2014-08-04T13:25:10Z</time>
      </trkpt>
      <trkpt lat="47.85914" lon="5.27411">
        <ele>421.5784</ele>
        <time>2014-08-04T13:25:11Z</time>
      </trkpt>
      <trkpt lat="47.85918" lon="5.27406">
        <ele>422.0439</ele>
        <time>2014-08-04T13:25:12Z</time>
      </trkpt>
      <trkpt lat="47.85922" lon="5.274">
        <ele>422.4078</ele>
        <time>2014-08-04T13:25:13Z</time>
      </trkpt>
      <trkpt lat="47.85926" lon="5.27394">
        <ele>424.5284</ele>
        <time>2014-08-04T13:25:14Z</time>
      </trkpt>
      <trkpt lat="47.8593" lon="5.27389">
        <ele>427.0337</ele>
        <time>2014-08-04T13:25:15Z</time>
      </trkpt>
      <trkpt lat="47.85934" lon="5.27383">
        <ele>427.3859</ele>
        <time>2014-08-04T13:25:16Z</time>
      </trkpt>
      <trkpt lat="47.85938" lon="5.27378">
        <ele>429.1171</ele>
        <time>2014-08-04T13:25:17Z</time>
      </trkpt>
      <trkpt lat="47.85941" lon="5.27372">
        <ele>426.0997</ele>
        <time>2014-08-04T13:25:18Z</time>
      </trkpt>
      <trkpt lat="47.85944" lon="5.27365">
        <ele>423.6526</ele>
        <time>2014-08-04T13:25:19Z</time>
      </trkpt>
      <trkpt lat="47.85947" lon="5.27353">
        <ele>425.8366</ele>
        <time>2014-08-04T13:25:21Z</time>
      </trkpt>
      <trkpt lat="47.85951" lon="5.27344">
        <ele>426.2156</ele>
        <time>2014-08-04T13:25:22Z</time>
      </trkpt>
      <trkpt lat="47.85952" lon="5.27336">
        <ele>425.3042</ele>
        <time>2014-08-04T13:25:23Z</time>
      </trkpt>
      <trkpt lat="47.85954" lon="5.27328">
        <ele>423.5856</ele>
        <time>2014-08-04T13:25:24Z</time>
      </trkpt>
      <trkpt lat="47.85956" lon="5.27319">
        <ele>424.5869</ele>
        <time>2014-08-04T13:25:25Z</time>
      </trkpt>
      <trkpt lat="47.85957" lon="5.2731">
        <ele>425.7718</ele>
        <time>2014-08-04T13:25:26Z</time>
      </trkpt>
      <trkpt lat="47.85959" lon="5.27302">
        <ele>425.4383</ele>
        <time>2014-08-04T13:25:27Z</time>
      </trkpt>
      <trkpt lat="47.85961" lon="5.27294">
        <ele>423.5327</ele>
        <time>2014-08-04T13:25:28Z</time>
      </trkpt>
      <trkpt lat="47.85963" lon="5.27286">
        <ele>422.3012</ele>
        <time>2014-08-04T13:25:29Z</time>
      </trkpt>
      <trkpt lat="47.85966" lon="5.27277">
        <ele>422.8192</ele>
        <time>2014-08-04T13:25:30Z</time>
      </trkpt>
      <trkpt lat="47.85968" lon="5.2727">
        <ele>423.8709</ele>
        <time>2014-08-04T13:25:31Z</time>
      </trkpt>
      <trkpt lat="47.85971" lon="5.27264">
        <ele>425.9613</ele>
        <time>2014-08-04T13:25:32Z</time>
      </trkpt>
      <trkpt lat="47.85975" lon="5.27253">
        <ele>424.7148</ele>
        <time>2014-08-04T13:25:34Z</time>
      </trkpt>
      <trkpt lat="47.85977" lon="5.27244">
        <ele>425.6234</ele>
        <time>2014-08-04T13:25:36Z</time>
      </trkpt>
      <trkpt lat="47.85977" lon="5.27234">
        <ele>425.7595</ele>
        <time>2014-08-04T13:25:38Z</time>
      </trkpt>
      <trkpt lat="47.85978" lon="5.27227">
        <ele>428.8711</ele>
        <time>2014-08-04T13:25:40Z</time>
      </trkpt>
      <trkpt lat="47.85977" lon="5.2722">
        <ele>422.8239</ele>
        <time>2014-08-04T13:25:42Z</time>
      </trkpt>
      <trkpt lat="47.85975" lon="5.27214">
        <ele>419.9195</ele>
        <time>2014-08-04T13:25:44Z</time>
      </trkpt>
      <trkpt lat="47.8597" lon="5.27208">
        <ele>417.6251</ele>
        <time>2014-08-04T13:25:46Z</time>
      </trkpt>
      <trkpt lat="47.85964" lon="5.272">
        <ele>414.9465</ele>
        <time>2014-08-04T13:25:48Z</time>
      </trkpt>
      <trkpt lat="47.85959" lon="5.27189">
        <ele>412.4213</ele>
        <time>2014-08-04T13:25:50Z</time>
      </trkpt>
      <trkpt lat="47.85957" lon="5.27178">
        <ele>412.9482</ele>
        <time>2014-08-04T13:25:52Z</time>
      </trkpt>
      <trkpt lat="47.85955" lon="5.2717">
        <ele>413.611</ele>
        <time>2014-08-04T13:25:53Z</time>
      </trkpt>
      <trkpt lat="47.85954" lon="5.27161">
        <ele>411.7672</ele>
        <time>2014-08-04T13:25:54Z</time>
      </trkpt>
      <trkpt lat="47.85955" lon="5.27153">
        <ele>412.9912</ele>
        <time>2014-08-04T13:25:55Z</time>
      </trkpt>
      <trkpt lat="47.85955" lon="5.27145">
        <ele>413.405</ele>
        <time>2014-08-04T13:25:56Z</time>
      </trkpt>
      <trkpt lat="47.85955" lon="5.27137">
        <ele>413.7064</ele>
        <time>2014-08-04T13:25:57Z</time>
      </trkpt>
      <trkpt lat="47.85955" lon="5.2713">
        <ele>413.6667</ele>
        <time>2014-08-04T13:25:58Z</time>
      </trkpt>
      <trkpt lat="47.85955" lon="5.27122">
        <ele>415.2346</ele>
        <time>2014-08-04T13:25:59Z</time>
      </trkpt>
      <trkpt lat="47.85955" lon="5.27114">
        <ele>418.2909</ele>
        <time>2014-08-04T13:26:00Z</time>
      </trkpt>
      <trkpt lat="47.85955" lon="5.27107">
        <ele>420.332</ele>
        <time>2014-08-04T13:26:01Z</time>
      </trkpt>
      <trkpt lat="47.85955" lon="5.271">
        <ele>420.6661</ele>
        <time>2014-08-04T13:26:02Z</time>
      </trkpt>
      <trkpt lat="47.85955" lon="5.27092">
        <ele>420.2072</ele>
        <time>2014-08-04T13:26:03Z</time>
      </trkpt>
      <trkpt lat="47.85954" lon="5.27085">
        <ele>418.4429</ele>
        <time>2014-08-04T13:26:04Z</time>
      </trkpt>
      <trkpt lat="47.85954" lon="5.27078">
        <ele>417.4513</ele>
        <time>2014-08-04T13:26:05Z</time>
      </trkpt>
      <trkpt lat="47.85952" lon="5.2707">
        <ele>415.6559</ele>
        <time>2014-08-04T13:26:06Z</time>
      </trkpt>
      <trkpt lat="47.85951" lon="5.27063">
        <ele>415.4086</ele>
        <time>2014-08-04T13:26:07Z</time>
      </trkpt>
      <trkpt lat="47.8595" lon="5.27055">
        <ele>414.7381</ele>
        <time>2014-08-04T13:26:08Z</time>
      </trkpt>
      <trkpt lat="47.85949" lon="5.27047">
        <ele>417.8243</ele>
        <time>2014-08-04T13:26:09Z</time>
      </trkpt>
      <trkpt lat="47.85948" lon="5.2704">
        <ele>416.084</ele>
        <time>2014-08-04T13:26:10Z</time>
      </trkpt>
      <trkpt lat="47.85947" lon="5.27032">
        <ele>415.3288</ele>
        <time>2014-08-04T13:26:11Z</time>
      </trkpt>
      <trkpt lat="47.85946" lon="5.27024">
        <ele>414.9966</ele>
        <time>2014-08-04T13:26:12Z</time>
      </trkpt>
      <trkpt lat="47.85946" lon="5.27016">
        <ele>414.5681</ele>
        <time>2014-08-04T13:26:13Z</time>
      </trkpt>
      <trkpt lat="47.85944" lon="5.27009">
        <ele>418.1951</ele>
        <time>2014-08-04T13:26:14Z</time>
      </trkpt>
      <trkpt lat="47.85942" lon="5.26995">
        <ele>422.3263</ele>
        <time>2014-08-04T13:26:16Z</time>
      </trkpt>
      <trkpt lat="47.8594" lon="5.26988">
        <ele>424.1064</ele>
        <time>2014-08-04T13:26:17Z</time>
      </trkpt>
      <trkpt lat="47.85938" lon="5.26981">
        <ele>424.4965</ele>
        <time>2014-08-04T13:26:18Z</time>
      </trkpt>
      <trkpt lat="47.85935" lon="5.26974">
        <ele>424.9532</ele>
        <time>2014-08-04T13:26:19Z</time>
      </trkpt>
      <trkpt lat="47.85932" lon="5.26961">
        <ele>424.6462</ele>
        <time>2014-08-04T13:26:21Z</time>
      </trkpt>
      <trkpt lat="47.85928" lon="5.26946">
        <ele>426.4466</ele>
        <time>2014-08-04T13:26:23Z</time>
      </trkpt>
      <trkpt lat="47.85926" lon="5.26937">
        <ele>425.4667</ele>
        <time>2014-08-04T13:26:24Z</time>
      </trkpt>
      <trkpt lat="47.85925" lon="5.26929">
        <ele>425.7292</ele>
        <time>2014-08-04T13:26:25Z</time>
      </trkpt>
      <trkpt lat="47.85925" lon="5.26921">
        <ele>425.4012</ele>
        <time>2014-08-04T13:26:26Z</time>
      </trkpt>
      <trkpt lat="47.85923" lon="5.26911">
        <ele>425.3525</ele>
        <time>2014-08-04T13:26:27Z</time>
      </trkpt>
      <trkpt lat="47.85922" lon="5.26902">
        <ele>425.3687</ele>
        <time>2014-08-04T13:26:28Z</time>
      </trkpt>
      <trkpt lat="47.8592" lon="5.26893">
        <ele>423.2184</ele>
        <time>2014-08-04T13:26:29Z</time>
      </trkpt>
      <trkpt lat="47.85918" lon="5.26885">
        <ele>420.9303</ele>
        <time>2014-08-04T13:26:30Z</time>
      </trkpt>
      <trkpt lat="47.85915" lon="5.26877">
        <ele>420.2875</ele>
        <time>2014-08-04T13:26:31Z</time>
      </trkpt>
      <trkpt lat="47.85911" lon="5.2687">
        <ele>419.0086</ele>
        <time>2014-08-04T13:26:32Z</time>
      </trkpt>
      <trkpt lat="47.85908" lon="5.26862">
        <ele>418.0736</ele>
        <time>2014-08-04T13:26:33Z</time>
      </trkpt>
      <trkpt lat="47.85905" lon="5.26854">
        <ele>418.2488</ele>
        <time>2014-08-04T13:26:34Z</time>
      </trkpt>
      <trkpt lat="47.85902" lon="5.26846">
        <ele>418.7969</ele>
        <time>2014-08-04T13:26:35Z</time>
      </trkpt>
      <trkpt lat="47.85898" lon="5.26837">
        <ele>421.8557</ele>
        <time>2014-08-04T13:26:36Z</time>
      </trkpt>
      <trkpt lat="47.85896" lon="5.2683">
        <ele>423.2697</ele>
        <time>2014-08-04T13:26:37Z</time>
      </trkpt>
      <trkpt lat="47.85893" lon="5.26822">
        <ele>419.0483</ele>
        <time>2014-08-04T13:26:38Z</time>
      </trkpt>
      <trkpt lat="47.85889" lon="5.26814">
        <ele>417.9767</ele>
        <time>2014-08-04T13:26:39Z</time>
      </trkpt>
      <trkpt lat="47.85886" lon="5.26805">
        <ele>419.9835</ele>
        <time>2014-08-04T13:26:40Z</time>
      </trkpt>
      <trkpt lat="47.85882" lon="5.26797">
        <ele>419.9306</ele>
        <time>2014-08-04T13:26:41Z</time>
      </trkpt>
      <trkpt lat="47.85878" lon="5.26788">
        <ele>420.3805</ele>
        <time>2014-08-04T13:26:42Z</time>
      </trkpt>
      <trkpt lat="47.85874" lon="5.2678">
        <ele>416.9591</ele>
        <time>2014-08-04T13:26:43Z</time>
      </trkpt>
      <trkpt lat="47.8587" lon="5.26771">
        <ele>416.3976</ele>
        <time>2014-08-04T13:26:44Z</time>
      </trkpt>
      <trkpt lat="47.85866" lon="5.26762">
        <ele>415.0485</ele>
        <time>2014-08-04T13:26:45Z</time>
      </trkpt>
      <trkpt lat="47.85863" lon="5.26755">
        <ele>412.8441</ele>
        <time>2014-08-04T13:26:46Z</time>
      </trkpt>
      <trkpt lat="47.85859" lon="5.26747">
        <ele>408.0076</ele>
        <time>2014-08-04T13:26:47Z</time>
      </trkpt>
      <trkpt lat="47.85856" lon="5.26738">
        <ele>405.4315</ele>
        <time>2014-08-04T13:26:48Z</time>
      </trkpt>
      <trkpt lat="47.85853" lon="5.26731">
        <ele>404.7561</ele>
        <time>2014-08-04T13:26:49Z</time>
      </trkpt>
      <trkpt lat="47.85848" lon="5.26717">
        <ele>405.1392</ele>
        <time>2014-08-04T13:26:51Z</time>
      </trkpt>
      <trkpt lat="47.85845" lon="5.26708">
        <ele>402.9283</ele>
        <time>2014-08-04T13:26:52Z</time>
      </trkpt>
      <trkpt lat="47.85842" lon="5.26701">
        <ele>399.5107</ele>
        <time>2014-08-04T13:26:53Z</time>
      </trkpt>
      <trkpt lat="47.85839" lon="5.26693">
        <ele>398.4454</ele>
        <time>2014-08-04T13:26:54Z</time>
      </trkpt>
      <trkpt lat="47.85835" lon="5.26687">
        <ele>396.3955</ele>
        <time>2014-08-04T13:26:55Z</time>
      </trkpt>
      <trkpt lat="47.85833" lon="5.26681">
        <ele>395.8816</ele>
        <time>2014-08-04T13:26:56Z</time>
      </trkpt>
      <trkpt lat="47.85831" lon="5.26675">
        <ele>394.8471</ele>
        <time>2014-08-04T13:26:57Z</time>
      </trkpt>
      <trkpt lat="47.85828" lon="5.26669">
        <ele>393.9707</ele>
        <time>2014-08-04T13:26:58Z</time>
      </trkpt>
      <trkpt lat="47.85824" lon="5.26658">
        <ele>392.3949</ele>
        <time>2014-08-04T13:27:00Z</time>
      </trkpt>
      <trkpt lat="47.85821" lon="5.26652">
        <ele>391.7206</ele>
        <time>2014-08-04T13:27:02Z</time>
      </trkpt>
      <trkpt lat="47.85817" lon="5.26646">
        <ele>394.5684</ele>
        <time>2014-08-04T13:27:05Z</time>
      </trkpt>
      <trkpt lat="47.85814" lon="5.26642">
        <ele>387.5302</ele>
        <time>2014-08-04T13:27:15Z</time>
      </trkpt>
      <trkpt lat="47.8581" lon="5.26637">
        <ele>390.1741</ele>
        <time>2014-08-04T13:27:19Z</time>
      </trkpt>
      <trkpt lat="47.85807" lon="5.26632">
        <ele>388.2421</ele>
        <time>2014-08-04T13:27:24Z</time>
      </trkpt>
      <trkpt lat="47.85803" lon="5.26627">
        <ele>389.6859</ele>
        <time>2014-08-04T13:27:28Z</time>
      </trkpt>
      <trkpt lat="47.85798" lon="5.26622">
        <ele>396.518</ele>
        <time>2014-08-04T13:27:32Z</time>
      </trkpt>
      <trkpt lat="47.85794" lon="5.26617">
        <ele>400.632</ele>
        <time>2014-08-04T13:27:37Z</time>
      </trkpt>
      <trkpt lat="47.8579" lon="5.26612">
        <ele>400.6311</ele>
        <time>2014-08-04T13:27:43Z</time>
      </trkpt>
      <trkpt lat="47.85785" lon="5.26609">
        <ele>395.7056</ele>
        <time>2014-08-04T13:27:50Z</time>
      </trkpt>
      <trkpt lat="47.85783" lon="5.26603">
        <ele>396.0526</ele>
        <time>2014-08-04T13:27:56Z</time>
      </trkpt>
      <trkpt lat="47.85779" lon="5.26599">
        <ele>391.7066</ele>
        <time>2014-08-04T13:28:02Z</time>
      </trkpt>
      <trkpt lat="47.85774" lon="5.26597">
        <ele>383.9449</ele>
        <time>2014-08-04T13:28:07Z</time>
      </trkpt>
      <trkpt lat="47.8577" lon="5.2659">
        <ele>385.6473</ele>
        <time>2014-08-04T13:28:13Z</time>
      </trkpt>
      <trkpt lat="47.85767" lon="5.26585">
        <ele>383.9248</ele>
        <time>2014-08-04T13:28:17Z</time>
      </trkpt>
      <trkpt lat="47.85761" lon="5.26582">
        <ele>391.5232</ele>
        <time>2014-08-04T13:28:26Z</time>
      </trkpt>
      <trkpt lat="47.85756" lon="5.26578">
        <ele>387.1629</ele>
        <time>2014-08-04T13:28:29Z</time>
      </trkpt>
      <trkpt lat="47.85752" lon="5.26572">
        <ele>388.5544</ele>
        <time>2014-08-04T13:28:32Z</time>
      </trkpt>
      <trkpt lat="47.85749" lon="5.26566">
        <ele>388.4914</ele>
        <time>2014-08-04T13:28:34Z</time>
      </trkpt>
      <trkpt lat="47.85745" lon="5.26561">
        <ele>388.0676</ele>
        <time>2014-08-04T13:28:36Z</time>
      </trkpt>
      <trkpt lat="47.85739" lon="5.26554">
        <ele>385.3646</ele>
        <time>2014-08-04T13:28:38Z</time>
      </trkpt>
      <trkpt lat="47.85736" lon="5.2655">
        <ele>385.1047</ele>
        <time>2014-08-04T13:28:39Z</time>
      </trkpt>
      <trkpt lat="47.85732" lon="5.26545">
        <ele>384.9026</ele>
        <time>2014-08-04T13:28:40Z</time>
      </trkpt>
      <trkpt lat="47.85725" lon="5.26538">
        <ele>383.5697</ele>
        <time>2014-08-04T13:28:42Z</time>
      </trkpt>
      <trkpt lat="47.85718" lon="5.26533">
        <ele>382.9114</ele>
        <time>2014-08-04T13:28:44Z</time>
      </trkpt>
      <trkpt lat="47.85714" lon="5.26531">
        <ele>383.5372</ele>
        <time>2014-08-04T13:28:45Z</time>
      </trkpt>
      <trkpt lat="47.85705" lon="5.26528">
        <ele>383.5316</ele>
        <time>2014-08-04T13:28:47Z</time>
      </trkpt>
      <trkpt lat="47.85701" lon="5.26527">
        <ele>383.7942</ele>
        <time>2014-08-04T13:28:48Z</time>
      </trkpt>
      <trkpt lat="47.85696" lon="5.26526">
        <ele>383.7834</ele>
        <time>2014-08-04T13:28:49Z</time>
      </trkpt>
      <trkpt lat="47.85688" lon="5.26527">
        <ele>382.7097</ele>
        <time>2014-08-04T13:28:51Z</time>
      </trkpt>
      <trkpt lat="47.8568" lon="5.26526">
        <ele>383.1861</ele>
        <time>2014-08-04T13:28:53Z</time>
      </trkpt>
      <trkpt lat="47.85672" lon="5.26526">
        <ele>385.9283</ele>
        <time>2014-08-04T13:28:55Z</time>
      </trkpt>
      <trkpt lat="47.85664" lon="5.26525">
        <ele>386.0972</ele>
        <time>2014-08-04T13:28:57Z</time>
      </trkpt>
      <trkpt lat="47.85657" lon="5.26527">
        <ele>385.3093</ele>
        <time>2014-08-04T13:28:59Z</time>
      </trkpt>
      <trkpt lat="47.85651" lon="5.26526">
        <ele>386.7719</ele>
        <time>2014-08-04T13:29:01Z</time>
      </trkpt>
      <trkpt lat="47.85645" lon="5.26525">
        <ele>387.0123</ele>
        <time>2014-08-04T13:29:04Z</time>
      </trkpt>
      <trkpt lat="47.8564" lon="5.26522">
        <ele>387.8777</ele>
        <time>2014-08-04T13:29:06Z</time>
      </trkpt>
      <trkpt lat="47.85636" lon="5.26517">
        <ele>386.9214</ele>
        <time>2014-08-04T13:29:08Z</time>
      </trkpt>
      <trkpt lat="47.85631" lon="5.26512">
        <ele>380.0245</ele>
        <time>2014-08-04T13:29:15Z</time>
      </trkpt>
      <trkpt lat="47.85627" lon="5.26507">
        <ele>375.6547</ele>
        <time>2014-08-04T13:29:17Z</time>
      </trkpt>
      <trkpt lat="47.85622" lon="5.26501">
        <ele>375.1516</ele>
        <time>2014-08-04T13:29:19Z</time>
      </trkpt>
      <trkpt lat="47.85621" lon="5.26492">
        <ele>378.44</ele>
        <time>2014-08-04T13:29:23Z</time>
      </trkpt>
      <trkpt lat="47.85622" lon="5.26485">
        <ele>375.7226</ele>
        <time>2014-08-04T13:29:25Z</time>
      </trkpt>
      <trkpt lat="47.85626" lon="5.2648">
        <ele>385.5533</ele>
        <time>2014-08-04T13:29:49Z</time>
      </trkpt>
      <trkpt lat="47.85631" lon="5.26476">
        <ele>379.5053</ele>
        <time>2014-08-04T13:29:52Z</time>
      </trkpt>
      <trkpt lat="47.85637" lon="5.26473">
        <ele>377.2352</ele>
        <time>2014-08-04T13:29:55Z</time>
      </trkpt>
      <trkpt lat="47.85642" lon="5.26468">
        <ele>374.495</ele>
        <time>2014-08-04T13:29:58Z</time>
      </trkpt>
      <trkpt lat="47.85645" lon="5.26463">
        <ele>371.6272</ele>
        <time>2014-08-04T13:30:01Z</time>
      </trkpt>
      <trkpt lat="47.8565" lon="5.26458">
        <ele>372.5792</ele>
        <time>2014-08-04T13:30:05Z</time>
      </trkpt>
      <trkpt lat="47.85653" lon="5.26452">
        <ele>374.9008</ele>
        <time>2014-08-04T13:30:08Z</time>
      </trkpt>
      <trkpt lat="47.85656" lon="5.26445">
        <ele>371.8891</ele>
        <time>2014-08-04T13:30:10Z</time>
      </trkpt>
      <trkpt lat="47.85657" lon="5.26438">
        <ele>369.9713</ele>
        <time>2014-08-04T13:30:12Z</time>
      </trkpt>
      <trkpt lat="47.85659" lon="5.26431">
        <ele>368.1153</ele>
        <time>2014-08-04T13:30:14Z</time>
      </trkpt>
      <trkpt lat="47.8566" lon="5.26423">
        <ele>363.7625</ele>
        <time>2014-08-04T13:30:17Z</time>
      </trkpt>
      <trkpt lat="47.85661" lon="5.26414">
        <ele>363.2628</ele>
        <time>2014-08-04T13:30:20Z</time>
      </trkpt>
      <trkpt lat="47.85661" lon="5.26406">
        <ele>363.1675</ele>
        <time>2014-08-04T13:30:22Z</time>
      </trkpt>
      <trkpt lat="47.85658" lon="5.26398">
        <ele>364.0847</ele>
        <time>2014-08-04T13:30:24Z</time>
      </trkpt>
      <trkpt lat="47.85652" lon="5.26391">
        <ele>364.5904</ele>
        <time>2014-08-04T13:30:26Z</time>
      </trkpt>
      <trkpt lat="47.85646" lon="5.26383">
        <ele>363.4959</ele>
        <time>2014-08-04T13:30:28Z</time>
      </trkpt>
      <trkpt lat="47.85642" lon="5.2638">
        <ele>363.9325</ele>
        <time>2014-08-04T13:30:29Z</time>
      </trkpt>
      <trkpt lat="47.85637" lon="5.26377">
        <ele>364.2183</ele>
        <time>2014-08-04T13:30:30Z</time>
      </trkpt>
      <trkpt lat="47.85633" lon="5.26374">
        <ele>364.8157</ele>
        <time>2014-08-04T13:30:31Z</time>
      </trkpt>
      <trkpt lat="47.85627" lon="5.26372">
        <ele>366.9006</ele>
        <time>2014-08-04T13:30:32Z</time>
      </trkpt>
      <trkpt lat="47.85623" lon="5.2637">
        <ele>367.8004</ele>
        <time>2014-08-04T13:30:33Z</time>
      </trkpt>
      <trkpt lat="47.85618" lon="5.26369">
        <ele>369.2985</ele>
        <time>2014-08-04T13:30:34Z</time>
      </trkpt>
      <trkpt lat="47.85608" lon="5.26368">
        <ele>367.8806</ele>
        <time>2014-08-04T13:30:36Z</time>
      </trkpt>
      <trkpt lat="47.85603" lon="5.26367">
        <ele>367.438</ele>
        <time>2014-08-04T13:30:37Z</time>
      </trkpt>
      <trkpt lat="47.85599" lon="5.26365">
        <ele>366.1799</ele>
        <time>2014-08-04T13:30:38Z</time>
      </trkpt>
      <trkpt lat="47.85595" lon="5.26361">
        <ele>366.6677</ele>
        <time>2014-08-04T13:30:39Z</time>
      </trkpt>
      <trkpt lat="47.85588" lon="5.26354">
        <ele>364.8246</ele>
        <time>2014-08-04T13:30:41Z</time>
      </trkpt>
      <trkpt lat="47.85582" lon="5.26347">
        <ele>365.0107</ele>
        <time>2014-08-04T13:30:43Z</time>
      </trkpt>
      <trkpt lat="47.85578" lon="5.2634">
        <ele>363.4645</ele>
        <time>2014-08-04T13:30:45Z</time>
      </trkpt>
      <trkpt lat="47.85575" lon="5.26333">
        <ele>361.3947</ele>
        <time>2014-08-04T13:30:47Z</time>
      </trkpt>
      <trkpt lat="47.85575" lon="5.26324">
        <ele>360.8651</ele>
        <time>2014-08-04T13:30:49Z</time>
      </trkpt>
      <trkpt lat="47.85578" lon="5.26315">
        <ele>360.6064</ele>
        <time>2014-08-04T13:30:51Z</time>
      </trkpt>
      <trkpt lat="47.8558" lon="5.26306">
        <ele>360.6537</ele>
        <time>2014-08-04T13:30:53Z</time>
      </trkpt>
      <trkpt lat="47.85584" lon="5.26296">
        <ele>360.3136</ele>
        <time>2014-08-04T13:30:55Z</time>
      </trkpt>
      <trkpt lat="47.85586" lon="5.26285">
        <ele>360.0569</ele>
        <time>2014-08-04T13:30:57Z</time>
      </trkpt>
      <trkpt lat="47.85588" lon="5.26275">
        <ele>364.1245</ele>
        <time>2014-08-04T13:30:59Z</time>
      </trkpt>
      <trkpt lat="47.8559" lon="5.26264">
        <ele>362.6563</ele>
        <time>2014-08-04T13:31:01Z</time>
      </trkpt>
      <trkpt lat="47.85595" lon="5.26253">
        <ele>365.3467</ele>
        <time>2014-08-04T13:31:03Z</time>
      </trkpt>
      <trkpt lat="47.85599" lon="5.26243">
        <ele>365.9915</ele>
        <time>2014-08-04T13:31:05Z</time>
      </trkpt>
      <trkpt lat="47.85603" lon="5.26235">
        <ele>364.431</ele>
        <time>2014-08-04T13:31:07Z</time>
      </trkpt>
      <trkpt lat="47.85607" lon="5.26226">
        <ele>360.8211</ele>
        <time>2014-08-04T13:31:09Z</time>
      </trkpt>
      <trkpt lat="47.85611" lon="5.26218">
        <ele>363.4696</ele>
        <time>2014-08-04T13:31:11Z</time>
      </trkpt>
      <trkpt lat="47.85617" lon="5.26207">
        <ele>368.6993</ele>
        <time>2014-08-04T13:31:13Z</time>
      </trkpt>
      <trkpt lat="47.85622" lon="5.26196">
        <ele>369.0626</ele>
        <time>2014-08-04T13:31:15Z</time>
      </trkpt>
      <trkpt lat="47.85627" lon="5.26187">
        <ele>368.2621</ele>
        <time>2014-08-04T13:31:17Z</time>
      </trkpt>
      <trkpt lat="47.85633" lon="5.26179">
        <ele>364.8088</ele>
        <time>2014-08-04T13:31:19Z</time>
      </trkpt>
      <trkpt lat="47.85639" lon="5.26171">
        <ele>365.1212</ele>
        <time>2014-08-04T13:31:21Z</time>
      </trkpt>
      <trkpt lat="47.85643" lon="5.26166">
        <ele>365.7709</ele>
        <time>2014-08-04T13:31:22Z</time>
      </trkpt>
      <trkpt lat="47.85647" lon="5.26162">
        <ele>362.6733</ele>
        <time>2014-08-04T13:31:23Z</time>
      </trkpt>
      <trkpt lat="47.85651" lon="5.26158">
        <ele>364.1678</ele>
        <time>2014-08-04T13:31:24Z</time>
      </trkpt>
      <trkpt lat="47.85655" lon="5.26155">
        <ele>365.7192</ele>
        <time>2014-08-04T13:31:25Z</time>
      </trkpt>
      <trkpt lat="47.85663" lon="5.26152">
        <ele>366.4367</ele>
        <time>2014-08-04T13:31:27Z</time>
      </trkpt>
      <trkpt lat="47.85671" lon="5.26155">
        <ele>366.9268</ele>
        <time>2014-08-04T13:31:29Z</time>
      </trkpt>
      <trkpt lat="47.85674" lon="5.26159">
        <ele>364.8622</ele>
        <time>2014-08-04T13:31:30Z</time>
      </trkpt>
      <trkpt lat="47.85678" lon="5.26164">
        <ele>364.5146</ele>
        <time>2014-08-04T13:31:31Z</time>
      </trkpt>
      <trkpt lat="47.85682" lon="5.26168">
        <ele>363.8035</ele>
        <time>2014-08-04T13:31:32Z</time>
      </trkpt>
      <trkpt lat="47.85686" lon="5.26173">
        <ele>364.5999</ele>
        <time>2014-08-04T13:31:33Z</time>
      </trkpt>
      <trkpt lat="47.8569" lon="5.26177">
        <ele>364.5079</ele>
        <time>2014-08-04T13:31:34Z</time>
      </trkpt>
      <trkpt lat="47.85694" lon="5.2618">
        <ele>364.8274</ele>
        <time>2014-08-04T13:31:35Z</time>
      </trkpt>
      <trkpt lat="47.85698" lon="5.26183">
        <ele>363.7249</ele>
        <time>2014-08-04T13:31:36Z</time>
      </trkpt>
      <trkpt lat="47.85703" lon="5.26187">
        <ele>363.9725</ele>
        <time>2014-08-04T13:31:37Z</time>
      </trkpt>
      <trkpt lat="47.85707" lon="5.26191">
        <ele>363.4559</ele>
        <time>2014-08-04T13:31:38Z</time>
      </trkpt>
      <trkpt lat="47.85711" lon="5.26195">
        <ele>364.4891</ele>
        <time>2014-08-04T13:31:39Z</time>
      </trkpt>
      <trkpt lat="47.85716" lon="5.26199">
        <ele>365.8812</ele>
        <time>2014-08-04T13:31:40Z</time>
      </trkpt>
      <trkpt lat="47.8572" lon="5.26203">
        <ele>366.9695</ele>
        <time>2014-08-04T13:31:41Z</time>
      </trkpt>
      <trkpt lat="47.85724" lon="5.26207">
        <ele>367.5769</ele>
        <time>2014-08-04T13:31:42Z</time>
      </trkpt>
      <trkpt lat="47.85729" lon="5.26211">
        <ele>368.0684</ele>
        <time>2014-08-04T13:31:43Z</time>
      </trkpt>
      <trkpt lat="47.85733" lon="5.26215">
        <ele>367.9367</ele>
        <time>2014-08-04T13:31:44Z</time>
      </trkpt>
      <trkpt lat="47.85738" lon="5.26219">
        <ele>366.3717</ele>
        <time>2014-08-04T13:31:45Z</time>
      </trkpt>
      <trkpt lat="47.85742" lon="5.26223">
        <ele>366.4695</ele>
        <time>2014-08-04T13:31:46Z</time>
      </trkpt>
      <trkpt lat="47.85747" lon="5.26226">
        <ele>365.4204</ele>
        <time>2014-08-04T13:31:47Z</time>
      </trkpt>
      <trkpt lat="47.85751" lon="5.2623">
        <ele>365.2881</ele>
        <time>2014-08-04T13:31:48Z</time>
      </trkpt>
      <trkpt lat="47.85756" lon="5.26234">
        <ele>365.3377</ele>
        <time>2014-08-04T13:31:49Z</time>
      </trkpt>
      <trkpt lat="47.85761" lon="5.26237">
        <ele>363.2558</ele>
        <time>2014-08-04T13:31:50Z</time>
      </trkpt>
      <trkpt lat="47.85766" lon="5.26241">
        <ele>361.2767</ele>
        <time>2014-08-04T13:31:51Z</time>
      </trkpt>
      <trkpt lat="47.85771" lon="5.26244">
        <ele>360.1045</ele>
        <time>2014-08-04T13:31:52Z</time>
      </trkpt>
      <trkpt lat="47.85776" lon="5.26248">
        <ele>360.5067</ele>
        <time>2014-08-04T13:31:53Z</time>
      </trkpt>
      <trkpt lat="47.85781" lon="5.26251">
        <ele>360.3352</ele>
        <time>2014-08-04T13:31:54Z</time>
      </trkpt>
      <trkpt lat="47.85786" lon="5.26253">
        <ele>362.5074</ele>
        <time>2014-08-04T13:31:55Z</time>
      </trkpt>
      <trkpt lat="47.85791" lon="5.26255">
        <ele>363.7623</ele>
        <time>2014-08-04T13:31:56Z</time>
      </trkpt>
      <trkpt lat="47.85796" lon="5.26258">
        <ele>364.1378</ele>
        <time>2014-08-04T13:31:57Z</time>
      </trkpt>
      <trkpt lat="47.85802" lon="5.2626">
        <ele>367.1329</ele>
        <time>2014-08-04T13:31:58Z</time>
      </trkpt>
      <trkpt lat="47.85807" lon="5.26261">
        <ele>365.9874</ele>
        <time>2014-08-04T13:31:59Z</time>
      </trkpt>
      <trkpt lat="47.85812" lon="5.26262">
        <ele>366.4956</ele>
        <time>2014-08-04T13:32:00Z</time>
      </trkpt>
      <trkpt lat="47.85818" lon="5.26263">
        <ele>363.7855</ele>
        <time>2014-08-04T13:32:01Z</time>
      </trkpt>
      <trkpt lat="47.85823" lon="5.26264">
        <ele>365.2834</ele>
        <time>2014-08-04T13:32:02Z</time>
      </trkpt>
      <trkpt lat="47.85829" lon="5.26266">
        <ele>362.899</ele>
        <time>2014-08-04T13:32:03Z</time>
      </trkpt>
      <trkpt lat="47.85835" lon="5.26267">
        <ele>361.4188</ele>
        <time>2014-08-04T13:32:04Z</time>
      </trkpt>
      <trkpt lat="47.8584" lon="5.26268">
        <ele>361.9255</ele>
        <time>2014-08-04T13:32:05Z</time>
      </trkpt>
      <trkpt lat="47.85844" lon="5.26268">
        <ele>363.074</ele>
        <time>2014-08-04T13:32:06Z</time>
      </trkpt>
      <trkpt lat="47.8585" lon="5.26269">
        <ele>362.0052</ele>
        <time>2014-08-04T13:32:07Z</time>
      </trkpt>
      <trkpt lat="47.85856" lon="5.2627">
        <ele>360.9454</ele>
        <time>2014-08-04T13:32:08Z</time>
      </trkpt>
      <trkpt lat="47.85862" lon="5.26272">
        <ele>360.428</ele>
        <time>2014-08-04T13:32:09Z</time>
      </trkpt>
      <trkpt lat="47.85868" lon="5.26273">
        <ele>359.7432</ele>
        <time>2014-08-04T13:32:10Z</time>
      </trkpt>
      <trkpt lat="47.85873" lon="5.26274">
        <ele>358.6605</ele>
        <time>2014-08-04T13:32:11Z</time>
      </trkpt>
      <trkpt lat="47.8588" lon="5.26275">
        <ele>359.074</ele>
        <time>2014-08-04T13:32:12Z</time>
      </trkpt>
      <trkpt lat="47.85885" lon="5.26276">
        <ele>359.9502</ele>
        <time>2014-08-04T13:32:13Z</time>
      </trkpt>
      <trkpt lat="47.8589" lon="5.26277">
        <ele>359.99</ele>
        <time>2014-08-04T13:32:14Z</time>
      </trkpt>
      <trkpt lat="47.85896" lon="5.26278">
        <ele>359.0536</ele>
        <time>2014-08-04T13:32:15Z</time>
      </trkpt>
      <trkpt lat="47.85901" lon="5.26279">
        <ele>357.9435</ele>
        <time>2014-08-04T13:32:16Z</time>
      </trkpt>
      <trkpt lat="47.85906" lon="5.26281">
        <ele>357.9786</ele>
        <time>2014-08-04T13:32:17Z</time>
      </trkpt>
      <trkpt lat="47.85915" lon="5.26285">
        <ele>356.7001</ele>
        <time>2014-08-04T13:32:19Z</time>
      </trkpt>
      <trkpt lat="47.8592" lon="5.2629">
        <ele>358.6355</ele>
        <time>2014-08-04T13:32:20Z</time>
      </trkpt>
      <trkpt lat="47.85924" lon="5.26296">
        <ele>359.2713</ele>
        <time>2014-08-04T13:32:21Z</time>
      </trkpt>
      <trkpt lat="47.85927" lon="5.26303">
        <ele>360.5096</ele>
        <time>2014-08-04T13:32:22Z</time>
      </trkpt>
      <trkpt lat="47.85928" lon="5.26312">
        <ele>359.7286</ele>
        <time>2014-08-04T13:32:23Z</time>
      </trkpt>
      <trkpt lat="47.85929" lon="5.2632">
        <ele>361.6271</ele>
        <time>2014-08-04T13:32:24Z</time>
      </trkpt>
      <trkpt lat="47.85929" lon="5.26327">
        <ele>360.1491</ele>
        <time>2014-08-04T13:32:25Z</time>
      </trkpt>
      <trkpt lat="47.85929" lon="5.26334">
        <ele>359.0553</ele>
        <time>2014-08-04T13:32:26Z</time>
      </trkpt>
      <trkpt lat="47.85928" lon="5.26348">
        <ele>364.4229</ele>
        <time>2014-08-04T13:32:28Z</time>
      </trkpt>
      <trkpt lat="47.85928" lon="5.26356">
        <ele>363.9535</ele>
        <time>2014-08-04T13:32:29Z</time>
      </trkpt>
      <trkpt lat="47.85927" lon="5.26364">
        <ele>363.321</ele>
        <time>2014-08-04T13:32:30Z</time>
      </trkpt>
      <trkpt lat="47.85926" lon="5.26372">
        <ele>363.462</ele>
        <time>2014-08-04T13:32:31Z</time>
      </trkpt>
      <trkpt lat="47.85926" lon="5.2638">
        <ele>364.1895</ele>
        <time>2014-08-04T13:32:32Z</time>
      </trkpt>
      <trkpt lat="47.85925" lon="5.26389">
        <ele>365.3445</ele>
        <time>2014-08-04T13:32:33Z</time>
      </trkpt>
      <trkpt lat="47.85924" lon="5.26397">
        <ele>367.5996</ele>
        <time>2014-08-04T13:32:34Z</time>
      </trkpt>
      <trkpt lat="47.85923" lon="5.26404">
        <ele>368.876</ele>
        <time>2014-08-04T13:32:35Z</time>
      </trkpt>
      <trkpt lat="47.85923" lon="5.26412">
        <ele>369.036</ele>
        <time>2014-08-04T13:32:36Z</time>
      </trkpt>
      <trkpt lat="47.85923" lon="5.2642">
        <ele>369.0334</ele>
        <time>2014-08-04T13:32:37Z</time>
      </trkpt>
      <trkpt lat="47.85922" lon="5.26429">
        <ele>369.1963</ele>
        <time>2014-08-04T13:32:38Z</time>
      </trkpt>
      <trkpt lat="47.85924" lon="5.26443">
        <ele>362.7161</ele>
        <time>2014-08-04T13:32:40Z</time>
      </trkpt>
      <trkpt lat="47.85925" lon="5.2645">
        <ele>362.4968</ele>
        <time>2014-08-04T13:32:41Z</time>
      </trkpt>
      <trkpt lat="47.85927" lon="5.26457">
        <ele>361.3715</ele>
        <time>2014-08-04T13:32:42Z</time>
      </trkpt>
      <trkpt lat="47.8593" lon="5.26463">
        <ele>362.8245</ele>
        <time>2014-08-04T13:32:43Z</time>
      </trkpt>
      <trkpt lat="47.85934" lon="5.26474">
        <ele>362.2527</ele>
        <time>2014-08-04T13:32:45Z</time>
      </trkpt>
      <trkpt lat="47.85938" lon="5.26485">
        <ele>361.7356</ele>
        <time>2014-08-04T13:32:47Z</time>
      </trkpt>
      <trkpt lat="47.85942" lon="5.26494">
        <ele>362.2235</ele>
        <time>2014-08-04T13:32:49Z</time>
      </trkpt>
      <trkpt lat="47.85946" lon="5.26503">
        <ele>368.8002</ele>
        <time>2014-08-04T13:32:51Z</time>
      </trkpt>
      <trkpt lat="47.8595" lon="5.26514">
        <ele>367.431</ele>
        <time>2014-08-04T13:32:53Z</time>
      </trkpt>
      <trkpt lat="47.85953" lon="5.26525">
        <ele>368.5017</ele>
        <time>2014-08-04T13:32:55Z</time>
      </trkpt>
      <trkpt lat="47.85957" lon="5.26534">
        <ele>368.4205</ele>
        <time>2014-08-04T13:32:57Z</time>
      </trkpt>
      <trkpt lat="47.85962" lon="5.26543">
        <ele>369.344</ele>
        <time>2014-08-04T13:32:59Z</time>
      </trkpt>
      <trkpt lat="47.85965" lon="5.26551">
        <ele>370.6042</ele>
        <time>2014-08-04T13:33:01Z</time>
      </trkpt>
      <trkpt lat="47.85969" lon="5.26558">
        <ele>369.8225</ele>
        <time>2014-08-04T13:33:03Z</time>
      </trkpt>
      <trkpt lat="47.85972" lon="5.26566">
        <ele>367.9445</ele>
        <time>2014-08-04T13:33:05Z</time>
      </trkpt>
      <trkpt lat="47.85975" lon="5.26574">
        <ele>367.4401</ele>
        <time>2014-08-04T13:33:07Z</time>
      </trkpt>
      <trkpt lat="47.85978" lon="5.26582">
        <ele>368.1703</ele>
        <time>2014-08-04T13:33:09Z</time>
      </trkpt>
      <trkpt lat="47.85982" lon="5.2659">
        <ele>371.7782</ele>
        <time>2014-08-04T13:33:11Z</time>
      </trkpt>
      <trkpt lat="47.85986" lon="5.26596">
        <ele>372.2147</ele>
        <time>2014-08-04T13:33:13Z</time>
      </trkpt>
      <trkpt lat="47.85989" lon="5.26604">
        <ele>375.1673</ele>
        <time>2014-08-04T13:33:15Z</time>
      </trkpt>
      <trkpt lat="47.85992" lon="5.26613">
        <ele>373.533</ele>
        <time>2014-08-04T13:33:17Z</time>
      </trkpt>
      <trkpt lat="47.85996" lon="5.2662">
        <ele>374.5963</ele>
        <time>2014-08-04T13:33:19Z</time>
      </trkpt>
      <trkpt lat="47.85999" lon="5.26626">
        <ele>376.769</ele>
        <time>2014-08-04T13:33:21Z</time>
      </trkpt>
      <trkpt lat="47.86003" lon="5.26634">
        <ele>375.1194</ele>
        <time>2014-08-04T13:33:23Z</time>
      </trkpt>
      <trkpt lat="47.86007" lon="5.26641">
        <ele>371.7403</ele>
        <time>2014-08-04T13:33:25Z</time>
      </trkpt>
      <trkpt lat="47.8601" lon="5.26647">
        <ele>375.5865</ele>
        <time>2014-08-04T13:33:27Z</time>
      </trkpt>
      <trkpt lat="47.86014" lon="5.26654">
        <ele>374.104</ele>
        <time>2014-08-04T13:33:29Z</time>
      </trkpt>
      <trkpt lat="47.86018" lon="5.26662">
        <ele>373.6673</ele>
        <time>2014-08-04T13:33:31Z</time>
      </trkpt>
      <trkpt lat="47.86022" lon="5.26668">
        <ele>372.1423</ele>
        <time>2014-08-04T13:33:33Z</time>
      </trkpt>
      <trkpt lat="47.86026" lon="5.26675">
        <ele>372.6554</ele>
        <time>2014-08-04T13:33:35Z</time>
      </trkpt>
      <trkpt lat="47.86031" lon="5.26681">
        <ele>370.6523</ele>
        <time>2014-08-04T13:33:37Z</time>
      </trkpt>
      <trkpt lat="47.86036" lon="5.26687">
        <ele>369.3082</ele>
        <time>2014-08-04T13:33:39Z</time>
      </trkpt>
      <trkpt lat="47.86042" lon="5.26693">
        <ele>370.734</ele>
        <time>2014-08-04T13:33:41Z</time>
      </trkpt>
      <trkpt lat="47.86047" lon="5.26698">
        <ele>372.0541</ele>
        <time>2014-08-04T13:33:43Z</time>
      </trkpt>
      <trkpt lat="47.86053" lon="5.26704">
        <ele>370.9102</ele>
        <time>2014-08-04T13:33:45Z</time>
      </trkpt>
      <trkpt lat="47.86058" lon="5.26709">
        <ele>372.1528</ele>
        <time>2014-08-04T13:33:47Z</time>
      </trkpt>
      <trkpt lat="47.86063" lon="5.26715">
        <ele>370.3326</ele>
        <time>2014-08-04T13:33:49Z</time>
      </trkpt>
      <trkpt lat="47.86068" lon="5.26721">
        <ele>368.2776</ele>
        <time>2014-08-04T13:33:51Z</time>
      </trkpt>
      <trkpt lat="47.86074" lon="5.26727">
        <ele>369.2589</ele>
        <time>2014-08-04T13:33:53Z</time>
      </trkpt>
      <trkpt lat="47.86078" lon="5.26733">
        <ele>369.4876</ele>
        <time>2014-08-04T13:33:55Z</time>
      </trkpt>
      <trkpt lat="47.86081" lon="5.26739">
        <ele>371.9207</ele>
        <time>2014-08-04T13:33:57Z</time>
      </trkpt>
      <trkpt lat="47.86086" lon="5.26746">
        <ele>373.8795</ele>
        <time>2014-08-04T13:33:59Z</time>
      </trkpt>
      <trkpt lat="47.86091" lon="5.26753">
        <ele>373.9933</ele>
        <time>2014-08-04T13:34:01Z</time>
      </trkpt>
      <trkpt lat="47.86095" lon="5.2676">
        <ele>374.6574</ele>
        <time>2014-08-04T13:34:03Z</time>
      </trkpt>
      <trkpt lat="47.86099" lon="5.26767">
        <ele>373.8086</ele>
        <time>2014-08-04T13:34:05Z</time>
      </trkpt>
      <trkpt lat="47.86103" lon="5.26774">
        <ele>373.6384</ele>
        <time>2014-08-04T13:34:07Z</time>
      </trkpt>
      <trkpt lat="47.86106" lon="5.26781">
        <ele>374.2113</ele>
        <time>2014-08-04T13:34:09Z</time>
      </trkpt>
      <trkpt lat="47.86109" lon="5.26788">
        <ele>376.3575</ele>
        <time>2014-08-04T13:34:11Z</time>
      </trkpt>
      <trkpt lat="47.86112" lon="5.26794">
        <ele>374.6406</ele>
        <time>2014-08-04T13:34:13Z</time>
      </trkpt>
      <trkpt lat="47.86117" lon="5.26801">
        <ele>374.4158</ele>
        <time>2014-08-04T13:34:16Z</time>
      </trkpt>
      <trkpt lat="47.8612" lon="5.26806">
        <ele>377.6279</ele>
        <time>2014-08-04T13:34:18Z</time>
      </trkpt>
      <trkpt lat="47.86123" lon="5.26814">
        <ele>377.2103</ele>
        <time>2014-08-04T13:34:21Z</time>
      </trkpt>
      <trkpt lat="47.86126" lon="5.26822">
        <ele>374.5112</ele>
        <time>2014-08-04T13:34:24Z</time>
      </trkpt>
      <trkpt lat="47.86129" lon="5.26827">
        <ele>372.4052</ele>
        <time>2014-08-04T13:34:26Z</time>
      </trkpt>
      <trkpt lat="47.86132" lon="5.26833">
        <ele>373.0936</ele>
        <time>2014-08-04T13:34:28Z</time>
      </trkpt>
      <trkpt lat="47.86135" lon="5.2684">
        <ele>374.2461</ele>
        <time>2014-08-04T13:34:31Z</time>
      </trkpt>
      <trkpt lat="47.86138" lon="5.26847">
        <ele>378.6425</ele>
        <time>2014-08-04T13:34:34Z</time>
      </trkpt>
      <trkpt lat="47.86141" lon="5.26855">
        <ele>380.1333</ele>
        <time>2014-08-04T13:34:37Z</time>
      </trkpt>
      <trkpt lat="47.86145" lon="5.26862">
        <ele>383.0985</ele>
        <time>2014-08-04T13:34:40Z</time>
      </trkpt>
      <trkpt lat="47.8615" lon="5.26869">
        <ele>377.6267</ele>
        <time>2014-08-04T13:34:43Z</time>
      </trkpt>
      <trkpt lat="47.86153" lon="5.26874">
        <ele>378.294</ele>
        <time>2014-08-04T13:34:45Z</time>
      </trkpt>
      <trkpt lat="47.86158" lon="5.26881">
        <ele>379.058</ele>
        <time>2014-08-04T13:34:48Z</time>
      </trkpt>
      <trkpt lat="47.86161" lon="5.26887">
        <ele>377.9649</ele>
        <time>2014-08-04T13:34:50Z</time>
      </trkpt>
      <trkpt lat="47.86164" lon="5.26894">
        <ele>380.5702</ele>
        <time>2014-08-04T13:34:53Z</time>
      </trkpt>
      <trkpt lat="47.86168" lon="5.26901">
        <ele>380.8146</ele>
        <time>2014-08-04T13:34:56Z</time>
      </trkpt>
      <trkpt lat="47.86171" lon="5.26906">
        <ele>380.7394</ele>
        <time>2014-08-04T13:34:58Z</time>
      </trkpt>
      <trkpt lat="47.86176" lon="5.26913">
        <ele>384.6811</ele>
        <time>2014-08-04T13:35:01Z</time>
      </trkpt>
      <trkpt lat="47.86179" lon="5.26918">
        <ele>384.8417</ele>
        <time>2014-08-04T13:35:03Z</time>
      </trkpt>
      <trkpt lat="47.86183" lon="5.26924">
        <ele>382.6107</ele>
        <time>2014-08-04T13:35:06Z</time>
      </trkpt>
      <trkpt lat="47.86187" lon="5.26932">
        <ele>382.6779</ele>
        <time>2014-08-04T13:35:09Z</time>
      </trkpt>
      <trkpt lat="47.86192" lon="5.26939">
        <ele>381.7344</ele>
        <time>2014-08-04T13:35:12Z</time>
      </trkpt>
      <trkpt lat="47.86195" lon="5.26947">
        <ele>383.1304</ele>
        <time>2014-08-04T13:35:15Z</time>
      </trkpt>
      <trkpt lat="47.862" lon="5.26952">
        <ele>385.535</ele>
        <time>2014-08-04T13:35:18Z</time>
      </trkpt>
      <trkpt lat="47.86205" lon="5.26957">
        <ele>382.3969</ele>
        <time>2014-08-04T13:35:21Z</time>
      </trkpt>
      <trkpt lat="47.8621" lon="5.2696">
        <ele>383.4994</ele>
        <time>2014-08-04T13:35:23Z</time>
      </trkpt>
      <trkpt lat="47.86214" lon="5.26964">
        <ele>382.1431</ele>
        <time>2014-08-04T13:35:25Z</time>
      </trkpt>
      <trkpt lat="47.86219" lon="5.26967">
        <ele>384.7899</ele>
        <time>2014-08-04T13:35:28Z</time>
      </trkpt>
      <trkpt lat="47.86224" lon="5.26969">
        <ele>386.197</ele>
        <time>2014-08-04T13:35:30Z</time>
      </trkpt>
      <trkpt lat="47.86229" lon="5.26971">
        <ele>384.3027</ele>
        <time>2014-08-04T13:35:32Z</time>
      </trkpt>
      <trkpt lat="47.86236" lon="5.2697">
        <ele>389.5052</ele>
        <time>2014-08-04T13:35:35Z</time>
      </trkpt>
      <trkpt lat="47.86241" lon="5.26969">
        <ele>393.8326</ele>
        <time>2014-08-04T13:35:37Z</time>
      </trkpt>
      <trkpt lat="47.86247" lon="5.2697">
        <ele>394.048</ele>
        <time>2014-08-04T13:35:39Z</time>
      </trkpt>
      <trkpt lat="47.86251" lon="5.26969">
        <ele>393.8609</ele>
        <time>2014-08-04T13:35:42Z</time>
      </trkpt>
      <trkpt lat="47.86257" lon="5.26968">
        <ele>390.8512</ele>
        <time>2014-08-04T13:35:45Z</time>
      </trkpt>
      <trkpt lat="47.86262" lon="5.26967">
        <ele>388.9289</ele>
        <time>2014-08-04T13:35:48Z</time>
      </trkpt>
      <trkpt lat="47.86268" lon="5.26963">
        <ele>389.3396</ele>
        <time>2014-08-04T13:35:51Z</time>
      </trkpt>
      <trkpt lat="47.86273" lon="5.26961">
        <ele>393.9436</ele>
        <time>2014-08-04T13:35:54Z</time>
      </trkpt>
      <trkpt lat="47.86279" lon="5.26959">
        <ele>395.6285</ele>
        <time>2014-08-04T13:35:57Z</time>
      </trkpt>
      <trkpt lat="47.86285" lon="5.26957">
        <ele>392.5828</ele>
        <time>2014-08-04T13:36:00Z</time>
      </trkpt>
      <trkpt lat="47.8629" lon="5.26956">
        <ele>393.4222</ele>
        <time>2014-08-04T13:36:02Z</time>
      </trkpt>
      <trkpt lat="47.86295" lon="5.26955">
        <ele>392.6127</ele>
        <time>2014-08-04T13:36:04Z</time>
      </trkpt>
      <trkpt lat="47.86301" lon="5.26953">
        <ele>393.157</ele>
        <time>2014-08-04T13:36:07Z</time>
      </trkpt>
      <trkpt lat="47.86307" lon="5.26951">
        <ele>395.3454</ele>
        <time>2014-08-04T13:36:10Z</time>
      </trkpt>
      <trkpt lat="47.86313" lon="5.26949">
        <ele>398.6083</ele>
        <time>2014-08-04T13:36:13Z</time>
      </trkpt>
      <trkpt lat="47.86319" lon="5.26947">
        <ele>407.1754</ele>
        <time>2014-08-04T13:36:16Z</time>
      </trkpt>
      <trkpt lat="47.86325" lon="5.26941">
        <ele>408.8055</ele>
        <time>2014-08-04T13:36:18Z</time>
      </trkpt>
      <trkpt lat="47.86332" lon="5.26934">
        <ele>410.7099</ele>
        <time>2014-08-04T13:36:20Z</time>
      </trkpt>
      <trkpt lat="47.86337" lon="5.26932">
        <ele>409.6961</ele>
        <time>2014-08-04T13:36:21Z</time>
      </trkpt>
      <trkpt lat="47.86342" lon="5.26928">
        <ele>405.6152</ele>
        <time>2014-08-04T13:36:22Z</time>
      </trkpt>
      <trkpt lat="47.86347" lon="5.26923">
        <ele>402.1963</ele>
        <time>2014-08-04T13:36:23Z</time>
      </trkpt>
      <trkpt lat="47.86352" lon="5.26918">
        <ele>398.5055</ele>
        <time>2014-08-04T13:36:24Z</time>
      </trkpt>
      <trkpt lat="47.86357" lon="5.26915">
        <ele>398.5988</ele>
        <time>2014-08-04T13:36:25Z</time>
      </trkpt>
      <trkpt lat="47.86362" lon="5.26912">
        <ele>398.626</ele>
        <time>2014-08-04T13:36:26Z</time>
      </trkpt>
      <trkpt lat="47.86367" lon="5.26911">
        <ele>396.939</ele>
        <time>2014-08-04T13:36:27Z</time>
      </trkpt>
      <trkpt lat="47.86372" lon="5.26908">
        <ele>394.5294</ele>
        <time>2014-08-04T13:36:28Z</time>
      </trkpt>
      <trkpt lat="47.86377" lon="5.26906">
        <ele>394.1091</ele>
        <time>2014-08-04T13:36:29Z</time>
      </trkpt>
      <trkpt lat="47.86382" lon="5.26904">
        <ele>395.3823</ele>
        <time>2014-08-04T13:36:30Z</time>
      </trkpt>
      <trkpt lat="47.86386" lon="5.26902">
        <ele>396.6617</ele>
        <time>2014-08-04T13:36:31Z</time>
      </trkpt>
      <trkpt lat="47.86391" lon="5.269">
        <ele>393.6694</ele>
        <time>2014-08-04T13:36:32Z</time>
      </trkpt>
      <trkpt lat="47.86396" lon="5.26898">
        <ele>394.4032</ele>
        <time>2014-08-04T13:36:33Z</time>
      </trkpt>
      <trkpt lat="47.86401" lon="5.26897">
        <ele>395.4105</ele>
        <time>2014-08-04T13:36:34Z</time>
      </trkpt>
      <trkpt lat="47.86406" lon="5.26895">
        <ele>395.5847</ele>
        <time>2014-08-04T13:36:35Z</time>
      </trkpt>
      <trkpt lat="47.8641" lon="5.26892">
        <ele>394.784</ele>
        <time>2014-08-04T13:36:36Z</time>
      </trkpt>
      <trkpt lat="47.86415" lon="5.2689">
        <ele>393.1833</ele>
        <time>2014-08-04T13:36:37Z</time>
      </trkpt>
      <trkpt lat="47.8642" lon="5.26888">
        <ele>396.1747</ele>
        <time>2014-08-04T13:36:38Z</time>
      </trkpt>
      <trkpt lat="47.86425" lon="5.26886">
        <ele>397.8992</ele>
        <time>2014-08-04T13:36:39Z</time>
      </trkpt>
      <trkpt lat="47.86432" lon="5.26884">
        <ele>394.955</ele>
        <time>2014-08-04T13:36:40Z</time>
      </trkpt>
      <trkpt lat="47.86437" lon="5.26881">
        <ele>396.5433</ele>
        <time>2014-08-04T13:36:41Z</time>
      </trkpt>
      <trkpt lat="47.86443" lon="5.26878">
        <ele>394.6386</ele>
        <time>2014-08-04T13:36:42Z</time>
      </trkpt>
      <trkpt lat="47.8645" lon="5.26875">
        <ele>393.4728</ele>
        <time>2014-08-04T13:36:43Z</time>
      </trkpt>
      <trkpt lat="47.86456" lon="5.2687">
        <ele>393.3389</ele>
        <time>2014-08-04T13:36:44Z</time>
      </trkpt>
      <trkpt lat="47.8646" lon="5.26867">
        <ele>397.1702</ele>
        <time>2014-08-04T13:36:45Z</time>
      </trkpt>
      <trkpt lat="47.86465" lon="5.26864">
        <ele>398.029</ele>
        <time>2014-08-04T13:36:46Z</time>
      </trkpt>
      <trkpt lat="47.8647" lon="5.26863">
        <ele>398.4943</ele>
        <time>2014-08-04T13:36:47Z</time>
      </trkpt>
      <trkpt lat="47.86475" lon="5.26862">
        <ele>400.1517</ele>
        <time>2014-08-04T13:36:48Z</time>
      </trkpt>
      <trkpt lat="47.86481" lon="5.2686">
        <ele>398.9055</ele>
        <time>2014-08-04T13:36:49Z</time>
      </trkpt>
      <trkpt lat="47.86487" lon="5.26859">
        <ele>397.1589</ele>
        <time>2014-08-04T13:36:50Z</time>
      </trkpt>
      <trkpt lat="47.86492" lon="5.26857">
        <ele>396.5975</ele>
        <time>2014-08-04T13:36:51Z</time>
      </trkpt>
      <trkpt lat="47.86498" lon="5.26855">
        <ele>397.0786</ele>
        <time>2014-08-04T13:36:52Z</time>
      </trkpt>
      <trkpt lat="47.86503" lon="5.26851">
        <ele>394.1641</ele>
        <time>2014-08-04T13:36:53Z</time>
      </trkpt>
      <trkpt lat="47.86508" lon="5.26848">
        <ele>391.6097</ele>
        <time>2014-08-04T13:36:54Z</time>
      </trkpt>
      <trkpt lat="47.86513" lon="5.26845">
        <ele>391.0716</ele>
        <time>2014-08-04T13:36:55Z</time>
      </trkpt>
      <trkpt lat="47.86518" lon="5.26842">
        <ele>391.832</ele>
        <time>2014-08-04T13:36:56Z</time>
      </trkpt>
      <trkpt lat="47.86523" lon="5.2684">
        <ele>390.9116</ele>
        <time>2014-08-04T13:36:57Z</time>
      </trkpt>
      <trkpt lat="47.86529" lon="5.26838">
        <ele>391.2104</ele>
        <time>2014-08-04T13:36:58Z</time>
      </trkpt>
      <trkpt lat="47.86535" lon="5.26835">
        <ele>393.8876</ele>
        <time>2014-08-04T13:36:59Z</time>
      </trkpt>
      <trkpt lat="47.86541" lon="5.26832">
        <ele>393.7791</ele>
        <time>2014-08-04T13:37:00Z</time>
      </trkpt>
      <trkpt lat="47.86548" lon="5.26829">
        <ele>392.4485</ele>
        <time>2014-08-04T13:37:01Z</time>
      </trkpt>
      <trkpt lat="47.86553" lon="5.26826">
        <ele>393.5128</ele>
        <time>2014-08-04T13:37:02Z</time>
      </trkpt>
      <trkpt lat="47.86558" lon="5.26823">
        <ele>392.461</ele>
        <time>2014-08-04T13:37:03Z</time>
      </trkpt>
      <trkpt lat="47.86564" lon="5.2682">
        <ele>388.9852</ele>
        <time>2014-08-04T13:37:04Z</time>
      </trkpt>
      <trkpt lat="47.8657" lon="5.26816">
        <ele>386.3171</ele>
        <time>2014-08-04T13:37:05Z</time>
      </trkpt>
      <trkpt lat="47.86575" lon="5.26813">
        <ele>386.6207</ele>
        <time>2014-08-04T13:37:06Z</time>
      </trkpt>
      <trkpt lat="47.8658" lon="5.2681">
        <ele>386.6836</ele>
        <time>2014-08-04T13:37:07Z</time>
      </trkpt>
      <trkpt lat="47.86586" lon="5.26807">
        <ele>387.2859</ele>
        <time>2014-08-04T13:37:08Z</time>
      </trkpt>
      <trkpt lat="47.86591" lon="5.26804">
        <ele>391.1428</ele>
        <time>2014-08-04T13:37:09Z</time>
      </trkpt>
      <trkpt lat="47.86596" lon="5.26802">
        <ele>390.9791</ele>
        <time>2014-08-04T13:37:10Z</time>
      </trkpt>
      <trkpt lat="47.86601" lon="5.26799">
        <ele>392.6927</ele>
        <time>2014-08-04T13:37:11Z</time>
      </trkpt>
      <trkpt lat="47.86607" lon="5.26796">
        <ele>390.2053</ele>
        <time>2014-08-04T13:37:12Z</time>
      </trkpt>
      <trkpt lat="47.86613" lon="5.26792">
        <ele>389.126</ele>
        <time>2014-08-04T13:37:13Z</time>
      </trkpt>
      <trkpt lat="47.86619" lon="5.26789">
        <ele>387.5733</ele>
        <time>2014-08-04T13:37:14Z</time>
      </trkpt>
      <trkpt lat="47.86625" lon="5.26785">
        <ele>385.2408</ele>
        <time>2014-08-04T13:37:15Z</time>
      </trkpt>
      <trkpt lat="47.86631" lon="5.26781">
        <ele>387.6818</ele>
        <time>2014-08-04T13:37:16Z</time>
      </trkpt>
      <trkpt lat="47.86636" lon="5.26773">
        <ele>388.09</ele>
        <time>2014-08-04T13:37:17Z</time>
      </trkpt>
      <trkpt lat="47.86642" lon="5.26766">
        <ele>386.2722</ele>
        <time>2014-08-04T13:37:18Z</time>
      </trkpt>
      <trkpt lat="47.86647" lon="5.26759">
        <ele>385.2448</ele>
        <time>2014-08-04T13:37:19Z</time>
      </trkpt>
      <trkpt lat="47.86654" lon="5.26754">
        <ele>385.9109</ele>
        <time>2014-08-04T13:37:20Z</time>
      </trkpt>
      <trkpt lat="47.8666" lon="5.26748">
        <ele>386.0339</ele>
        <time>2014-08-04T13:37:21Z</time>
      </trkpt>
      <trkpt lat="47.86667" lon="5.26741">
        <ele>384.1888</ele>
        <time>2014-08-04T13:37:22Z</time>
      </trkpt>
      <trkpt lat="47.86673" lon="5.26734">
        <ele>384.4278</ele>
        <time>2014-08-04T13:37:23Z</time>
      </trkpt>
      <trkpt lat="47.8668" lon="5.26726">
        <ele>387.1573</ele>
        <time>2014-08-04T13:37:24Z</time>
      </trkpt>
      <trkpt lat="47.86686" lon="5.26719">
        <ele>387.3266</ele>
        <time>2014-08-04T13:37:25Z</time>
      </trkpt>
      <trkpt lat="47.86693" lon="5.2671">
        <ele>383.8632</ele>
        <time>2014-08-04T13:37:26Z</time>
      </trkpt>
      <trkpt lat="47.867" lon="5.26702">
        <ele>383.3257</ele>
        <time>2014-08-04T13:37:27Z</time>
      </trkpt>
      <trkpt lat="47.86706" lon="5.26693">
        <ele>384.372</ele>
        <time>2014-08-04T13:37:28Z</time>
      </trkpt>
      <trkpt lat="47.86713" lon="5.26685">
        <ele>382.3543</ele>
        <time>2014-08-04T13:37:29Z</time>
      </trkpt>
      <trkpt lat="47.8672" lon="5.26678">
        <ele>384.2531</ele>
        <time>2014-08-04T13:37:30Z</time>
      </trkpt>
      <trkpt lat="47.86726" lon="5.26671">
        <ele>382.9278</ele>
        <time>2014-08-04T13:37:31Z</time>
      </trkpt>
      <trkpt lat="47.86734" lon="5.26664">
        <ele>381.5384</ele>
        <time>2014-08-04T13:37:32Z</time>
      </trkpt>
      <trkpt lat="47.86741" lon="5.26657">
        <ele>376.8965</ele>
        <time>2014-08-04T13:37:33Z</time>
      </trkpt>
      <trkpt lat="47.86749" lon="5.2665">
        <ele>377.7976</ele>
        <time>2014-08-04T13:37:34Z</time>
      </trkpt>
      <trkpt lat="47.86755" lon="5.26644">
        <ele>376.4344</ele>
        <time>2014-08-04T13:37:35Z</time>
      </trkpt>
      <trkpt lat="47.86762" lon="5.26636">
        <ele>376.7904</ele>
        <time>2014-08-04T13:37:36Z</time>
      </trkpt>
      <trkpt lat="47.86766" lon="5.26629">
        <ele>377.5901</ele>
        <time>2014-08-04T13:37:37Z</time>
      </trkpt>
      <trkpt lat="47.8677" lon="5.26622">
        <ele>376.2216</ele>
        <time>2014-08-04T13:37:38Z</time>
      </trkpt>
      <trkpt lat="47.86774" lon="5.26616">
        <ele>376.2673</ele>
        <time>2014-08-04T13:37:39Z</time>
      </trkpt>
      <trkpt lat="47.86776" lon="5.2661">
        <ele>377.3046</ele>
        <time>2014-08-04T13:37:40Z</time>
      </trkpt>
      <trkpt lat="47.86779" lon="5.26603">
        <ele>376.4598</ele>
        <time>2014-08-04T13:37:41Z</time>
      </trkpt>
      <trkpt lat="47.86781" lon="5.26597">
        <ele>376.0855</ele>
        <time>2014-08-04T13:37:42Z</time>
      </trkpt>
      <trkpt lat="47.86782" lon="5.2659">
        <ele>378.2162</ele>
        <time>2014-08-04T13:37:43Z</time>
      </trkpt>
      <trkpt lat="47.86784" lon="5.26578">
        <ele>376.2806</ele>
        <time>2014-08-04T13:37:45Z</time>
      </trkpt>
      <trkpt lat="47.86787" lon="5.26569">
        <ele>376.399</ele>
        <time>2014-08-04T13:37:47Z</time>
      </trkpt>
      <trkpt lat="47.86792" lon="5.26561">
        <ele>372.3013</ele>
        <time>2014-08-04T13:37:49Z</time>
      </trkpt>
      <trkpt lat="47.86797" lon="5.26553">
        <ele>373.5408</ele>
        <time>2014-08-04T13:37:51Z</time>
      </trkpt>
      <trkpt lat="47.86801" lon="5.26546">
        <ele>372.7556</ele>
        <time>2014-08-04T13:37:53Z</time>
      </trkpt>
      <trkpt lat="47.86806" lon="5.26538">
        <ele>372.6809</ele>
        <time>2014-08-04T13:37:55Z</time>
      </trkpt>
      <trkpt lat="47.86811" lon="5.26532">
        <ele>370.8203</ele>
        <time>2014-08-04T13:37:57Z</time>
      </trkpt>
      <trkpt lat="47.86816" lon="5.26527">
        <ele>365.2649</ele>
        <time>2014-08-04T13:37:59Z</time>
      </trkpt>
      <trkpt lat="47.86822" lon="5.26522">
        <ele>370.0001</ele>
        <time>2014-08-04T13:38:01Z</time>
      </trkpt>
      <trkpt lat="47.86826" lon="5.26515">
        <ele>372.0306</ele>
        <time>2014-08-04T13:38:03Z</time>
      </trkpt>
      <trkpt lat="47.86831" lon="5.26508">
        <ele>374.818</ele>
        <time>2014-08-04T13:38:05Z</time>
      </trkpt>
      <trkpt lat="47.86834" lon="5.26501">
        <ele>377.6857</ele>
        <time>2014-08-04T13:38:07Z</time>
      </trkpt>
      <trkpt lat="47.86837" lon="5.26494">
        <ele>375.1567</ele>
        <time>2014-08-04T13:38:09Z</time>
      </trkpt>
      <trkpt lat="47.86841" lon="5.26487">
        <ele>373.3599</ele>
        <time>2014-08-04T13:38:11Z</time>
      </trkpt>
      <trkpt lat="47.86845" lon="5.2648">
        <ele>369.5965</ele>
        <time>2014-08-04T13:38:13Z</time>
      </trkpt>
      <trkpt lat="47.8685" lon="5.26474">
        <ele>368.524</ele>
        <time>2014-08-04T13:38:16Z</time>
      </trkpt>
      <trkpt lat="47.86854" lon="5.26469">
        <ele>370.3465</ele>
        <time>2014-08-04T13:38:18Z</time>
      </trkpt>
      <trkpt lat="47.86858" lon="5.26463">
        <ele>368.9032</ele>
        <time>2014-08-04T13:38:20Z</time>
      </trkpt>
      <trkpt lat="47.86863" lon="5.26457">
        <ele>372.8537</ele>
        <time>2014-08-04T13:38:22Z</time>
      </trkpt>
      <trkpt lat="47.86866" lon="5.26451">
        <ele>373.9523</ele>
        <time>2014-08-04T13:38:24Z</time>
      </trkpt>
      <trkpt lat="47.8687" lon="5.26446">
        <ele>372.9128</ele>
        <time>2014-08-04T13:38:26Z</time>
      </trkpt>
      <trkpt lat="47.86873" lon="5.2644">
        <ele>371.7724</ele>
        <time>2014-08-04T13:38:28Z</time>
      </trkpt>
      <trkpt lat="47.86877" lon="5.26433">
        <ele>368.554</ele>
        <time>2014-08-04T13:38:30Z</time>
      </trkpt>
      <trkpt lat="47.86883" lon="5.26425">
        <ele>365.3053</ele>
        <time>2014-08-04T13:38:32Z</time>
      </trkpt>
      <trkpt lat="47.86889" lon="5.26417">
        <ele>366.9894</ele>
        <time>2014-08-04T13:38:34Z</time>
      </trkpt>
      <trkpt lat="47.86895" lon="5.26409">
        <ele>365.6948</ele>
        <time>2014-08-04T13:38:36Z</time>
      </trkpt>
      <trkpt lat="47.86901" lon="5.264">
        <ele>364.6464</ele>
        <time>2014-08-04T13:38:38Z</time>
      </trkpt>
      <trkpt lat="47.86906" lon="5.26392">
        <ele>365.4378</ele>
        <time>2014-08-04T13:38:40Z</time>
      </trkpt>
      <trkpt lat="47.86912" lon="5.26383">
        <ele>364.9641</ele>
        <time>2014-08-04T13:38:42Z</time>
      </trkpt>
      <trkpt lat="47.86917" lon="5.26376">
        <ele>366.4319</ele>
        <time>2014-08-04T13:38:44Z</time>
      </trkpt>
      <trkpt lat="47.86922" lon="5.2637">
        <ele>364.8391</ele>
        <time>2014-08-04T13:38:46Z</time>
      </trkpt>
      <trkpt lat="47.86926" lon="5.26365">
        <ele>362.8849</ele>
        <time>2014-08-04T13:38:48Z</time>
      </trkpt>
      <trkpt lat="47.86931" lon="5.2636">
        <ele>361.3344</ele>
        <time>2014-08-04T13:38:50Z</time>
      </trkpt>
      <trkpt lat="47.86935" lon="5.26356">
        <ele>356.4548</ele>
        <time>2014-08-04T13:38:53Z</time>
      </trkpt>
      <trkpt lat="47.86932" lon="5.26351">
        <ele>358.6302</ele>
        <time>2014-08-04T13:39:01Z</time>
      </trkpt>
      <trkpt lat="47.86925" lon="5.26356">
        <ele>360.1247</ele>
        <time>2014-08-04T13:39:04Z</time>
      </trkpt>
      <trkpt lat="47.86919" lon="5.26359">
        <ele>361.0703</ele>
        <time>2014-08-04T13:39:06Z</time>
      </trkpt>
      <trkpt lat="47.86911" lon="5.26362">
        <ele>359.5274</ele>
        <time>2014-08-04T13:39:08Z</time>
      </trkpt>
      <trkpt lat="47.86902" lon="5.26364">
        <ele>360.0267</ele>
        <time>2014-08-04T13:39:10Z</time>
      </trkpt>
      <trkpt lat="47.86895" lon="5.26366">
        <ele>357.2539</ele>
        <time>2014-08-04T13:39:12Z</time>
      </trkpt>
      <trkpt lat="47.86889" lon="5.26367">
        <ele>353.4563</ele>
        <time>2014-08-04T13:39:13Z</time>
      </trkpt>
      <trkpt lat="47.86884" lon="5.26369">
        <ele>355.9732</ele>
        <time>2014-08-04T13:39:14Z</time>
      </trkpt>
      <trkpt lat="47.86879" lon="5.2637">
        <ele>356.4268</ele>
        <time>2014-08-04T13:39:15Z</time>
      </trkpt>
      <trkpt lat="47.86874" lon="5.2637">
        <ele>356.3628</ele>
        <time>2014-08-04T13:39:16Z</time>
      </trkpt>
      <trkpt lat="47.86869" lon="5.2637">
        <ele>356.0639</ele>
        <time>2014-08-04T13:39:17Z</time>
      </trkpt>
      <trkpt lat="47.86865" lon="5.26371">
        <ele>356.9577</ele>
        <time>2014-08-04T13:39:18Z</time>
      </trkpt>
      <trkpt lat="47.86858" lon="5.26374">
        <ele>356.627</ele>
        <time>2014-08-04T13:39:20Z</time>
      </trkpt>
      <trkpt lat="47.86853" lon="5.26377">
        <ele>356.641</ele>
        <time>2014-08-04T13:39:21Z</time>
      </trkpt>
      <trkpt lat="47.86845" lon="5.26381">
        <ele>359.9921</ele>
        <time>2014-08-04T13:39:23Z</time>
      </trkpt>
      <trkpt lat="47.8684" lon="5.26383">
        <ele>360.1218</ele>
        <time>2014-08-04T13:39:24Z</time>
      </trkpt>
      <trkpt lat="47.86836" lon="5.26385">
        <ele>359.2836</ele>
        <time>2014-08-04T13:39:25Z</time>
      </trkpt>
      <trkpt lat="47.86665" lon="5.26143">
        <ele>312.0053</ele>
        <time>2014-08-04T13:43:59Z</time>
      </trkpt>
      <trkpt lat="47.86703" lon="5.26082">
        <ele>350.6519</ele>
        <time>2014-08-04T13:44:00Z</time>
      </trkpt>
      <trkpt lat="47.86715" lon="5.26074">
        <ele>359.9519</ele>
        <time>2014-08-04T13:44:03Z</time>
      </trkpt>
      <trkpt lat="47.86724" lon="5.26073">
        <ele>377.9988</ele>
        <time>2014-08-04T13:44:07Z</time>
      </trkpt>
      <trkpt lat="47.8673" lon="5.26072">
        <ele>371.5054</ele>
        <time>2014-08-04T13:44:09Z</time>
      </trkpt>
      <trkpt lat="47.86736" lon="5.26069">
        <ele>375.9771</ele>
        <time>2014-08-04T13:44:11Z</time>
      </trkpt>
      <trkpt lat="47.86743" lon="5.26064">
        <ele>379.03</ele>
        <time>2014-08-04T13:44:13Z</time>
      </trkpt>
      <trkpt lat="47.8675" lon="5.26059">
        <ele>375.546</ele>
        <time>2014-08-04T13:44:15Z</time>
      </trkpt>
      <trkpt lat="47.86757" lon="5.26055">
        <ele>374.1248</ele>
        <time>2014-08-04T13:44:17Z</time>
      </trkpt>
      <trkpt lat="47.86763" lon="5.26051">
        <ele>368.5926</ele>
        <time>2014-08-04T13:44:19Z</time>
      </trkpt>
      <trkpt lat="47.8677" lon="5.26044">
        <ele>368.1363</ele>
        <time>2014-08-04T13:44:21Z</time>
      </trkpt>
      <trkpt lat="47.8678" lon="5.26039">
        <ele>369.5035</ele>
        <time>2014-08-04T13:44:23Z</time>
      </trkpt>
      <trkpt lat="47.86787" lon="5.26038">
        <ele>365.8528</ele>
        <time>2014-08-04T13:44:25Z</time>
      </trkpt>
      <trkpt lat="47.86793" lon="5.26037">
        <ele>366.6424</ele>
        <time>2014-08-04T13:44:27Z</time>
      </trkpt>
      <trkpt lat="47.86799" lon="5.26034">
        <ele>368.2825</ele>
        <time>2014-08-04T13:44:28Z</time>
      </trkpt>
      <trkpt lat="47.86807" lon="5.26031">
        <ele>364.732</ele>
        <time>2014-08-04T13:44:30Z</time>
      </trkpt>
      <trkpt lat="47.86814" lon="5.26026">
        <ele>365.3406</ele>
        <time>2014-08-04T13:44:32Z</time>
      </trkpt>
      <trkpt lat="47.86821" lon="5.26022">
        <ele>365.7559</ele>
        <time>2014-08-04T13:44:34Z</time>
      </trkpt>
      <trkpt lat="47.87074" lon="5.25932">
        <ele>374.6772</ele>
        <time>2014-08-04T13:45:38Z</time>
      </trkpt>
      <trkpt lat="47.87074" lon="5.25932">
        <ele>374.6772</ele>
        <time>2014-08-04T13:45:39Z</time>
      </trkpt>
      <trkpt lat="47.87083" lon="5.25933">
        <ele>363.102</ele>
        <time>2014-08-04T13:45:40Z</time>
      </trkpt>
      <trkpt lat="47.87092" lon="5.2595">
        <ele>365.3686</ele>
        <time>2014-08-04T13:45:41Z</time>
      </trkpt>
      <trkpt lat="47.87102" lon="5.25953">
        <ele>380.5478</ele>
        <time>2014-08-04T13:45:46Z</time>
      </trkpt>
      <trkpt lat="47.8711" lon="5.25953">
        <ele>379.8153</ele>
        <time>2014-08-04T13:45:48Z</time>
      </trkpt>
      <trkpt lat="47.87117" lon="5.25952">
        <ele>373.6033</ele>
        <time>2014-08-04T13:45:50Z</time>
      </trkpt>
      <trkpt lat="47.87125" lon="5.2595">
        <ele>370.9127</ele>
        <time>2014-08-04T13:45:52Z</time>
      </trkpt>
      <trkpt lat="47.87134" lon="5.25947">
        <ele>370.032</ele>
        <time>2014-08-04T13:45:54Z</time>
      </trkpt>
      <trkpt lat="47.87142" lon="5.25945">
        <ele>375.1718</ele>
        <time>2014-08-04T13:45:56Z</time>
      </trkpt>
      <trkpt lat="47.87149" lon="5.25942">
        <ele>371.7601</ele>
        <time>2014-08-04T13:45:58Z</time>
      </trkpt>
      <trkpt lat="47.87157" lon="5.25939">
        <ele>366.0395</ele>
        <time>2014-08-04T13:46:00Z</time>
      </trkpt>
      <trkpt lat="47.87165" lon="5.25937">
        <ele>365.9455</ele>
        <time>2014-08-04T13:46:02Z</time>
      </trkpt>
      <trkpt lat="47.87174" lon="5.25934">
        <ele>370.1415</ele>
        <time>2014-08-04T13:46:04Z</time>
      </trkpt>
      <trkpt lat="47.8718" lon="5.2593">
        <ele>368.9771</ele>
        <time>2014-08-04T13:46:06Z</time>
      </trkpt>
      <trkpt lat="47.87187" lon="5.25929">
        <ele>371.3587</ele>
        <time>2014-08-04T13:46:08Z</time>
      </trkpt>
      <trkpt lat="47.87196" lon="5.25925">
        <ele>367.461</ele>
        <time>2014-08-04T13:46:10Z</time>
      </trkpt>
      <trkpt lat="47.87203" lon="5.25925">
        <ele>373.8674</ele>
        <time>2014-08-04T13:46:12Z</time>
      </trkpt>
      <trkpt lat="47.87212" lon="5.25923">
        <ele>376.4109</ele>
        <time>2014-08-04T13:46:14Z</time>
      </trkpt>
      <trkpt lat="47.87217" lon="5.2592">
        <ele>376.6154</ele>
        <time>2014-08-04T13:46:15Z</time>
      </trkpt>
      <trkpt lat="47.87222" lon="5.25917">
        <ele>374.7668</ele>
        <time>2014-08-04T13:46:16Z</time>
      </trkpt>
      <trkpt lat="47.87228" lon="5.25914">
        <ele>371.7819</ele>
        <time>2014-08-04T13:46:18Z</time>
      </trkpt>
      <trkpt lat="47.87233" lon="5.25913">
        <ele>373.6474</ele>
        <time>2014-08-04T13:46:19Z</time>
      </trkpt>
      <trkpt lat="47.87238" lon="5.25912">
        <ele>373.2663</ele>
        <time>2014-08-04T13:46:20Z</time>
      </trkpt>
      <trkpt lat="47.87243" lon="5.2591">
        <ele>374.2583</ele>
        <time>2014-08-04T13:46:21Z</time>
      </trkpt>
      <trkpt lat="47.87897" lon="5.24638">
        <ele>394.8015</ele>
        <time>2014-08-04T13:56:53Z</time>
      </trkpt>
      <trkpt lat="47.87907" lon="5.24631">
        <ele>381.5146</ele>
        <time>2014-08-04T13:56:54Z</time>
      </trkpt>
      <trkpt lat="47.87911" lon="5.24643">
        <ele>382.3715</ele>
        <time>2014-08-04T13:56:58Z</time>
      </trkpt>
      <trkpt lat="47.88105" lon="5.25185">
        <ele>429.0488</ele>
        <time>2014-08-04T14:00:55Z</time>
      </trkpt>
      <trkpt lat="47.88121" lon="5.2518">
        <ele>397.2685</ele>
        <time>2014-08-04T14:01:04Z</time>
      </trkpt>
      <trkpt lat="47.88121" lon="5.2518">
        <ele>397.2685</ele>
        <time>2014-08-04T14:01:05Z</time>
      </trkpt>
      <trkpt lat="47.88121" lon="5.2518">
        <ele>397.2685</ele>
        <time>2014-08-04T14:01:09Z</time>
      </trkpt>
      <trkpt lat="47.88119" lon="5.25195">
        <ele>399.7289</ele>
        <time>2014-08-04T14:01:15Z</time>
      </trkpt>
      <trkpt lat="47.88122" lon="5.25203">
        <ele>409.6613</ele>
        <time>2014-08-04T14:01:25Z</time>
      </trkpt>
      <trkpt lat="47.88487" lon="5.26223">
        <ele>332.9747</ele>
        <time>2014-08-04T14:11:59Z</time>
      </trkpt>
      <trkpt lat="47.88499" lon="5.26234">
        <ele>329.6265</ele>
        <time>2014-08-04T14:12:00Z</time>
      </trkpt>
      <trkpt lat="47.88499" lon="5.26234">
        <ele>329.6265</ele>
        <time>2014-08-04T14:12:03Z</time>
      </trkpt>
      <trkpt lat="47.88499" lon="5.2625">
        <ele>348.8596</ele>
        <time>2014-08-04T14:12:07Z</time>
      </trkpt>
      <trkpt lat="47.89171" lon="5.27198">
        <ele>350.3187</ele>
        <time>2014-08-04T14:19:15Z</time>
      </trkpt>
      <trkpt lat="47.89188" lon="5.27209">
        <ele>341.4716</ele>
        <time>2014-08-04T14:19:16Z</time>
      </trkpt>
      <trkpt lat="47.89192" lon="5.27215">
        <ele>343.5477</ele>
        <time>2014-08-04T14:19:17Z</time>
      </trkpt>
      <trkpt lat="47.892" lon="5.27224">
        <ele>344.7509</ele>
        <time>2014-08-04T14:19:19Z</time>
      </trkpt>
      <trkpt lat="47.89204" lon="5.27227">
        <ele>343.7682</ele>
        <time>2014-08-04T14:19:20Z</time>
      </trkpt>
      <trkpt lat="47.89212" lon="5.27234">
        <ele>343.3594</ele>
        <time>2014-08-04T14:19:21Z</time>
      </trkpt>
      <trkpt lat="47.89624" lon="5.28882">
        <ele>322.6508</ele>
        <time>2014-08-04T14:23:04Z</time>
      </trkpt>
      <trkpt lat="47.89625" lon="5.28892">
        <ele>324.5421</ele>
        <time>2014-08-04T14:23:06Z</time>
      </trkpt>
      <trkpt lat="47.89628" lon="5.289">
        <ele>325.2653</ele>
        <time>2014-08-04T14:23:07Z</time>
      </trkpt>
      <trkpt lat="47.8963" lon="5.28906">
        <ele>325.6648</ele>
        <time>2014-08-04T14:23:08Z</time>
      </trkpt>
      <trkpt lat="47.90101" lon="5.32159">
        <ele>327</ele>
        <time>2014-08-04T14:34:08Z</time>
      </trkpt>
      <trkpt lat="47.90113" lon="5.32128">
        <ele>329.4706</ele>
        <time>2014-08-04T14:34:10Z</time>
      </trkpt>
      <trkpt lat="47.90118" lon="5.32094">
        <ele>322.6027</ele>
        <time>2014-08-04T14:34:13Z</time>
      </trkpt>
      <trkpt lat="47.90118" lon="5.32094">
        <ele>322.6027</ele>
        <time>2014-08-04T14:34:14Z</time>
      </trkpt>
      <trkpt lat="47.90118" lon="5.321">
        <ele>323.1839</ele>
        <time>2014-08-04T14:34:15Z</time>
      </trkpt>
      <trkpt lat="47.90118" lon="5.32112">
        <ele>324.7545</ele>
        <time>2014-08-04T14:34:17Z</time>
      </trkpt>
      <trkpt lat="47.89468" lon="5.32567">
        <ele>354.8346</ele>
        <time>2014-08-04T14:38:04Z</time>
      </trkpt>
      <trkpt lat="47.89461" lon="5.32551">
        <ele>332.9804</ele>
        <time>2014-08-04T14:38:07Z</time>
      </trkpt>
      <trkpt lat="47.89451" lon="5.32533">
        <ele>319.0383</ele>
        <time>2014-08-04T14:38:08Z</time>
      </trkpt>
      <trkpt lat="47.89468" lon="5.32557">
        <ele>323.726</ele>
        <time>2014-08-04T14:38:57Z</time>
      </trkpt>
      <trkpt lat="47.89473" lon="5.32567">
        <ele>313.2384</ele>
        <time>2014-08-04T14:39:12Z</time>
      </trkpt>
      <trkpt lat="47.89467" lon="5.32573">
        <ele>325.4876</ele>
        <time>2014-08-04T14:39:39Z</time>
      </trkpt>
      <trkpt lat="47.89463" lon="5.32577">
        <ele>324.961</ele>
        <time>2014-08-04T14:39:41Z</time>
      </trkpt>
      <trkpt lat="47.89457" lon="5.3258">
        <ele>326.6958</ele>
        <time>2014-08-04T14:39:43Z</time>
      </trkpt>
      <trkpt lat="47.89449" lon="5.32584">
        <ele>327.3744</ele>
        <time>2014-08-04T14:39:45Z</time>
      </trkpt>
      <trkpt lat="47.89444" lon="5.32587">
        <ele>327.0716</ele>
        <time>2014-08-04T14:39:46Z</time>
      </trkpt>
      <trkpt lat="47.89436" lon="5.32591">
        <ele>318.3355</ele>
        <time>2014-08-04T14:39:48Z</time>
      </trkpt>
      <trkpt lat="47.89429" lon="5.32595">
        <ele>322.1791</ele>
        <time>2014-08-04T14:39:50Z</time>
      </trkpt>
      <trkpt lat="47.89423" lon="5.32598">
        <ele>323.1797</ele>
        <time>2014-08-04T14:39:52Z</time>
      </trkpt>
      <trkpt lat="47.89416" lon="5.32602">
        <ele>316.5372</ele>
        <time>2014-08-04T14:39:54Z</time>
      </trkpt>
      <trkpt lat="47.89411" lon="5.32605">
        <ele>314.9411</ele>
        <time>2014-08-04T14:39:55Z</time>
      </trkpt>
      <trkpt lat="47.89407" lon="5.32608">
        <ele>315.0831</ele>
        <time>2014-08-04T14:39:56Z</time>
      </trkpt>
      <trkpt lat="47.89402" lon="5.32612">
        <ele>316.1624</ele>
        <time>2014-08-04T14:39:57Z</time>
      </trkpt>
      <trkpt lat="47.89398" lon="5.32616">
        <ele>314.6279</ele>
        <time>2014-08-04T14:39:58Z</time>
      </trkpt>
      <trkpt lat="47.89391" lon="5.32621">
        <ele>313.5966</ele>
        <time>2014-08-04T14:40:00Z</time>
      </trkpt>
      <trkpt lat="47.89386" lon="5.32624">
        <ele>313.7345</ele>
        <time>2014-08-04T14:40:01Z</time>
      </trkpt>
      <trkpt lat="47.89382" lon="5.32627">
        <ele>317.8887</ele>
        <time>2014-08-04T14:40:02Z</time>
      </trkpt>
      <trkpt lat="47.89377" lon="5.3263">
        <ele>318.8011</ele>
        <time>2014-08-04T14:40:03Z</time>
      </trkpt>
      <trkpt lat="47.89373" lon="5.32633">
        <ele>321.2147</ele>
        <time>2014-08-04T14:40:04Z</time>
      </trkpt>
      <trkpt lat="47.89364" lon="5.32639">
        <ele>317.4866</ele>
        <time>2014-08-04T14:40:06Z</time>
      </trkpt>
      <trkpt lat="47.8936" lon="5.32642">
        <ele>317.3138</ele>
        <time>2014-08-04T14:40:07Z</time>
      </trkpt>
      <trkpt lat="47.89356" lon="5.32645">
        <ele>324.0921</ele>
        <time>2014-08-04T14:40:08Z</time>
      </trkpt>
      <trkpt lat="47.89347" lon="5.32649">
        <ele>324.7583</ele>
        <time>2014-08-04T14:40:10Z</time>
      </trkpt>
      <trkpt lat="47.89343" lon="5.32652">
        <ele>325.9535</ele>
        <time>2014-08-04T14:40:11Z</time>
      </trkpt>
      <trkpt lat="47.89338" lon="5.32654">
        <ele>325.8664</ele>
        <time>2014-08-04T14:40:12Z</time>
      </trkpt>
      <trkpt lat="47.89333" lon="5.32657">
        <ele>323.2538</ele>
        <time>2014-08-04T14:40:13Z</time>
      </trkpt>
      <trkpt lat="47.89328" lon="5.3266">
        <ele>323.2493</ele>
        <time>2014-08-04T14:40:14Z</time>
      </trkpt>
      <trkpt lat="47.89322" lon="5.32663">
        <ele>322.6494</ele>
        <time>2014-08-04T14:40:15Z</time>
      </trkpt>
      <trkpt lat="47.89317" lon="5.32667">
        <ele>324.6092</ele>
        <time>2014-08-04T14:40:16Z</time>
      </trkpt>
      <trkpt lat="47.89312" lon="5.3267">
        <ele>324.2582</ele>
        <time>2014-08-04T14:40:17Z</time>
      </trkpt>
      <trkpt lat="47.89307" lon="5.32674">
        <ele>325.063</ele>
        <time>2014-08-04T14:40:18Z</time>
      </trkpt>
      <trkpt lat="47.89302" lon="5.32677">
        <ele>324.9012</ele>
        <time>2014-08-04T14:40:19Z</time>
      </trkpt>
      <trkpt lat="47.89298" lon="5.3268">
        <ele>325.4035</ele>
        <time>2014-08-04T14:40:20Z</time>
      </trkpt>
      <trkpt lat="47.89293" lon="5.32684">
        <ele>323.1703</ele>
        <time>2014-08-04T14:40:21Z</time>
      </trkpt>
      <trkpt lat="47.89288" lon="5.32687">
        <ele>320.2193</ele>
        <time>2014-08-04T14:40:22Z</time>
      </trkpt>
      <trkpt lat="47.89283" lon="5.32691">
        <ele>319.7038</ele>
        <time>2014-08-04T14:40:23Z</time>
      </trkpt>
      <trkpt lat="47.89278" lon="5.32695">
        <ele>322.0628</ele>
        <time>2014-08-04T14:40:24Z</time>
      </trkpt>
      <trkpt lat="47.89274" lon="5.32699">
        <ele>319.8599</ele>
        <time>2014-08-04T14:40:25Z</time>
      </trkpt>
      <trkpt lat="47.8927" lon="5.32702">
        <ele>320.6125</ele>
        <time>2014-08-04T14:40:26Z</time>
      </trkpt>
      <trkpt lat="47.89265" lon="5.32705">
        <ele>321.2183</ele>
        <time>2014-08-04T14:40:27Z</time>
      </trkpt>
      <trkpt lat="47.89257" lon="5.32712">
        <ele>321.0843</ele>
        <time>2014-08-04T14:40:29Z</time>
      </trkpt>
      <trkpt lat="47.89253" lon="5.32716">
        <ele>318.6018</ele>
        <time>2014-08-04T14:40:30Z</time>
      </trkpt>
      <trkpt lat="47.89248" lon="5.32719">
        <ele>314.3989</ele>
        <time>2014-08-04T14:40:31Z</time>
      </trkpt>
      <trkpt lat="47.89243" lon="5.32723">
        <ele>313.4691</ele>
        <time>2014-08-04T14:40:32Z</time>
      </trkpt>
      <trkpt lat="47.89238" lon="5.32726">
        <ele>316.2495</ele>
        <time>2014-08-04T14:40:33Z</time>
      </trkpt>
      <trkpt lat="47.89234" lon="5.32728">
        <ele>313.7214</ele>
        <time>2014-08-04T14:40:34Z</time>
      </trkpt>
      <trkpt lat="47.8923" lon="5.32732">
        <ele>315.5811</ele>
        <time>2014-08-04T14:40:35Z</time>
      </trkpt>
      <trkpt lat="47.89225" lon="5.32736">
        <ele>318.0893</ele>
        <time>2014-08-04T14:40:36Z</time>
      </trkpt>
      <trkpt lat="47.8922" lon="5.32739">
        <ele>318.1857</ele>
        <time>2014-08-04T14:40:37Z</time>
      </trkpt>
      <trkpt lat="47.89215" lon="5.32744">
        <ele>321.7521</ele>
        <time>2014-08-04T14:40:38Z</time>
      </trkpt>
      <trkpt lat="47.89211" lon="5.32748">
        <ele>322.5998</ele>
        <time>2014-08-04T14:40:39Z</time>
      </trkpt>
      <trkpt lat="47.89205" lon="5.32753">
        <ele>323.0503</ele>
        <time>2014-08-04T14:40:40Z</time>
      </trkpt>
      <trkpt lat="47.89201" lon="5.32756">
        <ele>321.7636</ele>
        <time>2014-08-04T14:40:41Z</time>
      </trkpt>
      <trkpt lat="47.89195" lon="5.32762">
        <ele>318.6397</ele>
        <time>2014-08-04T14:40:43Z</time>
      </trkpt>
      <trkpt lat="47.89186" lon="5.3277">
        <ele>321.0672</ele>
        <time>2014-08-04T14:40:45Z</time>
      </trkpt>
      <trkpt lat="47.89181" lon="5.32774">
        <ele>321.8525</ele>
        <time>2014-08-04T14:40:46Z</time>
      </trkpt>
      <trkpt lat="47.89176" lon="5.32778">
        <ele>321.1189</ele>
        <time>2014-08-04T14:40:47Z</time>
      </trkpt>
      <trkpt lat="47.89171" lon="5.32783">
        <ele>321.8259</ele>
        <time>2014-08-04T14:40:48Z</time>
      </trkpt>
      <trkpt lat="47.89166" lon="5.32787">
        <ele>319.0655</ele>
        <time>2014-08-04T14:40:49Z</time>
      </trkpt>
      <trkpt lat="47.89162" lon="5.32791">
        <ele>319.0725</ele>
        <time>2014-08-04T14:40:50Z</time>
      </trkpt>
      <trkpt lat="47.89158" lon="5.32795">
        <ele>318.9889</ele>
        <time>2014-08-04T14:40:51Z</time>
      </trkpt>
      <trkpt lat="47.89153" lon="5.32799">
        <ele>318.5802</ele>
        <time>2014-08-04T14:40:52Z</time>
      </trkpt>
      <trkpt lat="47.89149" lon="5.32803">
        <ele>317.3377</ele>
        <time>2014-08-04T14:40:53Z</time>
      </trkpt>
      <trkpt lat="47.89145" lon="5.32807">
        <ele>319.369</ele>
        <time>2014-08-04T14:40:54Z</time>
      </trkpt>
      <trkpt lat="47.89141" lon="5.32811">
        <ele>318.1086</ele>
        <time>2014-08-04T14:40:55Z</time>
      </trkpt>
      <trkpt lat="47.89137" lon="5.32815">
        <ele>319.9148</ele>
        <time>2014-08-04T14:40:56Z</time>
      </trkpt>
      <trkpt lat="47.89132" lon="5.32819">
        <ele>318.8052</ele>
        <time>2014-08-04T14:40:57Z</time>
      </trkpt>
      <trkpt lat="47.89128" lon="5.32822">
        <ele>320.1039</ele>
        <time>2014-08-04T14:40:58Z</time>
      </trkpt>
      <trkpt lat="47.89124" lon="5.32826">
        <ele>324.2226</ele>
        <time>2014-08-04T14:40:59Z</time>
      </trkpt>
      <trkpt lat="47.89119" lon="5.32829">
        <ele>323.8808</ele>
        <time>2014-08-04T14:41:00Z</time>
      </trkpt>
      <trkpt lat="47.89115" lon="5.32833">
        <ele>322.8363</ele>
        <time>2014-08-04T14:41:01Z</time>
      </trkpt>
      <trkpt lat="47.8911" lon="5.32837">
        <ele>322.0439</ele>
        <time>2014-08-04T14:41:02Z</time>
      </trkpt>
      <trkpt lat="47.89105" lon="5.32841">
        <ele>324.9153</ele>
        <time>2014-08-04T14:41:03Z</time>
      </trkpt>
      <trkpt lat="47.89101" lon="5.32845">
        <ele>324.2877</ele>
        <time>2014-08-04T14:41:04Z</time>
      </trkpt>
      <trkpt lat="47.89097" lon="5.32849">
        <ele>327.4294</ele>
        <time>2014-08-04T14:41:05Z</time>
      </trkpt>
      <trkpt lat="47.89093" lon="5.32853">
        <ele>326.2028</ele>
        <time>2014-08-04T14:41:06Z</time>
      </trkpt>
      <trkpt lat="47.89088" lon="5.32857">
        <ele>327.0818</ele>
        <time>2014-08-04T14:41:07Z</time>
      </trkpt>
      <trkpt lat="47.89084" lon="5.32861">
        <ele>325.5909</ele>
        <time>2014-08-04T14:41:08Z</time>
      </trkpt>
      <trkpt lat="47.89079" lon="5.32865">
        <ele>325.4581</ele>
        <time>2014-08-04T14:41:09Z</time>
      </trkpt>
      <trkpt lat="47.89071" lon="5.32872">
        <ele>322.5848</ele>
        <time>2014-08-04T14:41:11Z</time>
      </trkpt>
      <trkpt lat="47.89067" lon="5.32877">
        <ele>321.6564</ele>
        <time>2014-08-04T14:41:12Z</time>
      </trkpt>
      <trkpt lat="47.89063" lon="5.32882">
        <ele>320.9716</ele>
        <time>2014-08-04T14:41:13Z</time>
      </trkpt>
      <trkpt lat="47.89057" lon="5.32886">
        <ele>321.5821</ele>
        <time>2014-08-04T14:41:14Z</time>
      </trkpt>
      <trkpt lat="47.89052" lon="5.32891">
        <ele>323.5231</ele>
        <time>2014-08-04T14:41:15Z</time>
      </trkpt>
      <trkpt lat="47.89046" lon="5.32896">
        <ele>324.0385</ele>
        <time>2014-08-04T14:41:16Z</time>
      </trkpt>
      <trkpt lat="47.89042" lon="5.329">
        <ele>323.654</ele>
        <time>2014-08-04T14:41:17Z</time>
      </trkpt>
      <trkpt lat="47.89038" lon="5.32903">
        <ele>321.0151</ele>
        <time>2014-08-04T14:41:18Z</time>
      </trkpt>
      <trkpt lat="47.89029" lon="5.3291">
        <ele>322.4564</ele>
        <time>2014-08-04T14:41:20Z</time>
      </trkpt>
      <trkpt lat="47.89025" lon="5.32914">
        <ele>325.1406</ele>
        <time>2014-08-04T14:41:21Z</time>
      </trkpt>
      <trkpt lat="47.89017" lon="5.32921">
        <ele>323.8166</ele>
        <time>2014-08-04T14:41:23Z</time>
      </trkpt>
      <trkpt lat="47.89013" lon="5.32925">
        <ele>324.2802</ele>
        <time>2014-08-04T14:41:24Z</time>
      </trkpt>
      <trkpt lat="47.89008" lon="5.3293">
        <ele>323.8166</ele>
        <time>2014-08-04T14:41:25Z</time>
      </trkpt>
      <trkpt lat="47.89003" lon="5.32934">
        <ele>322.0301</ele>
        <time>2014-08-04T14:41:26Z</time>
      </trkpt>
      <trkpt lat="47.88999" lon="5.32939">
        <ele>324.2686</ele>
        <time>2014-08-04T14:41:27Z</time>
      </trkpt>
      <trkpt lat="47.88994" lon="5.32943">
        <ele>321.7025</ele>
        <time>2014-08-04T14:41:28Z</time>
      </trkpt>
      <trkpt lat="47.88987" lon="5.32949">
        <ele>323.3707</ele>
        <time>2014-08-04T14:41:30Z</time>
      </trkpt>
      <trkpt lat="47.88983" lon="5.32953">
        <ele>322.7788</ele>
        <time>2014-08-04T14:41:31Z</time>
      </trkpt>
      <trkpt lat="47.88979" lon="5.32957">
        <ele>324.5419</ele>
        <time>2014-08-04T14:41:32Z</time>
      </trkpt>
      <trkpt lat="47.88974" lon="5.32962">
        <ele>323.6752</ele>
        <time>2014-08-04T14:41:33Z</time>
      </trkpt>
      <trkpt lat="47.8897" lon="5.32966">
        <ele>321.2773</ele>
        <time>2014-08-04T14:41:34Z</time>
      </trkpt>
      <trkpt lat="47.88966" lon="5.3297">
        <ele>322.1755</ele>
        <time>2014-08-04T14:41:35Z</time>
      </trkpt>
      <trkpt lat="47.88962" lon="5.32973">
        <ele>321.1512</ele>
        <time>2014-08-04T14:41:36Z</time>
      </trkpt>
      <trkpt lat="47.88955" lon="5.32979">
        <ele>323.2841</ele>
        <time>2014-08-04T14:41:38Z</time>
      </trkpt>
      <trkpt lat="47.88946" lon="5.32985">
        <ele>321.8278</ele>
        <time>2014-08-04T14:41:40Z</time>
      </trkpt>
      <trkpt lat="47.88942" lon="5.32988">
        <ele>321.098</ele>
        <time>2014-08-04T14:41:41Z</time>
      </trkpt>
      <trkpt lat="47.88937" lon="5.32992">
        <ele>319.5246</ele>
        <time>2014-08-04T14:41:42Z</time>
      </trkpt>
      <trkpt lat="47.88933" lon="5.32996">
        <ele>317.0068</ele>
        <time>2014-08-04T14:41:43Z</time>
      </trkpt>
      <trkpt lat="47.88929" lon="5.33">
        <ele>314.545</ele>
        <time>2014-08-04T14:41:44Z</time>
      </trkpt>
      <trkpt lat="47.88924" lon="5.33004">
        <ele>312.2273</ele>
        <time>2014-08-04T14:41:45Z</time>
      </trkpt>
      <trkpt lat="47.88916" lon="5.33013">
        <ele>310.0131</ele>
        <time>2014-08-04T14:41:47Z</time>
      </trkpt>
      <trkpt lat="47.88911" lon="5.33018">
        <ele>315.2324</ele>
        <time>2014-08-04T14:41:48Z</time>
      </trkpt>
      <trkpt lat="47.88906" lon="5.33023">
        <ele>314.4597</ele>
        <time>2014-08-04T14:41:49Z</time>
      </trkpt>
      <trkpt lat="47.88901" lon="5.33028">
        <ele>312.831</ele>
        <time>2014-08-04T14:41:50Z</time>
      </trkpt>
      <trkpt lat="47.88896" lon="5.33032">
        <ele>317.6787</ele>
        <time>2014-08-04T14:41:51Z</time>
      </trkpt>
      <trkpt lat="47.88891" lon="5.33035">
        <ele>321.6023</ele>
        <time>2014-08-04T14:41:52Z</time>
      </trkpt>
      <trkpt lat="47.88886" lon="5.33039">
        <ele>324.2058</ele>
        <time>2014-08-04T14:41:53Z</time>
      </trkpt>
      <trkpt lat="47.88881" lon="5.33044">
        <ele>323.5954</ele>
        <time>2014-08-04T14:41:54Z</time>
      </trkpt>
      <trkpt lat="47.88875" lon="5.33048">
        <ele>321.6847</ele>
        <time>2014-08-04T14:41:55Z</time>
      </trkpt>
      <trkpt lat="47.8887" lon="5.33053">
        <ele>316.8579</ele>
        <time>2014-08-04T14:41:56Z</time>
      </trkpt>
      <trkpt lat="47.88865" lon="5.33057">
        <ele>317.6858</ele>
        <time>2014-08-04T14:41:57Z</time>
      </trkpt>
      <trkpt lat="47.8886" lon="5.33061">
        <ele>316.8977</ele>
        <time>2014-08-04T14:41:58Z</time>
      </trkpt>
      <trkpt lat="47.88856" lon="5.33066">
        <ele>316.7238</ele>
        <time>2014-08-04T14:41:59Z</time>
      </trkpt>
      <trkpt lat="47.88852" lon="5.3307">
        <ele>315.0771</ele>
        <time>2014-08-04T14:42:00Z</time>
      </trkpt>
      <trkpt lat="47.88847" lon="5.33074">
        <ele>313.9777</ele>
        <time>2014-08-04T14:42:01Z</time>
      </trkpt>
      <trkpt lat="47.88842" lon="5.33079">
        <ele>309.9312</ele>
        <time>2014-08-04T14:42:02Z</time>
      </trkpt>
      <trkpt lat="47.88837" lon="5.33084">
        <ele>311.7822</ele>
        <time>2014-08-04T14:42:03Z</time>
      </trkpt>
      <trkpt lat="47.88832" lon="5.33088">
        <ele>313.6318</ele>
        <time>2014-08-04T14:42:04Z</time>
      </trkpt>
      <trkpt lat="47.88828" lon="5.33092">
        <ele>313.7075</ele>
        <time>2014-08-04T14:42:05Z</time>
      </trkpt>
      <trkpt lat="47.88824" lon="5.33096">
        <ele>311.9504</ele>
        <time>2014-08-04T14:42:06Z</time>
      </trkpt>
      <trkpt lat="47.88818" lon="5.33101">
        <ele>311.381</ele>
        <time>2014-08-04T14:42:07Z</time>
      </trkpt>
      <trkpt lat="47.88813" lon="5.33107">
        <ele>309.8185</ele>
        <time>2014-08-04T14:42:08Z</time>
      </trkpt>
      <trkpt lat="47.88808" lon="5.33112">
        <ele>307.1935</ele>
        <time>2014-08-04T14:42:09Z</time>
      </trkpt>
      <trkpt lat="47.88804" lon="5.33116">
        <ele>311.9968</ele>
        <time>2014-08-04T14:42:10Z</time>
      </trkpt>
      <trkpt lat="47.88799" lon="5.33121">
        <ele>310.0362</ele>
        <time>2014-08-04T14:42:11Z</time>
      </trkpt>
      <trkpt lat="47.88794" lon="5.33125">
        <ele>311.4478</ele>
        <time>2014-08-04T14:42:12Z</time>
      </trkpt>
      <trkpt lat="47.88789" lon="5.3313">
        <ele>315.1628</ele>
        <time>2014-08-04T14:42:13Z</time>
      </trkpt>
      <trkpt lat="47.88783" lon="5.33136">
        <ele>314.2222</ele>
        <time>2014-08-04T14:42:14Z</time>
      </trkpt>
      <trkpt lat="47.88778" lon="5.33142">
        <ele>316.1252</ele>
        <time>2014-08-04T14:42:15Z</time>
      </trkpt>
      <trkpt lat="47.88772" lon="5.33147">
        <ele>314.4843</ele>
        <time>2014-08-04T14:42:16Z</time>
      </trkpt>
      <trkpt lat="47.88768" lon="5.33151">
        <ele>317.0874</ele>
        <time>2014-08-04T14:42:17Z</time>
      </trkpt>
      <trkpt lat="47.88763" lon="5.33155">
        <ele>319.3839</ele>
        <time>2014-08-04T14:42:18Z</time>
      </trkpt>
      <trkpt lat="47.88759" lon="5.33159">
        <ele>321.2744</ele>
        <time>2014-08-04T14:42:19Z</time>
      </trkpt>
      <trkpt lat="47.88754" lon="5.33164">
        <ele>321.6484</ele>
        <time>2014-08-04T14:42:20Z</time>
      </trkpt>
      <trkpt lat="47.88748" lon="5.33169">
        <ele>322.6414</ele>
        <time>2014-08-04T14:42:21Z</time>
      </trkpt>
      <trkpt lat="47.88742" lon="5.33174">
        <ele>323.0569</ele>
        <time>2014-08-04T14:42:22Z</time>
      </trkpt>
      <trkpt lat="47.88738" lon="5.33178">
        <ele>321.099</ele>
        <time>2014-08-04T14:42:23Z</time>
      </trkpt>
      <trkpt lat="47.88733" lon="5.33183">
        <ele>319.96</ele>
        <time>2014-08-04T14:42:24Z</time>
      </trkpt>
      <trkpt lat="47.88729" lon="5.33187">
        <ele>320.7364</ele>
        <time>2014-08-04T14:42:25Z</time>
      </trkpt>
      <trkpt lat="47.88724" lon="5.33191">
        <ele>322.4984</ele>
        <time>2014-08-04T14:42:26Z</time>
      </trkpt>
      <trkpt lat="47.88718" lon="5.33195">
        <ele>321.6409</ele>
        <time>2014-08-04T14:42:27Z</time>
      </trkpt>
      <trkpt lat="47.88714" lon="5.332">
        <ele>323.3184</ele>
        <time>2014-08-04T14:42:28Z</time>
      </trkpt>
      <trkpt lat="47.88708" lon="5.33204">
        <ele>319.4921</ele>
        <time>2014-08-04T14:42:29Z</time>
      </trkpt>
      <trkpt lat="47.88702" lon="5.33209">
        <ele>317.511</ele>
        <time>2014-08-04T14:42:30Z</time>
      </trkpt>
      <trkpt lat="47.88697" lon="5.33214">
        <ele>314.4271</ele>
        <time>2014-08-04T14:42:31Z</time>
      </trkpt>
      <trkpt lat="47.88692" lon="5.33218">
        <ele>314.7217</ele>
        <time>2014-08-04T14:42:32Z</time>
      </trkpt>
      <trkpt lat="47.88686" lon="5.33223">
        <ele>314.2238</ele>
        <time>2014-08-04T14:42:33Z</time>
      </trkpt>
      <trkpt lat="47.88681" lon="5.33229">
        <ele>315.7281</ele>
        <time>2014-08-04T14:42:34Z</time>
      </trkpt>
      <trkpt lat="47.88677" lon="5.33233">
        <ele>316.943</ele>
        <time>2014-08-04T14:42:35Z</time>
      </trkpt>
      <trkpt lat="47.88672" lon="5.33238">
        <ele>319.9385</ele>
        <time>2014-08-04T14:42:36Z</time>
      </trkpt>
      <trkpt lat="47.88666" lon="5.33242">
        <ele>318.9741</ele>
        <time>2014-08-04T14:42:37Z</time>
      </trkpt>
      <trkpt lat="47.88661" lon="5.33247">
        <ele>316.7686</ele>
        <time>2014-08-04T14:42:38Z</time>
      </trkpt>
      <trkpt lat="47.88656" lon="5.33253">
        <ele>316.1288</ele>
        <time>2014-08-04T14:42:39Z</time>
      </trkpt>
      <trkpt lat="47.88651" lon="5.33258">
        <ele>315.1306</ele>
        <time>2014-08-04T14:42:40Z</time>
      </trkpt>
      <trkpt lat="47.88646" lon="5.33263">
        <ele>316.2201</ele>
        <time>2014-08-04T14:42:41Z</time>
      </trkpt>
      <trkpt lat="47.88642" lon="5.33268">
        <ele>316.2703</ele>
        <time>2014-08-04T14:42:42Z</time>
      </trkpt>
      <trkpt lat="47.88638" lon="5.33273">
        <ele>314.7309</ele>
        <time>2014-08-04T14:42:43Z</time>
      </trkpt>
      <trkpt lat="47.88633" lon="5.33279">
        <ele>317.6933</ele>
        <time>2014-08-04T14:42:44Z</time>
      </trkpt>
      <trkpt lat="47.88629" lon="5.33285">
        <ele>317.6805</ele>
        <time>2014-08-04T14:42:45Z</time>
      </trkpt>
      <trkpt lat="47.88624" lon="5.33291">
        <ele>320.3596</ele>
        <time>2014-08-04T14:42:46Z</time>
      </trkpt>
      <trkpt lat="47.8862" lon="5.33297">
        <ele>320.983</ele>
        <time>2014-08-04T14:42:47Z</time>
      </trkpt>
      <trkpt lat="47.88615" lon="5.33302">
        <ele>324.0861</ele>
        <time>2014-08-04T14:42:48Z</time>
      </trkpt>
      <trkpt lat="47.8861" lon="5.33306">
        <ele>326.2705</ele>
        <time>2014-08-04T14:42:49Z</time>
      </trkpt>
      <trkpt lat="47.88605" lon="5.3331">
        <ele>325.981</ele>
        <time>2014-08-04T14:42:50Z</time>
      </trkpt>
      <trkpt lat="47.88601" lon="5.33315">
        <ele>326.031</ele>
        <time>2014-08-04T14:42:51Z</time>
      </trkpt>
      <trkpt lat="47.88597" lon="5.33321">
        <ele>324.6043</ele>
        <time>2014-08-04T14:42:52Z</time>
      </trkpt>
      <trkpt lat="47.88594" lon="5.33325">
        <ele>324.7134</ele>
        <time>2014-08-04T14:42:53Z</time>
      </trkpt>
      <trkpt lat="47.8859" lon="5.33331">
        <ele>326.4613</ele>
        <time>2014-08-04T14:42:54Z</time>
      </trkpt>
      <trkpt lat="47.88584" lon="5.33336">
        <ele>324.2804</ele>
        <time>2014-08-04T14:42:55Z</time>
      </trkpt>
      <trkpt lat="47.88579" lon="5.33341">
        <ele>327.6829</ele>
        <time>2014-08-04T14:42:56Z</time>
      </trkpt>
      <trkpt lat="47.88575" lon="5.33347">
        <ele>331.4047</ele>
        <time>2014-08-04T14:42:57Z</time>
      </trkpt>
      <trkpt lat="47.88571" lon="5.33353">
        <ele>333.4141</ele>
        <time>2014-08-04T14:42:58Z</time>
      </trkpt>
      <trkpt lat="47.88569" lon="5.33359">
        <ele>332.3997</ele>
        <time>2014-08-04T14:42:59Z</time>
      </trkpt>
      <trkpt lat="47.88565" lon="5.3337">
        <ele>327.7055</ele>
        <time>2014-08-04T14:43:01Z</time>
      </trkpt>
      <trkpt lat="47.88563" lon="5.33381">
        <ele>323.2747</ele>
        <time>2014-08-04T14:43:03Z</time>
      </trkpt>
      <trkpt lat="47.88561" lon="5.33391">
        <ele>321.904</ele>
        <time>2014-08-04T14:43:05Z</time>
      </trkpt>
      <trkpt lat="47.88557" lon="5.33398">
        <ele>324.8572</ele>
        <time>2014-08-04T14:43:07Z</time>
      </trkpt>
      <trkpt lat="47.88551" lon="5.33408">
        <ele>321.278</ele>
        <time>2014-08-04T14:43:09Z</time>
      </trkpt>
      <trkpt lat="47.88545" lon="5.33417">
        <ele>322.8033</ele>
        <time>2014-08-04T14:43:11Z</time>
      </trkpt>
      <trkpt lat="47.88539" lon="5.33426">
        <ele>322.5832</ele>
        <time>2014-08-04T14:43:13Z</time>
      </trkpt>
      <trkpt lat="47.88536" lon="5.33431">
        <ele>321.6557</ele>
        <time>2014-08-04T14:43:14Z</time>
      </trkpt>
      <trkpt lat="47.88532" lon="5.33437">
        <ele>320.3464</ele>
        <time>2014-08-04T14:43:15Z</time>
      </trkpt>
      <trkpt lat="47.88529" lon="5.33443">
        <ele>321.5758</ele>
        <time>2014-08-04T14:43:16Z</time>
      </trkpt>
      <trkpt lat="47.88525" lon="5.33448">
        <ele>319.6942</ele>
        <time>2014-08-04T14:43:17Z</time>
      </trkpt>
      <trkpt lat="47.88522" lon="5.33453">
        <ele>320.0196</ele>
        <time>2014-08-04T14:43:18Z</time>
      </trkpt>
      <trkpt lat="47.88516" lon="5.33463">
        <ele>324.2388</ele>
        <time>2014-08-04T14:43:20Z</time>
      </trkpt>
      <trkpt lat="47.88513" lon="5.33468">
        <ele>326.4103</ele>
        <time>2014-08-04T14:43:21Z</time>
      </trkpt>
      <trkpt lat="47.88509" lon="5.33473">
        <ele>328.4869</ele>
        <time>2014-08-04T14:43:22Z</time>
      </trkpt>
      <trkpt lat="47.88506" lon="5.33478">
        <ele>325.7356</ele>
        <time>2014-08-04T14:43:23Z</time>
      </trkpt>
      <trkpt lat="47.88503" lon="5.33483">
        <ele>328.9823</ele>
        <time>2014-08-04T14:43:24Z</time>
      </trkpt>
      <trkpt lat="47.88499" lon="5.33488">
        <ele>328.1325</ele>
        <time>2014-08-04T14:43:25Z</time>
      </trkpt>
      <trkpt lat="47.88496" lon="5.33493">
        <ele>325.6992</ele>
        <time>2014-08-04T14:43:26Z</time>
      </trkpt>
      <trkpt lat="47.88493" lon="5.33497">
        <ele>323.7405</ele>
        <time>2014-08-04T14:43:27Z</time>
      </trkpt>
      <trkpt lat="47.88489" lon="5.33505">
        <ele>327.9109</ele>
        <time>2014-08-04T14:43:29Z</time>
      </trkpt>
      <trkpt lat="47.88482" lon="5.33512">
        <ele>329.3475</ele>
        <time>2014-08-04T14:43:31Z</time>
      </trkpt>
      <trkpt lat="47.88479" lon="5.33516">
        <ele>328.1715</ele>
        <time>2014-08-04T14:43:32Z</time>
      </trkpt>
      <trkpt lat="47.88471" lon="5.33524">
        <ele>327.972</ele>
        <time>2014-08-04T14:43:34Z</time>
      </trkpt>
      <trkpt lat="47.88467" lon="5.33529">
        <ele>327.7763</ele>
        <time>2014-08-04T14:43:35Z</time>
      </trkpt>
      <trkpt lat="47.88461" lon="5.33539">
        <ele>330.2974</ele>
        <time>2014-08-04T14:43:37Z</time>
      </trkpt>
      <trkpt lat="47.88458" lon="5.33544">
        <ele>328.2687</ele>
        <time>2014-08-04T14:43:38Z</time>
      </trkpt>
      <trkpt lat="47.88452" lon="5.33554">
        <ele>328.0088</ele>
        <time>2014-08-04T14:43:40Z</time>
      </trkpt>
      <trkpt lat="47.88448" lon="5.33558">
        <ele>328.4843</ele>
        <time>2014-08-04T14:43:41Z</time>
      </trkpt>
      <trkpt lat="47.88445" lon="5.33564">
        <ele>330.2415</ele>
        <time>2014-08-04T14:43:42Z</time>
      </trkpt>
      <trkpt lat="47.88442" lon="5.3357">
        <ele>331.1638</ele>
        <time>2014-08-04T14:43:43Z</time>
      </trkpt>
      <trkpt lat="47.88438" lon="5.33575">
        <ele>329.2198</ele>
        <time>2014-08-04T14:43:44Z</time>
      </trkpt>
      <trkpt lat="47.88433" lon="5.33584">
        <ele>329.0482</ele>
        <time>2014-08-04T14:43:46Z</time>
      </trkpt>
      <trkpt lat="47.88429" lon="5.33589">
        <ele>326.7302</ele>
        <time>2014-08-04T14:43:47Z</time>
      </trkpt>
      <trkpt lat="47.88425" lon="5.33594">
        <ele>322.662</ele>
        <time>2014-08-04T14:43:48Z</time>
      </trkpt>
      <trkpt lat="47.88419" lon="5.33603">
        <ele>324.8697</ele>
        <time>2014-08-04T14:43:50Z</time>
      </trkpt>
      <trkpt lat="47.88415" lon="5.33609">
        <ele>320.3596</ele>
        <time>2014-08-04T14:43:51Z</time>
      </trkpt>
      <trkpt lat="47.88412" lon="5.33614">
        <ele>319.5491</ele>
        <time>2014-08-04T14:43:52Z</time>
      </trkpt>
      <trkpt lat="47.88408" lon="5.3362">
        <ele>317.7165</ele>
        <time>2014-08-04T14:43:53Z</time>
      </trkpt>
      <trkpt lat="47.88404" lon="5.33625">
        <ele>317.7216</ele>
        <time>2014-08-04T14:43:54Z</time>
      </trkpt>
      <trkpt lat="47.884" lon="5.3363">
        <ele>318.862</ele>
        <time>2014-08-04T14:43:55Z</time>
      </trkpt>
      <trkpt lat="47.88397" lon="5.33635">
        <ele>318.0918</ele>
        <time>2014-08-04T14:43:56Z</time>
      </trkpt>
      <trkpt lat="47.88393" lon="5.3364">
        <ele>317.9918</ele>
        <time>2014-08-04T14:43:57Z</time>
      </trkpt>
      <trkpt lat="47.8839" lon="5.33646">
        <ele>318.7185</ele>
        <time>2014-08-04T14:43:58Z</time>
      </trkpt>
      <trkpt lat="47.88387" lon="5.33651">
        <ele>318.1396</ele>
        <time>2014-08-04T14:43:59Z</time>
      </trkpt>
      <trkpt lat="47.88384" lon="5.33656">
        <ele>315.2182</ele>
        <time>2014-08-04T14:44:00Z</time>
      </trkpt>
      <trkpt lat="47.88376" lon="5.33666">
        <ele>316.9547</ele>
        <time>2014-08-04T14:44:02Z</time>
      </trkpt>
      <trkpt lat="47.88372" lon="5.33672">
        <ele>314.2003</ele>
        <time>2014-08-04T14:44:03Z</time>
      </trkpt>
      <trkpt lat="47.88369" lon="5.33678">
        <ele>315.9363</ele>
        <time>2014-08-04T14:44:04Z</time>
      </trkpt>
      <trkpt lat="47.88366" lon="5.33684">
        <ele>316.7901</ele>
        <time>2014-08-04T14:44:05Z</time>
      </trkpt>
      <trkpt lat="47.88363" lon="5.3369">
        <ele>320.4876</ele>
        <time>2014-08-04T14:44:06Z</time>
      </trkpt>
      <trkpt lat="47.8836" lon="5.33695">
        <ele>322.5663</ele>
        <time>2014-08-04T14:44:07Z</time>
      </trkpt>
      <trkpt lat="47.88356" lon="5.33701">
        <ele>321.5931</ele>
        <time>2014-08-04T14:44:08Z</time>
      </trkpt>
      <trkpt lat="47.88352" lon="5.33706">
        <ele>317.7451</ele>
        <time>2014-08-04T14:44:09Z</time>
      </trkpt>
      <trkpt lat="47.88349" lon="5.33711">
        <ele>321.2974</ele>
        <time>2014-08-04T14:44:10Z</time>
      </trkpt>
      <trkpt lat="47.88347" lon="5.33717">
        <ele>320.0807</ele>
        <time>2014-08-04T14:44:11Z</time>
      </trkpt>
      <trkpt lat="47.88343" lon="5.33723">
        <ele>319.7285</ele>
        <time>2014-08-04T14:44:12Z</time>
      </trkpt>
      <trkpt lat="47.88338" lon="5.33733">
        <ele>313.8571</ele>
        <time>2014-08-04T14:44:14Z</time>
      </trkpt>
      <trkpt lat="47.88335" lon="5.33739">
        <ele>316.5761</ele>
        <time>2014-08-04T14:44:15Z</time>
      </trkpt>
      <trkpt lat="47.88331" lon="5.33745">
        <ele>314.9406</ele>
        <time>2014-08-04T14:44:16Z</time>
      </trkpt>
      <trkpt lat="47.88328" lon="5.33751">
        <ele>318.7998</ele>
        <time>2014-08-04T14:44:17Z</time>
      </trkpt>
      <trkpt lat="47.88324" lon="5.33756">
        <ele>320.8384</ele>
        <time>2014-08-04T14:44:18Z</time>
      </trkpt>
      <trkpt lat="47.88321" lon="5.33762">
        <ele>326.2033</ele>
        <time>2014-08-04T14:44:19Z</time>
      </trkpt>
      <trkpt lat="47.88316" lon="5.33767">
        <ele>328.5134</ele>
        <time>2014-08-04T14:44:20Z</time>
      </trkpt>
      <trkpt lat="47.88311" lon="5.33773">
        <ele>328.2166</ele>
        <time>2014-08-04T14:44:21Z</time>
      </trkpt>
      <trkpt lat="47.88306" lon="5.33778">
        <ele>325.9079</ele>
        <time>2014-08-04T14:44:22Z</time>
      </trkpt>
      <trkpt lat="47.88302" lon="5.33784">
        <ele>326.031</ele>
        <time>2014-08-04T14:44:23Z</time>
      </trkpt>
      <trkpt lat="47.88298" lon="5.33789">
        <ele>327.4142</ele>
        <time>2014-08-04T14:44:24Z</time>
      </trkpt>
      <trkpt lat="47.88294" lon="5.33796">
        <ele>324.8217</ele>
        <time>2014-08-04T14:44:25Z</time>
      </trkpt>
      <trkpt lat="47.8829" lon="5.33801">
        <ele>326.7908</ele>
        <time>2014-08-04T14:44:26Z</time>
      </trkpt>
      <trkpt lat="47.88287" lon="5.33807">
        <ele>328.9951</ele>
        <time>2014-08-04T14:44:27Z</time>
      </trkpt>
      <trkpt lat="47.88283" lon="5.33813">
        <ele>328.5143</ele>
        <time>2014-08-04T14:44:28Z</time>
      </trkpt>
      <trkpt lat="47.88281" lon="5.3382">
        <ele>332.8559</ele>
        <time>2014-08-04T14:44:29Z</time>
      </trkpt>
      <trkpt lat="47.88278" lon="5.33828">
        <ele>329.1703</ele>
        <time>2014-08-04T14:44:30Z</time>
      </trkpt>
      <trkpt lat="47.88277" lon="5.33837">
        <ele>329.9415</ele>
        <time>2014-08-04T14:44:31Z</time>
      </trkpt>
      <trkpt lat="47.88275" lon="5.33843">
        <ele>331.2841</ele>
        <time>2014-08-04T14:44:32Z</time>
      </trkpt>
      <trkpt lat="47.88273" lon="5.33851">
        <ele>328.692</ele>
        <time>2014-08-04T14:44:33Z</time>
      </trkpt>
      <trkpt lat="47.8827" lon="5.33857">
        <ele>327.9046</ele>
        <time>2014-08-04T14:44:34Z</time>
      </trkpt>
      <trkpt lat="47.88264" lon="5.33863">
        <ele>326.6865</ele>
        <time>2014-08-04T14:44:36Z</time>
      </trkpt>
      <trkpt lat="47.88258" lon="5.33866">
        <ele>328.7726</ele>
        <time>2014-08-04T14:44:38Z</time>
      </trkpt>
      <trkpt lat="47.88253" lon="5.33868">
        <ele>327.8997</ele>
        <time>2014-08-04T14:44:39Z</time>
      </trkpt>
      <trkpt lat="47.88247" lon="5.33869">
        <ele>324.8761</ele>
        <time>2014-08-04T14:44:40Z</time>
      </trkpt>
      <trkpt lat="47.88242" lon="5.33872">
        <ele>323.0686</ele>
        <time>2014-08-04T14:44:41Z</time>
      </trkpt>
      <trkpt lat="47.88238" lon="5.33877">
        <ele>321.6897</ele>
        <time>2014-08-04T14:44:42Z</time>
      </trkpt>
      <trkpt lat="47.88234" lon="5.33882">
        <ele>318.3087</ele>
        <time>2014-08-04T14:44:43Z</time>
      </trkpt>
      <trkpt lat="47.88229" lon="5.33887">
        <ele>317.8378</ele>
        <time>2014-08-04T14:44:44Z</time>
      </trkpt>
      <trkpt lat="47.88225" lon="5.33892">
        <ele>317.0139</ele>
        <time>2014-08-04T14:44:45Z</time>
      </trkpt>
      <trkpt lat="47.88221" lon="5.33897">
        <ele>317.339</ele>
        <time>2014-08-04T14:44:46Z</time>
      </trkpt>
      <trkpt lat="47.88214" lon="5.33906">
        <ele>321.9571</ele>
        <time>2014-08-04T14:44:48Z</time>
      </trkpt>
      <trkpt lat="47.8821" lon="5.33911">
        <ele>318.5849</ele>
        <time>2014-08-04T14:44:49Z</time>
      </trkpt>
      <trkpt lat="47.88205" lon="5.33916">
        <ele>321.5494</ele>
        <time>2014-08-04T14:44:50Z</time>
      </trkpt>
      <trkpt lat="47.88202" lon="5.33922">
        <ele>328.7594</ele>
        <time>2014-08-04T14:44:51Z</time>
      </trkpt>
      <trkpt lat="47.88195" lon="5.33933">
        <ele>327.3764</ele>
        <time>2014-08-04T14:44:53Z</time>
      </trkpt>
      <trkpt lat="47.88191" lon="5.33939">
        <ele>329.3165</ele>
        <time>2014-08-04T14:44:54Z</time>
      </trkpt>
      <trkpt lat="47.88188" lon="5.33944">
        <ele>333.283</ele>
        <time>2014-08-04T14:44:55Z</time>
      </trkpt>
      <trkpt lat="47.88184" lon="5.33949">
        <ele>333.372</ele>
        <time>2014-08-04T14:44:56Z</time>
      </trkpt>
      <trkpt lat="47.88181" lon="5.33955">
        <ele>334.6862</ele>
        <time>2014-08-04T14:44:57Z</time>
      </trkpt>
      <trkpt lat="47.88177" lon="5.3396">
        <ele>332.2619</ele>
        <time>2014-08-04T14:44:58Z</time>
      </trkpt>
      <trkpt lat="47.88173" lon="5.33966">
        <ele>329.9828</ele>
        <time>2014-08-04T14:44:59Z</time>
      </trkpt>
      <trkpt lat="47.88169" lon="5.33973">
        <ele>328.1511</ele>
        <time>2014-08-04T14:45:00Z</time>
      </trkpt>
      <trkpt lat="47.88166" lon="5.33978">
        <ele>325.9963</ele>
        <time>2014-08-04T14:45:01Z</time>
      </trkpt>
      <trkpt lat="47.88163" lon="5.33985">
        <ele>324.5507</ele>
        <time>2014-08-04T14:45:02Z</time>
      </trkpt>
      <trkpt lat="47.8816" lon="5.3399">
        <ele>327.159</ele>
        <time>2014-08-04T14:45:03Z</time>
      </trkpt>
      <trkpt lat="47.88157" lon="5.33996">
        <ele>327.5177</ele>
        <time>2014-08-04T14:45:04Z</time>
      </trkpt>
      <trkpt lat="47.88154" lon="5.34003">
        <ele>330.6935</ele>
        <time>2014-08-04T14:45:05Z</time>
      </trkpt>
      <trkpt lat="47.88151" lon="5.34009">
        <ele>329.0774</ele>
        <time>2014-08-04T14:45:06Z</time>
      </trkpt>
      <trkpt lat="47.88148" lon="5.34014">
        <ele>326.9288</ele>
        <time>2014-08-04T14:45:07Z</time>
      </trkpt>
      <trkpt lat="47.88145" lon="5.34019">
        <ele>329.0099</ele>
        <time>2014-08-04T14:45:08Z</time>
      </trkpt>
      <trkpt lat="47.88142" lon="5.34025">
        <ele>329.068</ele>
        <time>2014-08-04T14:45:09Z</time>
      </trkpt>
      <trkpt lat="47.88139" lon="5.34031">
        <ele>329.6477</ele>
        <time>2014-08-04T14:45:10Z</time>
      </trkpt>
      <trkpt lat="47.88136" lon="5.34037">
        <ele>329.8242</ele>
        <time>2014-08-04T14:45:11Z</time>
      </trkpt>
      <trkpt lat="47.88132" lon="5.34043">
        <ele>328.8752</ele>
        <time>2014-08-04T14:45:12Z</time>
      </trkpt>
      <trkpt lat="47.88129" lon="5.34048">
        <ele>326.385</ele>
        <time>2014-08-04T14:45:13Z</time>
      </trkpt>
      <trkpt lat="47.88126" lon="5.34053">
        <ele>325.0038</ele>
        <time>2014-08-04T14:45:14Z</time>
      </trkpt>
      <trkpt lat="47.88123" lon="5.34058">
        <ele>323.8883</ele>
        <time>2014-08-04T14:45:15Z</time>
      </trkpt>
      <trkpt lat="47.8812" lon="5.34064">
        <ele>322.8797</ele>
        <time>2014-08-04T14:45:16Z</time>
      </trkpt>
      <trkpt lat="47.88117" lon="5.3407">
        <ele>321.6038</ele>
        <time>2014-08-04T14:45:17Z</time>
      </trkpt>
      <trkpt lat="47.88113" lon="5.34076">
        <ele>319.7489</ele>
        <time>2014-08-04T14:45:18Z</time>
      </trkpt>
      <trkpt lat="47.8811" lon="5.34082">
        <ele>321.5842</ele>
        <time>2014-08-04T14:45:19Z</time>
      </trkpt>
      <trkpt lat="47.88107" lon="5.34088">
        <ele>319.2255</ele>
        <time>2014-08-04T14:45:20Z</time>
      </trkpt>
      <trkpt lat="47.88104" lon="5.34094">
        <ele>317.5866</ele>
        <time>2014-08-04T14:45:21Z</time>
      </trkpt>
      <trkpt lat="47.881" lon="5.341">
        <ele>317.7732</ele>
        <time>2014-08-04T14:45:22Z</time>
      </trkpt>
      <trkpt lat="47.88097" lon="5.34106">
        <ele>316.3319</ele>
        <time>2014-08-04T14:45:23Z</time>
      </trkpt>
      <trkpt lat="47.88094" lon="5.34112">
        <ele>317.921</ele>
        <time>2014-08-04T14:45:24Z</time>
      </trkpt>
      <trkpt lat="47.88091" lon="5.34118">
        <ele>321.2787</ele>
        <time>2014-08-04T14:45:25Z</time>
      </trkpt>
      <trkpt lat="47.88087" lon="5.34124">
        <ele>318.3358</ele>
        <time>2014-08-04T14:45:26Z</time>
      </trkpt>
      <trkpt lat="47.88084" lon="5.3413">
        <ele>317.5933</ele>
        <time>2014-08-04T14:45:27Z</time>
      </trkpt>
      <trkpt lat="47.88081" lon="5.34136">
        <ele>321.7138</ele>
        <time>2014-08-04T14:45:28Z</time>
      </trkpt>
      <trkpt lat="47.88078" lon="5.34142">
        <ele>324.3189</ele>
        <time>2014-08-04T14:45:29Z</time>
      </trkpt>
      <trkpt lat="47.88076" lon="5.34148">
        <ele>325.4998</ele>
        <time>2014-08-04T14:45:30Z</time>
      </trkpt>
      <trkpt lat="47.88072" lon="5.34155">
        <ele>324.6502</ele>
        <time>2014-08-04T14:45:31Z</time>
      </trkpt>
      <trkpt lat="47.88069" lon="5.34161">
        <ele>324.3602</ele>
        <time>2014-08-04T14:45:32Z</time>
      </trkpt>
      <trkpt lat="47.88066" lon="5.34167">
        <ele>323.9351</ele>
        <time>2014-08-04T14:45:33Z</time>
      </trkpt>
      <trkpt lat="47.88063" lon="5.34173">
        <ele>323.4489</ele>
        <time>2014-08-04T14:45:34Z</time>
      </trkpt>
      <trkpt lat="47.8806" lon="5.3418">
        <ele>324.7523</ele>
        <time>2014-08-04T14:45:35Z</time>
      </trkpt>
      <trkpt lat="47.88057" lon="5.34185">
        <ele>325.1557</ele>
        <time>2014-08-04T14:45:36Z</time>
      </trkpt>
      <trkpt lat="47.88053" lon="5.3419">
        <ele>325.0599</ele>
        <time>2014-08-04T14:45:37Z</time>
      </trkpt>
      <trkpt lat="47.8805" lon="5.34195">
        <ele>325.4233</ele>
        <time>2014-08-04T14:45:38Z</time>
      </trkpt>
      <trkpt lat="47.88047" lon="5.34201">
        <ele>323.8751</ele>
        <time>2014-08-04T14:45:39Z</time>
      </trkpt>
      <trkpt lat="47.88044" lon="5.34207">
        <ele>321.2796</ele>
        <time>2014-08-04T14:45:40Z</time>
      </trkpt>
      <trkpt lat="47.88041" lon="5.34214">
        <ele>321.0875</ele>
        <time>2014-08-04T14:45:41Z</time>
      </trkpt>
      <trkpt lat="47.88038" lon="5.3422">
        <ele>323.3209</ele>
        <time>2014-08-04T14:45:42Z</time>
      </trkpt>
      <trkpt lat="47.88034" lon="5.34227">
        <ele>323.7498</ele>
        <time>2014-08-04T14:45:43Z</time>
      </trkpt>
      <trkpt lat="47.88032" lon="5.34234">
        <ele>323.5655</ele>
        <time>2014-08-04T14:45:44Z</time>
      </trkpt>
      <trkpt lat="47.8803" lon="5.3424">
        <ele>324.4058</ele>
        <time>2014-08-04T14:45:45Z</time>
      </trkpt>
      <trkpt lat="47.88026" lon="5.34246">
        <ele>323.8653</ele>
        <time>2014-08-04T14:45:46Z</time>
      </trkpt>
      <trkpt lat="47.88024" lon="5.34252">
        <ele>322.1546</ele>
        <time>2014-08-04T14:45:47Z</time>
      </trkpt>
      <trkpt lat="47.88021" lon="5.34259">
        <ele>323.5995</ele>
        <time>2014-08-04T14:45:48Z</time>
      </trkpt>
      <trkpt lat="47.88018" lon="5.34265">
        <ele>320.9799</ele>
        <time>2014-08-04T14:45:49Z</time>
      </trkpt>
      <trkpt lat="47.88016" lon="5.34271">
        <ele>320.7711</ele>
        <time>2014-08-04T14:45:50Z</time>
      </trkpt>
      <trkpt lat="47.88013" lon="5.34278">
        <ele>318.3</ele>
        <time>2014-08-04T14:45:51Z</time>
      </trkpt>
      <trkpt lat="47.8801" lon="5.34285">
        <ele>319.3627</ele>
        <time>2014-08-04T14:45:52Z</time>
      </trkpt>
      <trkpt lat="47.88006" lon="5.34291">
        <ele>321.2123</ele>
        <time>2014-08-04T14:45:53Z</time>
      </trkpt>
      <trkpt lat="47.88003" lon="5.34297">
        <ele>322.9482</ele>
        <time>2014-08-04T14:45:54Z</time>
      </trkpt>
      <trkpt lat="47.88001" lon="5.34303">
        <ele>323.9285</ele>
        <time>2014-08-04T14:45:55Z</time>
      </trkpt>
      <trkpt lat="47.87997" lon="5.34309">
        <ele>324.2299</ele>
        <time>2014-08-04T14:45:56Z</time>
      </trkpt>
      <trkpt lat="47.87994" lon="5.34318">
        <ele>323.3227</ele>
        <time>2014-08-04T14:45:57Z</time>
      </trkpt>
      <trkpt lat="47.87991" lon="5.34325">
        <ele>322.4418</ele>
        <time>2014-08-04T14:45:58Z</time>
      </trkpt>
      <trkpt lat="47.87988" lon="5.34332">
        <ele>322.216</ele>
        <time>2014-08-04T14:45:59Z</time>
      </trkpt>
      <trkpt lat="47.87986" lon="5.34338">
        <ele>324.9147</ele>
        <time>2014-08-04T14:46:00Z</time>
      </trkpt>
      <trkpt lat="47.87983" lon="5.34343">
        <ele>325.605</ele>
        <time>2014-08-04T14:46:01Z</time>
      </trkpt>
      <trkpt lat="47.8798" lon="5.34349">
        <ele>324.0971</ele>
        <time>2014-08-04T14:46:02Z</time>
      </trkpt>
      <trkpt lat="47.87977" lon="5.34355">
        <ele>321.9464</ele>
        <time>2014-08-04T14:46:03Z</time>
      </trkpt>
      <trkpt lat="47.87973" lon="5.34362">
        <ele>322.928</ele>
        <time>2014-08-04T14:46:04Z</time>
      </trkpt>
      <trkpt lat="47.8797" lon="5.34368">
        <ele>321.4012</ele>
        <time>2014-08-04T14:46:05Z</time>
      </trkpt>
      <trkpt lat="47.87968" lon="5.34375">
        <ele>322.2259</ele>
        <time>2014-08-04T14:46:06Z</time>
      </trkpt>
      <trkpt lat="47.87966" lon="5.34382">
        <ele>328.4013</ele>
        <time>2014-08-04T14:46:07Z</time>
      </trkpt>
      <trkpt lat="47.87963" lon="5.34389">
        <ele>329.8923</ele>
        <time>2014-08-04T14:46:08Z</time>
      </trkpt>
      <trkpt lat="47.8796" lon="5.34396">
        <ele>330.1302</ele>
        <time>2014-08-04T14:46:09Z</time>
      </trkpt>
      <trkpt lat="47.87958" lon="5.34402">
        <ele>330.3746</ele>
        <time>2014-08-04T14:46:10Z</time>
      </trkpt>
      <trkpt lat="47.87956" lon="5.3441">
        <ele>331.9403</ele>
        <time>2014-08-04T14:46:11Z</time>
      </trkpt>
      <trkpt lat="47.87954" lon="5.34418">
        <ele>331.4777</ele>
        <time>2014-08-04T14:46:12Z</time>
      </trkpt>
      <trkpt lat="47.87952" lon="5.34425">
        <ele>333.4875</ele>
        <time>2014-08-04T14:46:13Z</time>
      </trkpt>
      <trkpt lat="47.8795" lon="5.34433">
        <ele>333.3709</ele>
        <time>2014-08-04T14:46:14Z</time>
      </trkpt>
      <trkpt lat="47.87947" lon="5.34441">
        <ele>335.804</ele>
        <time>2014-08-04T14:46:15Z</time>
      </trkpt>
      <trkpt lat="47.87945" lon="5.34448">
        <ele>334.4704</ele>
        <time>2014-08-04T14:46:16Z</time>
      </trkpt>
      <trkpt lat="47.87943" lon="5.34454">
        <ele>331.8299</ele>
        <time>2014-08-04T14:46:17Z</time>
      </trkpt>
      <trkpt lat="47.87941" lon="5.34462">
        <ele>330.4341</ele>
        <time>2014-08-04T14:46:18Z</time>
      </trkpt>
      <trkpt lat="47.87939" lon="5.34469">
        <ele>331.9391</ele>
        <time>2014-08-04T14:46:19Z</time>
      </trkpt>
      <trkpt lat="47.87936" lon="5.34478">
        <ele>331.437</ele>
        <time>2014-08-04T14:46:20Z</time>
      </trkpt>
      <trkpt lat="47.87934" lon="5.34486">
        <ele>331.1705</ele>
        <time>2014-08-04T14:46:21Z</time>
      </trkpt>
      <trkpt lat="47.87933" lon="5.34493">
        <ele>330.9121</ele>
        <time>2014-08-04T14:46:22Z</time>
      </trkpt>
      <trkpt lat="47.8793" lon="5.34506">
        <ele>329.3901</ele>
        <time>2014-08-04T14:46:24Z</time>
      </trkpt>
      <trkpt lat="47.87927" lon="5.34514">
        <ele>326.4275</ele>
        <time>2014-08-04T14:46:25Z</time>
      </trkpt>
      <trkpt lat="47.87925" lon="5.3452">
        <ele>323.8237</ele>
        <time>2014-08-04T14:46:26Z</time>
      </trkpt>
      <trkpt lat="47.87923" lon="5.34528">
        <ele>322.2776</ele>
        <time>2014-08-04T14:46:27Z</time>
      </trkpt>
      <trkpt lat="47.87922" lon="5.34536">
        <ele>321.5815</ele>
        <time>2014-08-04T14:46:28Z</time>
      </trkpt>
      <trkpt lat="47.8792" lon="5.34543">
        <ele>321.855</ele>
        <time>2014-08-04T14:46:29Z</time>
      </trkpt>
      <trkpt lat="47.87918" lon="5.34551">
        <ele>322.9566</ele>
        <time>2014-08-04T14:46:30Z</time>
      </trkpt>
      <trkpt lat="47.87915" lon="5.34559">
        <ele>320.5716</ele>
        <time>2014-08-04T14:46:31Z</time>
      </trkpt>
      <trkpt lat="47.87913" lon="5.34565">
        <ele>320.1396</ele>
        <time>2014-08-04T14:46:32Z</time>
      </trkpt>
      <trkpt lat="47.87911" lon="5.34572">
        <ele>322.3536</ele>
        <time>2014-08-04T14:46:33Z</time>
      </trkpt>
      <trkpt lat="47.87909" lon="5.34579">
        <ele>322.1135</ele>
        <time>2014-08-04T14:46:34Z</time>
      </trkpt>
      <trkpt lat="47.87906" lon="5.34585">
        <ele>322.1676</ele>
        <time>2014-08-04T14:46:35Z</time>
      </trkpt>
      <trkpt lat="47.87903" lon="5.34592">
        <ele>320.3645</ele>
        <time>2014-08-04T14:46:36Z</time>
      </trkpt>
      <trkpt lat="47.87901" lon="5.34599">
        <ele>321.1555</ele>
        <time>2014-08-04T14:46:37Z</time>
      </trkpt>
      <trkpt lat="47.87896" lon="5.34612">
        <ele>325.5158</ele>
        <time>2014-08-04T14:46:39Z</time>
      </trkpt>
      <trkpt lat="47.87894" lon="5.34619">
        <ele>324.2185</ele>
        <time>2014-08-04T14:46:40Z</time>
      </trkpt>
      <trkpt lat="47.87891" lon="5.34624">
        <ele>324.0565</ele>
        <time>2014-08-04T14:46:41Z</time>
      </trkpt>
      <trkpt lat="47.87888" lon="5.34632">
        <ele>322.5876</ele>
        <time>2014-08-04T14:46:42Z</time>
      </trkpt>
      <trkpt lat="47.87882" lon="5.34643">
        <ele>321.0342</ele>
        <time>2014-08-04T14:46:44Z</time>
      </trkpt>
      <trkpt lat="47.87879" lon="5.3465">
        <ele>324.7786</ele>
        <time>2014-08-04T14:46:45Z</time>
      </trkpt>
      <trkpt lat="47.87876" lon="5.34656">
        <ele>324.7639</ele>
        <time>2014-08-04T14:46:46Z</time>
      </trkpt>
      <trkpt lat="47.87873" lon="5.34662">
        <ele>322.7903</ele>
        <time>2014-08-04T14:46:47Z</time>
      </trkpt>
      <trkpt lat="47.87869" lon="5.34667">
        <ele>318.5758</ele>
        <time>2014-08-04T14:46:48Z</time>
      </trkpt>
      <trkpt lat="47.87865" lon="5.34675">
        <ele>324.3276</ele>
        <time>2014-08-04T14:46:49Z</time>
      </trkpt>
      <trkpt lat="47.87862" lon="5.34682">
        <ele>325.9329</ele>
        <time>2014-08-04T14:46:50Z</time>
      </trkpt>
      <trkpt lat="47.87859" lon="5.34689">
        <ele>325.0637</ele>
        <time>2014-08-04T14:46:51Z</time>
      </trkpt>
      <trkpt lat="47.87856" lon="5.34696">
        <ele>324.3452</ele>
        <time>2014-08-04T14:46:52Z</time>
      </trkpt>
      <trkpt lat="47.87849" lon="5.34705">
        <ele>319.9341</ele>
        <time>2014-08-04T14:46:54Z</time>
      </trkpt>
      <trkpt lat="47.87846" lon="5.34711">
        <ele>317.8904</ele>
        <time>2014-08-04T14:46:55Z</time>
      </trkpt>
      <trkpt lat="47.87842" lon="5.34718">
        <ele>320.8317</ele>
        <time>2014-08-04T14:46:56Z</time>
      </trkpt>
      <trkpt lat="47.87838" lon="5.34724">
        <ele>323.3495</ele>
        <time>2014-08-04T14:46:57Z</time>
      </trkpt>
      <trkpt lat="47.87835" lon="5.34729">
        <ele>324.3069</ele>
        <time>2014-08-04T14:46:58Z</time>
      </trkpt>
      <trkpt lat="47.87829" lon="5.34738">
        <ele>323.1609</ele>
        <time>2014-08-04T14:47:00Z</time>
      </trkpt>
      <trkpt lat="47.87822" lon="5.34748">
        <ele>325.9728</ele>
        <time>2014-08-04T14:47:02Z</time>
      </trkpt>
      <trkpt lat="47.87819" lon="5.34753">
        <ele>324.8004</ele>
        <time>2014-08-04T14:47:03Z</time>
      </trkpt>
      <trkpt lat="47.87814" lon="5.3476">
        <ele>319.9241</ele>
        <time>2014-08-04T14:47:04Z</time>
      </trkpt>
      <trkpt lat="47.87811" lon="5.34764">
        <ele>321.2566</ele>
        <time>2014-08-04T14:47:05Z</time>
      </trkpt>
      <trkpt lat="47.87807" lon="5.3477">
        <ele>324.1749</ele>
        <time>2014-08-04T14:47:06Z</time>
      </trkpt>
      <trkpt lat="47.87803" lon="5.34774">
        <ele>325.5738</ele>
        <time>2014-08-04T14:47:07Z</time>
      </trkpt>
      <trkpt lat="47.87798" lon="5.3478">
        <ele>326.7134</ele>
        <time>2014-08-04T14:47:08Z</time>
      </trkpt>
      <trkpt lat="47.87794" lon="5.34785">
        <ele>330.1774</ele>
        <time>2014-08-04T14:47:09Z</time>
      </trkpt>
      <trkpt lat="47.8779" lon="5.3479">
        <ele>332.7782</ele>
        <time>2014-08-04T14:47:10Z</time>
      </trkpt>
      <trkpt lat="47.87786" lon="5.34795">
        <ele>332.5609</ele>
        <time>2014-08-04T14:47:11Z</time>
      </trkpt>
      <trkpt lat="47.87782" lon="5.348">
        <ele>330.4403</ele>
        <time>2014-08-04T14:47:12Z</time>
      </trkpt>
      <trkpt lat="47.87778" lon="5.34805">
        <ele>328.5896</ele>
        <time>2014-08-04T14:47:13Z</time>
      </trkpt>
      <trkpt lat="47.87774" lon="5.34811">
        <ele>326.4349</ele>
        <time>2014-08-04T14:47:14Z</time>
      </trkpt>
      <trkpt lat="47.8777" lon="5.34816">
        <ele>331.0292</ele>
        <time>2014-08-04T14:47:15Z</time>
      </trkpt>
      <trkpt lat="47.87766" lon="5.34822">
        <ele>331.8846</ele>
        <time>2014-08-04T14:47:16Z</time>
      </trkpt>
      <trkpt lat="47.87763" lon="5.34827">
        <ele>329.1474</ele>
        <time>2014-08-04T14:47:17Z</time>
      </trkpt>
      <trkpt lat="47.87759" lon="5.34832">
        <ele>329.6013</ele>
        <time>2014-08-04T14:47:18Z</time>
      </trkpt>
      <trkpt lat="47.87754" lon="5.34837">
        <ele>329.0971</ele>
        <time>2014-08-04T14:47:19Z</time>
      </trkpt>
      <trkpt lat="47.87751" lon="5.34842">
        <ele>326.7082</ele>
        <time>2014-08-04T14:47:20Z</time>
      </trkpt>
      <trkpt lat="47.87743" lon="5.34852">
        <ele>329.8191</ele>
        <time>2014-08-04T14:47:22Z</time>
      </trkpt>
      <trkpt lat="47.87739" lon="5.34856">
        <ele>333.325</ele>
        <time>2014-08-04T14:47:23Z</time>
      </trkpt>
      <trkpt lat="47.87735" lon="5.34861">
        <ele>332.2986</ele>
        <time>2014-08-04T14:47:24Z</time>
      </trkpt>
      <trkpt lat="47.8773" lon="5.34865">
        <ele>332.1043</ele>
        <time>2014-08-04T14:47:25Z</time>
      </trkpt>
      <trkpt lat="47.87726" lon="5.3487">
        <ele>330.7126</ele>
        <time>2014-08-04T14:47:26Z</time>
      </trkpt>
      <trkpt lat="47.87722" lon="5.34876">
        <ele>332.8332</ele>
        <time>2014-08-04T14:47:27Z</time>
      </trkpt>
      <trkpt lat="47.87718" lon="5.34882">
        <ele>333.2455</ele>
        <time>2014-08-04T14:47:28Z</time>
      </trkpt>
      <trkpt lat="47.87714" lon="5.34887">
        <ele>334.0501</ele>
        <time>2014-08-04T14:47:29Z</time>
      </trkpt>
      <trkpt lat="47.8771" lon="5.34892">
        <ele>331.4698</ele>
        <time>2014-08-04T14:47:30Z</time>
      </trkpt>
      <trkpt lat="47.87706" lon="5.34896">
        <ele>329.7112</ele>
        <time>2014-08-04T14:47:31Z</time>
      </trkpt>
      <trkpt lat="47.87703" lon="5.34901">
        <ele>328.2807</ele>
        <time>2014-08-04T14:47:32Z</time>
      </trkpt>
      <trkpt lat="47.87698" lon="5.34906">
        <ele>329.5725</ele>
        <time>2014-08-04T14:47:33Z</time>
      </trkpt>
      <trkpt lat="47.87694" lon="5.34911">
        <ele>330.4435</ele>
        <time>2014-08-04T14:47:34Z</time>
      </trkpt>
      <trkpt lat="47.8769" lon="5.34916">
        <ele>329.2541</ele>
        <time>2014-08-04T14:47:35Z</time>
      </trkpt>
      <trkpt lat="47.87686" lon="5.34921">
        <ele>330.6971</ele>
        <time>2014-08-04T14:47:36Z</time>
      </trkpt>
      <trkpt lat="47.87682" lon="5.34925">
        <ele>330.3506</ele>
        <time>2014-08-04T14:47:37Z</time>
      </trkpt>
      <trkpt lat="47.87678" lon="5.3493">
        <ele>324.5213</ele>
        <time>2014-08-04T14:47:38Z</time>
      </trkpt>
      <trkpt lat="47.87674" lon="5.34935">
        <ele>320.0471</ele>
        <time>2014-08-04T14:47:39Z</time>
      </trkpt>
      <trkpt lat="47.8767" lon="5.3494">
        <ele>321.7825</ele>
        <time>2014-08-04T14:47:40Z</time>
      </trkpt>
      <trkpt lat="47.87666" lon="5.34946">
        <ele>323.9203</ele>
        <time>2014-08-04T14:47:41Z</time>
      </trkpt>
      <trkpt lat="47.87663" lon="5.34951">
        <ele>323.8355</ele>
        <time>2014-08-04T14:47:42Z</time>
      </trkpt>
      <trkpt lat="47.87659" lon="5.34957">
        <ele>326.7609</ele>
        <time>2014-08-04T14:47:43Z</time>
      </trkpt>
      <trkpt lat="47.87655" lon="5.34962">
        <ele>325.9035</ele>
        <time>2014-08-04T14:47:44Z</time>
      </trkpt>
      <trkpt lat="47.87651" lon="5.34967">
        <ele>328.3201</ele>
        <time>2014-08-04T14:47:45Z</time>
      </trkpt>
      <trkpt lat="47.87647" lon="5.34972">
        <ele>333.6503</ele>
        <time>2014-08-04T14:47:46Z</time>
      </trkpt>
      <trkpt lat="47.87643" lon="5.34978">
        <ele>333.7146</ele>
        <time>2014-08-04T14:47:47Z</time>
      </trkpt>
      <trkpt lat="47.8764" lon="5.34984">
        <ele>329.304</ele>
        <time>2014-08-04T14:47:48Z</time>
      </trkpt>
      <trkpt lat="47.87636" lon="5.3499">
        <ele>324.9763</ele>
        <time>2014-08-04T14:47:49Z</time>
      </trkpt>
      <trkpt lat="47.87633" lon="5.34995">
        <ele>323.2097</ele>
        <time>2014-08-04T14:47:50Z</time>
      </trkpt>
      <trkpt lat="47.8763" lon="5.35001">
        <ele>320.1071</ele>
        <time>2014-08-04T14:47:51Z</time>
      </trkpt>
      <trkpt lat="47.87626" lon="5.35006">
        <ele>317.5032</ele>
        <time>2014-08-04T14:47:52Z</time>
      </trkpt>
      <trkpt lat="47.87623" lon="5.3501">
        <ele>319.7114</ele>
        <time>2014-08-04T14:47:53Z</time>
      </trkpt>
      <trkpt lat="47.87619" lon="5.35014">
        <ele>318.3064</ele>
        <time>2014-08-04T14:47:54Z</time>
      </trkpt>
      <trkpt lat="47.87614" lon="5.35019">
        <ele>319.0024</ele>
        <time>2014-08-04T14:47:55Z</time>
      </trkpt>
      <trkpt lat="47.87611" lon="5.35025">
        <ele>319.2186</ele>
        <time>2014-08-04T14:47:56Z</time>
      </trkpt>
      <trkpt lat="47.87607" lon="5.35031">
        <ele>319.894</ele>
        <time>2014-08-04T14:47:57Z</time>
      </trkpt>
      <trkpt lat="47.87603" lon="5.35036">
        <ele>319.698</ele>
        <time>2014-08-04T14:47:58Z</time>
      </trkpt>
      <trkpt lat="47.876" lon="5.35041">
        <ele>321.6974</ele>
        <time>2014-08-04T14:47:59Z</time>
      </trkpt>
      <trkpt lat="47.87596" lon="5.35046">
        <ele>321.747</ele>
        <time>2014-08-04T14:48:00Z</time>
      </trkpt>
      <trkpt lat="47.87592" lon="5.35051">
        <ele>325.754</ele>
        <time>2014-08-04T14:48:01Z</time>
      </trkpt>
      <trkpt lat="47.87589" lon="5.35056">
        <ele>324.8415</ele>
        <time>2014-08-04T14:48:02Z</time>
      </trkpt>
      <trkpt lat="47.87585" lon="5.35062">
        <ele>325.4636</ele>
        <time>2014-08-04T14:48:03Z</time>
      </trkpt>
      <trkpt lat="47.87581" lon="5.35067">
        <ele>326.1679</ele>
        <time>2014-08-04T14:48:04Z</time>
      </trkpt>
      <trkpt lat="47.87577" lon="5.35072">
        <ele>327.2097</ele>
        <time>2014-08-04T14:48:05Z</time>
      </trkpt>
      <trkpt lat="47.87573" lon="5.35077">
        <ele>327.0661</ele>
        <time>2014-08-04T14:48:06Z</time>
      </trkpt>
      <trkpt lat="47.87569" lon="5.35082">
        <ele>328.6576</ele>
        <time>2014-08-04T14:48:07Z</time>
      </trkpt>
      <trkpt lat="47.87566" lon="5.35087">
        <ele>326.6004</ele>
        <time>2014-08-04T14:48:08Z</time>
      </trkpt>
      <trkpt lat="47.87562" lon="5.35091">
        <ele>328.5023</ele>
        <time>2014-08-04T14:48:09Z</time>
      </trkpt>
      <trkpt lat="47.87558" lon="5.35096">
        <ele>329.5822</ele>
        <time>2014-08-04T14:48:10Z</time>
      </trkpt>
      <trkpt lat="47.87554" lon="5.35101">
        <ele>328.6221</ele>
        <time>2014-08-04T14:48:11Z</time>
      </trkpt>
      <trkpt lat="47.8755" lon="5.35106">
        <ele>329.9764</ele>
        <time>2014-08-04T14:48:12Z</time>
      </trkpt>
      <trkpt lat="47.87546" lon="5.35112">
        <ele>329.3759</ele>
        <time>2014-08-04T14:48:13Z</time>
      </trkpt>
      <trkpt lat="47.87542" lon="5.35116">
        <ele>328.8088</ele>
        <time>2014-08-04T14:48:14Z</time>
      </trkpt>
      <trkpt lat="47.87538" lon="5.35121">
        <ele>327.2298</ele>
        <time>2014-08-04T14:48:15Z</time>
      </trkpt>
      <trkpt lat="47.87534" lon="5.35126">
        <ele>325.0965</ele>
        <time>2014-08-04T14:48:16Z</time>
      </trkpt>
      <trkpt lat="47.87531" lon="5.3513">
        <ele>325.7415</ele>
        <time>2014-08-04T14:48:17Z</time>
      </trkpt>
      <trkpt lat="47.87527" lon="5.35136">
        <ele>325.0276</ele>
        <time>2014-08-04T14:48:18Z</time>
      </trkpt>
      <trkpt lat="47.87523" lon="5.35141">
        <ele>325.0896</ele>
        <time>2014-08-04T14:48:19Z</time>
      </trkpt>
      <trkpt lat="47.87519" lon="5.35148">
        <ele>321.8951</ele>
        <time>2014-08-04T14:48:20Z</time>
      </trkpt>
      <trkpt lat="47.87515" lon="5.35153">
        <ele>321.1543</ele>
        <time>2014-08-04T14:48:21Z</time>
      </trkpt>
      <trkpt lat="47.87511" lon="5.35159">
        <ele>322.1503</ele>
        <time>2014-08-04T14:48:22Z</time>
      </trkpt>
      <trkpt lat="47.87505" lon="5.35169">
        <ele>323.4354</ele>
        <time>2014-08-04T14:48:24Z</time>
      </trkpt>
      <trkpt lat="47.87502" lon="5.35174">
        <ele>324.5659</ele>
        <time>2014-08-04T14:48:25Z</time>
      </trkpt>
      <trkpt lat="47.87499" lon="5.35179">
        <ele>327.5485</ele>
        <time>2014-08-04T14:48:26Z</time>
      </trkpt>
      <trkpt lat="47.87495" lon="5.35183">
        <ele>328.275</ele>
        <time>2014-08-04T14:48:27Z</time>
      </trkpt>
      <trkpt lat="47.87491" lon="5.35189">
        <ele>328.6247</ele>
        <time>2014-08-04T14:48:28Z</time>
      </trkpt>
      <trkpt lat="47.87484" lon="5.35198">
        <ele>327.4901</ele>
        <time>2014-08-04T14:48:30Z</time>
      </trkpt>
      <trkpt lat="47.8748" lon="5.35202">
        <ele>327.2477</ele>
        <time>2014-08-04T14:48:31Z</time>
      </trkpt>
      <trkpt lat="47.87473" lon="5.3521">
        <ele>328.0699</ele>
        <time>2014-08-04T14:48:33Z</time>
      </trkpt>
      <trkpt lat="47.87468" lon="5.35217">
        <ele>327.5905</ele>
        <time>2014-08-04T14:48:35Z</time>
      </trkpt>
      <trkpt lat="47.87464" lon="5.35222">
        <ele>330.3824</ele>
        <time>2014-08-04T14:48:37Z</time>
      </trkpt>
      <trkpt lat="47.87457" lon="5.35227">
        <ele>328.577</ele>
        <time>2014-08-04T14:48:39Z</time>
      </trkpt>
      <trkpt lat="47.87452" lon="5.35234">
        <ele>329.6997</ele>
        <time>2014-08-04T14:48:41Z</time>
      </trkpt>
      <trkpt lat="47.87445" lon="5.35241">
        <ele>326.702</ele>
        <time>2014-08-04T14:48:43Z</time>
      </trkpt>
      <trkpt lat="47.87441" lon="5.35245">
        <ele>328.0956</ele>
        <time>2014-08-04T14:48:44Z</time>
      </trkpt>
      <trkpt lat="47.87438" lon="5.3525">
        <ele>329.0107</ele>
        <time>2014-08-04T14:48:45Z</time>
      </trkpt>
      <trkpt lat="47.87434" lon="5.35255">
        <ele>331.2242</ele>
        <time>2014-08-04T14:48:46Z</time>
      </trkpt>
      <trkpt lat="47.87428" lon="5.35263">
        <ele>333.525</ele>
        <time>2014-08-04T14:48:48Z</time>
      </trkpt>
      <trkpt lat="47.87423" lon="5.35273">
        <ele>330.924</ele>
        <time>2014-08-04T14:48:50Z</time>
      </trkpt>
      <trkpt lat="47.87416" lon="5.35281">
        <ele>328.5515</ele>
        <time>2014-08-04T14:48:52Z</time>
      </trkpt>
      <trkpt lat="47.8741" lon="5.35291">
        <ele>330.0046</ele>
        <time>2014-08-04T14:48:54Z</time>
      </trkpt>
      <trkpt lat="47.87402" lon="5.353">
        <ele>327.1644</ele>
        <time>2014-08-04T14:48:56Z</time>
      </trkpt>
      <trkpt lat="47.87398" lon="5.35305">
        <ele>324.3199</ele>
        <time>2014-08-04T14:48:57Z</time>
      </trkpt>
      <trkpt lat="47.87395" lon="5.3531">
        <ele>322.1509</ele>
        <time>2014-08-04T14:48:58Z</time>
      </trkpt>
      <trkpt lat="47.87392" lon="5.35315">
        <ele>324.9251</ele>
        <time>2014-08-04T14:48:59Z</time>
      </trkpt>
      <trkpt lat="47.87389" lon="5.3532">
        <ele>323.5885</ele>
        <time>2014-08-04T14:49:00Z</time>
      </trkpt>
      <trkpt lat="47.87383" lon="5.35332">
        <ele>332.2266</ele>
        <time>2014-08-04T14:49:02Z</time>
      </trkpt>
      <trkpt lat="47.87381" lon="5.3534">
        <ele>327.2567</ele>
        <time>2014-08-04T14:49:03Z</time>
      </trkpt>
      <trkpt lat="47.87378" lon="5.35347">
        <ele>329.0921</ele>
        <time>2014-08-04T14:49:04Z</time>
      </trkpt>
      <trkpt lat="47.87375" lon="5.35354">
        <ele>328.2556</ele>
        <time>2014-08-04T14:49:05Z</time>
      </trkpt>
      <trkpt lat="47.87372" lon="5.35361">
        <ele>327.1883</ele>
        <time>2014-08-04T14:49:06Z</time>
      </trkpt>
      <trkpt lat="47.87367" lon="5.35372">
        <ele>328.1289</ele>
        <time>2014-08-04T14:49:08Z</time>
      </trkpt>
      <trkpt lat="47.87365" lon="5.35378">
        <ele>327.0547</ele>
        <time>2014-08-04T14:49:09Z</time>
      </trkpt>
      <trkpt lat="47.8736" lon="5.35389">
        <ele>324.6239</ele>
        <time>2014-08-04T14:49:11Z</time>
      </trkpt>
      <trkpt lat="47.87358" lon="5.35395">
        <ele>323.1468</ele>
        <time>2014-08-04T14:49:12Z</time>
      </trkpt>
      <trkpt lat="47.87355" lon="5.35402">
        <ele>324.0697</ele>
        <time>2014-08-04T14:49:13Z</time>
      </trkpt>
      <trkpt lat="47.87353" lon="5.35409">
        <ele>326.242</ele>
        <time>2014-08-04T14:49:14Z</time>
      </trkpt>
      <trkpt lat="47.87351" lon="5.35416">
        <ele>330.5713</ele>
        <time>2014-08-04T14:49:15Z</time>
      </trkpt>
      <trkpt lat="47.87347" lon="5.35428">
        <ele>329.3329</ele>
        <time>2014-08-04T14:49:17Z</time>
      </trkpt>
      <trkpt lat="47.87346" lon="5.35435">
        <ele>327.8414</ele>
        <time>2014-08-04T14:49:18Z</time>
      </trkpt>
      <trkpt lat="47.87344" lon="5.35443">
        <ele>327.7242</ele>
        <time>2014-08-04T14:49:19Z</time>
      </trkpt>
      <trkpt lat="47.87343" lon="5.35449">
        <ele>329.3256</ele>
        <time>2014-08-04T14:49:20Z</time>
      </trkpt>
      <trkpt lat="47.87341" lon="5.35456">
        <ele>328.9232</ele>
        <time>2014-08-04T14:49:21Z</time>
      </trkpt>
      <trkpt lat="47.87336" lon="5.35468">
        <ele>329.2891</ele>
        <time>2014-08-04T14:49:23Z</time>
      </trkpt>
      <trkpt lat="47.87334" lon="5.35475">
        <ele>331.0343</ele>
        <time>2014-08-04T14:49:24Z</time>
      </trkpt>
      <trkpt lat="47.87331" lon="5.35482">
        <ele>331.5079</ele>
        <time>2014-08-04T14:49:25Z</time>
      </trkpt>
      <trkpt lat="47.8733" lon="5.35488">
        <ele>331.0226</ele>
        <time>2014-08-04T14:49:26Z</time>
      </trkpt>
      <trkpt lat="47.87327" lon="5.35495">
        <ele>330.6391</ele>
        <time>2014-08-04T14:49:27Z</time>
      </trkpt>
      <trkpt lat="47.87325" lon="5.35502">
        <ele>329.6319</ele>
        <time>2014-08-04T14:49:28Z</time>
      </trkpt>
      <trkpt lat="47.87322" lon="5.3551">
        <ele>328.5783</ele>
        <time>2014-08-04T14:49:29Z</time>
      </trkpt>
      <trkpt lat="47.8732" lon="5.35517">
        <ele>329.1543</ele>
        <time>2014-08-04T14:49:30Z</time>
      </trkpt>
      <trkpt lat="47.87317" lon="5.35525">
        <ele>330.4712</ele>
        <time>2014-08-04T14:49:31Z</time>
      </trkpt>
      <trkpt lat="47.87315" lon="5.35531">
        <ele>329.8497</ele>
        <time>2014-08-04T14:49:32Z</time>
      </trkpt>
      <trkpt lat="47.87314" lon="5.35539">
        <ele>329.0219</ele>
        <time>2014-08-04T14:49:33Z</time>
      </trkpt>
      <trkpt lat="47.87311" lon="5.35547">
        <ele>328.2256</ele>
        <time>2014-08-04T14:49:34Z</time>
      </trkpt>
      <trkpt lat="47.87309" lon="5.35553">
        <ele>330.1546</ele>
        <time>2014-08-04T14:49:35Z</time>
      </trkpt>
      <trkpt lat="47.87307" lon="5.35559">
        <ele>328.4691</ele>
        <time>2014-08-04T14:49:36Z</time>
      </trkpt>
      <trkpt lat="47.87304" lon="5.35565">
        <ele>328.9493</ele>
        <time>2014-08-04T14:49:37Z</time>
      </trkpt>
      <trkpt lat="47.87302" lon="5.35572">
        <ele>328.0383</ele>
        <time>2014-08-04T14:49:38Z</time>
      </trkpt>
      <trkpt lat="47.873" lon="5.3558">
        <ele>329.4539</ele>
        <time>2014-08-04T14:49:39Z</time>
      </trkpt>
      <trkpt lat="47.87296" lon="5.35591">
        <ele>332.5314</ele>
        <time>2014-08-04T14:49:41Z</time>
      </trkpt>
      <trkpt lat="47.87295" lon="5.35597">
        <ele>329.7175</ele>
        <time>2014-08-04T14:49:42Z</time>
      </trkpt>
      <trkpt lat="47.87291" lon="5.35608">
        <ele>331.0737</ele>
        <time>2014-08-04T14:49:44Z</time>
      </trkpt>
      <trkpt lat="47.87289" lon="5.35615">
        <ele>330.6281</ele>
        <time>2014-08-04T14:49:45Z</time>
      </trkpt>
      <trkpt lat="47.87288" lon="5.35621">
        <ele>331.5245</ele>
        <time>2014-08-04T14:49:46Z</time>
      </trkpt>
      <trkpt lat="47.87284" lon="5.35633">
        <ele>332.6454</ele>
        <time>2014-08-04T14:49:48Z</time>
      </trkpt>
      <trkpt lat="47.8728" lon="5.35645">
        <ele>334.7236</ele>
        <time>2014-08-04T14:49:50Z</time>
      </trkpt>
      <trkpt lat="47.87276" lon="5.35654">
        <ele>332.2745</ele>
        <time>2014-08-04T14:49:52Z</time>
      </trkpt>
      <trkpt lat="47.87271" lon="5.35663">
        <ele>332.0956</ele>
        <time>2014-08-04T14:49:54Z</time>
      </trkpt>
      <trkpt lat="47.87268" lon="5.35674">
        <ele>333.1996</ele>
        <time>2014-08-04T14:49:56Z</time>
      </trkpt>
      <trkpt lat="47.87267" lon="5.3568">
        <ele>332.5461</ele>
        <time>2014-08-04T14:49:57Z</time>
      </trkpt>
      <trkpt lat="47.87264" lon="5.35692">
        <ele>332.6637</ele>
        <time>2014-08-04T14:49:59Z</time>
      </trkpt>
      <trkpt lat="47.87261" lon="5.35703">
        <ele>332.5682</ele>
        <time>2014-08-04T14:50:01Z</time>
      </trkpt>
      <trkpt lat="47.87258" lon="5.35713">
        <ele>331.8196</ele>
        <time>2014-08-04T14:50:03Z</time>
      </trkpt>
      <trkpt lat="47.87255" lon="5.35722">
        <ele>332.6307</ele>
        <time>2014-08-04T14:50:05Z</time>
      </trkpt>
      <trkpt lat="47.87251" lon="5.35732">
        <ele>328.8348</ele>
        <time>2014-08-04T14:50:07Z</time>
      </trkpt>
      <trkpt lat="47.87249" lon="5.3574">
        <ele>328.7519</ele>
        <time>2014-08-04T14:50:09Z</time>
      </trkpt>
      <trkpt lat="47.87248" lon="5.35748">
        <ele>327.334</ele>
        <time>2014-08-04T14:50:11Z</time>
      </trkpt>
      <trkpt lat="47.87244" lon="5.35755">
        <ele>327.1267</ele>
        <time>2014-08-04T14:50:13Z</time>
      </trkpt>
      <trkpt lat="47.87241" lon="5.35764">
        <ele>329.9326</ele>
        <time>2014-08-04T14:50:15Z</time>
      </trkpt>
      <trkpt lat="47.87239" lon="5.3577">
        <ele>329.0782</ele>
        <time>2014-08-04T14:50:16Z</time>
      </trkpt>
      <trkpt lat="47.87235" lon="5.35781">
        <ele>329.6521</ele>
        <time>2014-08-04T14:50:18Z</time>
      </trkpt>
      <trkpt lat="47.87232" lon="5.35794">
        <ele>329.282</ele>
        <time>2014-08-04T14:50:20Z</time>
      </trkpt>
      <trkpt lat="47.87228" lon="5.35805">
        <ele>329.6208</ele>
        <time>2014-08-04T14:50:22Z</time>
      </trkpt>
      <trkpt lat="47.87226" lon="5.35812">
        <ele>326.9184</ele>
        <time>2014-08-04T14:50:23Z</time>
      </trkpt>
      <trkpt lat="47.87223" lon="5.35825">
        <ele>327.0309</ele>
        <time>2014-08-04T14:50:25Z</time>
      </trkpt>
      <trkpt lat="47.8722" lon="5.35831">
        <ele>326.8721</ele>
        <time>2014-08-04T14:50:26Z</time>
      </trkpt>
      <trkpt lat="47.87218" lon="5.35837">
        <ele>327.7344</ele>
        <time>2014-08-04T14:50:27Z</time>
      </trkpt>
      <trkpt lat="47.87215" lon="5.35843">
        <ele>326.1017</ele>
        <time>2014-08-04T14:50:28Z</time>
      </trkpt>
      <trkpt lat="47.87211" lon="5.35856">
        <ele>324.2306</ele>
        <time>2014-08-04T14:50:30Z</time>
      </trkpt>
      <trkpt lat="47.87209" lon="5.35864">
        <ele>322.2751</ele>
        <time>2014-08-04T14:50:31Z</time>
      </trkpt>
      <trkpt lat="47.87207" lon="5.35871">
        <ele>324.6786</ele>
        <time>2014-08-04T14:50:32Z</time>
      </trkpt>
      <trkpt lat="47.87205" lon="5.35878">
        <ele>325.6653</ele>
        <time>2014-08-04T14:50:33Z</time>
      </trkpt>
      <trkpt lat="47.87201" lon="5.35891">
        <ele>327.7929</ele>
        <time>2014-08-04T14:50:35Z</time>
      </trkpt>
      <trkpt lat="47.872" lon="5.35898">
        <ele>327.6889</ele>
        <time>2014-08-04T14:50:36Z</time>
      </trkpt>
      <trkpt lat="47.87198" lon="5.35904">
        <ele>327.973</ele>
        <time>2014-08-04T14:50:37Z</time>
      </trkpt>
      <trkpt lat="47.87196" lon="5.35911">
        <ele>330.001</ele>
        <time>2014-08-04T14:50:38Z</time>
      </trkpt>
      <trkpt lat="47.87194" lon="5.35918">
        <ele>330.6763</ele>
        <time>2014-08-04T14:50:39Z</time>
      </trkpt>
      <trkpt lat="47.87192" lon="5.35926">
        <ele>326.5273</ele>
        <time>2014-08-04T14:50:40Z</time>
      </trkpt>
      <trkpt lat="47.8719" lon="5.35932">
        <ele>326.3405</ele>
        <time>2014-08-04T14:50:41Z</time>
      </trkpt>
      <trkpt lat="47.87188" lon="5.35939">
        <ele>330.3588</ele>
        <time>2014-08-04T14:50:42Z</time>
      </trkpt>
      <trkpt lat="47.87186" lon="5.35947">
        <ele>327.0107</ele>
        <time>2014-08-04T14:50:43Z</time>
      </trkpt>
      <trkpt lat="47.87184" lon="5.35954">
        <ele>327.3549</ele>
        <time>2014-08-04T14:50:44Z</time>
      </trkpt>
      <trkpt lat="47.87181" lon="5.35962">
        <ele>328.541</ele>
        <time>2014-08-04T14:50:45Z</time>
      </trkpt>
      <trkpt lat="47.87178" lon="5.3597">
        <ele>327.229</ele>
        <time>2014-08-04T14:50:46Z</time>
      </trkpt>
      <trkpt lat="47.87175" lon="5.35978">
        <ele>326.7534</ele>
        <time>2014-08-04T14:50:47Z</time>
      </trkpt>
      <trkpt lat="47.87172" lon="5.35985">
        <ele>326.6372</ele>
        <time>2014-08-04T14:50:48Z</time>
      </trkpt>
      <trkpt lat="47.87169" lon="5.35992">
        <ele>326.4871</ele>
        <time>2014-08-04T14:50:49Z</time>
      </trkpt>
      <trkpt lat="47.87166" lon="5.35998">
        <ele>326.2196</ele>
        <time>2014-08-04T14:50:50Z</time>
      </trkpt>
      <trkpt lat="47.87163" lon="5.36005">
        <ele>324.9962</ele>
        <time>2014-08-04T14:50:51Z</time>
      </trkpt>
      <trkpt lat="47.87161" lon="5.36011">
        <ele>326.9233</ele>
        <time>2014-08-04T14:50:52Z</time>
      </trkpt>
      <trkpt lat="47.87158" lon="5.36017">
        <ele>329.044</ele>
        <time>2014-08-04T14:50:53Z</time>
      </trkpt>
      <trkpt lat="47.87154" lon="5.36024">
        <ele>327.9692</ele>
        <time>2014-08-04T14:50:54Z</time>
      </trkpt>
      <trkpt lat="47.87149" lon="5.36035">
        <ele>332.1043</ele>
        <time>2014-08-04T14:50:56Z</time>
      </trkpt>
      <trkpt lat="47.87147" lon="5.36041">
        <ele>330.9573</ele>
        <time>2014-08-04T14:50:57Z</time>
      </trkpt>
      <trkpt lat="47.87144" lon="5.36047">
        <ele>329.2763</ele>
        <time>2014-08-04T14:50:58Z</time>
      </trkpt>
      <trkpt lat="47.87141" lon="5.36054">
        <ele>329.6355</ele>
        <time>2014-08-04T14:50:59Z</time>
      </trkpt>
      <trkpt lat="47.87137" lon="5.3606">
        <ele>325.5276</ele>
        <time>2014-08-04T14:51:00Z</time>
      </trkpt>
      <trkpt lat="47.87133" lon="5.36066">
        <ele>328.5906</ele>
        <time>2014-08-04T14:51:01Z</time>
      </trkpt>
      <trkpt lat="47.8713" lon="5.36073">
        <ele>327.7543</ele>
        <time>2014-08-04T14:51:02Z</time>
      </trkpt>
      <trkpt lat="47.87126" lon="5.36079">
        <ele>328.1035</ele>
        <time>2014-08-04T14:51:03Z</time>
      </trkpt>
      <trkpt lat="47.87123" lon="5.36086">
        <ele>329.3973</ele>
        <time>2014-08-04T14:51:04Z</time>
      </trkpt>
      <trkpt lat="47.87119" lon="5.36092">
        <ele>329.3136</ele>
        <time>2014-08-04T14:51:05Z</time>
      </trkpt>
      <trkpt lat="47.87116" lon="5.36098">
        <ele>330.4065</ele>
        <time>2014-08-04T14:51:06Z</time>
      </trkpt>
      <trkpt lat="47.87112" lon="5.36105">
        <ele>332.7956</ele>
        <time>2014-08-04T14:51:07Z</time>
      </trkpt>
      <trkpt lat="47.87108" lon="5.3611">
        <ele>333.605</ele>
        <time>2014-08-04T14:51:08Z</time>
      </trkpt>
      <trkpt lat="47.87104" lon="5.36117">
        <ele>334.1891</ele>
        <time>2014-08-04T14:51:09Z</time>
      </trkpt>
      <trkpt lat="47.871" lon="5.36123">
        <ele>333.3506</ele>
        <time>2014-08-04T14:51:10Z</time>
      </trkpt>
      <trkpt lat="47.87095" lon="5.3613">
        <ele>333.4676</ele>
        <time>2014-08-04T14:51:11Z</time>
      </trkpt>
      <trkpt lat="47.87092" lon="5.36136">
        <ele>332.5232</ele>
        <time>2014-08-04T14:51:12Z</time>
      </trkpt>
      <trkpt lat="47.87088" lon="5.36142">
        <ele>332.0723</ele>
        <time>2014-08-04T14:51:13Z</time>
      </trkpt>
      <trkpt lat="47.87084" lon="5.36147">
        <ele>332.9727</ele>
        <time>2014-08-04T14:51:14Z</time>
      </trkpt>
      <trkpt lat="47.8708" lon="5.36153">
        <ele>334.5036</ele>
        <time>2014-08-04T14:51:15Z</time>
      </trkpt>
      <trkpt lat="47.87076" lon="5.36158">
        <ele>334.5094</ele>
        <time>2014-08-04T14:51:16Z</time>
      </trkpt>
      <trkpt lat="47.87072" lon="5.36164">
        <ele>334.5875</ele>
        <time>2014-08-04T14:51:17Z</time>
      </trkpt>
      <trkpt lat="47.87068" lon="5.36169">
        <ele>334.9577</ele>
        <time>2014-08-04T14:51:18Z</time>
      </trkpt>
      <trkpt lat="47.87064" lon="5.36175">
        <ele>335.8281</ele>
        <time>2014-08-04T14:51:19Z</time>
      </trkpt>
      <trkpt lat="47.87059" lon="5.36181">
        <ele>336.0492</ele>
        <time>2014-08-04T14:51:20Z</time>
      </trkpt>
      <trkpt lat="47.87055" lon="5.36187">
        <ele>330.8262</ele>
        <time>2014-08-04T14:51:21Z</time>
      </trkpt>
      <trkpt lat="47.8705" lon="5.36193">
        <ele>331.5149</ele>
        <time>2014-08-04T14:51:22Z</time>
      </trkpt>
      <trkpt lat="47.87046" lon="5.362">
        <ele>331.4849</ele>
        <time>2014-08-04T14:51:23Z</time>
      </trkpt>
      <trkpt lat="47.87043" lon="5.36206">
        <ele>332.4895</ele>
        <time>2014-08-04T14:51:24Z</time>
      </trkpt>
      <trkpt lat="47.8704" lon="5.36211">
        <ele>333.4313</ele>
        <time>2014-08-04T14:51:25Z</time>
      </trkpt>
      <trkpt lat="47.87036" lon="5.36217">
        <ele>333.8049</ele>
        <time>2014-08-04T14:51:26Z</time>
      </trkpt>
      <trkpt lat="47.87033" lon="5.36224">
        <ele>336.2794</ele>
        <time>2014-08-04T14:51:27Z</time>
      </trkpt>
      <trkpt lat="47.87029" lon="5.3623">
        <ele>336.1716</ele>
        <time>2014-08-04T14:51:28Z</time>
      </trkpt>
      <trkpt lat="47.87024" lon="5.36237">
        <ele>335.0272</ele>
        <time>2014-08-04T14:51:29Z</time>
      </trkpt>
      <trkpt lat="47.8702" lon="5.36243">
        <ele>334.4225</ele>
        <time>2014-08-04T14:51:30Z</time>
      </trkpt>
      <trkpt lat="47.87016" lon="5.36248">
        <ele>335.9794</ele>
        <time>2014-08-04T14:51:31Z</time>
      </trkpt>
      <trkpt lat="47.87013" lon="5.36254">
        <ele>336.5457</ele>
        <time>2014-08-04T14:51:32Z</time>
      </trkpt>
      <trkpt lat="47.87008" lon="5.36259">
        <ele>335.6049</ele>
        <time>2014-08-04T14:51:33Z</time>
      </trkpt>
      <trkpt lat="47.87005" lon="5.36265">
        <ele>334.1899</ele>
        <time>2014-08-04T14:51:34Z</time>
      </trkpt>
      <trkpt lat="47.87" lon="5.3627">
        <ele>333.482</ele>
        <time>2014-08-04T14:51:35Z</time>
      </trkpt>
      <trkpt lat="47.86996" lon="5.36276">
        <ele>333.5439</ele>
        <time>2014-08-04T14:51:36Z</time>
      </trkpt>
      <trkpt lat="47.86992" lon="5.36281">
        <ele>332.0803</ele>
        <time>2014-08-04T14:51:37Z</time>
      </trkpt>
      <trkpt lat="47.86988" lon="5.36286">
        <ele>331.8442</ele>
        <time>2014-08-04T14:51:38Z</time>
      </trkpt>
      <trkpt lat="47.86983" lon="5.36292">
        <ele>331.4023</ele>
        <time>2014-08-04T14:51:39Z</time>
      </trkpt>
      <trkpt lat="47.8698" lon="5.36297">
        <ele>331.5601</ele>
        <time>2014-08-04T14:51:40Z</time>
      </trkpt>
      <trkpt lat="47.86976" lon="5.36303">
        <ele>331.8104</ele>
        <time>2014-08-04T14:51:41Z</time>
      </trkpt>
      <trkpt lat="47.86971" lon="5.3631">
        <ele>332.1414</ele>
        <time>2014-08-04T14:51:42Z</time>
      </trkpt>
      <trkpt lat="47.86967" lon="5.36315">
        <ele>333.9276</ele>
        <time>2014-08-04T14:51:43Z</time>
      </trkpt>
      <trkpt lat="47.86963" lon="5.3632">
        <ele>334.9957</ele>
        <time>2014-08-04T14:51:44Z</time>
      </trkpt>
      <trkpt lat="47.86959" lon="5.36326">
        <ele>336.1035</ele>
        <time>2014-08-04T14:51:45Z</time>
      </trkpt>
      <trkpt lat="47.86955" lon="5.36332">
        <ele>335.4988</ele>
        <time>2014-08-04T14:51:46Z</time>
      </trkpt>
      <trkpt lat="47.86952" lon="5.36338">
        <ele>332.1389</ele>
        <time>2014-08-04T14:51:47Z</time>
      </trkpt>
      <trkpt lat="47.86948" lon="5.36344">
        <ele>329.7721</ele>
        <time>2014-08-04T14:51:48Z</time>
      </trkpt>
      <trkpt lat="47.86945" lon="5.3635">
        <ele>329.7935</ele>
        <time>2014-08-04T14:51:49Z</time>
      </trkpt>
      <trkpt lat="47.86941" lon="5.36356">
        <ele>330.2474</ele>
        <time>2014-08-04T14:51:50Z</time>
      </trkpt>
      <trkpt lat="47.86937" lon="5.36362">
        <ele>334.735</ele>
        <time>2014-08-04T14:51:51Z</time>
      </trkpt>
      <trkpt lat="47.86933" lon="5.36367">
        <ele>332.175</ele>
        <time>2014-08-04T14:51:52Z</time>
      </trkpt>
      <trkpt lat="47.86929" lon="5.36373">
        <ele>331.5795</ele>
        <time>2014-08-04T14:51:53Z</time>
      </trkpt>
      <trkpt lat="47.86924" lon="5.36379">
        <ele>330.7494</ele>
        <time>2014-08-04T14:51:54Z</time>
      </trkpt>
      <trkpt lat="47.8692" lon="5.36386">
        <ele>328.6278</ele>
        <time>2014-08-04T14:51:55Z</time>
      </trkpt>
      <trkpt lat="47.86916" lon="5.36392">
        <ele>329.8748</ele>
        <time>2014-08-04T14:51:56Z</time>
      </trkpt>
      <trkpt lat="47.86913" lon="5.36398">
        <ele>333.26</ele>
        <time>2014-08-04T14:51:57Z</time>
      </trkpt>
      <trkpt lat="47.86909" lon="5.36403">
        <ele>330.9579</ele>
        <time>2014-08-04T14:51:58Z</time>
      </trkpt>
      <trkpt lat="47.86905" lon="5.36408">
        <ele>331.3557</ele>
        <time>2014-08-04T14:51:59Z</time>
      </trkpt>
      <trkpt lat="47.86901" lon="5.36414">
        <ele>330.7083</ele>
        <time>2014-08-04T14:52:00Z</time>
      </trkpt>
      <trkpt lat="47.86897" lon="5.3642">
        <ele>332.9754</ele>
        <time>2014-08-04T14:52:01Z</time>
      </trkpt>
      <trkpt lat="47.86893" lon="5.36426">
        <ele>333.4593</ele>
        <time>2014-08-04T14:52:02Z</time>
      </trkpt>
      <trkpt lat="47.8689" lon="5.36431">
        <ele>333.5855</ele>
        <time>2014-08-04T14:52:03Z</time>
      </trkpt>
      <trkpt lat="47.86886" lon="5.36437">
        <ele>333.2499</ele>
        <time>2014-08-04T14:52:04Z</time>
      </trkpt>
      <trkpt lat="47.86882" lon="5.36443">
        <ele>331.2641</ele>
        <time>2014-08-04T14:52:05Z</time>
      </trkpt>
      <trkpt lat="47.86878" lon="5.36449">
        <ele>325.4746</ele>
        <time>2014-08-04T14:52:06Z</time>
      </trkpt>
      <trkpt lat="47.86874" lon="5.36454">
        <ele>325.4365</ele>
        <time>2014-08-04T14:52:07Z</time>
      </trkpt>
      <trkpt lat="47.8687" lon="5.36459">
        <ele>326.8101</ele>
        <time>2014-08-04T14:52:08Z</time>
      </trkpt>
      <trkpt lat="47.86866" lon="5.36466">
        <ele>327.4629</ele>
        <time>2014-08-04T14:52:09Z</time>
      </trkpt>
      <trkpt lat="47.86862" lon="5.36472">
        <ele>328.0939</ele>
        <time>2014-08-04T14:52:10Z</time>
      </trkpt>
      <trkpt lat="47.86858" lon="5.36478">
        <ele>326.9142</ele>
        <time>2014-08-04T14:52:11Z</time>
      </trkpt>
      <trkpt lat="47.86854" lon="5.36484">
        <ele>329.6197</ele>
        <time>2014-08-04T14:52:12Z</time>
      </trkpt>
      <trkpt lat="47.8685" lon="5.3649">
        <ele>328.5864</ele>
        <time>2014-08-04T14:52:13Z</time>
      </trkpt>
      <trkpt lat="47.86846" lon="5.36496">
        <ele>328.8786</ele>
        <time>2014-08-04T14:52:14Z</time>
      </trkpt>
      <trkpt lat="47.86842" lon="5.36502">
        <ele>327.9048</ele>
        <time>2014-08-04T14:52:15Z</time>
      </trkpt>
      <trkpt lat="47.86838" lon="5.36507">
        <ele>329.2724</ele>
        <time>2014-08-04T14:52:16Z</time>
      </trkpt>
      <trkpt lat="47.86834" lon="5.36513">
        <ele>329.216</ele>
        <time>2014-08-04T14:52:17Z</time>
      </trkpt>
      <trkpt lat="47.86829" lon="5.36518">
        <ele>327.7202</ele>
        <time>2014-08-04T14:52:18Z</time>
      </trkpt>
      <trkpt lat="47.86824" lon="5.36524">
        <ele>328.8296</ele>
        <time>2014-08-04T14:52:19Z</time>
      </trkpt>
      <trkpt lat="47.8682" lon="5.3653">
        <ele>325.0696</ele>
        <time>2014-08-04T14:52:20Z</time>
      </trkpt>
      <trkpt lat="47.86816" lon="5.36536">
        <ele>327.2994</ele>
        <time>2014-08-04T14:52:21Z</time>
      </trkpt>
      <trkpt lat="47.86813" lon="5.36542">
        <ele>328.5714</ele>
        <time>2014-08-04T14:52:22Z</time>
      </trkpt>
      <trkpt lat="47.86809" lon="5.36549">
        <ele>331.4936</ele>
        <time>2014-08-04T14:52:23Z</time>
      </trkpt>
      <trkpt lat="47.86806" lon="5.36555">
        <ele>335.2356</ele>
        <time>2014-08-04T14:52:24Z</time>
      </trkpt>
      <trkpt lat="47.86799" lon="5.36565">
        <ele>335.5382</ele>
        <time>2014-08-04T14:52:26Z</time>
      </trkpt>
      <trkpt lat="47.86795" lon="5.36571">
        <ele>331.0569</ele>
        <time>2014-08-04T14:52:27Z</time>
      </trkpt>
      <trkpt lat="47.86792" lon="5.36576">
        <ele>331.0456</ele>
        <time>2014-08-04T14:52:28Z</time>
      </trkpt>
      <trkpt lat="47.86786" lon="5.36586">
        <ele>330.5509</ele>
        <time>2014-08-04T14:52:30Z</time>
      </trkpt>
      <trkpt lat="47.86781" lon="5.36594">
        <ele>329.7104</ele>
        <time>2014-08-04T14:52:32Z</time>
      </trkpt>
      <trkpt lat="47.86777" lon="5.36599">
        <ele>330.1276</ele>
        <time>2014-08-04T14:52:33Z</time>
      </trkpt>
      <trkpt lat="47.86772" lon="5.36606">
        <ele>331.3637</ele>
        <time>2014-08-04T14:52:35Z</time>
      </trkpt>
      <trkpt lat="47.86766" lon="5.36613">
        <ele>333.1664</ele>
        <time>2014-08-04T14:52:37Z</time>
      </trkpt>
      <trkpt lat="47.86762" lon="5.36622">
        <ele>331.6401</ele>
        <time>2014-08-04T14:52:39Z</time>
      </trkpt>
      <trkpt lat="47.8676" lon="5.36632">
        <ele>328.4722</ele>
        <time>2014-08-04T14:52:42Z</time>
      </trkpt>
      <trkpt lat="47.86761" lon="5.36645">
        <ele>326.6321</ele>
        <time>2014-08-04T14:52:44Z</time>
      </trkpt>
      <trkpt lat="47.86761" lon="5.36652">
        <ele>328.8583</ele>
        <time>2014-08-04T14:52:45Z</time>
      </trkpt>
      <trkpt lat="47.8676" lon="5.36661">
        <ele>329.9799</ele>
        <time>2014-08-04T14:52:46Z</time>
      </trkpt>
      <trkpt lat="47.86759" lon="5.36669">
        <ele>330.7035</ele>
        <time>2014-08-04T14:52:47Z</time>
      </trkpt>
      <trkpt lat="47.86758" lon="5.36678">
        <ele>330.1403</ele>
        <time>2014-08-04T14:52:48Z</time>
      </trkpt>
      <trkpt lat="47.86757" lon="5.36686">
        <ele>331.7044</ele>
        <time>2014-08-04T14:52:49Z</time>
      </trkpt>
      <trkpt lat="47.86757" lon="5.36694">
        <ele>328.596</ele>
        <time>2014-08-04T14:52:50Z</time>
      </trkpt>
      <trkpt lat="47.86757" lon="5.36705">
        <ele>329.2867</ele>
        <time>2014-08-04T14:52:52Z</time>
      </trkpt>
      <trkpt lat="47.86757" lon="5.36712">
        <ele>331.1176</ele>
        <time>2014-08-04T14:52:53Z</time>
      </trkpt>
      <trkpt lat="47.8676" lon="5.36719">
        <ele>330.4298</ele>
        <time>2014-08-04T14:52:54Z</time>
      </trkpt>
      <trkpt lat="47.86764" lon="5.36726">
        <ele>328.709</ele>
        <time>2014-08-04T14:52:55Z</time>
      </trkpt>
      <trkpt lat="47.86768" lon="5.36731">
        <ele>330.9317</ele>
        <time>2014-08-04T14:52:56Z</time>
      </trkpt>
      <trkpt lat="47.86772" lon="5.36735">
        <ele>330.686</ele>
        <time>2014-08-04T14:52:57Z</time>
      </trkpt>
      <trkpt lat="47.86776" lon="5.36739">
        <ele>331.0135</ele>
        <time>2014-08-04T14:52:58Z</time>
      </trkpt>
      <trkpt lat="47.86783" lon="5.36746">
        <ele>330.8627</ele>
        <time>2014-08-04T14:53:00Z</time>
      </trkpt>
      <trkpt lat="47.86789" lon="5.36755">
        <ele>330.7006</ele>
        <time>2014-08-04T14:53:02Z</time>
      </trkpt>
      <trkpt lat="47.86796" lon="5.36762">
        <ele>331.4052</ele>
        <time>2014-08-04T14:53:04Z</time>
      </trkpt>
      <trkpt lat="47.86803" lon="5.3677">
        <ele>331.6667</ele>
        <time>2014-08-04T14:53:06Z</time>
      </trkpt>
      <trkpt lat="47.86808" lon="5.36778">
        <ele>332.3211</ele>
        <time>2014-08-04T14:53:08Z</time>
      </trkpt>
      <trkpt lat="47.8681" lon="5.3679">
        <ele>334.1384</ele>
        <time>2014-08-04T14:53:10Z</time>
      </trkpt>
      <trkpt lat="47.86808" lon="5.36802">
        <ele>335.909</ele>
        <time>2014-08-04T14:53:12Z</time>
      </trkpt>
      <trkpt lat="47.86805" lon="5.36814">
        <ele>334.6017</ele>
        <time>2014-08-04T14:53:14Z</time>
      </trkpt>
      <trkpt lat="47.86802" lon="5.36821">
        <ele>332.6488</ele>
        <time>2014-08-04T14:53:15Z</time>
      </trkpt>
      <trkpt lat="47.86799" lon="5.36832">
        <ele>335.2878</ele>
        <time>2014-08-04T14:53:17Z</time>
      </trkpt>
      <trkpt lat="47.86794" lon="5.36844">
        <ele>334.7623</ele>
        <time>2014-08-04T14:53:19Z</time>
      </trkpt>
      <trkpt lat="47.86792" lon="5.3685">
        <ele>334.8841</ele>
        <time>2014-08-04T14:53:20Z</time>
      </trkpt>
      <trkpt lat="47.8679" lon="5.36857">
        <ele>333.778</ele>
        <time>2014-08-04T14:53:21Z</time>
      </trkpt>
      <trkpt lat="47.86788" lon="5.36863">
        <ele>333.9178</ele>
        <time>2014-08-04T14:53:22Z</time>
      </trkpt>
      <trkpt lat="47.86784" lon="5.36875">
        <ele>332.6628</ele>
        <time>2014-08-04T14:53:24Z</time>
      </trkpt>
      <trkpt lat="47.86782" lon="5.36881">
        <ele>332.3276</ele>
        <time>2014-08-04T14:53:25Z</time>
      </trkpt>
      <trkpt lat="47.8678" lon="5.36887">
        <ele>332.8503</ele>
        <time>2014-08-04T14:53:26Z</time>
      </trkpt>
      <trkpt lat="47.86778" lon="5.36893">
        <ele>332.4637</ele>
        <time>2014-08-04T14:53:27Z</time>
      </trkpt>
      <trkpt lat="47.86776" lon="5.369">
        <ele>331.6534</ele>
        <time>2014-08-04T14:53:28Z</time>
      </trkpt>
      <trkpt lat="47.86773" lon="5.36906">
        <ele>331.1452</ele>
        <time>2014-08-04T14:53:29Z</time>
      </trkpt>
      <trkpt lat="47.86771" lon="5.36912">
        <ele>330.3237</ele>
        <time>2014-08-04T14:53:30Z</time>
      </trkpt>
      <trkpt lat="47.86769" lon="5.36918">
        <ele>330.2069</ele>
        <time>2014-08-04T14:53:31Z</time>
      </trkpt>
      <trkpt lat="47.86767" lon="5.36925">
        <ele>331.6323</ele>
        <time>2014-08-04T14:53:32Z</time>
      </trkpt>
      <trkpt lat="47.86765" lon="5.36932">
        <ele>331.9908</ele>
        <time>2014-08-04T14:53:33Z</time>
      </trkpt>
      <trkpt lat="47.86763" lon="5.36938">
        <ele>331.6457</ele>
        <time>2014-08-04T14:53:34Z</time>
      </trkpt>
      <trkpt lat="47.8676" lon="5.36944">
        <ele>332.0329</ele>
        <time>2014-08-04T14:53:35Z</time>
      </trkpt>
      <trkpt lat="47.86758" lon="5.36951">
        <ele>332.4509</ele>
        <time>2014-08-04T14:53:36Z</time>
      </trkpt>
      <trkpt lat="47.86755" lon="5.36958">
        <ele>333.114</ele>
        <time>2014-08-04T14:53:37Z</time>
      </trkpt>
      <trkpt lat="47.86753" lon="5.36965">
        <ele>333.3046</ele>
        <time>2014-08-04T14:53:38Z</time>
      </trkpt>
      <trkpt lat="47.86751" lon="5.36971">
        <ele>333.3734</ele>
        <time>2014-08-04T14:53:39Z</time>
      </trkpt>
      <trkpt lat="47.86749" lon="5.36978">
        <ele>333.9392</ele>
        <time>2014-08-04T14:53:40Z</time>
      </trkpt>
      <trkpt lat="47.86747" lon="5.36984">
        <ele>334.4855</ele>
        <time>2014-08-04T14:53:41Z</time>
      </trkpt>
      <trkpt lat="47.86744" lon="5.36991">
        <ele>333.9015</ele>
        <time>2014-08-04T14:53:42Z</time>
      </trkpt>
      <trkpt lat="47.86742" lon="5.36998">
        <ele>333.6477</ele>
        <time>2014-08-04T14:53:43Z</time>
      </trkpt>
      <trkpt lat="47.86741" lon="5.37005">
        <ele>332.1451</ele>
        <time>2014-08-04T14:53:44Z</time>
      </trkpt>
      <trkpt lat="47.86739" lon="5.37011">
        <ele>332.0328</ele>
        <time>2014-08-04T14:53:45Z</time>
      </trkpt>
      <trkpt lat="47.86737" lon="5.37019">
        <ele>332.1292</ele>
        <time>2014-08-04T14:53:46Z</time>
      </trkpt>
      <trkpt lat="47.86735" lon="5.37026">
        <ele>332.8104</ele>
        <time>2014-08-04T14:53:47Z</time>
      </trkpt>
      <trkpt lat="47.86734" lon="5.37034">
        <ele>331.6471</ele>
        <time>2014-08-04T14:53:48Z</time>
      </trkpt>
      <trkpt lat="47.86733" lon="5.37041">
        <ele>331.7805</ele>
        <time>2014-08-04T14:53:49Z</time>
      </trkpt>
      <trkpt lat="47.86732" lon="5.37048">
        <ele>333.5916</ele>
        <time>2014-08-04T14:53:50Z</time>
      </trkpt>
      <trkpt lat="47.86731" lon="5.37056">
        <ele>333.151</ele>
        <time>2014-08-04T14:53:51Z</time>
      </trkpt>
      <trkpt lat="47.8673" lon="5.37064">
        <ele>332.891</ele>
        <time>2014-08-04T14:53:52Z</time>
      </trkpt>
      <trkpt lat="47.86729" lon="5.3707">
        <ele>333.9328</ele>
        <time>2014-08-04T14:53:53Z</time>
      </trkpt>
      <trkpt lat="47.86729" lon="5.37078">
        <ele>332.8501</ele>
        <time>2014-08-04T14:53:54Z</time>
      </trkpt>
      <trkpt lat="47.8673" lon="5.37085">
        <ele>331.9425</ele>
        <time>2014-08-04T14:53:55Z</time>
      </trkpt>
      <trkpt lat="47.86731" lon="5.37091">
        <ele>332.386</ele>
        <time>2014-08-04T14:53:56Z</time>
      </trkpt>
      <trkpt lat="47.86736" lon="5.37102">
        <ele>334.2391</ele>
        <time>2014-08-04T14:53:58Z</time>
      </trkpt>
      <trkpt lat="47.86742" lon="5.37108">
        <ele>334.8349</ele>
        <time>2014-08-04T14:54:00Z</time>
      </trkpt>
      <trkpt lat="47.86748" lon="5.37111">
        <ele>335.3377</ele>
        <time>2014-08-04T14:54:02Z</time>
      </trkpt>
      <trkpt lat="47.86754" lon="5.37112">
        <ele>335.8398</ele>
        <time>2014-08-04T14:54:04Z</time>
      </trkpt>
      <trkpt lat="47.8676" lon="5.37114">
        <ele>338.2441</ele>
        <time>2014-08-04T14:54:07Z</time>
      </trkpt>
      <trkpt lat="47.86766" lon="5.37116">
        <ele>337.7893</ele>
        <time>2014-08-04T14:54:10Z</time>
      </trkpt>
      <trkpt lat="47.86771" lon="5.37118">
        <ele>338.5871</ele>
        <time>2014-08-04T14:54:13Z</time>
      </trkpt>
      <trkpt lat="47.86776" lon="5.37122">
        <ele>338.4965</ele>
        <time>2014-08-04T14:54:16Z</time>
      </trkpt>
      <trkpt lat="47.86781" lon="5.37128">
        <ele>338.8957</ele>
        <time>2014-08-04T14:54:19Z</time>
      </trkpt>
      <trkpt lat="47.86786" lon="5.37134">
        <ele>340.3157</ele>
        <time>2014-08-04T14:54:22Z</time>
      </trkpt>
      <trkpt lat="47.86791" lon="5.3714">
        <ele>340.1784</ele>
        <time>2014-08-04T14:54:25Z</time>
      </trkpt>
      <trkpt lat="47.86796" lon="5.37145">
        <ele>339.712</ele>
        <time>2014-08-04T14:54:28Z</time>
      </trkpt>
      <trkpt lat="47.868" lon="5.37151">
        <ele>340.4814</ele>
        <time>2014-08-04T14:54:31Z</time>
      </trkpt>
      <trkpt lat="47.86804" lon="5.37156">
        <ele>340.6261</ele>
        <time>2014-08-04T14:54:34Z</time>
      </trkpt>
      <trkpt lat="47.86808" lon="5.37163">
        <ele>344.4069</ele>
        <time>2014-08-04T14:54:37Z</time>
      </trkpt>
      <trkpt lat="47.86813" lon="5.37168">
        <ele>344.7656</ele>
        <time>2014-08-04T14:54:40Z</time>
      </trkpt>
      <trkpt lat="47.86817" lon="5.37174">
        <ele>345.2788</ele>
        <time>2014-08-04T14:54:43Z</time>
      </trkpt>
      <trkpt lat="47.86821" lon="5.3718">
        <ele>343.576</ele>
        <time>2014-08-04T14:54:47Z</time>
      </trkpt>
      <trkpt lat="47.86825" lon="5.37186">
        <ele>343.6179</ele>
        <time>2014-08-04T14:54:50Z</time>
      </trkpt>
      <trkpt lat="47.86829" lon="5.37192">
        <ele>344.4175</ele>
        <time>2014-08-04T14:54:53Z</time>
      </trkpt>
      <trkpt lat="47.86833" lon="5.37197">
        <ele>343.0344</ele>
        <time>2014-08-04T14:54:56Z</time>
      </trkpt>
      <trkpt lat="47.86837" lon="5.37203">
        <ele>344.4924</ele>
        <time>2014-08-04T14:54:59Z</time>
      </trkpt>
      <trkpt lat="47.86841" lon="5.37207">
        <ele>345.5222</ele>
        <time>2014-08-04T14:55:01Z</time>
      </trkpt>
      <trkpt lat="47.86845" lon="5.37211">
        <ele>345.7839</ele>
        <time>2014-08-04T14:55:04Z</time>
      </trkpt>
      <trkpt lat="47.86849" lon="5.37215">
        <ele>347.9811</ele>
        <time>2014-08-04T14:55:07Z</time>
      </trkpt>
      <trkpt lat="47.8685" lon="5.37223">
        <ele>349.0258</ele>
        <time>2014-08-04T14:55:10Z</time>
      </trkpt>
      <trkpt lat="47.86848" lon="5.37231">
        <ele>351.0074</ele>
        <time>2014-08-04T14:55:13Z</time>
      </trkpt>
      <trkpt lat="47.86844" lon="5.37238">
        <ele>351.8922</ele>
        <time>2014-08-04T14:55:15Z</time>
      </trkpt>
      <trkpt lat="47.86844" lon="5.37248">
        <ele>348.2915</ele>
        <time>2014-08-04T14:55:18Z</time>
      </trkpt>
      <trkpt lat="47.86846" lon="5.37256">
        <ele>345.1055</ele>
        <time>2014-08-04T14:55:20Z</time>
      </trkpt>
      <trkpt lat="47.86849" lon="5.37266">
        <ele>344.9641</ele>
        <time>2014-08-04T14:55:22Z</time>
      </trkpt>
      <trkpt lat="47.86852" lon="5.37276">
        <ele>345.7307</ele>
        <time>2014-08-04T14:55:24Z</time>
      </trkpt>
      <trkpt lat="47.86857" lon="5.37286">
        <ele>345.9673</ele>
        <time>2014-08-04T14:55:26Z</time>
      </trkpt>
      <trkpt lat="47.86861" lon="5.37296">
        <ele>346.7366</ele>
        <time>2014-08-04T14:55:28Z</time>
      </trkpt>
      <trkpt lat="47.86866" lon="5.37306">
        <ele>344.9768</ele>
        <time>2014-08-04T14:55:30Z</time>
      </trkpt>
      <trkpt lat="47.86868" lon="5.37314">
        <ele>349.8096</ele>
        <time>2014-08-04T14:55:32Z</time>
      </trkpt>
      <trkpt lat="47.86873" lon="5.37323">
        <ele>348.375</ele>
        <time>2014-08-04T14:55:34Z</time>
      </trkpt>
      <trkpt lat="47.86876" lon="5.37334">
        <ele>348.0437</ele>
        <time>2014-08-04T14:55:36Z</time>
      </trkpt>
      <trkpt lat="47.86881" lon="5.37345">
        <ele>346.3113</ele>
        <time>2014-08-04T14:55:38Z</time>
      </trkpt>
      <trkpt lat="47.86886" lon="5.37351">
        <ele>346.8948</ele>
        <time>2014-08-04T14:55:40Z</time>
      </trkpt>
      <trkpt lat="47.86892" lon="5.37357">
        <ele>346.9285</ele>
        <time>2014-08-04T14:55:42Z</time>
      </trkpt>
      <trkpt lat="47.86895" lon="5.37362">
        <ele>348.0511</ele>
        <time>2014-08-04T14:55:43Z</time>
      </trkpt>
      <trkpt lat="47.86897" lon="5.37368">
        <ele>348.5283</ele>
        <time>2014-08-04T14:55:44Z</time>
      </trkpt>
      <trkpt lat="47.869" lon="5.37374">
        <ele>346.5702</ele>
        <time>2014-08-04T14:55:45Z</time>
      </trkpt>
      <trkpt lat="47.86905" lon="5.37385">
        <ele>346.0003</ele>
        <time>2014-08-04T14:55:47Z</time>
      </trkpt>
      <trkpt lat="47.86909" lon="5.37395">
        <ele>348.918</ele>
        <time>2014-08-04T14:55:49Z</time>
      </trkpt>
      <trkpt lat="47.86913" lon="5.37406">
        <ele>347.9358</ele>
        <time>2014-08-04T14:55:51Z</time>
      </trkpt>
      <trkpt lat="47.86915" lon="5.37412">
        <ele>347.0372</ele>
        <time>2014-08-04T14:55:52Z</time>
      </trkpt>
      <trkpt lat="47.86917" lon="5.37418">
        <ele>345.4422</ele>
        <time>2014-08-04T14:55:53Z</time>
      </trkpt>
      <trkpt lat="47.8692" lon="5.37424">
        <ele>347.3405</ele>
        <time>2014-08-04T14:55:54Z</time>
      </trkpt>
      <trkpt lat="47.86923" lon="5.3743">
        <ele>345.4924</ele>
        <time>2014-08-04T14:55:55Z</time>
      </trkpt>
      <trkpt lat="47.86926" lon="5.37436">
        <ele>348.0681</ele>
        <time>2014-08-04T14:55:56Z</time>
      </trkpt>
      <trkpt lat="47.86929" lon="5.37442">
        <ele>345.0902</ele>
        <time>2014-08-04T14:55:57Z</time>
      </trkpt>
      <trkpt lat="47.86931" lon="5.37448">
        <ele>346.146</ele>
        <time>2014-08-04T14:55:58Z</time>
      </trkpt>
      <trkpt lat="47.86933" lon="5.3746">
        <ele>343.9218</ele>
        <time>2014-08-04T14:56:00Z</time>
      </trkpt>
      <trkpt lat="47.86932" lon="5.37468">
        <ele>341.7178</ele>
        <time>2014-08-04T14:56:01Z</time>
      </trkpt>
      <trkpt lat="47.86929" lon="5.37475">
        <ele>343.2537</ele>
        <time>2014-08-04T14:56:02Z</time>
      </trkpt>
      <trkpt lat="47.86926" lon="5.37482">
        <ele>342.2793</ele>
        <time>2014-08-04T14:56:03Z</time>
      </trkpt>
      <trkpt lat="47.86923" lon="5.37488">
        <ele>343.7507</ele>
        <time>2014-08-04T14:56:04Z</time>
      </trkpt>
      <trkpt lat="47.86921" lon="5.37495">
        <ele>344.4119</ele>
        <time>2014-08-04T14:56:05Z</time>
      </trkpt>
      <trkpt lat="47.86919" lon="5.37502">
        <ele>344.1362</ele>
        <time>2014-08-04T14:56:06Z</time>
      </trkpt>
      <trkpt lat="47.86918" lon="5.37509">
        <ele>344.6326</ele>
        <time>2014-08-04T14:56:07Z</time>
      </trkpt>
      <trkpt lat="47.86916" lon="5.37516">
        <ele>345.523</ele>
        <time>2014-08-04T14:56:08Z</time>
      </trkpt>
      <trkpt lat="47.86914" lon="5.37522">
        <ele>346.1509</ele>
        <time>2014-08-04T14:56:09Z</time>
      </trkpt>
      <trkpt lat="47.86913" lon="5.3753">
        <ele>344.8966</ele>
        <time>2014-08-04T14:56:10Z</time>
      </trkpt>
      <trkpt lat="47.86911" lon="5.37536">
        <ele>345.9435</ele>
        <time>2014-08-04T14:56:11Z</time>
      </trkpt>
      <trkpt lat="47.86909" lon="5.37543">
        <ele>347.765</ele>
        <time>2014-08-04T14:56:12Z</time>
      </trkpt>
      <trkpt lat="47.86907" lon="5.3755">
        <ele>348.3445</ele>
        <time>2014-08-04T14:56:13Z</time>
      </trkpt>
      <trkpt lat="47.86905" lon="5.37557">
        <ele>348.7057</ele>
        <time>2014-08-04T14:56:14Z</time>
      </trkpt>
      <trkpt lat="47.86903" lon="5.37564">
        <ele>348.0588</ele>
        <time>2014-08-04T14:56:15Z</time>
      </trkpt>
      <trkpt lat="47.86901" lon="5.37571">
        <ele>350.038</ele>
        <time>2014-08-04T14:56:16Z</time>
      </trkpt>
      <trkpt lat="47.86899" lon="5.37579">
        <ele>349.3847</ele>
        <time>2014-08-04T14:56:17Z</time>
      </trkpt>
      <trkpt lat="47.86898" lon="5.37586">
        <ele>348.988</ele>
        <time>2014-08-04T14:56:18Z</time>
      </trkpt>
      <trkpt lat="47.86897" lon="5.37594">
        <ele>348.6232</ele>
        <time>2014-08-04T14:56:19Z</time>
      </trkpt>
      <trkpt lat="47.86896" lon="5.37602">
        <ele>348.4573</ele>
        <time>2014-08-04T14:56:20Z</time>
      </trkpt>
      <trkpt lat="47.86896" lon="5.37609">
        <ele>348.5094</ele>
        <time>2014-08-04T14:56:21Z</time>
      </trkpt>
      <trkpt lat="47.86895" lon="5.37617">
        <ele>348.8571</ele>
        <time>2014-08-04T14:56:22Z</time>
      </trkpt>
      <trkpt lat="47.86895" lon="5.37625">
        <ele>348.3655</ele>
        <time>2014-08-04T14:56:23Z</time>
      </trkpt>
      <trkpt lat="47.86896" lon="5.37632">
        <ele>346.9863</ele>
        <time>2014-08-04T14:56:24Z</time>
      </trkpt>
      <trkpt lat="47.86898" lon="5.37641">
        <ele>346.0929</ele>
        <time>2014-08-04T14:56:25Z</time>
      </trkpt>
      <trkpt lat="47.86899" lon="5.37648">
        <ele>346.9676</ele>
        <time>2014-08-04T14:56:26Z</time>
      </trkpt>
      <trkpt lat="47.86901" lon="5.37655">
        <ele>345.3802</ele>
        <time>2014-08-04T14:56:27Z</time>
      </trkpt>
      <trkpt lat="47.86902" lon="5.37668">
        <ele>342.1731</ele>
        <time>2014-08-04T14:56:29Z</time>
      </trkpt>
      <trkpt lat="47.86904" lon="5.37674">
        <ele>345.5002</ele>
        <time>2014-08-04T14:56:30Z</time>
      </trkpt>
      <trkpt lat="47.86906" lon="5.37681">
        <ele>348.2656</ele>
        <time>2014-08-04T14:56:31Z</time>
      </trkpt>
      <trkpt lat="47.8691" lon="5.37687">
        <ele>349.8461</ele>
        <time>2014-08-04T14:56:32Z</time>
      </trkpt>
      <trkpt lat="47.86913" lon="5.37693">
        <ele>349.6872</ele>
        <time>2014-08-04T14:56:33Z</time>
      </trkpt>
      <trkpt lat="47.86916" lon="5.37699">
        <ele>349.5879</ele>
        <time>2014-08-04T14:56:34Z</time>
      </trkpt>
      <trkpt lat="47.8692" lon="5.3771">
        <ele>350.2006</ele>
        <time>2014-08-04T14:56:36Z</time>
      </trkpt>
      <trkpt lat="47.86923" lon="5.37717">
        <ele>348.9607</ele>
        <time>2014-08-04T14:56:37Z</time>
      </trkpt>
      <trkpt lat="47.86926" lon="5.37729">
        <ele>346.7308</ele>
        <time>2014-08-04T14:56:39Z</time>
      </trkpt>
      <trkpt lat="47.86927" lon="5.37736">
        <ele>348.9315</ele>
        <time>2014-08-04T14:56:40Z</time>
      </trkpt>
      <trkpt lat="47.86928" lon="5.37743">
        <ele>351.1621</ele>
        <time>2014-08-04T14:56:41Z</time>
      </trkpt>
      <trkpt lat="47.8693" lon="5.3775">
        <ele>350.3132</ele>
        <time>2014-08-04T14:56:42Z</time>
      </trkpt>
      <trkpt lat="47.86932" lon="5.37757">
        <ele>347.6384</ele>
        <time>2014-08-04T14:56:43Z</time>
      </trkpt>
      <trkpt lat="47.86934" lon="5.37764">
        <ele>347.5815</ele>
        <time>2014-08-04T14:56:44Z</time>
      </trkpt>
      <trkpt lat="47.86936" lon="5.37771">
        <ele>347.7014</ele>
        <time>2014-08-04T14:56:45Z</time>
      </trkpt>
      <trkpt lat="47.86939" lon="5.37783">
        <ele>346.2892</ele>
        <time>2014-08-04T14:56:47Z</time>
      </trkpt>
      <trkpt lat="47.8694" lon="5.3779">
        <ele>345.3987</ele>
        <time>2014-08-04T14:56:48Z</time>
      </trkpt>
      <trkpt lat="47.86942" lon="5.37798">
        <ele>347.5484</ele>
        <time>2014-08-04T14:56:49Z</time>
      </trkpt>
      <trkpt lat="47.86944" lon="5.37805">
        <ele>345.1771</ele>
        <time>2014-08-04T14:56:50Z</time>
      </trkpt>
      <trkpt lat="47.86946" lon="5.37813">
        <ele>347.1678</ele>
        <time>2014-08-04T14:56:51Z</time>
      </trkpt>
      <trkpt lat="47.86948" lon="5.3782">
        <ele>345.2243</ele>
        <time>2014-08-04T14:56:52Z</time>
      </trkpt>
      <trkpt lat="47.86951" lon="5.37827">
        <ele>345.1715</ele>
        <time>2014-08-04T14:56:53Z</time>
      </trkpt>
      <trkpt lat="47.86953" lon="5.37834">
        <ele>346.6685</ele>
        <time>2014-08-04T14:56:54Z</time>
      </trkpt>
      <trkpt lat="47.86954" lon="5.37841">
        <ele>347.0806</ele>
        <time>2014-08-04T14:56:55Z</time>
      </trkpt>
      <trkpt lat="47.86954" lon="5.3785">
        <ele>346.0119</ele>
        <time>2014-08-04T14:56:56Z</time>
      </trkpt>
      <trkpt lat="47.86955" lon="5.37858">
        <ele>346.0623</ele>
        <time>2014-08-04T14:56:57Z</time>
      </trkpt>
      <trkpt lat="47.86955" lon="5.37868">
        <ele>343.6758</ele>
        <time>2014-08-04T14:56:58Z</time>
      </trkpt>
      <trkpt lat="47.86956" lon="5.37878">
        <ele>345.0621</ele>
        <time>2014-08-04T14:56:59Z</time>
      </trkpt>
      <trkpt lat="47.86957" lon="5.37888">
        <ele>346.3856</ele>
        <time>2014-08-04T14:57:00Z</time>
      </trkpt>
      <trkpt lat="47.86958" lon="5.37896">
        <ele>347.1108</ele>
        <time>2014-08-04T14:57:01Z</time>
      </trkpt>
      <trkpt lat="47.8696" lon="5.37904">
        <ele>344.3016</ele>
        <time>2014-08-04T14:57:02Z</time>
      </trkpt>
      <trkpt lat="47.86962" lon="5.37911">
        <ele>344.4559</ele>
        <time>2014-08-04T14:57:03Z</time>
      </trkpt>
      <trkpt lat="47.86964" lon="5.37919">
        <ele>346.2802</ele>
        <time>2014-08-04T14:57:04Z</time>
      </trkpt>
      <trkpt lat="47.86966" lon="5.37927">
        <ele>348.3532</ele>
        <time>2014-08-04T14:57:05Z</time>
      </trkpt>
      <trkpt lat="47.86968" lon="5.37934">
        <ele>350.3463</ele>
        <time>2014-08-04T14:57:06Z</time>
      </trkpt>
      <trkpt lat="47.8697" lon="5.37942">
        <ele>350.524</ele>
        <time>2014-08-04T14:57:07Z</time>
      </trkpt>
      <trkpt lat="47.86972" lon="5.3795">
        <ele>351.5339</ele>
        <time>2014-08-04T14:57:08Z</time>
      </trkpt>
      <trkpt lat="47.86975" lon="5.37957">
        <ele>350.7113</ele>
        <time>2014-08-04T14:57:09Z</time>
      </trkpt>
      <trkpt lat="47.86978" lon="5.37964">
        <ele>347.5451</ele>
        <time>2014-08-04T14:57:10Z</time>
      </trkpt>
      <trkpt lat="47.8698" lon="5.37972">
        <ele>347.2854</ele>
        <time>2014-08-04T14:57:11Z</time>
      </trkpt>
      <trkpt lat="47.86983" lon="5.37978">
        <ele>345.3546</ele>
        <time>2014-08-04T14:57:12Z</time>
      </trkpt>
      <trkpt lat="47.86986" lon="5.37985">
        <ele>348.1013</ele>
        <time>2014-08-04T14:57:13Z</time>
      </trkpt>
      <trkpt lat="47.86988" lon="5.37992">
        <ele>347.4488</ele>
        <time>2014-08-04T14:57:14Z</time>
      </trkpt>
      <trkpt lat="47.86991" lon="5.37999">
        <ele>347.7591</ele>
        <time>2014-08-04T14:57:15Z</time>
      </trkpt>
      <trkpt lat="47.86992" lon="5.38006">
        <ele>348.3127</ele>
        <time>2014-08-04T14:57:16Z</time>
      </trkpt>
      <trkpt lat="47.86993" lon="5.38014">
        <ele>347.5859</ele>
        <time>2014-08-04T14:57:17Z</time>
      </trkpt>
      <trkpt lat="47.86996" lon="5.3802">
        <ele>347.736</ele>
        <time>2014-08-04T14:57:18Z</time>
      </trkpt>
      <trkpt lat="47.87" lon="5.38031">
        <ele>348.115</ele>
        <time>2014-08-04T14:57:20Z</time>
      </trkpt>
      <trkpt lat="47.87002" lon="5.38038">
        <ele>347.343</ele>
        <time>2014-08-04T14:57:21Z</time>
      </trkpt>
      <trkpt lat="47.87007" lon="5.38049">
        <ele>349.2185</ele>
        <time>2014-08-04T14:57:23Z</time>
      </trkpt>
      <trkpt lat="47.87011" lon="5.38058">
        <ele>348.3164</ele>
        <time>2014-08-04T14:57:25Z</time>
      </trkpt>
      <trkpt lat="47.87013" lon="5.38068">
        <ele>346.5895</ele>
        <time>2014-08-04T14:57:27Z</time>
      </trkpt>
      <trkpt lat="47.87017" lon="5.38079">
        <ele>349.8476</ele>
        <time>2014-08-04T14:57:29Z</time>
      </trkpt>
      <trkpt lat="47.87021" lon="5.3809">
        <ele>348.4407</ele>
        <time>2014-08-04T14:57:31Z</time>
      </trkpt>
      <trkpt lat="47.87025" lon="5.38101">
        <ele>348.1537</ele>
        <time>2014-08-04T14:57:33Z</time>
      </trkpt>
      <trkpt lat="47.87028" lon="5.38108">
        <ele>347.2236</ele>
        <time>2014-08-04T14:57:34Z</time>
      </trkpt>
      <trkpt lat="47.87031" lon="5.38116">
        <ele>345.6125</ele>
        <time>2014-08-04T14:57:35Z</time>
      </trkpt>
      <trkpt lat="47.87034" lon="5.38122">
        <ele>344.0259</ele>
        <time>2014-08-04T14:57:36Z</time>
      </trkpt>
      <trkpt lat="47.87035" lon="5.38128">
        <ele>344.701</ele>
        <time>2014-08-04T14:57:37Z</time>
      </trkpt>
      <trkpt lat="47.87038" lon="5.38134">
        <ele>348.1865</ele>
        <time>2014-08-04T14:57:38Z</time>
      </trkpt>
      <trkpt lat="47.8704" lon="5.3814">
        <ele>347.5866</ele>
        <time>2014-08-04T14:57:39Z</time>
      </trkpt>
      <trkpt lat="47.87045" lon="5.38151">
        <ele>347.6094</ele>
        <time>2014-08-04T14:57:41Z</time>
      </trkpt>
      <trkpt lat="47.8705" lon="5.38162">
        <ele>346.1609</ele>
        <time>2014-08-04T14:57:43Z</time>
      </trkpt>
      <trkpt lat="47.87053" lon="5.38168">
        <ele>348.8264</ele>
        <time>2014-08-04T14:57:44Z</time>
      </trkpt>
      <trkpt lat="47.87056" lon="5.38174">
        <ele>348.2842</ele>
        <time>2014-08-04T14:57:45Z</time>
      </trkpt>
      <trkpt lat="47.87059" lon="5.38179">
        <ele>349.8463</ele>
        <time>2014-08-04T14:57:46Z</time>
      </trkpt>
      <trkpt lat="47.87065" lon="5.38189">
        <ele>351.7015</ele>
        <time>2014-08-04T14:57:48Z</time>
      </trkpt>
      <trkpt lat="47.87069" lon="5.38195">
        <ele>348.8999</ele>
        <time>2014-08-04T14:57:49Z</time>
      </trkpt>
      <trkpt lat="47.87072" lon="5.38201">
        <ele>347.9395</ele>
        <time>2014-08-04T14:57:50Z</time>
      </trkpt>
      <trkpt lat="47.87075" lon="5.38206">
        <ele>347.9495</ele>
        <time>2014-08-04T14:57:51Z</time>
      </trkpt>
      <trkpt lat="47.87078" lon="5.38211">
        <ele>347.8799</ele>
        <time>2014-08-04T14:57:52Z</time>
      </trkpt>
      <trkpt lat="47.87082" lon="5.38216">
        <ele>347.0948</ele>
        <time>2014-08-04T14:57:53Z</time>
      </trkpt>
      <trkpt lat="47.87085" lon="5.3822">
        <ele>345.3264</ele>
        <time>2014-08-04T14:57:54Z</time>
      </trkpt>
      <trkpt lat="47.87089" lon="5.3823">
        <ele>343.0627</ele>
        <time>2014-08-04T14:57:56Z</time>
      </trkpt>
      <trkpt lat="47.87095" lon="5.38238">
        <ele>343.9836</ele>
        <time>2014-08-04T14:57:58Z</time>
      </trkpt>
      <trkpt lat="47.87098" lon="5.38242">
        <ele>345.5939</ele>
        <time>2014-08-04T14:57:59Z</time>
      </trkpt>
      <trkpt lat="47.87106" lon="5.38247">
        <ele>348.1543</ele>
        <time>2014-08-04T14:58:01Z</time>
      </trkpt>
      <trkpt lat="47.87112" lon="5.38251">
        <ele>346.4872</ele>
        <time>2014-08-04T14:58:03Z</time>
      </trkpt>
      <trkpt lat="47.87118" lon="5.38257">
        <ele>347.3632</ele>
        <time>2014-08-04T14:58:05Z</time>
      </trkpt>
      <trkpt lat="47.87122" lon="5.38268">
        <ele>348.7254</ele>
        <time>2014-08-04T14:58:07Z</time>
      </trkpt>
      <trkpt lat="47.87124" lon="5.38274">
        <ele>347.4196</ele>
        <time>2014-08-04T14:58:08Z</time>
      </trkpt>
      <trkpt lat="47.87125" lon="5.38281">
        <ele>348.0047</ele>
        <time>2014-08-04T14:58:09Z</time>
      </trkpt>
      <trkpt lat="47.87127" lon="5.38288">
        <ele>346.8301</ele>
        <time>2014-08-04T14:58:10Z</time>
      </trkpt>
      <trkpt lat="47.87128" lon="5.38296">
        <ele>345.975</ele>
        <time>2014-08-04T14:58:11Z</time>
      </trkpt>
      <trkpt lat="47.8713" lon="5.38304">
        <ele>344.8073</ele>
        <time>2014-08-04T14:58:12Z</time>
      </trkpt>
      <trkpt lat="47.87132" lon="5.38312">
        <ele>344.2246</ele>
        <time>2014-08-04T14:58:13Z</time>
      </trkpt>
      <trkpt lat="47.87133" lon="5.38321">
        <ele>344.3324</ele>
        <time>2014-08-04T14:58:14Z</time>
      </trkpt>
      <trkpt lat="47.87135" lon="5.38329">
        <ele>343.1438</ele>
        <time>2014-08-04T14:58:15Z</time>
      </trkpt>
      <trkpt lat="47.87137" lon="5.38337">
        <ele>344.5089</ele>
        <time>2014-08-04T14:58:16Z</time>
      </trkpt>
      <trkpt lat="47.87138" lon="5.38344">
        <ele>341.577</ele>
        <time>2014-08-04T14:58:17Z</time>
      </trkpt>
      <trkpt lat="47.87143" lon="5.38354">
        <ele>343.5698</ele>
        <time>2014-08-04T14:58:19Z</time>
      </trkpt>
      <trkpt lat="47.87147" lon="5.38365">
        <ele>342.0529</ele>
        <time>2014-08-04T14:58:21Z</time>
      </trkpt>
      <trkpt lat="47.87149" lon="5.38372">
        <ele>341.2217</ele>
        <time>2014-08-04T14:58:22Z</time>
      </trkpt>
      <trkpt lat="47.8715" lon="5.38378">
        <ele>342.9552</ele>
        <time>2014-08-04T14:58:23Z</time>
      </trkpt>
      <trkpt lat="47.87152" lon="5.38387">
        <ele>344.4158</ele>
        <time>2014-08-04T14:58:24Z</time>
      </trkpt>
      <trkpt lat="47.87154" lon="5.38395">
        <ele>347.0445</ele>
        <time>2014-08-04T14:58:25Z</time>
      </trkpt>
      <trkpt lat="47.87155" lon="5.38402">
        <ele>346.5221</ele>
        <time>2014-08-04T14:58:26Z</time>
      </trkpt>
      <trkpt lat="47.87157" lon="5.3841">
        <ele>343.8639</ele>
        <time>2014-08-04T14:58:27Z</time>
      </trkpt>
      <trkpt lat="47.87159" lon="5.38418">
        <ele>343.8792</ele>
        <time>2014-08-04T14:58:28Z</time>
      </trkpt>
      <trkpt lat="47.87159" lon="5.38425">
        <ele>343.7332</ele>
        <time>2014-08-04T14:58:29Z</time>
      </trkpt>
      <trkpt lat="47.87161" lon="5.38433">
        <ele>346.1874</ele>
        <time>2014-08-04T14:58:30Z</time>
      </trkpt>
      <trkpt lat="47.87162" lon="5.38439">
        <ele>346.3782</ele>
        <time>2014-08-04T14:58:31Z</time>
      </trkpt>
      <trkpt lat="47.87164" lon="5.38446">
        <ele>347.851</ele>
        <time>2014-08-04T14:58:32Z</time>
      </trkpt>
      <trkpt lat="47.87166" lon="5.38454">
        <ele>348.8239</ele>
        <time>2014-08-04T14:58:33Z</time>
      </trkpt>
      <trkpt lat="47.87167" lon="5.38461">
        <ele>350.1185</ele>
        <time>2014-08-04T14:58:34Z</time>
      </trkpt>
      <trkpt lat="47.8717" lon="5.38468">
        <ele>349.2953</ele>
        <time>2014-08-04T14:58:35Z</time>
      </trkpt>
      <trkpt lat="47.87174" lon="5.38478">
        <ele>346.5528</ele>
        <time>2014-08-04T14:58:37Z</time>
      </trkpt>
      <trkpt lat="47.87177" lon="5.38484">
        <ele>349.9085</ele>
        <time>2014-08-04T14:58:38Z</time>
      </trkpt>
      <trkpt lat="47.8718" lon="5.38491">
        <ele>348.8362</ele>
        <time>2014-08-04T14:58:39Z</time>
      </trkpt>
      <trkpt lat="47.87183" lon="5.38498">
        <ele>351.7806</ele>
        <time>2014-08-04T14:58:40Z</time>
      </trkpt>
      <trkpt lat="47.87185" lon="5.38504">
        <ele>351.4293</ele>
        <time>2014-08-04T14:58:41Z</time>
      </trkpt>
      <trkpt lat="47.87189" lon="5.38511">
        <ele>351.3683</ele>
        <time>2014-08-04T14:58:42Z</time>
      </trkpt>
      <trkpt lat="47.87191" lon="5.38517">
        <ele>350.1767</ele>
        <time>2014-08-04T14:58:43Z</time>
      </trkpt>
      <trkpt lat="47.87197" lon="5.38526">
        <ele>349.9604</ele>
        <time>2014-08-04T14:58:45Z</time>
      </trkpt>
      <trkpt lat="47.87203" lon="5.38534">
        <ele>348.6045</ele>
        <time>2014-08-04T14:58:47Z</time>
      </trkpt>
      <trkpt lat="47.87206" lon="5.38539">
        <ele>347.3181</ele>
        <time>2014-08-04T14:58:48Z</time>
      </trkpt>
      <trkpt lat="47.8721" lon="5.38544">
        <ele>346.6948</ele>
        <time>2014-08-04T14:58:49Z</time>
      </trkpt>
      <trkpt lat="47.87214" lon="5.38548">
        <ele>345.8535</ele>
        <time>2014-08-04T14:58:50Z</time>
      </trkpt>
      <trkpt lat="47.8722" lon="5.38557">
        <ele>344.7136</ele>
        <time>2014-08-04T14:58:52Z</time>
      </trkpt>
      <trkpt lat="47.87224" lon="5.38563">
        <ele>341.2404</ele>
        <time>2014-08-04T14:58:54Z</time>
      </trkpt>
      <trkpt lat="47.87229" lon="5.38568">
        <ele>336.5523</ele>
        <time>2014-08-04T14:58:56Z</time>
      </trkpt>
      <trkpt lat="47.87234" lon="5.3857">
        <ele>344.4218</ele>
        <time>2014-08-04T14:58:59Z</time>
      </trkpt>
      <trkpt lat="47.87238" lon="5.38573">
        <ele>347.3015</ele>
        <time>2014-08-04T14:59:05Z</time>
      </trkpt>
      <trkpt lat="47.87244" lon="5.38577">
        <ele>348.9371</ele>
        <time>2014-08-04T14:59:08Z</time>
      </trkpt>
      <trkpt lat="47.87249" lon="5.38574">
        <ele>348.0571</ele>
        <time>2014-08-04T14:59:11Z</time>
      </trkpt>
      <trkpt lat="47.87254" lon="5.38577">
        <ele>354.9052</ele>
        <time>2014-08-04T14:59:14Z</time>
      </trkpt>
      <trkpt lat="47.87259" lon="5.3858">
        <ele>354.1033</ele>
        <time>2014-08-04T14:59:16Z</time>
      </trkpt>
      <trkpt lat="47.87264" lon="5.38583">
        <ele>353.0395</ele>
        <time>2014-08-04T14:59:19Z</time>
      </trkpt>
      <trkpt lat="47.87271" lon="5.38587">
        <ele>352.7412</ele>
        <time>2014-08-04T14:59:22Z</time>
      </trkpt>
      <trkpt lat="47.87275" lon="5.38589">
        <ele>347.745</ele>
        <time>2014-08-04T14:59:24Z</time>
      </trkpt>
      <trkpt lat="47.87282" lon="5.38583">
        <ele>349.9323</ele>
        <time>2014-08-04T15:01:26Z</time>
      </trkpt>
      <trkpt lat="47.87289" lon="5.38577">
        <ele>350.5</ele>
        <time>2014-08-04T15:01:29Z</time>
      </trkpt>
      <trkpt lat="47.87297" lon="5.38576">
        <ele>347.3377</ele>
        <time>2014-08-04T15:01:31Z</time>
      </trkpt>
      <trkpt lat="47.87303" lon="5.38576">
        <ele>348.551</ele>
        <time>2014-08-04T15:01:32Z</time>
      </trkpt>
      <trkpt lat="47.87311" lon="5.38574">
        <ele>346.7006</ele>
        <time>2014-08-04T15:01:34Z</time>
      </trkpt>
      <trkpt lat="47.87316" lon="5.38573">
        <ele>346.2681</ele>
        <time>2014-08-04T15:01:35Z</time>
      </trkpt>
      <trkpt lat="47.87322" lon="5.38574">
        <ele>348.6939</ele>
        <time>2014-08-04T15:01:37Z</time>
      </trkpt>
      <trkpt lat="47.87327" lon="5.38575">
        <ele>346.2244</ele>
        <time>2014-08-04T15:01:39Z</time>
      </trkpt>
      <trkpt lat="47.87334" lon="5.38576">
        <ele>344.5034</ele>
        <time>2014-08-04T15:01:41Z</time>
      </trkpt>
      <trkpt lat="47.87343" lon="5.38577">
        <ele>344.8355</ele>
        <time>2014-08-04T15:01:43Z</time>
      </trkpt>
      <trkpt lat="47.87349" lon="5.38577">
        <ele>347.4086</ele>
        <time>2014-08-04T15:01:45Z</time>
      </trkpt>
      <trkpt lat="47.87355" lon="5.38584">
        <ele>347.616</ele>
        <time>2014-08-04T15:01:47Z</time>
      </trkpt>
      <trkpt lat="47.87361" lon="5.38591">
        <ele>352.0858</ele>
        <time>2014-08-04T15:01:49Z</time>
      </trkpt>
      <trkpt lat="47.87367" lon="5.38594">
        <ele>351.68</ele>
        <time>2014-08-04T15:01:51Z</time>
      </trkpt>
      <trkpt lat="47.87375" lon="5.38599">
        <ele>352.6316</ele>
        <time>2014-08-04T15:01:53Z</time>
      </trkpt>
      <trkpt lat="47.87381" lon="5.38605">
        <ele>350.1521</ele>
        <time>2014-08-04T15:01:55Z</time>
      </trkpt>
      <trkpt lat="47.87389" lon="5.38613">
        <ele>353.3072</ele>
        <time>2014-08-04T15:01:57Z</time>
      </trkpt>
      <trkpt lat="47.87397" lon="5.38614">
        <ele>348.2634</ele>
        <time>2014-08-04T15:01:59Z</time>
      </trkpt>
      <trkpt lat="47.87402" lon="5.38614">
        <ele>347.2309</ele>
        <time>2014-08-04T15:02:00Z</time>
      </trkpt>
      <trkpt lat="47.87408" lon="5.38612">
        <ele>346.227</ele>
        <time>2014-08-04T15:02:01Z</time>
      </trkpt>
      <trkpt lat="47.87414" lon="5.3861">
        <ele>348.9412</ele>
        <time>2014-08-04T15:02:02Z</time>
      </trkpt>
      <trkpt lat="47.87418" lon="5.38608">
        <ele>351.2684</ele>
        <time>2014-08-04T15:02:03Z</time>
      </trkpt>
      <trkpt lat="47.87424" lon="5.38605">
        <ele>351.4321</ele>
        <time>2014-08-04T15:02:04Z</time>
      </trkpt>
      <trkpt lat="47.87429" lon="5.38603">
        <ele>351.5818</ele>
        <time>2014-08-04T15:02:05Z</time>
      </trkpt>
      <trkpt lat="47.87434" lon="5.38599">
        <ele>355.5033</ele>
        <time>2014-08-04T15:02:06Z</time>
      </trkpt>
      <trkpt lat="47.87439" lon="5.38596">
        <ele>356.6801</ele>
        <time>2014-08-04T15:02:07Z</time>
      </trkpt>
      <trkpt lat="47.87443" lon="5.38595">
        <ele>354.5219</ele>
        <time>2014-08-04T15:02:08Z</time>
      </trkpt>
      <trkpt lat="47.87448" lon="5.38596">
        <ele>356.9872</ele>
        <time>2014-08-04T15:02:09Z</time>
      </trkpt>
      <trkpt lat="47.87456" lon="5.38603">
        <ele>353.1288</ele>
        <time>2014-08-04T15:02:11Z</time>
      </trkpt>
      <trkpt lat="47.8746" lon="5.38609">
        <ele>354.4215</ele>
        <time>2014-08-04T15:02:12Z</time>
      </trkpt>
      <trkpt lat="47.87463" lon="5.38616">
        <ele>352.0277</ele>
        <time>2014-08-04T15:02:13Z</time>
      </trkpt>
      <trkpt lat="47.87465" lon="5.38623">
        <ele>351.2652</ele>
        <time>2014-08-04T15:02:14Z</time>
      </trkpt>
      <trkpt lat="47.87466" lon="5.38631">
        <ele>351.5487</ele>
        <time>2014-08-04T15:02:15Z</time>
      </trkpt>
      <trkpt lat="47.87466" lon="5.3864">
        <ele>348.5857</ele>
        <time>2014-08-04T15:02:16Z</time>
      </trkpt>
      <trkpt lat="47.87466" lon="5.38648">
        <ele>348.6699</ele>
        <time>2014-08-04T15:02:17Z</time>
      </trkpt>
      <trkpt lat="47.87466" lon="5.38657">
        <ele>348.3492</ele>
        <time>2014-08-04T15:02:18Z</time>
      </trkpt>
      <trkpt lat="47.87465" lon="5.38667">
        <ele>349.0489</ele>
        <time>2014-08-04T15:02:19Z</time>
      </trkpt>
      <trkpt lat="47.87463" lon="5.38677">
        <ele>351.6046</ele>
        <time>2014-08-04T15:02:20Z</time>
      </trkpt>
      <trkpt lat="47.8746" lon="5.38685">
        <ele>350.5414</ele>
        <time>2014-08-04T15:02:21Z</time>
      </trkpt>
      <trkpt lat="47.87459" lon="5.38692">
        <ele>350.4221</ele>
        <time>2014-08-04T15:02:22Z</time>
      </trkpt>
      <trkpt lat="47.87457" lon="5.38699">
        <ele>351.2234</ele>
        <time>2014-08-04T15:02:23Z</time>
      </trkpt>
      <trkpt lat="47.87455" lon="5.38706">
        <ele>349.8594</ele>
        <time>2014-08-04T15:02:24Z</time>
      </trkpt>
      <trkpt lat="47.87452" lon="5.38713">
        <ele>347.9998</ele>
        <time>2014-08-04T15:02:25Z</time>
      </trkpt>
      <trkpt lat="47.87448" lon="5.38722">
        <ele>345.4977</ele>
        <time>2014-08-04T15:02:27Z</time>
      </trkpt>
      <trkpt lat="47.87445" lon="5.38728">
        <ele>346.1071</ele>
        <time>2014-08-04T15:02:28Z</time>
      </trkpt>
      <trkpt lat="47.87443" lon="5.38735">
        <ele>345.267</ele>
        <time>2014-08-04T15:02:29Z</time>
      </trkpt>
      <trkpt lat="47.87439" lon="5.38744">
        <ele>346.2238</ele>
        <time>2014-08-04T15:02:31Z</time>
      </trkpt>
      <trkpt lat="47.87434" lon="5.38753">
        <ele>345.5673</ele>
        <time>2014-08-04T15:02:33Z</time>
      </trkpt>
      <trkpt lat="47.87432" lon="5.38761">
        <ele>346.5948</ele>
        <time>2014-08-04T15:02:35Z</time>
      </trkpt>
      <trkpt lat="47.8743" lon="5.38768">
        <ele>350.0532</ele>
        <time>2014-08-04T15:02:37Z</time>
      </trkpt>
      <trkpt lat="47.87426" lon="5.38773">
        <ele>350.9124</ele>
        <time>2014-08-04T15:02:39Z</time>
      </trkpt>
      <trkpt lat="47.87421" lon="5.38779">
        <ele>351.713</ele>
        <time>2014-08-04T15:02:41Z</time>
      </trkpt>
      <trkpt lat="47.87415" lon="5.38788">
        <ele>350.5114</ele>
        <time>2014-08-04T15:02:43Z</time>
      </trkpt>
      <trkpt lat="47.87413" lon="5.38794">
        <ele>349.988</ele>
        <time>2014-08-04T15:02:44Z</time>
      </trkpt>
      <trkpt lat="47.87408" lon="5.38806">
        <ele>347.1407</ele>
        <time>2014-08-04T15:02:46Z</time>
      </trkpt>
      <trkpt lat="47.87406" lon="5.38812">
        <ele>346.4772</ele>
        <time>2014-08-04T15:02:47Z</time>
      </trkpt>
      <trkpt lat="47.87404" lon="5.38819">
        <ele>345.1034</ele>
        <time>2014-08-04T15:02:48Z</time>
      </trkpt>
      <trkpt lat="47.87401" lon="5.38826">
        <ele>342.8735</ele>
        <time>2014-08-04T15:02:49Z</time>
      </trkpt>
      <trkpt lat="47.87399" lon="5.38832">
        <ele>343.749</ele>
        <time>2014-08-04T15:02:50Z</time>
      </trkpt>
      <trkpt lat="47.87396" lon="5.38839">
        <ele>344.8055</ele>
        <time>2014-08-04T15:02:51Z</time>
      </trkpt>
      <trkpt lat="47.87394" lon="5.38844">
        <ele>346.5598</ele>
        <time>2014-08-04T15:02:52Z</time>
      </trkpt>
      <trkpt lat="47.87391" lon="5.38851">
        <ele>344.2854</ele>
        <time>2014-08-04T15:02:53Z</time>
      </trkpt>
      <trkpt lat="47.87388" lon="5.38864">
        <ele>344.2761</ele>
        <time>2014-08-04T15:02:55Z</time>
      </trkpt>
      <trkpt lat="47.87384" lon="5.38872">
        <ele>341.4189</ele>
        <time>2014-08-04T15:02:56Z</time>
      </trkpt>
      <trkpt lat="47.87383" lon="5.38879">
        <ele>343.3376</ele>
        <time>2014-08-04T15:02:57Z</time>
      </trkpt>
      <trkpt lat="47.8738" lon="5.38887">
        <ele>343.919</ele>
        <time>2014-08-04T15:02:58Z</time>
      </trkpt>
      <trkpt lat="47.87378" lon="5.38893">
        <ele>346.0197</ele>
        <time>2014-08-04T15:02:59Z</time>
      </trkpt>
      <trkpt lat="47.87375" lon="5.38901">
        <ele>346.3771</ele>
        <time>2014-08-04T15:03:00Z</time>
      </trkpt>
      <trkpt lat="47.87371" lon="5.38908">
        <ele>343.4561</ele>
        <time>2014-08-04T15:03:01Z</time>
      </trkpt>
      <trkpt lat="47.87368" lon="5.38915">
        <ele>342.6189</ele>
        <time>2014-08-04T15:03:02Z</time>
      </trkpt>
      <trkpt lat="47.87364" lon="5.38923">
        <ele>344.7327</ele>
        <time>2014-08-04T15:03:03Z</time>
      </trkpt>
      <trkpt lat="47.8736" lon="5.3893">
        <ele>343.9381</ele>
        <time>2014-08-04T15:03:04Z</time>
      </trkpt>
      <trkpt lat="47.87357" lon="5.38937">
        <ele>343.7339</ele>
        <time>2014-08-04T15:03:05Z</time>
      </trkpt>
      <trkpt lat="47.87354" lon="5.38944">
        <ele>345.6979</ele>
        <time>2014-08-04T15:03:06Z</time>
      </trkpt>
      <trkpt lat="47.87352" lon="5.38951">
        <ele>345.0751</ele>
        <time>2014-08-04T15:03:07Z</time>
      </trkpt>
      <trkpt lat="47.8735" lon="5.38957">
        <ele>347.1823</ele>
        <time>2014-08-04T15:03:08Z</time>
      </trkpt>
      <trkpt lat="47.87347" lon="5.3897">
        <ele>346.3372</ele>
        <time>2014-08-04T15:03:10Z</time>
      </trkpt>
      <trkpt lat="47.87347" lon="5.38978">
        <ele>344.0351</ele>
        <time>2014-08-04T15:03:11Z</time>
      </trkpt>
      <trkpt lat="47.87346" lon="5.38986">
        <ele>344.8747</ele>
        <time>2014-08-04T15:03:12Z</time>
      </trkpt>
      <trkpt lat="47.87345" lon="5.38994">
        <ele>347.5451</ele>
        <time>2014-08-04T15:03:13Z</time>
      </trkpt>
      <trkpt lat="47.87345" lon="5.39001">
        <ele>348.2224</ele>
        <time>2014-08-04T15:03:14Z</time>
      </trkpt>
      <trkpt lat="47.87344" lon="5.39012">
        <ele>347.4463</ele>
        <time>2014-08-04T15:03:16Z</time>
      </trkpt>
      <trkpt lat="47.87342" lon="5.39019">
        <ele>348.838</ele>
        <time>2014-08-04T15:03:17Z</time>
      </trkpt>
      <trkpt lat="47.87335" lon="5.39028">
        <ele>347.537</ele>
        <time>2014-08-04T15:03:19Z</time>
      </trkpt>
      <trkpt lat="47.87332" lon="5.39036">
        <ele>344.7267</ele>
        <time>2014-08-04T15:03:20Z</time>
      </trkpt>
      <trkpt lat="47.87331" lon="5.39044">
        <ele>344.4002</ele>
        <time>2014-08-04T15:03:21Z</time>
      </trkpt>
      <trkpt lat="47.87328" lon="5.39052">
        <ele>345.1239</ele>
        <time>2014-08-04T15:03:22Z</time>
      </trkpt>
      <trkpt lat="47.87325" lon="5.3906">
        <ele>346.3526</ele>
        <time>2014-08-04T15:03:23Z</time>
      </trkpt>
      <trkpt lat="47.87323" lon="5.39069">
        <ele>344.0223</ele>
        <time>2014-08-04T15:03:24Z</time>
      </trkpt>
      <trkpt lat="47.87321" lon="5.39075">
        <ele>344.0355</ele>
        <time>2014-08-04T15:03:25Z</time>
      </trkpt>
      <trkpt lat="47.87318" lon="5.39088">
        <ele>342.0442</ele>
        <time>2014-08-04T15:03:27Z</time>
      </trkpt>
      <trkpt lat="47.87316" lon="5.39095">
        <ele>342.0005</ele>
        <time>2014-08-04T15:03:28Z</time>
      </trkpt>
      <trkpt lat="47.87314" lon="5.39103">
        <ele>339.4486</ele>
        <time>2014-08-04T15:03:29Z</time>
      </trkpt>
      <trkpt lat="47.87313" lon="5.39112">
        <ele>339.127</ele>
        <time>2014-08-04T15:03:30Z</time>
      </trkpt>
      <trkpt lat="47.87312" lon="5.39119">
        <ele>341.2617</ele>
        <time>2014-08-04T15:03:31Z</time>
      </trkpt>
      <trkpt lat="47.8731" lon="5.39128">
        <ele>342.9861</ele>
        <time>2014-08-04T15:03:32Z</time>
      </trkpt>
      <trkpt lat="47.87309" lon="5.39136">
        <ele>341.7885</ele>
        <time>2014-08-04T15:03:33Z</time>
      </trkpt>
      <trkpt lat="47.87308" lon="5.39144">
        <ele>343.3351</ele>
        <time>2014-08-04T15:03:34Z</time>
      </trkpt>
      <trkpt lat="47.87306" lon="5.39152">
        <ele>347.6945</ele>
        <time>2014-08-04T15:03:35Z</time>
      </trkpt>
      <trkpt lat="47.87304" lon="5.3916">
        <ele>347.5438</ele>
        <time>2014-08-04T15:03:36Z</time>
      </trkpt>
      <trkpt lat="47.87302" lon="5.39167">
        <ele>346.6049</ele>
        <time>2014-08-04T15:03:37Z</time>
      </trkpt>
      <trkpt lat="47.87299" lon="5.39175">
        <ele>343.8205</ele>
        <time>2014-08-04T15:03:38Z</time>
      </trkpt>
      <trkpt lat="47.87297" lon="5.39183">
        <ele>346.6802</ele>
        <time>2014-08-04T15:03:39Z</time>
      </trkpt>
      <trkpt lat="47.87296" lon="5.39191">
        <ele>344.2755</ele>
        <time>2014-08-04T15:03:40Z</time>
      </trkpt>
      <trkpt lat="47.87294" lon="5.39199">
        <ele>347.054</ele>
        <time>2014-08-04T15:03:41Z</time>
      </trkpt>
      <trkpt lat="47.87293" lon="5.39208">
        <ele>348.4617</ele>
        <time>2014-08-04T15:03:42Z</time>
      </trkpt>
      <trkpt lat="47.87289" lon="5.39215">
        <ele>345.2704</ele>
        <time>2014-08-04T15:03:43Z</time>
      </trkpt>
      <trkpt lat="47.87286" lon="5.39222">
        <ele>343.9682</ele>
        <time>2014-08-04T15:03:44Z</time>
      </trkpt>
      <trkpt lat="47.87283" lon="5.3923">
        <ele>344.2107</ele>
        <time>2014-08-04T15:03:45Z</time>
      </trkpt>
      <trkpt lat="47.8728" lon="5.39238">
        <ele>343.6276</ele>
        <time>2014-08-04T15:03:46Z</time>
      </trkpt>
      <trkpt lat="47.87278" lon="5.39245">
        <ele>344.4468</ele>
        <time>2014-08-04T15:03:47Z</time>
      </trkpt>
      <trkpt lat="47.87275" lon="5.39252">
        <ele>344.6788</ele>
        <time>2014-08-04T15:03:48Z</time>
      </trkpt>
      <trkpt lat="47.87272" lon="5.39259">
        <ele>344.0385</ele>
        <time>2014-08-04T15:03:49Z</time>
      </trkpt>
      <trkpt lat="47.87268" lon="5.39265">
        <ele>345.2847</ele>
        <time>2014-08-04T15:03:50Z</time>
      </trkpt>
      <trkpt lat="47.87264" lon="5.39271">
        <ele>345.9022</ele>
        <time>2014-08-04T15:03:51Z</time>
      </trkpt>
      <trkpt lat="47.87259" lon="5.39277">
        <ele>344.827</ele>
        <time>2014-08-04T15:03:52Z</time>
      </trkpt>
      <trkpt lat="47.87255" lon="5.39281">
        <ele>345.1937</ele>
        <time>2014-08-04T15:03:53Z</time>
      </trkpt>
      <trkpt lat="47.8725" lon="5.39283">
        <ele>344.6118</ele>
        <time>2014-08-04T15:03:54Z</time>
      </trkpt>
      <trkpt lat="47.87245" lon="5.39287">
        <ele>346.032</ele>
        <time>2014-08-04T15:03:55Z</time>
      </trkpt>
      <trkpt lat="47.87239" lon="5.3929">
        <ele>347.1361</ele>
        <time>2014-08-04T15:03:56Z</time>
      </trkpt>
      <trkpt lat="47.87235" lon="5.39293">
        <ele>348.1329</ele>
        <time>2014-08-04T15:03:57Z</time>
      </trkpt>
      <trkpt lat="47.87229" lon="5.39299">
        <ele>350.4332</ele>
        <time>2014-08-04T15:03:58Z</time>
      </trkpt>
      <trkpt lat="47.87225" lon="5.39305">
        <ele>347.8318</ele>
        <time>2014-08-04T15:03:59Z</time>
      </trkpt>
      <trkpt lat="47.87221" lon="5.39312">
        <ele>348.4478</ele>
        <time>2014-08-04T15:04:00Z</time>
      </trkpt>
      <trkpt lat="47.87217" lon="5.39317">
        <ele>346.7824</ele>
        <time>2014-08-04T15:04:01Z</time>
      </trkpt>
      <trkpt lat="47.87213" lon="5.39323">
        <ele>345.8047</ele>
        <time>2014-08-04T15:04:02Z</time>
      </trkpt>
      <trkpt lat="47.8721" lon="5.39328">
        <ele>349.091</ele>
        <time>2014-08-04T15:04:03Z</time>
      </trkpt>
      <trkpt lat="47.87206" lon="5.39333">
        <ele>349.2361</ele>
        <time>2014-08-04T15:04:04Z</time>
      </trkpt>
      <trkpt lat="47.87202" lon="5.39339">
        <ele>347.7968</ele>
        <time>2014-08-04T15:04:05Z</time>
      </trkpt>
      <trkpt lat="47.87198" lon="5.39346">
        <ele>347.1782</ele>
        <time>2014-08-04T15:04:06Z</time>
      </trkpt>
      <trkpt lat="47.87194" lon="5.39353">
        <ele>346.1483</ele>
        <time>2014-08-04T15:04:07Z</time>
      </trkpt>
      <trkpt lat="47.8719" lon="5.3936">
        <ele>347.1796</ele>
        <time>2014-08-04T15:04:08Z</time>
      </trkpt>
      <trkpt lat="47.87186" lon="5.39366">
        <ele>345.8838</ele>
        <time>2014-08-04T15:04:09Z</time>
      </trkpt>
      <trkpt lat="47.87182" lon="5.39372">
        <ele>345.4855</ele>
        <time>2014-08-04T15:04:10Z</time>
      </trkpt>
      <trkpt lat="47.87179" lon="5.3938">
        <ele>345.1599</ele>
        <time>2014-08-04T15:04:11Z</time>
      </trkpt>
      <trkpt lat="47.87175" lon="5.39387">
        <ele>344.9567</ele>
        <time>2014-08-04T15:04:12Z</time>
      </trkpt>
      <trkpt lat="47.87172" lon="5.39394">
        <ele>342.9998</ele>
        <time>2014-08-04T15:04:13Z</time>
      </trkpt>
      <trkpt lat="47.8717" lon="5.39401">
        <ele>344.0749</ele>
        <time>2014-08-04T15:04:14Z</time>
      </trkpt>
      <trkpt lat="47.87167" lon="5.39409">
        <ele>343.6955</ele>
        <time>2014-08-04T15:04:15Z</time>
      </trkpt>
      <trkpt lat="47.87164" lon="5.39416">
        <ele>345.3676</ele>
        <time>2014-08-04T15:04:16Z</time>
      </trkpt>
      <trkpt lat="47.87161" lon="5.39424">
        <ele>347.8492</ele>
        <time>2014-08-04T15:04:17Z</time>
      </trkpt>
      <trkpt lat="47.87159" lon="5.39432">
        <ele>345.619</ele>
        <time>2014-08-04T15:04:18Z</time>
      </trkpt>
      <trkpt lat="47.87157" lon="5.39439">
        <ele>344.1491</ele>
        <time>2014-08-04T15:04:19Z</time>
      </trkpt>
      <trkpt lat="47.87155" lon="5.39448">
        <ele>340.7769</ele>
        <time>2014-08-04T15:04:20Z</time>
      </trkpt>
      <trkpt lat="47.87153" lon="5.39457">
        <ele>343.0665</ele>
        <time>2014-08-04T15:04:21Z</time>
      </trkpt>
      <trkpt lat="47.87151" lon="5.39466">
        <ele>341.7708</ele>
        <time>2014-08-04T15:04:22Z</time>
      </trkpt>
      <trkpt lat="47.8715" lon="5.39474">
        <ele>341.6975</ele>
        <time>2014-08-04T15:04:23Z</time>
      </trkpt>
      <trkpt lat="47.87148" lon="5.39483">
        <ele>342.498</ele>
        <time>2014-08-04T15:04:24Z</time>
      </trkpt>
      <trkpt lat="47.87147" lon="5.39492">
        <ele>344.5856</ele>
        <time>2014-08-04T15:04:25Z</time>
      </trkpt>
      <trkpt lat="47.87147" lon="5.39499">
        <ele>345.9225</ele>
        <time>2014-08-04T15:04:26Z</time>
      </trkpt>
      <trkpt lat="47.87146" lon="5.39506">
        <ele>344.3587</ele>
        <time>2014-08-04T15:04:27Z</time>
      </trkpt>
      <trkpt lat="47.87145" lon="5.39515">
        <ele>345.9116</ele>
        <time>2014-08-04T15:04:28Z</time>
      </trkpt>
      <trkpt lat="47.87145" lon="5.39523">
        <ele>346.8409</ele>
        <time>2014-08-04T15:04:29Z</time>
      </trkpt>
      <trkpt lat="47.87145" lon="5.39533">
        <ele>345.6626</ele>
        <time>2014-08-04T15:04:30Z</time>
      </trkpt>
      <trkpt lat="47.87144" lon="5.39541">
        <ele>348.3068</ele>
        <time>2014-08-04T15:04:31Z</time>
      </trkpt>
      <trkpt lat="47.87143" lon="5.39549">
        <ele>348.1828</ele>
        <time>2014-08-04T15:04:32Z</time>
      </trkpt>
      <trkpt lat="47.87143" lon="5.39558">
        <ele>351.0589</ele>
        <time>2014-08-04T15:04:33Z</time>
      </trkpt>
      <trkpt lat="47.87143" lon="5.39567">
        <ele>350.2905</ele>
        <time>2014-08-04T15:04:34Z</time>
      </trkpt>
      <trkpt lat="47.87143" lon="5.39576">
        <ele>347.5312</ele>
        <time>2014-08-04T15:04:35Z</time>
      </trkpt>
      <trkpt lat="47.87144" lon="5.39584">
        <ele>347.6333</ele>
        <time>2014-08-04T15:04:36Z</time>
      </trkpt>
      <trkpt lat="47.87145" lon="5.39592">
        <ele>346.0918</ele>
        <time>2014-08-04T15:04:37Z</time>
      </trkpt>
      <trkpt lat="47.87146" lon="5.39601">
        <ele>343.9768</ele>
        <time>2014-08-04T15:04:38Z</time>
      </trkpt>
      <trkpt lat="47.87147" lon="5.39609">
        <ele>341.4308</ele>
        <time>2014-08-04T15:04:39Z</time>
      </trkpt>
      <trkpt lat="47.87148" lon="5.39618">
        <ele>342.198</ele>
        <time>2014-08-04T15:04:40Z</time>
      </trkpt>
      <trkpt lat="47.87148" lon="5.39626">
        <ele>343.4827</ele>
        <time>2014-08-04T15:04:41Z</time>
      </trkpt>
      <trkpt lat="47.87148" lon="5.39634">
        <ele>345.3787</ele>
        <time>2014-08-04T15:04:42Z</time>
      </trkpt>
      <trkpt lat="47.87148" lon="5.39644">
        <ele>342.83</ele>
        <time>2014-08-04T15:04:43Z</time>
      </trkpt>
      <trkpt lat="47.87147" lon="5.39654">
        <ele>344.951</ele>
        <time>2014-08-04T15:04:44Z</time>
      </trkpt>
      <trkpt lat="47.87147" lon="5.39663">
        <ele>342.7683</ele>
        <time>2014-08-04T15:04:45Z</time>
      </trkpt>
      <trkpt lat="47.87147" lon="5.39673">
        <ele>345.1707</ele>
        <time>2014-08-04T15:04:46Z</time>
      </trkpt>
      <trkpt lat="47.87147" lon="5.39681">
        <ele>346.2406</ele>
        <time>2014-08-04T15:04:47Z</time>
      </trkpt>
      <trkpt lat="47.87148" lon="5.39688">
        <ele>347.476</ele>
        <time>2014-08-04T15:04:48Z</time>
      </trkpt>
      <trkpt lat="47.87148" lon="5.39695">
        <ele>346.6322</ele>
        <time>2014-08-04T15:04:49Z</time>
      </trkpt>
      <trkpt lat="47.87149" lon="5.39704">
        <ele>345.7089</ele>
        <time>2014-08-04T15:04:50Z</time>
      </trkpt>
      <trkpt lat="47.8715" lon="5.39712">
        <ele>345.4733</ele>
        <time>2014-08-04T15:04:51Z</time>
      </trkpt>
      <trkpt lat="47.87151" lon="5.3972">
        <ele>344.9329</ele>
        <time>2014-08-04T15:04:52Z</time>
      </trkpt>
      <trkpt lat="47.87152" lon="5.39729">
        <ele>345.7014</ele>
        <time>2014-08-04T15:04:53Z</time>
      </trkpt>
      <trkpt lat="47.87154" lon="5.39737">
        <ele>343.1231</ele>
        <time>2014-08-04T15:04:54Z</time>
      </trkpt>
      <trkpt lat="47.87156" lon="5.39743">
        <ele>343.7574</ele>
        <time>2014-08-04T15:04:55Z</time>
      </trkpt>
      <trkpt lat="47.87156" lon="5.39751">
        <ele>345.8895</ele>
        <time>2014-08-04T15:04:56Z</time>
      </trkpt>
      <trkpt lat="47.87156" lon="5.3976">
        <ele>346.7559</ele>
        <time>2014-08-04T15:04:57Z</time>
      </trkpt>
      <trkpt lat="47.87157" lon="5.39768">
        <ele>344.7209</ele>
        <time>2014-08-04T15:04:58Z</time>
      </trkpt>
      <trkpt lat="47.87158" lon="5.39777">
        <ele>342.7212</ele>
        <time>2014-08-04T15:04:59Z</time>
      </trkpt>
      <trkpt lat="47.87159" lon="5.39784">
        <ele>341.4211</ele>
        <time>2014-08-04T15:05:00Z</time>
      </trkpt>
      <trkpt lat="47.87161" lon="5.39797">
        <ele>339.5634</ele>
        <time>2014-08-04T15:05:02Z</time>
      </trkpt>
      <trkpt lat="47.87162" lon="5.39807">
        <ele>342.2324</ele>
        <time>2014-08-04T15:05:03Z</time>
      </trkpt>
      <trkpt lat="47.87163" lon="5.39815">
        <ele>343.9625</ele>
        <time>2014-08-04T15:05:04Z</time>
      </trkpt>
      <trkpt lat="47.87162" lon="5.39825">
        <ele>345.6455</ele>
        <time>2014-08-04T15:05:05Z</time>
      </trkpt>
      <trkpt lat="47.87162" lon="5.39836">
        <ele>340.3468</ele>
        <time>2014-08-04T15:05:06Z</time>
      </trkpt>
      <trkpt lat="47.87163" lon="5.39844">
        <ele>342.6083</ele>
        <time>2014-08-04T15:05:07Z</time>
      </trkpt>
      <trkpt lat="47.87163" lon="5.39853">
        <ele>343.8276</ele>
        <time>2014-08-04T15:05:08Z</time>
      </trkpt>
      <trkpt lat="47.87164" lon="5.39861">
        <ele>339.1621</ele>
        <time>2014-08-04T15:05:09Z</time>
      </trkpt>
      <trkpt lat="47.87164" lon="5.39869">
        <ele>338.873</ele>
        <time>2014-08-04T15:05:10Z</time>
      </trkpt>
      <trkpt lat="47.87166" lon="5.39877">
        <ele>337.4663</ele>
        <time>2014-08-04T15:05:11Z</time>
      </trkpt>
      <trkpt lat="47.87166" lon="5.39884">
        <ele>334.5206</ele>
        <time>2014-08-04T15:05:12Z</time>
      </trkpt>
      <trkpt lat="47.87167" lon="5.39893">
        <ele>335.5742</ele>
        <time>2014-08-04T15:05:13Z</time>
      </trkpt>
      <trkpt lat="47.87168" lon="5.39901">
        <ele>336.2484</ele>
        <time>2014-08-04T15:05:14Z</time>
      </trkpt>
      <trkpt lat="47.87169" lon="5.3991">
        <ele>335.8016</ele>
        <time>2014-08-04T15:05:15Z</time>
      </trkpt>
      <trkpt lat="47.87169" lon="5.39919">
        <ele>337.3454</ele>
        <time>2014-08-04T15:05:16Z</time>
      </trkpt>
      <trkpt lat="47.87169" lon="5.39926">
        <ele>337.4839</ele>
        <time>2014-08-04T15:05:17Z</time>
      </trkpt>
      <trkpt lat="47.87168" lon="5.39935">
        <ele>340.5167</ele>
        <time>2014-08-04T15:05:18Z</time>
      </trkpt>
      <trkpt lat="47.87169" lon="5.39943">
        <ele>341.5387</ele>
        <time>2014-08-04T15:05:19Z</time>
      </trkpt>
      <trkpt lat="47.8717" lon="5.39951">
        <ele>340.1171</ele>
        <time>2014-08-04T15:05:20Z</time>
      </trkpt>
      <trkpt lat="47.8717" lon="5.39958">
        <ele>334.8911</ele>
        <time>2014-08-04T15:05:21Z</time>
      </trkpt>
      <trkpt lat="47.87172" lon="5.39971">
        <ele>334.3553</ele>
        <time>2014-08-04T15:05:23Z</time>
      </trkpt>
      <trkpt lat="47.87173" lon="5.39978">
        <ele>334.1181</ele>
        <time>2014-08-04T15:05:24Z</time>
      </trkpt>
      <trkpt lat="47.87174" lon="5.39987">
        <ele>336.3443</ele>
        <time>2014-08-04T15:05:25Z</time>
      </trkpt>
      <trkpt lat="47.87175" lon="5.39997">
        <ele>335.6563</ele>
        <time>2014-08-04T15:05:26Z</time>
      </trkpt>
      <trkpt lat="47.87175" lon="5.40008">
        <ele>337.3788</ele>
        <time>2014-08-04T15:05:27Z</time>
      </trkpt>
      <trkpt lat="47.87175" lon="5.40019">
        <ele>335.9291</ele>
        <time>2014-08-04T15:05:28Z</time>
      </trkpt>
      <trkpt lat="47.87175" lon="5.40032">
        <ele>339.1431</ele>
        <time>2014-08-04T15:05:30Z</time>
      </trkpt>
      <trkpt lat="47.87175" lon="5.40039">
        <ele>335.6945</ele>
        <time>2014-08-04T15:05:31Z</time>
      </trkpt>
      <trkpt lat="47.87174" lon="5.40048">
        <ele>338.1501</ele>
        <time>2014-08-04T15:05:32Z</time>
      </trkpt>
      <trkpt lat="47.87174" lon="5.40058">
        <ele>339.7396</ele>
        <time>2014-08-04T15:05:33Z</time>
      </trkpt>
      <trkpt lat="47.87173" lon="5.40067">
        <ele>337.8719</ele>
        <time>2014-08-04T15:05:34Z</time>
      </trkpt>
      <trkpt lat="47.87173" lon="5.40076">
        <ele>338.1285</ele>
        <time>2014-08-04T15:05:35Z</time>
      </trkpt>
      <trkpt lat="47.87172" lon="5.40084">
        <ele>337.8881</ele>
        <time>2014-08-04T15:05:36Z</time>
      </trkpt>
      <trkpt lat="47.87172" lon="5.40093">
        <ele>338.9455</ele>
        <time>2014-08-04T15:05:37Z</time>
      </trkpt>
      <trkpt lat="47.87171" lon="5.40102">
        <ele>338.9873</ele>
        <time>2014-08-04T15:05:38Z</time>
      </trkpt>
      <trkpt lat="47.8717" lon="5.40112">
        <ele>340.2429</ele>
        <time>2014-08-04T15:05:39Z</time>
      </trkpt>
      <trkpt lat="47.8717" lon="5.40122">
        <ele>341.5656</ele>
        <time>2014-08-04T15:05:40Z</time>
      </trkpt>
      <trkpt lat="47.87169" lon="5.40131">
        <ele>340.1955</ele>
        <time>2014-08-04T15:05:41Z</time>
      </trkpt>
      <trkpt lat="47.87167" lon="5.40139">
        <ele>341.6106</ele>
        <time>2014-08-04T15:05:42Z</time>
      </trkpt>
      <trkpt lat="47.87166" lon="5.40148">
        <ele>343.2515</ele>
        <time>2014-08-04T15:05:43Z</time>
      </trkpt>
      <trkpt lat="47.87164" lon="5.40156">
        <ele>348.2852</ele>
        <time>2014-08-04T15:05:44Z</time>
      </trkpt>
      <trkpt lat="47.87164" lon="5.40164">
        <ele>346.449</ele>
        <time>2014-08-04T15:05:45Z</time>
      </trkpt>
      <trkpt lat="47.87163" lon="5.40173">
        <ele>348.2001</ele>
        <time>2014-08-04T15:05:46Z</time>
      </trkpt>
      <trkpt lat="47.87162" lon="5.40182">
        <ele>347.3589</ele>
        <time>2014-08-04T15:05:47Z</time>
      </trkpt>
      <trkpt lat="47.87162" lon="5.4019">
        <ele>346.47</ele>
        <time>2014-08-04T15:05:48Z</time>
      </trkpt>
      <trkpt lat="47.87161" lon="5.402">
        <ele>348.1354</ele>
        <time>2014-08-04T15:05:49Z</time>
      </trkpt>
      <trkpt lat="47.87162" lon="5.40209">
        <ele>345.0659</ele>
        <time>2014-08-04T15:05:50Z</time>
      </trkpt>
      <trkpt lat="47.87162" lon="5.40218">
        <ele>343.7778</ele>
        <time>2014-08-04T15:05:51Z</time>
      </trkpt>
      <trkpt lat="47.87163" lon="5.40226">
        <ele>345.2574</ele>
        <time>2014-08-04T15:05:52Z</time>
      </trkpt>
      <trkpt lat="47.87164" lon="5.40234">
        <ele>344.4987</ele>
        <time>2014-08-04T15:05:53Z</time>
      </trkpt>
      <trkpt lat="47.87164" lon="5.40242">
        <ele>345.6653</ele>
        <time>2014-08-04T15:05:54Z</time>
      </trkpt>
      <trkpt lat="47.87165" lon="5.4025">
        <ele>345.9368</ele>
        <time>2014-08-04T15:05:55Z</time>
      </trkpt>
      <trkpt lat="47.87165" lon="5.40257">
        <ele>344.8318</ele>
        <time>2014-08-04T15:05:56Z</time>
      </trkpt>
      <trkpt lat="47.87166" lon="5.40265">
        <ele>345.6686</ele>
        <time>2014-08-04T15:05:57Z</time>
      </trkpt>
      <trkpt lat="47.87167" lon="5.40279">
        <ele>343.6388</ele>
        <time>2014-08-04T15:05:59Z</time>
      </trkpt>
      <trkpt lat="47.87167" lon="5.40288">
        <ele>342.8705</ele>
        <time>2014-08-04T15:06:00Z</time>
      </trkpt>
      <trkpt lat="47.87169" lon="5.40296">
        <ele>341.9379</ele>
        <time>2014-08-04T15:06:01Z</time>
      </trkpt>
      <trkpt lat="47.8717" lon="5.40304">
        <ele>344.8398</ele>
        <time>2014-08-04T15:06:02Z</time>
      </trkpt>
      <trkpt lat="47.87172" lon="5.40312">
        <ele>342.5419</ele>
        <time>2014-08-04T15:06:03Z</time>
      </trkpt>
      <trkpt lat="47.87173" lon="5.4032">
        <ele>341.946</ele>
        <time>2014-08-04T15:06:04Z</time>
      </trkpt>
      <trkpt lat="47.87175" lon="5.40328">
        <ele>341.6762</ele>
        <time>2014-08-04T15:06:05Z</time>
      </trkpt>
      <trkpt lat="47.87178" lon="5.40337">
        <ele>340.5064</ele>
        <time>2014-08-04T15:06:06Z</time>
      </trkpt>
      <trkpt lat="47.8718" lon="5.40345">
        <ele>341.6864</ele>
        <time>2014-08-04T15:06:07Z</time>
      </trkpt>
      <trkpt lat="47.87182" lon="5.40353">
        <ele>343.0461</ele>
        <time>2014-08-04T15:06:08Z</time>
      </trkpt>
      <trkpt lat="47.87184" lon="5.40361">
        <ele>341.1005</ele>
        <time>2014-08-04T15:06:09Z</time>
      </trkpt>
      <trkpt lat="47.87187" lon="5.40369">
        <ele>340.5407</ele>
        <time>2014-08-04T15:06:10Z</time>
      </trkpt>
      <trkpt lat="47.8719" lon="5.40376">
        <ele>343.3655</ele>
        <time>2014-08-04T15:06:11Z</time>
      </trkpt>
      <trkpt lat="47.87192" lon="5.40384">
        <ele>341.8952</ele>
        <time>2014-08-04T15:06:12Z</time>
      </trkpt>
      <trkpt lat="47.87193" lon="5.40391">
        <ele>344.205</ele>
        <time>2014-08-04T15:06:13Z</time>
      </trkpt>
      <trkpt lat="47.87196" lon="5.40404">
        <ele>344.2084</ele>
        <time>2014-08-04T15:06:15Z</time>
      </trkpt>
      <trkpt lat="47.87197" lon="5.40413">
        <ele>344.4012</ele>
        <time>2014-08-04T15:06:16Z</time>
      </trkpt>
      <trkpt lat="47.87199" lon="5.40422">
        <ele>342.3983</ele>
        <time>2014-08-04T15:06:17Z</time>
      </trkpt>
      <trkpt lat="47.872" lon="5.4043">
        <ele>340.4817</ele>
        <time>2014-08-04T15:06:18Z</time>
      </trkpt>
      <trkpt lat="47.87201" lon="5.40438">
        <ele>338.6072</ele>
        <time>2014-08-04T15:06:19Z</time>
      </trkpt>
      <trkpt lat="47.87203" lon="5.40447">
        <ele>337.2102</ele>
        <time>2014-08-04T15:06:20Z</time>
      </trkpt>
      <trkpt lat="47.87204" lon="5.40453">
        <ele>335.2108</ele>
        <time>2014-08-04T15:06:21Z</time>
      </trkpt>
      <trkpt lat="47.87205" lon="5.40461">
        <ele>334.6572</ele>
        <time>2014-08-04T15:06:22Z</time>
      </trkpt>
      <trkpt lat="47.87207" lon="5.40467">
        <ele>338.978</ele>
        <time>2014-08-04T15:06:23Z</time>
      </trkpt>
      <trkpt lat="47.87209" lon="5.40475">
        <ele>337.4796</ele>
        <time>2014-08-04T15:06:24Z</time>
      </trkpt>
      <trkpt lat="47.8721" lon="5.40483">
        <ele>334.6843</ele>
        <time>2014-08-04T15:06:25Z</time>
      </trkpt>
      <trkpt lat="47.87212" lon="5.40489">
        <ele>332.7582</ele>
        <time>2014-08-04T15:06:26Z</time>
      </trkpt>
      <trkpt lat="47.87214" lon="5.40498">
        <ele>333.0818</ele>
        <time>2014-08-04T15:06:27Z</time>
      </trkpt>
      <trkpt lat="47.87215" lon="5.40506">
        <ele>334.2979</ele>
        <time>2014-08-04T15:06:28Z</time>
      </trkpt>
      <trkpt lat="47.87218" lon="5.40513">
        <ele>333.9263</ele>
        <time>2014-08-04T15:06:29Z</time>
      </trkpt>
      <trkpt lat="47.8722" lon="5.40521">
        <ele>338.7249</ele>
        <time>2014-08-04T15:06:30Z</time>
      </trkpt>
      <trkpt lat="47.87221" lon="5.40529">
        <ele>340.1286</ele>
        <time>2014-08-04T15:06:31Z</time>
      </trkpt>
      <trkpt lat="47.87222" lon="5.40537">
        <ele>342.3396</ele>
        <time>2014-08-04T15:06:32Z</time>
      </trkpt>
      <trkpt lat="47.87223" lon="5.40546">
        <ele>341.1867</ele>
        <time>2014-08-04T15:06:33Z</time>
      </trkpt>
      <trkpt lat="47.87225" lon="5.40554">
        <ele>339.8309</ele>
        <time>2014-08-04T15:06:34Z</time>
      </trkpt>
      <trkpt lat="47.87227" lon="5.4056">
        <ele>340.2061</ele>
        <time>2014-08-04T15:06:35Z</time>
      </trkpt>
      <trkpt lat="47.87228" lon="5.40568">
        <ele>342.6127</ele>
        <time>2014-08-04T15:06:36Z</time>
      </trkpt>
      <trkpt lat="47.87231" lon="5.40576">
        <ele>344.2065</ele>
        <time>2014-08-04T15:06:37Z</time>
      </trkpt>
      <trkpt lat="47.87234" lon="5.40584">
        <ele>348.8506</ele>
        <time>2014-08-04T15:06:38Z</time>
      </trkpt>
      <trkpt lat="47.87236" lon="5.4059">
        <ele>346.6169</ele>
        <time>2014-08-04T15:06:39Z</time>
      </trkpt>
      <trkpt lat="47.8724" lon="5.40596">
        <ele>342.3829</ele>
        <time>2014-08-04T15:06:40Z</time>
      </trkpt>
      <trkpt lat="47.87242" lon="5.40603">
        <ele>343.3387</ele>
        <time>2014-08-04T15:06:41Z</time>
      </trkpt>
      <trkpt lat="47.87245" lon="5.4061">
        <ele>344.4262</ele>
        <time>2014-08-04T15:06:42Z</time>
      </trkpt>
      <trkpt lat="47.87247" lon="5.40616">
        <ele>347.2751</ele>
        <time>2014-08-04T15:06:43Z</time>
      </trkpt>
      <trkpt lat="47.87249" lon="5.40623">
        <ele>344.8674</ele>
        <time>2014-08-04T15:06:44Z</time>
      </trkpt>
      <trkpt lat="47.87253" lon="5.4063">
        <ele>345.9703</ele>
        <time>2014-08-04T15:06:45Z</time>
      </trkpt>
      <trkpt lat="47.87256" lon="5.40636">
        <ele>344.7547</ele>
        <time>2014-08-04T15:06:46Z</time>
      </trkpt>
      <trkpt lat="47.87259" lon="5.40643">
        <ele>344.7056</ele>
        <time>2014-08-04T15:06:47Z</time>
      </trkpt>
      <trkpt lat="47.87262" lon="5.40649">
        <ele>346.1381</ele>
        <time>2014-08-04T15:06:48Z</time>
      </trkpt>
      <trkpt lat="47.87267" lon="5.40657">
        <ele>346.3512</ele>
        <time>2014-08-04T15:06:49Z</time>
      </trkpt>
      <trkpt lat="47.87272" lon="5.40663">
        <ele>345.2931</ele>
        <time>2014-08-04T15:06:50Z</time>
      </trkpt>
      <trkpt lat="47.87276" lon="5.40668">
        <ele>342.6582</ele>
        <time>2014-08-04T15:06:51Z</time>
      </trkpt>
      <trkpt lat="47.87281" lon="5.40673">
        <ele>342.6117</ele>
        <time>2014-08-04T15:06:52Z</time>
      </trkpt>
      <trkpt lat="47.87285" lon="5.40677">
        <ele>347.3082</ele>
        <time>2014-08-04T15:06:53Z</time>
      </trkpt>
      <trkpt lat="47.87289" lon="5.40681">
        <ele>350.8054</ele>
        <time>2014-08-04T15:06:54Z</time>
      </trkpt>
      <trkpt lat="47.87293" lon="5.40685">
        <ele>353.0375</ele>
        <time>2014-08-04T15:06:55Z</time>
      </trkpt>
      <trkpt lat="47.87297" lon="5.40689">
        <ele>355.1444</ele>
        <time>2014-08-04T15:06:56Z</time>
      </trkpt>
      <trkpt lat="47.87301" lon="5.40694">
        <ele>350.7053</ele>
        <time>2014-08-04T15:06:57Z</time>
      </trkpt>
      <trkpt lat="47.87306" lon="5.407">
        <ele>350.8323</ele>
        <time>2014-08-04T15:06:58Z</time>
      </trkpt>
      <trkpt lat="47.8731" lon="5.40706">
        <ele>349.7635</ele>
        <time>2014-08-04T15:06:59Z</time>
      </trkpt>
      <trkpt lat="47.87314" lon="5.40712">
        <ele>349.2746</ele>
        <time>2014-08-04T15:07:00Z</time>
      </trkpt>
      <trkpt lat="47.87318" lon="5.40718">
        <ele>349.23</ele>
        <time>2014-08-04T15:07:01Z</time>
      </trkpt>
      <trkpt lat="47.87324" lon="5.40724">
        <ele>346.3362</ele>
        <time>2014-08-04T15:07:02Z</time>
      </trkpt>
      <trkpt lat="47.8733" lon="5.40731">
        <ele>344.9281</ele>
        <time>2014-08-04T15:07:03Z</time>
      </trkpt>
      <trkpt lat="47.87334" lon="5.40738">
        <ele>344.7994</ele>
        <time>2014-08-04T15:07:04Z</time>
      </trkpt>
      <trkpt lat="47.87339" lon="5.40744">
        <ele>346.6461</ele>
        <time>2014-08-04T15:07:05Z</time>
      </trkpt>
      <trkpt lat="47.87343" lon="5.4075">
        <ele>343.7244</ele>
        <time>2014-08-04T15:07:06Z</time>
      </trkpt>
      <trkpt lat="47.87345" lon="5.40757">
        <ele>342.4762</ele>
        <time>2014-08-04T15:07:07Z</time>
      </trkpt>
      <trkpt lat="47.87348" lon="5.40764">
        <ele>344.3428</ele>
        <time>2014-08-04T15:07:08Z</time>
      </trkpt>
      <trkpt lat="47.8735" lon="5.40771">
        <ele>341.2309</ele>
        <time>2014-08-04T15:07:09Z</time>
      </trkpt>
      <trkpt lat="47.87352" lon="5.40784">
        <ele>336.8714</ele>
        <time>2014-08-04T15:07:11Z</time>
      </trkpt>
      <trkpt lat="47.87351" lon="5.40791">
        <ele>337.1295</ele>
        <time>2014-08-04T15:07:12Z</time>
      </trkpt>
      <trkpt lat="47.87349" lon="5.40799">
        <ele>339.8572</ele>
        <time>2014-08-04T15:07:13Z</time>
      </trkpt>
      <trkpt lat="47.87346" lon="5.40804">
        <ele>339.8112</ele>
        <time>2014-08-04T15:07:14Z</time>
      </trkpt>
      <trkpt lat="47.87341" lon="5.40815">
        <ele>341.1965</ele>
        <time>2014-08-04T15:07:16Z</time>
      </trkpt>
      <trkpt lat="47.87338" lon="5.40823">
        <ele>342.7468</ele>
        <time>2014-08-04T15:07:17Z</time>
      </trkpt>
      <trkpt lat="47.87337" lon="5.40832">
        <ele>342.6269</ele>
        <time>2014-08-04T15:07:18Z</time>
      </trkpt>
      <trkpt lat="47.87336" lon="5.40839">
        <ele>342.4546</ele>
        <time>2014-08-04T15:07:19Z</time>
      </trkpt>
      <trkpt lat="47.87336" lon="5.40846">
        <ele>344.267</ele>
        <time>2014-08-04T15:07:20Z</time>
      </trkpt>
      <trkpt lat="47.87333" lon="5.40856">
        <ele>343.6146</ele>
        <time>2014-08-04T15:07:22Z</time>
      </trkpt>
      <trkpt lat="47.87331" lon="5.40865">
        <ele>346.1682</ele>
        <time>2014-08-04T15:07:24Z</time>
      </trkpt>
      <trkpt lat="47.87326" lon="5.40874">
        <ele>350.0287</ele>
        <time>2014-08-04T15:07:26Z</time>
      </trkpt>
      <trkpt lat="47.87319" lon="5.40881">
        <ele>343.999</ele>
        <time>2014-08-04T15:07:28Z</time>
      </trkpt>
      <trkpt lat="47.87315" lon="5.40884">
        <ele>345.8587</ele>
        <time>2014-08-04T15:07:29Z</time>
      </trkpt>
      <trkpt lat="47.87307" lon="5.40889">
        <ele>349.9546</ele>
        <time>2014-08-04T15:07:31Z</time>
      </trkpt>
      <trkpt lat="47.87302" lon="5.40895">
        <ele>354.3519</ele>
        <time>2014-08-04T15:07:33Z</time>
      </trkpt>
      <trkpt lat="47.87296" lon="5.40898">
        <ele>354.7335</ele>
        <time>2014-08-04T15:07:35Z</time>
      </trkpt>
      <trkpt lat="47.87288" lon="5.40899">
        <ele>354.42</ele>
        <time>2014-08-04T15:07:37Z</time>
      </trkpt>
      <trkpt lat="47.8728" lon="5.40901">
        <ele>354.8531</ele>
        <time>2014-08-04T15:07:39Z</time>
      </trkpt>
      <trkpt lat="47.87275" lon="5.40901">
        <ele>352.4502</ele>
        <time>2014-08-04T15:07:40Z</time>
      </trkpt>
      <trkpt lat="47.8727" lon="5.40902">
        <ele>350.235</ele>
        <time>2014-08-04T15:07:41Z</time>
      </trkpt>
      <trkpt lat="47.87262" lon="5.40902">
        <ele>357.4011</ele>
        <time>2014-08-04T15:07:43Z</time>
      </trkpt>
      <trkpt lat="47.87255" lon="5.40902">
        <ele>358.1608</ele>
        <time>2014-08-04T15:07:45Z</time>
      </trkpt>
      <trkpt lat="47.87248" lon="5.40907">
        <ele>359.7275</ele>
        <time>2014-08-04T15:07:47Z</time>
      </trkpt>
      <trkpt lat="47.87241" lon="5.40912">
        <ele>353.189</ele>
        <time>2014-08-04T15:07:49Z</time>
      </trkpt>
      <trkpt lat="47.87236" lon="5.40914">
        <ele>353.6491</ele>
        <time>2014-08-04T15:07:50Z</time>
      </trkpt>
      <trkpt lat="47.87229" lon="5.40917">
        <ele>348.7637</ele>
        <time>2014-08-04T15:07:52Z</time>
      </trkpt>
      <trkpt lat="47.87219" lon="5.4092">
        <ele>348.3835</ele>
        <time>2014-08-04T15:07:54Z</time>
      </trkpt>
      <trkpt lat="47.87215" lon="5.40922">
        <ele>350.1536</ele>
        <time>2014-08-04T15:07:55Z</time>
      </trkpt>
      <trkpt lat="47.87208" lon="5.40925">
        <ele>351.6297</ele>
        <time>2014-08-04T15:07:56Z</time>
      </trkpt>
      <trkpt lat="47.87201" lon="5.40926">
        <ele>351.6909</ele>
        <time>2014-08-04T15:07:57Z</time>
      </trkpt>
      <trkpt lat="47.87195" lon="5.40928">
        <ele>353.888</ele>
        <time>2014-08-04T15:07:58Z</time>
      </trkpt>
      <trkpt lat="47.8719" lon="5.40931">
        <ele>355.3916</ele>
        <time>2014-08-04T15:07:59Z</time>
      </trkpt>
      <trkpt lat="47.87184" lon="5.40932">
        <ele>354.0485</ele>
        <time>2014-08-04T15:08:00Z</time>
      </trkpt>
      <trkpt lat="47.87179" lon="5.40935">
        <ele>353.8758</ele>
        <time>2014-08-04T15:08:01Z</time>
      </trkpt>
      <trkpt lat="47.87172" lon="5.40939">
        <ele>353.1186</ele>
        <time>2014-08-04T15:08:03Z</time>
      </trkpt>
      <trkpt lat="47.87162" lon="5.40944">
        <ele>349.3315</ele>
        <time>2014-08-04T15:08:05Z</time>
      </trkpt>
      <trkpt lat="47.87157" lon="5.40947">
        <ele>348.8425</ele>
        <time>2014-08-04T15:08:06Z</time>
      </trkpt>
      <trkpt lat="47.8715" lon="5.40954">
        <ele>350.2074</ele>
        <time>2014-08-04T15:08:08Z</time>
      </trkpt>
      <trkpt lat="47.87145" lon="5.40958">
        <ele>351.4891</ele>
        <time>2014-08-04T15:08:09Z</time>
      </trkpt>
      <trkpt lat="47.8714" lon="5.40959">
        <ele>353.5186</ele>
        <time>2014-08-04T15:08:10Z</time>
      </trkpt>
      <trkpt lat="47.87136" lon="5.40961">
        <ele>356.8958</ele>
        <time>2014-08-04T15:08:11Z</time>
      </trkpt>
      <trkpt lat="47.87128" lon="5.40963">
        <ele>357.7059</ele>
        <time>2014-08-04T15:08:13Z</time>
      </trkpt>
      <trkpt lat="47.87119" lon="5.40965">
        <ele>357.7231</ele>
        <time>2014-08-04T15:08:15Z</time>
      </trkpt>
      <trkpt lat="47.87114" lon="5.40967">
        <ele>359.5206</ele>
        <time>2014-08-04T15:08:16Z</time>
      </trkpt>
      <trkpt lat="47.87109" lon="5.40969">
        <ele>357.6681</ele>
        <time>2014-08-04T15:08:17Z</time>
      </trkpt>
      <trkpt lat="47.87105" lon="5.4097">
        <ele>355.1914</ele>
        <time>2014-08-04T15:08:18Z</time>
      </trkpt>
      <trkpt lat="47.87101" lon="5.40972">
        <ele>356.0793</ele>
        <time>2014-08-04T15:08:19Z</time>
      </trkpt>
      <trkpt lat="47.87095" lon="5.40973">
        <ele>356.5564</ele>
        <time>2014-08-04T15:08:20Z</time>
      </trkpt>
      <trkpt lat="47.8709" lon="5.40975">
        <ele>357.704</ele>
        <time>2014-08-04T15:08:21Z</time>
      </trkpt>
      <trkpt lat="47.87085" lon="5.40977">
        <ele>354.763</ele>
        <time>2014-08-04T15:08:22Z</time>
      </trkpt>
      <trkpt lat="47.8708" lon="5.4098">
        <ele>355.032</ele>
        <time>2014-08-04T15:08:23Z</time>
      </trkpt>
      <trkpt lat="47.87076" lon="5.40982">
        <ele>354.8281</ele>
        <time>2014-08-04T15:08:24Z</time>
      </trkpt>
      <trkpt lat="47.8707" lon="5.40983">
        <ele>355.0672</ele>
        <time>2014-08-04T15:08:25Z</time>
      </trkpt>
      <trkpt lat="47.87065" lon="5.40983">
        <ele>356.0909</ele>
        <time>2014-08-04T15:08:26Z</time>
      </trkpt>
      <trkpt lat="47.87059" lon="5.40985">
        <ele>353.9545</ele>
        <time>2014-08-04T15:08:27Z</time>
      </trkpt>
      <trkpt lat="47.87054" lon="5.40988">
        <ele>353.0317</ele>
        <time>2014-08-04T15:08:28Z</time>
      </trkpt>
      <trkpt lat="47.87049" lon="5.40991">
        <ele>352.4204</ele>
        <time>2014-08-04T15:08:29Z</time>
      </trkpt>
      <trkpt lat="47.87043" lon="5.40995">
        <ele>353.7583</ele>
        <time>2014-08-04T15:08:30Z</time>
      </trkpt>
      <trkpt lat="47.87038" lon="5.40998">
        <ele>355.3483</ele>
        <time>2014-08-04T15:08:31Z</time>
      </trkpt>
      <trkpt lat="47.87034" lon="5.41002">
        <ele>351.8828</ele>
        <time>2014-08-04T15:08:32Z</time>
      </trkpt>
      <trkpt lat="47.87029" lon="5.41005">
        <ele>349.8293</ele>
        <time>2014-08-04T15:08:33Z</time>
      </trkpt>
      <trkpt lat="47.87024" lon="5.4101">
        <ele>351.0891</ele>
        <time>2014-08-04T15:08:34Z</time>
      </trkpt>
      <trkpt lat="47.87022" lon="5.41017">
        <ele>349.3767</ele>
        <time>2014-08-04T15:08:35Z</time>
      </trkpt>
      <trkpt lat="47.87021" lon="5.41024">
        <ele>348.2017</ele>
        <time>2014-08-04T15:08:36Z</time>
      </trkpt>
      <trkpt lat="47.87023" lon="5.41036">
        <ele>345.6374</ele>
        <time>2014-08-04T15:08:38Z</time>
      </trkpt>
      <trkpt lat="47.87028" lon="5.41046">
        <ele>343.2968</ele>
        <time>2014-08-04T15:08:40Z</time>
      </trkpt>
      <trkpt lat="47.87031" lon="5.41052">
        <ele>346.113</ele>
        <time>2014-08-04T15:08:41Z</time>
      </trkpt>
      <trkpt lat="47.87034" lon="5.41059">
        <ele>344.7427</ele>
        <time>2014-08-04T15:08:42Z</time>
      </trkpt>
      <trkpt lat="47.87038" lon="5.41066">
        <ele>345.0068</ele>
        <time>2014-08-04T15:08:43Z</time>
      </trkpt>
      <trkpt lat="47.87043" lon="5.4107">
        <ele>347.6815</ele>
        <time>2014-08-04T15:08:44Z</time>
      </trkpt>
      <trkpt lat="47.87048" lon="5.41073">
        <ele>348.2036</ele>
        <time>2014-08-04T15:08:45Z</time>
      </trkpt>
      <trkpt lat="47.87054" lon="5.41075">
        <ele>344.8017</ele>
        <time>2014-08-04T15:08:46Z</time>
      </trkpt>
      <trkpt lat="47.8706" lon="5.41075">
        <ele>342.4176</ele>
        <time>2014-08-04T15:08:47Z</time>
      </trkpt>
      <trkpt lat="47.87064" lon="5.41074">
        <ele>341.6286</ele>
        <time>2014-08-04T15:08:48Z</time>
      </trkpt>
      <trkpt lat="47.87069" lon="5.41071">
        <ele>341.3686</ele>
        <time>2014-08-04T15:08:49Z</time>
      </trkpt>
      <trkpt lat="47.87074" lon="5.41068">
        <ele>342.1394</ele>
        <time>2014-08-04T15:08:50Z</time>
      </trkpt>
      <trkpt lat="47.8708" lon="5.41064">
        <ele>344.5257</ele>
        <time>2014-08-04T15:08:51Z</time>
      </trkpt>
      <trkpt lat="47.87085" lon="5.4106">
        <ele>345.1138</ele>
        <time>2014-08-04T15:08:52Z</time>
      </trkpt>
      <trkpt lat="47.8709" lon="5.41057">
        <ele>345.4184</ele>
        <time>2014-08-04T15:08:53Z</time>
      </trkpt>
      <trkpt lat="47.87098" lon="5.41055">
        <ele>346.7341</ele>
        <time>2014-08-04T15:08:55Z</time>
      </trkpt>
      <trkpt lat="47.87106" lon="5.41053">
        <ele>351.9026</ele>
        <time>2014-08-04T15:08:57Z</time>
      </trkpt>
      <trkpt lat="47.87115" lon="5.41055">
        <ele>350.3375</ele>
        <time>2014-08-04T15:08:59Z</time>
      </trkpt>
      <trkpt lat="47.87121" lon="5.41056">
        <ele>350.4452</ele>
        <time>2014-08-04T15:09:01Z</time>
      </trkpt>
      <trkpt lat="47.87128" lon="5.41058">
        <ele>351.6039</ele>
        <time>2014-08-04T15:09:03Z</time>
      </trkpt>
      <trkpt lat="47.87133" lon="5.41057">
        <ele>328.4834</ele>
        <time>2014-08-04T15:09:20Z</time>
      </trkpt>
      <trkpt lat="47.87149" lon="5.41057">
        <ele>324.9747</ele>
        <time>2014-08-04T15:09:22Z</time>
      </trkpt>
      <trkpt lat="47.87155" lon="5.41057">
        <ele>322.35</ele>
        <time>2014-08-04T15:09:24Z</time>
      </trkpt>
      <trkpt lat="47.8716" lon="5.41059">
        <ele>323.1922</ele>
        <time>2014-08-04T15:09:28Z</time>
      </trkpt>
      <trkpt lat="47.87166" lon="5.4106">
        <ele>328.4888</ele>
        <time>2014-08-04T15:09:30Z</time>
      </trkpt>
      <trkpt lat="47.87173" lon="5.4106">
        <ele>336.4999</ele>
        <time>2014-08-04T15:09:32Z</time>
      </trkpt>
      <trkpt lat="47.8718" lon="5.41063">
        <ele>343.815</ele>
        <time>2014-08-04T15:09:34Z</time>
      </trkpt>
      <trkpt lat="47.87186" lon="5.41067">
        <ele>347.0661</ele>
        <time>2014-08-04T15:09:36Z</time>
      </trkpt>
      <trkpt lat="47.87193" lon="5.4107">
        <ele>345.6012</ele>
        <time>2014-08-04T15:09:38Z</time>
      </trkpt>
      <trkpt lat="47.872" lon="5.41074">
        <ele>346.915</ele>
        <time>2014-08-04T15:09:40Z</time>
      </trkpt>
      <trkpt lat="47.87206" lon="5.41076">
        <ele>352.7382</ele>
        <time>2014-08-04T15:09:42Z</time>
      </trkpt>
      <trkpt lat="47.87214" lon="5.41079">
        <ele>352.7263</ele>
        <time>2014-08-04T15:09:44Z</time>
      </trkpt>
      <trkpt lat="47.87221" lon="5.41083">
        <ele>354.3282</ele>
        <time>2014-08-04T15:09:46Z</time>
      </trkpt>
      <trkpt lat="47.87228" lon="5.41086">
        <ele>355.9019</ele>
        <time>2014-08-04T15:09:48Z</time>
      </trkpt>
      <trkpt lat="47.87233" lon="5.41089">
        <ele>360.5045</ele>
        <time>2014-08-04T15:09:49Z</time>
      </trkpt>
      <trkpt lat="47.87237" lon="5.41092">
        <ele>360.6539</ele>
        <time>2014-08-04T15:09:50Z</time>
      </trkpt>
      <trkpt lat="47.87242" lon="5.41095">
        <ele>364.5955</ele>
        <time>2014-08-04T15:09:51Z</time>
      </trkpt>
      <trkpt lat="47.87251" lon="5.411">
        <ele>358.2671</ele>
        <time>2014-08-04T15:09:53Z</time>
      </trkpt>
      <trkpt lat="47.87257" lon="5.41104">
        <ele>358.7065</ele>
        <time>2014-08-04T15:09:55Z</time>
      </trkpt>
      <trkpt lat="47.87264" lon="5.41109">
        <ele>353.0659</ele>
        <time>2014-08-04T15:09:57Z</time>
      </trkpt>
      <trkpt lat="47.87268" lon="5.4111">
        <ele>354.9934</ele>
        <time>2014-08-04T15:09:58Z</time>
      </trkpt>
      <trkpt lat="47.87278" lon="5.41108">
        <ele>355.4173</ele>
        <time>2014-08-04T15:10:00Z</time>
      </trkpt>
      <trkpt lat="47.87283" lon="5.41106">
        <ele>354.8144</ele>
        <time>2014-08-04T15:10:01Z</time>
      </trkpt>
      <trkpt lat="47.87287" lon="5.41103">
        <ele>347.8463</ele>
        <time>2014-08-04T15:10:02Z</time>
      </trkpt>
      <trkpt lat="47.87293" lon="5.41099">
        <ele>343.9486</ele>
        <time>2014-08-04T15:10:03Z</time>
      </trkpt>
      <trkpt lat="47.87297" lon="5.41094">
        <ele>341.1538</ele>
        <time>2014-08-04T15:10:04Z</time>
      </trkpt>
      <trkpt lat="47.87302" lon="5.41082">
        <ele>347.0757</ele>
        <time>2014-08-04T15:10:06Z</time>
      </trkpt>
      <trkpt lat="47.87304" lon="5.41076">
        <ele>345.0294</ele>
        <time>2014-08-04T15:10:07Z</time>
      </trkpt>
      <trkpt lat="47.8731" lon="5.41068">
        <ele>348.0188</ele>
        <time>2014-08-04T15:10:09Z</time>
      </trkpt>
      <trkpt lat="47.87315" lon="5.41055">
        <ele>349.1696</ele>
        <time>2014-08-04T15:10:11Z</time>
      </trkpt>
      <trkpt lat="47.87318" lon="5.41048">
        <ele>347.0581</ele>
        <time>2014-08-04T15:10:12Z</time>
      </trkpt>
      <trkpt lat="47.8732" lon="5.4104">
        <ele>348.7929</ele>
        <time>2014-08-04T15:10:13Z</time>
      </trkpt>
      <trkpt lat="47.87324" lon="5.41033">
        <ele>354.044</ele>
        <time>2014-08-04T15:10:15Z</time>
      </trkpt>
      <trkpt lat="47.8733" lon="5.41021">
        <ele>350.707</ele>
        <time>2014-08-04T15:10:17Z</time>
      </trkpt>
      <trkpt lat="47.87333" lon="5.41014">
        <ele>352.9914</ele>
        <time>2014-08-04T15:10:18Z</time>
      </trkpt>
      <trkpt lat="47.87335" lon="5.41007">
        <ele>351.5825</ele>
        <time>2014-08-04T15:10:19Z</time>
      </trkpt>
      <trkpt lat="47.87338" lon="5.41">
        <ele>354.2524</ele>
        <time>2014-08-04T15:10:20Z</time>
      </trkpt>
      <trkpt lat="47.8734" lon="5.40987">
        <ele>352.5411</ele>
        <time>2014-08-04T15:10:22Z</time>
      </trkpt>
      <trkpt lat="47.87344" lon="5.40978">
        <ele>354.9777</ele>
        <time>2014-08-04T15:10:24Z</time>
      </trkpt>
      <trkpt lat="47.87347" lon="5.40966">
        <ele>352.7939</ele>
        <time>2014-08-04T15:10:26Z</time>
      </trkpt>
      <trkpt lat="47.87349" lon="5.4096">
        <ele>352.4236</ele>
        <time>2014-08-04T15:10:27Z</time>
      </trkpt>
      <trkpt lat="47.87351" lon="5.4095">
        <ele>353.0663</ele>
        <time>2014-08-04T15:10:29Z</time>
      </trkpt>
      <trkpt lat="47.87352" lon="5.4094">
        <ele>348.6943</ele>
        <time>2014-08-04T15:10:31Z</time>
      </trkpt>
      <trkpt lat="47.87358" lon="5.40928">
        <ele>344.1949</ele>
        <time>2014-08-04T15:10:33Z</time>
      </trkpt>
      <trkpt lat="47.87363" lon="5.40923">
        <ele>347.7246</ele>
        <time>2014-08-04T15:10:34Z</time>
      </trkpt>
      <trkpt lat="47.87371" lon="5.40915">
        <ele>346.2719</ele>
        <time>2014-08-04T15:10:36Z</time>
      </trkpt>
      <trkpt lat="47.87376" lon="5.4091">
        <ele>347.3213</ele>
        <time>2014-08-04T15:10:37Z</time>
      </trkpt>
      <trkpt lat="47.87381" lon="5.40906">
        <ele>346.9431</ele>
        <time>2014-08-04T15:10:38Z</time>
      </trkpt>
      <trkpt lat="47.87387" lon="5.40899">
        <ele>347.794</ele>
        <time>2014-08-04T15:10:39Z</time>
      </trkpt>
      <trkpt lat="47.87392" lon="5.40893">
        <ele>345.0159</ele>
        <time>2014-08-04T15:10:40Z</time>
      </trkpt>
      <trkpt lat="47.87397" lon="5.40889">
        <ele>346.3897</ele>
        <time>2014-08-04T15:10:41Z</time>
      </trkpt>
      <trkpt lat="47.87404" lon="5.40883">
        <ele>347.6974</ele>
        <time>2014-08-04T15:10:42Z</time>
      </trkpt>
      <trkpt lat="47.87408" lon="5.40879">
        <ele>345.4515</ele>
        <time>2014-08-04T15:10:43Z</time>
      </trkpt>
      <trkpt lat="47.87414" lon="5.40876">
        <ele>348.4846</ele>
        <time>2014-08-04T15:10:44Z</time>
      </trkpt>
      <trkpt lat="47.8742" lon="5.40876">
        <ele>346.2411</ele>
        <time>2014-08-04T15:10:45Z</time>
      </trkpt>
      <trkpt lat="47.87424" lon="5.40874">
        <ele>348.9871</ele>
        <time>2014-08-04T15:10:46Z</time>
      </trkpt>
      <trkpt lat="47.87431" lon="5.40866">
        <ele>354.3825</ele>
        <time>2014-08-04T15:10:48Z</time>
      </trkpt>
      <trkpt lat="47.87435" lon="5.40861">
        <ele>353.2081</ele>
        <time>2014-08-04T15:10:49Z</time>
      </trkpt>
      <trkpt lat="47.87439" lon="5.40856">
        <ele>353.2659</ele>
        <time>2014-08-04T15:10:50Z</time>
      </trkpt>
      <trkpt lat="47.87444" lon="5.40852">
        <ele>355.9361</ele>
        <time>2014-08-04T15:10:51Z</time>
      </trkpt>
      <trkpt lat="47.87449" lon="5.40849">
        <ele>357.8154</ele>
        <time>2014-08-04T15:10:52Z</time>
      </trkpt>
      <trkpt lat="47.87455" lon="5.40846">
        <ele>357.7057</ele>
        <time>2014-08-04T15:10:53Z</time>
      </trkpt>
      <trkpt lat="47.8746" lon="5.40842">
        <ele>358.5948</ele>
        <time>2014-08-04T15:10:54Z</time>
      </trkpt>
      <trkpt lat="47.87465" lon="5.40839">
        <ele>360.7826</ele>
        <time>2014-08-04T15:10:55Z</time>
      </trkpt>
      <trkpt lat="47.8747" lon="5.40836">
        <ele>358.2313</ele>
        <time>2014-08-04T15:10:56Z</time>
      </trkpt>
      <trkpt lat="47.87481" lon="5.40829">
        <ele>354.7757</ele>
        <time>2014-08-04T15:10:58Z</time>
      </trkpt>
      <trkpt lat="47.87488" lon="5.40826">
        <ele>354.627</ele>
        <time>2014-08-04T15:10:59Z</time>
      </trkpt>
      <trkpt lat="47.87494" lon="5.40824">
        <ele>352.7086</ele>
        <time>2014-08-04T15:11:00Z</time>
      </trkpt>
      <trkpt lat="47.87502" lon="5.40821">
        <ele>350.6578</ele>
        <time>2014-08-04T15:11:02Z</time>
      </trkpt>
      <trkpt lat="47.8751" lon="5.40824">
        <ele>351.0551</ele>
        <time>2014-08-04T15:11:04Z</time>
      </trkpt>
      <trkpt lat="47.87516" lon="5.4083">
        <ele>355.1572</ele>
        <time>2014-08-04T15:11:06Z</time>
      </trkpt>
      <trkpt lat="47.87523" lon="5.40838">
        <ele>352.5857</ele>
        <time>2014-08-04T15:11:08Z</time>
      </trkpt>
      <trkpt lat="47.87526" lon="5.40843">
        <ele>351.5698</ele>
        <time>2014-08-04T15:11:09Z</time>
      </trkpt>
      <trkpt lat="47.87534" lon="5.40853">
        <ele>352.8064</ele>
        <time>2014-08-04T15:11:11Z</time>
      </trkpt>
      <trkpt lat="47.87538" lon="5.40858">
        <ele>356.5885</ele>
        <time>2014-08-04T15:11:12Z</time>
      </trkpt>
      <trkpt lat="47.87545" lon="5.40864">
        <ele>355.1381</ele>
        <time>2014-08-04T15:11:14Z</time>
      </trkpt>
      <trkpt lat="47.87553" lon="5.40867">
        <ele>349.0142</ele>
        <time>2014-08-04T15:11:16Z</time>
      </trkpt>
      <trkpt lat="47.87561" lon="5.40865">
        <ele>345.2411</ele>
        <time>2014-08-04T15:11:18Z</time>
      </trkpt>
      <trkpt lat="47.87565" lon="5.40861">
        <ele>351.6171</ele>
        <time>2014-08-04T15:11:20Z</time>
      </trkpt>
      <trkpt lat="47.87571" lon="5.40852">
        <ele>351.4489</ele>
        <time>2014-08-04T15:11:22Z</time>
      </trkpt>
      <trkpt lat="47.87575" lon="5.40845">
        <ele>354.2964</ele>
        <time>2014-08-04T15:11:24Z</time>
      </trkpt>
      <trkpt lat="47.87581" lon="5.40843">
        <ele>353.9346</ele>
        <time>2014-08-04T15:11:26Z</time>
      </trkpt>
      <trkpt lat="47.87585" lon="5.40839">
        <ele>356.6707</ele>
        <time>2014-08-04T15:11:27Z</time>
      </trkpt>
      <trkpt lat="47.87592" lon="5.40833">
        <ele>360.3317</ele>
        <time>2014-08-04T15:11:28Z</time>
      </trkpt>
      <trkpt lat="47.87598" lon="5.40829">
        <ele>360.1126</ele>
        <time>2014-08-04T15:11:29Z</time>
      </trkpt>
      <trkpt lat="47.87606" lon="5.40825">
        <ele>363.4809</ele>
        <time>2014-08-04T15:11:30Z</time>
      </trkpt>
      <trkpt lat="47.87613" lon="5.40823">
        <ele>363.0175</ele>
        <time>2014-08-04T15:11:31Z</time>
      </trkpt>
      <trkpt lat="47.87622" lon="5.40822">
        <ele>362.7136</ele>
        <time>2014-08-04T15:11:33Z</time>
      </trkpt>
      <trkpt lat="47.87627" lon="5.40822">
        <ele>361.4551</ele>
        <time>2014-08-04T15:11:34Z</time>
      </trkpt>
      <trkpt lat="47.87633" lon="5.40823">
        <ele>360.4066</ele>
        <time>2014-08-04T15:11:35Z</time>
      </trkpt>
      <trkpt lat="47.87641" lon="5.40824">
        <ele>365.5961</ele>
        <time>2014-08-04T15:11:37Z</time>
      </trkpt>
      <trkpt lat="47.87648" lon="5.4083">
        <ele>366.6575</ele>
        <time>2014-08-04T15:11:39Z</time>
      </trkpt>
      <trkpt lat="47.87651" lon="5.40833">
        <ele>369.0604</ele>
        <time>2014-08-04T15:11:40Z</time>
      </trkpt>
      <trkpt lat="47.87655" lon="5.40838">
        <ele>366.4614</ele>
        <time>2014-08-04T15:11:41Z</time>
      </trkpt>
      <trkpt lat="47.87659" lon="5.40844">
        <ele>365.7845</ele>
        <time>2014-08-04T15:11:42Z</time>
      </trkpt>
      <trkpt lat="47.87663" lon="5.40851">
        <ele>368.5217</ele>
        <time>2014-08-04T15:11:43Z</time>
      </trkpt>
      <trkpt lat="47.87668" lon="5.40861">
        <ele>366.0809</ele>
        <time>2014-08-04T15:11:45Z</time>
      </trkpt>
      <trkpt lat="47.87671" lon="5.40869">
        <ele>367.8646</ele>
        <time>2014-08-04T15:11:46Z</time>
      </trkpt>
      <trkpt lat="47.87674" lon="5.40875">
        <ele>366.2257</ele>
        <time>2014-08-04T15:11:47Z</time>
      </trkpt>
      <trkpt lat="47.87678" lon="5.40886">
        <ele>362.3118</ele>
        <time>2014-08-04T15:11:49Z</time>
      </trkpt>
      <trkpt lat="47.8768" lon="5.40893">
        <ele>361.3933</ele>
        <time>2014-08-04T15:11:50Z</time>
      </trkpt>
      <trkpt lat="47.87682" lon="5.40901">
        <ele>360.7552</ele>
        <time>2014-08-04T15:11:51Z</time>
      </trkpt>
      <trkpt lat="47.87684" lon="5.40907">
        <ele>359.793</ele>
        <time>2014-08-04T15:11:52Z</time>
      </trkpt>
      <trkpt lat="47.87686" lon="5.40913">
        <ele>362.9341</ele>
        <time>2014-08-04T15:11:53Z</time>
      </trkpt>
      <trkpt lat="47.87688" lon="5.40926">
        <ele>364.4055</ele>
        <time>2014-08-04T15:11:55Z</time>
      </trkpt>
      <trkpt lat="47.8769" lon="5.40939">
        <ele>356.1945</ele>
        <time>2014-08-04T15:11:57Z</time>
      </trkpt>
      <trkpt lat="47.87692" lon="5.40951">
        <ele>356.2425</ele>
        <time>2014-08-04T15:11:59Z</time>
      </trkpt>
      <trkpt lat="47.87695" lon="5.40964">
        <ele>351.5498</ele>
        <time>2014-08-04T15:12:01Z</time>
      </trkpt>
      <trkpt lat="47.87696" lon="5.40974">
        <ele>347.181</ele>
        <time>2014-08-04T15:12:02Z</time>
      </trkpt>
      <trkpt lat="47.87698" lon="5.40983">
        <ele>344.4159</ele>
        <time>2014-08-04T15:12:03Z</time>
      </trkpt>
      <trkpt lat="47.877" lon="5.40991">
        <ele>342.0026</ele>
        <time>2014-08-04T15:12:04Z</time>
      </trkpt>
      <trkpt lat="47.87701" lon="5.41001">
        <ele>341.011</ele>
        <time>2014-08-04T15:12:05Z</time>
      </trkpt>
      <trkpt lat="47.87703" lon="5.41014">
        <ele>341.737</ele>
        <time>2014-08-04T15:12:06Z</time>
      </trkpt>
      <trkpt lat="47.87703" lon="5.41027">
        <ele>345.7708</ele>
        <time>2014-08-04T15:12:07Z</time>
      </trkpt>
      <trkpt lat="47.87703" lon="5.41038">
        <ele>345.1198</ele>
        <time>2014-08-04T15:12:08Z</time>
      </trkpt>
      <trkpt lat="47.87703" lon="5.41048">
        <ele>344.2477</ele>
        <time>2014-08-04T15:12:09Z</time>
      </trkpt>
      <trkpt lat="47.87703" lon="5.41057">
        <ele>341.9475</ele>
        <time>2014-08-04T15:12:10Z</time>
      </trkpt>
      <trkpt lat="47.87703" lon="5.41064">
        <ele>344.714</ele>
        <time>2014-08-04T15:12:11Z</time>
      </trkpt>
      <trkpt lat="47.87705" lon="5.41071">
        <ele>345.643</ele>
        <time>2014-08-04T15:12:12Z</time>
      </trkpt>
      <trkpt lat="47.87705" lon="5.41078">
        <ele>343.3817</ele>
        <time>2014-08-04T15:12:13Z</time>
      </trkpt>
      <trkpt lat="47.87707" lon="5.41085">
        <ele>344.4588</ele>
        <time>2014-08-04T15:12:14Z</time>
      </trkpt>
      <trkpt lat="47.87708" lon="5.41093">
        <ele>344.1592</ele>
        <time>2014-08-04T15:12:15Z</time>
      </trkpt>
      <trkpt lat="47.87709" lon="5.411">
        <ele>343.2391</ele>
        <time>2014-08-04T15:12:16Z</time>
      </trkpt>
      <trkpt lat="47.87711" lon="5.41108">
        <ele>342.5498</ele>
        <time>2014-08-04T15:12:17Z</time>
      </trkpt>
      <trkpt lat="47.87713" lon="5.41116">
        <ele>343.8759</ele>
        <time>2014-08-04T15:12:18Z</time>
      </trkpt>
      <trkpt lat="47.87715" lon="5.41124">
        <ele>346.3206</ele>
        <time>2014-08-04T15:12:19Z</time>
      </trkpt>
      <trkpt lat="47.87717" lon="5.41131">
        <ele>344.594</ele>
        <time>2014-08-04T15:12:20Z</time>
      </trkpt>
      <trkpt lat="47.87718" lon="5.41138">
        <ele>346.1385</ele>
        <time>2014-08-04T15:12:21Z</time>
      </trkpt>
      <trkpt lat="47.87719" lon="5.41146">
        <ele>345.81</ele>
        <time>2014-08-04T15:12:22Z</time>
      </trkpt>
      <trkpt lat="47.87717" lon="5.41153">
        <ele>347.8013</ele>
        <time>2014-08-04T15:12:23Z</time>
      </trkpt>
      <trkpt lat="47.87716" lon="5.4116">
        <ele>348.5091</ele>
        <time>2014-08-04T15:12:24Z</time>
      </trkpt>
      <trkpt lat="47.87713" lon="5.41167">
        <ele>348.1802</ele>
        <time>2014-08-04T15:12:25Z</time>
      </trkpt>
      <trkpt lat="47.8771" lon="5.41173">
        <ele>345.8746</ele>
        <time>2014-08-04T15:12:26Z</time>
      </trkpt>
      <trkpt lat="47.87705" lon="5.41179">
        <ele>345.3426</ele>
        <time>2014-08-04T15:12:27Z</time>
      </trkpt>
      <trkpt lat="47.87701" lon="5.41184">
        <ele>343.7601</ele>
        <time>2014-08-04T15:12:28Z</time>
      </trkpt>
      <trkpt lat="47.87695" lon="5.41189">
        <ele>343.5841</ele>
        <time>2014-08-04T15:12:29Z</time>
      </trkpt>
      <trkpt lat="47.87691" lon="5.41193">
        <ele>344.9638</ele>
        <time>2014-08-04T15:12:30Z</time>
      </trkpt>
      <trkpt lat="47.87686" lon="5.41197">
        <ele>345.0082</ele>
        <time>2014-08-04T15:12:31Z</time>
      </trkpt>
      <trkpt lat="47.87682" lon="5.412">
        <ele>345.6223</ele>
        <time>2014-08-04T15:12:32Z</time>
      </trkpt>
      <trkpt lat="47.87677" lon="5.41204">
        <ele>346.0751</ele>
        <time>2014-08-04T15:12:33Z</time>
      </trkpt>
      <trkpt lat="47.87673" lon="5.41207">
        <ele>346.3625</ele>
        <time>2014-08-04T15:12:34Z</time>
      </trkpt>
      <trkpt lat="47.87669" lon="5.41211">
        <ele>344.8662</ele>
        <time>2014-08-04T15:12:35Z</time>
      </trkpt>
      <trkpt lat="47.87664" lon="5.41214">
        <ele>343.4321</ele>
        <time>2014-08-04T15:12:36Z</time>
      </trkpt>
      <trkpt lat="47.87659" lon="5.41219">
        <ele>346.4339</ele>
        <time>2014-08-04T15:12:37Z</time>
      </trkpt>
      <trkpt lat="47.87655" lon="5.41223">
        <ele>348.4129</ele>
        <time>2014-08-04T15:12:38Z</time>
      </trkpt>
      <trkpt lat="47.8765" lon="5.41227">
        <ele>350.1923</ele>
        <time>2014-08-04T15:12:39Z</time>
      </trkpt>
      <trkpt lat="47.87646" lon="5.41232">
        <ele>349.902</ele>
        <time>2014-08-04T15:12:40Z</time>
      </trkpt>
      <trkpt lat="47.87643" lon="5.41239">
        <ele>350.0089</ele>
        <time>2014-08-04T15:12:41Z</time>
      </trkpt>
      <trkpt lat="47.87642" lon="5.41245">
        <ele>348.7286</ele>
        <time>2014-08-04T15:12:42Z</time>
      </trkpt>
      <trkpt lat="47.8764" lon="5.41253">
        <ele>348.5099</ele>
        <time>2014-08-04T15:12:43Z</time>
      </trkpt>
      <trkpt lat="47.87641" lon="5.41261">
        <ele>347.575</ele>
        <time>2014-08-04T15:12:44Z</time>
      </trkpt>
      <trkpt lat="47.87643" lon="5.41267">
        <ele>349.7237</ele>
        <time>2014-08-04T15:12:45Z</time>
      </trkpt>
      <trkpt lat="47.87647" lon="5.41272">
        <ele>348.3939</ele>
        <time>2014-08-04T15:12:46Z</time>
      </trkpt>
      <trkpt lat="47.87651" lon="5.41277">
        <ele>348.2502</ele>
        <time>2014-08-04T15:12:47Z</time>
      </trkpt>
      <trkpt lat="47.87657" lon="5.41286">
        <ele>349.1333</ele>
        <time>2014-08-04T15:12:49Z</time>
      </trkpt>
      <trkpt lat="47.87661" lon="5.41291">
        <ele>347.7524</ele>
        <time>2014-08-04T15:12:50Z</time>
      </trkpt>
      <trkpt lat="47.87664" lon="5.41297">
        <ele>346.2274</ele>
        <time>2014-08-04T15:12:51Z</time>
      </trkpt>
      <trkpt lat="47.87669" lon="5.41303">
        <ele>348.544</ele>
        <time>2014-08-04T15:12:52Z</time>
      </trkpt>
      <trkpt lat="47.87673" lon="5.41309">
        <ele>346.5167</ele>
        <time>2014-08-04T15:12:53Z</time>
      </trkpt>
      <trkpt lat="47.87676" lon="5.41314">
        <ele>346.1324</ele>
        <time>2014-08-04T15:12:54Z</time>
      </trkpt>
      <trkpt lat="47.8768" lon="5.4132">
        <ele>346.7538</ele>
        <time>2014-08-04T15:12:55Z</time>
      </trkpt>
      <trkpt lat="47.87684" lon="5.41325">
        <ele>346.387</ele>
        <time>2014-08-04T15:12:56Z</time>
      </trkpt>
      <trkpt lat="47.87688" lon="5.41331">
        <ele>346.3593</ele>
        <time>2014-08-04T15:12:57Z</time>
      </trkpt>
      <trkpt lat="47.87692" lon="5.41336">
        <ele>349.2415</ele>
        <time>2014-08-04T15:12:58Z</time>
      </trkpt>
      <trkpt lat="47.87695" lon="5.41341">
        <ele>349.062</ele>
        <time>2014-08-04T15:12:59Z</time>
      </trkpt>
      <trkpt lat="47.87699" lon="5.41347">
        <ele>348.4866</ele>
        <time>2014-08-04T15:13:00Z</time>
      </trkpt>
      <trkpt lat="47.87703" lon="5.41352">
        <ele>347.3025</ele>
        <time>2014-08-04T15:13:01Z</time>
      </trkpt>
      <trkpt lat="47.87707" lon="5.41357">
        <ele>347.7867</ele>
        <time>2014-08-04T15:13:02Z</time>
      </trkpt>
      <trkpt lat="47.87711" lon="5.41363">
        <ele>348.3091</ele>
        <time>2014-08-04T15:13:03Z</time>
      </trkpt>
      <trkpt lat="47.87716" lon="5.41368">
        <ele>348.3783</ele>
        <time>2014-08-04T15:13:04Z</time>
      </trkpt>
      <trkpt lat="47.87719" lon="5.41374">
        <ele>347.9508</ele>
        <time>2014-08-04T15:13:05Z</time>
      </trkpt>
      <trkpt lat="47.87724" lon="5.41379">
        <ele>348.355</ele>
        <time>2014-08-04T15:13:06Z</time>
      </trkpt>
      <trkpt lat="47.87727" lon="5.41384">
        <ele>349.3922</ele>
        <time>2014-08-04T15:13:07Z</time>
      </trkpt>
      <trkpt lat="47.87732" lon="5.4139">
        <ele>347.8926</ele>
        <time>2014-08-04T15:13:08Z</time>
      </trkpt>
      <trkpt lat="47.87736" lon="5.41395">
        <ele>348.1085</ele>
        <time>2014-08-04T15:13:09Z</time>
      </trkpt>
      <trkpt lat="47.87741" lon="5.414">
        <ele>348.7847</ele>
        <time>2014-08-04T15:13:10Z</time>
      </trkpt>
      <trkpt lat="47.87746" lon="5.41404">
        <ele>349.1735</ele>
        <time>2014-08-04T15:13:11Z</time>
      </trkpt>
      <trkpt lat="47.8775" lon="5.41408">
        <ele>349.1656</ele>
        <time>2014-08-04T15:13:12Z</time>
      </trkpt>
      <trkpt lat="47.87755" lon="5.41411">
        <ele>348.7342</ele>
        <time>2014-08-04T15:13:13Z</time>
      </trkpt>
      <trkpt lat="47.8776" lon="5.41416">
        <ele>350.9155</ele>
        <time>2014-08-04T15:13:14Z</time>
      </trkpt>
      <trkpt lat="47.87766" lon="5.41421">
        <ele>350.2182</ele>
        <time>2014-08-04T15:13:15Z</time>
      </trkpt>
      <trkpt lat="47.87771" lon="5.41426">
        <ele>350.3799</ele>
        <time>2014-08-04T15:13:16Z</time>
      </trkpt>
      <trkpt lat="47.87774" lon="5.41432">
        <ele>349.2289</ele>
        <time>2014-08-04T15:13:17Z</time>
      </trkpt>
      <trkpt lat="47.87777" lon="5.41438">
        <ele>349.8568</ele>
        <time>2014-08-04T15:13:18Z</time>
      </trkpt>
      <trkpt lat="47.87781" lon="5.41444">
        <ele>350.1198</ele>
        <time>2014-08-04T15:13:19Z</time>
      </trkpt>
      <trkpt lat="47.87785" lon="5.4145">
        <ele>349.8182</ele>
        <time>2014-08-04T15:13:20Z</time>
      </trkpt>
      <trkpt lat="47.8779" lon="5.41454">
        <ele>349.954</ele>
        <time>2014-08-04T15:13:21Z</time>
      </trkpt>
      <trkpt lat="47.87795" lon="5.41457">
        <ele>350.4709</ele>
        <time>2014-08-04T15:13:22Z</time>
      </trkpt>
      <trkpt lat="47.87801" lon="5.41458">
        <ele>351.4082</ele>
        <time>2014-08-04T15:13:23Z</time>
      </trkpt>
      <trkpt lat="47.87807" lon="5.41456">
        <ele>351.0645</ele>
        <time>2014-08-04T15:13:24Z</time>
      </trkpt>
      <trkpt lat="47.87813" lon="5.41453">
        <ele>350.9759</ele>
        <time>2014-08-04T15:13:25Z</time>
      </trkpt>
      <trkpt lat="47.87819" lon="5.4145">
        <ele>348.9556</ele>
        <time>2014-08-04T15:13:26Z</time>
      </trkpt>
      <trkpt lat="47.87825" lon="5.41447">
        <ele>350.7506</ele>
        <time>2014-08-04T15:13:27Z</time>
      </trkpt>
      <trkpt lat="47.8783" lon="5.41448">
        <ele>352.9125</ele>
        <time>2014-08-04T15:13:28Z</time>
      </trkpt>
      <trkpt lat="47.87835" lon="5.4145">
        <ele>355.1117</ele>
        <time>2014-08-04T15:13:29Z</time>
      </trkpt>
      <trkpt lat="47.87841" lon="5.41458">
        <ele>350.3961</ele>
        <time>2014-08-04T15:13:31Z</time>
      </trkpt>
      <trkpt lat="47.87845" lon="5.41464">
        <ele>349.9955</ele>
        <time>2014-08-04T15:13:32Z</time>
      </trkpt>
      <trkpt lat="47.87847" lon="5.41471">
        <ele>349.3023</ele>
        <time>2014-08-04T15:13:33Z</time>
      </trkpt>
      <trkpt lat="47.87849" lon="5.41479">
        <ele>352.149</ele>
        <time>2014-08-04T15:13:34Z</time>
      </trkpt>
      <trkpt lat="47.8785" lon="5.41488">
        <ele>349.2849</ele>
        <time>2014-08-04T15:13:35Z</time>
      </trkpt>
      <trkpt lat="47.87852" lon="5.41496">
        <ele>347.9524</ele>
        <time>2014-08-04T15:13:36Z</time>
      </trkpt>
      <trkpt lat="47.87854" lon="5.41505">
        <ele>346.5813</ele>
        <time>2014-08-04T15:13:37Z</time>
      </trkpt>
      <trkpt lat="47.87855" lon="5.41514">
        <ele>346.7118</ele>
        <time>2014-08-04T15:13:38Z</time>
      </trkpt>
      <trkpt lat="47.87857" lon="5.41521">
        <ele>343.9477</ele>
        <time>2014-08-04T15:13:39Z</time>
      </trkpt>
      <trkpt lat="47.87859" lon="5.41529">
        <ele>344.926</ele>
        <time>2014-08-04T15:13:40Z</time>
      </trkpt>
      <trkpt lat="47.87862" lon="5.41535">
        <ele>345.0877</ele>
        <time>2014-08-04T15:13:41Z</time>
      </trkpt>
      <trkpt lat="47.87864" lon="5.41542">
        <ele>344.6005</ele>
        <time>2014-08-04T15:13:42Z</time>
      </trkpt>
      <trkpt lat="47.87867" lon="5.41548">
        <ele>347.1673</ele>
        <time>2014-08-04T15:13:43Z</time>
      </trkpt>
      <trkpt lat="47.8787" lon="5.41555">
        <ele>346.4229</ele>
        <time>2014-08-04T15:13:44Z</time>
      </trkpt>
      <trkpt lat="47.87873" lon="5.41561">
        <ele>348.1035</ele>
        <time>2014-08-04T15:13:45Z</time>
      </trkpt>
      <trkpt lat="47.87876" lon="5.41567">
        <ele>349.0616</ele>
        <time>2014-08-04T15:13:46Z</time>
      </trkpt>
      <trkpt lat="47.87879" lon="5.41573">
        <ele>349.0833</ele>
        <time>2014-08-04T15:13:47Z</time>
      </trkpt>
      <trkpt lat="47.87883" lon="5.4158">
        <ele>350.7383</ele>
        <time>2014-08-04T15:13:48Z</time>
      </trkpt>
      <trkpt lat="47.87886" lon="5.41585">
        <ele>350.7381</ele>
        <time>2014-08-04T15:13:49Z</time>
      </trkpt>
      <trkpt lat="47.87891" lon="5.4159">
        <ele>351.3091</ele>
        <time>2014-08-04T15:13:50Z</time>
      </trkpt>
      <trkpt lat="47.87896" lon="5.41594">
        <ele>350.7831</ele>
        <time>2014-08-04T15:13:51Z</time>
      </trkpt>
      <trkpt lat="47.879" lon="5.41598">
        <ele>350.6846</ele>
        <time>2014-08-04T15:13:52Z</time>
      </trkpt>
      <trkpt lat="47.87904" lon="5.41605">
        <ele>347.1853</ele>
        <time>2014-08-04T15:13:54Z</time>
      </trkpt>
      <trkpt lat="47.87909" lon="5.41616">
        <ele>344.109</ele>
        <time>2014-08-04T15:13:56Z</time>
      </trkpt>
      <trkpt lat="47.87914" lon="5.41627">
        <ele>343.047</ele>
        <time>2014-08-04T15:13:58Z</time>
      </trkpt>
      <trkpt lat="47.87916" lon="5.41632">
        <ele>346.0802</ele>
        <time>2014-08-04T15:13:59Z</time>
      </trkpt>
      <trkpt lat="47.8792" lon="5.41642">
        <ele>342.4379</ele>
        <time>2014-08-04T15:14:01Z</time>
      </trkpt>
      <trkpt lat="47.87923" lon="5.41648">
        <ele>343.08</ele>
        <time>2014-08-04T15:14:02Z</time>
      </trkpt>
      <trkpt lat="47.87927" lon="5.41654">
        <ele>340.182</ele>
        <time>2014-08-04T15:14:03Z</time>
      </trkpt>
      <trkpt lat="47.87929" lon="5.41661">
        <ele>341.743</ele>
        <time>2014-08-04T15:14:04Z</time>
      </trkpt>
      <trkpt lat="47.87932" lon="5.41666">
        <ele>343.4821</ele>
        <time>2014-08-04T15:14:05Z</time>
      </trkpt>
      <trkpt lat="47.87936" lon="5.41672">
        <ele>339.1102</ele>
        <time>2014-08-04T15:14:06Z</time>
      </trkpt>
      <trkpt lat="47.87939" lon="5.41677">
        <ele>339.5208</ele>
        <time>2014-08-04T15:14:07Z</time>
      </trkpt>
      <trkpt lat="47.87943" lon="5.41683">
        <ele>336.9528</ele>
        <time>2014-08-04T15:14:08Z</time>
      </trkpt>
      <trkpt lat="47.87946" lon="5.41688">
        <ele>339.1977</ele>
        <time>2014-08-04T15:14:09Z</time>
      </trkpt>
      <trkpt lat="47.8795" lon="5.41693">
        <ele>340.3543</ele>
        <time>2014-08-04T15:14:10Z</time>
      </trkpt>
      <trkpt lat="47.87954" lon="5.41699">
        <ele>344.5234</ele>
        <time>2014-08-04T15:14:11Z</time>
      </trkpt>
      <trkpt lat="47.87958" lon="5.41705">
        <ele>341.5998</ele>
        <time>2014-08-04T15:14:12Z</time>
      </trkpt>
      <trkpt lat="47.87962" lon="5.4171">
        <ele>341.0496</ele>
        <time>2014-08-04T15:14:13Z</time>
      </trkpt>
      <trkpt lat="47.87966" lon="5.41716">
        <ele>342.0227</ele>
        <time>2014-08-04T15:14:14Z</time>
      </trkpt>
      <trkpt lat="47.87971" lon="5.41721">
        <ele>339.5671</ele>
        <time>2014-08-04T15:14:15Z</time>
      </trkpt>
      <trkpt lat="47.87976" lon="5.41725">
        <ele>339.0757</ele>
        <time>2014-08-04T15:14:16Z</time>
      </trkpt>
      <trkpt lat="47.8798" lon="5.41728">
        <ele>338.4132</ele>
        <time>2014-08-04T15:14:17Z</time>
      </trkpt>
      <trkpt lat="47.87985" lon="5.4173">
        <ele>338.2837</ele>
        <time>2014-08-04T15:14:18Z</time>
      </trkpt>
      <trkpt lat="47.8799" lon="5.41733">
        <ele>340.424</ele>
        <time>2014-08-04T15:14:19Z</time>
      </trkpt>
      <trkpt lat="47.87994" lon="5.41735">
        <ele>342.7057</ele>
        <time>2014-08-04T15:14:20Z</time>
      </trkpt>
      <trkpt lat="47.88003" lon="5.41738">
        <ele>345.1655</ele>
        <time>2014-08-04T15:14:22Z</time>
      </trkpt>
      <trkpt lat="47.88008" lon="5.41739">
        <ele>344.8703</ele>
        <time>2014-08-04T15:14:23Z</time>
      </trkpt>
      <trkpt lat="47.88014" lon="5.41739">
        <ele>349.0153</ele>
        <time>2014-08-04T15:14:24Z</time>
      </trkpt>
      <trkpt lat="47.88019" lon="5.41738">
        <ele>352.8492</ele>
        <time>2014-08-04T15:14:25Z</time>
      </trkpt>
      <trkpt lat="47.88023" lon="5.41737">
        <ele>355.8528</ele>
        <time>2014-08-04T15:14:26Z</time>
      </trkpt>
      <trkpt lat="47.88028" lon="5.41734">
        <ele>358.129</ele>
        <time>2014-08-04T15:14:27Z</time>
      </trkpt>
      <trkpt lat="47.88034" lon="5.41729">
        <ele>354.2466</ele>
        <time>2014-08-04T15:14:28Z</time>
      </trkpt>
      <trkpt lat="47.88041" lon="5.41724">
        <ele>355.7544</ele>
        <time>2014-08-04T15:14:29Z</time>
      </trkpt>
      <trkpt lat="47.88047" lon="5.41719">
        <ele>350.6326</ele>
        <time>2014-08-04T15:14:30Z</time>
      </trkpt>
      <trkpt lat="47.88052" lon="5.41714">
        <ele>349.6358</ele>
        <time>2014-08-04T15:14:31Z</time>
      </trkpt>
      <trkpt lat="47.88055" lon="5.41709">
        <ele>349.9626</ele>
        <time>2014-08-04T15:14:32Z</time>
      </trkpt>
      <trkpt lat="47.88062" lon="5.41704">
        <ele>351.0544</ele>
        <time>2014-08-04T15:14:34Z</time>
      </trkpt>
      <trkpt lat="47.8807" lon="5.41701">
        <ele>347.7632</ele>
        <time>2014-08-04T15:14:36Z</time>
      </trkpt>
      <trkpt lat="47.88075" lon="5.417">
        <ele>349.0988</ele>
        <time>2014-08-04T15:14:37Z</time>
      </trkpt>
      <trkpt lat="47.88084" lon="5.41698">
        <ele>348.2889</ele>
        <time>2014-08-04T15:14:39Z</time>
      </trkpt>
      <trkpt lat="47.88089" lon="5.41698">
        <ele>350.5085</ele>
        <time>2014-08-04T15:14:40Z</time>
      </trkpt>
      <trkpt lat="47.88094" lon="5.41698">
        <ele>350.694</ele>
        <time>2014-08-04T15:14:41Z</time>
      </trkpt>
      <trkpt lat="47.881" lon="5.41698">
        <ele>352.6149</ele>
        <time>2014-08-04T15:14:42Z</time>
      </trkpt>
      <trkpt lat="47.88104" lon="5.41699">
        <ele>350.6438</ele>
        <time>2014-08-04T15:14:43Z</time>
      </trkpt>
      <trkpt lat="47.88114" lon="5.41704">
        <ele>346.9947</ele>
        <time>2014-08-04T15:14:45Z</time>
      </trkpt>
      <trkpt lat="47.8812" lon="5.41708">
        <ele>347.8372</ele>
        <time>2014-08-04T15:14:46Z</time>
      </trkpt>
      <trkpt lat="47.88125" lon="5.41711">
        <ele>346.78</ele>
        <time>2014-08-04T15:14:47Z</time>
      </trkpt>
      <trkpt lat="47.88129" lon="5.41715">
        <ele>346.1919</ele>
        <time>2014-08-04T15:14:48Z</time>
      </trkpt>
      <trkpt lat="47.88134" lon="5.41718">
        <ele>346.4073</ele>
        <time>2014-08-04T15:14:49Z</time>
      </trkpt>
      <trkpt lat="47.88139" lon="5.41722">
        <ele>346.165</ele>
        <time>2014-08-04T15:14:50Z</time>
      </trkpt>
      <trkpt lat="47.88143" lon="5.41726">
        <ele>345.3164</ele>
        <time>2014-08-04T15:14:51Z</time>
      </trkpt>
      <trkpt lat="47.88147" lon="5.41732">
        <ele>347.368</ele>
        <time>2014-08-04T15:14:52Z</time>
      </trkpt>
      <trkpt lat="47.8815" lon="5.41739">
        <ele>347.2995</ele>
        <time>2014-08-04T15:14:53Z</time>
      </trkpt>
      <trkpt lat="47.88154" lon="5.41746">
        <ele>347.0292</ele>
        <time>2014-08-04T15:14:54Z</time>
      </trkpt>
      <trkpt lat="47.88157" lon="5.41753">
        <ele>347.352</ele>
        <time>2014-08-04T15:14:55Z</time>
      </trkpt>
      <trkpt lat="47.88159" lon="5.4176">
        <ele>346.2283</ele>
        <time>2014-08-04T15:14:56Z</time>
      </trkpt>
      <trkpt lat="47.88159" lon="5.41767">
        <ele>345.7397</ele>
        <time>2014-08-04T15:14:57Z</time>
      </trkpt>
      <trkpt lat="47.88158" lon="5.41774">
        <ele>345.7811</ele>
        <time>2014-08-04T15:14:58Z</time>
      </trkpt>
      <trkpt lat="47.88156" lon="5.41781">
        <ele>347.3572</ele>
        <time>2014-08-04T15:14:59Z</time>
      </trkpt>
      <trkpt lat="47.88155" lon="5.4179">
        <ele>346.2979</ele>
        <time>2014-08-04T15:15:00Z</time>
      </trkpt>
      <trkpt lat="47.88155" lon="5.41798">
        <ele>345.0842</ele>
        <time>2014-08-04T15:15:01Z</time>
      </trkpt>
      <trkpt lat="47.88155" lon="5.41806">
        <ele>344.5837</ele>
        <time>2014-08-04T15:15:02Z</time>
      </trkpt>
      <trkpt lat="47.88154" lon="5.41813">
        <ele>343.0764</ele>
        <time>2014-08-04T15:15:03Z</time>
      </trkpt>
      <trkpt lat="47.88151" lon="5.41827">
        <ele>346.2731</ele>
        <time>2014-08-04T15:15:05Z</time>
      </trkpt>
      <trkpt lat="47.88149" lon="5.41835">
        <ele>344.8354</ele>
        <time>2014-08-04T15:15:06Z</time>
      </trkpt>
      <trkpt lat="47.88145" lon="5.41841">
        <ele>347.3433</ele>
        <time>2014-08-04T15:15:07Z</time>
      </trkpt>
      <trkpt lat="47.88142" lon="5.41847">
        <ele>345.6012</ele>
        <time>2014-08-04T15:15:08Z</time>
      </trkpt>
      <trkpt lat="47.88137" lon="5.41851">
        <ele>347.2061</ele>
        <time>2014-08-04T15:15:09Z</time>
      </trkpt>
      <trkpt lat="47.88133" lon="5.41855">
        <ele>348.3918</ele>
        <time>2014-08-04T15:15:10Z</time>
      </trkpt>
      <trkpt lat="47.88127" lon="5.41858">
        <ele>348.7462</ele>
        <time>2014-08-04T15:15:11Z</time>
      </trkpt>
      <trkpt lat="47.88123" lon="5.4186">
        <ele>348.7043</ele>
        <time>2014-08-04T15:15:12Z</time>
      </trkpt>
      <trkpt lat="47.88118" lon="5.41865">
        <ele>348.802</ele>
        <time>2014-08-04T15:15:13Z</time>
      </trkpt>
      <trkpt lat="47.88113" lon="5.41872">
        <ele>349.3766</ele>
        <time>2014-08-04T15:15:14Z</time>
      </trkpt>
      <trkpt lat="47.8811" lon="5.41879">
        <ele>350.713</ele>
        <time>2014-08-04T15:15:15Z</time>
      </trkpt>
      <trkpt lat="47.88107" lon="5.41886">
        <ele>350.5824</ele>
        <time>2014-08-04T15:15:16Z</time>
      </trkpt>
      <trkpt lat="47.88104" lon="5.41893">
        <ele>350.2258</ele>
        <time>2014-08-04T15:15:17Z</time>
      </trkpt>
      <trkpt lat="47.881" lon="5.419">
        <ele>350.2291</ele>
        <time>2014-08-04T15:15:18Z</time>
      </trkpt>
      <trkpt lat="47.88097" lon="5.41907">
        <ele>348.5782</ele>
        <time>2014-08-04T15:15:19Z</time>
      </trkpt>
      <trkpt lat="47.88094" lon="5.41914">
        <ele>347.7383</ele>
        <time>2014-08-04T15:15:20Z</time>
      </trkpt>
      <trkpt lat="47.88091" lon="5.4192">
        <ele>345.8324</ele>
        <time>2014-08-04T15:15:21Z</time>
      </trkpt>
      <trkpt lat="47.88087" lon="5.41927">
        <ele>346.0617</ele>
        <time>2014-08-04T15:15:22Z</time>
      </trkpt>
      <trkpt lat="47.88083" lon="5.41932">
        <ele>344.5215</ele>
        <time>2014-08-04T15:15:23Z</time>
      </trkpt>
      <trkpt lat="47.88078" lon="5.41936">
        <ele>347.0779</ele>
        <time>2014-08-04T15:15:24Z</time>
      </trkpt>
      <trkpt lat="47.88073" lon="5.41939">
        <ele>348.8225</ele>
        <time>2014-08-04T15:15:25Z</time>
      </trkpt>
      <trkpt lat="47.88067" lon="5.4194">
        <ele>348.8786</ele>
        <time>2014-08-04T15:15:26Z</time>
      </trkpt>
      <trkpt lat="47.88062" lon="5.4194">
        <ele>350.2513</ele>
        <time>2014-08-04T15:15:27Z</time>
      </trkpt>
      <trkpt lat="47.88057" lon="5.41939">
        <ele>348.8606</ele>
        <time>2014-08-04T15:15:28Z</time>
      </trkpt>
      <trkpt lat="47.88052" lon="5.41939">
        <ele>350.0916</ele>
        <time>2014-08-04T15:15:29Z</time>
      </trkpt>
      <trkpt lat="47.88046" lon="5.41942">
        <ele>350.1397</ele>
        <time>2014-08-04T15:15:30Z</time>
      </trkpt>
      <trkpt lat="47.88042" lon="5.41946">
        <ele>350.1479</ele>
        <time>2014-08-04T15:15:31Z</time>
      </trkpt>
      <trkpt lat="47.88039" lon="5.41954">
        <ele>349.4672</ele>
        <time>2014-08-04T15:15:32Z</time>
      </trkpt>
      <trkpt lat="47.88037" lon="5.41961">
        <ele>349.0656</ele>
        <time>2014-08-04T15:15:33Z</time>
      </trkpt>
      <trkpt lat="47.88034" lon="5.41968">
        <ele>347.7986</ele>
        <time>2014-08-04T15:15:34Z</time>
      </trkpt>
      <trkpt lat="47.88032" lon="5.41976">
        <ele>346.7371</ele>
        <time>2014-08-04T15:15:35Z</time>
      </trkpt>
      <trkpt lat="47.88029" lon="5.41982">
        <ele>346.4371</ele>
        <time>2014-08-04T15:15:36Z</time>
      </trkpt>
      <trkpt lat="47.88025" lon="5.41988">
        <ele>344.9448</ele>
        <time>2014-08-04T15:15:37Z</time>
      </trkpt>
      <trkpt lat="47.88021" lon="5.41995">
        <ele>345.223</ele>
        <time>2014-08-04T15:15:38Z</time>
      </trkpt>
      <trkpt lat="47.88018" lon="5.42001">
        <ele>345.0787</ele>
        <time>2014-08-04T15:15:39Z</time>
      </trkpt>
      <trkpt lat="47.88015" lon="5.42009">
        <ele>344.9186</ele>
        <time>2014-08-04T15:15:40Z</time>
      </trkpt>
      <trkpt lat="47.88012" lon="5.42015">
        <ele>344.4708</ele>
        <time>2014-08-04T15:15:41Z</time>
      </trkpt>
      <trkpt lat="47.88009" lon="5.4202">
        <ele>346.0433</ele>
        <time>2014-08-04T15:15:42Z</time>
      </trkpt>
      <trkpt lat="47.88001" lon="5.42023">
        <ele>348.6639</ele>
        <time>2014-08-04T15:15:44Z</time>
      </trkpt>
      <trkpt lat="47.87996" lon="5.42022">
        <ele>351.3974</ele>
        <time>2014-08-04T15:15:45Z</time>
      </trkpt>
      <trkpt lat="47.87991" lon="5.42019">
        <ele>352.7793</ele>
        <time>2014-08-04T15:15:46Z</time>
      </trkpt>
      <trkpt lat="47.87988" lon="5.42014">
        <ele>353.7097</ele>
        <time>2014-08-04T15:15:47Z</time>
      </trkpt>
      <trkpt lat="47.87984" lon="5.42008">
        <ele>352.4612</ele>
        <time>2014-08-04T15:15:48Z</time>
      </trkpt>
      <trkpt lat="47.8798" lon="5.42001">
        <ele>352.081</ele>
        <time>2014-08-04T15:15:49Z</time>
      </trkpt>
      <trkpt lat="47.87978" lon="5.41995">
        <ele>350.3463</ele>
        <time>2014-08-04T15:15:50Z</time>
      </trkpt>
      <trkpt lat="47.87975" lon="5.41984">
        <ele>348.481</ele>
        <time>2014-08-04T15:15:52Z</time>
      </trkpt>
      <trkpt lat="47.87973" lon="5.41978">
        <ele>350.1397</ele>
        <time>2014-08-04T15:15:53Z</time>
      </trkpt>
      <trkpt lat="47.87971" lon="5.41971">
        <ele>350.1144</ele>
        <time>2014-08-04T15:15:54Z</time>
      </trkpt>
      <trkpt lat="47.87968" lon="5.41964">
        <ele>352.7736</ele>
        <time>2014-08-04T15:15:55Z</time>
      </trkpt>
      <trkpt lat="47.87967" lon="5.41957">
        <ele>352.0961</ele>
        <time>2014-08-04T15:15:56Z</time>
      </trkpt>
      <trkpt lat="47.87962" lon="5.41947">
        <ele>349.805</ele>
        <time>2014-08-04T15:15:58Z</time>
      </trkpt>
      <trkpt lat="47.87954" lon="5.41938">
        <ele>351.1848</ele>
        <time>2014-08-04T15:16:00Z</time>
      </trkpt>
      <trkpt lat="47.8795" lon="5.41934">
        <ele>351.065</ele>
        <time>2014-08-04T15:16:01Z</time>
      </trkpt>
      <trkpt lat="47.87946" lon="5.4193">
        <ele>350.6667</ele>
        <time>2014-08-04T15:16:02Z</time>
      </trkpt>
      <trkpt lat="47.8794" lon="5.41922">
        <ele>349.0762</ele>
        <time>2014-08-04T15:16:04Z</time>
      </trkpt>
      <trkpt lat="47.87936" lon="5.41918">
        <ele>348.4053</ele>
        <time>2014-08-04T15:16:05Z</time>
      </trkpt>
      <trkpt lat="47.87932" lon="5.41913">
        <ele>349.3338</ele>
        <time>2014-08-04T15:16:06Z</time>
      </trkpt>
      <trkpt lat="47.87926" lon="5.41904">
        <ele>350.1715</ele>
        <time>2014-08-04T15:16:08Z</time>
      </trkpt>
      <trkpt lat="47.87922" lon="5.41898">
        <ele>351.972</ele>
        <time>2014-08-04T15:16:09Z</time>
      </trkpt>
      <trkpt lat="47.87918" lon="5.41893">
        <ele>352.3658</ele>
        <time>2014-08-04T15:16:10Z</time>
      </trkpt>
      <trkpt lat="47.87914" lon="5.41889">
        <ele>351.8803</ele>
        <time>2014-08-04T15:16:11Z</time>
      </trkpt>
      <trkpt lat="47.8791" lon="5.41884">
        <ele>351.209</ele>
        <time>2014-08-04T15:16:12Z</time>
      </trkpt>
      <trkpt lat="47.87906" lon="5.41879">
        <ele>350.3544</ele>
        <time>2014-08-04T15:16:13Z</time>
      </trkpt>
      <trkpt lat="47.87903" lon="5.41875">
        <ele>349.3109</ele>
        <time>2014-08-04T15:16:14Z</time>
      </trkpt>
      <trkpt lat="47.87896" lon="5.41867">
        <ele>350.0872</ele>
        <time>2014-08-04T15:16:16Z</time>
      </trkpt>
      <trkpt lat="47.87894" lon="5.41861">
        <ele>349.8581</ele>
        <time>2014-08-04T15:16:17Z</time>
      </trkpt>
      <trkpt lat="47.8789" lon="5.41854">
        <ele>349.0573</ele>
        <time>2014-08-04T15:16:18Z</time>
      </trkpt>
      <trkpt lat="47.87887" lon="5.41847">
        <ele>349.4177</ele>
        <time>2014-08-04T15:16:19Z</time>
      </trkpt>
      <trkpt lat="47.87884" lon="5.4184">
        <ele>349.5943</ele>
        <time>2014-08-04T15:16:20Z</time>
      </trkpt>
      <trkpt lat="47.8788" lon="5.41834">
        <ele>350.7039</ele>
        <time>2014-08-04T15:16:21Z</time>
      </trkpt>
      <trkpt lat="47.87878" lon="5.41828">
        <ele>350.8157</ele>
        <time>2014-08-04T15:16:22Z</time>
      </trkpt>
      <trkpt lat="47.87872" lon="5.41816">
        <ele>352.6773</ele>
        <time>2014-08-04T15:16:24Z</time>
      </trkpt>
      <trkpt lat="47.87869" lon="5.4181">
        <ele>351.4146</ele>
        <time>2014-08-04T15:16:25Z</time>
      </trkpt>
      <trkpt lat="47.87866" lon="5.41803">
        <ele>350.2313</ele>
        <time>2014-08-04T15:16:26Z</time>
      </trkpt>
      <trkpt lat="47.87862" lon="5.41797">
        <ele>351.5488</ele>
        <time>2014-08-04T15:16:27Z</time>
      </trkpt>
      <trkpt lat="47.87859" lon="5.4179">
        <ele>350.6653</ele>
        <time>2014-08-04T15:16:28Z</time>
      </trkpt>
      <trkpt lat="47.87856" lon="5.41784">
        <ele>350.9274</ele>
        <time>2014-08-04T15:16:29Z</time>
      </trkpt>
      <trkpt lat="47.87853" lon="5.41777">
        <ele>349.4006</ele>
        <time>2014-08-04T15:16:30Z</time>
      </trkpt>
      <trkpt lat="47.87849" lon="5.41771">
        <ele>348.9558</ele>
        <time>2014-08-04T15:16:31Z</time>
      </trkpt>
      <trkpt lat="47.87846" lon="5.41765">
        <ele>348.1131</ele>
        <time>2014-08-04T15:16:32Z</time>
      </trkpt>
      <trkpt lat="47.87843" lon="5.41759">
        <ele>349.6702</ele>
        <time>2014-08-04T15:16:33Z</time>
      </trkpt>
      <trkpt lat="47.8784" lon="5.41752">
        <ele>349.8264</ele>
        <time>2014-08-04T15:16:34Z</time>
      </trkpt>
      <trkpt lat="47.87837" lon="5.41745">
        <ele>350.7195</ele>
        <time>2014-08-04T15:16:35Z</time>
      </trkpt>
      <trkpt lat="47.87832" lon="5.41739">
        <ele>349.1415</ele>
        <time>2014-08-04T15:16:36Z</time>
      </trkpt>
      <trkpt lat="47.87829" lon="5.41733">
        <ele>347.6883</ele>
        <time>2014-08-04T15:16:37Z</time>
      </trkpt>
      <trkpt lat="47.87826" lon="5.41727">
        <ele>350.5486</ele>
        <time>2014-08-04T15:16:38Z</time>
      </trkpt>
      <trkpt lat="47.87822" lon="5.41722">
        <ele>350.5995</ele>
        <time>2014-08-04T15:16:39Z</time>
      </trkpt>
      <trkpt lat="47.87819" lon="5.41716">
        <ele>352.3474</ele>
        <time>2014-08-04T15:16:40Z</time>
      </trkpt>
      <trkpt lat="47.87816" lon="5.41711">
        <ele>352.8695</ele>
        <time>2014-08-04T15:16:41Z</time>
      </trkpt>
      <trkpt lat="47.87811" lon="5.41705">
        <ele>353.2044</ele>
        <time>2014-08-04T15:16:42Z</time>
      </trkpt>
      <trkpt lat="47.87808" lon="5.417">
        <ele>351.9973</ele>
        <time>2014-08-04T15:16:43Z</time>
      </trkpt>
      <trkpt lat="47.87803" lon="5.41695">
        <ele>351.5989</ele>
        <time>2014-08-04T15:16:44Z</time>
      </trkpt>
      <trkpt lat="47.87799" lon="5.41688">
        <ele>352.1295</ele>
        <time>2014-08-04T15:16:45Z</time>
      </trkpt>
      <trkpt lat="47.87794" lon="5.41683">
        <ele>349.3695</ele>
        <time>2014-08-04T15:16:46Z</time>
      </trkpt>
      <trkpt lat="47.8779" lon="5.41678">
        <ele>350.5167</ele>
        <time>2014-08-04T15:16:47Z</time>
      </trkpt>
      <trkpt lat="47.87786" lon="5.41673">
        <ele>351.2036</ele>
        <time>2014-08-04T15:16:48Z</time>
      </trkpt>
      <trkpt lat="47.87781" lon="5.41666">
        <ele>349.9882</ele>
        <time>2014-08-04T15:16:49Z</time>
      </trkpt>
      <trkpt lat="47.87778" lon="5.41661">
        <ele>349.5516</ele>
        <time>2014-08-04T15:16:50Z</time>
      </trkpt>
      <trkpt lat="47.87775" lon="5.41655">
        <ele>349.217</ele>
        <time>2014-08-04T15:16:51Z</time>
      </trkpt>
      <trkpt lat="47.87771" lon="5.41648">
        <ele>350.4072</ele>
        <time>2014-08-04T15:16:52Z</time>
      </trkpt>
      <trkpt lat="47.87767" lon="5.41642">
        <ele>351.7119</ele>
        <time>2014-08-04T15:16:54Z</time>
      </trkpt>
      <trkpt lat="47.87763" lon="5.41637">
        <ele>353.9828</ele>
        <time>2014-08-04T15:16:54Z</time>
      </trkpt>
      <trkpt lat="47.87759" lon="5.41631">
        <ele>352.5204</ele>
        <time>2014-08-04T15:16:55Z</time>
      </trkpt>
      <trkpt lat="47.87754" lon="5.41624">
        <ele>351.8029</ele>
        <time>2014-08-04T15:16:56Z</time>
      </trkpt>
      <trkpt lat="47.8775" lon="5.41618">
        <ele>352.6188</ele>
        <time>2014-08-04T15:16:57Z</time>
      </trkpt>
      <trkpt lat="47.87746" lon="5.41612">
        <ele>352.7611</ele>
        <time>2014-08-04T15:16:58Z</time>
      </trkpt>
      <trkpt lat="47.87743" lon="5.41606">
        <ele>352.1548</ele>
        <time>2014-08-04T15:16:59Z</time>
      </trkpt>
      <trkpt lat="47.8774" lon="5.416">
        <ele>352.1072</ele>
        <time>2014-08-04T15:17:00Z</time>
      </trkpt>
      <trkpt lat="47.87736" lon="5.41595">
        <ele>353.8523</ele>
        <time>2014-08-04T15:17:01Z</time>
      </trkpt>
      <trkpt lat="47.87733" lon="5.41589">
        <ele>355.352</ele>
        <time>2014-08-04T15:17:02Z</time>
      </trkpt>
      <trkpt lat="47.87729" lon="5.41582">
        <ele>353.8307</ele>
        <time>2014-08-04T15:17:03Z</time>
      </trkpt>
      <trkpt lat="47.87724" lon="5.41576">
        <ele>354.1974</ele>
        <time>2014-08-04T15:17:04Z</time>
      </trkpt>
      <trkpt lat="47.8772" lon="5.41571">
        <ele>351.2106</ele>
        <time>2014-08-04T15:17:05Z</time>
      </trkpt>
      <trkpt lat="47.87716" lon="5.41565">
        <ele>350.3504</ele>
        <time>2014-08-04T15:17:06Z</time>
      </trkpt>
      <trkpt lat="47.87711" lon="5.41559">
        <ele>348.6941</ele>
        <time>2014-08-04T15:17:07Z</time>
      </trkpt>
      <trkpt lat="47.87707" lon="5.41554">
        <ele>349.2047</ele>
        <time>2014-08-04T15:17:08Z</time>
      </trkpt>
      <trkpt lat="47.87702" lon="5.41548">
        <ele>350.02</ele>
        <time>2014-08-04T15:17:09Z</time>
      </trkpt>
      <trkpt lat="47.87697" lon="5.41544">
        <ele>349.9748</ele>
        <time>2014-08-04T15:17:10Z</time>
      </trkpt>
      <trkpt lat="47.87692" lon="5.41539">
        <ele>349.8339</ele>
        <time>2014-08-04T15:17:11Z</time>
      </trkpt>
      <trkpt lat="47.87686" lon="5.41535">
        <ele>349.5958</ele>
        <time>2014-08-04T15:17:12Z</time>
      </trkpt>
      <trkpt lat="47.87682" lon="5.41531">
        <ele>350.0883</ele>
        <time>2014-08-04T15:17:13Z</time>
      </trkpt>
      <trkpt lat="47.87678" lon="5.41527">
        <ele>350.4735</ele>
        <time>2014-08-04T15:17:14Z</time>
      </trkpt>
      <trkpt lat="47.87674" lon="5.41524">
        <ele>351.3089</ele>
        <time>2014-08-04T15:17:15Z</time>
      </trkpt>
      <trkpt lat="47.87669" lon="5.41521">
        <ele>351.7455</ele>
        <time>2014-08-04T15:17:16Z</time>
      </trkpt>
      <trkpt lat="47.87664" lon="5.41519">
        <ele>350.2588</ele>
        <time>2014-08-04T15:17:17Z</time>
      </trkpt>
      <trkpt lat="47.8766" lon="5.41518">
        <ele>348.4794</ele>
        <time>2014-08-04T15:17:18Z</time>
      </trkpt>
      <trkpt lat="47.87655" lon="5.41516">
        <ele>348.8185</ele>
        <time>2014-08-04T15:17:19Z</time>
      </trkpt>
      <trkpt lat="47.87647" lon="5.4151">
        <ele>348.4088</ele>
        <time>2014-08-04T15:17:21Z</time>
      </trkpt>
      <trkpt lat="47.87642" lon="5.41507">
        <ele>351.2929</ele>
        <time>2014-08-04T15:17:22Z</time>
      </trkpt>
      <trkpt lat="47.87637" lon="5.41503">
        <ele>351.1546</ele>
        <time>2014-08-04T15:17:23Z</time>
      </trkpt>
      <trkpt lat="47.87632" lon="5.41499">
        <ele>352.2092</ele>
        <time>2014-08-04T15:17:24Z</time>
      </trkpt>
      <trkpt lat="47.87627" lon="5.41494">
        <ele>351.7829</ele>
        <time>2014-08-04T15:17:25Z</time>
      </trkpt>
      <trkpt lat="47.8762" lon="5.41489">
        <ele>351.3705</ele>
        <time>2014-08-04T15:17:26Z</time>
      </trkpt>
      <trkpt lat="47.87614" lon="5.41485">
        <ele>352.1103</ele>
        <time>2014-08-04T15:17:27Z</time>
      </trkpt>
      <trkpt lat="47.8761" lon="5.41482">
        <ele>351.6508</ele>
        <time>2014-08-04T15:17:28Z</time>
      </trkpt>
      <trkpt lat="47.87605" lon="5.41478">
        <ele>349.999</ele>
        <time>2014-08-04T15:17:29Z</time>
      </trkpt>
      <trkpt lat="47.876" lon="5.41475">
        <ele>351.325</ele>
        <time>2014-08-04T15:17:30Z</time>
      </trkpt>
      <trkpt lat="47.8759" lon="5.41471">
        <ele>351.2097</ele>
        <time>2014-08-04T15:17:32Z</time>
      </trkpt>
      <trkpt lat="47.87585" lon="5.4147">
        <ele>353.3156</ele>
        <time>2014-08-04T15:17:33Z</time>
      </trkpt>
      <trkpt lat="47.87581" lon="5.41469">
        <ele>355.2577</ele>
        <time>2014-08-04T15:17:34Z</time>
      </trkpt>
      <trkpt lat="47.87574" lon="5.41468">
        <ele>354.5804</ele>
        <time>2014-08-04T15:17:35Z</time>
      </trkpt>
      <trkpt lat="47.87568" lon="5.41468">
        <ele>354.0514</ele>
        <time>2014-08-04T15:17:36Z</time>
      </trkpt>
      <trkpt lat="47.87561" lon="5.41468">
        <ele>353.3583</ele>
        <time>2014-08-04T15:17:37Z</time>
      </trkpt>
      <trkpt lat="47.87555" lon="5.41468">
        <ele>355.321</ele>
        <time>2014-08-04T15:17:38Z</time>
      </trkpt>
      <trkpt lat="47.87549" lon="5.41467">
        <ele>358.2415</ele>
        <time>2014-08-04T15:17:39Z</time>
      </trkpt>
      <trkpt lat="47.87544" lon="5.41467">
        <ele>358.4448</ele>
        <time>2014-08-04T15:17:40Z</time>
      </trkpt>
      <trkpt lat="47.87539" lon="5.41466">
        <ele>361.5874</ele>
        <time>2014-08-04T15:17:41Z</time>
      </trkpt>
      <trkpt lat="47.87534" lon="5.41466">
        <ele>360.6803</ele>
        <time>2014-08-04T15:17:42Z</time>
      </trkpt>
      <trkpt lat="47.87529" lon="5.41466">
        <ele>358.4316</ele>
        <time>2014-08-04T15:17:43Z</time>
      </trkpt>
      <trkpt lat="47.87521" lon="5.41462">
        <ele>358.5091</ele>
        <time>2014-08-04T15:17:45Z</time>
      </trkpt>
      <trkpt lat="47.87516" lon="5.41459">
        <ele>359.3656</ele>
        <time>2014-08-04T15:17:46Z</time>
      </trkpt>
      <trkpt lat="47.87512" lon="5.41456">
        <ele>356.5621</ele>
        <time>2014-08-04T15:17:47Z</time>
      </trkpt>
      <trkpt lat="47.87506" lon="5.41452">
        <ele>356.8162</ele>
        <time>2014-08-04T15:17:48Z</time>
      </trkpt>
      <trkpt lat="47.875" lon="5.41449">
        <ele>354.7057</ele>
        <time>2014-08-04T15:17:49Z</time>
      </trkpt>
      <trkpt lat="47.87495" lon="5.41446">
        <ele>352.3359</ele>
        <time>2014-08-04T15:17:50Z</time>
      </trkpt>
      <trkpt lat="47.87487" lon="5.41441">
        <ele>352.8009</ele>
        <time>2014-08-04T15:17:52Z</time>
      </trkpt>
      <trkpt lat="47.87482" lon="5.4144">
        <ele>353.8511</ele>
        <time>2014-08-04T15:17:53Z</time>
      </trkpt>
      <trkpt lat="47.87476" lon="5.41439">
        <ele>354.3278</ele>
        <time>2014-08-04T15:17:54Z</time>
      </trkpt>
      <trkpt lat="47.8747" lon="5.41438">
        <ele>352.6091</ele>
        <time>2014-08-04T15:17:55Z</time>
      </trkpt>
      <trkpt lat="47.87463" lon="5.41437">
        <ele>352.701</ele>
        <time>2014-08-04T15:17:56Z</time>
      </trkpt>
      <trkpt lat="47.87457" lon="5.41438">
        <ele>352.5352</ele>
        <time>2014-08-04T15:17:57Z</time>
      </trkpt>
      <trkpt lat="47.87452" lon="5.41437">
        <ele>351.4087</ele>
        <time>2014-08-04T15:17:58Z</time>
      </trkpt>
      <trkpt lat="47.87442" lon="5.41435">
        <ele>350.3073</ele>
        <time>2014-08-04T15:18:00Z</time>
      </trkpt>
      <trkpt lat="47.87436" lon="5.41434">
        <ele>352.9953</ele>
        <time>2014-08-04T15:18:01Z</time>
      </trkpt>
      <trkpt lat="47.87429" lon="5.41432">
        <ele>351.6526</ele>
        <time>2014-08-04T15:18:02Z</time>
      </trkpt>
      <trkpt lat="47.87424" lon="5.41431">
        <ele>351.8772</ele>
        <time>2014-08-04T15:18:03Z</time>
      </trkpt>
      <trkpt lat="47.87418" lon="5.4143">
        <ele>350.715</ele>
        <time>2014-08-04T15:18:04Z</time>
      </trkpt>
      <trkpt lat="47.87412" lon="5.4143">
        <ele>351.3763</ele>
        <time>2014-08-04T15:18:05Z</time>
      </trkpt>
      <trkpt lat="47.87407" lon="5.4143">
        <ele>354.477</ele>
        <time>2014-08-04T15:18:06Z</time>
      </trkpt>
      <trkpt lat="47.87402" lon="5.4143">
        <ele>354.4438</ele>
        <time>2014-08-04T15:18:07Z</time>
      </trkpt>
      <trkpt lat="47.87394" lon="5.4143">
        <ele>353.5052</ele>
        <time>2014-08-04T15:18:09Z</time>
      </trkpt>
      <trkpt lat="47.87389" lon="5.41429">
        <ele>355.5913</ele>
        <time>2014-08-04T15:18:10Z</time>
      </trkpt>
      <trkpt lat="47.87383" lon="5.41429">
        <ele>356.353</ele>
        <time>2014-08-04T15:18:11Z</time>
      </trkpt>
      <trkpt lat="47.87378" lon="5.41429">
        <ele>355.8485</ele>
        <time>2014-08-04T15:18:12Z</time>
      </trkpt>
      <trkpt lat="47.87372" lon="5.41429">
        <ele>354.4919</ele>
        <time>2014-08-04T15:18:13Z</time>
      </trkpt>
      <trkpt lat="47.87367" lon="5.41429">
        <ele>355.4495</ele>
        <time>2014-08-04T15:18:14Z</time>
      </trkpt>
      <trkpt lat="47.87362" lon="5.41429">
        <ele>356.9991</ele>
        <time>2014-08-04T15:18:15Z</time>
      </trkpt>
      <trkpt lat="47.87352" lon="5.41427">
        <ele>357.2771</ele>
        <time>2014-08-04T15:18:17Z</time>
      </trkpt>
      <trkpt lat="47.87346" lon="5.41425">
        <ele>356.104</ele>
        <time>2014-08-04T15:18:18Z</time>
      </trkpt>
      <trkpt lat="47.87342" lon="5.41423">
        <ele>355.8758</ele>
        <time>2014-08-04T15:18:19Z</time>
      </trkpt>
      <trkpt lat="47.87338" lon="5.41421">
        <ele>355.3225</ele>
        <time>2014-08-04T15:18:20Z</time>
      </trkpt>
      <trkpt lat="47.87333" lon="5.41418">
        <ele>354.2804</ele>
        <time>2014-08-04T15:18:21Z</time>
      </trkpt>
      <trkpt lat="47.87328" lon="5.41416">
        <ele>354.3409</ele>
        <time>2014-08-04T15:18:22Z</time>
      </trkpt>
      <trkpt lat="47.8732" lon="5.41413">
        <ele>352.8366</ele>
        <time>2014-08-04T15:18:24Z</time>
      </trkpt>
      <trkpt lat="47.87311" lon="5.4141">
        <ele>354.657</ele>
        <time>2014-08-04T15:18:26Z</time>
      </trkpt>
      <trkpt lat="47.87302" lon="5.41407">
        <ele>356.5933</ele>
        <time>2014-08-04T15:18:28Z</time>
      </trkpt>
      <trkpt lat="47.87293" lon="5.41404">
        <ele>353.8588</ele>
        <time>2014-08-04T15:18:30Z</time>
      </trkpt>
      <trkpt lat="47.87288" lon="5.41403">
        <ele>353.318</ele>
        <time>2014-08-04T15:18:31Z</time>
      </trkpt>
      <trkpt lat="47.8728" lon="5.41401">
        <ele>356.2361</ele>
        <time>2014-08-04T15:18:33Z</time>
      </trkpt>
      <trkpt lat="47.87274" lon="5.41401">
        <ele>358.8343</ele>
        <time>2014-08-04T15:18:35Z</time>
      </trkpt>
      <trkpt lat="47.87269" lon="5.41399">
        <ele>358.2117</ele>
        <time>2014-08-04T15:18:36Z</time>
      </trkpt>
      <trkpt lat="47.8726" lon="5.41396">
        <ele>356.3369</ele>
        <time>2014-08-04T15:18:38Z</time>
      </trkpt>
      <trkpt lat="47.87254" lon="5.41393">
        <ele>355.8101</ele>
        <time>2014-08-04T15:18:39Z</time>
      </trkpt>
      <trkpt lat="47.87247" lon="5.41391">
        <ele>357.2248</ele>
        <time>2014-08-04T15:18:40Z</time>
      </trkpt>
      <trkpt lat="47.87241" lon="5.4139">
        <ele>356.1783</ele>
        <time>2014-08-04T15:18:41Z</time>
      </trkpt>
      <trkpt lat="47.87234" lon="5.41388">
        <ele>353.5109</ele>
        <time>2014-08-04T15:18:42Z</time>
      </trkpt>
      <trkpt lat="47.87227" lon="5.41387">
        <ele>355.8284</ele>
        <time>2014-08-04T15:18:43Z</time>
      </trkpt>
      <trkpt lat="47.87221" lon="5.41386">
        <ele>355.2425</ele>
        <time>2014-08-04T15:18:44Z</time>
      </trkpt>
      <trkpt lat="47.87214" lon="5.41385">
        <ele>354.126</ele>
        <time>2014-08-04T15:18:45Z</time>
      </trkpt>
      <trkpt lat="47.87208" lon="5.41384">
        <ele>354.3593</ele>
        <time>2014-08-04T15:18:46Z</time>
      </trkpt>
      <trkpt lat="47.87201" lon="5.41383">
        <ele>353.7876</ele>
        <time>2014-08-04T15:18:47Z</time>
      </trkpt>
      <trkpt lat="47.87195" lon="5.41381">
        <ele>354.0066</ele>
        <time>2014-08-04T15:18:48Z</time>
      </trkpt>
      <trkpt lat="47.8719" lon="5.4138">
        <ele>352.7191</ele>
        <time>2014-08-04T15:18:49Z</time>
      </trkpt>
      <trkpt lat="47.87186" lon="5.41379">
        <ele>354.4743</ele>
        <time>2014-08-04T15:18:50Z</time>
      </trkpt>
      <trkpt lat="47.8718" lon="5.41378">
        <ele>351.0446</ele>
        <time>2014-08-04T15:18:51Z</time>
      </trkpt>
      <trkpt lat="47.87175" lon="5.41379">
        <ele>353.5312</ele>
        <time>2014-08-04T15:18:52Z</time>
      </trkpt>
      <trkpt lat="47.87167" lon="5.41379">
        <ele>356.4763</ele>
        <time>2014-08-04T15:18:54Z</time>
      </trkpt>
      <trkpt lat="47.87162" lon="5.4138">
        <ele>354.7041</ele>
        <time>2014-08-04T15:18:55Z</time>
      </trkpt>
      <trkpt lat="47.87157" lon="5.4138">
        <ele>355.7025</ele>
        <time>2014-08-04T15:18:56Z</time>
      </trkpt>
      <trkpt lat="47.87151" lon="5.41381">
        <ele>353.0529</ele>
        <time>2014-08-04T15:18:57Z</time>
      </trkpt>
      <trkpt lat="47.87146" lon="5.41382">
        <ele>353.4301</ele>
        <time>2014-08-04T15:18:58Z</time>
      </trkpt>
      <trkpt lat="47.87141" lon="5.41383">
        <ele>352.7755</ele>
        <time>2014-08-04T15:18:59Z</time>
      </trkpt>
      <trkpt lat="47.87136" lon="5.41384">
        <ele>352.1134</ele>
        <time>2014-08-04T15:19:00Z</time>
      </trkpt>
      <trkpt lat="47.87126" lon="5.41385">
        <ele>349.091</ele>
        <time>2014-08-04T15:19:02Z</time>
      </trkpt>
      <trkpt lat="47.8712" lon="5.41386">
        <ele>350.6802</ele>
        <time>2014-08-04T15:19:03Z</time>
      </trkpt>
      <trkpt lat="47.87114" lon="5.41387">
        <ele>350.8336</ele>
        <time>2014-08-04T15:19:04Z</time>
      </trkpt>
      <trkpt lat="47.87108" lon="5.41388">
        <ele>350.963</ele>
        <time>2014-08-04T15:19:05Z</time>
      </trkpt>
      <trkpt lat="47.87099" lon="5.41389">
        <ele>350.377</ele>
        <time>2014-08-04T15:19:07Z</time>
      </trkpt>
      <trkpt lat="47.87095" lon="5.4139">
        <ele>350.3484</ele>
        <time>2014-08-04T15:19:08Z</time>
      </trkpt>
      <trkpt lat="47.8709" lon="5.41391">
        <ele>349.4998</ele>
        <time>2014-08-04T15:19:09Z</time>
      </trkpt>
      <trkpt lat="47.87082" lon="5.41394">
        <ele>350.6882</ele>
        <time>2014-08-04T15:19:11Z</time>
      </trkpt>
      <trkpt lat="47.87074" lon="5.41396">
        <ele>348.8115</ele>
        <time>2014-08-04T15:19:13Z</time>
      </trkpt>
      <trkpt lat="47.87065" lon="5.41399">
        <ele>353.8134</ele>
        <time>2014-08-04T15:19:15Z</time>
      </trkpt>
      <trkpt lat="47.87059" lon="5.414">
        <ele>353.7488</ele>
        <time>2014-08-04T15:19:16Z</time>
      </trkpt>
      <trkpt lat="47.87054" lon="5.41401">
        <ele>352.643</ele>
        <time>2014-08-04T15:19:17Z</time>
      </trkpt>
      <trkpt lat="47.87045" lon="5.41405">
        <ele>354.3002</ele>
        <time>2014-08-04T15:19:19Z</time>
      </trkpt>
      <trkpt lat="47.8704" lon="5.41406">
        <ele>354.8101</ele>
        <time>2014-08-04T15:19:20Z</time>
      </trkpt>
      <trkpt lat="47.87035" lon="5.41407">
        <ele>355.3086</ele>
        <time>2014-08-04T15:19:21Z</time>
      </trkpt>
      <trkpt lat="47.87029" lon="5.41409">
        <ele>355.2564</ele>
        <time>2014-08-04T15:19:22Z</time>
      </trkpt>
      <trkpt lat="47.87022" lon="5.4141">
        <ele>357.3813</ele>
        <time>2014-08-04T15:19:23Z</time>
      </trkpt>
      <trkpt lat="47.87016" lon="5.41411">
        <ele>353.5652</ele>
        <time>2014-08-04T15:19:24Z</time>
      </trkpt>
      <trkpt lat="47.87011" lon="5.41412">
        <ele>351.9154</ele>
        <time>2014-08-04T15:19:25Z</time>
      </trkpt>
      <trkpt lat="47.87006" lon="5.41414">
        <ele>351.6878</ele>
        <time>2014-08-04T15:19:26Z</time>
      </trkpt>
      <trkpt lat="47.87001" lon="5.41415">
        <ele>353.3182</ele>
        <time>2014-08-04T15:19:27Z</time>
      </trkpt>
      <trkpt lat="47.86996" lon="5.41417">
        <ele>353.9745</ele>
        <time>2014-08-04T15:19:28Z</time>
      </trkpt>
      <trkpt lat="47.8699" lon="5.41419">
        <ele>351.9051</ele>
        <time>2014-08-04T15:19:29Z</time>
      </trkpt>
      <trkpt lat="47.86985" lon="5.41421">
        <ele>351.1417</ele>
        <time>2014-08-04T15:19:30Z</time>
      </trkpt>
      <trkpt lat="47.8698" lon="5.41422">
        <ele>348.7161</ele>
        <time>2014-08-04T15:19:31Z</time>
      </trkpt>
      <trkpt lat="47.86975" lon="5.41424">
        <ele>349.7291</ele>
        <time>2014-08-04T15:19:32Z</time>
      </trkpt>
      <trkpt lat="47.8697" lon="5.41425">
        <ele>349.5911</ele>
        <time>2014-08-04T15:19:33Z</time>
      </trkpt>
      <trkpt lat="47.86965" lon="5.41426">
        <ele>351.9079</ele>
        <time>2014-08-04T15:19:34Z</time>
      </trkpt>
      <trkpt lat="47.86956" lon="5.41428">
        <ele>353.6712</ele>
        <time>2014-08-04T15:19:36Z</time>
      </trkpt>
      <trkpt lat="47.86952" lon="5.4143">
        <ele>354.4944</ele>
        <time>2014-08-04T15:19:37Z</time>
      </trkpt>
      <trkpt lat="47.86947" lon="5.41432">
        <ele>355.8043</ele>
        <time>2014-08-04T15:19:38Z</time>
      </trkpt>
      <trkpt lat="47.86942" lon="5.41434">
        <ele>354.9793</ele>
        <time>2014-08-04T15:19:39Z</time>
      </trkpt>
      <trkpt lat="47.86937" lon="5.41437">
        <ele>356.6679</ele>
        <time>2014-08-04T15:19:40Z</time>
      </trkpt>
      <trkpt lat="47.86932" lon="5.41439">
        <ele>355.0895</ele>
        <time>2014-08-04T15:19:41Z</time>
      </trkpt>
      <trkpt lat="47.86927" lon="5.41441">
        <ele>353.8527</ele>
        <time>2014-08-04T15:19:42Z</time>
      </trkpt>
      <trkpt lat="47.86923" lon="5.41443">
        <ele>352.5347</ele>
        <time>2014-08-04T15:19:43Z</time>
      </trkpt>
      <trkpt lat="47.86918" lon="5.41446">
        <ele>350.5721</ele>
        <time>2014-08-04T15:19:44Z</time>
      </trkpt>
      <trkpt lat="47.86913" lon="5.41449">
        <ele>349.6168</ele>
        <time>2014-08-04T15:19:45Z</time>
      </trkpt>
      <trkpt lat="47.86909" lon="5.41451">
        <ele>347.7429</ele>
        <time>2014-08-04T15:19:46Z</time>
      </trkpt>
      <trkpt lat="47.86903" lon="5.41454">
        <ele>348.5035</ele>
        <time>2014-08-04T15:19:47Z</time>
      </trkpt>
      <trkpt lat="47.86899" lon="5.41456">
        <ele>349.5132</ele>
        <time>2014-08-04T15:19:48Z</time>
      </trkpt>
      <trkpt lat="47.86894" lon="5.41457">
        <ele>348.9161</ele>
        <time>2014-08-04T15:19:49Z</time>
      </trkpt>
      <trkpt lat="47.86889" lon="5.4146">
        <ele>349.1393</ele>
        <time>2014-08-04T15:19:50Z</time>
      </trkpt>
      <trkpt lat="47.86884" lon="5.41462">
        <ele>350.0332</ele>
        <time>2014-08-04T15:19:51Z</time>
      </trkpt>
      <trkpt lat="47.86879" lon="5.41465">
        <ele>349.8954</ele>
        <time>2014-08-04T15:19:52Z</time>
      </trkpt>
      <trkpt lat="47.86874" lon="5.41469">
        <ele>349.9179</ele>
        <time>2014-08-04T15:19:53Z</time>
      </trkpt>
      <trkpt lat="47.86869" lon="5.41473">
        <ele>351.3067</ele>
        <time>2014-08-04T15:19:54Z</time>
      </trkpt>
      <trkpt lat="47.86864" lon="5.41476">
        <ele>352.8501</ele>
        <time>2014-08-04T15:19:55Z</time>
      </trkpt>
      <trkpt lat="47.8686" lon="5.41478">
        <ele>351.642</ele>
        <time>2014-08-04T15:19:56Z</time>
      </trkpt>
      <trkpt lat="47.86855" lon="5.4148">
        <ele>349.9643</ele>
        <time>2014-08-04T15:19:57Z</time>
      </trkpt>
      <trkpt lat="47.86851" lon="5.41483">
        <ele>349.3419</ele>
        <time>2014-08-04T15:19:58Z</time>
      </trkpt>
      <trkpt lat="47.86847" lon="5.41486">
        <ele>349.2795</ele>
        <time>2014-08-04T15:19:59Z</time>
      </trkpt>
      <trkpt lat="47.86842" lon="5.4149">
        <ele>350.5438</ele>
        <time>2014-08-04T15:20:00Z</time>
      </trkpt>
      <trkpt lat="47.86837" lon="5.41492">
        <ele>351.3551</ele>
        <time>2014-08-04T15:20:01Z</time>
      </trkpt>
      <trkpt lat="47.86831" lon="5.41495">
        <ele>352.087</ele>
        <time>2014-08-04T15:20:02Z</time>
      </trkpt>
      <trkpt lat="47.86826" lon="5.41498">
        <ele>351.8325</ele>
        <time>2014-08-04T15:20:03Z</time>
      </trkpt>
      <trkpt lat="47.86822" lon="5.41502">
        <ele>353.6358</ele>
        <time>2014-08-04T15:20:04Z</time>
      </trkpt>
      <trkpt lat="47.86814" lon="5.4151">
        <ele>355.5032</ele>
        <time>2014-08-04T15:20:06Z</time>
      </trkpt>
      <trkpt lat="47.8681" lon="5.41513">
        <ele>355.1368</ele>
        <time>2014-08-04T15:20:07Z</time>
      </trkpt>
      <trkpt lat="47.86805" lon="5.41517">
        <ele>354.2712</ele>
        <time>2014-08-04T15:20:08Z</time>
      </trkpt>
      <trkpt lat="47.868" lon="5.41521">
        <ele>353.9427</ele>
        <time>2014-08-04T15:20:09Z</time>
      </trkpt>
      <trkpt lat="47.86792" lon="5.41529">
        <ele>350.728</ele>
        <time>2014-08-04T15:20:11Z</time>
      </trkpt>
      <trkpt lat="47.86789" lon="5.41533">
        <ele>351.1266</ele>
        <time>2014-08-04T15:20:12Z</time>
      </trkpt>
      <trkpt lat="47.86784" lon="5.41537">
        <ele>350.5173</ele>
        <time>2014-08-04T15:20:13Z</time>
      </trkpt>
      <trkpt lat="47.8678" lon="5.4154">
        <ele>350.6809</ele>
        <time>2014-08-04T15:20:14Z</time>
      </trkpt>
      <trkpt lat="47.86775" lon="5.41543">
        <ele>349.5573</ele>
        <time>2014-08-04T15:20:15Z</time>
      </trkpt>
      <trkpt lat="47.8677" lon="5.41546">
        <ele>349.3972</ele>
        <time>2014-08-04T15:20:16Z</time>
      </trkpt>
      <trkpt lat="47.86765" lon="5.41548">
        <ele>349.8687</ele>
        <time>2014-08-04T15:20:17Z</time>
      </trkpt>
      <trkpt lat="47.86757" lon="5.41552">
        <ele>347.4198</ele>
        <time>2014-08-04T15:20:19Z</time>
      </trkpt>
      <trkpt lat="47.86751" lon="5.41555">
        <ele>345.1628</ele>
        <time>2014-08-04T15:20:21Z</time>
      </trkpt>
      <trkpt lat="47.86746" lon="5.41558">
        <ele>347.0708</ele>
        <time>2014-08-04T15:20:23Z</time>
      </trkpt>
      <trkpt lat="47.86741" lon="5.41563">
        <ele>346.0534</ele>
        <time>2014-08-04T15:20:25Z</time>
      </trkpt>
      <trkpt lat="47.86734" lon="5.41566">
        <ele>348.4963</ele>
        <time>2014-08-04T15:20:27Z</time>
      </trkpt>
      <trkpt lat="47.86728" lon="5.41569">
        <ele>350.1501</ele>
        <time>2014-08-04T15:20:29Z</time>
      </trkpt>
      <trkpt lat="47.86724" lon="5.41573">
        <ele>349.8044</ele>
        <time>2014-08-04T15:20:30Z</time>
      </trkpt>
      <trkpt lat="47.8672" lon="5.41578">
        <ele>351.2326</ele>
        <time>2014-08-04T15:20:31Z</time>
      </trkpt>
      <trkpt lat="47.86716" lon="5.41583">
        <ele>352.6361</ele>
        <time>2014-08-04T15:20:32Z</time>
      </trkpt>
      <trkpt lat="47.86709" lon="5.41592">
        <ele>348.3885</ele>
        <time>2014-08-04T15:20:34Z</time>
      </trkpt>
      <trkpt lat="47.86702" lon="5.416">
        <ele>349.8945</ele>
        <time>2014-08-04T15:20:36Z</time>
      </trkpt>
      <trkpt lat="47.86699" lon="5.41604">
        <ele>350.3143</ele>
        <time>2014-08-04T15:20:37Z</time>
      </trkpt>
      <trkpt lat="47.86695" lon="5.41608">
        <ele>349.8942</ele>
        <time>2014-08-04T15:20:38Z</time>
      </trkpt>
      <trkpt lat="47.86688" lon="5.41615">
        <ele>348.7212</ele>
        <time>2014-08-04T15:20:40Z</time>
      </trkpt>
      <trkpt lat="47.86681" lon="5.41623">
        <ele>351.2686</ele>
        <time>2014-08-04T15:20:42Z</time>
      </trkpt>
      <trkpt lat="47.86675" lon="5.41632">
        <ele>350.491</ele>
        <time>2014-08-04T15:20:44Z</time>
      </trkpt>
      <trkpt lat="47.86672" lon="5.41638">
        <ele>348.3976</ele>
        <time>2014-08-04T15:20:45Z</time>
      </trkpt>
      <trkpt lat="47.86668" lon="5.41643">
        <ele>348.4219</ele>
        <time>2014-08-04T15:20:46Z</time>
      </trkpt>
      <trkpt lat="47.86663" lon="5.41648">
        <ele>348.5278</ele>
        <time>2014-08-04T15:20:47Z</time>
      </trkpt>
      <trkpt lat="47.86659" lon="5.41653">
        <ele>347.7274</ele>
        <time>2014-08-04T15:20:48Z</time>
      </trkpt>
      <trkpt lat="47.86656" lon="5.41658">
        <ele>347.7836</ele>
        <time>2014-08-04T15:20:49Z</time>
      </trkpt>
      <trkpt lat="47.86653" lon="5.41664">
        <ele>349.7996</ele>
        <time>2014-08-04T15:20:50Z</time>
      </trkpt>
      <trkpt lat="47.86649" lon="5.41672">
        <ele>349.1196</ele>
        <time>2014-08-04T15:20:51Z</time>
      </trkpt>
      <trkpt lat="47.86646" lon="5.41677">
        <ele>348.0932</ele>
        <time>2014-08-04T15:20:52Z</time>
      </trkpt>
      <trkpt lat="47.86643" lon="5.41683">
        <ele>346.4013</ele>
        <time>2014-08-04T15:20:53Z</time>
      </trkpt>
      <trkpt lat="47.86639" lon="5.41691">
        <ele>345.2743</ele>
        <time>2014-08-04T15:20:54Z</time>
      </trkpt>
      <trkpt lat="47.86636" lon="5.41697">
        <ele>347.6949</ele>
        <time>2014-08-04T15:20:55Z</time>
      </trkpt>
      <trkpt lat="47.86634" lon="5.41703">
        <ele>346.9005</ele>
        <time>2014-08-04T15:20:56Z</time>
      </trkpt>
      <trkpt lat="47.86631" lon="5.4171">
        <ele>348.8322</ele>
        <time>2014-08-04T15:20:57Z</time>
      </trkpt>
      <trkpt lat="47.86631" lon="5.41718">
        <ele>346.3986</ele>
        <time>2014-08-04T15:20:58Z</time>
      </trkpt>
      <trkpt lat="47.86628" lon="5.41725">
        <ele>342.5732</ele>
        <time>2014-08-04T15:20:59Z</time>
      </trkpt>
      <trkpt lat="47.86625" lon="5.41737">
        <ele>345.8253</ele>
        <time>2014-08-04T15:21:01Z</time>
      </trkpt>
      <trkpt lat="47.86623" lon="5.41751">
        <ele>348.8577</ele>
        <time>2014-08-04T15:21:03Z</time>
      </trkpt>
      <trkpt lat="47.86619" lon="5.41763">
        <ele>351.9457</ele>
        <time>2014-08-04T15:21:05Z</time>
      </trkpt>
      <trkpt lat="47.86617" lon="5.41771">
        <ele>353.3997</ele>
        <time>2014-08-04T15:21:06Z</time>
      </trkpt>
      <trkpt lat="47.86614" lon="5.41777">
        <ele>351.6897</ele>
        <time>2014-08-04T15:21:07Z</time>
      </trkpt>
      <trkpt lat="47.86612" lon="5.41783">
        <ele>348.9159</ele>
        <time>2014-08-04T15:21:08Z</time>
      </trkpt>
      <trkpt lat="47.8661" lon="5.41791">
        <ele>348.8593</ele>
        <time>2014-08-04T15:21:09Z</time>
      </trkpt>
      <trkpt lat="47.86608" lon="5.41798">
        <ele>345.071</ele>
        <time>2014-08-04T15:21:10Z</time>
      </trkpt>
      <trkpt lat="47.86605" lon="5.41806">
        <ele>343.5863</ele>
        <time>2014-08-04T15:21:11Z</time>
      </trkpt>
      <trkpt lat="47.86602" lon="5.41812">
        <ele>341.9713</ele>
        <time>2014-08-04T15:21:12Z</time>
      </trkpt>
      <trkpt lat="47.866" lon="5.41818">
        <ele>345.7326</ele>
        <time>2014-08-04T15:21:13Z</time>
      </trkpt>
      <trkpt lat="47.86597" lon="5.41824">
        <ele>345.9891</ele>
        <time>2014-08-04T15:21:14Z</time>
      </trkpt>
      <trkpt lat="47.86593" lon="5.41835">
        <ele>345.3778</ele>
        <time>2014-08-04T15:21:16Z</time>
      </trkpt>
      <trkpt lat="47.86591" lon="5.41843">
        <ele>345.5225</ele>
        <time>2014-08-04T15:21:17Z</time>
      </trkpt>
      <trkpt lat="47.86588" lon="5.41851">
        <ele>347.7019</ele>
        <time>2014-08-04T15:21:18Z</time>
      </trkpt>
      <trkpt lat="47.86584" lon="5.41859">
        <ele>346.1744</ele>
        <time>2014-08-04T15:21:19Z</time>
      </trkpt>
      <trkpt lat="47.86581" lon="5.41867">
        <ele>346.2545</ele>
        <time>2014-08-04T15:21:20Z</time>
      </trkpt>
      <trkpt lat="47.86579" lon="5.41874">
        <ele>345.3997</ele>
        <time>2014-08-04T15:21:21Z</time>
      </trkpt>
      <trkpt lat="47.86577" lon="5.41881">
        <ele>348.3356</ele>
        <time>2014-08-04T15:21:22Z</time>
      </trkpt>
      <trkpt lat="47.86574" lon="5.41888">
        <ele>348.9446</ele>
        <time>2014-08-04T15:21:23Z</time>
      </trkpt>
      <trkpt lat="47.86573" lon="5.41895">
        <ele>348.1432</ele>
        <time>2014-08-04T15:21:24Z</time>
      </trkpt>
      <trkpt lat="47.86571" lon="5.41902">
        <ele>348.426</ele>
        <time>2014-08-04T15:21:25Z</time>
      </trkpt>
      <trkpt lat="47.86569" lon="5.41909">
        <ele>346.8835</ele>
        <time>2014-08-04T15:21:26Z</time>
      </trkpt>
      <trkpt lat="47.86567" lon="5.41916">
        <ele>345.2048</ele>
        <time>2014-08-04T15:21:27Z</time>
      </trkpt>
      <trkpt lat="47.86565" lon="5.41924">
        <ele>344.949</ele>
        <time>2014-08-04T15:21:28Z</time>
      </trkpt>
      <trkpt lat="47.86563" lon="5.4193">
        <ele>345.277</ele>
        <time>2014-08-04T15:21:29Z</time>
      </trkpt>
      <trkpt lat="47.86561" lon="5.41937">
        <ele>346.6699</ele>
        <time>2014-08-04T15:21:30Z</time>
      </trkpt>
      <trkpt lat="47.86559" lon="5.41945">
        <ele>346.7797</ele>
        <time>2014-08-04T15:21:31Z</time>
      </trkpt>
      <trkpt lat="47.86557" lon="5.41958">
        <ele>344.7682</ele>
        <time>2014-08-04T15:21:33Z</time>
      </trkpt>
      <trkpt lat="47.86556" lon="5.41966">
        <ele>348.1916</ele>
        <time>2014-08-04T15:21:34Z</time>
      </trkpt>
      <trkpt lat="47.86555" lon="5.41974">
        <ele>345.3935</ele>
        <time>2014-08-04T15:21:35Z</time>
      </trkpt>
      <trkpt lat="47.86553" lon="5.41982">
        <ele>344.3735</ele>
        <time>2014-08-04T15:21:36Z</time>
      </trkpt>
      <trkpt lat="47.86552" lon="5.41991">
        <ele>345.6729</ele>
        <time>2014-08-04T15:21:37Z</time>
      </trkpt>
      <trkpt lat="47.8655" lon="5.41999">
        <ele>346.0959</ele>
        <time>2014-08-04T15:21:38Z</time>
      </trkpt>
      <trkpt lat="47.86549" lon="5.42006">
        <ele>345.4221</ele>
        <time>2014-08-04T15:21:39Z</time>
      </trkpt>
      <trkpt lat="47.86547" lon="5.42014">
        <ele>343.0943</ele>
        <time>2014-08-04T15:21:40Z</time>
      </trkpt>
      <trkpt lat="47.86544" lon="5.42022">
        <ele>343.5861</ele>
        <time>2014-08-04T15:21:41Z</time>
      </trkpt>
      <trkpt lat="47.86542" lon="5.42029">
        <ele>345.0323</ele>
        <time>2014-08-04T15:21:42Z</time>
      </trkpt>
      <trkpt lat="47.8654" lon="5.42035">
        <ele>344.6297</ele>
        <time>2014-08-04T15:21:43Z</time>
      </trkpt>
      <trkpt lat="47.86534" lon="5.42046">
        <ele>345.9463</ele>
        <time>2014-08-04T15:21:45Z</time>
      </trkpt>
      <trkpt lat="47.86531" lon="5.42052">
        <ele>342.143</ele>
        <time>2014-08-04T15:21:46Z</time>
      </trkpt>
      <trkpt lat="47.86527" lon="5.42058">
        <ele>340.6896</ele>
        <time>2014-08-04T15:21:47Z</time>
      </trkpt>
      <trkpt lat="47.86522" lon="5.42064">
        <ele>342.6246</ele>
        <time>2014-08-04T15:21:48Z</time>
      </trkpt>
      <trkpt lat="47.86518" lon="5.4207">
        <ele>343.2524</ele>
        <time>2014-08-04T15:21:49Z</time>
      </trkpt>
      <trkpt lat="47.86514" lon="5.42074">
        <ele>343.1875</ele>
        <time>2014-08-04T15:21:50Z</time>
      </trkpt>
      <trkpt lat="47.86509" lon="5.42077">
        <ele>341.6409</ele>
        <time>2014-08-04T15:21:51Z</time>
      </trkpt>
      <trkpt lat="47.86504" lon="5.4208">
        <ele>343.2127</ele>
        <time>2014-08-04T15:21:52Z</time>
      </trkpt>
      <trkpt lat="47.86499" lon="5.42083">
        <ele>343.9271</ele>
        <time>2014-08-04T15:21:53Z</time>
      </trkpt>
      <trkpt lat="47.86494" lon="5.42087">
        <ele>343.526</ele>
        <time>2014-08-04T15:21:54Z</time>
      </trkpt>
      <trkpt lat="47.8649" lon="5.4209">
        <ele>345.868</ele>
        <time>2014-08-04T15:21:55Z</time>
      </trkpt>
      <trkpt lat="47.86486" lon="5.42095">
        <ele>345.9055</ele>
        <time>2014-08-04T15:21:56Z</time>
      </trkpt>
      <trkpt lat="47.86482" lon="5.421">
        <ele>347.0305</ele>
        <time>2014-08-04T15:21:57Z</time>
      </trkpt>
      <trkpt lat="47.86479" lon="5.42105">
        <ele>347.7312</ele>
        <time>2014-08-04T15:21:58Z</time>
      </trkpt>
      <trkpt lat="47.86475" lon="5.42117">
        <ele>349.6417</ele>
        <time>2014-08-04T15:22:00Z</time>
      </trkpt>
      <trkpt lat="47.86473" lon="5.42124">
        <ele>349.9717</ele>
        <time>2014-08-04T15:22:01Z</time>
      </trkpt>
      <trkpt lat="47.86472" lon="5.42132">
        <ele>348.0289</ele>
        <time>2014-08-04T15:22:02Z</time>
      </trkpt>
      <trkpt lat="47.8647" lon="5.4214">
        <ele>347.9226</ele>
        <time>2014-08-04T15:22:03Z</time>
      </trkpt>
      <trkpt lat="47.86469" lon="5.42147">
        <ele>349.2381</ele>
        <time>2014-08-04T15:22:04Z</time>
      </trkpt>
      <trkpt lat="47.86467" lon="5.42155">
        <ele>348.2365</ele>
        <time>2014-08-04T15:22:05Z</time>
      </trkpt>
      <trkpt lat="47.86467" lon="5.42162">
        <ele>346.4721</ele>
        <time>2014-08-04T15:22:06Z</time>
      </trkpt>
      <trkpt lat="47.86466" lon="5.42169">
        <ele>347.7759</ele>
        <time>2014-08-04T15:22:07Z</time>
      </trkpt>
      <trkpt lat="47.86464" lon="5.42176">
        <ele>348.2678</ele>
        <time>2014-08-04T15:22:08Z</time>
      </trkpt>
      <trkpt lat="47.86462" lon="5.42183">
        <ele>346.7922</ele>
        <time>2014-08-04T15:22:09Z</time>
      </trkpt>
      <trkpt lat="47.86459" lon="5.42189">
        <ele>346.6572</ele>
        <time>2014-08-04T15:22:10Z</time>
      </trkpt>
      <trkpt lat="47.86456" lon="5.42194">
        <ele>347.9059</ele>
        <time>2014-08-04T15:22:11Z</time>
      </trkpt>
      <trkpt lat="47.86452" lon="5.422">
        <ele>348.4762</ele>
        <time>2014-08-04T15:22:12Z</time>
      </trkpt>
      <trkpt lat="47.86448" lon="5.42206">
        <ele>346.9008</ele>
        <time>2014-08-04T15:22:13Z</time>
      </trkpt>
      <trkpt lat="47.86445" lon="5.42211">
        <ele>348.5729</ele>
        <time>2014-08-04T15:22:14Z</time>
      </trkpt>
      <trkpt lat="47.86441" lon="5.42216">
        <ele>347.2636</ele>
        <time>2014-08-04T15:22:15Z</time>
      </trkpt>
      <trkpt lat="47.86438" lon="5.42221">
        <ele>347.6062</ele>
        <time>2014-08-04T15:22:16Z</time>
      </trkpt>
      <trkpt lat="47.86434" lon="5.42227">
        <ele>348.5699</ele>
        <time>2014-08-04T15:22:17Z</time>
      </trkpt>
      <trkpt lat="47.86431" lon="5.42232">
        <ele>348.7505</ele>
        <time>2014-08-04T15:22:18Z</time>
      </trkpt>
      <trkpt lat="47.86425" lon="5.42241">
        <ele>351.7794</ele>
        <time>2014-08-04T15:22:20Z</time>
      </trkpt>
      <trkpt lat="47.86421" lon="5.42247">
        <ele>351.0462</ele>
        <time>2014-08-04T15:22:21Z</time>
      </trkpt>
      <trkpt lat="47.86417" lon="5.42253">
        <ele>352.294</ele>
        <time>2014-08-04T15:22:22Z</time>
      </trkpt>
      <trkpt lat="47.86414" lon="5.42258">
        <ele>353.3681</ele>
        <time>2014-08-04T15:22:23Z</time>
      </trkpt>
      <trkpt lat="47.8641" lon="5.42264">
        <ele>352.0214</ele>
        <time>2014-08-04T15:22:24Z</time>
      </trkpt>
      <trkpt lat="47.86406" lon="5.4227">
        <ele>352.847</ele>
        <time>2014-08-04T15:22:25Z</time>
      </trkpt>
      <trkpt lat="47.86403" lon="5.42276">
        <ele>352.2268</ele>
        <time>2014-08-04T15:22:26Z</time>
      </trkpt>
      <trkpt lat="47.864" lon="5.42282">
        <ele>350.9519</ele>
        <time>2014-08-04T15:22:27Z</time>
      </trkpt>
      <trkpt lat="47.86397" lon="5.42288">
        <ele>349.5181</ele>
        <time>2014-08-04T15:22:28Z</time>
      </trkpt>
      <trkpt lat="47.86394" lon="5.42294">
        <ele>347.2438</ele>
        <time>2014-08-04T15:22:29Z</time>
      </trkpt>
      <trkpt lat="47.86391" lon="5.423">
        <ele>346.5024</ele>
        <time>2014-08-04T15:22:30Z</time>
      </trkpt>
      <trkpt lat="47.86388" lon="5.42306">
        <ele>348.3165</ele>
        <time>2014-08-04T15:22:31Z</time>
      </trkpt>
      <trkpt lat="47.86385" lon="5.42312">
        <ele>349.6534</ele>
        <time>2014-08-04T15:22:32Z</time>
      </trkpt>
      <trkpt lat="47.86382" lon="5.42319">
        <ele>351.6692</ele>
        <time>2014-08-04T15:22:33Z</time>
      </trkpt>
      <trkpt lat="47.86379" lon="5.42324">
        <ele>350.9517</ele>
        <time>2014-08-04T15:22:34Z</time>
      </trkpt>
      <trkpt lat="47.86375" lon="5.4233">
        <ele>350.9765</ele>
        <time>2014-08-04T15:22:35Z</time>
      </trkpt>
      <trkpt lat="47.86372" lon="5.42335">
        <ele>348.6035</ele>
        <time>2014-08-04T15:22:36Z</time>
      </trkpt>
      <trkpt lat="47.86369" lon="5.42342">
        <ele>350.6472</ele>
        <time>2014-08-04T15:22:37Z</time>
      </trkpt>
      <trkpt lat="47.86366" lon="5.42348">
        <ele>350.3617</ele>
        <time>2014-08-04T15:22:38Z</time>
      </trkpt>
      <trkpt lat="47.86363" lon="5.42354">
        <ele>350.6798</ele>
        <time>2014-08-04T15:22:39Z</time>
      </trkpt>
      <trkpt lat="47.86359" lon="5.42361">
        <ele>351.3748</ele>
        <time>2014-08-04T15:22:40Z</time>
      </trkpt>
      <trkpt lat="47.86356" lon="5.42366">
        <ele>351.9396</ele>
        <time>2014-08-04T15:22:41Z</time>
      </trkpt>
      <trkpt lat="47.86352" lon="5.42372">
        <ele>351.7807</ele>
        <time>2014-08-04T15:22:42Z</time>
      </trkpt>
      <trkpt lat="47.86348" lon="5.42377">
        <ele>348.0029</ele>
        <time>2014-08-04T15:22:43Z</time>
      </trkpt>
      <trkpt lat="47.86345" lon="5.42383">
        <ele>346.7897</ele>
        <time>2014-08-04T15:22:44Z</time>
      </trkpt>
      <trkpt lat="47.86337" lon="5.4239">
        <ele>350.3841</ele>
        <time>2014-08-04T15:22:46Z</time>
      </trkpt>
      <trkpt lat="47.86333" lon="5.42394">
        <ele>350.578</ele>
        <time>2014-08-04T15:22:47Z</time>
      </trkpt>
      <trkpt lat="47.86328" lon="5.42397">
        <ele>350.2032</ele>
        <time>2014-08-04T15:22:48Z</time>
      </trkpt>
      <trkpt lat="47.86323" lon="5.42401">
        <ele>349.6903</ele>
        <time>2014-08-04T15:22:49Z</time>
      </trkpt>
      <trkpt lat="47.86318" lon="5.42405">
        <ele>347.7201</ele>
        <time>2014-08-04T15:22:50Z</time>
      </trkpt>
      <trkpt lat="47.86314" lon="5.42408">
        <ele>344.9929</ele>
        <time>2014-08-04T15:22:51Z</time>
      </trkpt>
      <trkpt lat="47.86309" lon="5.42412">
        <ele>346.2147</ele>
        <time>2014-08-04T15:22:52Z</time>
      </trkpt>
      <trkpt lat="47.86304" lon="5.42416">
        <ele>348.2784</ele>
        <time>2014-08-04T15:22:53Z</time>
      </trkpt>
      <trkpt lat="47.86299" lon="5.4242">
        <ele>350.0533</ele>
        <time>2014-08-04T15:22:54Z</time>
      </trkpt>
      <trkpt lat="47.86295" lon="5.42423">
        <ele>350.8723</ele>
        <time>2014-08-04T15:22:55Z</time>
      </trkpt>
      <trkpt lat="47.8629" lon="5.42425">
        <ele>351.0708</ele>
        <time>2014-08-04T15:22:56Z</time>
      </trkpt>
      <trkpt lat="47.86281" lon="5.42431">
        <ele>350.9771</ele>
        <time>2014-08-04T15:22:58Z</time>
      </trkpt>
      <trkpt lat="47.86273" lon="5.42437">
        <ele>350.9012</ele>
        <time>2014-08-04T15:23:00Z</time>
      </trkpt>
      <trkpt lat="47.86269" lon="5.4244">
        <ele>351.4516</ele>
        <time>2014-08-04T15:23:01Z</time>
      </trkpt>
      <trkpt lat="47.86264" lon="5.42444">
        <ele>352.0075</ele>
        <time>2014-08-04T15:23:02Z</time>
      </trkpt>
      <trkpt lat="47.8626" lon="5.42449">
        <ele>353.6389</ele>
        <time>2014-08-04T15:23:03Z</time>
      </trkpt>
      <trkpt lat="47.86256" lon="5.42454">
        <ele>352.2283</ele>
        <time>2014-08-04T15:23:04Z</time>
      </trkpt>
      <trkpt lat="47.86251" lon="5.42458">
        <ele>351.9774</ele>
        <time>2014-08-04T15:23:05Z</time>
      </trkpt>
      <trkpt lat="47.86247" lon="5.42464">
        <ele>350.2636</ele>
        <time>2014-08-04T15:23:06Z</time>
      </trkpt>
      <trkpt lat="47.86244" lon="5.4247">
        <ele>351.0789</ele>
        <time>2014-08-04T15:23:07Z</time>
      </trkpt>
      <trkpt lat="47.86241" lon="5.42476">
        <ele>351.5611</ele>
        <time>2014-08-04T15:23:08Z</time>
      </trkpt>
      <trkpt lat="47.86238" lon="5.42482">
        <ele>350.9061</ele>
        <time>2014-08-04T15:23:09Z</time>
      </trkpt>
      <trkpt lat="47.86235" lon="5.42488">
        <ele>352.188</ele>
        <time>2014-08-04T15:23:10Z</time>
      </trkpt>
      <trkpt lat="47.86232" lon="5.42495">
        <ele>353.0911</ele>
        <time>2014-08-04T15:23:11Z</time>
      </trkpt>
      <trkpt lat="47.86229" lon="5.425">
        <ele>352.737</ele>
        <time>2014-08-04T15:23:12Z</time>
      </trkpt>
      <trkpt lat="47.86224" lon="5.42511">
        <ele>350.5367</ele>
        <time>2014-08-04T15:23:14Z</time>
      </trkpt>
      <trkpt lat="47.8622" lon="5.42518">
        <ele>348.0092</ele>
        <time>2014-08-04T15:23:15Z</time>
      </trkpt>
      <trkpt lat="47.86217" lon="5.42525">
        <ele>345.6996</ele>
        <time>2014-08-04T15:23:16Z</time>
      </trkpt>
      <trkpt lat="47.86214" lon="5.42532">
        <ele>346.8757</ele>
        <time>2014-08-04T15:23:17Z</time>
      </trkpt>
      <trkpt lat="47.86211" lon="5.42539">
        <ele>344.585</ele>
        <time>2014-08-04T15:23:18Z</time>
      </trkpt>
      <trkpt lat="47.86209" lon="5.42546">
        <ele>344.3167</ele>
        <time>2014-08-04T15:23:19Z</time>
      </trkpt>
      <trkpt lat="47.86207" lon="5.42551">
        <ele>345.1809</ele>
        <time>2014-08-04T15:23:20Z</time>
      </trkpt>
      <trkpt lat="47.86204" lon="5.42558">
        <ele>343.6452</ele>
        <time>2014-08-04T15:23:21Z</time>
      </trkpt>
      <trkpt lat="47.86202" lon="5.42564">
        <ele>345.4495</ele>
        <time>2014-08-04T15:23:22Z</time>
      </trkpt>
      <trkpt lat="47.86199" lon="5.42571">
        <ele>344.2966</ele>
        <time>2014-08-04T15:23:23Z</time>
      </trkpt>
      <trkpt lat="47.86197" lon="5.42578">
        <ele>345.414</ele>
        <time>2014-08-04T15:23:24Z</time>
      </trkpt>
      <trkpt lat="47.86194" lon="5.42585">
        <ele>341.277</ele>
        <time>2014-08-04T15:23:25Z</time>
      </trkpt>
      <trkpt lat="47.8619" lon="5.42591">
        <ele>342.6935</ele>
        <time>2014-08-04T15:23:26Z</time>
      </trkpt>
      <trkpt lat="47.86188" lon="5.42598">
        <ele>346.9979</ele>
        <time>2014-08-04T15:23:27Z</time>
      </trkpt>
      <trkpt lat="47.86186" lon="5.42605">
        <ele>348.1241</ele>
        <time>2014-08-04T15:23:28Z</time>
      </trkpt>
      <trkpt lat="47.86183" lon="5.42612">
        <ele>348.6821</ele>
        <time>2014-08-04T15:23:29Z</time>
      </trkpt>
      <trkpt lat="47.86181" lon="5.42618">
        <ele>347.5301</ele>
        <time>2014-08-04T15:23:30Z</time>
      </trkpt>
      <trkpt lat="47.86177" lon="5.42626">
        <ele>346.1338</ele>
        <time>2014-08-04T15:23:31Z</time>
      </trkpt>
      <trkpt lat="47.86175" lon="5.42633">
        <ele>345.6442</ele>
        <time>2014-08-04T15:23:32Z</time>
      </trkpt>
      <trkpt lat="47.86173" lon="5.42639">
        <ele>345.1405</ele>
        <time>2014-08-04T15:23:33Z</time>
      </trkpt>
      <trkpt lat="47.8617" lon="5.42645">
        <ele>346.508</ele>
        <time>2014-08-04T15:23:34Z</time>
      </trkpt>
      <trkpt lat="47.86168" lon="5.42652">
        <ele>348.2316</ele>
        <time>2014-08-04T15:23:35Z</time>
      </trkpt>
      <trkpt lat="47.86165" lon="5.42658">
        <ele>349.1296</ele>
        <time>2014-08-04T15:23:36Z</time>
      </trkpt>
      <trkpt lat="47.86163" lon="5.42663">
        <ele>349.685</ele>
        <time>2014-08-04T15:23:37Z</time>
      </trkpt>
      <trkpt lat="47.8616" lon="5.4267">
        <ele>347.8367</ele>
        <time>2014-08-04T15:23:38Z</time>
      </trkpt>
      <trkpt lat="47.86157" lon="5.42677">
        <ele>347.2763</ele>
        <time>2014-08-04T15:23:39Z</time>
      </trkpt>
      <trkpt lat="47.86155" lon="5.42684">
        <ele>347.2683</ele>
        <time>2014-08-04T15:23:40Z</time>
      </trkpt>
      <trkpt lat="47.86152" lon="5.4269">
        <ele>347.615</ele>
        <time>2014-08-04T15:23:41Z</time>
      </trkpt>
      <trkpt lat="47.8615" lon="5.42696">
        <ele>347.7628</ele>
        <time>2014-08-04T15:23:42Z</time>
      </trkpt>
      <trkpt lat="47.86146" lon="5.42702">
        <ele>347.5714</ele>
        <time>2014-08-04T15:23:43Z</time>
      </trkpt>
      <trkpt lat="47.86143" lon="5.42707">
        <ele>346.8463</ele>
        <time>2014-08-04T15:23:44Z</time>
      </trkpt>
      <trkpt lat="47.86139" lon="5.42714">
        <ele>348.9725</ele>
        <time>2014-08-04T15:23:45Z</time>
      </trkpt>
      <trkpt lat="47.86136" lon="5.4272">
        <ele>348.4663</ele>
        <time>2014-08-04T15:23:46Z</time>
      </trkpt>
      <trkpt lat="47.8613" lon="5.4273">
        <ele>352.5035</ele>
        <time>2014-08-04T15:23:48Z</time>
      </trkpt>
      <trkpt lat="47.86126" lon="5.42735">
        <ele>351.3547</ele>
        <time>2014-08-04T15:23:49Z</time>
      </trkpt>
      <trkpt lat="47.86123" lon="5.42741">
        <ele>352.1465</ele>
        <time>2014-08-04T15:23:50Z</time>
      </trkpt>
      <trkpt lat="47.86119" lon="5.42746">
        <ele>351.9542</ele>
        <time>2014-08-04T15:23:51Z</time>
      </trkpt>
      <trkpt lat="47.86115" lon="5.42751">
        <ele>351.1113</ele>
        <time>2014-08-04T15:23:52Z</time>
      </trkpt>
      <trkpt lat="47.86111" lon="5.42757">
        <ele>351.4098</ele>
        <time>2014-08-04T15:23:53Z</time>
      </trkpt>
      <trkpt lat="47.86108" lon="5.42763">
        <ele>352.5164</ele>
        <time>2014-08-04T15:23:54Z</time>
      </trkpt>
      <trkpt lat="47.86105" lon="5.42768">
        <ele>350.9108</ele>
        <time>2014-08-04T15:23:55Z</time>
      </trkpt>
      <trkpt lat="47.86102" lon="5.42774">
        <ele>350.1101</ele>
        <time>2014-08-04T15:23:56Z</time>
      </trkpt>
      <trkpt lat="47.86099" lon="5.4278">
        <ele>348.6664</ele>
        <time>2014-08-04T15:23:57Z</time>
      </trkpt>
      <trkpt lat="47.86093" lon="5.42792">
        <ele>347.2112</ele>
        <time>2014-08-04T15:23:59Z</time>
      </trkpt>
      <trkpt lat="47.86091" lon="5.42798">
        <ele>345.9161</ele>
        <time>2014-08-04T15:24:00Z</time>
      </trkpt>
      <trkpt lat="47.86088" lon="5.42803">
        <ele>345.7936</ele>
        <time>2014-08-04T15:24:01Z</time>
      </trkpt>
      <trkpt lat="47.86086" lon="5.4281">
        <ele>345.7655</ele>
        <time>2014-08-04T15:24:02Z</time>
      </trkpt>
      <trkpt lat="47.86083" lon="5.42816">
        <ele>347.9388</ele>
        <time>2014-08-04T15:24:03Z</time>
      </trkpt>
      <trkpt lat="47.86081" lon="5.42823">
        <ele>348.0491</ele>
        <time>2014-08-04T15:24:04Z</time>
      </trkpt>
      <trkpt lat="47.86078" lon="5.4283">
        <ele>349.7804</ele>
        <time>2014-08-04T15:24:05Z</time>
      </trkpt>
      <trkpt lat="47.86076" lon="5.42836">
        <ele>350.8897</ele>
        <time>2014-08-04T15:24:06Z</time>
      </trkpt>
      <trkpt lat="47.86073" lon="5.42843">
        <ele>349.2993</ele>
        <time>2014-08-04T15:24:07Z</time>
      </trkpt>
      <trkpt lat="47.86072" lon="5.4285">
        <ele>348.8678</ele>
        <time>2014-08-04T15:24:08Z</time>
      </trkpt>
      <trkpt lat="47.8607" lon="5.42857">
        <ele>349.5388</ele>
        <time>2014-08-04T15:24:09Z</time>
      </trkpt>
      <trkpt lat="47.86068" lon="5.4287">
        <ele>345.5225</ele>
        <time>2014-08-04T15:24:11Z</time>
      </trkpt>
      <trkpt lat="47.86067" lon="5.42877">
        <ele>346.9109</ele>
        <time>2014-08-04T15:24:12Z</time>
      </trkpt>
      <trkpt lat="47.86065" lon="5.4289">
        <ele>347.0949</ele>
        <time>2014-08-04T15:24:14Z</time>
      </trkpt>
      <trkpt lat="47.86064" lon="5.42898">
        <ele>347.7723</ele>
        <time>2014-08-04T15:24:15Z</time>
      </trkpt>
      <trkpt lat="47.86063" lon="5.42905">
        <ele>349.6149</ele>
        <time>2014-08-04T15:24:16Z</time>
      </trkpt>
      <trkpt lat="47.86062" lon="5.42912">
        <ele>351.0769</ele>
        <time>2014-08-04T15:24:17Z</time>
      </trkpt>
      <trkpt lat="47.86061" lon="5.42919">
        <ele>352.0661</ele>
        <time>2014-08-04T15:24:18Z</time>
      </trkpt>
      <trkpt lat="47.86061" lon="5.42927">
        <ele>352.22</ele>
        <time>2014-08-04T15:24:19Z</time>
      </trkpt>
      <trkpt lat="47.8606" lon="5.42935">
        <ele>350.2654</ele>
        <time>2014-08-04T15:24:20Z</time>
      </trkpt>
      <trkpt lat="47.86059" lon="5.42943">
        <ele>349.6328</ele>
        <time>2014-08-04T15:24:21Z</time>
      </trkpt>
      <trkpt lat="47.86058" lon="5.42952">
        <ele>346.0981</ele>
        <time>2014-08-04T15:24:22Z</time>
      </trkpt>
      <trkpt lat="47.86056" lon="5.4296">
        <ele>344.2292</ele>
        <time>2014-08-04T15:24:23Z</time>
      </trkpt>
      <trkpt lat="47.86054" lon="5.42969">
        <ele>345.1202</ele>
        <time>2014-08-04T15:24:24Z</time>
      </trkpt>
      <trkpt lat="47.86052" lon="5.42976">
        <ele>346.9371</ele>
        <time>2014-08-04T15:24:25Z</time>
      </trkpt>
      <trkpt lat="47.86049" lon="5.42986">
        <ele>349.4664</ele>
        <time>2014-08-04T15:24:27Z</time>
      </trkpt>
      <trkpt lat="47.86044" lon="5.42996">
        <ele>351.6305</ele>
        <time>2014-08-04T15:24:29Z</time>
      </trkpt>
      <trkpt lat="47.86041" lon="5.43005">
        <ele>352.1658</ele>
        <time>2014-08-04T15:24:31Z</time>
      </trkpt>
      <trkpt lat="47.86037" lon="5.43016">
        <ele>351.3203</ele>
        <time>2014-08-04T15:24:33Z</time>
      </trkpt>
      <trkpt lat="47.86036" lon="5.43027">
        <ele>349.9182</ele>
        <time>2014-08-04T15:24:35Z</time>
      </trkpt>
      <trkpt lat="47.86036" lon="5.43039">
        <ele>346.7524</ele>
        <time>2014-08-04T15:24:37Z</time>
      </trkpt>
      <trkpt lat="47.86037" lon="5.43052">
        <ele>349.1004</ele>
        <time>2014-08-04T15:24:39Z</time>
      </trkpt>
      <trkpt lat="47.86037" lon="5.43058">
        <ele>349.1216</ele>
        <time>2014-08-04T15:24:40Z</time>
      </trkpt>
      <trkpt lat="47.86039" lon="5.43071">
        <ele>349.2753</ele>
        <time>2014-08-04T15:24:42Z</time>
      </trkpt>
      <trkpt lat="47.86039" lon="5.43078">
        <ele>350.1097</ele>
        <time>2014-08-04T15:24:43Z</time>
      </trkpt>
      <trkpt lat="47.8604" lon="5.43085">
        <ele>350.2014</ele>
        <time>2014-08-04T15:24:44Z</time>
      </trkpt>
      <trkpt lat="47.86041" lon="5.43092">
        <ele>350.7782</ele>
        <time>2014-08-04T15:24:45Z</time>
      </trkpt>
      <trkpt lat="47.86042" lon="5.43099">
        <ele>349.4026</ele>
        <time>2014-08-04T15:24:46Z</time>
      </trkpt>
      <trkpt lat="47.86043" lon="5.43106">
        <ele>349.97</ele>
        <time>2014-08-04T15:24:47Z</time>
      </trkpt>
      <trkpt lat="47.86045" lon="5.43113">
        <ele>348.197</ele>
        <time>2014-08-04T15:24:48Z</time>
      </trkpt>
      <trkpt lat="47.86046" lon="5.4312">
        <ele>347.0983</ele>
        <time>2014-08-04T15:24:49Z</time>
      </trkpt>
      <trkpt lat="47.86047" lon="5.43127">
        <ele>347.2071</ele>
        <time>2014-08-04T15:24:50Z</time>
      </trkpt>
      <trkpt lat="47.86048" lon="5.43135">
        <ele>347.9439</ele>
        <time>2014-08-04T15:24:51Z</time>
      </trkpt>
      <trkpt lat="47.86049" lon="5.43142">
        <ele>348.6423</ele>
        <time>2014-08-04T15:24:52Z</time>
      </trkpt>
      <trkpt lat="47.8605" lon="5.43149">
        <ele>348.6805</ele>
        <time>2014-08-04T15:24:53Z</time>
      </trkpt>
      <trkpt lat="47.86051" lon="5.43156">
        <ele>348.8018</ele>
        <time>2014-08-04T15:24:54Z</time>
      </trkpt>
      <trkpt lat="47.86052" lon="5.43162">
        <ele>348.3675</ele>
        <time>2014-08-04T15:24:55Z</time>
      </trkpt>
      <trkpt lat="47.86053" lon="5.43169">
        <ele>349.7607</ele>
        <time>2014-08-04T15:24:56Z</time>
      </trkpt>
      <trkpt lat="47.86054" lon="5.43176">
        <ele>349.2999</ele>
        <time>2014-08-04T15:24:57Z</time>
      </trkpt>
      <trkpt lat="47.86055" lon="5.43183">
        <ele>349.061</ele>
        <time>2014-08-04T15:24:58Z</time>
      </trkpt>
      <trkpt lat="47.86056" lon="5.4319">
        <ele>348.875</ele>
        <time>2014-08-04T15:24:59Z</time>
      </trkpt>
      <trkpt lat="47.86057" lon="5.43196">
        <ele>349.0981</ele>
        <time>2014-08-04T15:25:00Z</time>
      </trkpt>
      <trkpt lat="47.86058" lon="5.43203">
        <ele>349.0164</ele>
        <time>2014-08-04T15:25:01Z</time>
      </trkpt>
      <trkpt lat="47.8606" lon="5.4321">
        <ele>349.231</ele>
        <time>2014-08-04T15:25:02Z</time>
      </trkpt>
      <trkpt lat="47.86061" lon="5.43222">
        <ele>349.0464</ele>
        <time>2014-08-04T15:25:04Z</time>
      </trkpt>
      <trkpt lat="47.86063" lon="5.43235">
        <ele>349.954</ele>
        <time>2014-08-04T15:25:06Z</time>
      </trkpt>
      <trkpt lat="47.86065" lon="5.43249">
        <ele>350.5476</ele>
        <time>2014-08-04T15:25:08Z</time>
      </trkpt>
      <trkpt lat="47.86066" lon="5.43256">
        <ele>351.2396</ele>
        <time>2014-08-04T15:25:09Z</time>
      </trkpt>
      <trkpt lat="47.86068" lon="5.43262">
        <ele>351.4156</ele>
        <time>2014-08-04T15:25:10Z</time>
      </trkpt>
      <trkpt lat="47.86068" lon="5.43269">
        <ele>350.4194</ele>
        <time>2014-08-04T15:25:11Z</time>
      </trkpt>
      <trkpt lat="47.8607" lon="5.43276">
        <ele>350.1088</ele>
        <time>2014-08-04T15:25:12Z</time>
      </trkpt>
      <trkpt lat="47.86071" lon="5.43283">
        <ele>350.5904</ele>
        <time>2014-08-04T15:25:13Z</time>
      </trkpt>
      <trkpt lat="47.86072" lon="5.4329">
        <ele>350.192</ele>
        <time>2014-08-04T15:25:14Z</time>
      </trkpt>
      <trkpt lat="47.86073" lon="5.43297">
        <ele>351.4927</ele>
        <time>2014-08-04T15:25:15Z</time>
      </trkpt>
      <trkpt lat="47.86074" lon="5.43304">
        <ele>351.8982</ele>
        <time>2014-08-04T15:25:16Z</time>
      </trkpt>
      <trkpt lat="47.86075" lon="5.43311">
        <ele>352.5994</ele>
        <time>2014-08-04T15:25:17Z</time>
      </trkpt>
      <trkpt lat="47.86076" lon="5.43317">
        <ele>352.4368</ele>
        <time>2014-08-04T15:25:18Z</time>
      </trkpt>
      <trkpt lat="47.86077" lon="5.43324">
        <ele>352.2819</ele>
        <time>2014-08-04T15:25:19Z</time>
      </trkpt>
      <trkpt lat="47.86078" lon="5.43331">
        <ele>351.9351</ele>
        <time>2014-08-04T15:25:20Z</time>
      </trkpt>
      <trkpt lat="47.86079" lon="5.43338">
        <ele>352.4204</ele>
        <time>2014-08-04T15:25:21Z</time>
      </trkpt>
      <trkpt lat="47.8608" lon="5.43345">
        <ele>352.5313</ele>
        <time>2014-08-04T15:25:22Z</time>
      </trkpt>
      <trkpt lat="47.86081" lon="5.43352">
        <ele>352.0238</ele>
        <time>2014-08-04T15:25:23Z</time>
      </trkpt>
      <trkpt lat="47.86083" lon="5.43359">
        <ele>352.0018</ele>
        <time>2014-08-04T15:25:24Z</time>
      </trkpt>
      <trkpt lat="47.86084" lon="5.43367">
        <ele>351.9274</ele>
        <time>2014-08-04T15:25:25Z</time>
      </trkpt>
      <trkpt lat="47.86085" lon="5.43374">
        <ele>351.8466</ele>
        <time>2014-08-04T15:25:26Z</time>
      </trkpt>
      <trkpt lat="47.86086" lon="5.43382">
        <ele>350.9938</ele>
        <time>2014-08-04T15:25:27Z</time>
      </trkpt>
      <trkpt lat="47.86087" lon="5.4339">
        <ele>350.0381</ele>
        <time>2014-08-04T15:25:28Z</time>
      </trkpt>
      <trkpt lat="47.86089" lon="5.43397">
        <ele>349.1567</ele>
        <time>2014-08-04T15:25:29Z</time>
      </trkpt>
      <trkpt lat="47.86089" lon="5.43404">
        <ele>349.8784</ele>
        <time>2014-08-04T15:25:30Z</time>
      </trkpt>
      <trkpt lat="47.86089" lon="5.43417">
        <ele>351.8458</ele>
        <time>2014-08-04T15:25:32Z</time>
      </trkpt>
      <trkpt lat="47.86089" lon="5.43425">
        <ele>351.8535</ele>
        <time>2014-08-04T15:25:33Z</time>
      </trkpt>
      <trkpt lat="47.86089" lon="5.43432">
        <ele>351.7476</ele>
        <time>2014-08-04T15:25:34Z</time>
      </trkpt>
      <trkpt lat="47.86089" lon="5.43439">
        <ele>351.4376</ele>
        <time>2014-08-04T15:25:35Z</time>
      </trkpt>
      <trkpt lat="47.86089" lon="5.43452">
        <ele>351.0721</ele>
        <time>2014-08-04T15:25:37Z</time>
      </trkpt>
      <trkpt lat="47.8609" lon="5.4346">
        <ele>349.4167</ele>
        <time>2014-08-04T15:25:38Z</time>
      </trkpt>
      <trkpt lat="47.8609" lon="5.43473">
        <ele>349.1649</ele>
        <time>2014-08-04T15:25:40Z</time>
      </trkpt>
      <trkpt lat="47.86091" lon="5.43487">
        <ele>348.3292</ele>
        <time>2014-08-04T15:25:42Z</time>
      </trkpt>
      <trkpt lat="47.86091" lon="5.435">
        <ele>351.4678</ele>
        <time>2014-08-04T15:25:44Z</time>
      </trkpt>
      <trkpt lat="47.86091" lon="5.43513">
        <ele>352.6322</ele>
        <time>2014-08-04T15:25:46Z</time>
      </trkpt>
      <trkpt lat="47.86091" lon="5.43521">
        <ele>351.7652</ele>
        <time>2014-08-04T15:25:47Z</time>
      </trkpt>
      <trkpt lat="47.86091" lon="5.43535">
        <ele>352.39</ele>
        <time>2014-08-04T15:25:49Z</time>
      </trkpt>
      <trkpt lat="47.86091" lon="5.43548">
        <ele>352.8</ele>
        <time>2014-08-04T15:25:51Z</time>
      </trkpt>
      <trkpt lat="47.86092" lon="5.43561">
        <ele>354.2578</ele>
        <time>2014-08-04T15:25:53Z</time>
      </trkpt>
      <trkpt lat="47.86092" lon="5.43573">
        <ele>355.002</ele>
        <time>2014-08-04T15:25:55Z</time>
      </trkpt>
      <trkpt lat="47.86092" lon="5.43581">
        <ele>354.4085</ele>
        <time>2014-08-04T15:25:56Z</time>
      </trkpt>
      <trkpt lat="47.86092" lon="5.43588">
        <ele>352.9431</ele>
        <time>2014-08-04T15:25:57Z</time>
      </trkpt>
      <trkpt lat="47.86092" lon="5.43599">
        <ele>356.7068</ele>
        <time>2014-08-04T15:25:59Z</time>
      </trkpt>
      <trkpt lat="47.86092" lon="5.43611">
        <ele>358.1149</ele>
        <time>2014-08-04T15:26:01Z</time>
      </trkpt>
      <trkpt lat="47.86093" lon="5.43623">
        <ele>356.4381</ele>
        <time>2014-08-04T15:26:03Z</time>
      </trkpt>
      <trkpt lat="47.86094" lon="5.43635">
        <ele>358.5929</ele>
        <time>2014-08-04T15:26:05Z</time>
      </trkpt>
      <trkpt lat="47.86094" lon="5.43647">
        <ele>355.4999</ele>
        <time>2014-08-04T15:26:07Z</time>
      </trkpt>
      <trkpt lat="47.86095" lon="5.43659">
        <ele>353.8361</ele>
        <time>2014-08-04T15:26:09Z</time>
      </trkpt>
      <trkpt lat="47.86097" lon="5.43671">
        <ele>354.5096</ele>
        <time>2014-08-04T15:26:11Z</time>
      </trkpt>
      <trkpt lat="47.86097" lon="5.43683">
        <ele>355.5927</ele>
        <time>2014-08-04T15:26:13Z</time>
      </trkpt>
      <trkpt lat="47.86098" lon="5.43694">
        <ele>356.5087</ele>
        <time>2014-08-04T15:26:15Z</time>
      </trkpt>
      <trkpt lat="47.86099" lon="5.43705">
        <ele>358.0219</ele>
        <time>2014-08-04T15:26:17Z</time>
      </trkpt>
      <trkpt lat="47.86099" lon="5.43717">
        <ele>357.0708</ele>
        <time>2014-08-04T15:26:19Z</time>
      </trkpt>
      <trkpt lat="47.861" lon="5.43729">
        <ele>357.4566</ele>
        <time>2014-08-04T15:26:21Z</time>
      </trkpt>
      <trkpt lat="47.86102" lon="5.43741">
        <ele>358.4211</ele>
        <time>2014-08-04T15:26:23Z</time>
      </trkpt>
      <trkpt lat="47.86102" lon="5.43753">
        <ele>358.6227</ele>
        <time>2014-08-04T15:26:25Z</time>
      </trkpt>
      <trkpt lat="47.86103" lon="5.43765">
        <ele>359.2507</ele>
        <time>2014-08-04T15:26:27Z</time>
      </trkpt>
      <trkpt lat="47.86103" lon="5.43776">
        <ele>359.6786</ele>
        <time>2014-08-04T15:26:29Z</time>
      </trkpt>
      <trkpt lat="47.86104" lon="5.43787">
        <ele>357.9293</ele>
        <time>2014-08-04T15:26:31Z</time>
      </trkpt>
      <trkpt lat="47.86106" lon="5.43799">
        <ele>357.941</ele>
        <time>2014-08-04T15:26:33Z</time>
      </trkpt>
      <trkpt lat="47.86108" lon="5.4381">
        <ele>358.8452</ele>
        <time>2014-08-04T15:26:35Z</time>
      </trkpt>
      <trkpt lat="47.86111" lon="5.43821">
        <ele>359.1429</ele>
        <time>2014-08-04T15:26:37Z</time>
      </trkpt>
      <trkpt lat="47.86113" lon="5.43831">
        <ele>360.5529</ele>
        <time>2014-08-04T15:26:39Z</time>
      </trkpt>
      <trkpt lat="47.86116" lon="5.43841">
        <ele>361.3828</ele>
        <time>2014-08-04T15:26:41Z</time>
      </trkpt>
      <trkpt lat="47.86119" lon="5.4385">
        <ele>363.5823</ele>
        <time>2014-08-04T15:26:43Z</time>
      </trkpt>
      <trkpt lat="47.86123" lon="5.43858">
        <ele>366.1897</ele>
        <time>2014-08-04T15:26:45Z</time>
      </trkpt>
      <trkpt lat="47.86127" lon="5.43865">
        <ele>366.5918</ele>
        <time>2014-08-04T15:26:47Z</time>
      </trkpt>
      <trkpt lat="47.86131" lon="5.4387">
        <ele>365.6696</ele>
        <time>2014-08-04T15:26:49Z</time>
      </trkpt>
      <trkpt lat="47.86136" lon="5.43876">
        <ele>365.1765</ele>
        <time>2014-08-04T15:26:51Z</time>
      </trkpt>
      <trkpt lat="47.8614" lon="5.43883">
        <ele>361.6657</ele>
        <time>2014-08-04T15:26:53Z</time>
      </trkpt>
      <trkpt lat="47.86145" lon="5.43888">
        <ele>360.6891</ele>
        <time>2014-08-04T15:26:55Z</time>
      </trkpt>
      <trkpt lat="47.8615" lon="5.43893">
        <ele>364.0155</ele>
        <time>2014-08-04T15:26:57Z</time>
      </trkpt>
      <trkpt lat="47.86156" lon="5.43897">
        <ele>363.1415</ele>
        <time>2014-08-04T15:26:59Z</time>
      </trkpt>
      <trkpt lat="47.86162" lon="5.43902">
        <ele>362.8284</ele>
        <time>2014-08-04T15:27:01Z</time>
      </trkpt>
      <trkpt lat="47.86168" lon="5.43907">
        <ele>359.5202</ele>
        <time>2014-08-04T15:27:03Z</time>
      </trkpt>
      <trkpt lat="47.86174" lon="5.43912">
        <ele>361.1468</ele>
        <time>2014-08-04T15:27:05Z</time>
      </trkpt>
      <trkpt lat="47.86178" lon="5.43915">
        <ele>364.1131</ele>
        <time>2014-08-04T15:27:07Z</time>
      </trkpt>
      <trkpt lat="47.86183" lon="5.43919">
        <ele>362.8755</ele>
        <time>2014-08-04T15:27:09Z</time>
      </trkpt>
      <trkpt lat="47.86189" lon="5.43923">
        <ele>362.3147</ele>
        <time>2014-08-04T15:27:11Z</time>
      </trkpt>
      <trkpt lat="47.86194" lon="5.43927">
        <ele>363.1069</ele>
        <time>2014-08-04T15:27:13Z</time>
      </trkpt>
      <trkpt lat="47.86199" lon="5.4393">
        <ele>364.9493</ele>
        <time>2014-08-04T15:27:15Z</time>
      </trkpt>
      <trkpt lat="47.86204" lon="5.43933">
        <ele>368.1996</ele>
        <time>2014-08-04T15:27:17Z</time>
      </trkpt>
      <trkpt lat="47.86209" lon="5.43936">
        <ele>368.1711</ele>
        <time>2014-08-04T15:27:19Z</time>
      </trkpt>
      <trkpt lat="47.86214" lon="5.4394">
        <ele>365.8794</ele>
        <time>2014-08-04T15:27:21Z</time>
      </trkpt>
      <trkpt lat="47.86219" lon="5.43945">
        <ele>362.9174</ele>
        <time>2014-08-04T15:27:23Z</time>
      </trkpt>
      <trkpt lat="47.86224" lon="5.43948">
        <ele>365.6047</ele>
        <time>2014-08-04T15:27:25Z</time>
      </trkpt>
      <trkpt lat="47.86228" lon="5.43951">
        <ele>369.6028</ele>
        <time>2014-08-04T15:27:27Z</time>
      </trkpt>
      <trkpt lat="47.86233" lon="5.43956">
        <ele>373.6281</ele>
        <time>2014-08-04T15:27:29Z</time>
      </trkpt>
      <trkpt lat="47.86239" lon="5.43961">
        <ele>372.1322</ele>
        <time>2014-08-04T15:27:31Z</time>
      </trkpt>
      <trkpt lat="47.86244" lon="5.43967">
        <ele>373.658</ele>
        <time>2014-08-04T15:27:33Z</time>
      </trkpt>
      <trkpt lat="47.86249" lon="5.43973">
        <ele>373.9077</ele>
        <time>2014-08-04T15:27:35Z</time>
      </trkpt>
      <trkpt lat="47.86254" lon="5.43977">
        <ele>372.8457</ele>
        <time>2014-08-04T15:27:37Z</time>
      </trkpt>
      <trkpt lat="47.86259" lon="5.4398">
        <ele>372.7005</ele>
        <time>2014-08-04T15:27:39Z</time>
      </trkpt>
      <trkpt lat="47.86263" lon="5.43986">
        <ele>373.0235</ele>
        <time>2014-08-04T15:27:41Z</time>
      </trkpt>
      <trkpt lat="47.86268" lon="5.43992">
        <ele>372.7315</ele>
        <time>2014-08-04T15:27:43Z</time>
      </trkpt>
      <trkpt lat="47.86272" lon="5.44002">
        <ele>370.7932</ele>
        <time>2014-08-04T15:27:45Z</time>
      </trkpt>
      <trkpt lat="47.86274" lon="5.44016">
        <ele>369.5144</ele>
        <time>2014-08-04T15:27:47Z</time>
      </trkpt>
      <trkpt lat="47.86276" lon="5.44023">
        <ele>369.2021</ele>
        <time>2014-08-04T15:27:48Z</time>
      </trkpt>
      <trkpt lat="47.86277" lon="5.44032">
        <ele>372.2213</ele>
        <time>2014-08-04T15:27:49Z</time>
      </trkpt>
      <trkpt lat="47.86278" lon="5.4404">
        <ele>372.7639</ele>
        <time>2014-08-04T15:27:50Z</time>
      </trkpt>
      <trkpt lat="47.86279" lon="5.44049">
        <ele>371.9558</ele>
        <time>2014-08-04T15:27:51Z</time>
      </trkpt>
      <trkpt lat="47.8628" lon="5.44059">
        <ele>370.9963</ele>
        <time>2014-08-04T15:27:52Z</time>
      </trkpt>
      <trkpt lat="47.86282" lon="5.44068">
        <ele>369.2789</ele>
        <time>2014-08-04T15:27:53Z</time>
      </trkpt>
      <trkpt lat="47.86284" lon="5.44079">
        <ele>369.2874</ele>
        <time>2014-08-04T15:27:54Z</time>
      </trkpt>
      <trkpt lat="47.86285" lon="5.44089">
        <ele>369.2277</ele>
        <time>2014-08-04T15:27:55Z</time>
      </trkpt>
      <trkpt lat="47.86287" lon="5.441">
        <ele>366.973</ele>
        <time>2014-08-04T15:27:56Z</time>
      </trkpt>
      <trkpt lat="47.86289" lon="5.44112">
        <ele>362.4423</ele>
        <time>2014-08-04T15:27:57Z</time>
      </trkpt>
      <trkpt lat="47.8629" lon="5.44124">
        <ele>362.191</ele>
        <time>2014-08-04T15:27:58Z</time>
      </trkpt>
      <trkpt lat="47.8629" lon="5.44136">
        <ele>361.1962</ele>
        <time>2014-08-04T15:27:59Z</time>
      </trkpt>
      <trkpt lat="47.86289" lon="5.44147">
        <ele>362.4525</ele>
        <time>2014-08-04T15:28:00Z</time>
      </trkpt>
      <trkpt lat="47.86286" lon="5.44159">
        <ele>360.1827</ele>
        <time>2014-08-04T15:28:01Z</time>
      </trkpt>
      <trkpt lat="47.86283" lon="5.44169">
        <ele>360.0961</ele>
        <time>2014-08-04T15:28:02Z</time>
      </trkpt>
      <trkpt lat="47.86279" lon="5.44179">
        <ele>360.4971</ele>
        <time>2014-08-04T15:28:03Z</time>
      </trkpt>
      <trkpt lat="47.86276" lon="5.44189">
        <ele>361.8264</ele>
        <time>2014-08-04T15:28:04Z</time>
      </trkpt>
      <trkpt lat="47.86271" lon="5.44198">
        <ele>361.6764</ele>
        <time>2014-08-04T15:28:05Z</time>
      </trkpt>
      <trkpt lat="47.86267" lon="5.44207">
        <ele>364.1151</ele>
        <time>2014-08-04T15:28:06Z</time>
      </trkpt>
      <trkpt lat="47.86262" lon="5.44216">
        <ele>366.4163</ele>
        <time>2014-08-04T15:28:07Z</time>
      </trkpt>
      <trkpt lat="47.86258" lon="5.44224">
        <ele>366.9286</ele>
        <time>2014-08-04T15:28:08Z</time>
      </trkpt>
      <trkpt lat="47.86253" lon="5.44232">
        <ele>367.2968</ele>
        <time>2014-08-04T15:28:09Z</time>
      </trkpt>
      <trkpt lat="47.86249" lon="5.44239">
        <ele>365.4126</ele>
        <time>2014-08-04T15:28:10Z</time>
      </trkpt>
      <trkpt lat="47.86245" lon="5.44247">
        <ele>368.4032</ele>
        <time>2014-08-04T15:28:11Z</time>
      </trkpt>
      <trkpt lat="47.86241" lon="5.44254">
        <ele>369.9537</ele>
        <time>2014-08-04T15:28:12Z</time>
      </trkpt>
      <trkpt lat="47.86237" lon="5.44262">
        <ele>368.4354</ele>
        <time>2014-08-04T15:28:13Z</time>
      </trkpt>
      <trkpt lat="47.86233" lon="5.44268">
        <ele>369.1202</ele>
        <time>2014-08-04T15:28:14Z</time>
      </trkpt>
      <trkpt lat="47.86227" lon="5.44279">
        <ele>365.8056</ele>
        <time>2014-08-04T15:28:16Z</time>
      </trkpt>
      <trkpt lat="47.86224" lon="5.44284">
        <ele>367.9474</ele>
        <time>2014-08-04T15:28:17Z</time>
      </trkpt>
      <trkpt lat="47.86222" lon="5.44291">
        <ele>367.0604</ele>
        <time>2014-08-04T15:28:18Z</time>
      </trkpt>
      <trkpt lat="47.86219" lon="5.44298">
        <ele>363.1511</ele>
        <time>2014-08-04T15:28:19Z</time>
      </trkpt>
      <trkpt lat="47.86217" lon="5.44305">
        <ele>364.1989</ele>
        <time>2014-08-04T15:28:20Z</time>
      </trkpt>
      <trkpt lat="47.86214" lon="5.44312">
        <ele>365.0412</ele>
        <time>2014-08-04T15:28:21Z</time>
      </trkpt>
      <trkpt lat="47.86212" lon="5.44323">
        <ele>365.4328</ele>
        <time>2014-08-04T15:28:23Z</time>
      </trkpt>
      <trkpt lat="47.86211" lon="5.4433">
        <ele>361.7577</ele>
        <time>2014-08-04T15:28:24Z</time>
      </trkpt>
      <trkpt lat="47.8621" lon="5.44336">
        <ele>363.003</ele>
        <time>2014-08-04T15:28:25Z</time>
      </trkpt>
      <trkpt lat="47.86207" lon="5.44349">
        <ele>361.295</ele>
        <time>2014-08-04T15:28:27Z</time>
      </trkpt>
      <trkpt lat="47.86206" lon="5.44357">
        <ele>361.4469</ele>
        <time>2014-08-04T15:28:29Z</time>
      </trkpt>
      <trkpt lat="47.86205" lon="5.44352">
        <ele>369.128</ele>
        <time>2014-08-04T15:32:28Z</time>
      </trkpt>
      <trkpt lat="47.86209" lon="5.44346">
        <ele>362.4095</ele>
        <time>2014-08-04T15:32:47Z</time>
      </trkpt>
      <trkpt lat="47.86211" lon="5.44339">
        <ele>364.7498</ele>
        <time>2014-08-04T15:32:49Z</time>
      </trkpt>
      <trkpt lat="47.86213" lon="5.4433">
        <ele>367.6742</ele>
        <time>2014-08-04T15:32:51Z</time>
      </trkpt>
      <trkpt lat="47.86216" lon="5.44322">
        <ele>367.782</ele>
        <time>2014-08-04T15:32:53Z</time>
      </trkpt>
      <trkpt lat="47.86219" lon="5.44312">
        <ele>368.1308</ele>
        <time>2014-08-04T15:32:55Z</time>
      </trkpt>
      <trkpt lat="47.86222" lon="5.44301">
        <ele>368.1498</ele>
        <time>2014-08-04T15:32:57Z</time>
      </trkpt>
      <trkpt lat="47.86226" lon="5.44292">
        <ele>367.4002</ele>
        <time>2014-08-04T15:32:59Z</time>
      </trkpt>
      <trkpt lat="47.86231" lon="5.44281">
        <ele>367.5848</ele>
        <time>2014-08-04T15:33:01Z</time>
      </trkpt>
      <trkpt lat="47.86235" lon="5.44271">
        <ele>364.6796</ele>
        <time>2014-08-04T15:33:03Z</time>
      </trkpt>
      <trkpt lat="47.86239" lon="5.44261">
        <ele>367.3042</ele>
        <time>2014-08-04T15:33:05Z</time>
      </trkpt>
      <trkpt lat="47.86244" lon="5.4425">
        <ele>368.272</ele>
        <time>2014-08-04T15:33:07Z</time>
      </trkpt>
      <trkpt lat="47.86247" lon="5.44245">
        <ele>370.0046</ele>
        <time>2014-08-04T15:33:08Z</time>
      </trkpt>
      <trkpt lat="47.86251" lon="5.44237">
        <ele>370.2598</ele>
        <time>2014-08-04T15:33:10Z</time>
      </trkpt>
      <trkpt lat="47.86256" lon="5.44226">
        <ele>368.7766</ele>
        <time>2014-08-04T15:33:12Z</time>
      </trkpt>
      <trkpt lat="47.86261" lon="5.44217">
        <ele>366.9091</ele>
        <time>2014-08-04T15:33:14Z</time>
      </trkpt>
      <trkpt lat="47.86266" lon="5.44206">
        <ele>364.8882</ele>
        <time>2014-08-04T15:33:16Z</time>
      </trkpt>
      <trkpt lat="47.86268" lon="5.442">
        <ele>364.4111</ele>
        <time>2014-08-04T15:33:17Z</time>
      </trkpt>
      <trkpt lat="47.86272" lon="5.44191">
        <ele>367.1493</ele>
        <time>2014-08-04T15:33:19Z</time>
      </trkpt>
      <trkpt lat="47.86278" lon="5.44181">
        <ele>368.2804</ele>
        <time>2014-08-04T15:33:21Z</time>
      </trkpt>
      <trkpt lat="47.86281" lon="5.44175">
        <ele>370.0216</ele>
        <time>2014-08-04T15:33:22Z</time>
      </trkpt>
      <trkpt lat="47.86286" lon="5.44166">
        <ele>370.1813</ele>
        <time>2014-08-04T15:33:24Z</time>
      </trkpt>
      <trkpt lat="47.8629" lon="5.44156">
        <ele>369.9252</ele>
        <time>2014-08-04T15:33:26Z</time>
      </trkpt>
      <trkpt lat="47.86293" lon="5.44145">
        <ele>368.6732</ele>
        <time>2014-08-04T15:33:28Z</time>
      </trkpt>
      <trkpt lat="47.86295" lon="5.44133">
        <ele>368.6772</ele>
        <time>2014-08-04T15:33:30Z</time>
      </trkpt>
      <trkpt lat="47.86297" lon="5.44121">
        <ele>368.9485</ele>
        <time>2014-08-04T15:33:32Z</time>
      </trkpt>
      <trkpt lat="47.86296" lon="5.4411">
        <ele>367.9112</ele>
        <time>2014-08-04T15:33:34Z</time>
      </trkpt>
      <trkpt lat="47.86295" lon="5.44103">
        <ele>367.6366</ele>
        <time>2014-08-04T15:33:35Z</time>
      </trkpt>
      <trkpt lat="47.86292" lon="5.44091">
        <ele>369.8239</ele>
        <time>2014-08-04T15:33:37Z</time>
      </trkpt>
      <trkpt lat="47.8629" lon="5.44081">
        <ele>369.4661</ele>
        <time>2014-08-04T15:33:39Z</time>
      </trkpt>
      <trkpt lat="47.86288" lon="5.44071">
        <ele>369.1279</ele>
        <time>2014-08-04T15:33:41Z</time>
      </trkpt>
      <trkpt lat="47.86287" lon="5.44062">
        <ele>369.5834</ele>
        <time>2014-08-04T15:33:43Z</time>
      </trkpt>
      <trkpt lat="47.86285" lon="5.44053">
        <ele>369.6778</ele>
        <time>2014-08-04T15:33:45Z</time>
      </trkpt>
      <trkpt lat="47.86284" lon="5.44046">
        <ele>370.9241</ele>
        <time>2014-08-04T15:33:47Z</time>
      </trkpt>
      <trkpt lat="47.86282" lon="5.44039">
        <ele>370.9997</ele>
        <time>2014-08-04T15:33:49Z</time>
      </trkpt>
      <trkpt lat="47.86281" lon="5.4403">
        <ele>369.5202</ele>
        <time>2014-08-04T15:33:51Z</time>
      </trkpt>
      <trkpt lat="47.8628" lon="5.44022">
        <ele>370.8607</ele>
        <time>2014-08-04T15:33:53Z</time>
      </trkpt>
      <trkpt lat="47.8628" lon="5.44013">
        <ele>372.5925</ele>
        <time>2014-08-04T15:33:55Z</time>
      </trkpt>
      <trkpt lat="47.86279" lon="5.44005">
        <ele>373.6043</ele>
        <time>2014-08-04T15:33:57Z</time>
      </trkpt>
      <trkpt lat="47.86277" lon="5.43997">
        <ele>373.8835</ele>
        <time>2014-08-04T15:33:59Z</time>
      </trkpt>
      <trkpt lat="47.86273" lon="5.4399">
        <ele>373.1098</ele>
        <time>2014-08-04T15:34:01Z</time>
      </trkpt>
      <trkpt lat="47.86268" lon="5.43984">
        <ele>373.4289</ele>
        <time>2014-08-04T15:34:03Z</time>
      </trkpt>
      <trkpt lat="47.86263" lon="5.43977">
        <ele>373.459</ele>
        <time>2014-08-04T15:34:05Z</time>
      </trkpt>
      <trkpt lat="47.86256" lon="5.4397">
        <ele>373.0055</ele>
        <time>2014-08-04T15:34:07Z</time>
      </trkpt>
      <trkpt lat="47.86249" lon="5.43962">
        <ele>372.6849</ele>
        <time>2014-08-04T15:34:09Z</time>
      </trkpt>
      <trkpt lat="47.86245" lon="5.43959">
        <ele>372.4528</ele>
        <time>2014-08-04T15:34:10Z</time>
      </trkpt>
      <trkpt lat="47.86241" lon="5.43956">
        <ele>372.1805</ele>
        <time>2014-08-04T15:34:11Z</time>
      </trkpt>
      <trkpt lat="47.86237" lon="5.43952">
        <ele>372.0571</ele>
        <time>2014-08-04T15:34:12Z</time>
      </trkpt>
      <trkpt lat="47.86232" lon="5.43949">
        <ele>372.0047</ele>
        <time>2014-08-04T15:34:13Z</time>
      </trkpt>
      <trkpt lat="47.86228" lon="5.43945">
        <ele>371.8908</ele>
        <time>2014-08-04T15:34:14Z</time>
      </trkpt>
      <trkpt lat="47.86224" lon="5.43941">
        <ele>371.5659</ele>
        <time>2014-08-04T15:34:15Z</time>
      </trkpt>
      <trkpt lat="47.86219" lon="5.43937">
        <ele>371.1706</ele>
        <time>2014-08-04T15:34:16Z</time>
      </trkpt>
      <trkpt lat="47.86214" lon="5.43934">
        <ele>370.7194</ele>
        <time>2014-08-04T15:34:17Z</time>
      </trkpt>
      <trkpt lat="47.86209" lon="5.4393">
        <ele>370.382</ele>
        <time>2014-08-04T15:34:18Z</time>
      </trkpt>
      <trkpt lat="47.86204" lon="5.43926">
        <ele>369.808</ele>
        <time>2014-08-04T15:34:19Z</time>
      </trkpt>
      <trkpt lat="47.86198" lon="5.43921">
        <ele>369.3674</ele>
        <time>2014-08-04T15:34:20Z</time>
      </trkpt>
      <trkpt lat="47.86191" lon="5.43916">
        <ele>369.0242</ele>
        <time>2014-08-04T15:34:21Z</time>
      </trkpt>
      <trkpt lat="47.86185" lon="5.4391">
        <ele>367.9334</ele>
        <time>2014-08-04T15:34:22Z</time>
      </trkpt>
      <trkpt lat="47.86178" lon="5.43905">
        <ele>368.1073</ele>
        <time>2014-08-04T15:34:23Z</time>
      </trkpt>
      <trkpt lat="47.86172" lon="5.43899">
        <ele>366.0197</ele>
        <time>2014-08-04T15:34:24Z</time>
      </trkpt>
      <trkpt lat="47.86165" lon="5.43894">
        <ele>365.6849</ele>
        <time>2014-08-04T15:34:25Z</time>
      </trkpt>
      <trkpt lat="47.86157" lon="5.43889">
        <ele>365.9641</ele>
        <time>2014-08-04T15:34:26Z</time>
      </trkpt>
      <trkpt lat="47.8615" lon="5.43883">
        <ele>365.2928</ele>
        <time>2014-08-04T15:34:27Z</time>
      </trkpt>
      <trkpt lat="47.86142" lon="5.43875">
        <ele>364.7475</ele>
        <time>2014-08-04T15:34:28Z</time>
      </trkpt>
      <trkpt lat="47.86135" lon="5.43867">
        <ele>363.9612</ele>
        <time>2014-08-04T15:34:29Z</time>
      </trkpt>
      <trkpt lat="47.8613" lon="5.43856">
        <ele>363.0924</ele>
        <time>2014-08-04T15:34:30Z</time>
      </trkpt>
      <trkpt lat="47.86124" lon="5.43845">
        <ele>364.1481</ele>
        <time>2014-08-04T15:34:31Z</time>
      </trkpt>
      <trkpt lat="47.8612" lon="5.43834">
        <ele>363.8552</ele>
        <time>2014-08-04T15:34:32Z</time>
      </trkpt>
      <trkpt lat="47.86117" lon="5.43821">
        <ele>359.6139</ele>
        <time>2014-08-04T15:34:33Z</time>
      </trkpt>
      <trkpt lat="47.86115" lon="5.43809">
        <ele>359.4777</ele>
        <time>2014-08-04T15:34:34Z</time>
      </trkpt>
      <trkpt lat="47.86112" lon="5.43795">
        <ele>358.5977</ele>
        <time>2014-08-04T15:34:35Z</time>
      </trkpt>
      <trkpt lat="47.8611" lon="5.4378">
        <ele>359.4498</ele>
        <time>2014-08-04T15:34:36Z</time>
      </trkpt>
      <trkpt lat="47.86108" lon="5.43766">
        <ele>361.5871</ele>
        <time>2014-08-04T15:34:37Z</time>
      </trkpt>
      <trkpt lat="47.86107" lon="5.43753">
        <ele>360.972</ele>
        <time>2014-08-04T15:34:38Z</time>
      </trkpt>
      <trkpt lat="47.86106" lon="5.43741">
        <ele>359.922</ele>
        <time>2014-08-04T15:34:39Z</time>
      </trkpt>
      <trkpt lat="47.86105" lon="5.43729">
        <ele>359.5652</ele>
        <time>2014-08-04T15:34:40Z</time>
      </trkpt>
      <trkpt lat="47.86104" lon="5.43718">
        <ele>358.4858</ele>
        <time>2014-08-04T15:34:41Z</time>
      </trkpt>
      <trkpt lat="47.86103" lon="5.43706">
        <ele>356.6527</ele>
        <time>2014-08-04T15:34:42Z</time>
      </trkpt>
      <trkpt lat="47.86103" lon="5.43694">
        <ele>356.0284</ele>
        <time>2014-08-04T15:34:43Z</time>
      </trkpt>
      <trkpt lat="47.86102" lon="5.43683">
        <ele>356.1634</ele>
        <time>2014-08-04T15:34:44Z</time>
      </trkpt>
      <trkpt lat="47.86102" lon="5.43671">
        <ele>356.7909</ele>
        <time>2014-08-04T15:34:45Z</time>
      </trkpt>
      <trkpt lat="47.86101" lon="5.43658">
        <ele>356.7777</ele>
        <time>2014-08-04T15:34:46Z</time>
      </trkpt>
      <trkpt lat="47.861" lon="5.43647">
        <ele>354.8456</ele>
        <time>2014-08-04T15:34:47Z</time>
      </trkpt>
      <trkpt lat="47.861" lon="5.43636">
        <ele>355.7578</ele>
        <time>2014-08-04T15:34:48Z</time>
      </trkpt>
      <trkpt lat="47.86099" lon="5.43625">
        <ele>354.9195</ele>
        <time>2014-08-04T15:34:49Z</time>
      </trkpt>
      <trkpt lat="47.86098" lon="5.43614">
        <ele>354.9648</ele>
        <time>2014-08-04T15:34:50Z</time>
      </trkpt>
      <trkpt lat="47.86097" lon="5.43604">
        <ele>353.7465</ele>
        <time>2014-08-04T15:34:51Z</time>
      </trkpt>
      <trkpt lat="47.86095" lon="5.43594">
        <ele>349.829</ele>
        <time>2014-08-04T15:34:52Z</time>
      </trkpt>
      <trkpt lat="47.86095" lon="5.43582">
        <ele>349.1147</ele>
        <time>2014-08-04T15:34:53Z</time>
      </trkpt>
      <trkpt lat="47.86094" lon="5.43572">
        <ele>349.1147</ele>
        <time>2014-08-04T15:34:54Z</time>
      </trkpt>
      <trkpt lat="47.86094" lon="5.43561">
        <ele>350.0132</ele>
        <time>2014-08-04T15:34:55Z</time>
      </trkpt>
      <trkpt lat="47.86094" lon="5.4355">
        <ele>352.2907</ele>
        <time>2014-08-04T15:34:56Z</time>
      </trkpt>
      <trkpt lat="47.86094" lon="5.4354">
        <ele>353.2718</ele>
        <time>2014-08-04T15:34:57Z</time>
      </trkpt>
      <trkpt lat="47.86094" lon="5.4353">
        <ele>352.7664</ele>
        <time>2014-08-04T15:34:58Z</time>
      </trkpt>
      <trkpt lat="47.86094" lon="5.43519">
        <ele>352.8515</ele>
        <time>2014-08-04T15:34:59Z</time>
      </trkpt>
      <trkpt lat="47.86095" lon="5.43508">
        <ele>352.194</ele>
        <time>2014-08-04T15:35:00Z</time>
      </trkpt>
      <trkpt lat="47.86095" lon="5.43497">
        <ele>352.4693</ele>
        <time>2014-08-04T15:35:01Z</time>
      </trkpt>
      <trkpt lat="47.86095" lon="5.43486">
        <ele>351.9454</ele>
        <time>2014-08-04T15:35:02Z</time>
      </trkpt>
      <trkpt lat="47.86094" lon="5.43477">
        <ele>356.5447</ele>
        <time>2014-08-04T15:35:03Z</time>
      </trkpt>
      <trkpt lat="47.86094" lon="5.43467">
        <ele>357.913</ele>
        <time>2014-08-04T15:35:04Z</time>
      </trkpt>
      <trkpt lat="47.86094" lon="5.43455">
        <ele>352.4365</ele>
        <time>2014-08-04T15:35:05Z</time>
      </trkpt>
      <trkpt lat="47.86094" lon="5.43444">
        <ele>351.6136</ele>
        <time>2014-08-04T15:35:06Z</time>
      </trkpt>
      <trkpt lat="47.86093" lon="5.43435">
        <ele>350.6363</ele>
        <time>2014-08-04T15:35:07Z</time>
      </trkpt>
      <trkpt lat="47.86093" lon="5.43424">
        <ele>349.9492</ele>
        <time>2014-08-04T15:35:08Z</time>
      </trkpt>
      <trkpt lat="47.86092" lon="5.43414">
        <ele>349.7831</ele>
        <time>2014-08-04T15:35:09Z</time>
      </trkpt>
      <trkpt lat="47.86091" lon="5.43405">
        <ele>351.493</ele>
        <time>2014-08-04T15:35:10Z</time>
      </trkpt>
      <trkpt lat="47.86091" lon="5.43396">
        <ele>348.7906</ele>
        <time>2014-08-04T15:35:11Z</time>
      </trkpt>
      <trkpt lat="47.86091" lon="5.43386">
        <ele>351.5198</ele>
        <time>2014-08-04T15:35:12Z</time>
      </trkpt>
      <trkpt lat="47.86091" lon="5.43379">
        <ele>352.1202</ele>
        <time>2014-08-04T15:35:13Z</time>
      </trkpt>
      <trkpt lat="47.86089" lon="5.43364">
        <ele>352.7159</ele>
        <time>2014-08-04T15:35:15Z</time>
      </trkpt>
      <trkpt lat="47.86087" lon="5.43354">
        <ele>351.1724</ele>
        <time>2014-08-04T15:35:16Z</time>
      </trkpt>
      <trkpt lat="47.86086" lon="5.43344">
        <ele>356.5338</ele>
        <time>2014-08-04T15:35:17Z</time>
      </trkpt>
      <trkpt lat="47.86084" lon="5.43334">
        <ele>356.9312</ele>
        <time>2014-08-04T15:35:18Z</time>
      </trkpt>
      <trkpt lat="47.86082" lon="5.43326">
        <ele>354.2976</ele>
        <time>2014-08-04T15:35:19Z</time>
      </trkpt>
      <trkpt lat="47.86081" lon="5.43318">
        <ele>354.4716</ele>
        <time>2014-08-04T15:35:20Z</time>
      </trkpt>
      <trkpt lat="47.86079" lon="5.43309">
        <ele>355.6159</ele>
        <time>2014-08-04T15:35:21Z</time>
      </trkpt>
      <trkpt lat="47.86078" lon="5.433">
        <ele>354.5461</ele>
        <time>2014-08-04T15:35:22Z</time>
      </trkpt>
      <trkpt lat="47.86077" lon="5.43291">
        <ele>353.3815</ele>
        <time>2014-08-04T15:35:23Z</time>
      </trkpt>
      <trkpt lat="47.86075" lon="5.43283">
        <ele>352.3189</ele>
        <time>2014-08-04T15:35:24Z</time>
      </trkpt>
      <trkpt lat="47.86074" lon="5.43275">
        <ele>352.5774</ele>
        <time>2014-08-04T15:35:25Z</time>
      </trkpt>
      <trkpt lat="47.86073" lon="5.43266">
        <ele>352.3493</ele>
        <time>2014-08-04T15:35:26Z</time>
      </trkpt>
      <trkpt lat="47.86072" lon="5.43259">
        <ele>351.8182</ele>
        <time>2014-08-04T15:35:27Z</time>
      </trkpt>
      <trkpt lat="47.86071" lon="5.43251">
        <ele>347.6952</ele>
        <time>2014-08-04T15:35:28Z</time>
      </trkpt>
      <trkpt lat="47.8607" lon="5.43244">
        <ele>349.5231</ele>
        <time>2014-08-04T15:35:29Z</time>
      </trkpt>
      <trkpt lat="47.86068" lon="5.43235">
        <ele>349.3536</ele>
        <time>2014-08-04T15:35:30Z</time>
      </trkpt>
      <trkpt lat="47.86066" lon="5.43225">
        <ele>349.822</ele>
        <time>2014-08-04T15:35:31Z</time>
      </trkpt>
      <trkpt lat="47.86065" lon="5.43214">
        <ele>352.2812</ele>
        <time>2014-08-04T15:35:32Z</time>
      </trkpt>
      <trkpt lat="47.86063" lon="5.43205">
        <ele>351.6264</ele>
        <time>2014-08-04T15:35:33Z</time>
      </trkpt>
      <trkpt lat="47.86062" lon="5.43195">
        <ele>351.2926</ele>
        <time>2014-08-04T15:35:34Z</time>
      </trkpt>
      <trkpt lat="47.8606" lon="5.43186">
        <ele>352.101</ele>
        <time>2014-08-04T15:35:35Z</time>
      </trkpt>
      <trkpt lat="47.86058" lon="5.43175">
        <ele>354.1105</ele>
        <time>2014-08-04T15:35:36Z</time>
      </trkpt>
      <trkpt lat="47.86057" lon="5.43165">
        <ele>353.2872</ele>
        <time>2014-08-04T15:35:37Z</time>
      </trkpt>
      <trkpt lat="47.86055" lon="5.43155">
        <ele>353.3103</ele>
        <time>2014-08-04T15:35:38Z</time>
      </trkpt>
      <trkpt lat="47.86053" lon="5.43145">
        <ele>350.1425</ele>
        <time>2014-08-04T15:35:39Z</time>
      </trkpt>
      <trkpt lat="47.86052" lon="5.43136">
        <ele>351.5864</ele>
        <time>2014-08-04T15:35:40Z</time>
      </trkpt>
      <trkpt lat="47.8605" lon="5.43127">
        <ele>351.2515</ele>
        <time>2014-08-04T15:35:41Z</time>
      </trkpt>
      <trkpt lat="47.8605" lon="5.43119">
        <ele>354.2882</ele>
        <time>2014-08-04T15:35:42Z</time>
      </trkpt>
      <trkpt lat="47.86049" lon="5.4311">
        <ele>352.5204</ele>
        <time>2014-08-04T15:35:43Z</time>
      </trkpt>
      <trkpt lat="47.86047" lon="5.431">
        <ele>349.8551</ele>
        <time>2014-08-04T15:35:44Z</time>
      </trkpt>
      <trkpt lat="47.86045" lon="5.43089">
        <ele>351.4513</ele>
        <time>2014-08-04T15:35:45Z</time>
      </trkpt>
      <trkpt lat="47.86044" lon="5.43081">
        <ele>353.2808</ele>
        <time>2014-08-04T15:35:46Z</time>
      </trkpt>
      <trkpt lat="47.86043" lon="5.43073">
        <ele>356.5798</ele>
        <time>2014-08-04T15:35:47Z</time>
      </trkpt>
      <trkpt lat="47.86041" lon="5.43063">
        <ele>351.825</ele>
        <time>2014-08-04T15:35:48Z</time>
      </trkpt>
      <trkpt lat="47.8604" lon="5.43054">
        <ele>348.6819</ele>
        <time>2014-08-04T15:35:49Z</time>
      </trkpt>
      <trkpt lat="47.86039" lon="5.43045">
        <ele>349.5344</ele>
        <time>2014-08-04T15:35:50Z</time>
      </trkpt>
      <trkpt lat="47.86038" lon="5.43034">
        <ele>348.2145</ele>
        <time>2014-08-04T15:35:51Z</time>
      </trkpt>
      <trkpt lat="47.86037" lon="5.43026">
        <ele>349.8626</ele>
        <time>2014-08-04T15:35:52Z</time>
      </trkpt>
      <trkpt lat="47.86036" lon="5.43018">
        <ele>348.7399</ele>
        <time>2014-08-04T15:35:53Z</time>
      </trkpt>
      <trkpt lat="47.86035" lon="5.43008">
        <ele>347.04</ele>
        <time>2014-08-04T15:35:54Z</time>
      </trkpt>
      <trkpt lat="47.86034" lon="5.42999">
        <ele>347.1256</ele>
        <time>2014-08-04T15:35:55Z</time>
      </trkpt>
      <trkpt lat="47.86033" lon="5.4299">
        <ele>351.4973</ele>
        <time>2014-08-04T15:35:56Z</time>
      </trkpt>
      <trkpt lat="47.86031" lon="5.42981">
        <ele>350.1074</ele>
        <time>2014-08-04T15:35:57Z</time>
      </trkpt>
      <trkpt lat="47.86029" lon="5.42972">
        <ele>351.589</ele>
        <time>2014-08-04T15:35:58Z</time>
      </trkpt>
      <trkpt lat="47.86028" lon="5.42962">
        <ele>348.0571</ele>
        <time>2014-08-04T15:35:59Z</time>
      </trkpt>
      <trkpt lat="47.86026" lon="5.42953">
        <ele>349.4665</ele>
        <time>2014-08-04T15:36:00Z</time>
      </trkpt>
      <trkpt lat="47.86024" lon="5.42946">
        <ele>348.4804</ele>
        <time>2014-08-04T15:36:01Z</time>
      </trkpt>
      <trkpt lat="47.86022" lon="5.42938">
        <ele>354.5097</ele>
        <time>2014-08-04T15:36:02Z</time>
      </trkpt>
      <trkpt lat="47.8602" lon="5.42931">
        <ele>353.7487</ele>
        <time>2014-08-04T15:36:03Z</time>
      </trkpt>
      <trkpt lat="47.86017" lon="5.42924">
        <ele>352.8937</ele>
        <time>2014-08-04T15:36:04Z</time>
      </trkpt>
      <trkpt lat="47.86014" lon="5.42918">
        <ele>353.9073</ele>
        <time>2014-08-04T15:36:05Z</time>
      </trkpt>
      <trkpt lat="47.86009" lon="5.42909">
        <ele>355.6233</ele>
        <time>2014-08-04T15:36:06Z</time>
      </trkpt>
      <trkpt lat="47.86005" lon="5.42902">
        <ele>355.5787</ele>
        <time>2014-08-04T15:36:07Z</time>
      </trkpt>
      <trkpt lat="47.86001" lon="5.42897">
        <ele>353.5241</ele>
        <time>2014-08-04T15:36:08Z</time>
      </trkpt>
      <trkpt lat="47.85996" lon="5.4289">
        <ele>352.7166</ele>
        <time>2014-08-04T15:36:09Z</time>
      </trkpt>
      <trkpt lat="47.85991" lon="5.42884">
        <ele>356.565</ele>
        <time>2014-08-04T15:36:10Z</time>
      </trkpt>
      <trkpt lat="47.85987" lon="5.42878">
        <ele>353.0048</ele>
        <time>2014-08-04T15:36:11Z</time>
      </trkpt>
      <trkpt lat="47.85983" lon="5.42873">
        <ele>354.2349</ele>
        <time>2014-08-04T15:36:12Z</time>
      </trkpt>
      <trkpt lat="47.85978" lon="5.42868">
        <ele>352.7265</ele>
        <time>2014-08-04T15:36:13Z</time>
      </trkpt>
      <trkpt lat="47.85973" lon="5.42861">
        <ele>351.1311</ele>
        <time>2014-08-04T15:36:14Z</time>
      </trkpt>
      <trkpt lat="47.85968" lon="5.42857">
        <ele>351.3539</ele>
        <time>2014-08-04T15:36:15Z</time>
      </trkpt>
      <trkpt lat="47.85963" lon="5.42852">
        <ele>351.188</ele>
        <time>2014-08-04T15:36:16Z</time>
      </trkpt>
      <trkpt lat="47.85959" lon="5.42846">
        <ele>346.9951</ele>
        <time>2014-08-04T15:36:17Z</time>
      </trkpt>
      <trkpt lat="47.85955" lon="5.42841">
        <ele>349.955</ele>
        <time>2014-08-04T15:36:18Z</time>
      </trkpt>
      <trkpt lat="47.85951" lon="5.42835">
        <ele>351.7167</ele>
        <time>2014-08-04T15:36:19Z</time>
      </trkpt>
      <trkpt lat="47.85947" lon="5.4283">
        <ele>354.4723</ele>
        <time>2014-08-04T15:36:20Z</time>
      </trkpt>
      <trkpt lat="47.85942" lon="5.42825">
        <ele>355.4252</ele>
        <time>2014-08-04T15:36:21Z</time>
      </trkpt>
      <trkpt lat="47.85938" lon="5.4282">
        <ele>353.2815</ele>
        <time>2014-08-04T15:36:22Z</time>
      </trkpt>
      <trkpt lat="47.85933" lon="5.42815">
        <ele>349.155</ele>
        <time>2014-08-04T15:36:23Z</time>
      </trkpt>
      <trkpt lat="47.85929" lon="5.42809">
        <ele>350.1573</ele>
        <time>2014-08-04T15:36:24Z</time>
      </trkpt>
      <trkpt lat="47.85924" lon="5.42804">
        <ele>352.6059</ele>
        <time>2014-08-04T15:36:25Z</time>
      </trkpt>
      <trkpt lat="47.85919" lon="5.42799">
        <ele>352.2746</ele>
        <time>2014-08-04T15:36:26Z</time>
      </trkpt>
      <trkpt lat="47.85915" lon="5.42794">
        <ele>352.34</ele>
        <time>2014-08-04T15:36:27Z</time>
      </trkpt>
      <trkpt lat="47.85909" lon="5.42789">
        <ele>350.4954</ele>
        <time>2014-08-04T15:36:28Z</time>
      </trkpt>
      <trkpt lat="47.85903" lon="5.42783">
        <ele>345.704</ele>
        <time>2014-08-04T15:36:29Z</time>
      </trkpt>
      <trkpt lat="47.85898" lon="5.42779">
        <ele>345.704</ele>
        <time>2014-08-04T15:36:30Z</time>
      </trkpt>
      <trkpt lat="47.85894" lon="5.42775">
        <ele>348.7527</ele>
        <time>2014-08-04T15:36:31Z</time>
      </trkpt>
      <trkpt lat="47.85888" lon="5.42771">
        <ele>350.7986</ele>
        <time>2014-08-04T15:36:32Z</time>
      </trkpt>
      <trkpt lat="47.85884" lon="5.42768">
        <ele>351.2957</ele>
        <time>2014-08-04T15:36:33Z</time>
      </trkpt>
      <trkpt lat="47.85879" lon="5.42764">
        <ele>350.7297</ele>
        <time>2014-08-04T15:36:34Z</time>
      </trkpt>
      <trkpt lat="47.85876" lon="5.42758">
        <ele>350.9205</ele>
        <time>2014-08-04T15:36:35Z</time>
      </trkpt>
      <trkpt lat="47.85875" lon="5.4275">
        <ele>351.0955</ele>
        <time>2014-08-04T15:36:36Z</time>
      </trkpt>
      <trkpt lat="47.85875" lon="5.42742">
        <ele>351.6043</ele>
        <time>2014-08-04T15:36:37Z</time>
      </trkpt>
      <trkpt lat="47.85877" lon="5.42734">
        <ele>351.1852</ele>
        <time>2014-08-04T15:36:38Z</time>
      </trkpt>
      <trkpt lat="47.85878" lon="5.42725">
        <ele>351.4052</ele>
        <time>2014-08-04T15:36:39Z</time>
      </trkpt>
      <trkpt lat="47.8588" lon="5.42718">
        <ele>351.3022</ele>
        <time>2014-08-04T15:36:40Z</time>
      </trkpt>
      <trkpt lat="47.85882" lon="5.42711">
        <ele>351.8717</ele>
        <time>2014-08-04T15:36:41Z</time>
      </trkpt>
      <trkpt lat="47.85884" lon="5.42704">
        <ele>351.8723</ele>
        <time>2014-08-04T15:36:42Z</time>
      </trkpt>
      <trkpt lat="47.85887" lon="5.42697">
        <ele>350.757</ele>
        <time>2014-08-04T15:36:43Z</time>
      </trkpt>
      <trkpt lat="47.8589" lon="5.42689">
        <ele>350.9794</ele>
        <time>2014-08-04T15:36:44Z</time>
      </trkpt>
      <trkpt lat="47.85893" lon="5.42681">
        <ele>351.1962</ele>
        <time>2014-08-04T15:36:45Z</time>
      </trkpt>
      <trkpt lat="47.85896" lon="5.42673">
        <ele>350.9041</ele>
        <time>2014-08-04T15:36:46Z</time>
      </trkpt>
      <trkpt lat="47.85899" lon="5.42666">
        <ele>347.8838</ele>
        <time>2014-08-04T15:36:47Z</time>
      </trkpt>
      <trkpt lat="47.85901" lon="5.42659">
        <ele>348.1009</ele>
        <time>2014-08-04T15:36:48Z</time>
      </trkpt>
      <trkpt lat="47.85904" lon="5.42653">
        <ele>352.2309</ele>
        <time>2014-08-04T15:36:49Z</time>
      </trkpt>
      <trkpt lat="47.85911" lon="5.42643">
        <ele>351.2928</ele>
        <time>2014-08-04T15:36:51Z</time>
      </trkpt>
      <trkpt lat="47.85915" lon="5.42638">
        <ele>350.8701</ele>
        <time>2014-08-04T15:36:52Z</time>
      </trkpt>
      <trkpt lat="47.85919" lon="5.42631">
        <ele>350.113</ele>
        <time>2014-08-04T15:36:53Z</time>
      </trkpt>
      <trkpt lat="47.85923" lon="5.42625">
        <ele>350.0873</ele>
        <time>2014-08-04T15:36:54Z</time>
      </trkpt>
      <trkpt lat="47.85926" lon="5.4262">
        <ele>349.092</ele>
        <time>2014-08-04T15:36:55Z</time>
      </trkpt>
      <trkpt lat="47.8593" lon="5.42615">
        <ele>346.9716</ele>
        <time>2014-08-04T15:36:56Z</time>
      </trkpt>
      <trkpt lat="47.85933" lon="5.42609">
        <ele>348.6626</ele>
        <time>2014-08-04T15:36:57Z</time>
      </trkpt>
      <trkpt lat="47.85938" lon="5.42602">
        <ele>348.4222</ele>
        <time>2014-08-04T15:36:58Z</time>
      </trkpt>
      <trkpt lat="47.85943" lon="5.42595">
        <ele>348.309</ele>
        <time>2014-08-04T15:36:59Z</time>
      </trkpt>
      <trkpt lat="47.85947" lon="5.42589">
        <ele>346.4549</ele>
        <time>2014-08-04T15:37:00Z</time>
      </trkpt>
      <trkpt lat="47.85951" lon="5.42583">
        <ele>347.4885</ele>
        <time>2014-08-04T15:37:01Z</time>
      </trkpt>
      <trkpt lat="47.85957" lon="5.42573">
        <ele>348.3978</ele>
        <time>2014-08-04T15:37:03Z</time>
      </trkpt>
      <trkpt lat="47.85961" lon="5.42567">
        <ele>349.417</ele>
        <time>2014-08-04T15:37:04Z</time>
      </trkpt>
      <trkpt lat="47.85964" lon="5.4256">
        <ele>349.3049</ele>
        <time>2014-08-04T15:37:05Z</time>
      </trkpt>
      <trkpt lat="47.85968" lon="5.42554">
        <ele>350.2472</ele>
        <time>2014-08-04T15:37:06Z</time>
      </trkpt>
      <trkpt lat="47.85971" lon="5.42546">
        <ele>350.3872</ele>
        <time>2014-08-04T15:37:07Z</time>
      </trkpt>
      <trkpt lat="47.85975" lon="5.42539">
        <ele>353.3023</ele>
        <time>2014-08-04T15:37:08Z</time>
      </trkpt>
      <trkpt lat="47.85978" lon="5.42532">
        <ele>350.6559</ele>
        <time>2014-08-04T15:37:09Z</time>
      </trkpt>
      <trkpt lat="47.85981" lon="5.42524">
        <ele>349.8467</ele>
        <time>2014-08-04T15:37:10Z</time>
      </trkpt>
      <trkpt lat="47.85984" lon="5.42518">
        <ele>349.6693</ele>
        <time>2014-08-04T15:37:11Z</time>
      </trkpt>
      <trkpt lat="47.85987" lon="5.42511">
        <ele>351.6262</ele>
        <time>2014-08-04T15:37:12Z</time>
      </trkpt>
      <trkpt lat="47.85989" lon="5.42505">
        <ele>353.1365</ele>
        <time>2014-08-04T15:37:13Z</time>
      </trkpt>
      <trkpt lat="47.85993" lon="5.42498">
        <ele>350.1032</ele>
        <time>2014-08-04T15:37:14Z</time>
      </trkpt>
      <trkpt lat="47.85996" lon="5.4249">
        <ele>353.4982</ele>
        <time>2014-08-04T15:37:15Z</time>
      </trkpt>
      <trkpt lat="47.85999" lon="5.42482">
        <ele>350.9598</ele>
        <time>2014-08-04T15:37:16Z</time>
      </trkpt>
      <trkpt lat="47.86003" lon="5.42473">
        <ele>350.1101</ele>
        <time>2014-08-04T15:37:17Z</time>
      </trkpt>
      <trkpt lat="47.86005" lon="5.42467">
        <ele>352.4571</ele>
        <time>2014-08-04T15:37:18Z</time>
      </trkpt>
      <trkpt lat="47.86008" lon="5.4246">
        <ele>351.6657</ele>
        <time>2014-08-04T15:37:19Z</time>
      </trkpt>
      <trkpt lat="47.8601" lon="5.42452">
        <ele>351.7267</ele>
        <time>2014-08-04T15:37:20Z</time>
      </trkpt>
      <trkpt lat="47.86013" lon="5.42446">
        <ele>350.2574</ele>
        <time>2014-08-04T15:37:21Z</time>
      </trkpt>
      <trkpt lat="47.86015" lon="5.42437">
        <ele>345.4958</ele>
        <time>2014-08-04T15:37:22Z</time>
      </trkpt>
      <trkpt lat="47.86019" lon="5.42424">
        <ele>347.0911</ele>
        <time>2014-08-04T15:37:24Z</time>
      </trkpt>
      <trkpt lat="47.86021" lon="5.42415">
        <ele>347.342</ele>
        <time>2014-08-04T15:37:25Z</time>
      </trkpt>
      <trkpt lat="47.86022" lon="5.42406">
        <ele>347.1499</ele>
        <time>2014-08-04T15:37:26Z</time>
      </trkpt>
      <trkpt lat="47.86025" lon="5.4239">
        <ele>344.7802</ele>
        <time>2014-08-04T15:37:28Z</time>
      </trkpt>
      <trkpt lat="47.86026" lon="5.4238">
        <ele>345.9451</ele>
        <time>2014-08-04T15:37:29Z</time>
      </trkpt>
      <trkpt lat="47.86028" lon="5.42373">
        <ele>344.1033</ele>
        <time>2014-08-04T15:37:30Z</time>
      </trkpt>
      <trkpt lat="47.86032" lon="5.42359">
        <ele>349.0997</ele>
        <time>2014-08-04T15:37:32Z</time>
      </trkpt>
      <trkpt lat="47.86034" lon="5.42353">
        <ele>350.2069</ele>
        <time>2014-08-04T15:37:33Z</time>
      </trkpt>
      <trkpt lat="47.86036" lon="5.42343">
        <ele>350.3614</ele>
        <time>2014-08-04T15:37:34Z</time>
      </trkpt>
      <trkpt lat="47.86038" lon="5.42335">
        <ele>350.0314</ele>
        <time>2014-08-04T15:37:35Z</time>
      </trkpt>
      <trkpt lat="47.86041" lon="5.42326">
        <ele>351.4824</ele>
        <time>2014-08-04T15:37:36Z</time>
      </trkpt>
      <trkpt lat="47.86042" lon="5.42319">
        <ele>349.5418</ele>
        <time>2014-08-04T15:37:37Z</time>
      </trkpt>
      <trkpt lat="47.86044" lon="5.42313">
        <ele>351.6946</ele>
        <time>2014-08-04T15:37:38Z</time>
      </trkpt>
      <trkpt lat="47.86045" lon="5.42305">
        <ele>348.7982</ele>
        <time>2014-08-04T15:37:39Z</time>
      </trkpt>
      <trkpt lat="47.86047" lon="5.42298">
        <ele>353.7891</ele>
        <time>2014-08-04T15:37:40Z</time>
      </trkpt>
      <trkpt lat="47.86048" lon="5.42289">
        <ele>354.9185</ele>
        <time>2014-08-04T15:37:41Z</time>
      </trkpt>
      <trkpt lat="47.86049" lon="5.42281">
        <ele>351.2289</ele>
        <time>2014-08-04T15:37:42Z</time>
      </trkpt>
      <trkpt lat="47.8605" lon="5.42272">
        <ele>349.4472</ele>
        <time>2014-08-04T15:37:43Z</time>
      </trkpt>
      <trkpt lat="47.86051" lon="5.42265">
        <ele>350.9442</ele>
        <time>2014-08-04T15:37:44Z</time>
      </trkpt>
      <trkpt lat="47.86051" lon="5.42256">
        <ele>348.2003</ele>
        <time>2014-08-04T15:37:45Z</time>
      </trkpt>
      <trkpt lat="47.86051" lon="5.42248">
        <ele>349.2708</ele>
        <time>2014-08-04T15:37:46Z</time>
      </trkpt>
      <trkpt lat="47.86052" lon="5.42238">
        <ele>351.0421</ele>
        <time>2014-08-04T15:37:47Z</time>
      </trkpt>
      <trkpt lat="47.86052" lon="5.42228">
        <ele>349.4844</ele>
        <time>2014-08-04T15:37:48Z</time>
      </trkpt>
      <trkpt lat="47.86052" lon="5.4222">
        <ele>349.6891</ele>
        <time>2014-08-04T15:37:49Z</time>
      </trkpt>
      <trkpt lat="47.8605" lon="5.42212">
        <ele>350.0005</ele>
        <time>2014-08-04T15:37:50Z</time>
      </trkpt>
      <trkpt lat="47.86046" lon="5.422">
        <ele>350.8069</ele>
        <time>2014-08-04T15:37:52Z</time>
      </trkpt>
      <trkpt lat="47.86042" lon="5.42193">
        <ele>345.9656</ele>
        <time>2014-08-04T15:37:53Z</time>
      </trkpt>
      <trkpt lat="47.86037" lon="5.42186">
        <ele>347.2353</ele>
        <time>2014-08-04T15:37:54Z</time>
      </trkpt>
      <trkpt lat="47.86032" lon="5.42179">
        <ele>343.649</ele>
        <time>2014-08-04T15:37:55Z</time>
      </trkpt>
      <trkpt lat="47.86028" lon="5.42175">
        <ele>349.734</ele>
        <time>2014-08-04T15:37:56Z</time>
      </trkpt>
      <trkpt lat="47.86021" lon="5.42168">
        <ele>349.769</ele>
        <time>2014-08-04T15:37:58Z</time>
      </trkpt>
      <trkpt lat="47.86015" lon="5.42163">
        <ele>346.3187</ele>
        <time>2014-08-04T15:37:59Z</time>
      </trkpt>
      <trkpt lat="47.8601" lon="5.42156">
        <ele>343.543</ele>
        <time>2014-08-04T15:38:00Z</time>
      </trkpt>
      <trkpt lat="47.86006" lon="5.4215">
        <ele>343.1339</ele>
        <time>2014-08-04T15:38:01Z</time>
      </trkpt>
      <trkpt lat="47.86002" lon="5.42143">
        <ele>342.1374</ele>
        <time>2014-08-04T15:38:02Z</time>
      </trkpt>
      <trkpt lat="47.85997" lon="5.42135">
        <ele>347.5097</ele>
        <time>2014-08-04T15:38:03Z</time>
      </trkpt>
      <trkpt lat="47.85993" lon="5.42128">
        <ele>348.9877</ele>
        <time>2014-08-04T15:38:04Z</time>
      </trkpt>
      <trkpt lat="47.85991" lon="5.42118">
        <ele>348.5009</ele>
        <time>2014-08-04T15:38:05Z</time>
      </trkpt>
      <trkpt lat="47.85989" lon="5.42109">
        <ele>350.5915</ele>
        <time>2014-08-04T15:38:06Z</time>
      </trkpt>
      <trkpt lat="47.85989" lon="5.42102">
        <ele>352.6007</ele>
        <time>2014-08-04T15:38:07Z</time>
      </trkpt>
      <trkpt lat="47.8599" lon="5.4209">
        <ele>354.776</ele>
        <time>2014-08-04T15:38:09Z</time>
      </trkpt>
      <trkpt lat="47.8599" lon="5.42083">
        <ele>354.5622</ele>
        <time>2014-08-04T15:38:10Z</time>
      </trkpt>
      <trkpt lat="47.8599" lon="5.42075">
        <ele>352.4565</ele>
        <time>2014-08-04T15:38:11Z</time>
      </trkpt>
      <trkpt lat="47.8599" lon="5.42066">
        <ele>353.0442</ele>
        <time>2014-08-04T15:38:12Z</time>
      </trkpt>
      <trkpt lat="47.85989" lon="5.42058">
        <ele>353.9033</ele>
        <time>2014-08-04T15:38:13Z</time>
      </trkpt>
      <trkpt lat="47.85989" lon="5.42046">
        <ele>351.8449</ele>
        <time>2014-08-04T15:38:15Z</time>
      </trkpt>
      <trkpt lat="47.85989" lon="5.42035">
        <ele>354.1335</ele>
        <time>2014-08-04T15:38:17Z</time>
      </trkpt>
      <trkpt lat="47.85989" lon="5.42022">
        <ele>351.5178</ele>
        <time>2014-08-04T15:38:19Z</time>
      </trkpt>
      <trkpt lat="47.85988" lon="5.42012">
        <ele>354.6303</ele>
        <time>2014-08-04T15:38:21Z</time>
      </trkpt>
      <trkpt lat="47.85987" lon="5.42002">
        <ele>348.6632</ele>
        <time>2014-08-04T15:38:23Z</time>
      </trkpt>
      <trkpt lat="47.85988" lon="5.41993">
        <ele>352.1228</ele>
        <time>2014-08-04T15:38:25Z</time>
      </trkpt>
      <trkpt lat="47.85991" lon="5.41983">
        <ele>349.2704</ele>
        <time>2014-08-04T15:38:27Z</time>
      </trkpt>
      <trkpt lat="47.85994" lon="5.41976">
        <ele>348.0538</ele>
        <time>2014-08-04T15:38:29Z</time>
      </trkpt>
      <trkpt lat="47.85999" lon="5.41969">
        <ele>352.477</ele>
        <time>2014-08-04T15:38:31Z</time>
      </trkpt>
      <trkpt lat="47.86005" lon="5.41962">
        <ele>350.0487</ele>
        <time>2014-08-04T15:38:33Z</time>
      </trkpt>
      <trkpt lat="47.8601" lon="5.41956">
        <ele>350.8271</ele>
        <time>2014-08-04T15:38:35Z</time>
      </trkpt>
      <trkpt lat="47.86014" lon="5.41948">
        <ele>351.0854</ele>
        <time>2014-08-04T15:38:37Z</time>
      </trkpt>
      <trkpt lat="47.86017" lon="5.41942">
        <ele>352.2741</ele>
        <time>2014-08-04T15:38:38Z</time>
      </trkpt>
      <trkpt lat="47.86023" lon="5.41934">
        <ele>354.3428</ele>
        <time>2014-08-04T15:38:40Z</time>
      </trkpt>
      <trkpt lat="47.86027" lon="5.41926">
        <ele>354.8648</ele>
        <time>2014-08-04T15:38:42Z</time>
      </trkpt>
      <trkpt lat="47.86031" lon="5.41921">
        <ele>354.8954</ele>
        <time>2014-08-04T15:38:43Z</time>
      </trkpt>
      <trkpt lat="47.86035" lon="5.41912">
        <ele>353.6957</ele>
        <time>2014-08-04T15:38:45Z</time>
      </trkpt>
      <trkpt lat="47.86041" lon="5.41903">
        <ele>353.3442</ele>
        <time>2014-08-04T15:38:47Z</time>
      </trkpt>
      <trkpt lat="47.86044" lon="5.41897">
        <ele>352.3913</ele>
        <time>2014-08-04T15:38:48Z</time>
      </trkpt>
      <trkpt lat="47.8605" lon="5.41887">
        <ele>353.8942</ele>
        <time>2014-08-04T15:38:50Z</time>
      </trkpt>
      <trkpt lat="47.86053" lon="5.41882">
        <ele>352.8627</ele>
        <time>2014-08-04T15:38:51Z</time>
      </trkpt>
      <trkpt lat="47.86056" lon="5.41876">
        <ele>349.5519</ele>
        <time>2014-08-04T15:38:52Z</time>
      </trkpt>
      <trkpt lat="47.86058" lon="5.4187">
        <ele>352.7369</ele>
        <time>2014-08-04T15:38:53Z</time>
      </trkpt>
      <trkpt lat="47.86062" lon="5.41863">
        <ele>355.5183</ele>
        <time>2014-08-04T15:38:54Z</time>
      </trkpt>
      <trkpt lat="47.86064" lon="5.41857">
        <ele>355.493</ele>
        <time>2014-08-04T15:38:55Z</time>
      </trkpt>
      <trkpt lat="47.86068" lon="5.4185">
        <ele>358.4005</ele>
        <time>2014-08-04T15:38:56Z</time>
      </trkpt>
      <trkpt lat="47.86071" lon="5.41842">
        <ele>352.312</ele>
        <time>2014-08-04T15:38:57Z</time>
      </trkpt>
      <trkpt lat="47.86075" lon="5.41833">
        <ele>356.0454</ele>
        <time>2014-08-04T15:38:58Z</time>
      </trkpt>
      <trkpt lat="47.86079" lon="5.41825">
        <ele>355.6774</ele>
        <time>2014-08-04T15:38:59Z</time>
      </trkpt>
      <trkpt lat="47.86083" lon="5.41819">
        <ele>353.3759</ele>
        <time>2014-08-04T15:39:00Z</time>
      </trkpt>
      <trkpt lat="47.86087" lon="5.41812">
        <ele>353.3759</ele>
        <time>2014-08-04T15:39:01Z</time>
      </trkpt>
      <trkpt lat="47.86089" lon="5.41802">
        <ele>351.0232</ele>
        <time>2014-08-04T15:39:02Z</time>
      </trkpt>
      <trkpt lat="47.86092" lon="5.41793">
        <ele>351.5649</ele>
        <time>2014-08-04T15:39:03Z</time>
      </trkpt>
      <trkpt lat="47.86092" lon="5.41784">
        <ele>352.0275</ele>
        <time>2014-08-04T15:39:04Z</time>
      </trkpt>
      <trkpt lat="47.86092" lon="5.41773">
        <ele>353.2837</ele>
        <time>2014-08-04T15:39:05Z</time>
      </trkpt>
      <trkpt lat="47.86092" lon="5.41763">
        <ele>355.1908</ele>
        <time>2014-08-04T15:39:06Z</time>
      </trkpt>
      <trkpt lat="47.86093" lon="5.41752">
        <ele>354.4757</ele>
        <time>2014-08-04T15:39:07Z</time>
      </trkpt>
      <trkpt lat="47.86097" lon="5.41743">
        <ele>356.0696</ele>
        <time>2014-08-04T15:39:08Z</time>
      </trkpt>
      <trkpt lat="47.861" lon="5.41736">
        <ele>356.767</ele>
        <time>2014-08-04T15:39:09Z</time>
      </trkpt>
      <trkpt lat="47.86105" lon="5.4173">
        <ele>357.085</ele>
        <time>2014-08-04T15:39:10Z</time>
      </trkpt>
      <trkpt lat="47.86109" lon="5.41726">
        <ele>356.8351</ele>
        <time>2014-08-04T15:39:11Z</time>
      </trkpt>
      <trkpt lat="47.86117" lon="5.4172">
        <ele>359.7815</ele>
        <time>2014-08-04T15:39:13Z</time>
      </trkpt>
      <trkpt lat="47.86121" lon="5.41717">
        <ele>360.4847</ele>
        <time>2014-08-04T15:39:14Z</time>
      </trkpt>
      <trkpt lat="47.86126" lon="5.41714">
        <ele>361.5139</ele>
        <time>2014-08-04T15:39:15Z</time>
      </trkpt>
      <trkpt lat="47.86132" lon="5.41711">
        <ele>363.2045</ele>
        <time>2014-08-04T15:39:16Z</time>
      </trkpt>
      <trkpt lat="47.86137" lon="5.41708">
        <ele>363.5452</ele>
        <time>2014-08-04T15:39:17Z</time>
      </trkpt>
      <trkpt lat="47.86142" lon="5.41704">
        <ele>360.2654</ele>
        <time>2014-08-04T15:39:18Z</time>
      </trkpt>
      <trkpt lat="47.86149" lon="5.417">
        <ele>354.9271</ele>
        <time>2014-08-04T15:39:19Z</time>
      </trkpt>
      <trkpt lat="47.86154" lon="5.41694">
        <ele>352.123</ele>
        <time>2014-08-04T15:39:20Z</time>
      </trkpt>
      <trkpt lat="47.86159" lon="5.41688">
        <ele>351.4511</ele>
        <time>2014-08-04T15:39:21Z</time>
      </trkpt>
      <trkpt lat="47.86162" lon="5.41684">
        <ele>349.7729</ele>
        <time>2014-08-04T15:39:22Z</time>
      </trkpt>
      <trkpt lat="47.8617" lon="5.41674">
        <ele>346.2094</ele>
        <time>2014-08-04T15:39:24Z</time>
      </trkpt>
      <trkpt lat="47.86176" lon="5.41666">
        <ele>349.4984</ele>
        <time>2014-08-04T15:39:26Z</time>
      </trkpt>
      <trkpt lat="47.8618" lon="5.4166">
        <ele>350.0869</ele>
        <time>2014-08-04T15:39:27Z</time>
      </trkpt>
      <trkpt lat="47.86184" lon="5.41655">
        <ele>348.5816</ele>
        <time>2014-08-04T15:39:28Z</time>
      </trkpt>
      <trkpt lat="47.86187" lon="5.41649">
        <ele>352.3765</ele>
        <time>2014-08-04T15:39:29Z</time>
      </trkpt>
      <trkpt lat="47.8619" lon="5.41643">
        <ele>356.3795</ele>
        <time>2014-08-04T15:39:30Z</time>
      </trkpt>
      <trkpt lat="47.86195" lon="5.41637">
        <ele>358.2361</ele>
        <time>2014-08-04T15:39:31Z</time>
      </trkpt>
      <trkpt lat="47.862" lon="5.4163">
        <ele>358.5724</ele>
        <time>2014-08-04T15:39:32Z</time>
      </trkpt>
      <trkpt lat="47.86206" lon="5.41622">
        <ele>359.1274</ele>
        <time>2014-08-04T15:39:33Z</time>
      </trkpt>
      <trkpt lat="47.86211" lon="5.41615">
        <ele>356.6887</ele>
        <time>2014-08-04T15:39:34Z</time>
      </trkpt>
      <trkpt lat="47.86213" lon="5.41606">
        <ele>357.1221</ele>
        <time>2014-08-04T15:39:35Z</time>
      </trkpt>
      <trkpt lat="47.86215" lon="5.416">
        <ele>355.7661</ele>
        <time>2014-08-04T15:39:36Z</time>
      </trkpt>
      <trkpt lat="47.86217" lon="5.41592">
        <ele>353.9492</ele>
        <time>2014-08-04T15:39:37Z</time>
      </trkpt>
      <trkpt lat="47.86218" lon="5.41584">
        <ele>355.3401</ele>
        <time>2014-08-04T15:39:38Z</time>
      </trkpt>
      <trkpt lat="47.86219" lon="5.41575">
        <ele>352.1472</ele>
        <time>2014-08-04T15:39:39Z</time>
      </trkpt>
      <trkpt lat="47.86219" lon="5.41568">
        <ele>352.2196</ele>
        <time>2014-08-04T15:39:40Z</time>
      </trkpt>
      <trkpt lat="47.86219" lon="5.41558">
        <ele>352.0636</ele>
        <time>2014-08-04T15:39:41Z</time>
      </trkpt>
      <trkpt lat="47.86222" lon="5.41544">
        <ele>352.6864</ele>
        <time>2014-08-04T15:39:43Z</time>
      </trkpt>
      <trkpt lat="47.86223" lon="5.41536">
        <ele>353.3435</ele>
        <time>2014-08-04T15:39:44Z</time>
      </trkpt>
      <trkpt lat="47.86223" lon="5.41528">
        <ele>353.4008</ele>
        <time>2014-08-04T15:39:45Z</time>
      </trkpt>
      <trkpt lat="47.86223" lon="5.41519">
        <ele>349.8329</ele>
        <time>2014-08-04T15:39:46Z</time>
      </trkpt>
      <trkpt lat="47.86223" lon="5.41511">
        <ele>350.615</ele>
        <time>2014-08-04T15:39:47Z</time>
      </trkpt>
      <trkpt lat="47.86223" lon="5.41502">
        <ele>351.7502</ele>
        <time>2014-08-04T15:39:48Z</time>
      </trkpt>
      <trkpt lat="47.86223" lon="5.41494">
        <ele>350.829</ele>
        <time>2014-08-04T15:39:49Z</time>
      </trkpt>
      <trkpt lat="47.86223" lon="5.41487">
        <ele>353.5506</ele>
        <time>2014-08-04T15:39:50Z</time>
      </trkpt>
      <trkpt lat="47.86225" lon="5.41477">
        <ele>354.334</ele>
        <time>2014-08-04T15:39:51Z</time>
      </trkpt>
      <trkpt lat="47.86225" lon="5.41469">
        <ele>355.2711</ele>
        <time>2014-08-04T15:39:52Z</time>
      </trkpt>
      <trkpt lat="47.86225" lon="5.41458">
        <ele>347.515</ele>
        <time>2014-08-04T15:39:53Z</time>
      </trkpt>
      <trkpt lat="47.86225" lon="5.4145">
        <ele>346.4664</ele>
        <time>2014-08-04T15:39:54Z</time>
      </trkpt>
      <trkpt lat="47.86227" lon="5.41436">
        <ele>345.6305</ele>
        <time>2014-08-04T15:39:56Z</time>
      </trkpt>
      <trkpt lat="47.86229" lon="5.41429">
        <ele>346.9227</ele>
        <time>2014-08-04T15:39:57Z</time>
      </trkpt>
      <trkpt lat="47.86231" lon="5.4142">
        <ele>347.1725</ele>
        <time>2014-08-04T15:39:58Z</time>
      </trkpt>
      <trkpt lat="47.86232" lon="5.41413">
        <ele>349.5887</ele>
        <time>2014-08-04T15:39:59Z</time>
      </trkpt>
      <trkpt lat="47.86234" lon="5.41405">
        <ele>352.4545</ele>
        <time>2014-08-04T15:40:00Z</time>
      </trkpt>
      <trkpt lat="47.86236" lon="5.41396">
        <ele>353.4827</ele>
        <time>2014-08-04T15:40:01Z</time>
      </trkpt>
      <trkpt lat="47.86237" lon="5.41389">
        <ele>353.6251</ele>
        <time>2014-08-04T15:40:02Z</time>
      </trkpt>
      <trkpt lat="47.86238" lon="5.41382">
        <ele>354.4821</ele>
        <time>2014-08-04T15:40:03Z</time>
      </trkpt>
      <trkpt lat="47.86239" lon="5.41373">
        <ele>355.7658</ele>
        <time>2014-08-04T15:40:04Z</time>
      </trkpt>
      <trkpt lat="47.86239" lon="5.41363">
        <ele>356.7115</ele>
        <time>2014-08-04T15:40:05Z</time>
      </trkpt>
      <trkpt lat="47.86239" lon="5.41355">
        <ele>357.7643</ele>
        <time>2014-08-04T15:40:06Z</time>
      </trkpt>
      <trkpt lat="47.8624" lon="5.41346">
        <ele>357.2954</ele>
        <time>2014-08-04T15:40:07Z</time>
      </trkpt>
      <trkpt lat="47.8624" lon="5.41338">
        <ele>356.7864</ele>
        <time>2014-08-04T15:40:08Z</time>
      </trkpt>
      <trkpt lat="47.86241" lon="5.41329">
        <ele>355.7706</ele>
        <time>2014-08-04T15:40:09Z</time>
      </trkpt>
      <trkpt lat="47.86243" lon="5.41321">
        <ele>354.5557</ele>
        <time>2014-08-04T15:40:10Z</time>
      </trkpt>
      <trkpt lat="47.86246" lon="5.41313">
        <ele>354.1169</ele>
        <time>2014-08-04T15:40:11Z</time>
      </trkpt>
      <trkpt lat="47.86248" lon="5.41306">
        <ele>354.3315</ele>
        <time>2014-08-04T15:40:12Z</time>
      </trkpt>
      <trkpt lat="47.86251" lon="5.41299">
        <ele>355.5844</ele>
        <time>2014-08-04T15:40:13Z</time>
      </trkpt>
      <trkpt lat="47.86255" lon="5.41292">
        <ele>356.1972</ele>
        <time>2014-08-04T15:40:14Z</time>
      </trkpt>
      <trkpt lat="47.86259" lon="5.41285">
        <ele>356.4582</ele>
        <time>2014-08-04T15:40:15Z</time>
      </trkpt>
      <trkpt lat="47.86263" lon="5.41277">
        <ele>356.5925</ele>
        <time>2014-08-04T15:40:16Z</time>
      </trkpt>
      <trkpt lat="47.86268" lon="5.41273">
        <ele>356.0595</ele>
        <time>2014-08-04T15:40:17Z</time>
      </trkpt>
      <trkpt lat="47.86272" lon="5.4127">
        <ele>355.5106</ele>
        <time>2014-08-04T15:40:18Z</time>
      </trkpt>
      <trkpt lat="47.86278" lon="5.41268">
        <ele>355.7829</ele>
        <time>2014-08-04T15:40:19Z</time>
      </trkpt>
      <trkpt lat="47.86283" lon="5.41267">
        <ele>355.7789</ele>
        <time>2014-08-04T15:40:20Z</time>
      </trkpt>
      <trkpt lat="47.86289" lon="5.41268">
        <ele>353.539</ele>
        <time>2014-08-04T15:40:21Z</time>
      </trkpt>
      <trkpt lat="47.86296" lon="5.41269">
        <ele>351.9136</ele>
        <time>2014-08-04T15:40:22Z</time>
      </trkpt>
      <trkpt lat="47.86301" lon="5.4127">
        <ele>350.6359</ele>
        <time>2014-08-04T15:40:23Z</time>
      </trkpt>
      <trkpt lat="47.86306" lon="5.41271">
        <ele>350.2319</ele>
        <time>2014-08-04T15:40:24Z</time>
      </trkpt>
      <trkpt lat="47.86311" lon="5.41272">
        <ele>349.9937</ele>
        <time>2014-08-04T15:40:25Z</time>
      </trkpt>
      <trkpt lat="47.86316" lon="5.41271">
        <ele>350.2014</ele>
        <time>2014-08-04T15:40:26Z</time>
      </trkpt>
      <trkpt lat="47.86322" lon="5.4127">
        <ele>351.0279</ele>
        <time>2014-08-04T15:40:27Z</time>
      </trkpt>
      <trkpt lat="47.86328" lon="5.41268">
        <ele>351.7806</ele>
        <time>2014-08-04T15:40:28Z</time>
      </trkpt>
      <trkpt lat="47.86333" lon="5.41267">
        <ele>352.4879</ele>
        <time>2014-08-04T15:40:29Z</time>
      </trkpt>
      <trkpt lat="47.86337" lon="5.41266">
        <ele>353.0363</ele>
        <time>2014-08-04T15:40:30Z</time>
      </trkpt>
      <trkpt lat="47.86343" lon="5.41267">
        <ele>353.3575</ele>
        <time>2014-08-04T15:40:31Z</time>
      </trkpt>
      <trkpt lat="47.86348" lon="5.41269">
        <ele>353.1949</ele>
        <time>2014-08-04T15:40:32Z</time>
      </trkpt>
      <trkpt lat="47.86357" lon="5.41272">
        <ele>351.9511</ele>
        <time>2014-08-04T15:40:34Z</time>
      </trkpt>
      <trkpt lat="47.86361" lon="5.41275">
        <ele>351.6245</ele>
        <time>2014-08-04T15:40:35Z</time>
      </trkpt>
      <trkpt lat="47.86366" lon="5.41277">
        <ele>351.121</ele>
        <time>2014-08-04T15:40:36Z</time>
      </trkpt>
      <trkpt lat="47.8637" lon="5.4128">
        <ele>350.9346</ele>
        <time>2014-08-04T15:40:37Z</time>
      </trkpt>
      <trkpt lat="47.86374" lon="5.41283">
        <ele>350.9266</ele>
        <time>2014-08-04T15:40:38Z</time>
      </trkpt>
      <trkpt lat="47.86379" lon="5.41288">
        <ele>351.1389</ele>
        <time>2014-08-04T15:40:39Z</time>
      </trkpt>
      <trkpt lat="47.86383" lon="5.41293">
        <ele>350.9926</ele>
        <time>2014-08-04T15:40:40Z</time>
      </trkpt>
      <trkpt lat="47.86388" lon="5.41298">
        <ele>352.6191</ele>
        <time>2014-08-04T15:40:41Z</time>
      </trkpt>
      <trkpt lat="47.86392" lon="5.41304">
        <ele>355.3659</ele>
        <time>2014-08-04T15:40:42Z</time>
      </trkpt>
      <trkpt lat="47.86396" lon="5.41309">
        <ele>355.4909</ele>
        <time>2014-08-04T15:40:43Z</time>
      </trkpt>
      <trkpt lat="47.864" lon="5.41315">
        <ele>356.8349</ele>
        <time>2014-08-04T15:40:44Z</time>
      </trkpt>
      <trkpt lat="47.86405" lon="5.41322">
        <ele>355.8901</ele>
        <time>2014-08-04T15:40:45Z</time>
      </trkpt>
      <trkpt lat="47.86409" lon="5.41328">
        <ele>355.8327</ele>
        <time>2014-08-04T15:40:46Z</time>
      </trkpt>
      <trkpt lat="47.86413" lon="5.41333">
        <ele>355.2194</ele>
        <time>2014-08-04T15:40:47Z</time>
      </trkpt>
      <trkpt lat="47.86417" lon="5.41338">
        <ele>353.3822</ele>
        <time>2014-08-04T15:40:48Z</time>
      </trkpt>
      <trkpt lat="47.8642" lon="5.41343">
        <ele>354.7333</ele>
        <time>2014-08-04T15:40:49Z</time>
      </trkpt>
      <trkpt lat="47.86424" lon="5.41348">
        <ele>352.7534</ele>
        <time>2014-08-04T15:40:50Z</time>
      </trkpt>
      <trkpt lat="47.86428" lon="5.41352">
        <ele>352.6426</ele>
        <time>2014-08-04T15:40:51Z</time>
      </trkpt>
      <trkpt lat="47.86437" lon="5.41357">
        <ele>351.9124</ele>
        <time>2014-08-04T15:40:53Z</time>
      </trkpt>
      <trkpt lat="47.86442" lon="5.41355">
        <ele>352.162</ele>
        <time>2014-08-04T15:40:54Z</time>
      </trkpt>
      <trkpt lat="47.86449" lon="5.41349">
        <ele>353.0089</ele>
        <time>2014-08-04T15:40:56Z</time>
      </trkpt>
      <trkpt lat="47.86453" lon="5.41343">
        <ele>351.9304</ele>
        <time>2014-08-04T15:40:57Z</time>
      </trkpt>
      <trkpt lat="47.86458" lon="5.41337">
        <ele>352.313</ele>
        <time>2014-08-04T15:40:58Z</time>
      </trkpt>
      <trkpt lat="47.86463" lon="5.41332">
        <ele>353.0417</ele>
        <time>2014-08-04T15:40:59Z</time>
      </trkpt>
      <trkpt lat="47.86467" lon="5.41327">
        <ele>352.7162</ele>
        <time>2014-08-04T15:41:00Z</time>
      </trkpt>
      <trkpt lat="47.86472" lon="5.41322">
        <ele>353.7276</ele>
        <time>2014-08-04T15:41:01Z</time>
      </trkpt>
      <trkpt lat="47.86477" lon="5.4132">
        <ele>353.0843</ele>
        <time>2014-08-04T15:41:02Z</time>
      </trkpt>
      <trkpt lat="47.86482" lon="5.41317">
        <ele>352.2252</ele>
        <time>2014-08-04T15:41:03Z</time>
      </trkpt>
      <trkpt lat="47.86487" lon="5.41316">
        <ele>352.81</ele>
        <time>2014-08-04T15:41:04Z</time>
      </trkpt>
      <trkpt lat="47.86492" lon="5.41317">
        <ele>355.9755</ele>
        <time>2014-08-04T15:41:05Z</time>
      </trkpt>
      <trkpt lat="47.86496" lon="5.41317">
        <ele>357.4155</ele>
        <time>2014-08-04T15:41:06Z</time>
      </trkpt>
      <trkpt lat="47.86502" lon="5.41318">
        <ele>358.7141</ele>
        <time>2014-08-04T15:41:07Z</time>
      </trkpt>
      <trkpt lat="47.86508" lon="5.41318">
        <ele>358.2728</ele>
        <time>2014-08-04T15:41:08Z</time>
      </trkpt>
      <trkpt lat="47.86513" lon="5.4132">
        <ele>358.9451</ele>
        <time>2014-08-04T15:41:09Z</time>
      </trkpt>
      <trkpt lat="47.86519" lon="5.4132">
        <ele>356.922</ele>
        <time>2014-08-04T15:41:10Z</time>
      </trkpt>
      <trkpt lat="47.86526" lon="5.41321">
        <ele>355.0552</ele>
        <time>2014-08-04T15:41:11Z</time>
      </trkpt>
      <trkpt lat="47.86532" lon="5.41322">
        <ele>353.6989</ele>
        <time>2014-08-04T15:41:12Z</time>
      </trkpt>
      <trkpt lat="47.86538" lon="5.41319">
        <ele>352.2754</ele>
        <time>2014-08-04T15:41:13Z</time>
      </trkpt>
      <trkpt lat="47.86544" lon="5.41317">
        <ele>351.3409</ele>
        <time>2014-08-04T15:41:14Z</time>
      </trkpt>
      <trkpt lat="47.86549" lon="5.41313">
        <ele>350.1605</ele>
        <time>2014-08-04T15:41:15Z</time>
      </trkpt>
      <trkpt lat="47.86553" lon="5.41309">
        <ele>349.9639</ele>
        <time>2014-08-04T15:41:16Z</time>
      </trkpt>
      <trkpt lat="47.86557" lon="5.41305">
        <ele>349.4392</ele>
        <time>2014-08-04T15:41:17Z</time>
      </trkpt>
      <trkpt lat="47.86561" lon="5.41301">
        <ele>348.868</ele>
        <time>2014-08-04T15:41:18Z</time>
      </trkpt>
      <trkpt lat="47.86565" lon="5.41296">
        <ele>349.9371</ele>
        <time>2014-08-04T15:41:19Z</time>
      </trkpt>
      <trkpt lat="47.8657" lon="5.41291">
        <ele>350.0832</ele>
        <time>2014-08-04T15:41:20Z</time>
      </trkpt>
      <trkpt lat="47.86573" lon="5.41285">
        <ele>350.0996</ele>
        <time>2014-08-04T15:41:21Z</time>
      </trkpt>
      <trkpt lat="47.86577" lon="5.41279">
        <ele>350.9883</ele>
        <time>2014-08-04T15:41:22Z</time>
      </trkpt>
      <trkpt lat="47.8658" lon="5.41273">
        <ele>352.9456</ele>
        <time>2014-08-04T15:41:23Z</time>
      </trkpt>
      <trkpt lat="47.86585" lon="5.41267">
        <ele>351.7078</ele>
        <time>2014-08-04T15:41:24Z</time>
      </trkpt>
      <trkpt lat="47.86588" lon="5.41261">
        <ele>351.7078</ele>
        <time>2014-08-04T15:41:25Z</time>
      </trkpt>
      <trkpt lat="47.86594" lon="5.41257">
        <ele>348.1942</ele>
        <time>2014-08-04T15:41:26Z</time>
      </trkpt>
      <trkpt lat="47.86597" lon="5.4125">
        <ele>349.901</ele>
        <time>2014-08-04T15:41:27Z</time>
      </trkpt>
      <trkpt lat="47.866" lon="5.41244">
        <ele>351.1786</ele>
        <time>2014-08-04T15:41:28Z</time>
      </trkpt>
      <trkpt lat="47.86602" lon="5.41237">
        <ele>351.5141</ele>
        <time>2014-08-04T15:41:29Z</time>
      </trkpt>
      <trkpt lat="47.86604" lon="5.4123">
        <ele>351.7897</ele>
        <time>2014-08-04T15:41:30Z</time>
      </trkpt>
      <trkpt lat="47.86607" lon="5.41223">
        <ele>352.2626</ele>
        <time>2014-08-04T15:41:31Z</time>
      </trkpt>
      <trkpt lat="47.86607" lon="5.41214">
        <ele>351.6282</ele>
        <time>2014-08-04T15:41:32Z</time>
      </trkpt>
      <trkpt lat="47.86607" lon="5.41205">
        <ele>353.5962</ele>
        <time>2014-08-04T15:41:33Z</time>
      </trkpt>
      <trkpt lat="47.86608" lon="5.41197">
        <ele>354.1729</ele>
        <time>2014-08-04T15:41:34Z</time>
      </trkpt>
      <trkpt lat="47.86608" lon="5.4119">
        <ele>351.9698</ele>
        <time>2014-08-04T15:41:35Z</time>
      </trkpt>
      <trkpt lat="47.86608" lon="5.41181">
        <ele>353.1981</ele>
        <time>2014-08-04T15:41:36Z</time>
      </trkpt>
      <trkpt lat="47.86608" lon="5.41174">
        <ele>354.765</ele>
        <time>2014-08-04T15:41:37Z</time>
      </trkpt>
      <trkpt lat="47.86607" lon="5.41165">
        <ele>353.9032</ele>
        <time>2014-08-04T15:41:38Z</time>
      </trkpt>
      <trkpt lat="47.86607" lon="5.41157">
        <ele>352.9625</ele>
        <time>2014-08-04T15:41:39Z</time>
      </trkpt>
      <trkpt lat="47.86606" lon="5.41148">
        <ele>351.9767</ele>
        <time>2014-08-04T15:41:40Z</time>
      </trkpt>
      <trkpt lat="47.86606" lon="5.41139">
        <ele>351.8966</ele>
        <time>2014-08-04T15:41:41Z</time>
      </trkpt>
      <trkpt lat="47.86602" lon="5.41131">
        <ele>351.9479</ele>
        <time>2014-08-04T15:41:42Z</time>
      </trkpt>
      <trkpt lat="47.86599" lon="5.41125">
        <ele>352.8029</ele>
        <time>2014-08-04T15:41:43Z</time>
      </trkpt>
      <trkpt lat="47.86595" lon="5.41119">
        <ele>353.9005</ele>
        <time>2014-08-04T15:41:44Z</time>
      </trkpt>
      <trkpt lat="47.8659" lon="5.41113">
        <ele>354.5882</ele>
        <time>2014-08-04T15:41:45Z</time>
      </trkpt>
      <trkpt lat="47.86585" lon="5.41108">
        <ele>354.0021</ele>
        <time>2014-08-04T15:41:46Z</time>
      </trkpt>
      <trkpt lat="47.8658" lon="5.41104">
        <ele>353.5114</ele>
        <time>2014-08-04T15:41:47Z</time>
      </trkpt>
      <trkpt lat="47.86575" lon="5.411">
        <ele>352.8605</ele>
        <time>2014-08-04T15:41:48Z</time>
      </trkpt>
      <trkpt lat="47.8657" lon="5.41096">
        <ele>352.2538</ele>
        <time>2014-08-04T15:41:49Z</time>
      </trkpt>
      <trkpt lat="47.86565" lon="5.41091">
        <ele>351.4812</ele>
        <time>2014-08-04T15:41:50Z</time>
      </trkpt>
      <trkpt lat="47.8656" lon="5.41087">
        <ele>351.1725</ele>
        <time>2014-08-04T15:41:51Z</time>
      </trkpt>
      <trkpt lat="47.86554" lon="5.41084">
        <ele>352.5878</ele>
        <time>2014-08-04T15:41:52Z</time>
      </trkpt>
      <trkpt lat="47.86549" lon="5.4108">
        <ele>353.6284</ele>
        <time>2014-08-04T15:41:53Z</time>
      </trkpt>
      <trkpt lat="47.86544" lon="5.41077">
        <ele>352.5181</ele>
        <time>2014-08-04T15:41:54Z</time>
      </trkpt>
      <trkpt lat="47.86539" lon="5.41074">
        <ele>352.4067</ele>
        <time>2014-08-04T15:41:55Z</time>
      </trkpt>
      <trkpt lat="47.86534" lon="5.41072">
        <ele>352.5825</ele>
        <time>2014-08-04T15:41:56Z</time>
      </trkpt>
      <trkpt lat="47.86528" lon="5.41069">
        <ele>353.9053</ele>
        <time>2014-08-04T15:41:57Z</time>
      </trkpt>
      <trkpt lat="47.86523" lon="5.41067">
        <ele>350.9723</ele>
        <time>2014-08-04T15:41:58Z</time>
      </trkpt>
      <trkpt lat="47.86517" lon="5.41064">
        <ele>352.2729</ele>
        <time>2014-08-04T15:41:59Z</time>
      </trkpt>
      <trkpt lat="47.86512" lon="5.41062">
        <ele>348.1281</ele>
        <time>2014-08-04T15:42:00Z</time>
      </trkpt>
      <trkpt lat="47.86507" lon="5.41059">
        <ele>346.6568</ele>
        <time>2014-08-04T15:42:01Z</time>
      </trkpt>
      <trkpt lat="47.86502" lon="5.41055">
        <ele>349.1242</ele>
        <time>2014-08-04T15:42:02Z</time>
      </trkpt>
      <trkpt lat="47.86497" lon="5.41051">
        <ele>348.9098</ele>
        <time>2014-08-04T15:42:03Z</time>
      </trkpt>
      <trkpt lat="47.86493" lon="5.41047">
        <ele>350.7818</ele>
        <time>2014-08-04T15:42:04Z</time>
      </trkpt>
      <trkpt lat="47.86487" lon="5.41041">
        <ele>353.4296</ele>
        <time>2014-08-04T15:42:06Z</time>
      </trkpt>
      <trkpt lat="47.86482" lon="5.41035">
        <ele>351.963</ele>
        <time>2014-08-04T15:42:08Z</time>
      </trkpt>
      <trkpt lat="47.86477" lon="5.4103">
        <ele>352.7026</ele>
        <time>2014-08-04T15:42:09Z</time>
      </trkpt>
      <trkpt lat="47.86472" lon="5.41024">
        <ele>354.8691</ele>
        <time>2014-08-04T15:42:10Z</time>
      </trkpt>
      <trkpt lat="47.86468" lon="5.41017">
        <ele>351.5706</ele>
        <time>2014-08-04T15:42:11Z</time>
      </trkpt>
      <trkpt lat="47.86464" lon="5.41009">
        <ele>349.9787</ele>
        <time>2014-08-04T15:42:12Z</time>
      </trkpt>
      <trkpt lat="47.86462" lon="5.41001">
        <ele>348.4261</ele>
        <time>2014-08-04T15:42:13Z</time>
      </trkpt>
      <trkpt lat="47.86462" lon="5.40993">
        <ele>345.0516</ele>
        <time>2014-08-04T15:42:14Z</time>
      </trkpt>
      <trkpt lat="47.86464" lon="5.40986">
        <ele>347.5635</ele>
        <time>2014-08-04T15:42:15Z</time>
      </trkpt>
      <trkpt lat="47.86472" lon="5.40975">
        <ele>345.2083</ele>
        <time>2014-08-04T15:42:17Z</time>
      </trkpt>
      <trkpt lat="47.86476" lon="5.40969">
        <ele>347.4872</ele>
        <time>2014-08-04T15:42:18Z</time>
      </trkpt>
      <trkpt lat="47.8648" lon="5.40963">
        <ele>348.696</ele>
        <time>2014-08-04T15:42:19Z</time>
      </trkpt>
      <trkpt lat="47.86485" lon="5.40956">
        <ele>352.6882</ele>
        <time>2014-08-04T15:42:20Z</time>
      </trkpt>
      <trkpt lat="47.86488" lon="5.4095">
        <ele>353.1148</ele>
        <time>2014-08-04T15:42:21Z</time>
      </trkpt>
      <trkpt lat="47.86491" lon="5.40944">
        <ele>352.3504</ele>
        <time>2014-08-04T15:42:22Z</time>
      </trkpt>
      <trkpt lat="47.86494" lon="5.40939">
        <ele>353.3795</ele>
        <time>2014-08-04T15:42:23Z</time>
      </trkpt>
      <trkpt lat="47.86497" lon="5.40932">
        <ele>351.2182</ele>
        <time>2014-08-04T15:42:24Z</time>
      </trkpt>
      <trkpt lat="47.86501" lon="5.40926">
        <ele>353.5617</ele>
        <time>2014-08-04T15:42:25Z</time>
      </trkpt>
      <trkpt lat="47.86504" lon="5.4092">
        <ele>353.9726</ele>
        <time>2014-08-04T15:42:26Z</time>
      </trkpt>
      <trkpt lat="47.86507" lon="5.40915">
        <ele>354.7227</ele>
        <time>2014-08-04T15:42:27Z</time>
      </trkpt>
      <trkpt lat="47.86511" lon="5.4091">
        <ele>355.0845</ele>
        <time>2014-08-04T15:42:28Z</time>
      </trkpt>
      <trkpt lat="47.86515" lon="5.40905">
        <ele>355.4705</ele>
        <time>2014-08-04T15:42:29Z</time>
      </trkpt>
      <trkpt lat="47.86519" lon="5.409">
        <ele>353.9951</ele>
        <time>2014-08-04T15:42:30Z</time>
      </trkpt>
      <trkpt lat="47.86525" lon="5.4089">
        <ele>354.9279</ele>
        <time>2014-08-04T15:42:32Z</time>
      </trkpt>
      <trkpt lat="47.86531" lon="5.40879">
        <ele>355.81</ele>
        <time>2014-08-04T15:42:34Z</time>
      </trkpt>
      <trkpt lat="47.86535" lon="5.40872">
        <ele>356.7587</ele>
        <time>2014-08-04T15:42:35Z</time>
      </trkpt>
      <trkpt lat="47.86538" lon="5.4086">
        <ele>353.7954</ele>
        <time>2014-08-04T15:42:37Z</time>
      </trkpt>
      <trkpt lat="47.8654" lon="5.40854">
        <ele>353.1102</ele>
        <time>2014-08-04T15:42:38Z</time>
      </trkpt>
      <trkpt lat="47.86539" lon="5.4084">
        <ele>353.1349</ele>
        <time>2014-08-04T15:42:40Z</time>
      </trkpt>
      <trkpt lat="47.86536" lon="5.40834">
        <ele>353.8673</ele>
        <time>2014-08-04T15:42:41Z</time>
      </trkpt>
      <trkpt lat="47.86535" lon="5.40828">
        <ele>355.0299</ele>
        <time>2014-08-04T15:42:42Z</time>
      </trkpt>
      <trkpt lat="47.86532" lon="5.40821">
        <ele>356.608</ele>
        <time>2014-08-04T15:42:43Z</time>
      </trkpt>
      <trkpt lat="47.8653" lon="5.40814">
        <ele>357.1761</ele>
        <time>2014-08-04T15:42:44Z</time>
      </trkpt>
      <trkpt lat="47.86529" lon="5.40805">
        <ele>357.0783</ele>
        <time>2014-08-04T15:42:45Z</time>
      </trkpt>
      <trkpt lat="47.86527" lon="5.40796">
        <ele>355.6788</ele>
        <time>2014-08-04T15:42:46Z</time>
      </trkpt>
      <trkpt lat="47.86526" lon="5.40789">
        <ele>355.7808</ele>
        <time>2014-08-04T15:42:47Z</time>
      </trkpt>
      <trkpt lat="47.86525" lon="5.40781">
        <ele>355.1436</ele>
        <time>2014-08-04T15:42:48Z</time>
      </trkpt>
      <trkpt lat="47.86524" lon="5.40775">
        <ele>355.3769</ele>
        <time>2014-08-04T15:42:49Z</time>
      </trkpt>
      <trkpt lat="47.86525" lon="5.40761">
        <ele>352.838</ele>
        <time>2014-08-04T15:42:51Z</time>
      </trkpt>
      <trkpt lat="47.86527" lon="5.40754">
        <ele>352.0822</ele>
        <time>2014-08-04T15:42:52Z</time>
      </trkpt>
      <trkpt lat="47.8653" lon="5.40746">
        <ele>350.5096</ele>
        <time>2014-08-04T15:42:53Z</time>
      </trkpt>
      <trkpt lat="47.86531" lon="5.40739">
        <ele>350.6343</ele>
        <time>2014-08-04T15:42:54Z</time>
      </trkpt>
      <trkpt lat="47.86533" lon="5.4073">
        <ele>350.9695</ele>
        <time>2014-08-04T15:42:55Z</time>
      </trkpt>
      <trkpt lat="47.86535" lon="5.40723">
        <ele>350.4685</ele>
        <time>2014-08-04T15:42:56Z</time>
      </trkpt>
      <trkpt lat="47.86539" lon="5.40714">
        <ele>352.0772</ele>
        <time>2014-08-04T15:42:58Z</time>
      </trkpt>
      <trkpt lat="47.86544" lon="5.4071">
        <ele>352.7049</ele>
        <time>2014-08-04T15:43:00Z</time>
      </trkpt>
      <trkpt lat="47.86548" lon="5.407">
        <ele>353.494</ele>
        <time>2014-08-04T15:43:02Z</time>
      </trkpt>
      <trkpt lat="47.8655" lon="5.40694">
        <ele>353.6901</ele>
        <time>2014-08-04T15:43:03Z</time>
      </trkpt>
      <trkpt lat="47.86552" lon="5.40686">
        <ele>353.0886</ele>
        <time>2014-08-04T15:43:04Z</time>
      </trkpt>
      <trkpt lat="47.86552" lon="5.40679">
        <ele>354.5993</ele>
        <time>2014-08-04T15:43:05Z</time>
      </trkpt>
      <trkpt lat="47.86554" lon="5.40668">
        <ele>355.7916</ele>
        <time>2014-08-04T15:43:07Z</time>
      </trkpt>
      <trkpt lat="47.86557" lon="5.40655">
        <ele>353.0219</ele>
        <time>2014-08-04T15:43:09Z</time>
      </trkpt>
      <trkpt lat="47.86559" lon="5.40649">
        <ele>353.0112</ele>
        <time>2014-08-04T15:43:10Z</time>
      </trkpt>
      <trkpt lat="47.86561" lon="5.40637">
        <ele>354.4473</ele>
        <time>2014-08-04T15:43:12Z</time>
      </trkpt>
      <trkpt lat="47.86564" lon="5.40626">
        <ele>353.3286</ele>
        <time>2014-08-04T15:43:14Z</time>
      </trkpt>
      <trkpt lat="47.86567" lon="5.4062">
        <ele>354.0721</ele>
        <time>2014-08-04T15:43:15Z</time>
      </trkpt>
      <trkpt lat="47.86572" lon="5.4061">
        <ele>353.4114</ele>
        <time>2014-08-04T15:43:17Z</time>
      </trkpt>
      <trkpt lat="47.86576" lon="5.40599">
        <ele>352.6077</ele>
        <time>2014-08-04T15:43:19Z</time>
      </trkpt>
      <trkpt lat="47.86579" lon="5.40594">
        <ele>351.7532</ele>
        <time>2014-08-04T15:43:20Z</time>
      </trkpt>
      <trkpt lat="47.86585" lon="5.40582">
        <ele>355.9124</ele>
        <time>2014-08-04T15:43:22Z</time>
      </trkpt>
      <trkpt lat="47.86588" lon="5.40574">
        <ele>355.0841</ele>
        <time>2014-08-04T15:43:23Z</time>
      </trkpt>
      <trkpt lat="47.86591" lon="5.40567">
        <ele>354.3215</ele>
        <time>2014-08-04T15:43:24Z</time>
      </trkpt>
      <trkpt lat="47.86594" lon="5.4056">
        <ele>353.0029</ele>
        <time>2014-08-04T15:43:25Z</time>
      </trkpt>
      <trkpt lat="47.86597" lon="5.40553">
        <ele>353.9026</ele>
        <time>2014-08-04T15:43:26Z</time>
      </trkpt>
      <trkpt lat="47.86599" lon="5.40547">
        <ele>354.3338</ele>
        <time>2014-08-04T15:43:27Z</time>
      </trkpt>
      <trkpt lat="47.86601" lon="5.4054">
        <ele>354.3164</ele>
        <time>2014-08-04T15:43:28Z</time>
      </trkpt>
      <trkpt lat="47.86604" lon="5.40533">
        <ele>354.1304</ele>
        <time>2014-08-04T15:43:29Z</time>
      </trkpt>
      <trkpt lat="47.86607" lon="5.40527">
        <ele>352.1216</ele>
        <time>2014-08-04T15:43:30Z</time>
      </trkpt>
      <trkpt lat="47.86609" lon="5.40521">
        <ele>351.8904</ele>
        <time>2014-08-04T15:43:31Z</time>
      </trkpt>
      <trkpt lat="47.86613" lon="5.40517">
        <ele>352.7999</ele>
        <time>2014-08-04T15:43:32Z</time>
      </trkpt>
      <trkpt lat="47.8662" lon="5.4051">
        <ele>354.6879</ele>
        <time>2014-08-04T15:43:34Z</time>
      </trkpt>
      <trkpt lat="47.86624" lon="5.40506">
        <ele>355.461</ele>
        <time>2014-08-04T15:43:35Z</time>
      </trkpt>
      <trkpt lat="47.86628" lon="5.40501">
        <ele>355.0127</ele>
        <time>2014-08-04T15:43:36Z</time>
      </trkpt>
      <trkpt lat="47.86631" lon="5.40495">
        <ele>353.9875</ele>
        <time>2014-08-04T15:43:37Z</time>
      </trkpt>
      <trkpt lat="47.86636" lon="5.40489">
        <ele>353.2725</ele>
        <time>2014-08-04T15:43:38Z</time>
      </trkpt>
      <trkpt lat="47.86643" lon="5.40481">
        <ele>355.9501</ele>
        <time>2014-08-04T15:43:40Z</time>
      </trkpt>
      <trkpt lat="47.86647" lon="5.40479">
        <ele>357.7396</ele>
        <time>2014-08-04T15:43:41Z</time>
      </trkpt>
      <trkpt lat="47.86653" lon="5.40476">
        <ele>356.7028</ele>
        <time>2014-08-04T15:43:42Z</time>
      </trkpt>
      <trkpt lat="47.86658" lon="5.40472">
        <ele>355.3115</ele>
        <time>2014-08-04T15:43:43Z</time>
      </trkpt>
      <trkpt lat="47.86663" lon="5.40466">
        <ele>356.2809</ele>
        <time>2014-08-04T15:43:44Z</time>
      </trkpt>
      <trkpt lat="47.86668" lon="5.4046">
        <ele>355.3236</ele>
        <time>2014-08-04T15:43:45Z</time>
      </trkpt>
      <trkpt lat="47.86672" lon="5.40457">
        <ele>356.9838</ele>
        <time>2014-08-04T15:43:46Z</time>
      </trkpt>
      <trkpt lat="47.86676" lon="5.40452">
        <ele>355.3475</ele>
        <time>2014-08-04T15:43:47Z</time>
      </trkpt>
      <trkpt lat="47.86679" lon="5.40443">
        <ele>355.226</ele>
        <time>2014-08-04T15:43:48Z</time>
      </trkpt>
      <trkpt lat="47.86681" lon="5.40437">
        <ele>356.7018</ele>
        <time>2014-08-04T15:43:49Z</time>
      </trkpt>
      <trkpt lat="47.86685" lon="5.40425">
        <ele>353.2748</ele>
        <time>2014-08-04T15:43:51Z</time>
      </trkpt>
      <trkpt lat="47.86686" lon="5.40417">
        <ele>355.2651</ele>
        <time>2014-08-04T15:43:52Z</time>
      </trkpt>
      <trkpt lat="47.86685" lon="5.4041">
        <ele>354.0809</ele>
        <time>2014-08-04T15:43:53Z</time>
      </trkpt>
      <trkpt lat="47.86683" lon="5.40401">
        <ele>357.1084</ele>
        <time>2014-08-04T15:43:55Z</time>
      </trkpt>
      <trkpt lat="47.8668" lon="5.40392">
        <ele>360.6086</ele>
        <time>2014-08-04T15:43:57Z</time>
      </trkpt>
      <trkpt lat="47.86675" lon="5.4039">
        <ele>359.402</ele>
        <time>2014-08-04T15:43:58Z</time>
      </trkpt>
      <trkpt lat="47.86668" lon="5.40389">
        <ele>358.57</ele>
        <time>2014-08-04T15:43:59Z</time>
      </trkpt>
      <trkpt lat="47.86663" lon="5.40389">
        <ele>358.1384</ele>
        <time>2014-08-04T15:44:00Z</time>
      </trkpt>
      <trkpt lat="47.86659" lon="5.4039">
        <ele>356.2616</ele>
        <time>2014-08-04T15:44:01Z</time>
      </trkpt>
      <trkpt lat="47.86649" lon="5.4039">
        <ele>356.3706</ele>
        <time>2014-08-04T15:44:03Z</time>
      </trkpt>
      <trkpt lat="47.86644" lon="5.4039">
        <ele>356.5775</ele>
        <time>2014-08-04T15:44:04Z</time>
      </trkpt>
      <trkpt lat="47.86638" lon="5.40391">
        <ele>356.8505</ele>
        <time>2014-08-04T15:44:05Z</time>
      </trkpt>
      <trkpt lat="47.86632" lon="5.40392">
        <ele>356.0249</ele>
        <time>2014-08-04T15:44:06Z</time>
      </trkpt>
      <trkpt lat="47.86626" lon="5.40393">
        <ele>357.5637</ele>
        <time>2014-08-04T15:44:07Z</time>
      </trkpt>
      <trkpt lat="47.86621" lon="5.40393">
        <ele>357.3044</ele>
        <time>2014-08-04T15:44:08Z</time>
      </trkpt>
      <trkpt lat="47.86615" lon="5.40392">
        <ele>357.5782</ele>
        <time>2014-08-04T15:44:09Z</time>
      </trkpt>
      <trkpt lat="47.86611" lon="5.4039">
        <ele>356.2555</ele>
        <time>2014-08-04T15:44:10Z</time>
      </trkpt>
      <trkpt lat="47.86607" lon="5.40387">
        <ele>357.1558</ele>
        <time>2014-08-04T15:44:11Z</time>
      </trkpt>
      <trkpt lat="47.866" lon="5.40379">
        <ele>358.9478</ele>
        <time>2014-08-04T15:44:13Z</time>
      </trkpt>
      <trkpt lat="47.86594" lon="5.40367">
        <ele>356.685</ele>
        <time>2014-08-04T15:44:15Z</time>
      </trkpt>
      <trkpt lat="47.86591" lon="5.4036">
        <ele>356.4436</ele>
        <time>2014-08-04T15:44:16Z</time>
      </trkpt>
      <trkpt lat="47.86588" lon="5.40351">
        <ele>353.7972</ele>
        <time>2014-08-04T15:44:18Z</time>
      </trkpt>
      <trkpt lat="47.86582" lon="5.40338">
        <ele>353.77</ele>
        <time>2014-08-04T15:44:20Z</time>
      </trkpt>
      <trkpt lat="47.86578" lon="5.4033">
        <ele>353.7216</ele>
        <time>2014-08-04T15:44:21Z</time>
      </trkpt>
      <trkpt lat="47.86575" lon="5.40321">
        <ele>352.5059</ele>
        <time>2014-08-04T15:44:22Z</time>
      </trkpt>
      <trkpt lat="47.86572" lon="5.40312">
        <ele>353.6341</ele>
        <time>2014-08-04T15:44:23Z</time>
      </trkpt>
      <trkpt lat="47.86569" lon="5.40304">
        <ele>352.7949</ele>
        <time>2014-08-04T15:44:24Z</time>
      </trkpt>
      <trkpt lat="47.86568" lon="5.40296">
        <ele>356.4328</ele>
        <time>2014-08-04T15:44:25Z</time>
      </trkpt>
      <trkpt lat="47.86566" lon="5.40289">
        <ele>354.5193</ele>
        <time>2014-08-04T15:44:26Z</time>
      </trkpt>
      <trkpt lat="47.86564" lon="5.40282">
        <ele>353.7732</ele>
        <time>2014-08-04T15:44:27Z</time>
      </trkpt>
      <trkpt lat="47.86562" lon="5.40276">
        <ele>354.4321</ele>
        <time>2014-08-04T15:44:28Z</time>
      </trkpt>
      <trkpt lat="47.86559" lon="5.4027">
        <ele>357.1692</ele>
        <time>2014-08-04T15:44:29Z</time>
      </trkpt>
      <trkpt lat="47.86557" lon="5.40264">
        <ele>357.2953</ele>
        <time>2014-08-04T15:44:30Z</time>
      </trkpt>
      <trkpt lat="47.86552" lon="5.40256">
        <ele>354.9532</ele>
        <time>2014-08-04T15:44:32Z</time>
      </trkpt>
      <trkpt lat="47.86549" lon="5.40249">
        <ele>351.9041</ele>
        <time>2014-08-04T15:44:33Z</time>
      </trkpt>
      <trkpt lat="47.86546" lon="5.40243">
        <ele>351.9278</ele>
        <time>2014-08-04T15:44:34Z</time>
      </trkpt>
      <trkpt lat="47.86541" lon="5.40237">
        <ele>355.3147</ele>
        <time>2014-08-04T15:44:35Z</time>
      </trkpt>
      <trkpt lat="47.86538" lon="5.40231">
        <ele>354.9804</ele>
        <time>2014-08-04T15:44:36Z</time>
      </trkpt>
      <trkpt lat="47.86531" lon="5.40222">
        <ele>357.5361</ele>
        <time>2014-08-04T15:44:38Z</time>
      </trkpt>
      <trkpt lat="47.86527" lon="5.40214">
        <ele>355.5806</ele>
        <time>2014-08-04T15:44:40Z</time>
      </trkpt>
      <trkpt lat="47.86522" lon="5.40207">
        <ele>353.0209</ele>
        <time>2014-08-04T15:44:42Z</time>
      </trkpt>
      <trkpt lat="47.86517" lon="5.40201">
        <ele>348.8296</ele>
        <time>2014-08-04T15:44:44Z</time>
      </trkpt>
      <trkpt lat="47.86512" lon="5.40193">
        <ele>353.3909</ele>
        <time>2014-08-04T15:44:46Z</time>
      </trkpt>
      <trkpt lat="47.86505" lon="5.40186">
        <ele>352.2227</ele>
        <time>2014-08-04T15:44:48Z</time>
      </trkpt>
      <trkpt lat="47.86499" lon="5.40178">
        <ele>351.7389</ele>
        <time>2014-08-04T15:44:50Z</time>
      </trkpt>
      <trkpt lat="47.86495" lon="5.40173">
        <ele>352.1907</ele>
        <time>2014-08-04T15:44:51Z</time>
      </trkpt>
      <trkpt lat="47.8649" lon="5.40168">
        <ele>349.2072</ele>
        <time>2014-08-04T15:44:52Z</time>
      </trkpt>
      <trkpt lat="47.86486" lon="5.40162">
        <ele>348.1987</ele>
        <time>2014-08-04T15:44:53Z</time>
      </trkpt>
      <trkpt lat="47.86481" lon="5.40156">
        <ele>348.0456</ele>
        <time>2014-08-04T15:44:54Z</time>
      </trkpt>
      <trkpt lat="47.86476" lon="5.40151">
        <ele>348.1415</ele>
        <time>2014-08-04T15:44:55Z</time>
      </trkpt>
      <trkpt lat="47.86471" lon="5.40146">
        <ele>348.3831</ele>
        <time>2014-08-04T15:44:56Z</time>
      </trkpt>
      <trkpt lat="47.86466" lon="5.4014">
        <ele>349.6541</ele>
        <time>2014-08-04T15:44:57Z</time>
      </trkpt>
      <trkpt lat="47.86458" lon="5.40132">
        <ele>353.4157</ele>
        <time>2014-08-04T15:44:58Z</time>
      </trkpt>
      <trkpt lat="47.86451" lon="5.40123">
        <ele>354.3906</ele>
        <time>2014-08-04T15:44:59Z</time>
      </trkpt>
      <trkpt lat="47.86445" lon="5.40115">
        <ele>354.1551</ele>
        <time>2014-08-04T15:45:00Z</time>
      </trkpt>
      <trkpt lat="47.8644" lon="5.4011">
        <ele>354.0927</ele>
        <time>2014-08-04T15:45:01Z</time>
      </trkpt>
      <trkpt lat="47.86436" lon="5.40106">
        <ele>354.3124</ele>
        <time>2014-08-04T15:45:02Z</time>
      </trkpt>
      <trkpt lat="47.86429" lon="5.401">
        <ele>355.0021</ele>
        <time>2014-08-04T15:45:04Z</time>
      </trkpt>
      <trkpt lat="47.86424" lon="5.40098">
        <ele>356.9241</ele>
        <time>2014-08-04T15:45:05Z</time>
      </trkpt>
      <trkpt lat="47.86416" lon="5.40093">
        <ele>353.6295</ele>
        <time>2014-08-04T15:45:07Z</time>
      </trkpt>
      <trkpt lat="47.86412" lon="5.40086">
        <ele>353.1655</ele>
        <time>2014-08-04T15:45:08Z</time>
      </trkpt>
      <trkpt lat="47.86409" lon="5.4008">
        <ele>352.894</ele>
        <time>2014-08-04T15:45:09Z</time>
      </trkpt>
      <trkpt lat="47.86406" lon="5.40074">
        <ele>354.22</ele>
        <time>2014-08-04T15:45:10Z</time>
      </trkpt>
      <trkpt lat="47.86405" lon="5.40066">
        <ele>356.6255</ele>
        <time>2014-08-04T15:45:11Z</time>
      </trkpt>
      <trkpt lat="47.86403" lon="5.40056">
        <ele>357.4625</ele>
        <time>2014-08-04T15:45:12Z</time>
      </trkpt>
      <trkpt lat="47.86401" lon="5.40046">
        <ele>356.5673</ele>
        <time>2014-08-04T15:45:13Z</time>
      </trkpt>
      <trkpt lat="47.864" lon="5.40036">
        <ele>354.684</ele>
        <time>2014-08-04T15:45:14Z</time>
      </trkpt>
      <trkpt lat="47.86399" lon="5.40028">
        <ele>351.9929</ele>
        <time>2014-08-04T15:45:15Z</time>
      </trkpt>
      <trkpt lat="47.864" lon="5.4002">
        <ele>354.36</ele>
        <time>2014-08-04T15:45:16Z</time>
      </trkpt>
      <trkpt lat="47.864" lon="5.40012">
        <ele>355.6242</ele>
        <time>2014-08-04T15:45:17Z</time>
      </trkpt>
      <trkpt lat="47.864" lon="5.40004">
        <ele>356.8445</ele>
        <time>2014-08-04T15:45:18Z</time>
      </trkpt>
      <trkpt lat="47.864" lon="5.39994">
        <ele>357.5333</ele>
        <time>2014-08-04T15:45:19Z</time>
      </trkpt>
      <trkpt lat="47.86401" lon="5.39984">
        <ele>356.2266</ele>
        <time>2014-08-04T15:45:20Z</time>
      </trkpt>
      <trkpt lat="47.86402" lon="5.39973">
        <ele>356.8481</ele>
        <time>2014-08-04T15:45:21Z</time>
      </trkpt>
      <trkpt lat="47.86404" lon="5.39965">
        <ele>356.9418</ele>
        <time>2014-08-04T15:45:22Z</time>
      </trkpt>
      <trkpt lat="47.86404" lon="5.39957">
        <ele>356.862</ele>
        <time>2014-08-04T15:45:23Z</time>
      </trkpt>
      <trkpt lat="47.86405" lon="5.3995">
        <ele>357.4371</ele>
        <time>2014-08-04T15:45:24Z</time>
      </trkpt>
      <trkpt lat="47.86407" lon="5.39943">
        <ele>357.5619</ele>
        <time>2014-08-04T15:45:25Z</time>
      </trkpt>
      <trkpt lat="47.86408" lon="5.39937">
        <ele>357.6823</ele>
        <time>2014-08-04T15:45:26Z</time>
      </trkpt>
      <trkpt lat="47.86409" lon="5.39929">
        <ele>355.9705</ele>
        <time>2014-08-04T15:45:27Z</time>
      </trkpt>
      <trkpt lat="47.8641" lon="5.39921">
        <ele>355.6598</ele>
        <time>2014-08-04T15:45:28Z</time>
      </trkpt>
      <trkpt lat="47.86411" lon="5.39913">
        <ele>353.9922</ele>
        <time>2014-08-04T15:45:29Z</time>
      </trkpt>
      <trkpt lat="47.86411" lon="5.39906">
        <ele>354.0102</ele>
        <time>2014-08-04T15:45:30Z</time>
      </trkpt>
      <trkpt lat="47.86414" lon="5.39894">
        <ele>355.0458</ele>
        <time>2014-08-04T15:45:32Z</time>
      </trkpt>
      <trkpt lat="47.86415" lon="5.39886">
        <ele>355.2561</ele>
        <time>2014-08-04T15:45:33Z</time>
      </trkpt>
      <trkpt lat="47.86416" lon="5.39879">
        <ele>354.5387</ele>
        <time>2014-08-04T15:45:34Z</time>
      </trkpt>
      <trkpt lat="47.86417" lon="5.39872">
        <ele>354.1735</ele>
        <time>2014-08-04T15:45:35Z</time>
      </trkpt>
      <trkpt lat="47.86418" lon="5.39865">
        <ele>354.8829</ele>
        <time>2014-08-04T15:45:36Z</time>
      </trkpt>
      <trkpt lat="47.86419" lon="5.39858">
        <ele>354.3743</ele>
        <time>2014-08-04T15:45:37Z</time>
      </trkpt>
      <trkpt lat="47.8642" lon="5.39849">
        <ele>354.3056</ele>
        <time>2014-08-04T15:45:38Z</time>
      </trkpt>
      <trkpt lat="47.86421" lon="5.39841">
        <ele>353.2967</ele>
        <time>2014-08-04T15:45:39Z</time>
      </trkpt>
      <trkpt lat="47.86422" lon="5.39834">
        <ele>352.9958</ele>
        <time>2014-08-04T15:45:40Z</time>
      </trkpt>
      <trkpt lat="47.86424" lon="5.39826">
        <ele>353.2096</ele>
        <time>2014-08-04T15:45:41Z</time>
      </trkpt>
      <trkpt lat="47.86425" lon="5.39819">
        <ele>352.3022</ele>
        <time>2014-08-04T15:45:42Z</time>
      </trkpt>
      <trkpt lat="47.86429" lon="5.39813">
        <ele>352.1266</ele>
        <time>2014-08-04T15:45:43Z</time>
      </trkpt>
      <trkpt lat="47.86435" lon="5.39809">
        <ele>353.4379</ele>
        <time>2014-08-04T15:45:45Z</time>
      </trkpt>
      <trkpt lat="47.86444" lon="5.3981">
        <ele>353.8872</ele>
        <time>2014-08-04T15:45:47Z</time>
      </trkpt>
      <trkpt lat="47.86449" lon="5.3981">
        <ele>354.4652</ele>
        <time>2014-08-04T15:45:48Z</time>
      </trkpt>
      <trkpt lat="47.86454" lon="5.3981">
        <ele>353.8413</ele>
        <time>2014-08-04T15:45:49Z</time>
      </trkpt>
      <trkpt lat="47.86459" lon="5.39811">
        <ele>353.0204</ele>
        <time>2014-08-04T15:45:50Z</time>
      </trkpt>
      <trkpt lat="47.86464" lon="5.39812">
        <ele>353.3351</ele>
        <time>2014-08-04T15:45:51Z</time>
      </trkpt>
      <trkpt lat="47.86469" lon="5.39812">
        <ele>351.3169</ele>
        <time>2014-08-04T15:45:52Z</time>
      </trkpt>
      <trkpt lat="47.86474" lon="5.39814">
        <ele>348.5387</ele>
        <time>2014-08-04T15:45:53Z</time>
      </trkpt>
      <trkpt lat="47.86482" lon="5.39819">
        <ele>356.7249</ele>
        <time>2014-08-04T15:45:55Z</time>
      </trkpt>
      <trkpt lat="47.86486" lon="5.39823">
        <ele>356.312</ele>
        <time>2014-08-04T15:45:56Z</time>
      </trkpt>
      <trkpt lat="47.86491" lon="5.39826">
        <ele>356.9363</ele>
        <time>2014-08-04T15:45:57Z</time>
      </trkpt>
      <trkpt lat="47.86496" lon="5.39829">
        <ele>356.3974</ele>
        <time>2014-08-04T15:45:58Z</time>
      </trkpt>
      <trkpt lat="47.86501" lon="5.39833">
        <ele>352.694</ele>
        <time>2014-08-04T15:45:59Z</time>
      </trkpt>
      <trkpt lat="47.86505" lon="5.39837">
        <ele>352.3512</ele>
        <time>2014-08-04T15:46:00Z</time>
      </trkpt>
      <trkpt lat="47.86509" lon="5.39844">
        <ele>352.1243</ele>
        <time>2014-08-04T15:46:01Z</time>
      </trkpt>
      <trkpt lat="47.86514" lon="5.39849">
        <ele>352.3007</ele>
        <time>2014-08-04T15:46:02Z</time>
      </trkpt>
      <trkpt lat="47.86519" lon="5.39852">
        <ele>350.0812</ele>
        <time>2014-08-04T15:46:03Z</time>
      </trkpt>
      <trkpt lat="47.86524" lon="5.39854">
        <ele>350.1985</ele>
        <time>2014-08-04T15:46:04Z</time>
      </trkpt>
      <trkpt lat="47.86533" lon="5.39856">
        <ele>349.0975</ele>
        <time>2014-08-04T15:46:06Z</time>
      </trkpt>
      <trkpt lat="47.86538" lon="5.39858">
        <ele>350.139</ele>
        <time>2014-08-04T15:46:07Z</time>
      </trkpt>
      <trkpt lat="47.86543" lon="5.39859">
        <ele>352.3742</ele>
        <time>2014-08-04T15:46:08Z</time>
      </trkpt>
      <trkpt lat="47.86549" lon="5.3986">
        <ele>355.0237</ele>
        <time>2014-08-04T15:46:09Z</time>
      </trkpt>
      <trkpt lat="47.86554" lon="5.39859">
        <ele>353.7861</ele>
        <time>2014-08-04T15:46:10Z</time>
      </trkpt>
      <trkpt lat="47.86562" lon="5.39856">
        <ele>356.2856</ele>
        <time>2014-08-04T15:46:12Z</time>
      </trkpt>
      <trkpt lat="47.86566" lon="5.39853">
        <ele>355.7768</ele>
        <time>2014-08-04T15:46:13Z</time>
      </trkpt>
      <trkpt lat="47.86572" lon="5.39846">
        <ele>356.2239</ele>
        <time>2014-08-04T15:46:15Z</time>
      </trkpt>
      <trkpt lat="47.86576" lon="5.39842">
        <ele>355.5364</ele>
        <time>2014-08-04T15:46:16Z</time>
      </trkpt>
      <trkpt lat="47.86581" lon="5.39835">
        <ele>356.952</ele>
        <time>2014-08-04T15:46:18Z</time>
      </trkpt>
      <trkpt lat="47.86586" lon="5.39828">
        <ele>358.767</ele>
        <time>2014-08-04T15:46:20Z</time>
      </trkpt>
      <trkpt lat="47.86589" lon="5.39818">
        <ele>358.2486</ele>
        <time>2014-08-04T15:46:22Z</time>
      </trkpt>
      <trkpt lat="47.8659" lon="5.39805">
        <ele>354.0609</ele>
        <time>2014-08-04T15:46:24Z</time>
      </trkpt>
      <trkpt lat="47.86591" lon="5.39798">
        <ele>352.9413</ele>
        <time>2014-08-04T15:46:25Z</time>
      </trkpt>
      <trkpt lat="47.86591" lon="5.39783">
        <ele>355.584</ele>
        <time>2014-08-04T15:46:27Z</time>
      </trkpt>
      <trkpt lat="47.8659" lon="5.39773">
        <ele>358.9823</ele>
        <time>2014-08-04T15:46:29Z</time>
      </trkpt>
      <trkpt lat="47.86587" lon="5.39762">
        <ele>357.0023</ele>
        <time>2014-08-04T15:46:31Z</time>
      </trkpt>
      <trkpt lat="47.86583" lon="5.39752">
        <ele>356.9637</ele>
        <time>2014-08-04T15:46:33Z</time>
      </trkpt>
      <trkpt lat="47.86576" lon="5.39742">
        <ele>357.8849</ele>
        <time>2014-08-04T15:46:35Z</time>
      </trkpt>
      <trkpt lat="47.86572" lon="5.39735">
        <ele>358.9293</ele>
        <time>2014-08-04T15:46:36Z</time>
      </trkpt>
      <trkpt lat="47.86568" lon="5.39729">
        <ele>359.4969</ele>
        <time>2014-08-04T15:46:37Z</time>
      </trkpt>
      <trkpt lat="47.86562" lon="5.39721">
        <ele>355.0317</ele>
        <time>2014-08-04T15:46:39Z</time>
      </trkpt>
      <trkpt lat="47.86557" lon="5.39715">
        <ele>355.1301</ele>
        <time>2014-08-04T15:46:41Z</time>
      </trkpt>
      <trkpt lat="47.86552" lon="5.39713">
        <ele>356.7651</ele>
        <time>2014-08-04T15:46:43Z</time>
      </trkpt>
      <trkpt lat="47.86548" lon="5.39707">
        <ele>356.7924</ele>
        <time>2014-08-04T15:46:45Z</time>
      </trkpt>
      <trkpt lat="47.86546" lon="5.397">
        <ele>354.6258</ele>
        <time>2014-08-04T15:46:47Z</time>
      </trkpt>
      <trkpt lat="47.8654" lon="5.39695">
        <ele>353.2603</ele>
        <time>2014-08-04T15:46:49Z</time>
      </trkpt>
      <trkpt lat="47.86534" lon="5.39692">
        <ele>350.2187</ele>
        <time>2014-08-04T15:46:51Z</time>
      </trkpt>
      <trkpt lat="47.86528" lon="5.39689">
        <ele>351.2352</ele>
        <time>2014-08-04T15:46:53Z</time>
      </trkpt>
      <trkpt lat="47.86523" lon="5.39687">
        <ele>355.6497</ele>
        <time>2014-08-04T15:46:55Z</time>
      </trkpt>
      <trkpt lat="47.86517" lon="5.39684">
        <ele>357.3297</ele>
        <time>2014-08-04T15:46:57Z</time>
      </trkpt>
      <trkpt lat="47.86511" lon="5.3968">
        <ele>361.0887</ele>
        <time>2014-08-04T15:46:59Z</time>
      </trkpt>
      <trkpt lat="47.86505" lon="5.39675">
        <ele>358.7433</ele>
        <time>2014-08-04T15:47:01Z</time>
      </trkpt>
      <trkpt lat="47.86501" lon="5.39671">
        <ele>354.1199</ele>
        <time>2014-08-04T15:47:03Z</time>
      </trkpt>
      <trkpt lat="47.86496" lon="5.39666">
        <ele>354.0941</ele>
        <time>2014-08-04T15:47:05Z</time>
      </trkpt>
      <trkpt lat="47.86493" lon="5.39657">
        <ele>356.5822</ele>
        <time>2014-08-04T15:47:07Z</time>
      </trkpt>
      <trkpt lat="47.86491" lon="5.3964">
        <ele>357.7868</ele>
        <time>2014-08-04T15:47:09Z</time>
      </trkpt>
      <trkpt lat="47.86491" lon="5.3963">
        <ele>357.5355</ele>
        <time>2014-08-04T15:47:10Z</time>
      </trkpt>
      <trkpt lat="47.86491" lon="5.3962">
        <ele>356.6732</ele>
        <time>2014-08-04T15:47:11Z</time>
      </trkpt>
      <trkpt lat="47.86491" lon="5.39613">
        <ele>356.4022</ele>
        <time>2014-08-04T15:47:12Z</time>
      </trkpt>
      <trkpt lat="47.86493" lon="5.39606">
        <ele>356.999</ele>
        <time>2014-08-04T15:47:13Z</time>
      </trkpt>
      <trkpt lat="47.86496" lon="5.39597">
        <ele>357.5836</ele>
        <time>2014-08-04T15:47:14Z</time>
      </trkpt>
      <trkpt lat="47.86498" lon="5.39589">
        <ele>356.9177</ele>
        <time>2014-08-04T15:47:15Z</time>
      </trkpt>
      <trkpt lat="47.86502" lon="5.39581">
        <ele>355.9398</ele>
        <time>2014-08-04T15:47:16Z</time>
      </trkpt>
      <trkpt lat="47.86506" lon="5.39575">
        <ele>355.0169</ele>
        <time>2014-08-04T15:47:17Z</time>
      </trkpt>
      <trkpt lat="47.86509" lon="5.39571">
        <ele>356.0352</ele>
        <time>2014-08-04T15:47:18Z</time>
      </trkpt>
      <trkpt lat="47.86514" lon="5.39566">
        <ele>355.2753</ele>
        <time>2014-08-04T15:47:19Z</time>
      </trkpt>
      <trkpt lat="47.86521" lon="5.3956">
        <ele>359.7028</ele>
        <time>2014-08-04T15:47:21Z</time>
      </trkpt>
      <trkpt lat="47.86527" lon="5.39555">
        <ele>359.3784</ele>
        <time>2014-08-04T15:47:23Z</time>
      </trkpt>
      <trkpt lat="47.86534" lon="5.39547">
        <ele>354.8238</ele>
        <time>2014-08-04T15:47:25Z</time>
      </trkpt>
      <trkpt lat="47.8654" lon="5.39543">
        <ele>355.7768</ele>
        <time>2014-08-04T15:47:26Z</time>
      </trkpt>
      <trkpt lat="47.86546" lon="5.39538">
        <ele>355.6596</ele>
        <time>2014-08-04T15:47:27Z</time>
      </trkpt>
      <trkpt lat="47.86552" lon="5.39534">
        <ele>356.5686</ele>
        <time>2014-08-04T15:47:28Z</time>
      </trkpt>
      <trkpt lat="47.86557" lon="5.3953">
        <ele>355.7544</ele>
        <time>2014-08-04T15:47:29Z</time>
      </trkpt>
      <trkpt lat="47.86562" lon="5.39526">
        <ele>356.1104</ele>
        <time>2014-08-04T15:47:30Z</time>
      </trkpt>
      <trkpt lat="47.86567" lon="5.3952">
        <ele>352.0054</ele>
        <time>2014-08-04T15:47:31Z</time>
      </trkpt>
      <trkpt lat="47.86572" lon="5.39515">
        <ele>354.9525</ele>
        <time>2014-08-04T15:47:32Z</time>
      </trkpt>
      <trkpt lat="47.86577" lon="5.39508">
        <ele>354.3692</ele>
        <time>2014-08-04T15:47:33Z</time>
      </trkpt>
      <trkpt lat="47.86581" lon="5.39503">
        <ele>355.951</ele>
        <time>2014-08-04T15:47:34Z</time>
      </trkpt>
      <trkpt lat="47.86586" lon="5.39497">
        <ele>357.1805</ele>
        <time>2014-08-04T15:47:35Z</time>
      </trkpt>
      <trkpt lat="47.86591" lon="5.39492">
        <ele>359.9956</ele>
        <time>2014-08-04T15:47:36Z</time>
      </trkpt>
      <trkpt lat="47.86595" lon="5.39486">
        <ele>359.9478</ele>
        <time>2014-08-04T15:47:37Z</time>
      </trkpt>
      <trkpt lat="47.86599" lon="5.39482">
        <ele>359.0887</ele>
        <time>2014-08-04T15:47:38Z</time>
      </trkpt>
      <trkpt lat="47.86605" lon="5.39479">
        <ele>359.3839</ele>
        <time>2014-08-04T15:47:39Z</time>
      </trkpt>
      <trkpt lat="47.86611" lon="5.39474">
        <ele>356.0536</ele>
        <time>2014-08-04T15:47:40Z</time>
      </trkpt>
      <trkpt lat="47.86617" lon="5.39469">
        <ele>355.17</ele>
        <time>2014-08-04T15:47:41Z</time>
      </trkpt>
      <trkpt lat="47.86622" lon="5.39464">
        <ele>355.954</ele>
        <time>2014-08-04T15:47:42Z</time>
      </trkpt>
      <trkpt lat="47.86627" lon="5.3946">
        <ele>355.716</ele>
        <time>2014-08-04T15:47:43Z</time>
      </trkpt>
      <trkpt lat="47.86632" lon="5.39456">
        <ele>354.8303</ele>
        <time>2014-08-04T15:47:44Z</time>
      </trkpt>
      <trkpt lat="47.86636" lon="5.39449">
        <ele>354.1706</ele>
        <time>2014-08-04T15:47:45Z</time>
      </trkpt>
      <trkpt lat="47.8664" lon="5.39443">
        <ele>355.0443</ele>
        <time>2014-08-04T15:47:46Z</time>
      </trkpt>
      <trkpt lat="47.86645" lon="5.39435">
        <ele>355.6288</ele>
        <time>2014-08-04T15:47:47Z</time>
      </trkpt>
      <trkpt lat="47.86648" lon="5.39427">
        <ele>357.0313</ele>
        <time>2014-08-04T15:47:48Z</time>
      </trkpt>
      <trkpt lat="47.86651" lon="5.39419">
        <ele>354.2708</ele>
        <time>2014-08-04T15:47:49Z</time>
      </trkpt>
      <trkpt lat="47.86654" lon="5.3941">
        <ele>352.5396</ele>
        <time>2014-08-04T15:47:50Z</time>
      </trkpt>
      <trkpt lat="47.86657" lon="5.39401">
        <ele>354.7874</ele>
        <time>2014-08-04T15:47:51Z</time>
      </trkpt>
      <trkpt lat="47.86659" lon="5.39393">
        <ele>355.2198</ele>
        <time>2014-08-04T15:47:52Z</time>
      </trkpt>
      <trkpt lat="47.8666" lon="5.39385">
        <ele>355.9211</ele>
        <time>2014-08-04T15:47:53Z</time>
      </trkpt>
      <trkpt lat="47.86662" lon="5.39378">
        <ele>356.1875</ele>
        <time>2014-08-04T15:47:54Z</time>
      </trkpt>
      <trkpt lat="47.86663" lon="5.3937">
        <ele>357.971</ele>
        <time>2014-08-04T15:47:55Z</time>
      </trkpt>
      <trkpt lat="47.86664" lon="5.39363">
        <ele>356.0013</ele>
        <time>2014-08-04T15:47:56Z</time>
      </trkpt>
      <trkpt lat="47.86665" lon="5.39356">
        <ele>355.8007</ele>
        <time>2014-08-04T15:47:57Z</time>
      </trkpt>
      <trkpt lat="47.86666" lon="5.39349">
        <ele>356.0604</ele>
        <time>2014-08-04T15:47:58Z</time>
      </trkpt>
      <trkpt lat="47.86667" lon="5.39341">
        <ele>356.8386</ele>
        <time>2014-08-04T15:47:59Z</time>
      </trkpt>
      <trkpt lat="47.86668" lon="5.39334">
        <ele>356.954</ele>
        <time>2014-08-04T15:48:00Z</time>
      </trkpt>
      <trkpt lat="47.8667" lon="5.39324">
        <ele>355.0418</ele>
        <time>2014-08-04T15:48:01Z</time>
      </trkpt>
      <trkpt lat="47.86671" lon="5.39317">
        <ele>354.9425</ele>
        <time>2014-08-04T15:48:02Z</time>
      </trkpt>
      <trkpt lat="47.86672" lon="5.39311">
        <ele>353.5365</ele>
        <time>2014-08-04T15:48:03Z</time>
      </trkpt>
      <trkpt lat="47.86673" lon="5.39302">
        <ele>352.8887</ele>
        <time>2014-08-04T15:48:04Z</time>
      </trkpt>
      <trkpt lat="47.86673" lon="5.39293">
        <ele>353.3684</ele>
        <time>2014-08-04T15:48:05Z</time>
      </trkpt>
      <trkpt lat="47.86674" lon="5.39284">
        <ele>355.225</ele>
        <time>2014-08-04T15:48:06Z</time>
      </trkpt>
      <trkpt lat="47.86675" lon="5.39276">
        <ele>356.319</ele>
        <time>2014-08-04T15:48:07Z</time>
      </trkpt>
      <trkpt lat="47.86676" lon="5.39267">
        <ele>354.9983</ele>
        <time>2014-08-04T15:48:08Z</time>
      </trkpt>
      <trkpt lat="47.86677" lon="5.39258">
        <ele>357.4026</ele>
        <time>2014-08-04T15:48:09Z</time>
      </trkpt>
      <trkpt lat="47.86678" lon="5.3925">
        <ele>357.9995</ele>
        <time>2014-08-04T15:48:10Z</time>
      </trkpt>
      <trkpt lat="47.8668" lon="5.39242">
        <ele>356.8015</ele>
        <time>2014-08-04T15:48:11Z</time>
      </trkpt>
      <trkpt lat="47.86681" lon="5.39235">
        <ele>356.9693</ele>
        <time>2014-08-04T15:48:12Z</time>
      </trkpt>
      <trkpt lat="47.86682" lon="5.39227">
        <ele>358.771</ele>
        <time>2014-08-04T15:48:13Z</time>
      </trkpt>
      <trkpt lat="47.86683" lon="5.3922">
        <ele>360.3881</ele>
        <time>2014-08-04T15:48:14Z</time>
      </trkpt>
      <trkpt lat="47.86684" lon="5.39212">
        <ele>360.6584</ele>
        <time>2014-08-04T15:48:15Z</time>
      </trkpt>
      <trkpt lat="47.86685" lon="5.39204">
        <ele>359.6845</ele>
        <time>2014-08-04T15:48:16Z</time>
      </trkpt>
      <trkpt lat="47.86686" lon="5.3919">
        <ele>358.9791</ele>
        <time>2014-08-04T15:48:18Z</time>
      </trkpt>
      <trkpt lat="47.86686" lon="5.39182">
        <ele>358.3412</ele>
        <time>2014-08-04T15:48:19Z</time>
      </trkpt>
      <trkpt lat="47.86686" lon="5.39174">
        <ele>358.4406</ele>
        <time>2014-08-04T15:48:20Z</time>
      </trkpt>
      <trkpt lat="47.86686" lon="5.39165">
        <ele>358.7833</ele>
        <time>2014-08-04T15:48:21Z</time>
      </trkpt>
      <trkpt lat="47.86688" lon="5.39157">
        <ele>359.5544</ele>
        <time>2014-08-04T15:48:22Z</time>
      </trkpt>
      <trkpt lat="47.86689" lon="5.39151">
        <ele>358.4797</ele>
        <time>2014-08-04T15:48:23Z</time>
      </trkpt>
      <trkpt lat="47.86691" lon="5.39143">
        <ele>357.7854</ele>
        <time>2014-08-04T15:48:24Z</time>
      </trkpt>
      <trkpt lat="47.86693" lon="5.39137">
        <ele>358.2872</ele>
        <time>2014-08-04T15:48:25Z</time>
      </trkpt>
      <trkpt lat="47.86695" lon="5.39122">
        <ele>358.3531</ele>
        <time>2014-08-04T15:48:27Z</time>
      </trkpt>
      <trkpt lat="47.86696" lon="5.39116">
        <ele>360.1504</ele>
        <time>2014-08-04T15:48:28Z</time>
      </trkpt>
      <trkpt lat="47.86696" lon="5.39109">
        <ele>359.4613</ele>
        <time>2014-08-04T15:48:29Z</time>
      </trkpt>
      <trkpt lat="47.86697" lon="5.39102">
        <ele>357.9749</ele>
        <time>2014-08-04T15:48:30Z</time>
      </trkpt>
      <trkpt lat="47.86697" lon="5.39094">
        <ele>359.4485</ele>
        <time>2014-08-04T15:48:31Z</time>
      </trkpt>
      <trkpt lat="47.86697" lon="5.39085">
        <ele>359.6118</ele>
        <time>2014-08-04T15:48:32Z</time>
      </trkpt>
      <trkpt lat="47.86697" lon="5.39077">
        <ele>358.0099</ele>
        <time>2014-08-04T15:48:33Z</time>
      </trkpt>
      <trkpt lat="47.86696" lon="5.39069">
        <ele>356.3685</ele>
        <time>2014-08-04T15:48:34Z</time>
      </trkpt>
      <trkpt lat="47.86696" lon="5.39056">
        <ele>358.5084</ele>
        <time>2014-08-04T15:48:36Z</time>
      </trkpt>
      <trkpt lat="47.86695" lon="5.39047">
        <ele>357.9049</ele>
        <time>2014-08-04T15:48:37Z</time>
      </trkpt>
      <trkpt lat="47.86695" lon="5.3904">
        <ele>357.7516</ele>
        <time>2014-08-04T15:48:38Z</time>
      </trkpt>
      <trkpt lat="47.86695" lon="5.39028">
        <ele>360.1782</ele>
        <time>2014-08-04T15:48:40Z</time>
      </trkpt>
      <trkpt lat="47.86694" lon="5.39016">
        <ele>360.2847</ele>
        <time>2014-08-04T15:48:42Z</time>
      </trkpt>
      <trkpt lat="47.86692" lon="5.39004">
        <ele>359.2617</ele>
        <time>2014-08-04T15:48:44Z</time>
      </trkpt>
      <trkpt lat="47.86692" lon="5.38994">
        <ele>358.1385</ele>
        <time>2014-08-04T15:48:46Z</time>
      </trkpt>
      <trkpt lat="47.8669" lon="5.38982">
        <ele>357.1</ele>
        <time>2014-08-04T15:48:48Z</time>
      </trkpt>
      <trkpt lat="47.86689" lon="5.38974">
        <ele>356.4832</ele>
        <time>2014-08-04T15:48:49Z</time>
      </trkpt>
      <trkpt lat="47.86687" lon="5.38967">
        <ele>356.3671</ele>
        <time>2014-08-04T15:48:50Z</time>
      </trkpt>
      <trkpt lat="47.86685" lon="5.38961">
        <ele>358.4161</ele>
        <time>2014-08-04T15:48:51Z</time>
      </trkpt>
      <trkpt lat="47.86684" lon="5.38951">
        <ele>358.147</ele>
        <time>2014-08-04T15:48:52Z</time>
      </trkpt>
      <trkpt lat="47.86682" lon="5.38944">
        <ele>358.1002</ele>
        <time>2014-08-04T15:48:53Z</time>
      </trkpt>
      <trkpt lat="47.8668" lon="5.38933">
        <ele>359.7423</ele>
        <time>2014-08-04T15:48:54Z</time>
      </trkpt>
      <trkpt lat="47.86677" lon="5.38924">
        <ele>360.232</ele>
        <time>2014-08-04T15:48:55Z</time>
      </trkpt>
      <trkpt lat="47.86677" lon="5.38916">
        <ele>361.3081</ele>
        <time>2014-08-04T15:48:56Z</time>
      </trkpt>
      <trkpt lat="47.86675" lon="5.38904">
        <ele>365.2278</ele>
        <time>2014-08-04T15:48:58Z</time>
      </trkpt>
      <trkpt lat="47.86674" lon="5.38895">
        <ele>362.7673</ele>
        <time>2014-08-04T15:48:59Z</time>
      </trkpt>
      <trkpt lat="47.86673" lon="5.38881">
        <ele>358.4235</ele>
        <time>2014-08-04T15:49:01Z</time>
      </trkpt>
      <trkpt lat="47.86672" lon="5.38868">
        <ele>358.7214</ele>
        <time>2014-08-04T15:49:02Z</time>
      </trkpt>
      <trkpt lat="47.86671" lon="5.38859">
        <ele>359.0987</ele>
        <time>2014-08-04T15:49:03Z</time>
      </trkpt>
      <trkpt lat="47.86669" lon="5.3885">
        <ele>360.1391</ele>
        <time>2014-08-04T15:49:04Z</time>
      </trkpt>
      <trkpt lat="47.86667" lon="5.38836">
        <ele>361.1705</ele>
        <time>2014-08-04T15:49:06Z</time>
      </trkpt>
      <trkpt lat="47.86665" lon="5.38828">
        <ele>360.7261</ele>
        <time>2014-08-04T15:49:07Z</time>
      </trkpt>
      <trkpt lat="47.86663" lon="5.38821">
        <ele>360.135</ele>
        <time>2014-08-04T15:49:08Z</time>
      </trkpt>
      <trkpt lat="47.8666" lon="5.38813">
        <ele>359.3968</ele>
        <time>2014-08-04T15:49:09Z</time>
      </trkpt>
      <trkpt lat="47.86656" lon="5.38806">
        <ele>358.9619</ele>
        <time>2014-08-04T15:49:10Z</time>
      </trkpt>
      <trkpt lat="47.86654" lon="5.38798">
        <ele>359.0951</ele>
        <time>2014-08-04T15:49:11Z</time>
      </trkpt>
      <trkpt lat="47.86651" lon="5.38789">
        <ele>359.8701</ele>
        <time>2014-08-04T15:49:12Z</time>
      </trkpt>
      <trkpt lat="47.86649" lon="5.3878">
        <ele>361.9358</ele>
        <time>2014-08-04T15:49:13Z</time>
      </trkpt>
      <trkpt lat="47.86647" lon="5.38771">
        <ele>361.8741</ele>
        <time>2014-08-04T15:49:14Z</time>
      </trkpt>
      <trkpt lat="47.86646" lon="5.38763">
        <ele>364.0148</ele>
        <time>2014-08-04T15:49:15Z</time>
      </trkpt>
      <trkpt lat="47.86644" lon="5.38753">
        <ele>362.142</ele>
        <time>2014-08-04T15:49:16Z</time>
      </trkpt>
      <trkpt lat="47.86643" lon="5.38743">
        <ele>362.7132</ele>
        <time>2014-08-04T15:49:17Z</time>
      </trkpt>
      <trkpt lat="47.86641" lon="5.38734">
        <ele>363.7236</ele>
        <time>2014-08-04T15:49:18Z</time>
      </trkpt>
      <trkpt lat="47.8664" lon="5.38726">
        <ele>363.9066</ele>
        <time>2014-08-04T15:49:19Z</time>
      </trkpt>
      <trkpt lat="47.86639" lon="5.38718">
        <ele>362.0521</ele>
        <time>2014-08-04T15:49:20Z</time>
      </trkpt>
      <trkpt lat="47.86638" lon="5.38709">
        <ele>358.2469</ele>
        <time>2014-08-04T15:49:21Z</time>
      </trkpt>
      <trkpt lat="47.86638" lon="5.38701">
        <ele>356.0623</ele>
        <time>2014-08-04T15:49:22Z</time>
      </trkpt>
      <trkpt lat="47.86634" lon="5.38688">
        <ele>355.4105</ele>
        <time>2014-08-04T15:49:24Z</time>
      </trkpt>
      <trkpt lat="47.8663" lon="5.38675">
        <ele>355.7677</ele>
        <time>2014-08-04T15:49:26Z</time>
      </trkpt>
      <trkpt lat="47.86628" lon="5.38668">
        <ele>354.9746</ele>
        <time>2014-08-04T15:49:27Z</time>
      </trkpt>
      <trkpt lat="47.86626" lon="5.38661">
        <ele>354.4066</ele>
        <time>2014-08-04T15:49:28Z</time>
      </trkpt>
      <trkpt lat="47.86624" lon="5.38654">
        <ele>353.9766</ele>
        <time>2014-08-04T15:49:29Z</time>
      </trkpt>
      <trkpt lat="47.86622" lon="5.38647">
        <ele>356.1329</ele>
        <time>2014-08-04T15:49:30Z</time>
      </trkpt>
      <trkpt lat="47.8662" lon="5.38639">
        <ele>356.6815</ele>
        <time>2014-08-04T15:49:31Z</time>
      </trkpt>
      <trkpt lat="47.86619" lon="5.38633">
        <ele>356.9921</ele>
        <time>2014-08-04T15:49:32Z</time>
      </trkpt>
      <trkpt lat="47.86618" lon="5.38626">
        <ele>356.5616</ele>
        <time>2014-08-04T15:49:33Z</time>
      </trkpt>
      <trkpt lat="47.86617" lon="5.38618">
        <ele>355.1474</ele>
        <time>2014-08-04T15:49:34Z</time>
      </trkpt>
      <trkpt lat="47.86615" lon="5.38608">
        <ele>356.4684</ele>
        <time>2014-08-04T15:49:35Z</time>
      </trkpt>
      <trkpt lat="47.86613" lon="5.386">
        <ele>354.6014</ele>
        <time>2014-08-04T15:49:36Z</time>
      </trkpt>
      <trkpt lat="47.86612" lon="5.38592">
        <ele>355.5747</ele>
        <time>2014-08-04T15:49:37Z</time>
      </trkpt>
      <trkpt lat="47.86611" lon="5.38585">
        <ele>353.1547</ele>
        <time>2014-08-04T15:49:38Z</time>
      </trkpt>
      <trkpt lat="47.86612" lon="5.38578">
        <ele>351.638</ele>
        <time>2014-08-04T15:49:39Z</time>
      </trkpt>
      <trkpt lat="47.86612" lon="5.38569">
        <ele>353.2977</ele>
        <time>2014-08-04T15:49:40Z</time>
      </trkpt>
      <trkpt lat="47.86613" lon="5.38559">
        <ele>352.5692</ele>
        <time>2014-08-04T15:49:41Z</time>
      </trkpt>
      <trkpt lat="47.86613" lon="5.3855">
        <ele>352.4184</ele>
        <time>2014-08-04T15:49:42Z</time>
      </trkpt>
      <trkpt lat="47.86613" lon="5.38541">
        <ele>352.4215</ele>
        <time>2014-08-04T15:49:43Z</time>
      </trkpt>
      <trkpt lat="47.86613" lon="5.38534">
        <ele>353.5021</ele>
        <time>2014-08-04T15:49:44Z</time>
      </trkpt>
      <trkpt lat="47.86614" lon="5.38519">
        <ele>353.7867</ele>
        <time>2014-08-04T15:49:46Z</time>
      </trkpt>
      <trkpt lat="47.86614" lon="5.38512">
        <ele>354.7911</ele>
        <time>2014-08-04T15:49:47Z</time>
      </trkpt>
      <trkpt lat="47.86614" lon="5.38503">
        <ele>354.6181</ele>
        <time>2014-08-04T15:49:48Z</time>
      </trkpt>
      <trkpt lat="47.86615" lon="5.38494">
        <ele>352.8551</ele>
        <time>2014-08-04T15:49:49Z</time>
      </trkpt>
      <trkpt lat="47.86615" lon="5.38486">
        <ele>352.994</ele>
        <time>2014-08-04T15:49:50Z</time>
      </trkpt>
      <trkpt lat="47.86615" lon="5.38478">
        <ele>353.2561</ele>
        <time>2014-08-04T15:49:51Z</time>
      </trkpt>
      <trkpt lat="47.86614" lon="5.3847">
        <ele>353.9695</ele>
        <time>2014-08-04T15:49:52Z</time>
      </trkpt>
      <trkpt lat="47.86614" lon="5.3846">
        <ele>354.3842</ele>
        <time>2014-08-04T15:49:53Z</time>
      </trkpt>
      <trkpt lat="47.86613" lon="5.38451">
        <ele>354.9108</ele>
        <time>2014-08-04T15:49:54Z</time>
      </trkpt>
      <trkpt lat="47.86613" lon="5.38443">
        <ele>355.6355</ele>
        <time>2014-08-04T15:49:55Z</time>
      </trkpt>
      <trkpt lat="47.86612" lon="5.38435">
        <ele>355.2804</ele>
        <time>2014-08-04T15:49:56Z</time>
      </trkpt>
      <trkpt lat="47.86612" lon="5.38427">
        <ele>355.9381</ele>
        <time>2014-08-04T15:49:57Z</time>
      </trkpt>
      <trkpt lat="47.86611" lon="5.38414">
        <ele>353.5056</ele>
        <time>2014-08-04T15:49:59Z</time>
      </trkpt>
      <trkpt lat="47.86609" lon="5.38405">
        <ele>352.6145</ele>
        <time>2014-08-04T15:50:00Z</time>
      </trkpt>
      <trkpt lat="47.86607" lon="5.38398">
        <ele>352.8963</ele>
        <time>2014-08-04T15:50:01Z</time>
      </trkpt>
      <trkpt lat="47.86605" lon="5.3839">
        <ele>352.8293</ele>
        <time>2014-08-04T15:50:02Z</time>
      </trkpt>
      <trkpt lat="47.86602" lon="5.38381">
        <ele>353.2362</ele>
        <time>2014-08-04T15:50:03Z</time>
      </trkpt>
      <trkpt lat="47.866" lon="5.38373">
        <ele>355.034</ele>
        <time>2014-08-04T15:50:04Z</time>
      </trkpt>
      <trkpt lat="47.86597" lon="5.38365">
        <ele>354.4023</ele>
        <time>2014-08-04T15:50:05Z</time>
      </trkpt>
      <trkpt lat="47.86595" lon="5.38358">
        <ele>355.4157</ele>
        <time>2014-08-04T15:50:06Z</time>
      </trkpt>
      <trkpt lat="47.86592" lon="5.38352">
        <ele>356.5136</ele>
        <time>2014-08-04T15:50:07Z</time>
      </trkpt>
      <trkpt lat="47.8659" lon="5.38346">
        <ele>356.2793</ele>
        <time>2014-08-04T15:50:08Z</time>
      </trkpt>
      <trkpt lat="47.86589" lon="5.38339">
        <ele>355.7108</ele>
        <time>2014-08-04T15:50:09Z</time>
      </trkpt>
      <trkpt lat="47.86588" lon="5.38331">
        <ele>353.8262</ele>
        <time>2014-08-04T15:50:10Z</time>
      </trkpt>
      <trkpt lat="47.86587" lon="5.38323">
        <ele>352.1235</ele>
        <time>2014-08-04T15:50:11Z</time>
      </trkpt>
      <trkpt lat="47.86586" lon="5.38315">
        <ele>350.4258</ele>
        <time>2014-08-04T15:50:12Z</time>
      </trkpt>
      <trkpt lat="47.86584" lon="5.38307">
        <ele>349.1098</ele>
        <time>2014-08-04T15:50:13Z</time>
      </trkpt>
      <trkpt lat="47.86582" lon="5.38299">
        <ele>346.7711</ele>
        <time>2014-08-04T15:50:14Z</time>
      </trkpt>
      <trkpt lat="47.8658" lon="5.38291">
        <ele>347.2325</ele>
        <time>2014-08-04T15:50:15Z</time>
      </trkpt>
      <trkpt lat="47.86577" lon="5.38285">
        <ele>348.5745</ele>
        <time>2014-08-04T15:50:16Z</time>
      </trkpt>
      <trkpt lat="47.86573" lon="5.38279">
        <ele>349.9485</ele>
        <time>2014-08-04T15:50:17Z</time>
      </trkpt>
      <trkpt lat="47.86569" lon="5.38274">
        <ele>350.8348</ele>
        <time>2014-08-04T15:50:18Z</time>
      </trkpt>
      <trkpt lat="47.86565" lon="5.38269">
        <ele>351.9072</ele>
        <time>2014-08-04T15:50:19Z</time>
      </trkpt>
      <trkpt lat="47.86562" lon="5.38264">
        <ele>350.9187</ele>
        <time>2014-08-04T15:50:20Z</time>
      </trkpt>
      <trkpt lat="47.86557" lon="5.38259">
        <ele>351.0701</ele>
        <time>2014-08-04T15:50:21Z</time>
      </trkpt>
      <trkpt lat="47.86553" lon="5.38254">
        <ele>352.4816</ele>
        <time>2014-08-04T15:50:22Z</time>
      </trkpt>
      <trkpt lat="47.86549" lon="5.3825">
        <ele>353.1443</ele>
        <time>2014-08-04T15:50:23Z</time>
      </trkpt>
      <trkpt lat="47.86544" lon="5.38245">
        <ele>354.2649</ele>
        <time>2014-08-04T15:50:24Z</time>
      </trkpt>
      <trkpt lat="47.8654" lon="5.38241">
        <ele>354.6415</ele>
        <time>2014-08-04T15:50:25Z</time>
      </trkpt>
      <trkpt lat="47.86536" lon="5.38236">
        <ele>352.5656</ele>
        <time>2014-08-04T15:50:26Z</time>
      </trkpt>
      <trkpt lat="47.86531" lon="5.38232">
        <ele>352.1729</ele>
        <time>2014-08-04T15:50:27Z</time>
      </trkpt>
      <trkpt lat="47.86526" lon="5.38229">
        <ele>352.2317</ele>
        <time>2014-08-04T15:50:28Z</time>
      </trkpt>
      <trkpt lat="47.86522" lon="5.38226">
        <ele>353.1788</ele>
        <time>2014-08-04T15:50:29Z</time>
      </trkpt>
      <trkpt lat="47.86517" lon="5.38223">
        <ele>353.6496</ele>
        <time>2014-08-04T15:50:30Z</time>
      </trkpt>
      <trkpt lat="47.86509" lon="5.38217">
        <ele>351.8688</ele>
        <time>2014-08-04T15:50:32Z</time>
      </trkpt>
      <trkpt lat="47.86504" lon="5.38214">
        <ele>352.403</ele>
        <time>2014-08-04T15:50:33Z</time>
      </trkpt>
      <trkpt lat="47.86498" lon="5.3821">
        <ele>352.5886</ele>
        <time>2014-08-04T15:50:34Z</time>
      </trkpt>
      <trkpt lat="47.86493" lon="5.38208">
        <ele>353.7852</ele>
        <time>2014-08-04T15:50:35Z</time>
      </trkpt>
      <trkpt lat="47.86489" lon="5.38206">
        <ele>353.4509</ele>
        <time>2014-08-04T15:50:36Z</time>
      </trkpt>
      <trkpt lat="47.86484" lon="5.38204">
        <ele>354.9659</ele>
        <time>2014-08-04T15:50:37Z</time>
      </trkpt>
      <trkpt lat="47.86479" lon="5.38201">
        <ele>355.7197</ele>
        <time>2014-08-04T15:50:38Z</time>
      </trkpt>
      <trkpt lat="47.86474" lon="5.38199">
        <ele>356.3709</ele>
        <time>2014-08-04T15:50:39Z</time>
      </trkpt>
      <trkpt lat="47.86469" lon="5.38198">
        <ele>357.2028</ele>
        <time>2014-08-04T15:50:40Z</time>
      </trkpt>
      <trkpt lat="47.86463" lon="5.38196">
        <ele>357.467</ele>
        <time>2014-08-04T15:50:41Z</time>
      </trkpt>
      <trkpt lat="47.86458" lon="5.38195">
        <ele>355.5182</ele>
        <time>2014-08-04T15:50:42Z</time>
      </trkpt>
      <trkpt lat="47.86453" lon="5.38194">
        <ele>354.6713</ele>
        <time>2014-08-04T15:50:43Z</time>
      </trkpt>
      <trkpt lat="47.86447" lon="5.38192">
        <ele>353.9773</ele>
        <time>2014-08-04T15:50:44Z</time>
      </trkpt>
      <trkpt lat="47.86442" lon="5.38191">
        <ele>355.4945</ele>
        <time>2014-08-04T15:50:45Z</time>
      </trkpt>
      <trkpt lat="47.86437" lon="5.3819">
        <ele>355.7916</ele>
        <time>2014-08-04T15:50:46Z</time>
      </trkpt>
      <trkpt lat="47.86431" lon="5.38188">
        <ele>356.2541</ele>
        <time>2014-08-04T15:50:47Z</time>
      </trkpt>
      <trkpt lat="47.86426" lon="5.38186">
        <ele>354.7114</ele>
        <time>2014-08-04T15:50:48Z</time>
      </trkpt>
      <trkpt lat="47.8642" lon="5.38184">
        <ele>356.1823</ele>
        <time>2014-08-04T15:50:49Z</time>
      </trkpt>
      <trkpt lat="47.86416" lon="5.38181">
        <ele>355.7087</ele>
        <time>2014-08-04T15:50:50Z</time>
      </trkpt>
      <trkpt lat="47.86411" lon="5.38179">
        <ele>355.2362</ele>
        <time>2014-08-04T15:50:51Z</time>
      </trkpt>
      <trkpt lat="47.86405" lon="5.38177">
        <ele>353.9618</ele>
        <time>2014-08-04T15:50:52Z</time>
      </trkpt>
      <trkpt lat="47.864" lon="5.38175">
        <ele>354.8688</ele>
        <time>2014-08-04T15:50:53Z</time>
      </trkpt>
      <trkpt lat="47.86395" lon="5.38174">
        <ele>354.3427</ele>
        <time>2014-08-04T15:50:54Z</time>
      </trkpt>
      <trkpt lat="47.8639" lon="5.38173">
        <ele>354.7379</ele>
        <time>2014-08-04T15:50:55Z</time>
      </trkpt>
      <trkpt lat="47.86386" lon="5.38171">
        <ele>355.9883</ele>
        <time>2014-08-04T15:50:56Z</time>
      </trkpt>
      <trkpt lat="47.86382" lon="5.38168">
        <ele>356.0069</ele>
        <time>2014-08-04T15:50:57Z</time>
      </trkpt>
      <trkpt lat="47.86378" lon="5.38164">
        <ele>356.8785</ele>
        <time>2014-08-04T15:50:58Z</time>
      </trkpt>
      <trkpt lat="47.86374" lon="5.38157">
        <ele>356.2379</ele>
        <time>2014-08-04T15:50:59Z</time>
      </trkpt>
      <trkpt lat="47.8637" lon="5.38149">
        <ele>354.0995</ele>
        <time>2014-08-04T15:51:00Z</time>
      </trkpt>
      <trkpt lat="47.86367" lon="5.38141">
        <ele>354.0679</ele>
        <time>2014-08-04T15:51:01Z</time>
      </trkpt>
      <trkpt lat="47.86365" lon="5.38134">
        <ele>352.9555</ele>
        <time>2014-08-04T15:51:02Z</time>
      </trkpt>
      <trkpt lat="47.86365" lon="5.38126">
        <ele>352.8052</ele>
        <time>2014-08-04T15:51:03Z</time>
      </trkpt>
      <trkpt lat="47.86365" lon="5.38119">
        <ele>352.5714</ele>
        <time>2014-08-04T15:51:04Z</time>
      </trkpt>
      <trkpt lat="47.86367" lon="5.38112">
        <ele>355.2855</ele>
        <time>2014-08-04T15:51:05Z</time>
      </trkpt>
      <trkpt lat="47.86371" lon="5.381">
        <ele>359.1081</ele>
        <time>2014-08-04T15:51:07Z</time>
      </trkpt>
      <trkpt lat="47.86373" lon="5.38093">
        <ele>358.1716</ele>
        <time>2014-08-04T15:51:08Z</time>
      </trkpt>
      <trkpt lat="47.86376" lon="5.38087">
        <ele>356.5259</ele>
        <time>2014-08-04T15:51:09Z</time>
      </trkpt>
      <trkpt lat="47.86381" lon="5.3808">
        <ele>354.0214</ele>
        <time>2014-08-04T15:51:10Z</time>
      </trkpt>
      <trkpt lat="47.86385" lon="5.38072">
        <ele>351.5768</ele>
        <time>2014-08-04T15:51:11Z</time>
      </trkpt>
      <trkpt lat="47.86389" lon="5.38066">
        <ele>352.7452</ele>
        <time>2014-08-04T15:51:12Z</time>
      </trkpt>
      <trkpt lat="47.86393" lon="5.3806">
        <ele>351.3757</ele>
        <time>2014-08-04T15:51:13Z</time>
      </trkpt>
      <trkpt lat="47.86396" lon="5.38055">
        <ele>351.3881</ele>
        <time>2014-08-04T15:51:14Z</time>
      </trkpt>
      <trkpt lat="47.864" lon="5.38049">
        <ele>351.0707</ele>
        <time>2014-08-04T15:51:15Z</time>
      </trkpt>
      <trkpt lat="47.86403" lon="5.38043">
        <ele>351.0353</ele>
        <time>2014-08-04T15:51:16Z</time>
      </trkpt>
      <trkpt lat="47.86406" lon="5.38037">
        <ele>350.6119</ele>
        <time>2014-08-04T15:51:17Z</time>
      </trkpt>
      <trkpt lat="47.8641" lon="5.38032">
        <ele>350.8836</ele>
        <time>2014-08-04T15:51:18Z</time>
      </trkpt>
      <trkpt lat="47.86413" lon="5.38027">
        <ele>351.1889</ele>
        <time>2014-08-04T15:51:19Z</time>
      </trkpt>
      <trkpt lat="47.86417" lon="5.38022">
        <ele>351.592</ele>
        <time>2014-08-04T15:51:20Z</time>
      </trkpt>
      <trkpt lat="47.8642" lon="5.38017">
        <ele>351.722</ele>
        <time>2014-08-04T15:51:21Z</time>
      </trkpt>
      <trkpt lat="47.86424" lon="5.38013">
        <ele>351.7055</ele>
        <time>2014-08-04T15:51:22Z</time>
      </trkpt>
      <trkpt lat="47.86429" lon="5.38007">
        <ele>352.5572</ele>
        <time>2014-08-04T15:51:23Z</time>
      </trkpt>
      <trkpt lat="47.86433" lon="5.38">
        <ele>352.8858</ele>
        <time>2014-08-04T15:51:24Z</time>
      </trkpt>
      <trkpt lat="47.86436" lon="5.37994">
        <ele>354.1272</ele>
        <time>2014-08-04T15:51:25Z</time>
      </trkpt>
      <trkpt lat="47.8644" lon="5.37988">
        <ele>353.6435</ele>
        <time>2014-08-04T15:51:26Z</time>
      </trkpt>
      <trkpt lat="47.86443" lon="5.37981">
        <ele>354.0494</ele>
        <time>2014-08-04T15:51:27Z</time>
      </trkpt>
      <trkpt lat="47.86446" lon="5.37973">
        <ele>350.482</ele>
        <time>2014-08-04T15:51:28Z</time>
      </trkpt>
      <trkpt lat="47.8645" lon="5.37967">
        <ele>349.5991</ele>
        <time>2014-08-04T15:51:29Z</time>
      </trkpt>
      <trkpt lat="47.86453" lon="5.37961">
        <ele>350.7537</ele>
        <time>2014-08-04T15:51:30Z</time>
      </trkpt>
      <trkpt lat="47.86459" lon="5.37951">
        <ele>353.9173</ele>
        <time>2014-08-04T15:51:32Z</time>
      </trkpt>
      <trkpt lat="47.86462" lon="5.37947">
        <ele>354.731</ele>
        <time>2014-08-04T15:51:33Z</time>
      </trkpt>
      <trkpt lat="47.86465" lon="5.37941">
        <ele>353.8478</ele>
        <time>2014-08-04T15:51:34Z</time>
      </trkpt>
      <trkpt lat="47.86467" lon="5.37934">
        <ele>353.1465</ele>
        <time>2014-08-04T15:51:35Z</time>
      </trkpt>
      <trkpt lat="47.8647" lon="5.37928">
        <ele>353.3451</ele>
        <time>2014-08-04T15:51:36Z</time>
      </trkpt>
      <trkpt lat="47.86473" lon="5.3792">
        <ele>354.5209</ele>
        <time>2014-08-04T15:51:37Z</time>
      </trkpt>
      <trkpt lat="47.86476" lon="5.37913">
        <ele>354.0637</ele>
        <time>2014-08-04T15:51:38Z</time>
      </trkpt>
      <trkpt lat="47.86478" lon="5.37906">
        <ele>353.4589</ele>
        <time>2014-08-04T15:51:39Z</time>
      </trkpt>
      <trkpt lat="47.8648" lon="5.37897">
        <ele>352.4016</ele>
        <time>2014-08-04T15:51:40Z</time>
      </trkpt>
      <trkpt lat="47.86482" lon="5.3789">
        <ele>352.3004</ele>
        <time>2014-08-04T15:51:41Z</time>
      </trkpt>
      <trkpt lat="47.86483" lon="5.37883">
        <ele>353.6375</ele>
        <time>2014-08-04T15:51:42Z</time>
      </trkpt>
      <trkpt lat="47.86485" lon="5.37875">
        <ele>354.5004</ele>
        <time>2014-08-04T15:51:43Z</time>
      </trkpt>
      <trkpt lat="47.86486" lon="5.37869">
        <ele>355.007</ele>
        <time>2014-08-04T15:51:44Z</time>
      </trkpt>
      <trkpt lat="47.86488" lon="5.37861">
        <ele>352.9878</ele>
        <time>2014-08-04T15:51:45Z</time>
      </trkpt>
      <trkpt lat="47.86489" lon="5.37852">
        <ele>350.3372</ele>
        <time>2014-08-04T15:51:46Z</time>
      </trkpt>
      <trkpt lat="47.8649" lon="5.37844">
        <ele>352.2466</ele>
        <time>2014-08-04T15:51:47Z</time>
      </trkpt>
      <trkpt lat="47.86491" lon="5.37836">
        <ele>354.6708</ele>
        <time>2014-08-04T15:51:48Z</time>
      </trkpt>
      <trkpt lat="47.86491" lon="5.37822">
        <ele>356.5967</ele>
        <time>2014-08-04T15:51:50Z</time>
      </trkpt>
      <trkpt lat="47.86492" lon="5.37809">
        <ele>356.0365</ele>
        <time>2014-08-04T15:51:52Z</time>
      </trkpt>
      <trkpt lat="47.86493" lon="5.37802">
        <ele>353.7723</ele>
        <time>2014-08-04T15:51:53Z</time>
      </trkpt>
      <trkpt lat="47.86493" lon="5.37794">
        <ele>352.5616</ele>
        <time>2014-08-04T15:51:54Z</time>
      </trkpt>
      <trkpt lat="47.86493" lon="5.37786">
        <ele>352.2218</ele>
        <time>2014-08-04T15:51:55Z</time>
      </trkpt>
      <trkpt lat="47.86493" lon="5.37778">
        <ele>352.9416</ele>
        <time>2014-08-04T15:51:56Z</time>
      </trkpt>
      <trkpt lat="47.86492" lon="5.3777">
        <ele>353.0949</ele>
        <time>2014-08-04T15:51:57Z</time>
      </trkpt>
      <trkpt lat="47.86491" lon="5.37763">
        <ele>353.1335</ele>
        <time>2014-08-04T15:51:58Z</time>
      </trkpt>
      <trkpt lat="47.86491" lon="5.3775">
        <ele>351.1216</ele>
        <time>2014-08-04T15:52:00Z</time>
      </trkpt>
      <trkpt lat="47.86491" lon="5.37742">
        <ele>351.8872</ele>
        <time>2014-08-04T15:52:01Z</time>
      </trkpt>
      <trkpt lat="47.86491" lon="5.37735">
        <ele>351.4323</ele>
        <time>2014-08-04T15:52:02Z</time>
      </trkpt>
      <trkpt lat="47.8649" lon="5.37727">
        <ele>352.0112</ele>
        <time>2014-08-04T15:52:03Z</time>
      </trkpt>
      <trkpt lat="47.8649" lon="5.37719">
        <ele>351.0805</ele>
        <time>2014-08-04T15:52:04Z</time>
      </trkpt>
      <trkpt lat="47.86488" lon="5.37711">
        <ele>351.9621</ele>
        <time>2014-08-04T15:52:05Z</time>
      </trkpt>
      <trkpt lat="47.86488" lon="5.37703">
        <ele>351.6293</ele>
        <time>2014-08-04T15:52:06Z</time>
      </trkpt>
      <trkpt lat="47.86486" lon="5.37694">
        <ele>351.1076</ele>
        <time>2014-08-04T15:52:07Z</time>
      </trkpt>
      <trkpt lat="47.86486" lon="5.37687">
        <ele>349.7426</ele>
        <time>2014-08-04T15:52:08Z</time>
      </trkpt>
      <trkpt lat="47.86485" lon="5.37674">
        <ele>349.7723</ele>
        <time>2014-08-04T15:52:10Z</time>
      </trkpt>
      <trkpt lat="47.86485" lon="5.37667">
        <ele>351.071</ele>
        <time>2014-08-04T15:52:11Z</time>
      </trkpt>
      <trkpt lat="47.86485" lon="5.37659">
        <ele>352.9007</ele>
        <time>2014-08-04T15:52:12Z</time>
      </trkpt>
      <trkpt lat="47.86484" lon="5.3765">
        <ele>352.9601</ele>
        <time>2014-08-04T15:52:13Z</time>
      </trkpt>
      <trkpt lat="47.86483" lon="5.37642">
        <ele>352.8195</ele>
        <time>2014-08-04T15:52:14Z</time>
      </trkpt>
      <trkpt lat="47.86482" lon="5.37635">
        <ele>349.0957</ele>
        <time>2014-08-04T15:52:15Z</time>
      </trkpt>
      <trkpt lat="47.86479" lon="5.37623">
        <ele>350.3578</ele>
        <time>2014-08-04T15:52:17Z</time>
      </trkpt>
      <trkpt lat="47.86478" lon="5.37616">
        <ele>350.5035</ele>
        <time>2014-08-04T15:52:18Z</time>
      </trkpt>
      <trkpt lat="47.8648" lon="5.37609">
        <ele>350.402</ele>
        <time>2014-08-04T15:52:19Z</time>
      </trkpt>
      <trkpt lat="47.86481" lon="5.376">
        <ele>351.521</ele>
        <time>2014-08-04T15:52:20Z</time>
      </trkpt>
      <trkpt lat="47.86483" lon="5.37593">
        <ele>352.6696</ele>
        <time>2014-08-04T15:52:21Z</time>
      </trkpt>
      <trkpt lat="47.86484" lon="5.37587">
        <ele>353.8317</ele>
        <time>2014-08-04T15:52:22Z</time>
      </trkpt>
      <trkpt lat="47.86484" lon="5.37576">
        <ele>354.9287</ele>
        <time>2014-08-04T15:52:24Z</time>
      </trkpt>
      <trkpt lat="47.86483" lon="5.37565">
        <ele>354.6137</ele>
        <time>2014-08-04T15:52:26Z</time>
      </trkpt>
      <trkpt lat="47.86481" lon="5.37554">
        <ele>353.2697</ele>
        <time>2014-08-04T15:52:28Z</time>
      </trkpt>
      <trkpt lat="47.8648" lon="5.37545">
        <ele>353.1492</ele>
        <time>2014-08-04T15:52:30Z</time>
      </trkpt>
      <trkpt lat="47.86475" lon="5.37537">
        <ele>350.6989</ele>
        <time>2014-08-04T15:52:32Z</time>
      </trkpt>
      <trkpt lat="47.86472" lon="5.37531">
        <ele>350.6767</ele>
        <time>2014-08-04T15:52:34Z</time>
      </trkpt>
      <trkpt lat="47.86467" lon="5.37527">
        <ele>352.6985</ele>
        <time>2014-08-04T15:52:36Z</time>
      </trkpt>
      <trkpt lat="47.86462" lon="5.37524">
        <ele>349.7799</ele>
        <time>2014-08-04T15:52:38Z</time>
      </trkpt>
      <trkpt lat="47.86457" lon="5.37518">
        <ele>349.978</ele>
        <time>2014-08-04T15:52:40Z</time>
      </trkpt>
      <trkpt lat="47.86451" lon="5.37511">
        <ele>352.845</ele>
        <time>2014-08-04T15:52:42Z</time>
      </trkpt>
      <trkpt lat="47.86448" lon="5.37503">
        <ele>353.0508</ele>
        <time>2014-08-04T15:52:44Z</time>
      </trkpt>
      <trkpt lat="47.86445" lon="5.37496">
        <ele>350.328</ele>
        <time>2014-08-04T15:52:46Z</time>
      </trkpt>
      <trkpt lat="47.86442" lon="5.37486">
        <ele>352.152</ele>
        <time>2014-08-04T15:52:48Z</time>
      </trkpt>
      <trkpt lat="47.86443" lon="5.37478">
        <ele>351.6808</ele>
        <time>2014-08-04T15:52:50Z</time>
      </trkpt>
      <trkpt lat="47.86445" lon="5.37468">
        <ele>351.9364</ele>
        <time>2014-08-04T15:52:52Z</time>
      </trkpt>
      <trkpt lat="47.86447" lon="5.3746">
        <ele>351.7254</ele>
        <time>2014-08-04T15:52:54Z</time>
      </trkpt>
      <trkpt lat="47.86446" lon="5.37451">
        <ele>352.3747</ele>
        <time>2014-08-04T15:52:56Z</time>
      </trkpt>
      <trkpt lat="47.86445" lon="5.37444">
        <ele>353.0608</ele>
        <time>2014-08-04T15:52:58Z</time>
      </trkpt>
      <trkpt lat="47.86449" lon="5.37439">
        <ele>352.7746</ele>
        <time>2014-08-04T15:53:02Z</time>
      </trkpt>
      <trkpt lat="47.86454" lon="5.37437">
        <ele>349.3361</ele>
        <time>2014-08-04T15:53:05Z</time>
      </trkpt>
      <trkpt lat="47.86456" lon="5.37425">
        <ele>349.7821</ele>
        <time>2014-08-04T15:53:07Z</time>
      </trkpt>
      <trkpt lat="47.86456" lon="5.37417">
        <ele>350.4389</ele>
        <time>2014-08-04T15:53:08Z</time>
      </trkpt>
      <trkpt lat="47.86457" lon="5.3741">
        <ele>351.8797</ele>
        <time>2014-08-04T15:53:09Z</time>
      </trkpt>
      <trkpt lat="47.8646" lon="5.37402">
        <ele>351.4682</ele>
        <time>2014-08-04T15:53:11Z</time>
      </trkpt>
      <trkpt lat="47.86464" lon="5.37391">
        <ele>347.7433</ele>
        <time>2014-08-04T15:53:14Z</time>
      </trkpt>
      <trkpt lat="47.86469" lon="5.37381">
        <ele>349.4294</ele>
        <time>2014-08-04T15:53:16Z</time>
      </trkpt>
      <trkpt lat="47.86473" lon="5.37374">
        <ele>347.4619</ele>
        <time>2014-08-04T15:53:18Z</time>
      </trkpt>
      <trkpt lat="47.86477" lon="5.3737">
        <ele>347.0221</ele>
        <time>2014-08-04T15:53:20Z</time>
      </trkpt>
      <trkpt lat="47.86484" lon="5.37368">
        <ele>346.0798</ele>
        <time>2014-08-04T15:53:23Z</time>
      </trkpt>
      <trkpt lat="47.86489" lon="5.37362">
        <ele>349.559</ele>
        <time>2014-08-04T15:53:26Z</time>
      </trkpt>
      <trkpt lat="47.8649" lon="5.37356">
        <ele>348.8893</ele>
        <time>2014-08-04T15:53:28Z</time>
      </trkpt>
      <trkpt lat="47.86487" lon="5.37349">
        <ele>347.0948</ele>
        <time>2014-08-04T15:53:30Z</time>
      </trkpt>
      <trkpt lat="47.86486" lon="5.3734">
        <ele>344.0265</ele>
        <time>2014-08-04T15:53:33Z</time>
      </trkpt>
      <trkpt lat="47.86484" lon="5.37331">
        <ele>344.0413</ele>
        <time>2014-08-04T15:53:35Z</time>
      </trkpt>
      <trkpt lat="47.86481" lon="5.37321">
        <ele>343.219</ele>
        <time>2014-08-04T15:53:37Z</time>
      </trkpt>
      <trkpt lat="47.86478" lon="5.37312">
        <ele>342.923</ele>
        <time>2014-08-04T15:53:39Z</time>
      </trkpt>
      <trkpt lat="47.86474" lon="5.37303">
        <ele>342.9758</ele>
        <time>2014-08-04T15:53:41Z</time>
      </trkpt>
      <trkpt lat="47.8647" lon="5.37295">
        <ele>342.4348</ele>
        <time>2014-08-04T15:53:43Z</time>
      </trkpt>
      <trkpt lat="47.86467" lon="5.37286">
        <ele>341.795</ele>
        <time>2014-08-04T15:53:45Z</time>
      </trkpt>
      <trkpt lat="47.86464" lon="5.37276">
        <ele>341.7749</ele>
        <time>2014-08-04T15:53:47Z</time>
      </trkpt>
      <trkpt lat="47.86459" lon="5.37268">
        <ele>342.0708</ele>
        <time>2014-08-04T15:53:49Z</time>
      </trkpt>
      <trkpt lat="47.86454" lon="5.37258">
        <ele>342.1656</ele>
        <time>2014-08-04T15:53:51Z</time>
      </trkpt>
      <trkpt lat="47.86448" lon="5.37249">
        <ele>343.8161</ele>
        <time>2014-08-04T15:53:53Z</time>
      </trkpt>
      <trkpt lat="47.86443" lon="5.3724">
        <ele>343.9398</ele>
        <time>2014-08-04T15:53:55Z</time>
      </trkpt>
      <trkpt lat="47.86438" lon="5.37231">
        <ele>343.7736</ele>
        <time>2014-08-04T15:53:57Z</time>
      </trkpt>
      <trkpt lat="47.86433" lon="5.37222">
        <ele>342.8217</ele>
        <time>2014-08-04T15:53:59Z</time>
      </trkpt>
      <trkpt lat="47.86427" lon="5.37213">
        <ele>342.0918</ele>
        <time>2014-08-04T15:54:01Z</time>
      </trkpt>
      <trkpt lat="47.86422" lon="5.37204">
        <ele>342.5785</ele>
        <time>2014-08-04T15:54:03Z</time>
      </trkpt>
      <trkpt lat="47.86417" lon="5.37196">
        <ele>342.621</ele>
        <time>2014-08-04T15:54:05Z</time>
      </trkpt>
      <trkpt lat="47.86411" lon="5.37187">
        <ele>342.538</ele>
        <time>2014-08-04T15:54:07Z</time>
      </trkpt>
      <trkpt lat="47.86408" lon="5.37181">
        <ele>342.6636</ele>
        <time>2014-08-04T15:54:08Z</time>
      </trkpt>
      <trkpt lat="47.86405" lon="5.37176">
        <ele>342.6027</ele>
        <time>2014-08-04T15:54:09Z</time>
      </trkpt>
      <trkpt lat="47.86399" lon="5.37166">
        <ele>342.4276</ele>
        <time>2014-08-04T15:54:11Z</time>
      </trkpt>
      <trkpt lat="47.86395" lon="5.37162">
        <ele>342.319</ele>
        <time>2014-08-04T15:54:12Z</time>
      </trkpt>
      <trkpt lat="47.86392" lon="5.37156">
        <ele>342.2804</ele>
        <time>2014-08-04T15:54:13Z</time>
      </trkpt>
      <trkpt lat="47.86387" lon="5.37146">
        <ele>342.5336</ele>
        <time>2014-08-04T15:54:15Z</time>
      </trkpt>
      <trkpt lat="47.86381" lon="5.37136">
        <ele>342.2677</ele>
        <time>2014-08-04T15:54:17Z</time>
      </trkpt>
      <trkpt lat="47.86379" lon="5.37131">
        <ele>342.2274</ele>
        <time>2014-08-04T15:54:18Z</time>
      </trkpt>
      <trkpt lat="47.86376" lon="5.37125">
        <ele>342.7198</ele>
        <time>2014-08-04T15:54:19Z</time>
      </trkpt>
      <trkpt lat="47.86371" lon="5.37114">
        <ele>341.8287</ele>
        <time>2014-08-04T15:54:21Z</time>
      </trkpt>
      <trkpt lat="47.86368" lon="5.37109">
        <ele>341.713</ele>
        <time>2014-08-04T15:54:22Z</time>
      </trkpt>
      <trkpt lat="47.86365" lon="5.37103">
        <ele>341.9146</ele>
        <time>2014-08-04T15:54:23Z</time>
      </trkpt>
      <trkpt lat="47.8636" lon="5.37093">
        <ele>342.2436</ele>
        <time>2014-08-04T15:54:25Z</time>
      </trkpt>
      <trkpt lat="47.86357" lon="5.37087">
        <ele>342.4924</ele>
        <time>2014-08-04T15:54:26Z</time>
      </trkpt>
      <trkpt lat="47.86354" lon="5.37081">
        <ele>343.1741</ele>
        <time>2014-08-04T15:54:27Z</time>
      </trkpt>
      <trkpt lat="47.8635" lon="5.37076">
        <ele>343.1188</ele>
        <time>2014-08-04T15:54:28Z</time>
      </trkpt>
      <trkpt lat="47.86346" lon="5.37071">
        <ele>343.1009</ele>
        <time>2014-08-04T15:54:29Z</time>
      </trkpt>
      <trkpt lat="47.86343" lon="5.37066">
        <ele>343.4485</ele>
        <time>2014-08-04T15:54:30Z</time>
      </trkpt>
      <trkpt lat="47.86339" lon="5.37062">
        <ele>343.4307</ele>
        <time>2014-08-04T15:54:31Z</time>
      </trkpt>
      <trkpt lat="47.86335" lon="5.37058">
        <ele>343.1566</ele>
        <time>2014-08-04T15:54:32Z</time>
      </trkpt>
      <trkpt lat="47.86332" lon="5.37054">
        <ele>343.1128</ele>
        <time>2014-08-04T15:54:33Z</time>
      </trkpt>
      <trkpt lat="47.86327" lon="5.37051">
        <ele>343.1825</ele>
        <time>2014-08-04T15:54:34Z</time>
      </trkpt>
      <trkpt lat="47.86323" lon="5.37047">
        <ele>342.3821</ele>
        <time>2014-08-04T15:54:35Z</time>
      </trkpt>
      <trkpt lat="47.86316" lon="5.37042">
        <ele>341.7377</ele>
        <time>2014-08-04T15:54:37Z</time>
      </trkpt>
      <trkpt lat="47.86311" lon="5.37039">
        <ele>341.9632</ele>
        <time>2014-08-04T15:54:38Z</time>
      </trkpt>
      <trkpt lat="47.86307" lon="5.37036">
        <ele>342.2894</ele>
        <time>2014-08-04T15:54:39Z</time>
      </trkpt>
      <trkpt lat="47.86303" lon="5.37033">
        <ele>342.4729</ele>
        <time>2014-08-04T15:54:40Z</time>
      </trkpt>
      <trkpt lat="47.86298" lon="5.3703">
        <ele>342.9116</ele>
        <time>2014-08-04T15:54:41Z</time>
      </trkpt>
      <trkpt lat="47.86294" lon="5.37027">
        <ele>342.323</ele>
        <time>2014-08-04T15:54:42Z</time>
      </trkpt>
      <trkpt lat="47.8629" lon="5.37024">
        <ele>342.7525</ele>
        <time>2014-08-04T15:54:43Z</time>
      </trkpt>
      <trkpt lat="47.86282" lon="5.37018">
        <ele>343.1594</ele>
        <time>2014-08-04T15:54:45Z</time>
      </trkpt>
      <trkpt lat="47.86274" lon="5.37013">
        <ele>342.308</ele>
        <time>2014-08-04T15:54:47Z</time>
      </trkpt>
      <trkpt lat="47.86266" lon="5.37009">
        <ele>342.9352</ele>
        <time>2014-08-04T15:54:49Z</time>
      </trkpt>
      <trkpt lat="47.86257" lon="5.37005">
        <ele>343.1626</ele>
        <time>2014-08-04T15:54:51Z</time>
      </trkpt>
      <trkpt lat="47.86253" lon="5.37004">
        <ele>343.8194</ele>
        <time>2014-08-04T15:54:52Z</time>
      </trkpt>
      <trkpt lat="47.86248" lon="5.37003">
        <ele>344.1721</ele>
        <time>2014-08-04T15:54:53Z</time>
      </trkpt>
      <trkpt lat="47.86243" lon="5.37002">
        <ele>344.4799</ele>
        <time>2014-08-04T15:54:54Z</time>
      </trkpt>
      <trkpt lat="47.86239" lon="5.37002">
        <ele>345.633</ele>
        <time>2014-08-04T15:54:55Z</time>
      </trkpt>
      <trkpt lat="47.86234" lon="5.37002">
        <ele>345.3008</ele>
        <time>2014-08-04T15:54:56Z</time>
      </trkpt>
      <trkpt lat="47.86225" lon="5.37002">
        <ele>343.9855</ele>
        <time>2014-08-04T15:54:58Z</time>
      </trkpt>
      <trkpt lat="47.86221" lon="5.37002">
        <ele>345.2043</ele>
        <time>2014-08-04T15:54:59Z</time>
      </trkpt>
      <trkpt lat="47.86212" lon="5.37002">
        <ele>343.2346</ele>
        <time>2014-08-04T15:55:01Z</time>
      </trkpt>
      <trkpt lat="47.86203" lon="5.37001">
        <ele>343.18</ele>
        <time>2014-08-04T15:55:03Z</time>
      </trkpt>
      <trkpt lat="47.86198" lon="5.37001">
        <ele>343.4999</ele>
        <time>2014-08-04T15:55:04Z</time>
      </trkpt>
      <trkpt lat="47.86194" lon="5.37">
        <ele>343.6539</ele>
        <time>2014-08-04T15:55:05Z</time>
      </trkpt>
      <trkpt lat="47.86189" lon="5.36999">
        <ele>343.7788</ele>
        <time>2014-08-04T15:55:06Z</time>
      </trkpt>
      <trkpt lat="47.86185" lon="5.36998">
        <ele>343.9457</ele>
        <time>2014-08-04T15:55:07Z</time>
      </trkpt>
      <trkpt lat="47.8618" lon="5.36996">
        <ele>344.2223</ele>
        <time>2014-08-04T15:55:08Z</time>
      </trkpt>
      <trkpt lat="47.86175" lon="5.36995">
        <ele>344.5784</ele>
        <time>2014-08-04T15:55:09Z</time>
      </trkpt>
      <trkpt lat="47.8617" lon="5.36993">
        <ele>344.2116</ele>
        <time>2014-08-04T15:55:10Z</time>
      </trkpt>
      <trkpt lat="47.86166" lon="5.3699">
        <ele>343.7812</ele>
        <time>2014-08-04T15:55:11Z</time>
      </trkpt>
      <trkpt lat="47.86161" lon="5.36987">
        <ele>343.7213</ele>
        <time>2014-08-04T15:55:12Z</time>
      </trkpt>
      <trkpt lat="47.86157" lon="5.36985">
        <ele>343.3834</ele>
        <time>2014-08-04T15:55:13Z</time>
      </trkpt>
      <trkpt lat="47.86152" lon="5.36982">
        <ele>343.3367</ele>
        <time>2014-08-04T15:55:14Z</time>
      </trkpt>
      <trkpt lat="47.86147" lon="5.36979">
        <ele>343.1141</ele>
        <time>2014-08-04T15:55:15Z</time>
      </trkpt>
      <trkpt lat="47.86142" lon="5.36977">
        <ele>343.3894</ele>
        <time>2014-08-04T15:55:16Z</time>
      </trkpt>
      <trkpt lat="47.86137" lon="5.36975">
        <ele>344.1735</ele>
        <time>2014-08-04T15:55:17Z</time>
      </trkpt>
      <trkpt lat="47.86132" lon="5.36974">
        <ele>343.786</ele>
        <time>2014-08-04T15:55:18Z</time>
      </trkpt>
      <trkpt lat="47.86126" lon="5.36973">
        <ele>342.8996</ele>
        <time>2014-08-04T15:55:19Z</time>
      </trkpt>
      <trkpt lat="47.86121" lon="5.36972">
        <ele>342.3411</ele>
        <time>2014-08-04T15:55:20Z</time>
      </trkpt>
      <trkpt lat="47.86115" lon="5.36972">
        <ele>342.4766</ele>
        <time>2014-08-04T15:55:21Z</time>
      </trkpt>
      <trkpt lat="47.86109" lon="5.36972">
        <ele>343.1688</ele>
        <time>2014-08-04T15:55:22Z</time>
      </trkpt>
      <trkpt lat="47.86103" lon="5.36973">
        <ele>343.2246</ele>
        <time>2014-08-04T15:55:23Z</time>
      </trkpt>
      <trkpt lat="47.86098" lon="5.36974">
        <ele>343.9302</ele>
        <time>2014-08-04T15:55:24Z</time>
      </trkpt>
      <trkpt lat="47.86092" lon="5.36975">
        <ele>343.6985</ele>
        <time>2014-08-04T15:55:25Z</time>
      </trkpt>
      <trkpt lat="47.86087" lon="5.36977">
        <ele>344.4109</ele>
        <time>2014-08-04T15:55:26Z</time>
      </trkpt>
      <trkpt lat="47.86082" lon="5.36979">
        <ele>342.4294</ele>
        <time>2014-08-04T15:55:27Z</time>
      </trkpt>
      <trkpt lat="47.86077" lon="5.36981">
        <ele>341.4839</ele>
        <time>2014-08-04T15:55:28Z</time>
      </trkpt>
      <trkpt lat="47.86072" lon="5.36983">
        <ele>340.8413</ele>
        <time>2014-08-04T15:55:29Z</time>
      </trkpt>
      <trkpt lat="47.86064" lon="5.36986">
        <ele>340.2105</ele>
        <time>2014-08-04T15:55:31Z</time>
      </trkpt>
      <trkpt lat="47.86057" lon="5.36988">
        <ele>342.0093</ele>
        <time>2014-08-04T15:55:33Z</time>
      </trkpt>
      <trkpt lat="47.86054" lon="5.36982">
        <ele>341.8615</ele>
        <time>2014-08-04T15:55:35Z</time>
      </trkpt>
      <trkpt lat="47.86051" lon="5.36972">
        <ele>343.1646</ele>
        <time>2014-08-04T15:55:37Z</time>
      </trkpt>
      <trkpt lat="47.86052" lon="5.36963">
        <ele>344.1819</ele>
        <time>2014-08-04T15:55:39Z</time>
      </trkpt>
      <trkpt lat="47.86058" lon="5.36958">
        <ele>343.9281</ele>
        <time>2014-08-04T15:55:41Z</time>
      </trkpt>
      <trkpt lat="47.86065" lon="5.36958">
        <ele>344.5333</ele>
        <time>2014-08-04T15:55:43Z</time>
      </trkpt>
      <trkpt lat="47.8607" lon="5.36955">
        <ele>343.3061</ele>
        <time>2014-08-04T15:55:45Z</time>
      </trkpt>
      <trkpt lat="47.86074" lon="5.36952">
        <ele>343.4934</ele>
        <time>2014-08-04T15:55:47Z</time>
      </trkpt>
      <trkpt lat="47.86081" lon="5.36947">
        <ele>342.6766</ele>
        <time>2014-08-04T15:55:49Z</time>
      </trkpt>
      <trkpt lat="47.86087" lon="5.36942">
        <ele>342.9068</ele>
        <time>2014-08-04T15:55:51Z</time>
      </trkpt>
      <trkpt lat="47.86094" lon="5.36937">
        <ele>344.6564</ele>
        <time>2014-08-04T15:55:53Z</time>
      </trkpt>
      <trkpt lat="47.86099" lon="5.36933">
        <ele>345.9562</ele>
        <time>2014-08-04T15:55:55Z</time>
      </trkpt>
      <trkpt lat="47.86104" lon="5.3693">
        <ele>345.541</ele>
        <time>2014-08-04T15:55:57Z</time>
      </trkpt>
      <trkpt lat="47.8611" lon="5.36928">
        <ele>345.4702</ele>
        <time>2014-08-04T15:55:59Z</time>
      </trkpt>
      <trkpt lat="47.86115" lon="5.36929">
        <ele>344.7853</ele>
        <time>2014-08-04T15:56:01Z</time>
      </trkpt>
      <trkpt lat="47.8612" lon="5.36928">
        <ele>343.0622</ele>
        <time>2014-08-04T15:56:04Z</time>
      </trkpt>
      <trkpt lat="47.86124" lon="5.36925">
        <ele>344.4524</ele>
        <time>2014-08-04T15:56:16Z</time>
      </trkpt>
      <trkpt lat="47.86124" lon="5.36917">
        <ele>334.2994</ele>
        <time>2014-08-04T15:56:27Z</time>
      </trkpt>
      <trkpt lat="47.86129" lon="5.36916">
        <ele>340.2596</ele>
        <time>2014-08-04T15:56:36Z</time>
      </trkpt>
      <trkpt lat="47.86134" lon="5.3692">
        <ele>342.0842</ele>
        <time>2014-08-04T15:56:40Z</time>
      </trkpt>
      <trkpt lat="47.86137" lon="5.36924">
        <ele>341.068</ele>
        <time>2014-08-04T15:56:42Z</time>
      </trkpt>
      <trkpt lat="47.86142" lon="5.3693">
        <ele>345.8457</ele>
        <time>2014-08-04T15:56:45Z</time>
      </trkpt>
      <trkpt lat="47.86146" lon="5.36934">
        <ele>348.2712</ele>
        <time>2014-08-04T15:56:47Z</time>
      </trkpt>
      <trkpt lat="47.86151" lon="5.36938">
        <ele>346.9986</ele>
        <time>2014-08-04T15:56:49Z</time>
      </trkpt>
      <trkpt lat="47.86157" lon="5.36942">
        <ele>346.4153</ele>
        <time>2014-08-04T15:56:51Z</time>
      </trkpt>
      <trkpt lat="47.86163" lon="5.36946">
        <ele>344.3453</ele>
        <time>2014-08-04T15:56:53Z</time>
      </trkpt>
      <trkpt lat="47.86169" lon="5.3695">
        <ele>342.8867</ele>
        <time>2014-08-04T15:56:55Z</time>
      </trkpt>
      <trkpt lat="47.86176" lon="5.36953">
        <ele>341.5861</ele>
        <time>2014-08-04T15:56:57Z</time>
      </trkpt>
      <trkpt lat="47.86184" lon="5.36957">
        <ele>343.1016</ele>
        <time>2014-08-04T15:56:59Z</time>
      </trkpt>
      <trkpt lat="47.86189" lon="5.36959">
        <ele>343.2913</ele>
        <time>2014-08-04T15:57:00Z</time>
      </trkpt>
      <trkpt lat="47.86197" lon="5.36962">
        <ele>342.86</ele>
        <time>2014-08-04T15:57:02Z</time>
      </trkpt>
      <trkpt lat="47.86201" lon="5.36963">
        <ele>342.4492</ele>
        <time>2014-08-04T15:57:03Z</time>
      </trkpt>
      <trkpt lat="47.8621" lon="5.36965">
        <ele>342.1725</ele>
        <time>2014-08-04T15:57:05Z</time>
      </trkpt>
      <trkpt lat="47.86215" lon="5.36965">
        <ele>342.8857</ele>
        <time>2014-08-04T15:57:06Z</time>
      </trkpt>
      <trkpt lat="47.86219" lon="5.36966">
        <ele>342.8438</ele>
        <time>2014-08-04T15:57:07Z</time>
      </trkpt>
      <trkpt lat="47.86224" lon="5.36967">
        <ele>343.1548</ele>
        <time>2014-08-04T15:57:08Z</time>
      </trkpt>
      <trkpt lat="47.86229" lon="5.36968">
        <ele>342.7299</ele>
        <time>2014-08-04T15:57:09Z</time>
      </trkpt>
      <trkpt lat="47.86234" lon="5.36967">
        <ele>342.4177</ele>
        <time>2014-08-04T15:57:10Z</time>
      </trkpt>
      <trkpt lat="47.86239" lon="5.36968">
        <ele>342.128</ele>
        <time>2014-08-04T15:57:11Z</time>
      </trkpt>
      <trkpt lat="47.86243" lon="5.36968">
        <ele>342.0133</ele>
        <time>2014-08-04T15:57:12Z</time>
      </trkpt>
      <trkpt lat="47.86252" lon="5.36967">
        <ele>343.994</ele>
        <time>2014-08-04T15:57:14Z</time>
      </trkpt>
      <trkpt lat="47.86257" lon="5.36967">
        <ele>344.4048</ele>
        <time>2014-08-04T15:57:15Z</time>
      </trkpt>
      <trkpt lat="47.86262" lon="5.36967">
        <ele>344.4936</ele>
        <time>2014-08-04T15:57:16Z</time>
      </trkpt>
      <trkpt lat="47.86267" lon="5.36966">
        <ele>345.491</ele>
        <time>2014-08-04T15:57:17Z</time>
      </trkpt>
      <trkpt lat="47.86271" lon="5.36966">
        <ele>344.4412</ele>
        <time>2014-08-04T15:57:18Z</time>
      </trkpt>
      <trkpt lat="47.86276" lon="5.36964">
        <ele>344.4137</ele>
        <time>2014-08-04T15:57:19Z</time>
      </trkpt>
      <trkpt lat="47.86284" lon="5.36961">
        <ele>345.2937</ele>
        <time>2014-08-04T15:57:21Z</time>
      </trkpt>
      <trkpt lat="47.86289" lon="5.3696">
        <ele>344.315</ele>
        <time>2014-08-04T15:57:22Z</time>
      </trkpt>
      <trkpt lat="47.86298" lon="5.36958">
        <ele>343.1085</ele>
        <time>2014-08-04T15:57:24Z</time>
      </trkpt>
      <trkpt lat="47.86303" lon="5.36957">
        <ele>343.4205</ele>
        <time>2014-08-04T15:57:25Z</time>
      </trkpt>
      <trkpt lat="47.86309" lon="5.36955">
        <ele>343.8416</ele>
        <time>2014-08-04T15:57:26Z</time>
      </trkpt>
      <trkpt lat="47.86314" lon="5.36954">
        <ele>344.9281</ele>
        <time>2014-08-04T15:57:27Z</time>
      </trkpt>
      <trkpt lat="47.8632" lon="5.36953">
        <ele>345.412</ele>
        <time>2014-08-04T15:57:28Z</time>
      </trkpt>
      <trkpt lat="47.86325" lon="5.36951">
        <ele>344.7742</ele>
        <time>2014-08-04T15:57:29Z</time>
      </trkpt>
      <trkpt lat="47.8633" lon="5.3695">
        <ele>344.593</ele>
        <time>2014-08-04T15:57:30Z</time>
      </trkpt>
      <trkpt lat="47.86335" lon="5.36948">
        <ele>343.6148</ele>
        <time>2014-08-04T15:57:31Z</time>
      </trkpt>
      <trkpt lat="47.86343" lon="5.36945">
        <ele>345.1152</ele>
        <time>2014-08-04T15:57:33Z</time>
      </trkpt>
      <trkpt lat="47.86348" lon="5.36943">
        <ele>345.6116</ele>
        <time>2014-08-04T15:57:34Z</time>
      </trkpt>
      <trkpt lat="47.86353" lon="5.36942">
        <ele>345.744</ele>
        <time>2014-08-04T15:57:35Z</time>
      </trkpt>
      <trkpt lat="47.86358" lon="5.3694">
        <ele>345.5283</ele>
        <time>2014-08-04T15:57:36Z</time>
      </trkpt>
      <trkpt lat="47.86364" lon="5.36938">
        <ele>344.5597</ele>
        <time>2014-08-04T15:57:37Z</time>
      </trkpt>
      <trkpt lat="47.86368" lon="5.36936">
        <ele>344.758</ele>
        <time>2014-08-04T15:57:38Z</time>
      </trkpt>
      <trkpt lat="47.86377" lon="5.36933">
        <ele>343.6306</ele>
        <time>2014-08-04T15:57:40Z</time>
      </trkpt>
      <trkpt lat="47.86385" lon="5.36929">
        <ele>347.6107</ele>
        <time>2014-08-04T15:57:42Z</time>
      </trkpt>
      <trkpt lat="47.86389" lon="5.36927">
        <ele>348.5176</ele>
        <time>2014-08-04T15:57:43Z</time>
      </trkpt>
      <trkpt lat="47.86395" lon="5.36925">
        <ele>346.5287</ele>
        <time>2014-08-04T15:57:44Z</time>
      </trkpt>
      <trkpt lat="47.86399" lon="5.36922">
        <ele>346.8986</ele>
        <time>2014-08-04T15:57:45Z</time>
      </trkpt>
      <trkpt lat="47.86404" lon="5.3692">
        <ele>348.3279</ele>
        <time>2014-08-04T15:57:46Z</time>
      </trkpt>
      <trkpt lat="47.86409" lon="5.36918">
        <ele>347.7545</ele>
        <time>2014-08-04T15:57:47Z</time>
      </trkpt>
      <trkpt lat="47.86414" lon="5.36916">
        <ele>346.9371</ele>
        <time>2014-08-04T15:57:48Z</time>
      </trkpt>
      <trkpt lat="47.86419" lon="5.36915">
        <ele>346.1896</ele>
        <time>2014-08-04T15:57:49Z</time>
      </trkpt>
      <trkpt lat="47.86425" lon="5.36913">
        <ele>345.9137</ele>
        <time>2014-08-04T15:57:50Z</time>
      </trkpt>
      <trkpt lat="47.8643" lon="5.36911">
        <ele>346.6904</ele>
        <time>2014-08-04T15:57:51Z</time>
      </trkpt>
      <trkpt lat="47.86438" lon="5.36908">
        <ele>345.255</ele>
        <time>2014-08-04T15:57:53Z</time>
      </trkpt>
      <trkpt lat="47.86443" lon="5.36905">
        <ele>344.3868</ele>
        <time>2014-08-04T15:57:54Z</time>
      </trkpt>
      <trkpt lat="47.86447" lon="5.36903">
        <ele>343.3304</ele>
        <time>2014-08-04T15:57:55Z</time>
      </trkpt>
      <trkpt lat="47.86456" lon="5.36899">
        <ele>343.8296</ele>
        <time>2014-08-04T15:57:57Z</time>
      </trkpt>
      <trkpt lat="47.86464" lon="5.36894">
        <ele>343.2395</ele>
        <time>2014-08-04T15:57:59Z</time>
      </trkpt>
      <trkpt lat="47.86468" lon="5.36891">
        <ele>342.2467</ele>
        <time>2014-08-04T15:58:00Z</time>
      </trkpt>
      <trkpt lat="47.86473" lon="5.36889">
        <ele>341.5677</ele>
        <time>2014-08-04T15:58:01Z</time>
      </trkpt>
      <trkpt lat="47.86478" lon="5.36886">
        <ele>341.4911</ele>
        <time>2014-08-04T15:58:02Z</time>
      </trkpt>
      <trkpt lat="47.86482" lon="5.36883">
        <ele>342.0067</ele>
        <time>2014-08-04T15:58:03Z</time>
      </trkpt>
      <trkpt lat="47.8649" lon="5.36878">
        <ele>339.4068</ele>
        <time>2014-08-04T15:58:05Z</time>
      </trkpt>
      <trkpt lat="47.86499" lon="5.36873">
        <ele>339.25</ele>
        <time>2014-08-04T15:58:07Z</time>
      </trkpt>
      <trkpt lat="47.86504" lon="5.3687">
        <ele>339.7632</ele>
        <time>2014-08-04T15:58:08Z</time>
      </trkpt>
      <trkpt lat="47.86508" lon="5.36867">
        <ele>339.9373</ele>
        <time>2014-08-04T15:58:09Z</time>
      </trkpt>
      <trkpt lat="47.86513" lon="5.36864">
        <ele>340.0148</ele>
        <time>2014-08-04T15:58:10Z</time>
      </trkpt>
      <trkpt lat="47.86519" lon="5.36861">
        <ele>340.3029</ele>
        <time>2014-08-04T15:58:11Z</time>
      </trkpt>
      <trkpt lat="47.86523" lon="5.36858">
        <ele>341.0964</ele>
        <time>2014-08-04T15:58:12Z</time>
      </trkpt>
      <trkpt lat="47.86527" lon="5.36856">
        <ele>341.16</ele>
        <time>2014-08-04T15:58:13Z</time>
      </trkpt>
      <trkpt lat="47.86531" lon="5.36852">
        <ele>341.6229</ele>
        <time>2014-08-04T15:58:14Z</time>
      </trkpt>
      <trkpt lat="47.86539" lon="5.36847">
        <ele>341.7783</ele>
        <time>2014-08-04T15:58:16Z</time>
      </trkpt>
      <trkpt lat="47.86543" lon="5.36844">
        <ele>341.7556</ele>
        <time>2014-08-04T15:58:17Z</time>
      </trkpt>
      <trkpt lat="47.86549" lon="5.36838">
        <ele>339.5176</ele>
        <time>2014-08-04T15:58:19Z</time>
      </trkpt>
      <trkpt lat="47.86557" lon="5.36832">
        <ele>338.2993</ele>
        <time>2014-08-04T15:58:21Z</time>
      </trkpt>
      <trkpt lat="47.86561" lon="5.36827">
        <ele>337.8026</ele>
        <time>2014-08-04T15:58:22Z</time>
      </trkpt>
      <trkpt lat="47.86566" lon="5.36823">
        <ele>337.6857</ele>
        <time>2014-08-04T15:58:23Z</time>
      </trkpt>
      <trkpt lat="47.8657" lon="5.3682">
        <ele>337.7125</ele>
        <time>2014-08-04T15:58:24Z</time>
      </trkpt>
      <trkpt lat="47.86574" lon="5.36816">
        <ele>337.7252</ele>
        <time>2014-08-04T15:58:25Z</time>
      </trkpt>
      <trkpt lat="47.86578" lon="5.36813">
        <ele>338.4007</ele>
        <time>2014-08-04T15:58:26Z</time>
      </trkpt>
      <trkpt lat="47.86583" lon="5.3681">
        <ele>339.0721</ele>
        <time>2014-08-04T15:58:27Z</time>
      </trkpt>
      <trkpt lat="47.86587" lon="5.36806">
        <ele>339.3556</ele>
        <time>2014-08-04T15:58:28Z</time>
      </trkpt>
      <trkpt lat="47.86591" lon="5.36803">
        <ele>340.0054</ele>
        <time>2014-08-04T15:58:29Z</time>
      </trkpt>
      <trkpt lat="47.86595" lon="5.368">
        <ele>339.9556</ele>
        <time>2014-08-04T15:58:30Z</time>
      </trkpt>
      <trkpt lat="47.866" lon="5.36797">
        <ele>338.2664</ele>
        <time>2014-08-04T15:58:31Z</time>
      </trkpt>
      <trkpt lat="47.86608" lon="5.3679">
        <ele>338.6516</ele>
        <time>2014-08-04T15:58:33Z</time>
      </trkpt>
      <trkpt lat="47.86612" lon="5.36786">
        <ele>338.5024</ele>
        <time>2014-08-04T15:58:34Z</time>
      </trkpt>
      <trkpt lat="47.86616" lon="5.36782">
        <ele>339.2487</ele>
        <time>2014-08-04T15:58:35Z</time>
      </trkpt>
      <trkpt lat="47.86621" lon="5.36778">
        <ele>339.1631</ele>
        <time>2014-08-04T15:58:36Z</time>
      </trkpt>
      <trkpt lat="47.86629" lon="5.36771">
        <ele>338.7841</ele>
        <time>2014-08-04T15:58:38Z</time>
      </trkpt>
      <trkpt lat="47.86636" lon="5.36764">
        <ele>337.6851</ele>
        <time>2014-08-04T15:58:40Z</time>
      </trkpt>
      <trkpt lat="47.86641" lon="5.3676">
        <ele>338.6483</ele>
        <time>2014-08-04T15:58:41Z</time>
      </trkpt>
      <trkpt lat="47.86645" lon="5.36756">
        <ele>339.0779</ele>
        <time>2014-08-04T15:58:42Z</time>
      </trkpt>
      <trkpt lat="47.86649" lon="5.36751">
        <ele>338.7809</ele>
        <time>2014-08-04T15:58:43Z</time>
      </trkpt>
      <trkpt lat="47.86656" lon="5.36744">
        <ele>337.5252</ele>
        <time>2014-08-04T15:58:45Z</time>
      </trkpt>
      <trkpt lat="47.86664" lon="5.36735">
        <ele>336.0727</ele>
        <time>2014-08-04T15:58:47Z</time>
      </trkpt>
      <trkpt lat="47.86668" lon="5.36731">
        <ele>336.6894</ele>
        <time>2014-08-04T15:58:48Z</time>
      </trkpt>
      <trkpt lat="47.86672" lon="5.36726">
        <ele>337.1832</ele>
        <time>2014-08-04T15:58:49Z</time>
      </trkpt>
      <trkpt lat="47.86676" lon="5.36723">
        <ele>336.6363</ele>
        <time>2014-08-04T15:58:50Z</time>
      </trkpt>
      <trkpt lat="47.8668" lon="5.36719">
        <ele>336.5662</ele>
        <time>2014-08-04T15:58:51Z</time>
      </trkpt>
      <trkpt lat="47.86684" lon="5.36715">
        <ele>336.2589</ele>
        <time>2014-08-04T15:58:52Z</time>
      </trkpt>
      <trkpt lat="47.86691" lon="5.36707">
        <ele>336.6154</ele>
        <time>2014-08-04T15:58:54Z</time>
      </trkpt>
      <trkpt lat="47.86695" lon="5.36702">
        <ele>336.6576</ele>
        <time>2014-08-04T15:58:55Z</time>
      </trkpt>
      <trkpt lat="47.86702" lon="5.36693">
        <ele>336.3281</ele>
        <time>2014-08-04T15:58:57Z</time>
      </trkpt>
      <trkpt lat="47.86706" lon="5.36688">
        <ele>336.7322</ele>
        <time>2014-08-04T15:58:58Z</time>
      </trkpt>
      <trkpt lat="47.8671" lon="5.36684">
        <ele>334.791</ele>
        <time>2014-08-04T15:58:59Z</time>
      </trkpt>
      <trkpt lat="47.86715" lon="5.3668">
        <ele>337.977</ele>
        <time>2014-08-04T15:59:00Z</time>
      </trkpt>
      <trkpt lat="47.86719" lon="5.36675">
        <ele>339.5412</ele>
        <time>2014-08-04T15:59:01Z</time>
      </trkpt>
      <trkpt lat="47.86726" lon="5.36667">
        <ele>339.3989</ele>
        <time>2014-08-04T15:59:03Z</time>
      </trkpt>
      <trkpt lat="47.8673" lon="5.36663">
        <ele>339.2221</ele>
        <time>2014-08-04T15:59:04Z</time>
      </trkpt>
      <trkpt lat="47.86734" lon="5.36658">
        <ele>339.3867</ele>
        <time>2014-08-04T15:59:05Z</time>
      </trkpt>
      <trkpt lat="47.8674" lon="5.36649">
        <ele>338.4197</ele>
        <time>2014-08-04T15:59:07Z</time>
      </trkpt>
      <trkpt lat="47.86744" lon="5.36644">
        <ele>338.3838</ele>
        <time>2014-08-04T15:59:08Z</time>
      </trkpt>
      <trkpt lat="47.8675" lon="5.36636">
        <ele>335.7536</ele>
        <time>2014-08-04T15:59:10Z</time>
      </trkpt>
      <trkpt lat="47.86757" lon="5.36628">
        <ele>342.276</ele>
        <time>2014-08-04T15:59:12Z</time>
      </trkpt>
      <trkpt lat="47.86761" lon="5.36623">
        <ele>343.3921</ele>
        <time>2014-08-04T15:59:13Z</time>
      </trkpt>
      <trkpt lat="47.86765" lon="5.36618">
        <ele>341.7983</ele>
        <time>2014-08-04T15:59:14Z</time>
      </trkpt>
      <trkpt lat="47.86771" lon="5.36609">
        <ele>339.3362</ele>
        <time>2014-08-04T15:59:16Z</time>
      </trkpt>
      <trkpt lat="47.86773" lon="5.36604">
        <ele>339.1127</ele>
        <time>2014-08-04T15:59:17Z</time>
      </trkpt>
      <trkpt lat="47.86777" lon="5.36598">
        <ele>338.5156</ele>
        <time>2014-08-04T15:59:18Z</time>
      </trkpt>
      <trkpt lat="47.86783" lon="5.3659">
        <ele>336.6602</ele>
        <time>2014-08-04T15:59:20Z</time>
      </trkpt>
      <trkpt lat="47.86788" lon="5.36581">
        <ele>335.4923</ele>
        <time>2014-08-04T15:59:22Z</time>
      </trkpt>
      <trkpt lat="47.86794" lon="5.36572">
        <ele>334.032</ele>
        <time>2014-08-04T15:59:24Z</time>
      </trkpt>
      <trkpt lat="47.86799" lon="5.36565">
        <ele>334.4148</ele>
        <time>2014-08-04T15:59:26Z</time>
      </trkpt>
      <trkpt lat="47.86805" lon="5.36556">
        <ele>335.3083</ele>
        <time>2014-08-04T15:59:28Z</time>
      </trkpt>
      <trkpt lat="47.86808" lon="5.36551">
        <ele>335.1227</ele>
        <time>2014-08-04T15:59:29Z</time>
      </trkpt>
      <trkpt lat="47.86814" lon="5.36542">
        <ele>335.7318</ele>
        <time>2014-08-04T15:59:31Z</time>
      </trkpt>
      <trkpt lat="47.8682" lon="5.36534">
        <ele>335.8901</ele>
        <time>2014-08-04T15:59:33Z</time>
      </trkpt>
      <trkpt lat="47.86826" lon="5.36525">
        <ele>335.7151</ele>
        <time>2014-08-04T15:59:35Z</time>
      </trkpt>
      <trkpt lat="47.86832" lon="5.36516">
        <ele>335.9657</ele>
        <time>2014-08-04T15:59:37Z</time>
      </trkpt>
      <trkpt lat="47.86839" lon="5.36506">
        <ele>336.9852</ele>
        <time>2014-08-04T15:59:39Z</time>
      </trkpt>
      <trkpt lat="47.86845" lon="5.36498">
        <ele>337.3702</ele>
        <time>2014-08-04T15:59:41Z</time>
      </trkpt>
      <trkpt lat="47.86851" lon="5.36488">
        <ele>336.7872</ele>
        <time>2014-08-04T15:59:43Z</time>
      </trkpt>
      <trkpt lat="47.86857" lon="5.3648">
        <ele>336.2988</ele>
        <time>2014-08-04T15:59:45Z</time>
      </trkpt>
      <trkpt lat="47.86863" lon="5.36471">
        <ele>336.5727</ele>
        <time>2014-08-04T15:59:47Z</time>
      </trkpt>
      <trkpt lat="47.86868" lon="5.36463">
        <ele>335.6158</ele>
        <time>2014-08-04T15:59:49Z</time>
      </trkpt>
      <trkpt lat="47.86874" lon="5.36454">
        <ele>336.4623</ele>
        <time>2014-08-04T15:59:51Z</time>
      </trkpt>
      <trkpt lat="47.8688" lon="5.36445">
        <ele>335.6786</ele>
        <time>2014-08-04T15:59:53Z</time>
      </trkpt>
      <trkpt lat="47.86886" lon="5.36437">
        <ele>335.403</ele>
        <time>2014-08-04T15:59:55Z</time>
      </trkpt>
      <trkpt lat="47.86889" lon="5.36432">
        <ele>335.1249</ele>
        <time>2014-08-04T15:59:56Z</time>
      </trkpt>
      <trkpt lat="47.86896" lon="5.36423">
        <ele>337.963</ele>
        <time>2014-08-04T15:59:58Z</time>
      </trkpt>
      <trkpt lat="47.86902" lon="5.36415">
        <ele>339.4777</ele>
        <time>2014-08-04T16:00:00Z</time>
      </trkpt>
      <trkpt lat="47.86908" lon="5.36407">
        <ele>338.4857</ele>
        <time>2014-08-04T16:00:02Z</time>
      </trkpt>
      <trkpt lat="47.86913" lon="5.36397">
        <ele>339.7564</ele>
        <time>2014-08-04T16:00:04Z</time>
      </trkpt>
      <trkpt lat="47.86919" lon="5.36389">
        <ele>339.8969</ele>
        <time>2014-08-04T16:00:06Z</time>
      </trkpt>
      <trkpt lat="47.86925" lon="5.3638">
        <ele>340.0378</ele>
        <time>2014-08-04T16:00:08Z</time>
      </trkpt>
      <trkpt lat="47.86931" lon="5.36371">
        <ele>339.5683</ele>
        <time>2014-08-04T16:00:10Z</time>
      </trkpt>
      <trkpt lat="47.86937" lon="5.36362">
        <ele>339.727</ele>
        <time>2014-08-04T16:00:12Z</time>
      </trkpt>
      <trkpt lat="47.86943" lon="5.36353">
        <ele>339.903</ele>
        <time>2014-08-04T16:00:14Z</time>
      </trkpt>
      <trkpt lat="47.86947" lon="5.36348">
        <ele>340.1715</ele>
        <time>2014-08-04T16:00:15Z</time>
      </trkpt>
      <trkpt lat="47.86952" lon="5.3634">
        <ele>339.4775</ele>
        <time>2014-08-04T16:00:17Z</time>
      </trkpt>
      <trkpt lat="47.86958" lon="5.36332">
        <ele>339.4291</ele>
        <time>2014-08-04T16:00:19Z</time>
      </trkpt>
      <trkpt lat="47.86964" lon="5.36323">
        <ele>339.4662</ele>
        <time>2014-08-04T16:00:21Z</time>
      </trkpt>
      <trkpt lat="47.8697" lon="5.36314">
        <ele>339.3426</ele>
        <time>2014-08-04T16:00:23Z</time>
      </trkpt>
      <trkpt lat="47.86975" lon="5.36305">
        <ele>338.8175</ele>
        <time>2014-08-04T16:00:25Z</time>
      </trkpt>
      <trkpt lat="47.86978" lon="5.363">
        <ele>338.9772</ele>
        <time>2014-08-04T16:00:26Z</time>
      </trkpt>
      <trkpt lat="47.86984" lon="5.36293">
        <ele>338.8272</ele>
        <time>2014-08-04T16:00:28Z</time>
      </trkpt>
      <trkpt lat="47.8699" lon="5.36284">
        <ele>338.5132</ele>
        <time>2014-08-04T16:00:30Z</time>
      </trkpt>
      <trkpt lat="47.86996" lon="5.36276">
        <ele>338.0319</ele>
        <time>2014-08-04T16:00:32Z</time>
      </trkpt>
      <trkpt lat="47.87002" lon="5.36267">
        <ele>337.749</ele>
        <time>2014-08-04T16:00:34Z</time>
      </trkpt>
      <trkpt lat="47.87008" lon="5.36258">
        <ele>337.5807</ele>
        <time>2014-08-04T16:00:36Z</time>
      </trkpt>
      <trkpt lat="47.87014" lon="5.3625">
        <ele>337.8491</ele>
        <time>2014-08-04T16:00:38Z</time>
      </trkpt>
      <trkpt lat="47.8702" lon="5.36241">
        <ele>338.4046</ele>
        <time>2014-08-04T16:00:40Z</time>
      </trkpt>
      <trkpt lat="47.87026" lon="5.36232">
        <ele>338.883</ele>
        <time>2014-08-04T16:00:42Z</time>
      </trkpt>
      <trkpt lat="47.87032" lon="5.36223">
        <ele>339.0777</ele>
        <time>2014-08-04T16:00:44Z</time>
      </trkpt>
      <trkpt lat="47.87038" lon="5.36214">
        <ele>339.1541</ele>
        <time>2014-08-04T16:00:46Z</time>
      </trkpt>
      <trkpt lat="47.87044" lon="5.36206">
        <ele>339.2913</ele>
        <time>2014-08-04T16:00:48Z</time>
      </trkpt>
      <trkpt lat="47.87049" lon="5.36196">
        <ele>339.0923</ele>
        <time>2014-08-04T16:00:50Z</time>
      </trkpt>
      <trkpt lat="47.87054" lon="5.36187">
        <ele>338.8605</ele>
        <time>2014-08-04T16:00:52Z</time>
      </trkpt>
      <trkpt lat="47.8706" lon="5.36179">
        <ele>338.5602</ele>
        <time>2014-08-04T16:00:54Z</time>
      </trkpt>
      <trkpt lat="47.87066" lon="5.3617">
        <ele>338.6172</ele>
        <time>2014-08-04T16:00:56Z</time>
      </trkpt>
      <trkpt lat="47.87072" lon="5.36162">
        <ele>339.3029</ele>
        <time>2014-08-04T16:00:58Z</time>
      </trkpt>
      <trkpt lat="47.87079" lon="5.36153">
        <ele>339.7669</ele>
        <time>2014-08-04T16:01:00Z</time>
      </trkpt>
      <trkpt lat="47.87084" lon="5.36145">
        <ele>339.4948</ele>
        <time>2014-08-04T16:01:02Z</time>
      </trkpt>
      <trkpt lat="47.87089" lon="5.36137">
        <ele>338.7442</ele>
        <time>2014-08-04T16:01:04Z</time>
      </trkpt>
      <trkpt lat="47.87095" lon="5.36128">
        <ele>338.8018</ele>
        <time>2014-08-04T16:01:06Z</time>
      </trkpt>
      <trkpt lat="47.871" lon="5.3612">
        <ele>338.2664</ele>
        <time>2014-08-04T16:01:08Z</time>
      </trkpt>
      <trkpt lat="47.87106" lon="5.36111">
        <ele>337.4251</ele>
        <time>2014-08-04T16:01:10Z</time>
      </trkpt>
      <trkpt lat="47.87112" lon="5.36101">
        <ele>337.889</ele>
        <time>2014-08-04T16:01:12Z</time>
      </trkpt>
      <trkpt lat="47.87118" lon="5.36092">
        <ele>337.3365</ele>
        <time>2014-08-04T16:01:14Z</time>
      </trkpt>
      <trkpt lat="47.87123" lon="5.36082">
        <ele>337.7554</ele>
        <time>2014-08-04T16:01:16Z</time>
      </trkpt>
      <trkpt lat="47.87129" lon="5.36071">
        <ele>338.1548</ele>
        <time>2014-08-04T16:01:18Z</time>
      </trkpt>
      <trkpt lat="47.87132" lon="5.36066">
        <ele>338.4643</ele>
        <time>2014-08-04T16:01:19Z</time>
      </trkpt>
      <trkpt lat="47.87136" lon="5.36056">
        <ele>336.4556</ele>
        <time>2014-08-04T16:01:21Z</time>
      </trkpt>
      <trkpt lat="47.8714" lon="5.36047">
        <ele>335.5137</ele>
        <time>2014-08-04T16:01:23Z</time>
      </trkpt>
      <trkpt lat="47.87146" lon="5.36038">
        <ele>336.0547</ele>
        <time>2014-08-04T16:01:25Z</time>
      </trkpt>
      <trkpt lat="47.8715" lon="5.36028">
        <ele>337.4241</ele>
        <time>2014-08-04T16:01:27Z</time>
      </trkpt>
      <trkpt lat="47.87156" lon="5.36017">
        <ele>338.2408</ele>
        <time>2014-08-04T16:01:29Z</time>
      </trkpt>
      <trkpt lat="47.8716" lon="5.36007">
        <ele>338.4271</ele>
        <time>2014-08-04T16:01:31Z</time>
      </trkpt>
      <trkpt lat="47.87165" lon="5.35998">
        <ele>338.5995</ele>
        <time>2014-08-04T16:01:33Z</time>
      </trkpt>
      <trkpt lat="47.87167" lon="5.35992">
        <ele>336.4506</ele>
        <time>2014-08-04T16:01:34Z</time>
      </trkpt>
      <trkpt lat="47.87171" lon="5.35982">
        <ele>335.6213</ele>
        <time>2014-08-04T16:01:36Z</time>
      </trkpt>
      <trkpt lat="47.87176" lon="5.3597">
        <ele>335.3399</ele>
        <time>2014-08-04T16:01:38Z</time>
      </trkpt>
      <trkpt lat="47.8718" lon="5.35959">
        <ele>334.8163</ele>
        <time>2014-08-04T16:01:40Z</time>
      </trkpt>
      <trkpt lat="47.87183" lon="5.35949">
        <ele>334.925</ele>
        <time>2014-08-04T16:01:42Z</time>
      </trkpt>
      <trkpt lat="47.87187" lon="5.35937">
        <ele>335.6518</ele>
        <time>2014-08-04T16:01:44Z</time>
      </trkpt>
      <trkpt lat="47.87191" lon="5.35926">
        <ele>336.3214</ele>
        <time>2014-08-04T16:01:46Z</time>
      </trkpt>
      <trkpt lat="47.87194" lon="5.35916">
        <ele>336.8146</ele>
        <time>2014-08-04T16:01:48Z</time>
      </trkpt>
      <trkpt lat="47.87196" lon="5.3591">
        <ele>336.8832</ele>
        <time>2014-08-04T16:01:49Z</time>
      </trkpt>
      <trkpt lat="47.872" lon="5.35897">
        <ele>338.515</ele>
        <time>2014-08-04T16:01:51Z</time>
      </trkpt>
      <trkpt lat="47.87203" lon="5.35885">
        <ele>338.9095</ele>
        <time>2014-08-04T16:01:53Z</time>
      </trkpt>
      <trkpt lat="47.87207" lon="5.35875">
        <ele>338.4236</ele>
        <time>2014-08-04T16:01:55Z</time>
      </trkpt>
      <trkpt lat="47.87211" lon="5.35863">
        <ele>337.9958</ele>
        <time>2014-08-04T16:01:57Z</time>
      </trkpt>
      <trkpt lat="47.87212" lon="5.35857">
        <ele>339.0913</ele>
        <time>2014-08-04T16:01:58Z</time>
      </trkpt>
      <trkpt lat="47.87216" lon="5.35847">
        <ele>339.0632</ele>
        <time>2014-08-04T16:02:00Z</time>
      </trkpt>
      <trkpt lat="47.87219" lon="5.35836">
        <ele>334.778</ele>
        <time>2014-08-04T16:02:02Z</time>
      </trkpt>
      <trkpt lat="47.87222" lon="5.35825">
        <ele>336.7242</ele>
        <time>2014-08-04T16:02:04Z</time>
      </trkpt>
      <trkpt lat="47.87225" lon="5.35814">
        <ele>335.2635</ele>
        <time>2014-08-04T16:02:06Z</time>
      </trkpt>
      <trkpt lat="47.87227" lon="5.35807">
        <ele>334.9443</ele>
        <time>2014-08-04T16:02:07Z</time>
      </trkpt>
      <trkpt lat="47.8723" lon="5.35797">
        <ele>335.4459</ele>
        <time>2014-08-04T16:02:09Z</time>
      </trkpt>
      <trkpt lat="47.87234" lon="5.35786">
        <ele>336.0798</ele>
        <time>2014-08-04T16:02:11Z</time>
      </trkpt>
      <trkpt lat="47.87237" lon="5.35775">
        <ele>336.7486</ele>
        <time>2014-08-04T16:02:13Z</time>
      </trkpt>
      <trkpt lat="47.8724" lon="5.35764">
        <ele>336.4319</ele>
        <time>2014-08-04T16:02:15Z</time>
      </trkpt>
      <trkpt lat="47.87244" lon="5.35752">
        <ele>336.4002</ele>
        <time>2014-08-04T16:02:17Z</time>
      </trkpt>
      <trkpt lat="47.87248" lon="5.35741">
        <ele>337.5207</ele>
        <time>2014-08-04T16:02:19Z</time>
      </trkpt>
      <trkpt lat="47.87251" lon="5.35731">
        <ele>337.1496</ele>
        <time>2014-08-04T16:02:21Z</time>
      </trkpt>
      <trkpt lat="47.87254" lon="5.3572">
        <ele>336.9257</ele>
        <time>2014-08-04T16:02:23Z</time>
      </trkpt>
      <trkpt lat="47.87258" lon="5.3571">
        <ele>337.2033</ele>
        <time>2014-08-04T16:02:25Z</time>
      </trkpt>
      <trkpt lat="47.87264" lon="5.35703">
        <ele>336.8411</ele>
        <time>2014-08-04T16:02:27Z</time>
      </trkpt>
      <trkpt lat="47.8727" lon="5.35699">
        <ele>338.3814</ele>
        <time>2014-08-04T16:02:29Z</time>
      </trkpt>
      <trkpt lat="47.87275" lon="5.35695">
        <ele>337.3299</ele>
        <time>2014-08-04T16:02:31Z</time>
      </trkpt>
      <trkpt lat="47.87279" lon="5.35692">
        <ele>339.5955</ele>
        <time>2014-08-04T16:02:33Z</time>
      </trkpt>
      <trkpt lat="47.87283" lon="5.35689">
        <ele>340.1126</ele>
        <time>2014-08-04T16:02:35Z</time>
      </trkpt>
      <trkpt lat="47.87288" lon="5.35685">
        <ele>341.0859</ele>
        <time>2014-08-04T16:02:37Z</time>
      </trkpt>
      <trkpt lat="47.8729" lon="5.35679">
        <ele>342.0513</ele>
        <time>2014-08-04T16:02:39Z</time>
      </trkpt>
      <trkpt lat="47.87288" lon="5.3567">
        <ele>342.2321</ele>
        <time>2014-08-04T16:02:42Z</time>
      </trkpt>
      <trkpt lat="47.87282" lon="5.35667">
        <ele>342.7348</ele>
        <time>2014-08-04T16:02:44Z</time>
      </trkpt>
      <trkpt lat="47.87277" lon="5.35666">
        <ele>341.5143</ele>
        <time>2014-08-04T16:02:46Z</time>
      </trkpt>
      <trkpt lat="47.87271" lon="5.35663">
        <ele>341.5466</ele>
        <time>2014-08-04T16:02:48Z</time>
      </trkpt>
      <trkpt lat="47.87265" lon="5.35659">
        <ele>342.7269</ele>
        <time>2014-08-04T16:02:50Z</time>
      </trkpt>
      <trkpt lat="47.87259" lon="5.35654">
        <ele>341.9741</ele>
        <time>2014-08-04T16:02:52Z</time>
      </trkpt>
      <trkpt lat="47.87254" lon="5.35651">
        <ele>340.3898</ele>
        <time>2014-08-04T16:02:54Z</time>
      </trkpt>
      <trkpt lat="47.87249" lon="5.35647">
        <ele>342.3249</ele>
        <time>2014-08-04T16:02:56Z</time>
      </trkpt>
      <trkpt lat="47.87242" lon="5.35649">
        <ele>341.377</ele>
        <time>2014-08-04T16:02:58Z</time>
      </trkpt>
      <trkpt lat="47.87238" lon="5.35654">
        <ele>342.3175</ele>
        <time>2014-08-04T16:02:59Z</time>
      </trkpt>
      <trkpt lat="47.87234" lon="5.3566">
        <ele>342.3688</ele>
        <time>2014-08-04T16:03:00Z</time>
      </trkpt>
      <trkpt lat="47.87231" lon="5.35668">
        <ele>341.3474</ele>
        <time>2014-08-04T16:03:01Z</time>
      </trkpt>
      <trkpt lat="47.87229" lon="5.35676">
        <ele>341.779</ele>
        <time>2014-08-04T16:03:02Z</time>
      </trkpt>
      <trkpt lat="47.87227" lon="5.35685">
        <ele>344.9623</ele>
        <time>2014-08-04T16:03:03Z</time>
      </trkpt>
      <trkpt lat="47.87225" lon="5.35694">
        <ele>346.4571</ele>
        <time>2014-08-04T16:03:04Z</time>
      </trkpt>
      <trkpt lat="47.87223" lon="5.35703">
        <ele>347.5453</ele>
        <time>2014-08-04T16:03:05Z</time>
      </trkpt>
      <trkpt lat="47.87221" lon="5.35712">
        <ele>347.5082</ele>
        <time>2014-08-04T16:03:06Z</time>
      </trkpt>
      <trkpt lat="47.8722" lon="5.3572">
        <ele>347.0705</ele>
        <time>2014-08-04T16:03:07Z</time>
      </trkpt>
      <trkpt lat="47.87218" lon="5.35728">
        <ele>346.9016</ele>
        <time>2014-08-04T16:03:08Z</time>
      </trkpt>
      <trkpt lat="47.87217" lon="5.35736">
        <ele>344.9913</ele>
        <time>2014-08-04T16:03:09Z</time>
      </trkpt>
      <trkpt lat="47.87215" lon="5.35744">
        <ele>343.9281</ele>
        <time>2014-08-04T16:03:10Z</time>
      </trkpt>
      <trkpt lat="47.87213" lon="5.35753">
        <ele>343.732</ele>
        <time>2014-08-04T16:03:11Z</time>
      </trkpt>
      <trkpt lat="47.8721" lon="5.35761">
        <ele>342.8458</ele>
        <time>2014-08-04T16:03:12Z</time>
      </trkpt>
      <trkpt lat="47.87206" lon="5.35768">
        <ele>341.0396</ele>
        <time>2014-08-04T16:03:13Z</time>
      </trkpt>
      <trkpt lat="47.87201" lon="5.35775">
        <ele>341.1676</ele>
        <time>2014-08-04T16:03:14Z</time>
      </trkpt>
      <trkpt lat="47.87194" lon="5.35778">
        <ele>341.4111</ele>
        <time>2014-08-04T16:03:15Z</time>
      </trkpt>
      <trkpt lat="47.87186" lon="5.35777">
        <ele>342.968</ele>
        <time>2014-08-04T16:03:16Z</time>
      </trkpt>
      <trkpt lat="47.87182" lon="5.35772">
        <ele>341.5387</ele>
        <time>2014-08-04T16:03:17Z</time>
      </trkpt>
      <trkpt lat="47.87177" lon="5.35768">
        <ele>342.7038</ele>
        <time>2014-08-04T16:03:18Z</time>
      </trkpt>
      <trkpt lat="47.87173" lon="5.35762">
        <ele>342.0249</ele>
        <time>2014-08-04T16:03:19Z</time>
      </trkpt>
      <trkpt lat="47.87169" lon="5.35756">
        <ele>342.038</ele>
        <time>2014-08-04T16:03:20Z</time>
      </trkpt>
      <trkpt lat="47.87164" lon="5.35749">
        <ele>338.755</ele>
        <time>2014-08-04T16:03:21Z</time>
      </trkpt>
      <trkpt lat="47.8716" lon="5.35742">
        <ele>338.5997</ele>
        <time>2014-08-04T16:03:22Z</time>
      </trkpt>
      <trkpt lat="47.87156" lon="5.35735">
        <ele>338.3586</ele>
        <time>2014-08-04T16:03:23Z</time>
      </trkpt>
      <trkpt lat="47.87152" lon="5.35728">
        <ele>337.3756</ele>
        <time>2014-08-04T16:03:24Z</time>
      </trkpt>
      <trkpt lat="47.87148" lon="5.35721">
        <ele>337.3052</ele>
        <time>2014-08-04T16:03:25Z</time>
      </trkpt>
      <trkpt lat="47.87142" lon="5.35709">
        <ele>336.2863</ele>
        <time>2014-08-04T16:03:27Z</time>
      </trkpt>
      <trkpt lat="47.87139" lon="5.35703">
        <ele>335.7727</ele>
        <time>2014-08-04T16:03:28Z</time>
      </trkpt>
      <trkpt lat="47.87136" lon="5.35697">
        <ele>338.213</ele>
        <time>2014-08-04T16:03:29Z</time>
      </trkpt>
      <trkpt lat="47.87133" lon="5.35691">
        <ele>335.7083</ele>
        <time>2014-08-04T16:03:30Z</time>
      </trkpt>
      <trkpt lat="47.8713" lon="5.35685">
        <ele>336.5232</ele>
        <time>2014-08-04T16:03:31Z</time>
      </trkpt>
      <trkpt lat="47.87127" lon="5.35679">
        <ele>339.7964</ele>
        <time>2014-08-04T16:03:33Z</time>
      </trkpt>
      <trkpt lat="47.87122" lon="5.3567">
        <ele>337.8847</ele>
        <time>2014-08-04T16:03:35Z</time>
      </trkpt>
      <trkpt lat="47.87117" lon="5.35663">
        <ele>335.5712</ele>
        <time>2014-08-04T16:03:37Z</time>
      </trkpt>
      <trkpt lat="47.87114" lon="5.35658">
        <ele>335.9235</ele>
        <time>2014-08-04T16:03:38Z</time>
      </trkpt>
      <trkpt lat="47.87108" lon="5.35649">
        <ele>337.7236</ele>
        <time>2014-08-04T16:03:40Z</time>
      </trkpt>
      <trkpt lat="47.87103" lon="5.35641">
        <ele>336.0902</ele>
        <time>2014-08-04T16:03:42Z</time>
      </trkpt>
      <trkpt lat="47.871" lon="5.35636">
        <ele>332.5727</ele>
        <time>2014-08-04T16:03:43Z</time>
      </trkpt>
      <trkpt lat="47.87094" lon="5.35628">
        <ele>334.3794</ele>
        <time>2014-08-04T16:03:45Z</time>
      </trkpt>
      <trkpt lat="47.87091" lon="5.35623">
        <ele>335.7871</ele>
        <time>2014-08-04T16:03:46Z</time>
      </trkpt>
      <trkpt lat="47.87085" lon="5.35615">
        <ele>333.0276</ele>
        <time>2014-08-04T16:03:48Z</time>
      </trkpt>
      <trkpt lat="47.87079" lon="5.35605">
        <ele>333.5467</ele>
        <time>2014-08-04T16:03:50Z</time>
      </trkpt>
      <trkpt lat="47.87074" lon="5.35597">
        <ele>335.2459</ele>
        <time>2014-08-04T16:03:52Z</time>
      </trkpt>
      <trkpt lat="47.8707" lon="5.3559">
        <ele>333.8475</ele>
        <time>2014-08-04T16:03:54Z</time>
      </trkpt>
      <trkpt lat="47.87065" lon="5.35583">
        <ele>333.0693</ele>
        <time>2014-08-04T16:03:56Z</time>
      </trkpt>
      <trkpt lat="47.8706" lon="5.35575">
        <ele>335.0163</ele>
        <time>2014-08-04T16:03:58Z</time>
      </trkpt>
      <trkpt lat="47.87056" lon="5.35568">
        <ele>336.0865</ele>
        <time>2014-08-04T16:04:00Z</time>
      </trkpt>
      <trkpt lat="47.87052" lon="5.3556">
        <ele>336.2193</ele>
        <time>2014-08-04T16:04:02Z</time>
      </trkpt>
      <trkpt lat="47.87046" lon="5.3555">
        <ele>342.1475</ele>
        <time>2014-08-04T16:04:04Z</time>
      </trkpt>
      <trkpt lat="47.87042" lon="5.35544">
        <ele>337.2892</ele>
        <time>2014-08-04T16:04:06Z</time>
      </trkpt>
      <trkpt lat="47.87039" lon="5.35539">
        <ele>336.5289</ele>
        <time>2014-08-04T16:04:08Z</time>
      </trkpt>
      <trkpt lat="47.87032" lon="5.3553">
        <ele>335.2608</ele>
        <time>2014-08-04T16:04:10Z</time>
      </trkpt>
      <trkpt lat="47.87029" lon="5.35524">
        <ele>333.0253</ele>
        <time>2014-08-04T16:04:11Z</time>
      </trkpt>
      <trkpt lat="47.87024" lon="5.35516">
        <ele>334.9218</ele>
        <time>2014-08-04T16:04:13Z</time>
      </trkpt>
      <trkpt lat="47.87019" lon="5.35511">
        <ele>337.4557</ele>
        <time>2014-08-04T16:04:14Z</time>
      </trkpt>
      <trkpt lat="47.87016" lon="5.35506">
        <ele>334.6249</ele>
        <time>2014-08-04T16:04:15Z</time>
      </trkpt>
      <trkpt lat="47.87011" lon="5.35496">
        <ele>338.1997</ele>
        <time>2014-08-04T16:04:17Z</time>
      </trkpt>
      <trkpt lat="47.87007" lon="5.3549">
        <ele>341.2577</ele>
        <time>2014-08-04T16:04:18Z</time>
      </trkpt>
      <trkpt lat="47.87003" lon="5.35481">
        <ele>336.2086</ele>
        <time>2014-08-04T16:04:20Z</time>
      </trkpt>
      <trkpt lat="47.86997" lon="5.35472">
        <ele>333.9369</ele>
        <time>2014-08-04T16:04:22Z</time>
      </trkpt>
      <trkpt lat="47.86992" lon="5.35464">
        <ele>333.9338</ele>
        <time>2014-08-04T16:04:24Z</time>
      </trkpt>
      <trkpt lat="47.86989" lon="5.35459">
        <ele>334.4932</ele>
        <time>2014-08-04T16:04:25Z</time>
      </trkpt>
      <trkpt lat="47.86983" lon="5.35449">
        <ele>338.2735</ele>
        <time>2014-08-04T16:04:27Z</time>
      </trkpt>
      <trkpt lat="47.86979" lon="5.35441">
        <ele>340.3221</ele>
        <time>2014-08-04T16:04:29Z</time>
      </trkpt>
      <trkpt lat="47.86972" lon="5.35432">
        <ele>338.3397</ele>
        <time>2014-08-04T16:04:31Z</time>
      </trkpt>
      <trkpt lat="47.86968" lon="5.35423">
        <ele>335.3411</ele>
        <time>2014-08-04T16:04:33Z</time>
      </trkpt>
      <trkpt lat="47.86964" lon="5.35418">
        <ele>336.2172</ele>
        <time>2014-08-04T16:04:34Z</time>
      </trkpt>
      <trkpt lat="47.86959" lon="5.3541">
        <ele>334.2104</ele>
        <time>2014-08-04T16:04:36Z</time>
      </trkpt>
      <trkpt lat="47.86955" lon="5.35402">
        <ele>337.5958</ele>
        <time>2014-08-04T16:04:38Z</time>
      </trkpt>
      <trkpt lat="47.86952" lon="5.35397">
        <ele>337.9709</ele>
        <time>2014-08-04T16:04:39Z</time>
      </trkpt>
      <trkpt lat="47.86945" lon="5.35387">
        <ele>339.4142</ele>
        <time>2014-08-04T16:04:41Z</time>
      </trkpt>
      <trkpt lat="47.8694" lon="5.35379">
        <ele>334.6458</ele>
        <time>2014-08-04T16:04:43Z</time>
      </trkpt>
      <trkpt lat="47.86933" lon="5.35369">
        <ele>335.9164</ele>
        <time>2014-08-04T16:04:45Z</time>
      </trkpt>
      <trkpt lat="47.86929" lon="5.35364">
        <ele>337.4566</ele>
        <time>2014-08-04T16:04:46Z</time>
      </trkpt>
      <trkpt lat="47.86926" lon="5.35359">
        <ele>337.3297</ele>
        <time>2014-08-04T16:04:47Z</time>
      </trkpt>
      <trkpt lat="47.86921" lon="5.35351">
        <ele>336.1758</ele>
        <time>2014-08-04T16:04:49Z</time>
      </trkpt>
      <trkpt lat="47.86916" lon="5.35344">
        <ele>336.9789</ele>
        <time>2014-08-04T16:04:51Z</time>
      </trkpt>
      <trkpt lat="47.86911" lon="5.35336">
        <ele>337.8915</ele>
        <time>2014-08-04T16:04:53Z</time>
      </trkpt>
      <trkpt lat="47.86905" lon="5.35327">
        <ele>337.395</ele>
        <time>2014-08-04T16:04:55Z</time>
      </trkpt>
      <trkpt lat="47.869" lon="5.35317">
        <ele>339.7119</ele>
        <time>2014-08-04T16:04:57Z</time>
      </trkpt>
      <trkpt lat="47.86896" lon="5.35312">
        <ele>339.3139</ele>
        <time>2014-08-04T16:04:58Z</time>
      </trkpt>
      <trkpt lat="47.8689" lon="5.35304">
        <ele>336.1915</ele>
        <time>2014-08-04T16:05:00Z</time>
      </trkpt>
      <trkpt lat="47.86887" lon="5.35297">
        <ele>331.4652</ele>
        <time>2014-08-04T16:05:02Z</time>
      </trkpt>
      <trkpt lat="47.86882" lon="5.3529">
        <ele>329.5568</ele>
        <time>2014-08-04T16:05:04Z</time>
      </trkpt>
      <trkpt lat="47.86878" lon="5.35285">
        <ele>330.5703</ele>
        <time>2014-08-04T16:05:05Z</time>
      </trkpt>
      <trkpt lat="47.86873" lon="5.35274">
        <ele>332.8394</ele>
        <time>2014-08-04T16:05:07Z</time>
      </trkpt>
      <trkpt lat="47.8687" lon="5.35268">
        <ele>331.6661</ele>
        <time>2014-08-04T16:05:09Z</time>
      </trkpt>
      <trkpt lat="47.86867" lon="5.35261">
        <ele>331.3502</ele>
        <time>2014-08-04T16:05:11Z</time>
      </trkpt>
      <trkpt lat="47.86864" lon="5.35254">
        <ele>334.0488</ele>
        <time>2014-08-04T16:05:13Z</time>
      </trkpt>
      <trkpt lat="47.86859" lon="5.35247">
        <ele>338.4267</ele>
        <time>2014-08-04T16:05:15Z</time>
      </trkpt>
      <trkpt lat="47.86853" lon="5.35239">
        <ele>342.4596</ele>
        <time>2014-08-04T16:05:17Z</time>
      </trkpt>
      <trkpt lat="47.86849" lon="5.35234">
        <ele>343.9351</ele>
        <time>2014-08-04T16:05:19Z</time>
      </trkpt>
      <trkpt lat="47.86846" lon="5.35229">
        <ele>343.7636</ele>
        <time>2014-08-04T16:05:21Z</time>
      </trkpt>
      <trkpt lat="47.86842" lon="5.35224">
        <ele>343.7282</ele>
        <time>2014-08-04T16:05:23Z</time>
      </trkpt>
      <trkpt lat="47.86837" lon="5.35218">
        <ele>341.5306</ele>
        <time>2014-08-04T16:05:26Z</time>
      </trkpt>
      <trkpt lat="47.86834" lon="5.35213">
        <ele>340.2508</ele>
        <time>2014-08-04T16:05:28Z</time>
      </trkpt>
      <trkpt lat="47.8683" lon="5.35207">
        <ele>342.1884</ele>
        <time>2014-08-04T16:05:30Z</time>
      </trkpt>
      <trkpt lat="47.86827" lon="5.35202">
        <ele>343.7868</ele>
        <time>2014-08-04T16:05:32Z</time>
      </trkpt>
      <trkpt lat="47.86823" lon="5.35197">
        <ele>344.6524</ele>
        <time>2014-08-04T16:05:34Z</time>
      </trkpt>
      <trkpt lat="47.8682" lon="5.35192">
        <ele>347.1841</ele>
        <time>2014-08-04T16:05:36Z</time>
      </trkpt>
      <trkpt lat="47.86815" lon="5.35185">
        <ele>348.509</ele>
        <time>2014-08-04T16:05:39Z</time>
      </trkpt>
      <trkpt lat="47.86811" lon="5.35181">
        <ele>348.9284</ele>
        <time>2014-08-04T16:05:41Z</time>
      </trkpt>
      <trkpt lat="47.86808" lon="5.35174">
        <ele>351.3405</ele>
        <time>2014-08-04T16:05:43Z</time>
      </trkpt>
      <trkpt lat="47.86805" lon="5.35167">
        <ele>346.9589</ele>
        <time>2014-08-04T16:05:45Z</time>
      </trkpt>
      <trkpt lat="47.86802" lon="5.35162">
        <ele>345.7387</ele>
        <time>2014-08-04T16:05:47Z</time>
      </trkpt>
      <trkpt lat="47.86799" lon="5.35157">
        <ele>346.6641</ele>
        <time>2014-08-04T16:05:49Z</time>
      </trkpt>
      <trkpt lat="47.86795" lon="5.3515">
        <ele>343.0488</ele>
        <time>2014-08-04T16:05:51Z</time>
      </trkpt>
      <trkpt lat="47.86791" lon="5.35144">
        <ele>345.4676</ele>
        <time>2014-08-04T16:05:54Z</time>
      </trkpt>
      <trkpt lat="47.86787" lon="5.35136">
        <ele>348.4579</ele>
        <time>2014-08-04T16:05:57Z</time>
      </trkpt>
      <trkpt lat="47.86784" lon="5.35128">
        <ele>346.6757</ele>
        <time>2014-08-04T16:06:00Z</time>
      </trkpt>
      <trkpt lat="47.86781" lon="5.3512">
        <ele>348.0999</ele>
        <time>2014-08-04T16:06:03Z</time>
      </trkpt>
      <trkpt lat="47.86778" lon="5.35113">
        <ele>350.9786</ele>
        <time>2014-08-04T16:06:05Z</time>
      </trkpt>
      <trkpt lat="47.86776" lon="5.35107">
        <ele>352.7558</ele>
        <time>2014-08-04T16:06:07Z</time>
      </trkpt>
      <trkpt lat="47.86773" lon="5.351">
        <ele>352.0654</ele>
        <time>2014-08-04T16:06:09Z</time>
      </trkpt>
      <trkpt lat="47.86771" lon="5.35093">
        <ele>351.3118</ele>
        <time>2014-08-04T16:06:11Z</time>
      </trkpt>
      <trkpt lat="47.86768" lon="5.35085">
        <ele>351.4174</ele>
        <time>2014-08-04T16:06:14Z</time>
      </trkpt>
      <trkpt lat="47.86766" lon="5.35079">
        <ele>351.7556</ele>
        <time>2014-08-04T16:06:16Z</time>
      </trkpt>
      <trkpt lat="47.86761" lon="5.35065">
        <ele>353.2938</ele>
        <time>2014-08-04T16:06:20Z</time>
      </trkpt>
      <trkpt lat="47.86755" lon="5.35051">
        <ele>356.0433</ele>
        <time>2014-08-04T16:06:24Z</time>
      </trkpt>
      <trkpt lat="47.86753" lon="5.35045">
        <ele>354.6914</ele>
        <time>2014-08-04T16:06:26Z</time>
      </trkpt>
      <trkpt lat="47.86751" lon="5.35038">
        <ele>354.4456</ele>
        <time>2014-08-04T16:06:28Z</time>
      </trkpt>
      <trkpt lat="47.86748" lon="5.35028">
        <ele>357.735</ele>
        <time>2014-08-04T16:06:31Z</time>
      </trkpt>
      <trkpt lat="47.86746" lon="5.35022">
        <ele>355.9778</ele>
        <time>2014-08-04T16:06:33Z</time>
      </trkpt>
      <trkpt lat="47.86742" lon="5.35016">
        <ele>356.9433</ele>
        <time>2014-08-04T16:06:35Z</time>
      </trkpt>
      <trkpt lat="47.8674" lon="5.3501">
        <ele>358.3636</ele>
        <time>2014-08-04T16:06:37Z</time>
      </trkpt>
      <trkpt lat="47.86737" lon="5.35004">
        <ele>359.3673</ele>
        <time>2014-08-04T16:06:39Z</time>
      </trkpt>
      <trkpt lat="47.86734" lon="5.34999">
        <ele>358.4464</ele>
        <time>2014-08-04T16:06:41Z</time>
      </trkpt>
      <trkpt lat="47.86728" lon="5.34982">
        <ele>357.3791</ele>
        <time>2014-08-04T16:06:46Z</time>
      </trkpt>
      <trkpt lat="47.86726" lon="5.34975">
        <ele>360.9684</ele>
        <time>2014-08-04T16:06:48Z</time>
      </trkpt>
      <trkpt lat="47.86721" lon="5.34966">
        <ele>361.1236</ele>
        <time>2014-08-04T16:06:51Z</time>
      </trkpt>
      <trkpt lat="47.86718" lon="5.34959">
        <ele>360.0564</ele>
        <time>2014-08-04T16:06:53Z</time>
      </trkpt>
      <trkpt lat="47.86715" lon="5.34952">
        <ele>358.3934</ele>
        <time>2014-08-04T16:06:55Z</time>
      </trkpt>
      <trkpt lat="47.86712" lon="5.34946">
        <ele>354.3196</ele>
        <time>2014-08-04T16:06:57Z</time>
      </trkpt>
      <trkpt lat="47.8671" lon="5.3494">
        <ele>353.9577</ele>
        <time>2014-08-04T16:06:59Z</time>
      </trkpt>
      <trkpt lat="47.86707" lon="5.34934">
        <ele>355.1065</ele>
        <time>2014-08-04T16:07:01Z</time>
      </trkpt>
      <trkpt lat="47.86704" lon="5.34928">
        <ele>355.5962</ele>
        <time>2014-08-04T16:07:03Z</time>
      </trkpt>
      <trkpt lat="47.86701" lon="5.34921">
        <ele>356.4776</ele>
        <time>2014-08-04T16:07:05Z</time>
      </trkpt>
      <trkpt lat="47.86698" lon="5.34913">
        <ele>356.361</ele>
        <time>2014-08-04T16:07:08Z</time>
      </trkpt>
      <trkpt lat="47.86696" lon="5.34906">
        <ele>354.5376</ele>
        <time>2014-08-04T16:07:10Z</time>
      </trkpt>
      <trkpt lat="47.86693" lon="5.349">
        <ele>355.6478</ele>
        <time>2014-08-04T16:07:12Z</time>
      </trkpt>
      <trkpt lat="47.86689" lon="5.34891">
        <ele>357.9038</ele>
        <time>2014-08-04T16:07:15Z</time>
      </trkpt>
      <trkpt lat="47.86686" lon="5.34885">
        <ele>354.6004</ele>
        <time>2014-08-04T16:07:17Z</time>
      </trkpt>
      <trkpt lat="47.86684" lon="5.34877">
        <ele>354.2017</ele>
        <time>2014-08-04T16:07:19Z</time>
      </trkpt>
      <trkpt lat="47.86681" lon="5.34869">
        <ele>360.9322</ele>
        <time>2014-08-04T16:07:22Z</time>
      </trkpt>
      <trkpt lat="47.86679" lon="5.34859">
        <ele>360.7864</ele>
        <time>2014-08-04T16:07:25Z</time>
      </trkpt>
      <trkpt lat="47.86676" lon="5.34851">
        <ele>359.6004</ele>
        <time>2014-08-04T16:07:28Z</time>
      </trkpt>
      <trkpt lat="47.86674" lon="5.34843">
        <ele>355.8298</ele>
        <time>2014-08-04T16:07:31Z</time>
      </trkpt>
      <trkpt lat="47.86672" lon="5.34836">
        <ele>350.9655</ele>
        <time>2014-08-04T16:07:34Z</time>
      </trkpt>
      <trkpt lat="47.86671" lon="5.34828">
        <ele>352.7638</ele>
        <time>2014-08-04T16:07:37Z</time>
      </trkpt>
      <trkpt lat="47.86671" lon="5.34821">
        <ele>356.5062</ele>
        <time>2014-08-04T16:07:39Z</time>
      </trkpt>
      <trkpt lat="47.86669" lon="5.34812">
        <ele>356.3448</ele>
        <time>2014-08-04T16:07:42Z</time>
      </trkpt>
      <trkpt lat="47.86667" lon="5.34806">
        <ele>358.0294</ele>
        <time>2014-08-04T16:07:44Z</time>
      </trkpt>
      <trkpt lat="47.86665" lon="5.34797">
        <ele>359.8717</ele>
        <time>2014-08-04T16:07:47Z</time>
      </trkpt>
      <trkpt lat="47.86664" lon="5.34791">
        <ele>357.9366</ele>
        <time>2014-08-04T16:07:49Z</time>
      </trkpt>
      <trkpt lat="47.86662" lon="5.34784">
        <ele>358.916</ele>
        <time>2014-08-04T16:07:51Z</time>
      </trkpt>
      <trkpt lat="47.8666" lon="5.34776">
        <ele>360.7751</ele>
        <time>2014-08-04T16:07:54Z</time>
      </trkpt>
      <trkpt lat="47.86658" lon="5.34769">
        <ele>359.0936</ele>
        <time>2014-08-04T16:07:57Z</time>
      </trkpt>
      <trkpt lat="47.86656" lon="5.34762">
        <ele>359.8258</ele>
        <time>2014-08-04T16:07:59Z</time>
      </trkpt>
      <trkpt lat="47.86655" lon="5.34753">
        <ele>360.8318</ele>
        <time>2014-08-04T16:08:02Z</time>
      </trkpt>
      <trkpt lat="47.86653" lon="5.34745">
        <ele>363.2097</ele>
        <time>2014-08-04T16:08:05Z</time>
      </trkpt>
      <trkpt lat="47.86651" lon="5.34737">
        <ele>363.7742</ele>
        <time>2014-08-04T16:08:08Z</time>
      </trkpt>
      <trkpt lat="47.86648" lon="5.3473">
        <ele>365.4693</ele>
        <time>2014-08-04T16:08:11Z</time>
      </trkpt>
      <trkpt lat="47.86647" lon="5.3472">
        <ele>367.2983</ele>
        <time>2014-08-04T16:08:15Z</time>
      </trkpt>
      <trkpt lat="47.86645" lon="5.34713">
        <ele>362.4867</ele>
        <time>2014-08-04T16:08:18Z</time>
      </trkpt>
      <trkpt lat="47.86643" lon="5.34705">
        <ele>365.8171</ele>
        <time>2014-08-04T16:08:21Z</time>
      </trkpt>
      <trkpt lat="47.86642" lon="5.34699">
        <ele>366.4885</ele>
        <time>2014-08-04T16:08:24Z</time>
      </trkpt>
      <trkpt lat="47.8664" lon="5.34692">
        <ele>367.2166</ele>
        <time>2014-08-04T16:08:27Z</time>
      </trkpt>
      <trkpt lat="47.86639" lon="5.34684">
        <ele>366.3966</ele>
        <time>2014-08-04T16:08:30Z</time>
      </trkpt>
      <trkpt lat="47.86637" lon="5.34675">
        <ele>368.3521</ele>
        <time>2014-08-04T16:08:33Z</time>
      </trkpt>
      <trkpt lat="47.86636" lon="5.34667">
        <ele>368.5468</ele>
        <time>2014-08-04T16:08:36Z</time>
      </trkpt>
      <trkpt lat="47.86635" lon="5.34659">
        <ele>369.7249</ele>
        <time>2014-08-04T16:08:39Z</time>
      </trkpt>
      <trkpt lat="47.86634" lon="5.34652">
        <ele>369.5253</ele>
        <time>2014-08-04T16:08:42Z</time>
      </trkpt>
      <trkpt lat="47.86633" lon="5.34644">
        <ele>372.4159</ele>
        <time>2014-08-04T16:08:45Z</time>
      </trkpt>
      <trkpt lat="47.86632" lon="5.34637">
        <ele>370.1544</ele>
        <time>2014-08-04T16:08:48Z</time>
      </trkpt>
      <trkpt lat="47.86633" lon="5.34628">
        <ele>367.4364</ele>
        <time>2014-08-04T16:08:51Z</time>
      </trkpt>
      <trkpt lat="47.86633" lon="5.34619">
        <ele>368.7979</ele>
        <time>2014-08-04T16:08:54Z</time>
      </trkpt>
      <trkpt lat="47.86633" lon="5.34611">
        <ele>370.8573</ele>
        <time>2014-08-04T16:08:57Z</time>
      </trkpt>
      <trkpt lat="47.86634" lon="5.34604">
        <ele>368.1802</ele>
        <time>2014-08-04T16:08:59Z</time>
      </trkpt>
      <trkpt lat="47.86634" lon="5.34597">
        <ele>366.5048</ele>
        <time>2014-08-04T16:09:01Z</time>
      </trkpt>
      <trkpt lat="47.86635" lon="5.3459">
        <ele>365.2698</ele>
        <time>2014-08-04T16:09:04Z</time>
      </trkpt>
      <trkpt lat="47.86636" lon="5.34581">
        <ele>366.7384</ele>
        <time>2014-08-04T16:09:07Z</time>
      </trkpt>
      <trkpt lat="47.86637" lon="5.34575">
        <ele>368.6055</ele>
        <time>2014-08-04T16:09:09Z</time>
      </trkpt>
      <trkpt lat="47.86639" lon="5.34566">
        <ele>371.2995</ele>
        <time>2014-08-04T16:09:12Z</time>
      </trkpt>
      <trkpt lat="47.86641" lon="5.34558">
        <ele>368.6257</ele>
        <time>2014-08-04T16:09:15Z</time>
      </trkpt>
      <trkpt lat="47.86643" lon="5.34551">
        <ele>366.0684</ele>
        <time>2014-08-04T16:09:17Z</time>
      </trkpt>
      <trkpt lat="47.86644" lon="5.34545">
        <ele>365.2168</ele>
        <time>2014-08-04T16:09:19Z</time>
      </trkpt>
      <trkpt lat="47.86646" lon="5.34537">
        <ele>367.1068</ele>
        <time>2014-08-04T16:09:21Z</time>
      </trkpt>
      <trkpt lat="47.86647" lon="5.3453">
        <ele>367.3576</ele>
        <time>2014-08-04T16:09:23Z</time>
      </trkpt>
      <trkpt lat="47.86649" lon="5.3452">
        <ele>367.8194</ele>
        <time>2014-08-04T16:09:26Z</time>
      </trkpt>
      <trkpt lat="47.86652" lon="5.34512">
        <ele>369.4391</ele>
        <time>2014-08-04T16:09:29Z</time>
      </trkpt>
      <trkpt lat="47.86654" lon="5.34505">
        <ele>368.9655</ele>
        <time>2014-08-04T16:09:32Z</time>
      </trkpt>
      <trkpt lat="47.86654" lon="5.34498">
        <ele>370.8159</ele>
        <time>2014-08-04T16:09:34Z</time>
      </trkpt>
      <trkpt lat="47.86655" lon="5.34491">
        <ele>370.7354</ele>
        <time>2014-08-04T16:09:37Z</time>
      </trkpt>
      <trkpt lat="47.86656" lon="5.34485">
        <ele>371.6747</ele>
        <time>2014-08-04T16:09:39Z</time>
      </trkpt>
      <trkpt lat="47.86657" lon="5.34478">
        <ele>371.1852</ele>
        <time>2014-08-04T16:09:41Z</time>
      </trkpt>
      <trkpt lat="47.86658" lon="5.34471">
        <ele>371.3766</ele>
        <time>2014-08-04T16:09:43Z</time>
      </trkpt>
      <trkpt lat="47.8666" lon="5.34462">
        <ele>373.7784</ele>
        <time>2014-08-04T16:09:46Z</time>
      </trkpt>
      <trkpt lat="47.86661" lon="5.34453">
        <ele>374.8095</ele>
        <time>2014-08-04T16:09:49Z</time>
      </trkpt>
      <trkpt lat="47.86663" lon="5.34446">
        <ele>375.6821</ele>
        <time>2014-08-04T16:09:51Z</time>
      </trkpt>
      <trkpt lat="47.86665" lon="5.34436">
        <ele>376.4756</ele>
        <time>2014-08-04T16:09:54Z</time>
      </trkpt>
      <trkpt lat="47.86666" lon="5.34427">
        <ele>377.1285</ele>
        <time>2014-08-04T16:09:57Z</time>
      </trkpt>
      <trkpt lat="47.86667" lon="5.3442">
        <ele>375.3031</ele>
        <time>2014-08-04T16:09:59Z</time>
      </trkpt>
      <trkpt lat="47.86668" lon="5.3441">
        <ele>374.8212</ele>
        <time>2014-08-04T16:10:02Z</time>
      </trkpt>
      <trkpt lat="47.86668" lon="5.34403">
        <ele>374.4945</ele>
        <time>2014-08-04T16:10:04Z</time>
      </trkpt>
      <trkpt lat="47.86667" lon="5.34394">
        <ele>375.4715</ele>
        <time>2014-08-04T16:10:06Z</time>
      </trkpt>
      <trkpt lat="47.86666" lon="5.34387">
        <ele>375.1272</ele>
        <time>2014-08-04T16:10:08Z</time>
      </trkpt>
      <trkpt lat="47.86665" lon="5.34377">
        <ele>374.7628</ele>
        <time>2014-08-04T16:10:11Z</time>
      </trkpt>
      <trkpt lat="47.86663" lon="5.34368">
        <ele>375.269</ele>
        <time>2014-08-04T16:10:14Z</time>
      </trkpt>
      <trkpt lat="47.86662" lon="5.34359">
        <ele>377.5566</ele>
        <time>2014-08-04T16:10:17Z</time>
      </trkpt>
      <trkpt lat="47.8666" lon="5.34351">
        <ele>378.9574</ele>
        <time>2014-08-04T16:10:20Z</time>
      </trkpt>
      <trkpt lat="47.86658" lon="5.34341">
        <ele>378.0603</ele>
        <time>2014-08-04T16:10:23Z</time>
      </trkpt>
      <trkpt lat="47.86657" lon="5.34333">
        <ele>378.6217</ele>
        <time>2014-08-04T16:10:26Z</time>
      </trkpt>
      <trkpt lat="47.86655" lon="5.34325">
        <ele>379.0856</ele>
        <time>2014-08-04T16:10:30Z</time>
      </trkpt>
      <trkpt lat="47.86654" lon="5.34316">
        <ele>378.4797</ele>
        <time>2014-08-04T16:10:34Z</time>
      </trkpt>
      <trkpt lat="47.86652" lon="5.34308">
        <ele>375.9658</ele>
        <time>2014-08-04T16:10:37Z</time>
      </trkpt>
      <trkpt lat="47.86649" lon="5.34302">
        <ele>375.2261</ele>
        <time>2014-08-04T16:10:40Z</time>
      </trkpt>
      <trkpt lat="47.86646" lon="5.34297">
        <ele>375.9713</ele>
        <time>2014-08-04T16:10:43Z</time>
      </trkpt>
      <trkpt lat="47.86643" lon="5.3429">
        <ele>377.763</ele>
        <time>2014-08-04T16:10:46Z</time>
      </trkpt>
      <trkpt lat="47.86641" lon="5.34284">
        <ele>379.5414</ele>
        <time>2014-08-04T16:10:49Z</time>
      </trkpt>
      <trkpt lat="47.86638" lon="5.34278">
        <ele>380.0963</ele>
        <time>2014-08-04T16:10:53Z</time>
      </trkpt>
      <trkpt lat="47.86635" lon="5.34272">
        <ele>381.3381</ele>
        <time>2014-08-04T16:10:56Z</time>
      </trkpt>
      <trkpt lat="47.86632" lon="5.34265">
        <ele>380.7448</ele>
        <time>2014-08-04T16:11:00Z</time>
      </trkpt>
      <trkpt lat="47.8663" lon="5.34258">
        <ele>379.4483</ele>
        <time>2014-08-04T16:11:04Z</time>
      </trkpt>
      <trkpt lat="47.86626" lon="5.34251">
        <ele>386.3887</ele>
        <time>2014-08-04T16:11:09Z</time>
      </trkpt>
      <trkpt lat="47.86624" lon="5.34245">
        <ele>379.9796</ele>
        <time>2014-08-04T16:11:12Z</time>
      </trkpt>
      <trkpt lat="47.8662" lon="5.34237">
        <ele>383.3896</ele>
        <time>2014-08-04T16:11:15Z</time>
      </trkpt>
      <trkpt lat="47.86617" lon="5.3423">
        <ele>386.1705</ele>
        <time>2014-08-04T16:11:18Z</time>
      </trkpt>
      <trkpt lat="47.86614" lon="5.34224">
        <ele>382.0437</ele>
        <time>2014-08-04T16:11:22Z</time>
      </trkpt>
      <trkpt lat="47.86611" lon="5.34218">
        <ele>379.7026</ele>
        <time>2014-08-04T16:11:25Z</time>
      </trkpt>
      <trkpt lat="47.86607" lon="5.34213">
        <ele>380.6558</ele>
        <time>2014-08-04T16:11:29Z</time>
      </trkpt>
      <trkpt lat="47.86604" lon="5.34207">
        <ele>384.6675</ele>
        <time>2014-08-04T16:11:33Z</time>
      </trkpt>
      <trkpt lat="47.86601" lon="5.342">
        <ele>383.4158</ele>
        <time>2014-08-04T16:11:36Z</time>
      </trkpt>
      <trkpt lat="47.86598" lon="5.34193">
        <ele>384.0065</ele>
        <time>2014-08-04T16:11:40Z</time>
      </trkpt>
      <trkpt lat="47.86594" lon="5.34188">
        <ele>385.1504</ele>
        <time>2014-08-04T16:11:44Z</time>
      </trkpt>
      <trkpt lat="47.86591" lon="5.34182">
        <ele>386.2288</ele>
        <time>2014-08-04T16:11:47Z</time>
      </trkpt>
      <trkpt lat="47.86589" lon="5.34176">
        <ele>387.8427</ele>
        <time>2014-08-04T16:11:50Z</time>
      </trkpt>
      <trkpt lat="47.86586" lon="5.34169">
        <ele>388.0918</ele>
        <time>2014-08-04T16:11:54Z</time>
      </trkpt>
      <trkpt lat="47.86583" lon="5.34163">
        <ele>387.7274</ele>
        <time>2014-08-04T16:11:58Z</time>
      </trkpt>
      <trkpt lat="47.8658" lon="5.34158">
        <ele>390.2506</ele>
        <time>2014-08-04T16:12:01Z</time>
      </trkpt>
      <trkpt lat="47.86576" lon="5.34152">
        <ele>392.7068</ele>
        <time>2014-08-04T16:12:05Z</time>
      </trkpt>
      <trkpt lat="47.86573" lon="5.34146">
        <ele>393.4523</ele>
        <time>2014-08-04T16:12:08Z</time>
      </trkpt>
      <trkpt lat="47.8657" lon="5.3414">
        <ele>393.5094</ele>
        <time>2014-08-04T16:12:12Z</time>
      </trkpt>
      <trkpt lat="47.86568" lon="5.34134">
        <ele>393.1382</ele>
        <time>2014-08-04T16:12:15Z</time>
      </trkpt>
      <trkpt lat="47.86565" lon="5.34129">
        <ele>398.9833</ele>
        <time>2014-08-04T16:12:20Z</time>
      </trkpt>
      <trkpt lat="47.86561" lon="5.34123">
        <ele>401.741</ele>
        <time>2014-08-04T16:12:24Z</time>
      </trkpt>
      <trkpt lat="47.86558" lon="5.34116">
        <ele>402.8734</ele>
        <time>2014-08-04T16:12:28Z</time>
      </trkpt>
      <trkpt lat="47.86556" lon="5.3411">
        <ele>396.8969</ele>
        <time>2014-08-04T16:12:31Z</time>
      </trkpt>
      <trkpt lat="47.86552" lon="5.34104">
        <ele>395.2268</ele>
        <time>2014-08-04T16:12:35Z</time>
      </trkpt>
      <trkpt lat="47.86549" lon="5.341">
        <ele>398.0359</ele>
        <time>2014-08-04T16:12:39Z</time>
      </trkpt>
      <trkpt lat="47.86546" lon="5.34094">
        <ele>399.782</ele>
        <time>2014-08-04T16:12:42Z</time>
      </trkpt>
      <trkpt lat="47.86543" lon="5.34087">
        <ele>402.7727</ele>
        <time>2014-08-04T16:12:46Z</time>
      </trkpt>
      <trkpt lat="47.86539" lon="5.34081">
        <ele>401.5457</ele>
        <time>2014-08-04T16:12:50Z</time>
      </trkpt>
      <trkpt lat="47.86536" lon="5.34075">
        <ele>401.3379</ele>
        <time>2014-08-04T16:12:54Z</time>
      </trkpt>
      <trkpt lat="47.86533" lon="5.34069">
        <ele>399.7158</ele>
        <time>2014-08-04T16:12:58Z</time>
      </trkpt>
      <trkpt lat="47.8653" lon="5.34063">
        <ele>400.6741</ele>
        <time>2014-08-04T16:13:02Z</time>
      </trkpt>
      <trkpt lat="47.86527" lon="5.34057">
        <ele>401.1383</ele>
        <time>2014-08-04T16:13:06Z</time>
      </trkpt>
      <trkpt lat="47.86525" lon="5.34051">
        <ele>403.1797</ele>
        <time>2014-08-04T16:13:09Z</time>
      </trkpt>
      <trkpt lat="47.86522" lon="5.34045">
        <ele>401.2747</ele>
        <time>2014-08-04T16:13:13Z</time>
      </trkpt>
      <trkpt lat="47.86518" lon="5.34039">
        <ele>401.5741</ele>
        <time>2014-08-04T16:13:17Z</time>
      </trkpt>
      <trkpt lat="47.86515" lon="5.34034">
        <ele>404.1031</ele>
        <time>2014-08-04T16:13:20Z</time>
      </trkpt>
      <trkpt lat="47.86512" lon="5.34029">
        <ele>405.3334</ele>
        <time>2014-08-04T16:13:24Z</time>
      </trkpt>
      <trkpt lat="47.86509" lon="5.34023">
        <ele>405.1265</ele>
        <time>2014-08-04T16:13:28Z</time>
      </trkpt>
      <trkpt lat="47.86506" lon="5.34017">
        <ele>406.8176</ele>
        <time>2014-08-04T16:13:32Z</time>
      </trkpt>
      <trkpt lat="47.86502" lon="5.34011">
        <ele>408.6006</ele>
        <time>2014-08-04T16:13:35Z</time>
      </trkpt>
      <trkpt lat="47.86499" lon="5.34006">
        <ele>408.2126</ele>
        <time>2014-08-04T16:13:40Z</time>
      </trkpt>
      <trkpt lat="47.86495" lon="5.33999">
        <ele>407.758</ele>
        <time>2014-08-04T16:13:45Z</time>
      </trkpt>
      <trkpt lat="47.86492" lon="5.33994">
        <ele>407.3951</ele>
        <time>2014-08-04T16:13:49Z</time>
      </trkpt>
      <trkpt lat="47.86488" lon="5.33988">
        <ele>409.8757</ele>
        <time>2014-08-04T16:13:53Z</time>
      </trkpt>
      <trkpt lat="47.86485" lon="5.33983">
        <ele>411.1746</ele>
        <time>2014-08-04T16:13:57Z</time>
      </trkpt>
      <trkpt lat="47.86482" lon="5.33977">
        <ele>412.0572</ele>
        <time>2014-08-04T16:14:01Z</time>
      </trkpt>
      <trkpt lat="47.86478" lon="5.33971">
        <ele>413.9646</ele>
        <time>2014-08-04T16:14:05Z</time>
      </trkpt>
      <trkpt lat="47.86475" lon="5.33964">
        <ele>414.025</ele>
        <time>2014-08-04T16:14:09Z</time>
      </trkpt>
      <trkpt lat="47.86472" lon="5.33959">
        <ele>412.3481</ele>
        <time>2014-08-04T16:14:14Z</time>
      </trkpt>
      <trkpt lat="47.86467" lon="5.33953">
        <ele>416.3951</ele>
        <time>2014-08-04T16:14:18Z</time>
      </trkpt>
      <trkpt lat="47.86464" lon="5.33948">
        <ele>418.2455</ele>
        <time>2014-08-04T16:14:22Z</time>
      </trkpt>
      <trkpt lat="47.86461" lon="5.33942">
        <ele>416.7357</ele>
        <time>2014-08-04T16:14:26Z</time>
      </trkpt>
      <trkpt lat="47.86458" lon="5.33937">
        <ele>416.6325</ele>
        <time>2014-08-04T16:14:30Z</time>
      </trkpt>
      <trkpt lat="47.86455" lon="5.33932">
        <ele>418.3219</ele>
        <time>2014-08-04T16:14:34Z</time>
      </trkpt>
      <trkpt lat="47.86452" lon="5.33926">
        <ele>419.068</ele>
        <time>2014-08-04T16:14:38Z</time>
      </trkpt>
      <trkpt lat="47.86449" lon="5.33921">
        <ele>419.1334</ele>
        <time>2014-08-04T16:14:42Z</time>
      </trkpt>
      <trkpt lat="47.86446" lon="5.33915">
        <ele>420.4818</ele>
        <time>2014-08-04T16:14:46Z</time>
      </trkpt>
      <trkpt lat="47.86441" lon="5.33909">
        <ele>419.8491</ele>
        <time>2014-08-04T16:14:51Z</time>
      </trkpt>
      <trkpt lat="47.86438" lon="5.33903">
        <ele>421.277</ele>
        <time>2014-08-04T16:14:55Z</time>
      </trkpt>
      <trkpt lat="47.86435" lon="5.33898">
        <ele>421.2848</ele>
        <time>2014-08-04T16:14:59Z</time>
      </trkpt>
      <trkpt lat="47.86432" lon="5.33892">
        <ele>421.2693</ele>
        <time>2014-08-04T16:15:03Z</time>
      </trkpt>
      <trkpt lat="47.86428" lon="5.33887">
        <ele>421.4085</ele>
        <time>2014-08-04T16:15:07Z</time>
      </trkpt>
      <trkpt lat="47.86425" lon="5.33882">
        <ele>423.5818</ele>
        <time>2014-08-04T16:15:10Z</time>
      </trkpt>
      <trkpt lat="47.8642" lon="5.33878">
        <ele>424.699</ele>
        <time>2014-08-04T16:15:15Z</time>
      </trkpt>
      <trkpt lat="47.86416" lon="5.33874">
        <ele>426.301</ele>
        <time>2014-08-04T16:15:18Z</time>
      </trkpt>
      <trkpt lat="47.86411" lon="5.3387">
        <ele>426.2189</ele>
        <time>2014-08-04T16:15:22Z</time>
      </trkpt>
      <trkpt lat="47.86405" lon="5.33866">
        <ele>427.6833</ele>
        <time>2014-08-04T16:15:26Z</time>
      </trkpt>
      <trkpt lat="47.864" lon="5.33862">
        <ele>427.7129</ele>
        <time>2014-08-04T16:15:30Z</time>
      </trkpt>
      <trkpt lat="47.86395" lon="5.33859">
        <ele>431.3206</ele>
        <time>2014-08-04T16:15:33Z</time>
      </trkpt>
      <trkpt lat="47.8639" lon="5.33856">
        <ele>429.0448</ele>
        <time>2014-08-04T16:15:36Z</time>
      </trkpt>
      <trkpt lat="47.86383" lon="5.33854">
        <ele>425.0247</ele>
        <time>2014-08-04T16:15:39Z</time>
      </trkpt>
      <trkpt lat="47.86377" lon="5.33852">
        <ele>425.2122</ele>
        <time>2014-08-04T16:15:41Z</time>
      </trkpt>
      <trkpt lat="47.86371" lon="5.3385">
        <ele>425.8734</ele>
        <time>2014-08-04T16:15:43Z</time>
      </trkpt>
      <trkpt lat="47.86364" lon="5.33849">
        <ele>425.703</ele>
        <time>2014-08-04T16:15:45Z</time>
      </trkpt>
      <trkpt lat="47.86357" lon="5.33847">
        <ele>426.4746</ele>
        <time>2014-08-04T16:15:47Z</time>
      </trkpt>
      <trkpt lat="47.86351" lon="5.33845">
        <ele>427.3781</ele>
        <time>2014-08-04T16:15:49Z</time>
      </trkpt>
      <trkpt lat="47.86345" lon="5.33843">
        <ele>427.6305</ele>
        <time>2014-08-04T16:15:51Z</time>
      </trkpt>
      <trkpt lat="47.8634" lon="5.3384">
        <ele>427.5776</ele>
        <time>2014-08-04T16:15:53Z</time>
      </trkpt>
      <trkpt lat="47.86334" lon="5.33838">
        <ele>427.9379</ele>
        <time>2014-08-04T16:15:55Z</time>
      </trkpt>
      <trkpt lat="47.86328" lon="5.33836">
        <ele>427.26</ele>
        <time>2014-08-04T16:15:57Z</time>
      </trkpt>
      <trkpt lat="47.86322" lon="5.33833">
        <ele>426.5019</ele>
        <time>2014-08-04T16:15:59Z</time>
      </trkpt>
      <trkpt lat="47.86315" lon="5.3383">
        <ele>428.3571</ele>
        <time>2014-08-04T16:16:01Z</time>
      </trkpt>
      <trkpt lat="47.8631" lon="5.33829">
        <ele>426.7292</ele>
        <time>2014-08-04T16:16:03Z</time>
      </trkpt>
      <trkpt lat="47.86305" lon="5.33828">
        <ele>425.8018</ele>
        <time>2014-08-04T16:16:05Z</time>
      </trkpt>
      <trkpt lat="47.86299" lon="5.33826">
        <ele>425.9919</ele>
        <time>2014-08-04T16:16:07Z</time>
      </trkpt>
      <trkpt lat="47.86294" lon="5.33825">
        <ele>425.9807</ele>
        <time>2014-08-04T16:16:09Z</time>
      </trkpt>
      <trkpt lat="47.86287" lon="5.33824">
        <ele>425.9052</ele>
        <time>2014-08-04T16:16:12Z</time>
      </trkpt>
      <trkpt lat="47.86282" lon="5.33821">
        <ele>425.9608</ele>
        <time>2014-08-04T16:16:15Z</time>
      </trkpt>
      <trkpt lat="47.86277" lon="5.3382">
        <ele>427.6083</ele>
        <time>2014-08-04T16:16:18Z</time>
      </trkpt>
      <trkpt lat="47.86271" lon="5.33818">
        <ele>427.3239</ele>
        <time>2014-08-04T16:16:21Z</time>
      </trkpt>
      <trkpt lat="47.86265" lon="5.33815">
        <ele>428.4696</ele>
        <time>2014-08-04T16:16:24Z</time>
      </trkpt>
      <trkpt lat="47.86261" lon="5.33815">
        <ele>427.4466</ele>
        <time>2014-08-04T16:16:27Z</time>
      </trkpt>
      <trkpt lat="47.86255" lon="5.33813">
        <ele>427.8596</ele>
        <time>2014-08-04T16:16:31Z</time>
      </trkpt>
      <trkpt lat="47.86249" lon="5.33809">
        <ele>426.7969</ele>
        <time>2014-08-04T16:16:34Z</time>
      </trkpt>
      <trkpt lat="47.86244" lon="5.33807">
        <ele>427.6663</ele>
        <time>2014-08-04T16:16:36Z</time>
      </trkpt>
      <trkpt lat="47.86239" lon="5.33805">
        <ele>427.9607</ele>
        <time>2014-08-04T16:16:38Z</time>
      </trkpt>
      <trkpt lat="47.86233" lon="5.33803">
        <ele>428.6584</ele>
        <time>2014-08-04T16:16:40Z</time>
      </trkpt>
      <trkpt lat="47.86227" lon="5.33799">
        <ele>430.4279</ele>
        <time>2014-08-04T16:16:42Z</time>
      </trkpt>
      <trkpt lat="47.86222" lon="5.33795">
        <ele>429.6402</ele>
        <time>2014-08-04T16:16:44Z</time>
      </trkpt>
      <trkpt lat="47.86216" lon="5.3379">
        <ele>432.9828</ele>
        <time>2014-08-04T16:16:46Z</time>
      </trkpt>
      <trkpt lat="47.86211" lon="5.33785">
        <ele>434.3327</ele>
        <time>2014-08-04T16:16:48Z</time>
      </trkpt>
      <trkpt lat="47.86207" lon="5.33782">
        <ele>433.3886</ele>
        <time>2014-08-04T16:16:50Z</time>
      </trkpt>
      <trkpt lat="47.86202" lon="5.33777">
        <ele>434.6316</ele>
        <time>2014-08-04T16:16:52Z</time>
      </trkpt>
      <trkpt lat="47.86198" lon="5.33774">
        <ele>433.8372</ele>
        <time>2014-08-04T16:16:54Z</time>
      </trkpt>
      <trkpt lat="47.86194" lon="5.33769">
        <ele>433.5987</ele>
        <time>2014-08-04T16:16:57Z</time>
      </trkpt>
      <trkpt lat="47.8619" lon="5.33764">
        <ele>425.0381</ele>
        <time>2014-08-04T16:17:26Z</time>
      </trkpt>
      <trkpt lat="47.86185" lon="5.33759">
        <ele>428.154</ele>
        <time>2014-08-04T16:17:29Z</time>
      </trkpt>
      <trkpt lat="47.86181" lon="5.33755">
        <ele>428.0241</ele>
        <time>2014-08-04T16:17:32Z</time>
      </trkpt>
      <trkpt lat="47.86177" lon="5.33751">
        <ele>427.0706</ele>
        <time>2014-08-04T16:17:35Z</time>
      </trkpt>
      <trkpt lat="47.86173" lon="5.33746">
        <ele>427.6673</ele>
        <time>2014-08-04T16:17:38Z</time>
      </trkpt>
      <trkpt lat="47.86168" lon="5.33741">
        <ele>429.4103</ele>
        <time>2014-08-04T16:17:41Z</time>
      </trkpt>
      <trkpt lat="47.86164" lon="5.33736">
        <ele>430.8702</ele>
        <time>2014-08-04T16:17:44Z</time>
      </trkpt>
      <trkpt lat="47.8616" lon="5.33732">
        <ele>430.8658</ele>
        <time>2014-08-04T16:17:47Z</time>
      </trkpt>
      <trkpt lat="47.86155" lon="5.33728">
        <ele>428.8528</ele>
        <time>2014-08-04T16:17:50Z</time>
      </trkpt>
      <trkpt lat="47.86152" lon="5.33724">
        <ele>431.9965</ele>
        <time>2014-08-04T16:17:53Z</time>
      </trkpt>
      <trkpt lat="47.86147" lon="5.33719">
        <ele>438.1797</ele>
        <time>2014-08-04T16:17:57Z</time>
      </trkpt>
      <trkpt lat="47.86143" lon="5.33715">
        <ele>437.0625</ele>
        <time>2014-08-04T16:18:01Z</time>
      </trkpt>
      <trkpt lat="47.86139" lon="5.33711">
        <ele>432.4012</ele>
        <time>2014-08-04T16:18:04Z</time>
      </trkpt>
      <trkpt lat="47.86134" lon="5.33706">
        <ele>433.5449</ele>
        <time>2014-08-04T16:18:08Z</time>
      </trkpt>
      <trkpt lat="47.86129" lon="5.33701">
        <ele>435.4025</ele>
        <time>2014-08-04T16:18:12Z</time>
      </trkpt>
      <trkpt lat="47.86125" lon="5.33697">
        <ele>436.2084</ele>
        <time>2014-08-04T16:18:15Z</time>
      </trkpt>
      <trkpt lat="47.86121" lon="5.33693">
        <ele>436.5416</ele>
        <time>2014-08-04T16:18:18Z</time>
      </trkpt>
      <trkpt lat="47.86117" lon="5.33688">
        <ele>438.1611</ele>
        <time>2014-08-04T16:18:21Z</time>
      </trkpt>
      <trkpt lat="47.86113" lon="5.33684">
        <ele>434.3007</ele>
        <time>2014-08-04T16:18:24Z</time>
      </trkpt>
      <trkpt lat="47.86108" lon="5.33679">
        <ele>437.2563</ele>
        <time>2014-08-04T16:18:27Z</time>
      </trkpt>
      <trkpt lat="47.86105" lon="5.33675">
        <ele>438.0172</ele>
        <time>2014-08-04T16:18:30Z</time>
      </trkpt>
      <trkpt lat="47.86101" lon="5.33671">
        <ele>438.3658</ele>
        <time>2014-08-04T16:18:33Z</time>
      </trkpt>
      <trkpt lat="47.86098" lon="5.33666">
        <ele>443.3227</ele>
        <time>2014-08-04T16:18:36Z</time>
      </trkpt>
      <trkpt lat="47.86094" lon="5.33662">
        <ele>443.7256</ele>
        <time>2014-08-04T16:18:39Z</time>
      </trkpt>
      <trkpt lat="47.86089" lon="5.33658">
        <ele>447.8691</ele>
        <time>2014-08-04T16:18:42Z</time>
      </trkpt>
      <trkpt lat="47.86086" lon="5.33652">
        <ele>446.391</ele>
        <time>2014-08-04T16:18:45Z</time>
      </trkpt>
      <trkpt lat="47.86081" lon="5.33648">
        <ele>447.7048</ele>
        <time>2014-08-04T16:18:48Z</time>
      </trkpt>
      <trkpt lat="47.86077" lon="5.33645">
        <ele>448.3526</ele>
        <time>2014-08-04T16:18:51Z</time>
      </trkpt>
      <trkpt lat="47.86072" lon="5.33642">
        <ele>448.4547</ele>
        <time>2014-08-04T16:18:55Z</time>
      </trkpt>
      <trkpt lat="47.86068" lon="5.33636">
        <ele>452.9642</ele>
        <time>2014-08-04T16:18:59Z</time>
      </trkpt>
      <trkpt lat="47.86064" lon="5.33631">
        <ele>450.2079</ele>
        <time>2014-08-04T16:19:03Z</time>
      </trkpt>
      <trkpt lat="47.8606" lon="5.33627">
        <ele>452.6137</ele>
        <time>2014-08-04T16:19:07Z</time>
      </trkpt>
      <trkpt lat="47.86056" lon="5.33621">
        <ele>451.0912</ele>
        <time>2014-08-04T16:19:13Z</time>
      </trkpt>
      <trkpt lat="47.86052" lon="5.33617">
        <ele>451.1535</ele>
        <time>2014-08-04T16:19:17Z</time>
      </trkpt>
      <trkpt lat="47.86047" lon="5.33612">
        <ele>447.0685</ele>
        <time>2014-08-04T16:19:20Z</time>
      </trkpt>
      <trkpt lat="47.86043" lon="5.33607">
        <ele>444.6158</ele>
        <time>2014-08-04T16:19:23Z</time>
      </trkpt>
      <trkpt lat="47.86038" lon="5.33603">
        <ele>444.1841</ele>
        <time>2014-08-04T16:19:26Z</time>
      </trkpt>
      <trkpt lat="47.86033" lon="5.33599">
        <ele>446.0485</ele>
        <time>2014-08-04T16:19:29Z</time>
      </trkpt>
      <trkpt lat="47.86028" lon="5.33596">
        <ele>447.1906</ele>
        <time>2014-08-04T16:19:32Z</time>
      </trkpt>
      <trkpt lat="47.86024" lon="5.33593">
        <ele>449.2974</ele>
        <time>2014-08-04T16:19:35Z</time>
      </trkpt>
      <trkpt lat="47.86019" lon="5.33588">
        <ele>455.4761</ele>
        <time>2014-08-04T16:19:38Z</time>
      </trkpt>
      <trkpt lat="47.86014" lon="5.33583">
        <ele>455.628</ele>
        <time>2014-08-04T16:19:41Z</time>
      </trkpt>
      <trkpt lat="47.8601" lon="5.33579">
        <ele>454.13</ele>
        <time>2014-08-04T16:19:44Z</time>
      </trkpt>
      <trkpt lat="47.86005" lon="5.33577">
        <ele>447.6448</ele>
        <time>2014-08-04T16:19:48Z</time>
      </trkpt>
      <trkpt lat="47.86" lon="5.33575">
        <ele>445.5377</ele>
        <time>2014-08-04T16:19:51Z</time>
      </trkpt>
      <trkpt lat="47.85995" lon="5.33572">
        <ele>453.7804</ele>
        <time>2014-08-04T16:19:54Z</time>
      </trkpt>
      <trkpt lat="47.85989" lon="5.33568">
        <ele>467.4684</ele>
        <time>2014-08-04T16:19:56Z</time>
      </trkpt>
      <trkpt lat="47.85985" lon="5.33564">
        <ele>474.2684</ele>
        <time>2014-08-04T16:19:58Z</time>
      </trkpt>
      <trkpt lat="47.8598" lon="5.33563">
        <ele>472.8679</ele>
        <time>2014-08-04T16:20:02Z</time>
      </trkpt>
      <trkpt lat="47.85974" lon="5.33561">
        <ele>477.5647</ele>
        <time>2014-08-04T16:20:05Z</time>
      </trkpt>
      <trkpt lat="47.8597" lon="5.33559">
        <ele>477.5146</ele>
        <time>2014-08-04T16:20:08Z</time>
      </trkpt>
      <trkpt lat="47.85964" lon="5.3356">
        <ele>464.59</ele>
        <time>2014-08-04T16:20:14Z</time>
      </trkpt>
      <trkpt lat="47.85959" lon="5.3356">
        <ele>453.7921</ele>
        <time>2014-08-04T16:20:19Z</time>
      </trkpt>
      <trkpt lat="47.85954" lon="5.33558">
        <ele>458.9518</ele>
        <time>2014-08-04T16:20:22Z</time>
      </trkpt>
      <trkpt lat="47.85949" lon="5.33556">
        <ele>462.3019</ele>
        <time>2014-08-04T16:20:25Z</time>
      </trkpt>
      <trkpt lat="47.85944" lon="5.33554">
        <ele>471.5376</ele>
        <time>2014-08-04T16:20:27Z</time>
      </trkpt>
      <trkpt lat="47.85939" lon="5.33551">
        <ele>478.1712</ele>
        <time>2014-08-04T16:20:30Z</time>
      </trkpt>
      <trkpt lat="47.85934" lon="5.33547">
        <ele>476.6587</ele>
        <time>2014-08-04T16:20:33Z</time>
      </trkpt>
      <trkpt lat="47.85928" lon="5.33545">
        <ele>475.3108</ele>
        <time>2014-08-04T16:20:38Z</time>
      </trkpt>
      <trkpt lat="47.85922" lon="5.33544">
        <ele>478.8637</ele>
        <time>2014-08-04T16:20:42Z</time>
      </trkpt>
      <trkpt lat="47.85918" lon="5.33543">
        <ele>478.3188</ele>
        <time>2014-08-04T16:20:45Z</time>
      </trkpt>
      <trkpt lat="47.85912" lon="5.33542">
        <ele>474.3759</ele>
        <time>2014-08-04T16:20:49Z</time>
      </trkpt>
      <trkpt lat="47.85907" lon="5.33541">
        <ele>469.5645</ele>
        <time>2014-08-04T16:20:53Z</time>
      </trkpt>
      <trkpt lat="47.85903" lon="5.33541">
        <ele>466.5728</ele>
        <time>2014-08-04T16:20:58Z</time>
      </trkpt>
      <trkpt lat="47.85898" lon="5.33539">
        <ele>462.0824</ele>
        <time>2014-08-04T16:21:01Z</time>
      </trkpt>
      <trkpt lat="47.85894" lon="5.33536">
        <ele>461.5869</ele>
        <time>2014-08-04T16:21:04Z</time>
      </trkpt>
      <trkpt lat="47.85889" lon="5.33535">
        <ele>459.1258</ele>
        <time>2014-08-04T16:21:08Z</time>
      </trkpt>
      <trkpt lat="47.85884" lon="5.33534">
        <ele>462.0772</ele>
        <time>2014-08-04T16:21:12Z</time>
      </trkpt>
      <trkpt lat="47.85878" lon="5.33533">
        <ele>465.8291</ele>
        <time>2014-08-04T16:21:16Z</time>
      </trkpt>
      <trkpt lat="47.85873" lon="5.33532">
        <ele>463.8236</ele>
        <time>2014-08-04T16:21:20Z</time>
      </trkpt>
      <trkpt lat="47.85868" lon="5.3353">
        <ele>459.189</ele>
        <time>2014-08-04T16:21:24Z</time>
      </trkpt>
      <trkpt lat="47.85862" lon="5.33528">
        <ele>462.657</ele>
        <time>2014-08-04T16:21:28Z</time>
      </trkpt>
      <trkpt lat="47.85857" lon="5.33526">
        <ele>457.1315</ele>
        <time>2014-08-04T16:21:32Z</time>
      </trkpt>
      <trkpt lat="47.85852" lon="5.33524">
        <ele>458.5745</ele>
        <time>2014-08-04T16:21:36Z</time>
      </trkpt>
      <trkpt lat="47.85847" lon="5.33521">
        <ele>457.4138</ele>
        <time>2014-08-04T16:21:40Z</time>
      </trkpt>
      <trkpt lat="47.85848" lon="5.33514">
        <ele>458.9544</ele>
        <time>2014-08-04T16:21:43Z</time>
      </trkpt>
      <trkpt lat="47.85853" lon="5.33512">
        <ele>463.1551</ele>
        <time>2014-08-04T16:21:46Z</time>
      </trkpt>
      <trkpt lat="47.85859" lon="5.3351">
        <ele>462.6514</ele>
        <time>2014-08-04T16:21:49Z</time>
      </trkpt>
      <trkpt lat="47.85864" lon="5.33507">
        <ele>461.3782</ele>
        <time>2014-08-04T16:21:52Z</time>
      </trkpt>
      <trkpt lat="47.8587" lon="5.33501">
        <ele>458.7697</ele>
        <time>2014-08-04T16:21:55Z</time>
      </trkpt>
      <trkpt lat="47.85875" lon="5.33496">
        <ele>460.7952</ele>
        <time>2014-08-04T16:21:58Z</time>
      </trkpt>
      <trkpt lat="47.85879" lon="5.3349">
        <ele>461.3357</ele>
        <time>2014-08-04T16:22:01Z</time>
      </trkpt>
      <trkpt lat="47.85882" lon="5.33483">
        <ele>460.2408</ele>
        <time>2014-08-04T16:22:04Z</time>
      </trkpt>
      <trkpt lat="47.85885" lon="5.33477">
        <ele>460.7831</ele>
        <time>2014-08-04T16:22:06Z</time>
      </trkpt>
      <trkpt lat="47.85887" lon="5.33468">
        <ele>459.3347</ele>
        <time>2014-08-04T16:22:09Z</time>
      </trkpt>
      <trkpt lat="47.85888" lon="5.33461">
        <ele>459.2502</ele>
        <time>2014-08-04T16:22:11Z</time>
      </trkpt>
      <trkpt lat="47.85888" lon="5.33454">
        <ele>458.8552</ele>
        <time>2014-08-04T16:22:13Z</time>
      </trkpt>
      <trkpt lat="47.85889" lon="5.33444">
        <ele>460.0181</ele>
        <time>2014-08-04T16:22:16Z</time>
      </trkpt>
      <trkpt lat="47.85888" lon="5.33435">
        <ele>458.2076</ele>
        <time>2014-08-04T16:22:19Z</time>
      </trkpt>
      <trkpt lat="47.85887" lon="5.33425">
        <ele>459.7243</ele>
        <time>2014-08-04T16:22:22Z</time>
      </trkpt>
      <trkpt lat="47.85885" lon="5.33416">
        <ele>461.6012</ele>
        <time>2014-08-04T16:22:25Z</time>
      </trkpt>
      <trkpt lat="47.85883" lon="5.33409">
        <ele>463.2497</ele>
        <time>2014-08-04T16:22:27Z</time>
      </trkpt>
      <trkpt lat="47.85881" lon="5.33402">
        <ele>464.459</ele>
        <time>2014-08-04T16:22:29Z</time>
      </trkpt>
      <trkpt lat="47.85879" lon="5.33396">
        <ele>466.3573</ele>
        <time>2014-08-04T16:22:31Z</time>
      </trkpt>
      <trkpt lat="47.85875" lon="5.3339">
        <ele>467.6242</ele>
        <time>2014-08-04T16:22:33Z</time>
      </trkpt>
      <trkpt lat="47.85872" lon="5.33384">
        <ele>468.1114</ele>
        <time>2014-08-04T16:22:35Z</time>
      </trkpt>
      <trkpt lat="47.85867" lon="5.33379">
        <ele>467.4059</ele>
        <time>2014-08-04T16:22:37Z</time>
      </trkpt>
      <trkpt lat="47.85863" lon="5.33374">
        <ele>468.6103</ele>
        <time>2014-08-04T16:22:39Z</time>
      </trkpt>
      <trkpt lat="47.85859" lon="5.3337">
        <ele>469.3341</ele>
        <time>2014-08-04T16:22:41Z</time>
      </trkpt>
      <trkpt lat="47.85854" lon="5.33365">
        <ele>468.3412</ele>
        <time>2014-08-04T16:22:43Z</time>
      </trkpt>
      <trkpt lat="47.8585" lon="5.33361">
        <ele>468.0188</ele>
        <time>2014-08-04T16:22:45Z</time>
      </trkpt>
      <trkpt lat="47.85846" lon="5.33358">
        <ele>469.6516</ele>
        <time>2014-08-04T16:22:47Z</time>
      </trkpt>
      <trkpt lat="47.85843" lon="5.33355">
        <ele>470.155</ele>
        <time>2014-08-04T16:22:49Z</time>
      </trkpt>
      <trkpt lat="47.85838" lon="5.33352">
        <ele>475.1393</ele>
        <time>2014-08-04T16:22:51Z</time>
      </trkpt>
      <trkpt lat="47.85833" lon="5.3335">
        <ele>476.1952</ele>
        <time>2014-08-04T16:22:53Z</time>
      </trkpt>
      <trkpt lat="47.8583" lon="5.33346">
        <ele>474.6164</ele>
        <time>2014-08-04T16:22:55Z</time>
      </trkpt>
      <trkpt lat="47.85826" lon="5.33341">
        <ele>474.5366</ele>
        <time>2014-08-04T16:22:57Z</time>
      </trkpt>
      <trkpt lat="47.85821" lon="5.33336">
        <ele>474.9491</ele>
        <time>2014-08-04T16:23:00Z</time>
      </trkpt>
      <trkpt lat="47.85817" lon="5.33331">
        <ele>473.2716</ele>
        <time>2014-08-04T16:23:02Z</time>
      </trkpt>
      <trkpt lat="47.85812" lon="5.33326">
        <ele>474.3025</ele>
        <time>2014-08-04T16:23:05Z</time>
      </trkpt>
      <trkpt lat="47.85807" lon="5.3332">
        <ele>471.8294</ele>
        <time>2014-08-04T16:23:08Z</time>
      </trkpt>
      <trkpt lat="47.85805" lon="5.33314">
        <ele>471.0085</ele>
        <time>2014-08-04T16:23:10Z</time>
      </trkpt>
      <trkpt lat="47.85803" lon="5.33306">
        <ele>468.6548</ele>
        <time>2014-08-04T16:23:13Z</time>
      </trkpt>
      <trkpt lat="47.85801" lon="5.33299">
        <ele>466.7652</ele>
        <time>2014-08-04T16:23:17Z</time>
      </trkpt>
      <trkpt lat="47.85801" lon="5.33292">
        <ele>468.5569</ele>
        <time>2014-08-04T16:23:32Z</time>
      </trkpt>
      <trkpt lat="47.85801" lon="5.33284">
        <ele>469.6842</ele>
        <time>2014-08-04T16:23:35Z</time>
      </trkpt>
      <trkpt lat="47.85801" lon="5.33276">
        <ele>468.2724</ele>
        <time>2014-08-04T16:23:37Z</time>
      </trkpt>
      <trkpt lat="47.85802" lon="5.33268">
        <ele>468.3883</ele>
        <time>2014-08-04T16:23:39Z</time>
      </trkpt>
      <trkpt lat="47.85803" lon="5.3326">
        <ele>467.1467</ele>
        <time>2014-08-04T16:23:41Z</time>
      </trkpt>
      <trkpt lat="47.85801" lon="5.33252">
        <ele>467.1328</ele>
        <time>2014-08-04T16:23:43Z</time>
      </trkpt>
      <trkpt lat="47.85796" lon="5.33244">
        <ele>468.5761</ele>
        <time>2014-08-04T16:23:45Z</time>
      </trkpt>
      <trkpt lat="47.8579" lon="5.3324">
        <ele>467.4546</ele>
        <time>2014-08-04T16:23:47Z</time>
      </trkpt>
      <trkpt lat="47.85786" lon="5.33233">
        <ele>468.9363</ele>
        <time>2014-08-04T16:23:49Z</time>
      </trkpt>
      <trkpt lat="47.85785" lon="5.33224">
        <ele>469.2943</ele>
        <time>2014-08-04T16:23:51Z</time>
      </trkpt>
      <trkpt lat="47.85783" lon="5.33215">
        <ele>470.2083</ele>
        <time>2014-08-04T16:23:53Z</time>
      </trkpt>
      <trkpt lat="47.85777" lon="5.33209">
        <ele>470.1648</ele>
        <time>2014-08-04T16:23:55Z</time>
      </trkpt>
      <trkpt lat="47.85772" lon="5.33205">
        <ele>469.2766</ele>
        <time>2014-08-04T16:23:57Z</time>
      </trkpt>
      <trkpt lat="47.85767" lon="5.33197">
        <ele>469.6475</ele>
        <time>2014-08-04T16:23:59Z</time>
      </trkpt>
      <trkpt lat="47.85763" lon="5.33192">
        <ele>466.3851</ele>
        <time>2014-08-04T16:24:01Z</time>
      </trkpt>
      <trkpt lat="47.85757" lon="5.33187">
        <ele>464.5027</ele>
        <time>2014-08-04T16:24:03Z</time>
      </trkpt>
      <trkpt lat="47.8575" lon="5.3318">
        <ele>461.5637</ele>
        <time>2014-08-04T16:24:05Z</time>
      </trkpt>
      <trkpt lat="47.85743" lon="5.33173">
        <ele>463.7708</ele>
        <time>2014-08-04T16:24:07Z</time>
      </trkpt>
      <trkpt lat="47.85737" lon="5.33167">
        <ele>463.6636</ele>
        <time>2014-08-04T16:24:09Z</time>
      </trkpt>
      <trkpt lat="47.85731" lon="5.33161">
        <ele>464.1759</ele>
        <time>2014-08-04T16:24:11Z</time>
      </trkpt>
      <trkpt lat="47.85723" lon="5.33152">
        <ele>461.9214</ele>
        <time>2014-08-04T16:24:13Z</time>
      </trkpt>
      <trkpt lat="47.85719" lon="5.33149">
        <ele>462.1087</ele>
        <time>2014-08-04T16:24:14Z</time>
      </trkpt>
      <trkpt lat="47.85715" lon="5.33144">
        <ele>463.9298</ele>
        <time>2014-08-04T16:24:15Z</time>
      </trkpt>
      <trkpt lat="47.85711" lon="5.33139">
        <ele>462.8723</ele>
        <time>2014-08-04T16:24:16Z</time>
      </trkpt>
      <trkpt lat="47.85704" lon="5.33131">
        <ele>467.6866</ele>
        <time>2014-08-04T16:24:18Z</time>
      </trkpt>
      <trkpt lat="47.85697" lon="5.33123">
        <ele>466.4017</ele>
        <time>2014-08-04T16:24:20Z</time>
      </trkpt>
      <trkpt lat="47.85693" lon="5.33119">
        <ele>468.1535</ele>
        <time>2014-08-04T16:24:21Z</time>
      </trkpt>
      <trkpt lat="47.85689" lon="5.33115">
        <ele>467.5636</ele>
        <time>2014-08-04T16:24:22Z</time>
      </trkpt>
      <trkpt lat="47.85685" lon="5.33111">
        <ele>466.2539</ele>
        <time>2014-08-04T16:24:23Z</time>
      </trkpt>
      <trkpt lat="47.85681" lon="5.33106">
        <ele>465.1945</ele>
        <time>2014-08-04T16:24:24Z</time>
      </trkpt>
      <trkpt lat="47.85677" lon="5.33102">
        <ele>464.2494</ele>
        <time>2014-08-04T16:24:25Z</time>
      </trkpt>
      <trkpt lat="47.85674" lon="5.33098">
        <ele>465.9193</ele>
        <time>2014-08-04T16:24:26Z</time>
      </trkpt>
      <trkpt lat="47.85666" lon="5.33091">
        <ele>465.7797</ele>
        <time>2014-08-04T16:24:28Z</time>
      </trkpt>
      <trkpt lat="47.85661" lon="5.33087">
        <ele>461.374</ele>
        <time>2014-08-04T16:24:29Z</time>
      </trkpt>
      <trkpt lat="47.85656" lon="5.33084">
        <ele>461.4202</ele>
        <time>2014-08-04T16:24:30Z</time>
      </trkpt>
      <trkpt lat="47.85648" lon="5.33079">
        <ele>462.0109</ele>
        <time>2014-08-04T16:24:32Z</time>
      </trkpt>
      <trkpt lat="47.85644" lon="5.33076">
        <ele>463.1667</ele>
        <time>2014-08-04T16:24:33Z</time>
      </trkpt>
      <trkpt lat="47.85637" lon="5.3307">
        <ele>460.7446</ele>
        <time>2014-08-04T16:24:35Z</time>
      </trkpt>
      <trkpt lat="47.8563" lon="5.33061">
        <ele>460.7361</ele>
        <time>2014-08-04T16:24:37Z</time>
      </trkpt>
      <trkpt lat="47.85625" lon="5.33057">
        <ele>461.9723</ele>
        <time>2014-08-04T16:24:38Z</time>
      </trkpt>
      <trkpt lat="47.85621" lon="5.33052">
        <ele>464.8083</ele>
        <time>2014-08-04T16:24:39Z</time>
      </trkpt>
      <trkpt lat="47.85613" lon="5.33043">
        <ele>465.8554</ele>
        <time>2014-08-04T16:24:41Z</time>
      </trkpt>
      <trkpt lat="47.85608" lon="5.33038">
        <ele>466.1725</ele>
        <time>2014-08-04T16:24:42Z</time>
      </trkpt>
      <trkpt lat="47.85604" lon="5.33031">
        <ele>467.4375</ele>
        <time>2014-08-04T16:24:43Z</time>
      </trkpt>
      <trkpt lat="47.85596" lon="5.33024">
        <ele>466.8733</ele>
        <time>2014-08-04T16:24:45Z</time>
      </trkpt>
      <trkpt lat="47.85592" lon="5.33019">
        <ele>467.7447</ele>
        <time>2014-08-04T16:24:46Z</time>
      </trkpt>
      <trkpt lat="47.85587" lon="5.33014">
        <ele>466.933</ele>
        <time>2014-08-04T16:24:47Z</time>
      </trkpt>
      <trkpt lat="47.85584" lon="5.3301">
        <ele>466.3376</ele>
        <time>2014-08-04T16:24:48Z</time>
      </trkpt>
      <trkpt lat="47.85576" lon="5.33003">
        <ele>464.7942</ele>
        <time>2014-08-04T16:24:50Z</time>
      </trkpt>
      <trkpt lat="47.85571" lon="5.32997">
        <ele>464.3725</ele>
        <time>2014-08-04T16:24:51Z</time>
      </trkpt>
      <trkpt lat="47.85567" lon="5.32991">
        <ele>464.1704</ele>
        <time>2014-08-04T16:24:52Z</time>
      </trkpt>
      <trkpt lat="47.85562" lon="5.32985">
        <ele>464.0294</ele>
        <time>2014-08-04T16:24:53Z</time>
      </trkpt>
      <trkpt lat="47.85558" lon="5.32979">
        <ele>463.6823</ele>
        <time>2014-08-04T16:24:54Z</time>
      </trkpt>
      <trkpt lat="47.85553" lon="5.32975">
        <ele>459.9652</ele>
        <time>2014-08-04T16:24:55Z</time>
      </trkpt>
      <trkpt lat="47.8555" lon="5.32971">
        <ele>459.7057</ele>
        <time>2014-08-04T16:24:56Z</time>
      </trkpt>
      <trkpt lat="47.85545" lon="5.32968">
        <ele>455.6038</ele>
        <time>2014-08-04T16:24:57Z</time>
      </trkpt>
      <trkpt lat="47.85541" lon="5.32964">
        <ele>456.8814</ele>
        <time>2014-08-04T16:24:58Z</time>
      </trkpt>
      <trkpt lat="47.85536" lon="5.32959">
        <ele>457.371</ele>
        <time>2014-08-04T16:24:59Z</time>
      </trkpt>
      <trkpt lat="47.85531" lon="5.32954">
        <ele>459.3923</ele>
        <time>2014-08-04T16:25:00Z</time>
      </trkpt>
      <trkpt lat="47.85527" lon="5.3295">
        <ele>461.7412</ele>
        <time>2014-08-04T16:25:01Z</time>
      </trkpt>
      <trkpt lat="47.85523" lon="5.32944">
        <ele>463.2582</ele>
        <time>2014-08-04T16:25:02Z</time>
      </trkpt>
      <trkpt lat="47.85518" lon="5.32939">
        <ele>463.4992</ele>
        <time>2014-08-04T16:25:03Z</time>
      </trkpt>
      <trkpt lat="47.85514" lon="5.32934">
        <ele>462.5996</ele>
        <time>2014-08-04T16:25:04Z</time>
      </trkpt>
      <trkpt lat="47.8551" lon="5.3293">
        <ele>462.673</ele>
        <time>2014-08-04T16:25:05Z</time>
      </trkpt>
      <trkpt lat="47.85505" lon="5.32925">
        <ele>461.833</ele>
        <time>2014-08-04T16:25:06Z</time>
      </trkpt>
      <trkpt lat="47.855" lon="5.32921">
        <ele>462.5319</ele>
        <time>2014-08-04T16:25:07Z</time>
      </trkpt>
      <trkpt lat="47.85495" lon="5.32918">
        <ele>461.3008</ele>
        <time>2014-08-04T16:25:08Z</time>
      </trkpt>
      <trkpt lat="47.8549" lon="5.32915">
        <ele>459.9899</ele>
        <time>2014-08-04T16:25:09Z</time>
      </trkpt>
      <trkpt lat="47.85485" lon="5.32911">
        <ele>459.2153</ele>
        <time>2014-08-04T16:25:10Z</time>
      </trkpt>
      <trkpt lat="47.85481" lon="5.32909">
        <ele>462.676</ele>
        <time>2014-08-04T16:25:11Z</time>
      </trkpt>
      <trkpt lat="47.85477" lon="5.32904">
        <ele>461.0059</ele>
        <time>2014-08-04T16:25:12Z</time>
      </trkpt>
      <trkpt lat="47.85473" lon="5.32899">
        <ele>459.3007</ele>
        <time>2014-08-04T16:25:13Z</time>
      </trkpt>
      <trkpt lat="47.85468" lon="5.32894">
        <ele>459.75</ele>
        <time>2014-08-04T16:25:14Z</time>
      </trkpt>
      <trkpt lat="47.85463" lon="5.3289">
        <ele>461.0441</ele>
        <time>2014-08-04T16:25:15Z</time>
      </trkpt>
      <trkpt lat="47.85457" lon="5.32883">
        <ele>460.0647</ele>
        <time>2014-08-04T16:25:17Z</time>
      </trkpt>
      <trkpt lat="47.85453" lon="5.32878">
        <ele>455.8043</ele>
        <time>2014-08-04T16:25:18Z</time>
      </trkpt>
      <trkpt lat="47.85449" lon="5.32872">
        <ele>457.7719</ele>
        <time>2014-08-04T16:25:19Z</time>
      </trkpt>
      <trkpt lat="47.85445" lon="5.32867">
        <ele>459.7904</ele>
        <time>2014-08-04T16:25:20Z</time>
      </trkpt>
      <trkpt lat="47.8544" lon="5.32862">
        <ele>460.9246</ele>
        <time>2014-08-04T16:25:21Z</time>
      </trkpt>
      <trkpt lat="47.85436" lon="5.32858">
        <ele>456.9711</ele>
        <time>2014-08-04T16:25:22Z</time>
      </trkpt>
      <trkpt lat="47.8543" lon="5.32851">
        <ele>459.2477</ele>
        <time>2014-08-04T16:25:24Z</time>
      </trkpt>
      <trkpt lat="47.85426" lon="5.32847">
        <ele>460.8195</ele>
        <time>2014-08-04T16:25:25Z</time>
      </trkpt>
      <trkpt lat="47.8542" lon="5.3284">
        <ele>456.7929</ele>
        <time>2014-08-04T16:25:27Z</time>
      </trkpt>
      <trkpt lat="47.85414" lon="5.32835">
        <ele>456.6921</ele>
        <time>2014-08-04T16:25:29Z</time>
      </trkpt>
      <trkpt lat="47.85408" lon="5.32828">
        <ele>457.0714</ele>
        <time>2014-08-04T16:25:31Z</time>
      </trkpt>
      <trkpt lat="47.85402" lon="5.32821">
        <ele>459.33</ele>
        <time>2014-08-04T16:25:33Z</time>
      </trkpt>
      <trkpt lat="47.85396" lon="5.32816">
        <ele>458.0395</ele>
        <time>2014-08-04T16:25:35Z</time>
      </trkpt>
      <trkpt lat="47.8539" lon="5.32811">
        <ele>459.0625</ele>
        <time>2014-08-04T16:25:37Z</time>
      </trkpt>
      <trkpt lat="47.85386" lon="5.32806">
        <ele>460.1147</ele>
        <time>2014-08-04T16:25:39Z</time>
      </trkpt>
      <trkpt lat="47.8538" lon="5.32801">
        <ele>454.6849</ele>
        <time>2014-08-04T16:25:41Z</time>
      </trkpt>
      <trkpt lat="47.85374" lon="5.32795">
        <ele>453.8582</ele>
        <time>2014-08-04T16:25:43Z</time>
      </trkpt>
      <trkpt lat="47.8537" lon="5.32789">
        <ele>450.4174</ele>
        <time>2014-08-04T16:25:45Z</time>
      </trkpt>
      <trkpt lat="47.85363" lon="5.32783">
        <ele>450.5158</ele>
        <time>2014-08-04T16:25:47Z</time>
      </trkpt>
      <trkpt lat="47.85355" lon="5.32782">
        <ele>454.8678</ele>
        <time>2014-08-04T16:25:49Z</time>
      </trkpt>
      <trkpt lat="47.8535" lon="5.32782">
        <ele>452.3635</ele>
        <time>2014-08-04T16:25:50Z</time>
      </trkpt>
      <trkpt lat="47.85343" lon="5.32782">
        <ele>455.9461</ele>
        <time>2014-08-04T16:25:52Z</time>
      </trkpt>
      <trkpt lat="47.85335" lon="5.32783">
        <ele>456.0168</ele>
        <time>2014-08-04T16:25:54Z</time>
      </trkpt>
      <trkpt lat="47.8533" lon="5.32782">
        <ele>455.0147</ele>
        <time>2014-08-04T16:25:55Z</time>
      </trkpt>
      <trkpt lat="47.85325" lon="5.32782">
        <ele>452.9268</ele>
        <time>2014-08-04T16:25:56Z</time>
      </trkpt>
      <trkpt lat="47.85317" lon="5.32777">
        <ele>453.3282</ele>
        <time>2014-08-04T16:25:58Z</time>
      </trkpt>
      <trkpt lat="47.8531" lon="5.32772">
        <ele>452.6894</ele>
        <time>2014-08-04T16:26:00Z</time>
      </trkpt>
      <trkpt lat="47.85306" lon="5.32769">
        <ele>450.1536</ele>
        <time>2014-08-04T16:26:01Z</time>
      </trkpt>
      <trkpt lat="47.85298" lon="5.32764">
        <ele>446.1159</ele>
        <time>2014-08-04T16:26:03Z</time>
      </trkpt>
      <trkpt lat="47.85293" lon="5.32762">
        <ele>448.6549</ele>
        <time>2014-08-04T16:26:04Z</time>
      </trkpt>
      <trkpt lat="47.85287" lon="5.32759">
        <ele>448.6985</ele>
        <time>2014-08-04T16:26:05Z</time>
      </trkpt>
      <trkpt lat="47.85281" lon="5.32757">
        <ele>444.1193</ele>
        <time>2014-08-04T16:26:06Z</time>
      </trkpt>
      <trkpt lat="47.85276" lon="5.32754">
        <ele>441.9055</ele>
        <time>2014-08-04T16:26:07Z</time>
      </trkpt>
      <trkpt lat="47.85268" lon="5.32752">
        <ele>443.6342</ele>
        <time>2014-08-04T16:26:09Z</time>
      </trkpt>
      <trkpt lat="47.85261" lon="5.32749">
        <ele>445.3843</ele>
        <time>2014-08-04T16:26:11Z</time>
      </trkpt>
      <trkpt lat="47.85253" lon="5.32744">
        <ele>445.8036</ele>
        <time>2014-08-04T16:26:13Z</time>
      </trkpt>
      <trkpt lat="47.85248" lon="5.32742">
        <ele>444.8547</ele>
        <time>2014-08-04T16:26:14Z</time>
      </trkpt>
      <trkpt lat="47.85244" lon="5.32739">
        <ele>448.1824</ele>
        <time>2014-08-04T16:26:15Z</time>
      </trkpt>
      <trkpt lat="47.8524" lon="5.32736">
        <ele>445.5213</ele>
        <time>2014-08-04T16:26:16Z</time>
      </trkpt>
      <trkpt lat="47.85234" lon="5.32729">
        <ele>447.0551</ele>
        <time>2014-08-04T16:26:18Z</time>
      </trkpt>
      <trkpt lat="47.85227" lon="5.32723">
        <ele>448.2175</ele>
        <time>2014-08-04T16:26:20Z</time>
      </trkpt>
      <trkpt lat="47.85223" lon="5.32719">
        <ele>447.3681</ele>
        <time>2014-08-04T16:26:21Z</time>
      </trkpt>
      <trkpt lat="47.85218" lon="5.32714">
        <ele>445.7702</ele>
        <time>2014-08-04T16:26:22Z</time>
      </trkpt>
      <trkpt lat="47.85213" lon="5.3271">
        <ele>447.7514</ele>
        <time>2014-08-04T16:26:23Z</time>
      </trkpt>
      <trkpt lat="47.85209" lon="5.32706">
        <ele>446.1928</ele>
        <time>2014-08-04T16:26:24Z</time>
      </trkpt>
      <trkpt lat="47.85205" lon="5.32702">
        <ele>444.0094</ele>
        <time>2014-08-04T16:26:25Z</time>
      </trkpt>
      <trkpt lat="47.85201" lon="5.32698">
        <ele>444.2897</ele>
        <time>2014-08-04T16:26:26Z</time>
      </trkpt>
      <trkpt lat="47.85197" lon="5.32693">
        <ele>445.5729</ele>
        <time>2014-08-04T16:26:27Z</time>
      </trkpt>
      <trkpt lat="47.85191" lon="5.32684">
        <ele>448.2006</ele>
        <time>2014-08-04T16:26:29Z</time>
      </trkpt>
      <trkpt lat="47.85185" lon="5.32677">
        <ele>447.766</ele>
        <time>2014-08-04T16:26:31Z</time>
      </trkpt>
      <trkpt lat="47.8518" lon="5.32672">
        <ele>448.1073</ele>
        <time>2014-08-04T16:26:33Z</time>
      </trkpt>
      <trkpt lat="47.85173" lon="5.32666">
        <ele>445.4628</ele>
        <time>2014-08-04T16:26:35Z</time>
      </trkpt>
      <trkpt lat="47.85168" lon="5.32657">
        <ele>446.3167</ele>
        <time>2014-08-04T16:26:37Z</time>
      </trkpt>
      <trkpt lat="47.85163" lon="5.32649">
        <ele>449.1128</ele>
        <time>2014-08-04T16:26:39Z</time>
      </trkpt>
      <trkpt lat="47.85159" lon="5.32641">
        <ele>451.5209</ele>
        <time>2014-08-04T16:26:41Z</time>
      </trkpt>
      <trkpt lat="47.85156" lon="5.32633">
        <ele>452.694</ele>
        <time>2014-08-04T16:26:43Z</time>
      </trkpt>
      <trkpt lat="47.85151" lon="5.32627">
        <ele>453.497</ele>
        <time>2014-08-04T16:26:45Z</time>
      </trkpt>
      <trkpt lat="47.85146" lon="5.32622">
        <ele>448.5832</ele>
        <time>2014-08-04T16:26:47Z</time>
      </trkpt>
      <trkpt lat="47.85141" lon="5.32617">
        <ele>448.7979</ele>
        <time>2014-08-04T16:26:49Z</time>
      </trkpt>
      <trkpt lat="47.85135" lon="5.32611">
        <ele>450.0301</ele>
        <time>2014-08-04T16:26:51Z</time>
      </trkpt>
      <trkpt lat="47.85127" lon="5.32605">
        <ele>452.5373</ele>
        <time>2014-08-04T16:26:53Z</time>
      </trkpt>
      <trkpt lat="47.85123" lon="5.32601">
        <ele>453.9171</ele>
        <time>2014-08-04T16:26:54Z</time>
      </trkpt>
      <trkpt lat="47.85116" lon="5.32595">
        <ele>452.1903</ele>
        <time>2014-08-04T16:26:56Z</time>
      </trkpt>
      <trkpt lat="47.85112" lon="5.32594">
        <ele>447.5517</ele>
        <time>2014-08-04T16:26:58Z</time>
      </trkpt>
      <trkpt lat="47.85106" lon="5.32593">
        <ele>450.8293</ele>
        <time>2014-08-04T16:27:01Z</time>
      </trkpt>
      <trkpt lat="47.851" lon="5.32586">
        <ele>452.0699</ele>
        <time>2014-08-04T16:27:04Z</time>
      </trkpt>
      <trkpt lat="47.85096" lon="5.3258">
        <ele>450.5587</ele>
        <time>2014-08-04T16:27:06Z</time>
      </trkpt>
      <trkpt lat="47.85091" lon="5.32576">
        <ele>452.7631</ele>
        <time>2014-08-04T16:27:09Z</time>
      </trkpt>
      <trkpt lat="47.8503" lon="5.32604">
        <ele>454.9935</ele>
        <time>2014-08-04T18:23:51Z</time>
      </trkpt>
    </trkseg>
  </trk>
</gpx>